<?xml version='1.0' encoding='UTF-8'?><gpx version="1.1" creator="JPX - https://github.com/jenetics/jpx" xmlns="http://www.topografix.com/GPX/1/1"><trk><trkseg><trkpt lat="45.21908456728824" lon="5.778328387578934"><ele>300.0</ele><time>2026-04-28T06:16:30Z</time></trkpt><trkpt lat="45.21909104632572" lon="5.778426041647519"><ele>300.0</ele><time>2026-04-28T06:16:33Z</time></trkpt><trkpt lat="45.219135898464074" lon="5.778514490150706"><ele>300.0</ele><time>2026-04-28T06:16:35Z</time></trkpt><trkpt lat="45.219177417436704" lon="5.778598739497456"><ele>300.0</ele><time>2026-04-28T06:16:37Z</time></trkpt><trkpt lat="45.21924927871858" lon="5.778703184163464"><ele>300.0</ele><time>2026-04-28T06:16:38Z</time></trkpt><trkpt lat="45.21923351238675" lon="5.778803392544003"><ele>300.0</ele><time>2026-04-28T06:16:41Z</time></trkpt><trkpt lat="45.21919237231331" lon="5.778875117093463"><ele>300.0</ele><time>2026-04-28T06:16:45Z</time></trkpt><trkpt lat="45.219111552861904" lon="5.778925758683941"><ele>300.0</ele><time>2026-04-28T06:16:47Z</time></trkpt><trkpt lat="45.21899229083719" lon="5.778966792503595"><ele>300.0</ele><time>2026-04-28T06:16:49Z</time></trkpt><trkpt lat="45.2189246491552" lon="5.778992409335009"><ele>300.0</ele><time>2026-04-28T06:16:50Z</time></trkpt><trkpt lat="45.21884534498199" lon="5.779017956915133"><ele>300.0</ele><time>2026-04-28T06:16:51Z</time></trkpt><trkpt lat="45.21876800010951" lon="5.779036687696918"><ele>300.0</ele><time>2026-04-28T06:16:52Z</time></trkpt><trkpt lat="45.218689418538276" lon="5.779053667249063"><ele>298.8333333333333</ele><time>2026-04-28T06:16:53Z</time></trkpt><trkpt lat="45.21858027978447" lon="5.779073688732757"><ele>297.6666666666667</ele><time>2026-04-28T06:16:54Z</time></trkpt><trkpt lat="45.21850191492966" lon="5.779093986864734"><ele>296.5</ele><time>2026-04-28T06:16:55Z</time></trkpt><trkpt lat="45.21842966105319" lon="5.779116000853479"><ele>295.33333333333337</ele><time>2026-04-28T06:16:56Z</time></trkpt><trkpt lat="45.21835952471915" lon="5.779137328098827"><ele>294.1666666666667</ele><time>2026-04-28T06:16:57Z</time></trkpt><trkpt lat="45.2182953048673" lon="5.77914677259621"><ele>293.0</ele><time>2026-04-28T06:16:58Z</time></trkpt><trkpt lat="45.21823245702341" lon="5.779175757269828"><ele>291.5</ele><time>2026-04-28T06:16:59Z</time></trkpt><trkpt lat="45.218124371515984" lon="5.779190993353837"><ele>290.0</ele><time>2026-04-28T06:17:01Z</time></trkpt><trkpt lat="45.21804833044277" lon="5.7791782917562555"><ele>288.5</ele><time>2026-04-28T06:17:05Z</time></trkpt><trkpt lat="45.21797442943052" lon="5.77917686448328"><ele>287.0</ele><time>2026-04-28T06:17:10Z</time></trkpt><trkpt lat="45.21790811638061" lon="5.779167663570523"><ele>285.5</ele><time>2026-04-28T06:17:14Z</time></trkpt><trkpt lat="45.217822751590596" lon="5.779137154973829"><ele>284.0</ele><time>2026-04-28T06:17:17Z</time></trkpt><trkpt lat="45.21774365894326" lon="5.779094051059609"><ele>284.0</ele><time>2026-04-28T06:17:19Z</time></trkpt><trkpt lat="45.21763853280497" lon="5.779040512479872"><ele>284.0</ele><time>2026-04-28T06:17:21Z</time></trkpt><trkpt lat="45.2175151227954" lon="5.778975135714984"><ele>284.0</ele><time>2026-04-28T06:17:23Z</time></trkpt><trkpt lat="45.21744159640474" lon="5.778943610164812"><ele>284.0</ele><time>2026-04-28T06:17:24Z</time></trkpt><trkpt lat="45.21734632337884" lon="5.778931102457126"><ele>284.0</ele><time>2026-04-28T06:17:25Z</time></trkpt><trkpt lat="45.21726736813279" lon="5.779016952086623"><ele>282.83333333333337</ele><time>2026-04-28T06:17:26Z</time></trkpt><trkpt lat="45.21718932200961" lon="5.7790636048746435"><ele>281.6666666666667</ele><time>2026-04-28T06:17:27Z</time></trkpt><trkpt lat="45.21710100882596" lon="5.779099576270986"><ele>280.5</ele><time>2026-04-28T06:17:28Z</time></trkpt><trkpt lat="45.21702644605631" lon="5.779138396096071"><ele>279.3333333333333</ele><time>2026-04-28T06:17:29Z</time></trkpt><trkpt lat="45.21695411179947" lon="5.77917683154446"><ele>278.16666666666663</ele><time>2026-04-28T06:17:30Z</time></trkpt><trkpt lat="45.21686886266688" lon="5.779226765086256"><ele>277.0</ele><time>2026-04-28T06:17:31Z</time></trkpt><trkpt lat="45.21677605640445" lon="5.779246166142473"><ele>277.0</ele><time>2026-04-28T06:17:32Z</time></trkpt><trkpt lat="45.21672622779152" lon="5.779306576966639"><ele>277.0</ele><time>2026-04-28T06:17:33Z</time></trkpt><trkpt lat="45.21665347596277" lon="5.779340136196866"><ele>277.0</ele><time>2026-04-28T06:17:34Z</time></trkpt><trkpt lat="45.21650167440038" lon="5.7794034069657725"><ele>277.0</ele><time>2026-04-28T06:17:35Z</time></trkpt><trkpt lat="45.21642015892107" lon="5.779450085972051"><ele>277.0</ele><time>2026-04-28T06:17:36Z</time></trkpt><trkpt lat="45.216347547702384" lon="5.77947351872492"><ele>275.3333333333333</ele><time>2026-04-28T06:17:37Z</time></trkpt><trkpt lat="45.216275433433424" lon="5.7794764169282"><ele>273.66666666666663</ele><time>2026-04-28T06:17:38Z</time></trkpt><trkpt lat="45.216206940881044" lon="5.779457428425332"><ele>272.0</ele><time>2026-04-28T06:17:39Z</time></trkpt><trkpt lat="45.21613006313133" lon="5.779451354867494"><ele>270.3333333333333</ele><time>2026-04-28T06:17:40Z</time></trkpt><trkpt lat="45.21604981713054" lon="5.779461618266584"><ele>268.6666666666667</ele><time>2026-04-28T06:17:41Z</time></trkpt><trkpt lat="45.21597058618997" lon="5.779477605815761"><ele>267.0</ele><time>2026-04-28T06:17:42Z</time></trkpt><trkpt lat="45.215882928581784" lon="5.779490679775185"><ele>267.0</ele><time>2026-04-28T06:17:43Z</time></trkpt><trkpt lat="45.21580138495314" lon="5.7794968287394415"><ele>267.0</ele><time>2026-04-28T06:17:44Z</time></trkpt><trkpt lat="45.21571641236882" lon="5.779514235565748"><ele>267.0</ele><time>2026-04-28T06:17:45Z</time></trkpt><trkpt lat="45.21562274356363" lon="5.779532347795027"><ele>267.0</ele><time>2026-04-28T06:17:46Z</time></trkpt><trkpt lat="45.21552845395705" lon="5.779528033291474"><ele>267.0</ele><time>2026-04-28T06:17:47Z</time></trkpt><trkpt lat="45.21543152448997" lon="5.77954151545135"><ele>265.6666666666667</ele><time>2026-04-28T06:17:48Z</time></trkpt><trkpt lat="45.21534319556677" lon="5.779554741322447"><ele>264.3333333333333</ele><time>2026-04-28T06:17:49Z</time></trkpt><trkpt lat="45.21526864894054" lon="5.779564341367597"><ele>263.0</ele><time>2026-04-28T06:17:50Z</time></trkpt><trkpt lat="45.21519098243387" lon="5.779570053845921"><ele>261.66666666666663</ele><time>2026-04-28T06:17:51Z</time></trkpt><trkpt lat="45.21511883074693" lon="5.779596402231178"><ele>260.3333333333333</ele><time>2026-04-28T06:17:52Z</time></trkpt><trkpt lat="45.2150474367624" lon="5.779631250549013"><ele>259.0</ele><time>2026-04-28T06:17:53Z</time></trkpt><trkpt lat="45.21498161201701" lon="5.779652378488947"><ele>259.0</ele><time>2026-04-28T06:17:54Z</time></trkpt><trkpt lat="45.21492008191941" lon="5.779675496708142"><ele>259.0</ele><time>2026-04-28T06:17:55Z</time></trkpt><trkpt lat="45.21481358677175" lon="5.779710876407692"><ele>259.0</ele><time>2026-04-28T06:17:57Z</time></trkpt><trkpt lat="45.21469973591764" lon="5.779723568046449"><ele>259.0</ele><time>2026-04-28T06:17:59Z</time></trkpt><trkpt lat="45.214579203312326" lon="5.7797626424893105"><ele>259.0</ele><time>2026-04-28T06:18:01Z</time></trkpt><trkpt lat="45.21451143087913" lon="5.7797317190719095"><ele>257.8</ele><time>2026-04-28T06:18:03Z</time></trkpt><trkpt lat="45.21447369844071" lon="5.779606290470091"><ele>256.59999999999997</ele><time>2026-04-28T06:18:05Z</time></trkpt><trkpt lat="45.21444342696978" lon="5.779494997877943"><ele>255.4</ele><time>2026-04-28T06:18:07Z</time></trkpt><trkpt lat="45.214404975668636" lon="5.779388639938369"><ele>254.2</ele><time>2026-04-28T06:18:09Z</time></trkpt><trkpt lat="45.214371007950895" lon="5.779278120564348"><ele>253.0</ele><time>2026-04-28T06:18:11Z</time></trkpt><trkpt lat="45.21422445885466" lon="5.779246590869164"><ele>253.0</ele><time>2026-04-28T06:18:13Z</time></trkpt><trkpt lat="45.21419121331526" lon="5.7791424701818315"><ele>253.0</ele><time>2026-04-28T06:18:15Z</time></trkpt><trkpt lat="45.214154283181074" lon="5.77902680985253"><ele>253.0</ele><time>2026-04-28T06:18:18Z</time></trkpt><trkpt lat="45.21412182077932" lon="5.77891821644185"><ele>253.0</ele><time>2026-04-28T06:18:20Z</time></trkpt><trkpt lat="45.21408893965306" lon="5.778782651427739"><ele>253.0</ele><time>2026-04-28T06:18:22Z</time></trkpt><trkpt lat="45.21405290051373" lon="5.778614875218025"><ele>253.00000000000003</ele><time>2026-04-28T06:18:24Z</time></trkpt><trkpt lat="45.21403353763811" lon="5.778525155885688"><ele>253.0</ele><time>2026-04-28T06:18:25Z</time></trkpt><trkpt lat="45.21402592194986" lon="5.7784296103398125"><ele>253.00000000000003</ele><time>2026-04-28T06:18:26Z</time></trkpt><trkpt lat="45.21400326759784" lon="5.7783370874620354"><ele>253.00000000000003</ele><time>2026-04-28T06:18:27Z</time></trkpt><trkpt lat="45.2139650559716" lon="5.778255121994708"><ele>253.0</ele><time>2026-04-28T06:18:28Z</time></trkpt><trkpt lat="45.21393511965034" lon="5.778174449351122"><ele>253.00000000000003</ele><time>2026-04-28T06:18:29Z</time></trkpt><trkpt lat="45.21390809753004" lon="5.778074269274581"><ele>253.00000000000003</ele><time>2026-04-28T06:18:30Z</time></trkpt><trkpt lat="45.21387229266485" lon="5.777989437031871"><ele>252.2</ele><time>2026-04-28T06:18:31Z</time></trkpt><trkpt lat="45.213828033361025" lon="5.777923168152579"><ele>251.4</ele><time>2026-04-28T06:18:32Z</time></trkpt><trkpt lat="45.21376047350056" lon="5.777774337003407"><ele>250.59999999999997</ele><time>2026-04-28T06:18:34Z</time></trkpt><trkpt lat="45.21373423948397" lon="5.777689384281654"><ele>249.79999999999998</ele><time>2026-04-28T06:18:35Z</time></trkpt><trkpt lat="45.213648891080624" lon="5.7775844575655375"><ele>249.0</ele><time>2026-04-28T06:18:37Z</time></trkpt><trkpt lat="45.21357156089741" lon="5.777451177437279"><ele>249.0</ele><time>2026-04-28T06:18:39Z</time></trkpt><trkpt lat="45.213528503477335" lon="5.777368266132131"><ele>249.0</ele><time>2026-04-28T06:18:40Z</time></trkpt><trkpt lat="45.21348532023898" lon="5.777285069873438"><ele>249.0</ele><time>2026-04-28T06:18:41Z</time></trkpt><trkpt lat="45.21344737511917" lon="5.77719420241258"><ele>249.0</ele><time>2026-04-28T06:18:42Z</time></trkpt><trkpt lat="45.213406584234995" lon="5.777099834444864"><ele>249.0</ele><time>2026-04-28T06:18:43Z</time></trkpt><trkpt lat="45.21336154554264" lon="5.777002652558319"><ele>249.0</ele><time>2026-04-28T06:18:44Z</time></trkpt><trkpt lat="45.21331771360455" lon="5.776904744721907"><ele>248.6</ele><time>2026-04-28T06:18:45Z</time></trkpt><trkpt lat="45.213270510467815" lon="5.776800813616257"><ele>248.2</ele><time>2026-04-28T06:18:46Z</time></trkpt><trkpt lat="45.213218806385875" lon="5.77670040855572"><ele>247.79999999999998</ele><time>2026-04-28T06:18:47Z</time></trkpt><trkpt lat="45.21316924270524" lon="5.776593929576644"><ele>247.39999999999998</ele><time>2026-04-28T06:18:48Z</time></trkpt><trkpt lat="45.213113071369875" lon="5.776489338367257"><ele>247.0</ele><time>2026-04-28T06:18:49Z</time></trkpt><trkpt lat="45.213068355859136" lon="5.776372867120184"><ele>245.8</ele><time>2026-04-28T06:18:50Z</time></trkpt><trkpt lat="45.21301446481201" lon="5.776263733298536"><ele>244.6</ele><time>2026-04-28T06:18:51Z</time></trkpt><trkpt lat="45.21296280357468" lon="5.77615725309764"><ele>243.40000000000003</ele><time>2026-04-28T06:18:52Z</time></trkpt><trkpt lat="45.21290931880975" lon="5.77603767827352"><ele>242.20000000000002</ele><time>2026-04-28T06:18:53Z</time></trkpt><trkpt lat="45.21284824193567" lon="5.7759274727514285"><ele>241.0</ele><time>2026-04-28T06:18:54Z</time></trkpt><trkpt lat="45.2127819557254" lon="5.775818306873061"><ele>241.0</ele><time>2026-04-28T06:18:55Z</time></trkpt><trkpt lat="45.21271676556523" lon="5.775705669526043"><ele>241.00000000000003</ele><time>2026-04-28T06:18:56Z</time></trkpt><trkpt lat="45.21265318939501" lon="5.775590103075094"><ele>241.00000000000003</ele><time>2026-04-28T06:18:57Z</time></trkpt><trkpt lat="45.21258721149424" lon="5.77547668181077"><ele>241.0</ele><time>2026-04-28T06:18:58Z</time></trkpt><trkpt lat="45.212517823925765" lon="5.7753643670775405"><ele>241.0</ele><time>2026-04-28T06:18:59Z</time></trkpt><trkpt lat="45.21244962761692" lon="5.775252076511371"><ele>241.0</ele><time>2026-04-28T06:19:00Z</time></trkpt><trkpt lat="45.21238087154146" lon="5.775144898944238"><ele>241.00000000000003</ele><time>2026-04-28T06:19:01Z</time></trkpt><trkpt lat="45.212308170620716" lon="5.775040536617249"><ele>241.00000000000003</ele><time>2026-04-28T06:19:02Z</time></trkpt><trkpt lat="45.21223277742412" lon="5.774939637870783"><ele>241.0</ele><time>2026-04-28T06:19:03Z</time></trkpt><trkpt lat="45.212168264047" lon="5.774834536756699"><ele>241.0</ele><time>2026-04-28T06:19:04Z</time></trkpt><trkpt lat="45.21211851977591" lon="5.774737017003996"><ele>239.99999999999997</ele><time>2026-04-28T06:19:05Z</time></trkpt><trkpt lat="45.21208163460258" lon="5.774661540730905"><ele>239.0</ele><time>2026-04-28T06:19:06Z</time></trkpt><trkpt lat="45.21198688217131" lon="5.774563189466568"><ele>238.0</ele><time>2026-04-28T06:19:08Z</time></trkpt><trkpt lat="45.21193480915313" lon="5.774498848743093"><ele>237.0</ele><time>2026-04-28T06:19:09Z</time></trkpt><trkpt lat="45.21189076418948" lon="5.7744140427974475"><ele>235.99999999999997</ele><time>2026-04-28T06:19:10Z</time></trkpt><trkpt lat="45.211849599925095" lon="5.7743218990298155"><ele>235.0</ele><time>2026-04-28T06:19:11Z</time></trkpt><trkpt lat="45.211801166449476" lon="5.774231188802906"><ele>234.99999999999997</ele><time>2026-04-28T06:19:12Z</time></trkpt><trkpt lat="45.21174279388409" lon="5.7741518700091055"><ele>235.0</ele><time>2026-04-28T06:19:13Z</time></trkpt><trkpt lat="45.21167764193617" lon="5.774070944936612"><ele>235.0</ele><time>2026-04-28T06:19:14Z</time></trkpt><trkpt lat="45.211614741317234" lon="5.773991550316615"><ele>235.0</ele><time>2026-04-28T06:19:15Z</time></trkpt><trkpt lat="45.211554043326885" lon="5.773899679434212"><ele>234.99999999999997</ele><time>2026-04-28T06:19:16Z</time></trkpt><trkpt lat="45.21149395463765" lon="5.773803479570645"><ele>235.0</ele><time>2026-04-28T06:19:17Z</time></trkpt><trkpt lat="45.21143382154282" lon="5.773720876452307"><ele>234.16666666666666</ele><time>2026-04-28T06:19:18Z</time></trkpt><trkpt lat="45.21137916317673" lon="5.773636823031344"><ele>233.33333333333331</ele><time>2026-04-28T06:19:19Z</time></trkpt><trkpt lat="45.21133699209911" lon="5.773542720937789"><ele>232.5</ele><time>2026-04-28T06:19:20Z</time></trkpt><trkpt lat="45.21127509240559" lon="5.773470493830829"><ele>231.66666666666669</ele><time>2026-04-28T06:19:21Z</time></trkpt><trkpt lat="45.21122305842912" lon="5.773364090053357"><ele>230.83333333333334</ele><time>2026-04-28T06:19:22Z</time></trkpt><trkpt lat="45.21115936156301" lon="5.77328595763026"><ele>230.0</ele><time>2026-04-28T06:19:23Z</time></trkpt><trkpt lat="45.21109729231066" lon="5.77320045604901"><ele>229.6</ele><time>2026-04-28T06:19:24Z</time></trkpt><trkpt lat="45.21103491440838" lon="5.773106067815903"><ele>229.2</ele><time>2026-04-28T06:19:25Z</time></trkpt><trkpt lat="45.210974268189766" lon="5.773010681181921"><ele>228.8</ele><time>2026-04-28T06:19:26.001Z</time></trkpt><trkpt lat="45.21091067546027" lon="5.7729153684484755"><ele>228.4</ele><time>2026-04-28T06:19:27.001Z</time></trkpt><trkpt lat="45.210848438587306" lon="5.772820928131747"><ele>228.0</ele><time>2026-04-28T06:19:28.001Z</time></trkpt><trkpt lat="45.21079127964691" lon="5.772724551169026"><ele>227.60000000000002</ele><time>2026-04-28T06:19:29.001Z</time></trkpt><trkpt lat="45.21072548679557" lon="5.77262555863596"><ele>227.20000000000002</ele><time>2026-04-28T06:19:30.001Z</time></trkpt><trkpt lat="45.210661064810026" lon="5.772525458093491"><ele>226.8</ele><time>2026-04-28T06:19:31.001Z</time></trkpt><trkpt lat="45.21058908039117" lon="5.7724465351447325"><ele>226.4</ele><time>2026-04-28T06:19:32.001Z</time></trkpt><trkpt lat="45.21052296348291" lon="5.772349641437006"><ele>226.0</ele><time>2026-04-28T06:19:33.001Z</time></trkpt><trkpt lat="45.21045967707481" lon="5.772257301703926"><ele>226.0</ele><time>2026-04-28T06:19:34Z</time></trkpt><trkpt lat="45.21039788339276" lon="5.772159481866367"><ele>226.00000000000003</ele><time>2026-04-28T06:19:35Z</time></trkpt><trkpt lat="45.210312928243226" lon="5.772092646385107"><ele>226.00000000000003</ele><time>2026-04-28T06:19:36Z</time></trkpt><trkpt lat="45.210244522944585" lon="5.771998019593088"><ele>226.0</ele><time>2026-04-28T06:19:37Z</time></trkpt><trkpt lat="45.21018692090764" lon="5.771887380864129"><ele>226.0</ele><time>2026-04-28T06:19:38Z</time></trkpt><trkpt lat="45.210123719422924" lon="5.771785680258914"><ele>225.60000000000002</ele><time>2026-04-28T06:19:39Z</time></trkpt><trkpt lat="45.21006075579286" lon="5.7716835918599045"><ele>225.20000000000002</ele><time>2026-04-28T06:19:40Z</time></trkpt><trkpt lat="45.21000293091934" lon="5.771578999863761"><ele>224.79999999999998</ele><time>2026-04-28T06:19:41Z</time></trkpt><trkpt lat="45.209940216402664" lon="5.771476829832277"><ele>224.39999999999998</ele><time>2026-04-28T06:19:42Z</time></trkpt><trkpt lat="45.209872373914436" lon="5.771384149427373"><ele>224.0</ele><time>2026-04-28T06:19:43Z</time></trkpt><trkpt lat="45.20980226284967" lon="5.771290688935871"><ele>224.00000000000003</ele><time>2026-04-28T06:19:44Z</time></trkpt><trkpt lat="45.20972833266128" lon="5.771198599138435"><ele>224.0</ele><time>2026-04-28T06:19:45Z</time></trkpt><trkpt lat="45.20966230296923" lon="5.771098113456551"><ele>224.0</ele><time>2026-04-28T06:19:46Z</time></trkpt><trkpt lat="45.20960926194183" lon="5.771012391094632"><ele>224.0</ele><time>2026-04-28T06:19:47Z</time></trkpt><trkpt lat="45.209562034866714" lon="5.770939815510357"><ele>224.00000000000003</ele><time>2026-04-28T06:19:48Z</time></trkpt><trkpt lat="45.20950682026854" lon="5.770852842029377"><ele>224.0</ele><time>2026-04-28T06:19:49Z</time></trkpt><trkpt lat="45.20944968674446" lon="5.770773393362536"><ele>223.50000000000003</ele><time>2026-04-28T06:19:50Z</time></trkpt><trkpt lat="45.209390024326765" lon="5.770693644545438"><ele>223.0</ele><time>2026-04-28T06:19:51Z</time></trkpt><trkpt lat="45.209333686068916" lon="5.770608895444195"><ele>222.5</ele><time>2026-04-28T06:19:52Z</time></trkpt><trkpt lat="45.2092787062281" lon="5.770520594326971"><ele>222.0</ele><time>2026-04-28T06:19:53Z</time></trkpt><trkpt lat="45.209220345914936" lon="5.770432288302072"><ele>221.50000000000003</ele><time>2026-04-28T06:19:54Z</time></trkpt><trkpt lat="45.20915792702965" lon="5.770345956738438"><ele>221.0</ele><time>2026-04-28T06:19:55Z</time></trkpt><trkpt lat="45.20909823600947" lon="5.770258142944497"><ele>221.00000000000003</ele><time>2026-04-28T06:19:56Z</time></trkpt><trkpt lat="45.20903991455772" lon="5.770168728092917"><ele>221.0</ele><time>2026-04-28T06:19:57Z</time></trkpt><trkpt lat="45.20897783263678" lon="5.770078128863011"><ele>221.0</ele><time>2026-04-28T06:19:58Z</time></trkpt><trkpt lat="45.208917839851345" lon="5.769986186858315"><ele>221.0</ele><time>2026-04-28T06:19:59Z</time></trkpt><trkpt lat="45.20885781167039" lon="5.769885357649114"><ele>221.00000000000003</ele><time>2026-04-28T06:20:00Z</time></trkpt><trkpt lat="45.20880046486472" lon="5.769806208881968"><ele>221.0</ele><time>2026-04-28T06:20:01Z</time></trkpt><trkpt lat="45.20873991328491" lon="5.769718134398426"><ele>220.83333333333334</ele><time>2026-04-28T06:20:02Z</time></trkpt><trkpt lat="45.20867773784115" lon="5.769631894093626"><ele>220.66666666666669</ele><time>2026-04-28T06:20:03Z</time></trkpt><trkpt lat="45.20861817934403" lon="5.76954091563548"><ele>220.5</ele><time>2026-04-28T06:20:04Z</time></trkpt><trkpt lat="45.20855612500639" lon="5.769449557206997"><ele>220.33333333333331</ele><time>2026-04-28T06:20:05Z</time></trkpt><trkpt lat="45.208494135174185" lon="5.769368237464871"><ele>220.16666666666666</ele><time>2026-04-28T06:20:06Z</time></trkpt><trkpt lat="45.208453535588404" lon="5.769251752623414"><ele>220.0</ele><time>2026-04-28T06:20:07Z</time></trkpt><trkpt lat="45.20838800670907" lon="5.769179935984757"><ele>219.99999999999997</ele><time>2026-04-28T06:20:08Z</time></trkpt><trkpt lat="45.20832552589894" lon="5.769092263898408"><ele>220.0</ele><time>2026-04-28T06:20:09Z</time></trkpt><trkpt lat="45.20826986093136" lon="5.769004578161166"><ele>220.0</ele><time>2026-04-28T06:20:10Z</time></trkpt><trkpt lat="45.20822270530023" lon="5.768919457287363"><ele>220.0</ele><time>2026-04-28T06:20:11Z</time></trkpt><trkpt lat="45.20817372978884" lon="5.768828362275414"><ele>219.99999999999997</ele><time>2026-04-28T06:20:12Z</time></trkpt><trkpt lat="45.20812099124349" lon="5.768763806903946"><ele>220.0</ele><time>2026-04-28T06:20:13Z</time></trkpt><trkpt lat="45.20807134008833" lon="5.7687014647511585"><ele>219.85714285714283</ele><time>2026-04-28T06:20:14Z</time></trkpt><trkpt lat="45.20802528158327" lon="5.768620327475326"><ele>219.71428571428572</ele><time>2026-04-28T06:20:15Z</time></trkpt><trkpt lat="45.207978157463614" lon="5.768554977039139"><ele>219.57142857142856</ele><time>2026-04-28T06:20:16Z</time></trkpt><trkpt lat="45.20793110057891" lon="5.768487971234343"><ele>219.42857142857142</ele><time>2026-04-28T06:20:17Z</time></trkpt><trkpt lat="45.207882896521205" lon="5.768426675099908"><ele>219.28571428571428</ele><time>2026-04-28T06:20:18Z</time></trkpt><trkpt lat="45.20782661288279" lon="5.7683139139427695"><ele>219.14285714285714</ele><time>2026-04-28T06:20:20Z</time></trkpt><trkpt lat="45.20778381199477" lon="5.768235241825219"><ele>219.0</ele><time>2026-04-28T06:20:22Z</time></trkpt><trkpt lat="45.20773339279526" lon="5.768144964220987"><ele>218.79999999999998</ele><time>2026-04-28T06:20:25Z</time></trkpt><trkpt lat="45.20767993002043" lon="5.768076620982643"><ele>218.59999999999997</ele><time>2026-04-28T06:20:27Z</time></trkpt><trkpt lat="45.20762848172853" lon="5.768012672547669"><ele>218.4</ele><time>2026-04-28T06:20:29Z</time></trkpt><trkpt lat="45.20757000213724" lon="5.767925072923201"><ele>218.2</ele><time>2026-04-28T06:20:32Z</time></trkpt><trkpt lat="45.207501808668205" lon="5.767960621262319"><ele>218.0</ele><time>2026-04-28T06:21:34.001Z</time></trkpt><trkpt lat="45.20726300077627" lon="5.768338411388474"><ele>217.71428571428572</ele><time>2026-04-28T06:21:41.001Z</time></trkpt><trkpt lat="45.20720414055509" lon="5.768375756660284"><ele>217.42857142857144</ele><time>2026-04-28T06:21:42.001Z</time></trkpt><trkpt lat="45.207141761726604" lon="5.76840403264133"><ele>217.14285714285714</ele><time>2026-04-28T06:21:43Z</time></trkpt><trkpt lat="45.207078680488074" lon="5.7684180691001545"><ele>216.85714285714286</ele><time>2026-04-28T06:21:44Z</time></trkpt><trkpt lat="45.20701427285712" lon="5.768429637989602"><ele>216.57142857142856</ele><time>2026-04-28T06:21:45Z</time></trkpt><trkpt lat="45.20694237247347" lon="5.768443036989272"><ele>216.28571428571428</ele><time>2026-04-28T06:21:46Z</time></trkpt><trkpt lat="45.20687642206674" lon="5.768462236536495"><ele>216.0</ele><time>2026-04-28T06:21:47Z</time></trkpt><trkpt lat="45.20680948758726" lon="5.7684773043954864"><ele>216.0</ele><time>2026-04-28T06:21:48Z</time></trkpt><trkpt lat="45.20674283305702" lon="5.768488040349738"><ele>216.0</ele><time>2026-04-28T06:21:49Z</time></trkpt><trkpt lat="45.20667411252691" lon="5.768498515870308"><ele>216.0</ele><time>2026-04-28T06:21:50Z</time></trkpt><trkpt lat="45.20660302604793" lon="5.768509385945074"><ele>216.0</ele><time>2026-04-28T06:21:51Z</time></trkpt><trkpt lat="45.2065304258302" lon="5.768516902429739"><ele>216.0</ele><time>2026-04-28T06:21:52Z</time></trkpt><trkpt lat="45.20642648920044" lon="5.768457584462018"><ele>216.0</ele><time>2026-04-28T06:21:54Z</time></trkpt><trkpt lat="45.206418676488354" lon="5.768354178742592"><ele>215.85714285714286</ele><time>2026-04-28T06:21:55Z</time></trkpt><trkpt lat="45.206418934453225" lon="5.7682576473163865"><ele>215.71428571428572</ele><time>2026-04-28T06:21:56Z</time></trkpt><trkpt lat="45.20642442800754" lon="5.768160982874581"><ele>215.57142857142856</ele><time>2026-04-28T06:21:57Z</time></trkpt><trkpt lat="45.20642518034257" lon="5.768065739412861"><ele>215.42857142857144</ele><time>2026-04-28T06:21:58Z</time></trkpt><trkpt lat="45.206416516497946" lon="5.76796865597262"><ele>215.2857142857143</ele><time>2026-04-28T06:21:59Z</time></trkpt><trkpt lat="45.20640855616495" lon="5.767873401728704"><ele>215.14285714285714</ele><time>2026-04-28T06:22:00Z</time></trkpt><trkpt lat="45.206381173351026" lon="5.767770433965578"><ele>215.0</ele><time>2026-04-28T06:22:01Z</time></trkpt><trkpt lat="45.20635260704789" lon="5.76768472989073"><ele>214.85714285714286</ele><time>2026-04-28T06:22:02Z</time></trkpt><trkpt lat="45.20631716783021" lon="5.767603057120803"><ele>214.71428571428572</ele><time>2026-04-28T06:22:03Z</time></trkpt><trkpt lat="45.20627971053008" lon="5.767524782606501"><ele>214.57142857142858</ele><time>2026-04-28T06:22:04Z</time></trkpt><trkpt lat="45.2062361359714" lon="5.767450860258267"><ele>214.42857142857144</ele><time>2026-04-28T06:22:05Z</time></trkpt><trkpt lat="45.206193939275785" lon="5.767382029947816"><ele>214.28571428571428</ele><time>2026-04-28T06:22:06Z</time></trkpt><trkpt lat="45.20614699001786" lon="5.767320322650354"><ele>214.14285714285717</ele><time>2026-04-28T06:22:07Z</time></trkpt><trkpt lat="45.206102175188995" lon="5.767257420140104"><ele>214.0</ele><time>2026-04-28T06:22:08Z</time></trkpt><trkpt lat="45.206016487450924" lon="5.767117730315609"><ele>213.99999999999997</ele><time>2026-04-28T06:22:10Z</time></trkpt><trkpt lat="45.205976710628306" lon="5.767043535495772"><ele>214.0</ele><time>2026-04-28T06:22:11Z</time></trkpt><trkpt lat="45.2059302077104" lon="5.766980707746703"><ele>214.0</ele><time>2026-04-28T06:22:12Z</time></trkpt><trkpt lat="45.20580958977446" lon="5.766901991321052"><ele>214.0</ele><time>2026-04-28T06:22:14Z</time></trkpt><trkpt lat="45.205741945973045" lon="5.766881155436031"><ele>213.99999999999997</ele><time>2026-04-28T06:22:15Z</time></trkpt><trkpt lat="45.20566975659092" lon="5.766878233227597"><ele>214.0</ele><time>2026-04-28T06:22:16Z</time></trkpt><trkpt lat="45.205602043795395" lon="5.766883861262155"><ele>213.83333333333331</ele><time>2026-04-28T06:22:17Z</time></trkpt><trkpt lat="45.20553376025372" lon="5.766910220957046"><ele>213.66666666666666</ele><time>2026-04-28T06:22:18Z</time></trkpt><trkpt lat="45.205411180448266" lon="5.766985962361591"><ele>213.5</ele><time>2026-04-28T06:22:20Z</time></trkpt><trkpt lat="45.20535971189023" lon="5.767048471376418"><ele>213.33333333333331</ele><time>2026-04-28T06:22:21Z</time></trkpt><trkpt lat="45.205321806404264" lon="5.767133158909592"><ele>213.16666666666666</ele><time>2026-04-28T06:22:22Z</time></trkpt><trkpt lat="45.20528765212493" lon="5.767232451061918"><ele>213.0</ele><time>2026-04-28T06:22:23Z</time></trkpt><trkpt lat="45.20526466255726" lon="5.767320685964679"><ele>213.0</ele><time>2026-04-28T06:22:24Z</time></trkpt><trkpt lat="45.205244019459016" lon="5.767409356603144"><ele>213.0</ele><time>2026-04-28T06:22:25Z</time></trkpt><trkpt lat="45.20522473807523" lon="5.767501310917411"><ele>213.0</ele><time>2026-04-28T06:22:26Z</time></trkpt><trkpt lat="45.20518875761846" lon="5.7675814586769345"><ele>213.0</ele><time>2026-04-28T06:22:27Z</time></trkpt><trkpt lat="45.20512285821365" lon="5.767684302388328"><ele>213.0</ele><time>2026-04-28T06:22:29Z</time></trkpt><trkpt lat="45.20500877134603" lon="5.7677848990546225"><ele>213.0</ele><time>2026-04-28T06:22:31Z</time></trkpt><trkpt lat="45.20493822397668" lon="5.767816083240381"><ele>213.0</ele><time>2026-04-28T06:22:32Z</time></trkpt><trkpt lat="45.20486547013338" lon="5.76784845392719"><ele>213.0</ele><time>2026-04-28T06:22:33Z</time></trkpt><trkpt lat="45.20479491154683" lon="5.767873480634886"><ele>213.0</ele><time>2026-04-28T06:22:34Z</time></trkpt><trkpt lat="45.204735212618296" lon="5.767904109869874"><ele>213.0</ele><time>2026-04-28T06:22:35Z</time></trkpt><trkpt lat="45.20466454996056" lon="5.767909607244754"><ele>213.0</ele><time>2026-04-28T06:22:36Z</time></trkpt><trkpt lat="45.20459740817673" lon="5.767943707255662"><ele>213.0</ele><time>2026-04-28T06:22:37Z</time></trkpt><trkpt lat="45.20447390420115" lon="5.7679875630003234"><ele>213.16666666666666</ele><time>2026-04-28T06:22:39Z</time></trkpt><trkpt lat="45.20440520401619" lon="5.768017041816867"><ele>213.33333333333331</ele><time>2026-04-28T06:22:40Z</time></trkpt><trkpt lat="45.20433300998447" lon="5.768026761117942"><ele>213.5</ele><time>2026-04-28T06:22:41Z</time></trkpt><trkpt lat="45.204233783098886" lon="5.768101028990146"><ele>213.66666666666666</ele><time>2026-04-28T06:22:43Z</time></trkpt><trkpt lat="45.20414136548884" lon="5.768128938237234"><ele>213.83333333333331</ele><time>2026-04-28T06:22:45Z</time></trkpt><trkpt lat="45.20407655258917" lon="5.768127060914139"><ele>214.0</ele><time>2026-04-28T06:22:46Z</time></trkpt><trkpt lat="45.20397008435242" lon="5.768173872653331"><ele>214.0</ele><time>2026-04-28T06:22:48Z</time></trkpt><trkpt lat="45.203843832169454" lon="5.768198421863296"><ele>213.99999999999997</ele><time>2026-04-28T06:22:50Z</time></trkpt><trkpt lat="45.20372329876776" lon="5.768224087896393"><ele>213.99999999999997</ele><time>2026-04-28T06:22:52Z</time></trkpt><trkpt lat="45.203658569301126" lon="5.768224477270886"><ele>214.0</ele><time>2026-04-28T06:22:53Z</time></trkpt><trkpt lat="45.20359475013776" lon="5.768239621656943"><ele>214.0</ele><time>2026-04-28T06:22:54Z</time></trkpt><trkpt lat="45.203524607933076" lon="5.768141637937449"><ele>214.0</ele><time>2026-04-28T06:22:55Z</time></trkpt><trkpt lat="45.20343237994662" lon="5.768165629271571"><ele>213.99999999999997</ele><time>2026-04-28T06:22:57Z</time></trkpt><trkpt lat="45.203358342529455" lon="5.768179767123612"><ele>213.99999999999997</ele><time>2026-04-28T06:22:59Z</time></trkpt><trkpt lat="45.20325327539964" lon="5.768193237025713"><ele>214.0</ele><time>2026-04-28T06:23:01Z</time></trkpt><trkpt lat="45.20314451492268" lon="5.768207827766775"><ele>214.0</ele><time>2026-04-28T06:23:03Z</time></trkpt><trkpt lat="45.20305624402653" lon="5.768230723304955"><ele>214.0</ele><time>2026-04-28T06:23:05Z</time></trkpt><trkpt lat="45.20289225488671" lon="5.768253880310066"><ele>214.0</ele><time>2026-04-28T06:23:06Z</time></trkpt><trkpt lat="45.202827615160594" lon="5.768357078794907"><ele>214.0</ele><time>2026-04-28T06:23:08Z</time></trkpt><trkpt lat="45.202654220607045" lon="5.76888402267663"><ele>213.0</ele><time>2026-04-28T06:23:11Z</time></trkpt><trkpt lat="45.2026509519981" lon="5.769014437471721"><ele>212.0</ele><time>2026-04-28T06:23:12Z</time></trkpt><trkpt lat="45.203243026862545" lon="5.768918949877769"><ele>212.0</ele><time>2026-04-28T06:23:13Z</time></trkpt><trkpt lat="45.20329351839054" lon="5.769048546935894"><ele>212.0</ele><time>2026-04-28T06:23:15Z</time></trkpt><trkpt lat="45.20334609145861" lon="5.769193148585193"><ele>212.0</ele><time>2026-04-28T06:23:17Z</time></trkpt><trkpt lat="45.203402403596144" lon="5.76930067813996"><ele>212.0</ele><time>2026-04-28T06:23:19Z</time></trkpt><trkpt lat="45.20344284206423" lon="5.769417065997057"><ele>212.0</ele><time>2026-04-28T06:23:21Z</time></trkpt><trkpt lat="45.20347430524488" lon="5.769552374337688"><ele>212.50000000000003</ele><time>2026-04-28T06:23:22.999Z</time></trkpt><trkpt lat="45.203472000685274" lon="5.769673393361573"><ele>213.0</ele><time>2026-04-28T06:23:24.999Z</time></trkpt><trkpt lat="45.20346767181725" lon="5.769797212912734"><ele>213.5</ele><time>2026-04-28T06:23:26.999Z</time></trkpt><trkpt lat="45.203438138758635" lon="5.7699054636463165"><ele>214.0</ele><time>2026-04-28T06:23:28.999Z</time></trkpt><trkpt lat="45.20340230276335" lon="5.770008750987027"><ele>214.50000000000003</ele><time>2026-04-28T06:23:30.999Z</time></trkpt><trkpt lat="45.20334821998696" lon="5.770108609007586"><ele>215.0</ele><time>2026-04-28T06:23:32.999Z</time></trkpt><trkpt lat="45.20328754236968" lon="5.77017664715388"><ele>215.16666666666669</ele><time>2026-04-28T06:23:34.999Z</time></trkpt><trkpt lat="45.2032130369891" lon="5.770230051839579"><ele>215.33333333333334</ele><time>2026-04-28T06:23:36.999Z</time></trkpt><trkpt lat="45.20312316506779" lon="5.77029796458986"><ele>215.5</ele><time>2026-04-28T06:23:39.001Z</time></trkpt><trkpt lat="45.20304642951493" lon="5.7703242683367435"><ele>215.66666666666669</ele><time>2026-04-28T06:23:41.001Z</time></trkpt><trkpt lat="45.20295491271806" lon="5.770336553608408"><ele>215.83333333333334</ele><time>2026-04-28T06:23:43.001Z</time></trkpt><trkpt lat="45.20286355084837" lon="5.770338613969668"><ele>216.0</ele><time>2026-04-28T06:23:45.001Z</time></trkpt><trkpt lat="45.20277743466964" lon="5.770376175669186"><ele>216.20000000000002</ele><time>2026-04-28T06:23:47Z</time></trkpt><trkpt lat="45.20267786788474" lon="5.770397522598867"><ele>216.40000000000003</ele><time>2026-04-28T06:23:49Z</time></trkpt><trkpt lat="45.202576988534034" lon="5.770420403617276"><ele>216.6</ele><time>2026-04-28T06:23:51Z</time></trkpt><trkpt lat="45.20247056055296" lon="5.770447504345207"><ele>216.8</ele><time>2026-04-28T06:23:53Z</time></trkpt><trkpt lat="45.202358891953416" lon="5.770485680338678"><ele>217.0</ele><time>2026-04-28T06:23:55Z</time></trkpt><trkpt lat="45.20223861708636" lon="5.770523074957273"><ele>216.99999999999997</ele><time>2026-04-28T06:23:57Z</time></trkpt><trkpt lat="45.202174494568524" lon="5.770535611878633"><ele>217.0</ele><time>2026-04-28T06:23:58Z</time></trkpt><trkpt lat="45.202105120862996" lon="5.770549152452034"><ele>217.0</ele><time>2026-04-28T06:23:59Z</time></trkpt><trkpt lat="45.201975636569024" lon="5.770595856875545"><ele>217.0</ele><time>2026-04-28T06:24:01Z</time></trkpt><trkpt lat="45.20189564716975" lon="5.770549918333712"><ele>216.99999999999997</ele><time>2026-04-28T06:24:02Z</time></trkpt><trkpt lat="45.20182380380118" lon="5.770569242063821"><ele>217.0</ele><time>2026-04-28T06:24:03Z</time></trkpt><trkpt lat="45.20175105447716" lon="5.7705888094231375"><ele>216.99999999999997</ele><time>2026-04-28T06:24:04Z</time></trkpt><trkpt lat="45.20167567854431" lon="5.770609083267209"><ele>217.0</ele><time>2026-04-28T06:24:05Z</time></trkpt><trkpt lat="45.20159272608562" lon="5.770631394976242"><ele>217.0</ele><time>2026-04-28T06:24:06Z</time></trkpt><trkpt lat="45.20151255593165" lon="5.770652344748607"><ele>217.0</ele><time>2026-04-28T06:24:07Z</time></trkpt><trkpt lat="45.20142901467848" lon="5.770673937001535"><ele>216.99999999999997</ele><time>2026-04-28T06:24:08Z</time></trkpt><trkpt lat="45.20134746237097" lon="5.770695015192483"><ele>217.0</ele><time>2026-04-28T06:24:09Z</time></trkpt><trkpt lat="45.20126610007063" lon="5.770716044276691"><ele>216.83333333333331</ele><time>2026-04-28T06:24:10Z</time></trkpt><trkpt lat="45.20117617089411" lon="5.770739287567219"><ele>216.66666666666666</ele><time>2026-04-28T06:24:11Z</time></trkpt><trkpt lat="45.20109198976826" lon="5.770761253948109"><ele>216.5</ele><time>2026-04-28T06:24:12Z</time></trkpt><trkpt lat="45.2010061219138" lon="5.7707839926252875"><ele>216.33333333333331</ele><time>2026-04-28T06:24:13Z</time></trkpt><trkpt lat="45.200922709492716" lon="5.770806192061838"><ele>216.16666666666666</ele><time>2026-04-28T06:24:14Z</time></trkpt><trkpt lat="45.20084182937891" lon="5.770829609092277"><ele>216.0</ele><time>2026-04-28T06:24:15Z</time></trkpt><trkpt lat="45.20075349062899" lon="5.770856956868953"><ele>216.0</ele><time>2026-04-28T06:24:16Z</time></trkpt><trkpt lat="45.20068761615292" lon="5.77087756375676"><ele>216.00000000000003</ele><time>2026-04-28T06:24:17Z</time></trkpt><trkpt lat="45.200569751216634" lon="5.770918401048586"><ele>216.00000000000003</ele><time>2026-04-28T06:24:19Z</time></trkpt><trkpt lat="45.20047361978393" lon="5.770932531572723"><ele>216.0</ele><time>2026-04-28T06:24:21Z</time></trkpt><trkpt lat="45.200443884987436" lon="5.770755002195714"><ele>216.0</ele><time>2026-04-28T06:24:22Z</time></trkpt><trkpt lat="45.2004039231286" lon="5.7706761202722525"><ele>216.28571428571428</ele><time>2026-04-28T06:24:23Z</time></trkpt><trkpt lat="45.20036213053929" lon="5.770594506218381"><ele>216.57142857142856</ele><time>2026-04-28T06:24:24Z</time></trkpt><trkpt lat="45.20030775546174" lon="5.770500402046775"><ele>216.85714285714286</ele><time>2026-04-28T06:24:25Z</time></trkpt><trkpt lat="45.20025450830114" lon="5.7704361463778175"><ele>217.14285714285714</ele><time>2026-04-28T06:24:26Z</time></trkpt><trkpt lat="45.20019786972769" lon="5.770369498196504"><ele>217.42857142857144</ele><time>2026-04-28T06:24:27Z</time></trkpt><trkpt lat="45.20014496151016" lon="5.7703105472449305"><ele>217.71428571428572</ele><time>2026-04-28T06:24:28Z</time></trkpt><trkpt lat="45.200089601144924" lon="5.770248864091317"><ele>218.0</ele><time>2026-04-28T06:24:29Z</time></trkpt><trkpt lat="45.20003333883643" lon="5.770186175891316"><ele>217.4</ele><time>2026-04-28T06:24:30Z</time></trkpt><trkpt lat="45.19998247872283" lon="5.770129506740279"><ele>216.8</ele><time>2026-04-28T06:24:31Z</time></trkpt><trkpt lat="45.199922689848094" lon="5.770062889025226"><ele>216.2</ele><time>2026-04-28T06:24:32Z</time></trkpt><trkpt lat="45.199867062078475" lon="5.77000090768006"><ele>215.6</ele><time>2026-04-28T06:24:33Z</time></trkpt><trkpt lat="45.19981302220885" lon="5.769940720720507"><ele>215.0</ele><time>2026-04-28T06:24:34Z</time></trkpt><trkpt lat="45.19960978912102" lon="5.770142252739972"><ele>215.00000000000003</ele><time>2026-04-28T06:24:35Z</time></trkpt><trkpt lat="45.199550855174074" lon="5.770095267426662"><ele>215.0</ele><time>2026-04-28T06:24:36Z</time></trkpt><trkpt lat="45.19948848887237" lon="5.770044912058833"><ele>215.0</ele><time>2026-04-28T06:24:37Z</time></trkpt><trkpt lat="45.19937942755983" lon="5.769946968928442"><ele>215.0</ele><time>2026-04-28T06:24:39Z</time></trkpt><trkpt lat="45.1993287331232" lon="5.769871489536287"><ele>215.00000000000003</ele><time>2026-04-28T06:24:40Z</time></trkpt><trkpt lat="45.19928083937711" lon="5.769798339844146"><ele>215.0</ele><time>2026-04-28T06:24:41Z</time></trkpt><trkpt lat="45.19926121091073" lon="5.769695635977586"><ele>215.00000000000003</ele><time>2026-04-28T06:24:42Z</time></trkpt><trkpt lat="45.1992316521517" lon="5.76961364299808"><ele>215.0</ele><time>2026-04-28T06:24:43Z</time></trkpt><trkpt lat="45.19920179248259" lon="5.76953418832624"><ele>215.0</ele><time>2026-04-28T06:24:44Z</time></trkpt><trkpt lat="45.19914394168094" lon="5.7693953397099325"><ele>215.0</ele><time>2026-04-28T06:24:46Z</time></trkpt><trkpt lat="45.19908370212967" lon="5.769273629664245"><ele>215.00000000000003</ele><time>2026-04-28T06:24:48Z</time></trkpt><trkpt lat="45.19903234734474" lon="5.769218954473965"><ele>215.0</ele><time>2026-04-28T06:24:49Z</time></trkpt><trkpt lat="45.19894199370097" lon="5.769192089938442"><ele>214.83333333333334</ele><time>2026-04-28T06:24:51Z</time></trkpt><trkpt lat="45.19888705395763" lon="5.7692707700155115"><ele>214.66666666666669</ele><time>2026-04-28T06:24:53Z</time></trkpt><trkpt lat="45.19885159213512" lon="5.769366420094574"><ele>214.5</ele><time>2026-04-28T06:24:55Z</time></trkpt><trkpt lat="45.19882103317692" lon="5.769452673959507"><ele>214.33333333333331</ele><time>2026-04-28T06:24:57Z</time></trkpt><trkpt lat="45.19876106450824" lon="5.769540532946255"><ele>214.16666666666666</ele><time>2026-04-28T06:24:59Z</time></trkpt><trkpt lat="45.19870811968116" lon="5.769647124517769"><ele>214.0</ele><time>2026-04-28T06:25:01Z</time></trkpt><trkpt lat="45.19865204843202" lon="5.769747640408402"><ele>214.39999999999998</ele><time>2026-04-28T06:25:03Z</time></trkpt><trkpt lat="45.19858527308055" lon="5.769853431433887"><ele>214.79999999999998</ele><time>2026-04-28T06:25:04.999Z</time></trkpt><trkpt lat="45.198517946250504" lon="5.769970679625692"><ele>215.20000000000002</ele><time>2026-04-28T06:25:06.999Z</time></trkpt><trkpt lat="45.19844409950082" lon="5.770092362134056"><ele>215.60000000000002</ele><time>2026-04-28T06:25:08.999Z</time></trkpt><trkpt lat="45.19837129066505" lon="5.77021602833796"><ele>216.0</ele><time>2026-04-28T06:25:10.999Z</time></trkpt><trkpt lat="45.198300785255675" lon="5.770341436134492"><ele>216.20000000000002</ele><time>2026-04-28T06:25:12.999Z</time></trkpt><trkpt lat="45.19822767422031" lon="5.770399093973649"><ele>216.40000000000003</ele><time>2026-04-28T06:25:15.999Z</time></trkpt><trkpt lat="45.19816732904424" lon="5.770307148319318"><ele>216.6</ele><time>2026-04-28T06:25:17.999Z</time></trkpt><trkpt lat="45.198099822341675" lon="5.770215442089357"><ele>216.8</ele><time>2026-04-28T06:25:19.999Z</time></trkpt><trkpt lat="45.19803068815684" lon="5.770115779141682"><ele>217.0</ele><time>2026-04-28T06:25:21.999Z</time></trkpt><trkpt lat="45.197950473180825" lon="5.770018125519976"><ele>217.0</ele><time>2026-04-28T06:25:23.999Z</time></trkpt><trkpt lat="45.1978726701244" lon="5.769916340129348"><ele>217.0</ele><time>2026-04-28T06:25:25.999Z</time></trkpt><trkpt lat="45.1977914403705" lon="5.7697998566713595"><ele>217.0</ele><time>2026-04-28T06:25:27.999Z</time></trkpt><trkpt lat="45.197721491940214" lon="5.769671064586854"><ele>217.0</ele><time>2026-04-28T06:25:29.999Z</time></trkpt><trkpt lat="45.19766172081164" lon="5.76952976725151"><ele>217.0</ele><time>2026-04-28T06:25:31.999Z</time></trkpt><trkpt lat="45.19758990064302" lon="5.769393355483283"><ele>217.0</ele><time>2026-04-28T06:25:33.999Z</time></trkpt><trkpt lat="45.197531134973026" lon="5.769248916501507"><ele>217.0</ele><time>2026-04-28T06:25:35.999Z</time></trkpt><trkpt lat="45.19746879538216" lon="5.769107974970761"><ele>217.0</ele><time>2026-04-28T06:25:37.999Z</time></trkpt><trkpt lat="45.19740411057519" lon="5.76896149032395"><ele>216.5</ele><time>2026-04-28T06:25:39.999Z</time></trkpt><trkpt lat="45.197338980070214" lon="5.768826548674763"><ele>216.0</ele><time>2026-04-28T06:25:41.999Z</time></trkpt><trkpt lat="45.19727350942652" lon="5.768683868821893"><ele>215.5</ele><time>2026-04-28T06:25:44Z</time></trkpt><trkpt lat="45.19720980120195" lon="5.768535437471507"><ele>215.0</ele><time>2026-04-28T06:25:46Z</time></trkpt><trkpt lat="45.197144547411156" lon="5.7683867989114574"><ele>214.75</ele><time>2026-04-28T06:25:48Z</time></trkpt><trkpt lat="45.19699906348659" lon="5.768310573124271"><ele>214.5</ele><time>2026-04-28T06:25:50Z</time></trkpt><trkpt lat="45.19692595231072" lon="5.768173487539624"><ele>214.25</ele><time>2026-04-28T06:25:52Z</time></trkpt><trkpt lat="45.19684456244156" lon="5.768045837030219"><ele>214.0</ele><time>2026-04-28T06:25:54Z</time></trkpt><trkpt lat="45.19676392374151" lon="5.76794073005205"><ele>213.99999999999997</ele><time>2026-04-28T06:25:56Z</time></trkpt><trkpt lat="45.19667350161558" lon="5.767835468346152"><ele>214.0</ele><time>2026-04-28T06:25:58Z</time></trkpt><trkpt lat="45.196613201729015" lon="5.7677597220614345"><ele>214.0</ele><time>2026-04-28T06:25:59Z</time></trkpt><trkpt lat="45.19656963993127" lon="5.767691786093901"><ele>214.0</ele><time>2026-04-28T06:26:00Z</time></trkpt><trkpt lat="45.19651811043657" lon="5.76760462702441"><ele>213.99999999999997</ele><time>2026-04-28T06:26:02Z</time></trkpt><trkpt lat="45.19642859915589" lon="5.7675332049162105"><ele>214.0</ele><time>2026-04-28T06:26:08Z</time></trkpt><trkpt lat="45.19631520742677" lon="5.767505916060879"><ele>214.2</ele><time>2026-04-28T06:26:10Z</time></trkpt><trkpt lat="45.19619199851623" lon="5.7675048179077395"><ele>214.39999999999998</ele><time>2026-04-28T06:26:12Z</time></trkpt><trkpt lat="45.196068465034756" lon="5.767527725356689"><ele>214.6</ele><time>2026-04-28T06:26:14Z</time></trkpt><trkpt lat="45.19594039803053" lon="5.767538775369807"><ele>214.8</ele><time>2026-04-28T06:26:16Z</time></trkpt><trkpt lat="45.1958775920131" lon="5.76754735852747"><ele>215.0</ele><time>2026-04-28T06:26:17Z</time></trkpt><trkpt lat="45.195752697731415" lon="5.767553156448655"><ele>215.2</ele><time>2026-04-28T06:26:19Z</time></trkpt><trkpt lat="45.195628732218594" lon="5.767571154272985"><ele>215.4</ele><time>2026-04-28T06:26:21Z</time></trkpt><trkpt lat="45.19550830178795" lon="5.767586445429951"><ele>215.60000000000002</ele><time>2026-04-28T06:26:23Z</time></trkpt><trkpt lat="45.19538671804345" lon="5.7676028785186375"><ele>215.8</ele><time>2026-04-28T06:26:25Z</time></trkpt><trkpt lat="45.195323367919784" lon="5.767615865327667"><ele>216.0</ele><time>2026-04-28T06:26:26Z</time></trkpt><trkpt lat="45.19519760501852" lon="5.767629302924521"><ele>216.0</ele><time>2026-04-28T06:26:28Z</time></trkpt><trkpt lat="45.19507358374812" lon="5.7676374362972975"><ele>216.0</ele><time>2026-04-28T06:26:30Z</time></trkpt><trkpt lat="45.194951611967106" lon="5.767644470918824"><ele>216.0</ele><time>2026-04-28T06:26:32Z</time></trkpt><trkpt lat="45.194838954735786" lon="5.767663346136487"><ele>216.0</ele><time>2026-04-28T06:26:34Z</time></trkpt><trkpt lat="45.19474897081188" lon="5.767674692819052"><ele>216.0</ele><time>2026-04-28T06:26:36Z</time></trkpt><trkpt lat="45.19464813219768" lon="5.767673443110569"><ele>216.00000000000003</ele><time>2026-04-28T06:26:38Z</time></trkpt><trkpt lat="45.1945366964562" lon="5.767682378223127"><ele>216.00000000000003</ele><time>2026-04-28T06:26:40Z</time></trkpt><trkpt lat="45.194430428490556" lon="5.76769436589546"><ele>216.0</ele><time>2026-04-28T06:26:42Z</time></trkpt><trkpt lat="45.194317114707154" lon="5.767721859694519"><ele>216.0</ele><time>2026-04-28T06:26:44Z</time></trkpt><trkpt lat="45.19421964610793" lon="5.767719812128776"><ele>216.0</ele><time>2026-04-28T06:26:47Z</time></trkpt><trkpt lat="45.194145109759965" lon="5.767727221281236"><ele>216.00000000000003</ele><time>2026-04-28T06:26:49Z</time></trkpt><trkpt lat="45.194055614295934" lon="5.767748356594018"><ele>216.00000000000003</ele><time>2026-04-28T06:26:51Z</time></trkpt><trkpt lat="45.19395875646977" lon="5.767770790149225"><ele>216.0</ele><time>2026-04-28T06:26:53Z</time></trkpt><trkpt lat="45.19385824725779" lon="5.767772988184768"><ele>216.0</ele><time>2026-04-28T06:26:55Z</time></trkpt><trkpt lat="45.19375075074603" lon="5.767784764990243"><ele>216.5</ele><time>2026-04-28T06:26:57Z</time></trkpt><trkpt lat="45.19363705248455" lon="5.767814355910171"><ele>217.0</ele><time>2026-04-28T06:26:59Z</time></trkpt><trkpt lat="45.19352280017418" lon="5.767829963163779"><ele>217.5</ele><time>2026-04-28T06:27:00.999Z</time></trkpt><trkpt lat="45.19340333129915" lon="5.7678516173915435"><ele>218.0</ele><time>2026-04-28T06:27:02.999Z</time></trkpt><trkpt lat="45.19328900370598" lon="5.767886442992761"><ele>218.00000000000003</ele><time>2026-04-28T06:27:04.999Z</time></trkpt><trkpt lat="45.19322119406746" lon="5.767883891590815"><ele>218.0</ele><time>2026-04-28T06:27:05.999Z</time></trkpt><trkpt lat="45.19310144355684" lon="5.767910840327733"><ele>218.0</ele><time>2026-04-28T06:27:07.999Z</time></trkpt><trkpt lat="45.19303329273003" lon="5.767907713678635"><ele>218.0</ele><time>2026-04-28T06:27:09.999Z</time></trkpt><trkpt lat="45.19294188252292" lon="5.767894426381266"><ele>218.00000000000003</ele><time>2026-04-28T06:27:12.999Z</time></trkpt><trkpt lat="45.1928757518086" lon="5.767903971160864"><ele>218.0</ele><time>2026-04-28T06:27:14.999Z</time></trkpt><trkpt lat="45.192790717602804" lon="5.767904218804297"><ele>218.2</ele><time>2026-04-28T06:27:16.999Z</time></trkpt><trkpt lat="45.192701086643865" lon="5.767845628369382"><ele>218.4</ele><time>2026-04-28T06:27:18.999Z</time></trkpt><trkpt lat="45.19260996902507" lon="5.767927649607552"><ele>218.59999999999997</ele><time>2026-04-28T06:27:20.999Z</time></trkpt><trkpt lat="45.19254185791846" lon="5.768056322886222"><ele>218.79999999999998</ele><time>2026-04-28T06:27:22.999Z</time></trkpt><trkpt lat="45.19247687446642" lon="5.768189499273026"><ele>219.0</ele><time>2026-04-28T06:27:24.999Z</time></trkpt><trkpt lat="45.19241578351856" lon="5.768325143675841"><ele>219.0</ele><time>2026-04-28T06:27:26.999Z</time></trkpt><trkpt lat="45.192344164743155" lon="5.768467923405946"><ele>219.0</ele><time>2026-04-28T06:27:28.999Z</time></trkpt><trkpt lat="45.192250576035136" lon="5.768559605111742"><ele>219.0</ele><time>2026-04-28T06:27:30.999Z</time></trkpt><trkpt lat="45.1921379780882" lon="5.768594197901069"><ele>219.0</ele><time>2026-04-28T06:27:32.999Z</time></trkpt><trkpt lat="45.19203236143904" lon="5.768622233399368"><ele>218.2</ele><time>2026-04-28T06:27:34.999Z</time></trkpt><trkpt lat="45.191933580913854" lon="5.768690475737149"><ele>217.39999999999998</ele><time>2026-04-28T06:27:36.999Z</time></trkpt><trkpt lat="45.1918761666072" lon="5.768819273011354"><ele>216.6</ele><time>2026-04-28T06:27:38.999Z</time></trkpt><trkpt lat="45.19183879366584" lon="5.768976357585294"><ele>215.8</ele><time>2026-04-28T06:27:40.999Z</time></trkpt><trkpt lat="45.19174804464313" lon="5.7690729226121915"><ele>215.0</ele><time>2026-04-28T06:27:42.999Z</time></trkpt><trkpt lat="45.1916848394261" lon="5.76907884905579"><ele>215.0</ele><time>2026-04-28T06:27:43.999Z</time></trkpt><trkpt lat="45.19162064078092" lon="5.7690823824425275"><ele>215.0</ele><time>2026-04-28T06:27:44.999Z</time></trkpt><trkpt lat="45.191498355835215" lon="5.769090285430378"><ele>215.0</ele><time>2026-04-28T06:27:46.999Z</time></trkpt><trkpt lat="45.19143664481312" lon="5.769047358746875"><ele>215.0</ele><time>2026-04-28T06:27:47.999Z</time></trkpt><trkpt lat="45.191322416000595" lon="5.769052658651708"><ele>215.0</ele><time>2026-04-28T06:27:50Z</time></trkpt><trkpt lat="45.19120194197456" lon="5.7690634937404965"><ele>215.14285714285714</ele><time>2026-04-28T06:27:52Z</time></trkpt><trkpt lat="45.19113660854733" lon="5.769072490663335"><ele>215.2857142857143</ele><time>2026-04-28T06:27:53Z</time></trkpt><trkpt lat="45.191012871442844" lon="5.769089530408429"><ele>215.42857142857144</ele><time>2026-04-28T06:27:55Z</time></trkpt><trkpt lat="45.19094988708289" lon="5.769098203862631"><ele>215.57142857142856</ele><time>2026-04-28T06:27:56Z</time></trkpt><trkpt lat="45.19088516257949" lon="5.769107117189119"><ele>215.71428571428572</ele><time>2026-04-28T06:27:57Z</time></trkpt><trkpt lat="45.19081838839685" lon="5.769116564891759"><ele>215.85714285714286</ele><time>2026-04-28T06:27:58Z</time></trkpt><trkpt lat="45.190754631870746" lon="5.769125522352148"><ele>216.0</ele><time>2026-04-28T06:27:59Z</time></trkpt><trkpt lat="45.190701539219845" lon="5.76927016821686"><ele>215.71428571428572</ele><time>2026-04-28T06:28:00Z</time></trkpt><trkpt lat="45.19063301523952" lon="5.7692803176441965"><ele>215.42857142857142</ele><time>2026-04-28T06:28:01Z</time></trkpt><trkpt lat="45.19056554544748" lon="5.7692935320122904"><ele>215.14285714285717</ele><time>2026-04-28T06:28:02Z</time></trkpt><trkpt lat="45.190497515460294" lon="5.769297388591639"><ele>214.85714285714286</ele><time>2026-04-28T06:28:03Z</time></trkpt><trkpt lat="45.19042940790324" lon="5.769306882421999"><ele>214.57142857142858</ele><time>2026-04-28T06:28:04Z</time></trkpt><trkpt lat="45.190361344039175" lon="5.7693164909742665"><ele>214.2857142857143</ele><time>2026-04-28T06:28:05Z</time></trkpt><trkpt lat="45.19029483727981" lon="5.769323621337757"><ele>214.0</ele><time>2026-04-28T06:28:06Z</time></trkpt><trkpt lat="45.1902263613409" lon="5.76933083208217"><ele>214.00000000000003</ele><time>2026-04-28T06:28:07Z</time></trkpt><trkpt lat="45.1901564073821" lon="5.7693342897911695"><ele>214.0</ele><time>2026-04-28T06:28:08Z</time></trkpt><trkpt lat="45.190079394406666" lon="5.769216885911696"><ele>214.0</ele><time>2026-04-28T06:28:09Z</time></trkpt><trkpt lat="45.19001601034886" lon="5.769224718312356"><ele>214.0</ele><time>2026-04-28T06:28:10Z</time></trkpt><trkpt lat="45.189947411336085" lon="5.769233195127777"><ele>214.0</ele><time>2026-04-28T06:28:11Z</time></trkpt><trkpt lat="45.189881735832486" lon="5.769241310683525"><ele>214.00000000000003</ele><time>2026-04-28T06:28:12Z</time></trkpt><trkpt lat="45.1898167806073" lon="5.769249337234403"><ele>214.0</ele><time>2026-04-28T06:28:13Z</time></trkpt><trkpt lat="45.189730080477396" lon="5.769260000104322"><ele>214.2</ele><time>2026-04-28T06:28:15Z</time></trkpt><trkpt lat="45.189646053939605" lon="5.769270295597416"><ele>214.39999999999998</ele><time>2026-04-28T06:28:19Z</time></trkpt><trkpt lat="45.18956420784801" lon="5.7692796466584415"><ele>214.6</ele><time>2026-04-28T06:28:21Z</time></trkpt><trkpt lat="45.189460802399516" lon="5.769292501861568"><ele>214.8</ele><time>2026-04-28T06:28:23Z</time></trkpt><trkpt lat="45.18934626352311" lon="5.7693071819970845"><ele>215.0</ele><time>2026-04-28T06:28:25Z</time></trkpt><trkpt lat="45.189225711257144" lon="5.769323331183847"><ele>215.0</ele><time>2026-04-28T06:28:27Z</time></trkpt><trkpt lat="45.189100863620624" lon="5.769341998604584"><ele>215.0</ele><time>2026-04-28T06:28:29Z</time></trkpt><trkpt lat="45.18898164216214" lon="5.76936024207214"><ele>215.0</ele><time>2026-04-28T06:28:31Z</time></trkpt><trkpt lat="45.18889265826787" lon="5.769374845294411"><ele>215.0</ele><time>2026-04-28T06:28:33Z</time></trkpt><trkpt lat="45.1887167789013" lon="5.76948132294301"><ele>216.0</ele><time>2026-04-28T06:28:34Z</time></trkpt><trkpt lat="45.18884001234029" lon="5.769657597464157"><ele>217.0</ele><time>2026-04-28T06:28:35Z</time></trkpt><trkpt lat="45.18875077743997" lon="5.769591251822535"><ele>218.0</ele><time>2026-04-28T06:28:37Z</time></trkpt><trkpt lat="45.188650482913175" lon="5.769384069312486"><ele>218.00000000000003</ele><time>2026-04-28T06:28:39Z</time></trkpt><trkpt lat="45.18858428022346" lon="5.769381704927725"><ele>218.0</ele><time>2026-04-28T06:28:40Z</time></trkpt><trkpt lat="45.18851741164574" lon="5.769386291196809"><ele>218.0</ele><time>2026-04-28T06:28:41Z</time></trkpt><trkpt lat="45.18845834376104" lon="5.769498464688732"><ele>218.0</ele><time>2026-04-28T06:28:42Z</time></trkpt><trkpt lat="45.18832818484177" lon="5.769407657248514"><ele>218.00000000000003</ele><time>2026-04-28T06:28:44Z</time></trkpt><trkpt lat="45.188257907113154" lon="5.769417037246947"><ele>218.0</ele><time>2026-04-28T06:28:45Z</time></trkpt><trkpt lat="45.18819197893991" lon="5.769425844274422"><ele>218.50000000000003</ele><time>2026-04-28T06:28:46Z</time></trkpt><trkpt lat="45.18806445921412" lon="5.76944287901599"><ele>219.0</ele><time>2026-04-28T06:28:48Z</time></trkpt><trkpt lat="45.18799843879504" lon="5.769451829692505"><ele>219.5</ele><time>2026-04-28T06:28:49Z</time></trkpt><trkpt lat="45.18793553977268" lon="5.769460481080594"><ele>220.0</ele><time>2026-04-28T06:28:50Z</time></trkpt><trkpt lat="45.1878689896362" lon="5.769469634659426"><ele>220.50000000000003</ele><time>2026-04-28T06:28:51Z</time></trkpt><trkpt lat="45.18779980674695" lon="5.76947915036238"><ele>221.0</ele><time>2026-04-28T06:28:52Z</time></trkpt><trkpt lat="45.18772966879089" lon="5.769488500515329"><ele>221.00000000000003</ele><time>2026-04-28T06:28:53Z</time></trkpt><trkpt lat="45.18766495708915" lon="5.769499294197684"><ele>221.0</ele><time>2026-04-28T06:28:54Z</time></trkpt><trkpt lat="45.18754876903948" lon="5.769518673930654"><ele>221.0</ele><time>2026-04-28T06:28:56Z</time></trkpt><trkpt lat="45.187481857703304" lon="5.769529834493785"><ele>221.0</ele><time>2026-04-28T06:28:57Z</time></trkpt><trkpt lat="45.18735938864362" lon="5.769551297654279"><ele>221.00000000000003</ele><time>2026-04-28T06:28:58.999Z</time></trkpt><trkpt lat="45.18729597658355" lon="5.7695633926620085"><ele>221.0</ele><time>2026-04-28T06:28:59.999Z</time></trkpt><trkpt lat="45.18723001309944" lon="5.76957597431892"><ele>220.50000000000003</ele><time>2026-04-28T06:29:00.999Z</time></trkpt><trkpt lat="45.187103964627376" lon="5.7696000163871455"><ele>220.0</ele><time>2026-04-28T06:29:02.999Z</time></trkpt><trkpt lat="45.1870384980959" lon="5.769613369745836"><ele>219.5</ele><time>2026-04-28T06:29:03.999Z</time></trkpt><trkpt lat="45.18697595005442" lon="5.769626386552701"><ele>219.0</ele><time>2026-04-28T06:29:04.999Z</time></trkpt><trkpt lat="45.186912218365514" lon="5.769639649689632"><ele>218.50000000000003</ele><time>2026-04-28T06:29:05.999Z</time></trkpt><trkpt lat="45.1867954759343" lon="5.76966394483739"><ele>218.0</ele><time>2026-04-28T06:29:07.999Z</time></trkpt><trkpt lat="45.18669448922432" lon="5.769673859583101"><ele>218.0</ele><time>2026-04-28T06:29:09.999Z</time></trkpt><trkpt lat="45.18658009412064" lon="5.7696675780552535"><ele>218.0</ele><time>2026-04-28T06:29:11.999Z</time></trkpt><trkpt lat="45.186495680515655" lon="5.76958583240609"><ele>218.0</ele><time>2026-04-28T06:29:13.999Z</time></trkpt><trkpt lat="45.18639946660526" lon="5.769520357504701"><ele>218.0</ele><time>2026-04-28T06:29:15.999Z</time></trkpt><trkpt lat="45.186297474700204" lon="5.769438935393041"><ele>218.0</ele><time>2026-04-28T06:29:17.999Z</time></trkpt><trkpt lat="45.18618826246303" lon="5.769346387531626"><ele>217.33333333333334</ele><time>2026-04-28T06:29:19.999Z</time></trkpt><trkpt lat="45.186130533488516" lon="5.769307901476132"><ele>216.66666666666669</ele><time>2026-04-28T06:29:20.999Z</time></trkpt><trkpt lat="45.18607242487452" lon="5.769269162345361"><ele>216.0</ele><time>2026-04-28T06:29:21.999Z</time></trkpt><trkpt lat="45.18596748854952" lon="5.769198903710399"><ele>215.33333333333331</ele><time>2026-04-28T06:29:23.999Z</time></trkpt><trkpt lat="45.18590943137338" lon="5.76915088350892"><ele>214.66666666666666</ele><time>2026-04-28T06:29:24.999Z</time></trkpt><trkpt lat="45.18585126469796" lon="5.76910277276539"><ele>214.0</ele><time>2026-04-28T06:29:25.999Z</time></trkpt><trkpt lat="45.18578797605847" lon="5.769049652613938"><ele>214.00000000000003</ele><time>2026-04-28T06:29:26.999Z</time></trkpt><trkpt lat="45.18572473614972" lon="5.768995321890861"><ele>214.0</ele><time>2026-04-28T06:29:27.999Z</time></trkpt><trkpt lat="45.185666085207146" lon="5.768944934298183"><ele>214.0</ele><time>2026-04-28T06:29:28.999Z</time></trkpt><trkpt lat="45.18560556175011" lon="5.768892938151606"><ele>214.0</ele><time>2026-04-28T06:29:29.999Z</time></trkpt><trkpt lat="45.185539736662605" lon="5.768841171628117"><ele>214.0</ele><time>2026-04-28T06:29:30.999Z</time></trkpt><trkpt lat="45.18548232307467" lon="5.768795569603392"><ele>214.00000000000003</ele><time>2026-04-28T06:29:31.999Z</time></trkpt><trkpt lat="45.18542435684372" lon="5.768747371082024"><ele>214.0</ele><time>2026-04-28T06:29:32.999Z</time></trkpt><trkpt lat="45.18536963389245" lon="5.768699546964708"><ele>214.16666666666666</ele><time>2026-04-28T06:29:33.999Z</time></trkpt><trkpt lat="45.1853136728012" lon="5.768650225823689"><ele>214.33333333333331</ele><time>2026-04-28T06:29:34.999Z</time></trkpt><trkpt lat="45.18521030523988" lon="5.768548488697236"><ele>214.5</ele><time>2026-04-28T06:29:36.999Z</time></trkpt><trkpt lat="45.18515312602801" lon="5.768490475093744"><ele>214.66666666666669</ele><time>2026-04-28T06:29:37.999Z</time></trkpt><trkpt lat="45.18508772354013" lon="5.7684313212936225"><ele>214.83333333333334</ele><time>2026-04-28T06:29:38.999Z</time></trkpt><trkpt lat="45.18502071296591" lon="5.768383645833879"><ele>215.0</ele><time>2026-04-28T06:29:39.999Z</time></trkpt><trkpt lat="45.1849276529638" lon="5.768350593506362"><ele>215.00000000000003</ele><time>2026-04-28T06:29:40.999Z</time></trkpt><trkpt lat="45.184853702178025" lon="5.768335408039778"><ele>215.0</ele><time>2026-04-28T06:29:41.999Z</time></trkpt><trkpt lat="45.18477772761706" lon="5.7683291269580925"><ele>215.0</ele><time>2026-04-28T06:29:42.999Z</time></trkpt><trkpt lat="45.18471474911289" lon="5.768324955019666"><ele>215.0</ele><time>2026-04-28T06:29:43.999Z</time></trkpt><trkpt lat="45.184651490995634" lon="5.768319856371376"><ele>215.00000000000003</ele><time>2026-04-28T06:29:44.999Z</time></trkpt><trkpt lat="45.18457804319917" lon="5.768488998215104"><ele>215.0</ele><time>2026-04-28T06:29:45.999Z</time></trkpt><trkpt lat="45.18451490584609" lon="5.76847233057211"><ele>215.16666666666669</ele><time>2026-04-28T06:29:46.999Z</time></trkpt><trkpt lat="45.184442434900006" lon="5.768446878066592"><ele>215.33333333333334</ele><time>2026-04-28T06:29:48.999Z</time></trkpt><trkpt lat="45.184513444795755" lon="5.768472454462587"><ele>215.5</ele><time>2026-04-28T06:30:20Z</time></trkpt><trkpt lat="45.18443597178442" lon="5.7684381861600045"><ele>215.66666666666669</ele><time>2026-04-28T06:30:56.999Z</time></trkpt><trkpt lat="45.1843700638426" lon="5.768437495431563"><ele>215.83333333333334</ele><time>2026-04-28T06:30:58.999Z</time></trkpt><trkpt lat="45.18434310611343" lon="5.768271169388681"><ele>216.0</ele><time>2026-04-28T06:30:59.999Z</time></trkpt><trkpt lat="45.18425591751269" lon="5.768259635540444"><ele>216.0</ele><time>2026-04-28T06:31:01.999Z</time></trkpt><trkpt lat="45.184157087700655" lon="5.768246044534064"><ele>216.00000000000003</ele><time>2026-04-28T06:31:03.999Z</time></trkpt><trkpt lat="45.184058471959034" lon="5.76823349887331"><ele>216.00000000000003</ele><time>2026-04-28T06:31:05.999Z</time></trkpt><trkpt lat="45.183947884795934" lon="5.768212933714494"><ele>216.0</ele><time>2026-04-28T06:31:07.999Z</time></trkpt><trkpt lat="45.18383245044713" lon="5.768188805381348"><ele>216.0</ele><time>2026-04-28T06:31:09.999Z</time></trkpt><trkpt lat="45.183704540902355" lon="5.76818513720917"><ele>215.60000000000002</ele><time>2026-04-28T06:31:11.999Z</time></trkpt><trkpt lat="45.18358190239216" lon="5.768186066840192"><ele>215.20000000000002</ele><time>2026-04-28T06:31:13.999Z</time></trkpt><trkpt lat="45.183462030220106" lon="5.7681825385881265"><ele>214.79999999999998</ele><time>2026-04-28T06:31:15.999Z</time></trkpt><trkpt lat="45.18339264205008" lon="5.7681795874239"><ele>214.39999999999998</ele><time>2026-04-28T06:31:57.999Z</time></trkpt><trkpt lat="45.18330829420674" lon="5.768174153731011"><ele>214.0</ele><time>2026-04-28T06:32:00.999Z</time></trkpt><trkpt lat="45.18322603023952" lon="5.7681693567893895"><ele>214.5</ele><time>2026-04-28T06:32:03Z</time></trkpt><trkpt lat="45.183121696688914" lon="5.768163271061129"><ele>215.0</ele><time>2026-04-28T06:32:05Z</time></trkpt><trkpt lat="45.18301169677382" lon="5.768156853997566"><ele>215.5</ele><time>2026-04-28T06:32:07Z</time></trkpt><trkpt lat="45.18289332987327" lon="5.768150392485607"><ele>216.0</ele><time>2026-04-28T06:32:09Z</time></trkpt><trkpt lat="45.18276946787457" lon="5.768143842057335"><ele>216.0</ele><time>2026-04-28T06:32:11Z</time></trkpt><trkpt lat="45.18264664379762" lon="5.768137287505142"><ele>216.0</ele><time>2026-04-28T06:32:13Z</time></trkpt><trkpt lat="45.18252294544568" lon="5.768130242780316"><ele>216.0</ele><time>2026-04-28T06:32:15Z</time></trkpt><trkpt lat="45.182457054997855" lon="5.768126490265951"><ele>216.0</ele><time>2026-04-28T06:32:16Z</time></trkpt><trkpt lat="45.18238998625248" lon="5.768122670643763"><ele>216.0</ele><time>2026-04-28T06:32:17Z</time></trkpt><trkpt lat="45.182326105727014" lon="5.768118940108788"><ele>216.0</ele><time>2026-04-28T06:32:18Z</time></trkpt><trkpt lat="45.18226121432688" lon="5.7681148025408016"><ele>215.66666666666666</ele><time>2026-04-28T06:32:19Z</time></trkpt><trkpt lat="45.182192808417874" lon="5.7681103258239235"><ele>215.33333333333331</ele><time>2026-04-28T06:32:20Z</time></trkpt><trkpt lat="45.18212769676524" lon="5.768105670859069"><ele>215.0</ele><time>2026-04-28T06:32:21Z</time></trkpt><trkpt lat="45.182062474593494" lon="5.768100035855725"><ele>214.66666666666666</ele><time>2026-04-28T06:32:22Z</time></trkpt><trkpt lat="45.18193881568791" lon="5.768085859148565"><ele>214.33333333333331</ele><time>2026-04-28T06:32:24Z</time></trkpt><trkpt lat="45.181813653010614" lon="5.768068735469885"><ele>214.0</ele><time>2026-04-28T06:32:26Z</time></trkpt><trkpt lat="45.18169055969804" lon="5.768042532883486"><ele>214.0</ele><time>2026-04-28T06:32:28Z</time></trkpt><trkpt lat="45.18157483150113" lon="5.767997232358479"><ele>213.99999999999997</ele><time>2026-04-28T06:32:30Z</time></trkpt><trkpt lat="45.181509467477994" lon="5.767957692786645"><ele>213.99999999999997</ele><time>2026-04-28T06:32:31Z</time></trkpt><trkpt lat="45.181412594957344" lon="5.767867776923834"><ele>214.0</ele><time>2026-04-28T06:32:33Z</time></trkpt><trkpt lat="45.18132391888723" lon="5.7677458058089695"><ele>214.0</ele><time>2026-04-28T06:32:35Z</time></trkpt><trkpt lat="45.18124189005522" lon="5.767607597839345"><ele>214.14285714285717</ele><time>2026-04-28T06:32:37Z</time></trkpt><trkpt lat="45.181204104051375" lon="5.767533723610371"><ele>214.28571428571428</ele><time>2026-04-28T06:32:38Z</time></trkpt><trkpt lat="45.18116535740581" lon="5.76745713422803"><ele>214.42857142857144</ele><time>2026-04-28T06:32:39Z</time></trkpt><trkpt lat="45.18112650133069" lon="5.767377220298814"><ele>214.57142857142858</ele><time>2026-04-28T06:32:40Z</time></trkpt><trkpt lat="45.181086672227565" lon="5.767295305034351"><ele>214.71428571428572</ele><time>2026-04-28T06:32:41Z</time></trkpt><trkpt lat="45.18104758803314" lon="5.767215021774783"><ele>214.85714285714286</ele><time>2026-04-28T06:32:42Z</time></trkpt><trkpt lat="45.18100913601512" lon="5.767136310889162"><ele>215.0</ele><time>2026-04-28T06:32:43Z</time></trkpt><trkpt lat="45.18096962409802" lon="5.767055255144928"><ele>215.00000000000003</ele><time>2026-04-28T06:32:44Z</time></trkpt><trkpt lat="45.180932049046476" lon="5.766978010817881"><ele>215.0</ele><time>2026-04-28T06:32:45Z</time></trkpt><trkpt lat="45.180894314434966" lon="5.766900438595193"><ele>215.0</ele><time>2026-04-28T06:32:46Z</time></trkpt><trkpt lat="45.18085796269162" lon="5.7668257092051505"><ele>215.0</ele><time>2026-04-28T06:32:47Z</time></trkpt><trkpt lat="45.18078539864982" lon="5.766682192552788"><ele>215.00000000000003</ele><time>2026-04-28T06:32:49Z</time></trkpt><trkpt lat="45.18071477762729" lon="5.766564829538347"><ele>215.0</ele><time>2026-04-28T06:32:51Z</time></trkpt><trkpt lat="45.18065274628539" lon="5.766512388655409"><ele>215.0</ele><time>2026-04-28T06:32:53Z</time></trkpt><trkpt lat="45.180624375353226" lon="5.766429693428602"><ele>215.0</ele><time>2026-04-28T06:33:17.999Z</time></trkpt><trkpt lat="45.18060763465233" lon="5.766314998079543"><ele>215.0</ele><time>2026-04-28T06:33:18.999Z</time></trkpt><trkpt lat="45.18047306765119" lon="5.766364966466028"><ele>215.0</ele><time>2026-04-28T06:33:20.999Z</time></trkpt><trkpt lat="45.18034818882759" lon="5.76628512741395"><ele>215.0</ele><time>2026-04-28T06:33:22.999Z</time></trkpt><trkpt lat="45.18028969762208" lon="5.766230885671494"><ele>215.0</ele><time>2026-04-28T06:33:23.999Z</time></trkpt><trkpt lat="45.18023191016832" lon="5.7661676855989805"><ele>215.0</ele><time>2026-04-28T06:33:24.999Z</time></trkpt><trkpt lat="45.18018114743327" lon="5.766092456884261"><ele>215.0</ele><time>2026-04-28T06:33:25.999Z</time></trkpt><trkpt lat="45.18014903268146" lon="5.765999059487028"><ele>215.0</ele><time>2026-04-28T06:33:26.999Z</time></trkpt><trkpt lat="45.180110923648876" lon="5.765923144241067"><ele>215.0</ele><time>2026-04-28T06:33:27.999Z</time></trkpt><trkpt lat="45.18010095891246" lon="5.765804982470198"><ele>215.0</ele><time>2026-04-28T06:33:28.999Z</time></trkpt><trkpt lat="45.18008127374541" lon="5.765712808839518"><ele>215.0</ele><time>2026-04-28T06:33:29.999Z</time></trkpt><trkpt lat="45.18006082365095" lon="5.765625186828326"><ele>214.83333333333334</ele><time>2026-04-28T06:33:30.999Z</time></trkpt><trkpt lat="45.18004015683608" lon="5.765536641820093"><ele>214.66666666666669</ele><time>2026-04-28T06:33:31.999Z</time></trkpt><trkpt lat="45.180019371775956" lon="5.765449828969716"><ele>214.5</ele><time>2026-04-28T06:33:32.999Z</time></trkpt><trkpt lat="45.17998052193149" lon="5.765285657144262"><ele>214.33333333333331</ele><time>2026-04-28T06:33:34.999Z</time></trkpt><trkpt lat="45.179939855773355" lon="5.7651138096984615"><ele>214.16666666666666</ele><time>2026-04-28T06:33:36.999Z</time></trkpt><trkpt lat="45.17991887154914" lon="5.765025133750078"><ele>214.0</ele><time>2026-04-28T06:33:37.999Z</time></trkpt><trkpt lat="45.17989950567989" lon="5.764931870622021"><ele>214.0</ele><time>2026-04-28T06:33:38.999Z</time></trkpt><trkpt lat="45.17986127994336" lon="5.76476383260414"><ele>213.99999999999997</ele><time>2026-04-28T06:33:40.999Z</time></trkpt><trkpt lat="45.1798213541792" lon="5.7645941226527295"><ele>213.99999999999997</ele><time>2026-04-28T06:33:42.999Z</time></trkpt><trkpt lat="45.17979737555082" lon="5.764503475790914"><ele>214.0</ele><time>2026-04-28T06:33:43.999Z</time></trkpt><trkpt lat="45.179773055580945" lon="5.7644126042675765"><ele>214.0</ele><time>2026-04-28T06:33:44.999Z</time></trkpt><trkpt lat="45.17974967654679" lon="5.764327503316377"><ele>213.99999999999997</ele><time>2026-04-28T06:33:45.999Z</time></trkpt><trkpt lat="45.179722692847236" lon="5.764231378472393"><ele>214.0</ele><time>2026-04-28T06:33:46.999Z</time></trkpt><trkpt lat="45.17969818079869" lon="5.7641440584562105"><ele>214.0</ele><time>2026-04-28T06:33:47.999Z</time></trkpt><trkpt lat="45.17967469363814" lon="5.76405700800974"><ele>214.0</ele><time>2026-04-28T06:33:48.999Z</time></trkpt><trkpt lat="45.17964917787575" lon="5.763961398899165"><ele>213.99999999999997</ele><time>2026-04-28T06:33:49.999Z</time></trkpt><trkpt lat="45.17962376253713" lon="5.763862472145879"><ele>214.0</ele><time>2026-04-28T06:33:50.999Z</time></trkpt><trkpt lat="45.179580934611465" lon="5.763694003387611"><ele>213.99999999999997</ele><time>2026-04-28T06:33:52.999Z</time></trkpt><trkpt lat="45.17955985935716" lon="5.763609752425382"><ele>214.0</ele><time>2026-04-28T06:33:53.999Z</time></trkpt><trkpt lat="45.179536272325926" lon="5.763515460411968"><ele>214.0</ele><time>2026-04-28T06:33:54.999Z</time></trkpt><trkpt lat="45.17951438695642" lon="5.763427970939631"><ele>214.0</ele><time>2026-04-28T06:33:55.999Z</time></trkpt><trkpt lat="45.179470943433316" lon="5.763258117445987"><ele>213.99999999999997</ele><time>2026-04-28T06:33:57.999Z</time></trkpt><trkpt lat="45.17944798771026" lon="5.763168455092994"><ele>214.0</ele><time>2026-04-28T06:33:58.999Z</time></trkpt><trkpt lat="45.17942485974107" lon="5.763080188275608"><ele>214.2</ele><time>2026-04-28T06:33:59.999Z</time></trkpt><trkpt lat="45.1794009923061" lon="5.762990650056743"><ele>214.39999999999998</ele><time>2026-04-28T06:34:00.999Z</time></trkpt><trkpt lat="45.17937757473312" lon="5.76290544900665"><ele>214.6</ele><time>2026-04-28T06:34:01.999Z</time></trkpt><trkpt lat="45.17932905386801" lon="5.762728913885942"><ele>214.8</ele><time>2026-04-28T06:34:03.999Z</time></trkpt><trkpt lat="45.17928604413867" lon="5.762572642264533"><ele>215.0</ele><time>2026-04-28T06:34:05.999Z</time></trkpt><trkpt lat="45.17925969204673" lon="5.762477257325912"><ele>215.50000000000003</ele><time>2026-04-28T06:34:06.999Z</time></trkpt><trkpt lat="45.17923502183335" lon="5.762387960171418"><ele>216.0</ele><time>2026-04-28T06:34:08Z</time></trkpt><trkpt lat="45.17921243745644" lon="5.762300281487807"><ele>216.5</ele><time>2026-04-28T06:34:09Z</time></trkpt><trkpt lat="45.17919096882996" lon="5.762213432630591"><ele>217.0</ele><time>2026-04-28T06:34:10Z</time></trkpt><trkpt lat="45.179168428722825" lon="5.762118744706046"><ele>217.50000000000003</ele><time>2026-04-28T06:34:11Z</time></trkpt><trkpt lat="45.17914388879815" lon="5.761932923422969"><ele>218.0</ele><time>2026-04-28T06:34:13Z</time></trkpt><trkpt lat="45.17912403086504" lon="5.76184316783315"><ele>218.00000000000003</ele><time>2026-04-28T06:34:14Z</time></trkpt><trkpt lat="45.179083974057704" lon="5.761764184353711"><ele>218.0</ele><time>2026-04-28T06:34:15Z</time></trkpt><trkpt lat="45.17905910534356" lon="5.761675902823972"><ele>218.0</ele><time>2026-04-28T06:34:16Z</time></trkpt><trkpt lat="45.17901133862473" lon="5.761511423484842"><ele>218.0</ele><time>2026-04-28T06:34:18Z</time></trkpt><trkpt lat="45.17898582391493" lon="5.761423614216424"><ele>218.00000000000003</ele><time>2026-04-28T06:34:19Z</time></trkpt><trkpt lat="45.17895991646111" lon="5.76133448726076"><ele>218.0</ele><time>2026-04-28T06:34:20Z</time></trkpt><trkpt lat="45.17893419194557" lon="5.761245477542161"><ele>217.50000000000003</ele><time>2026-04-28T06:34:21Z</time></trkpt><trkpt lat="45.1789068067232" lon="5.761149364402806"><ele>217.0</ele><time>2026-04-28T06:34:22Z</time></trkpt><trkpt lat="45.17885673547225" lon="5.760973630858675"><ele>216.5</ele><time>2026-04-28T06:34:24Z</time></trkpt><trkpt lat="45.17883046975923" lon="5.760880278138072"><ele>216.0</ele><time>2026-04-28T06:34:25Z</time></trkpt><trkpt lat="45.17880148074574" lon="5.760777083668835"><ele>215.50000000000003</ele><time>2026-04-28T06:34:26Z</time></trkpt><trkpt lat="45.178773552853436" lon="5.760677666500005"><ele>215.0</ele><time>2026-04-28T06:34:27Z</time></trkpt><trkpt lat="45.17874524950601" lon="5.760576912830573"><ele>215.00000000000003</ele><time>2026-04-28T06:34:28Z</time></trkpt><trkpt lat="45.17871969867831" lon="5.760485957540101"><ele>215.0</ele><time>2026-04-28T06:34:29Z</time></trkpt><trkpt lat="45.178692818908566" lon="5.760387051814892"><ele>215.0</ele><time>2026-04-28T06:34:30Z</time></trkpt><trkpt lat="45.17866734923515" lon="5.760291421331385"><ele>215.0</ele><time>2026-04-28T06:34:31Z</time></trkpt><trkpt lat="45.17864045104867" lon="5.760190427196303"><ele>215.00000000000003</ele><time>2026-04-28T06:34:32Z</time></trkpt><trkpt lat="45.17859259840677" lon="5.760009893737125"><ele>215.0</ele><time>2026-04-28T06:34:34Z</time></trkpt><trkpt lat="45.17856531846177" lon="5.7599051589805565"><ele>214.85714285714286</ele><time>2026-04-28T06:34:35Z</time></trkpt><trkpt lat="45.17854273250521" lon="5.759816208683686"><ele>214.71428571428572</ele><time>2026-04-28T06:34:36Z</time></trkpt><trkpt lat="45.17851722858701" lon="5.759714723005353"><ele>214.57142857142858</ele><time>2026-04-28T06:34:37Z</time></trkpt><trkpt lat="45.178495595571626" lon="5.759627925512257"><ele>214.42857142857144</ele><time>2026-04-28T06:34:38Z</time></trkpt><trkpt lat="45.178470860681365" lon="5.759528682548868"><ele>214.28571428571428</ele><time>2026-04-28T06:34:39Z</time></trkpt><trkpt lat="45.178448454833585" lon="5.7594314749063615"><ele>214.14285714285717</ele><time>2026-04-28T06:34:40Z</time></trkpt><trkpt lat="45.178426744833416" lon="5.759337032585669"><ele>214.0</ele><time>2026-04-28T06:34:41Z</time></trkpt><trkpt lat="45.17839411442344" lon="5.759195084514263"><ele>213.83333333333331</ele><time>2026-04-28T06:34:43Z</time></trkpt><trkpt lat="45.17837133425672" lon="5.759099560324264"><ele>213.66666666666666</ele><time>2026-04-28T06:34:47Z</time></trkpt><trkpt lat="45.17834941911217" lon="5.759009938836812"><ele>213.5</ele><time>2026-04-28T06:34:49Z</time></trkpt><trkpt lat="45.17835249563507" lon="5.758891235552267"><ele>213.33333333333331</ele><time>2026-04-28T06:34:51Z</time></trkpt><trkpt lat="45.178318925178736" lon="5.758751605505465"><ele>213.16666666666666</ele><time>2026-04-28T06:34:53Z</time></trkpt><trkpt lat="45.17825224137186" lon="5.758627651760871"><ele>213.0</ele><time>2026-04-28T06:34:55Z</time></trkpt><trkpt lat="45.17821301645377" lon="5.758473148297827"><ele>213.0</ele><time>2026-04-28T06:34:57Z</time></trkpt><trkpt lat="45.1781716677576" lon="5.7583102793965795"><ele>213.0</ele><time>2026-04-28T06:34:59Z</time></trkpt><trkpt lat="45.17812979241138" lon="5.7581458865850825"><ele>213.0</ele><time>2026-04-28T06:35:01Z</time></trkpt><trkpt lat="45.17810766681642" lon="5.75806045650106"><ele>213.0</ele><time>2026-04-28T06:35:02Z</time></trkpt><trkpt lat="45.17806355932544" lon="5.757890150989688"><ele>213.0</ele><time>2026-04-28T06:35:04Z</time></trkpt><trkpt lat="45.17804057239015" lon="5.757801395061856"><ele>212.60000000000002</ele><time>2026-04-28T06:35:05Z</time></trkpt><trkpt lat="45.178000980715446" lon="5.7576485258484755"><ele>212.20000000000002</ele><time>2026-04-28T06:35:07Z</time></trkpt><trkpt lat="45.17795650758611" lon="5.757480702131298"><ele>211.8</ele><time>2026-04-28T06:35:09Z</time></trkpt><trkpt lat="45.17793233692901" lon="5.757389551100801"><ele>211.4</ele><time>2026-04-28T06:35:09.999Z</time></trkpt><trkpt lat="45.17790886871458" lon="5.757301049037123"><ele>211.0</ele><time>2026-04-28T06:35:10.999Z</time></trkpt><trkpt lat="45.177868417983916" lon="5.757146885537253"><ele>211.0</ele><time>2026-04-28T06:35:12.999Z</time></trkpt><trkpt lat="45.177827128993144" lon="5.756986056307655"><ele>211.0</ele><time>2026-04-28T06:35:14.999Z</time></trkpt><trkpt lat="45.177787508202144" lon="5.75683172492919"><ele>211.0</ele><time>2026-04-28T06:35:16.999Z</time></trkpt><trkpt lat="45.177748769833364" lon="5.756682232394382"><ele>211.0</ele><time>2026-04-28T06:35:18.999Z</time></trkpt><trkpt lat="45.17773401727957" lon="5.7565800774335285"><ele>211.0</ele><time>2026-04-28T06:35:19.999Z</time></trkpt><trkpt lat="45.1777091933413" lon="5.756495876017122"><ele>210.99999999999997</ele><time>2026-04-28T06:35:20.999Z</time></trkpt><trkpt lat="45.177679700687044" lon="5.756383097961453"><ele>211.0</ele><time>2026-04-28T06:35:22.999Z</time></trkpt><trkpt lat="45.17764090988917" lon="5.756269594915804"><ele>211.0</ele><time>2026-04-28T06:35:24.999Z</time></trkpt><trkpt lat="45.177566678182664" lon="5.75627942877036"><ele>211.0</ele><time>2026-04-28T06:35:31.999Z</time></trkpt><trkpt lat="45.17749194399957" lon="5.756329996120351"><ele>210.99999999999997</ele><time>2026-04-28T06:35:33.999Z</time></trkpt><trkpt lat="45.17740619334911" lon="5.7563655087217604"><ele>211.0</ele><time>2026-04-28T06:35:35.999Z</time></trkpt><trkpt lat="45.17730997334228" lon="5.756416713506974"><ele>211.0</ele><time>2026-04-28T06:35:37.999Z</time></trkpt><trkpt lat="45.177201826568165" lon="5.756458434687028"><ele>211.0</ele><time>2026-04-28T06:35:39.999Z</time></trkpt><trkpt lat="45.177138959579864" lon="5.756485248507882"><ele>211.0</ele><time>2026-04-28T06:35:40.999Z</time></trkpt><trkpt lat="45.17703523045465" lon="5.75654157313322"><ele>211.0</ele><time>2026-04-28T06:35:42.999Z</time></trkpt><trkpt lat="45.176915476856465" lon="5.756599447999082"><ele>211.0</ele><time>2026-04-28T06:35:44.999Z</time></trkpt><trkpt lat="45.176856495576146" lon="5.756634653402625"><ele>210.99999999999997</ele><time>2026-04-28T06:35:45.999Z</time></trkpt><trkpt lat="45.17674167325825" lon="5.756703101097048"><ele>211.0</ele><time>2026-04-28T06:35:47.999Z</time></trkpt><trkpt lat="45.176681495151165" lon="5.7567386332854875"><ele>211.0</ele><time>2026-04-28T06:35:48.999Z</time></trkpt><trkpt lat="45.176615073791616" lon="5.756771571024677"><ele>211.0</ele><time>2026-04-28T06:35:49.999Z</time></trkpt><trkpt lat="45.176556191261795" lon="5.75680354208603"><ele>210.99999999999997</ele><time>2026-04-28T06:35:50.999Z</time></trkpt><trkpt lat="45.17649378848936" lon="5.75683797635616"><ele>211.0</ele><time>2026-04-28T06:35:51.999Z</time></trkpt><trkpt lat="45.17643230708976" lon="5.756873006145248"><ele>210.99999999999997</ele><time>2026-04-28T06:35:52.999Z</time></trkpt><trkpt lat="45.17636622529959" lon="5.756901951795544"><ele>211.0</ele><time>2026-04-28T06:35:53.999Z</time></trkpt><trkpt lat="45.17630632297969" lon="5.756939202149523"><ele>211.0</ele><time>2026-04-28T06:35:54.999Z</time></trkpt><trkpt lat="45.17619121348584" lon="5.757010548211292"><ele>211.0</ele><time>2026-04-28T06:35:56.999Z</time></trkpt><trkpt lat="45.176131239773724" lon="5.757044548868028"><ele>210.99999999999997</ele><time>2026-04-28T06:35:57.999Z</time></trkpt><trkpt lat="45.17606728855583" lon="5.757074514624615"><ele>211.0</ele><time>2026-04-28T06:35:58.999Z</time></trkpt><trkpt lat="45.1759683615967" lon="5.756972672096528"><ele>211.0</ele><time>2026-04-28T06:35:59.999Z</time></trkpt><trkpt lat="45.17590303715849" lon="5.757006785737394"><ele>211.0</ele><time>2026-04-28T06:36:00.999Z</time></trkpt><trkpt lat="45.17583925303539" lon="5.7570400949117"><ele>211.0</ele><time>2026-04-28T06:36:01.999Z</time></trkpt><trkpt lat="45.17577355550831" lon="5.757074423151172"><ele>211.0</ele><time>2026-04-28T06:36:02.999Z</time></trkpt><trkpt lat="45.175709392484094" lon="5.757107974303219"><ele>211.0</ele><time>2026-04-28T06:36:03.999Z</time></trkpt><trkpt lat="45.17564023257885" lon="5.757144138330924"><ele>211.0</ele><time>2026-04-28T06:36:04.999Z</time></trkpt><trkpt lat="45.175576898089666" lon="5.757177256238411"><ele>211.0</ele><time>2026-04-28T06:36:05.999Z</time></trkpt><trkpt lat="45.1755132066877" lon="5.757210560743042"><ele>211.28571428571428</ele><time>2026-04-28T06:36:06.999Z</time></trkpt><trkpt lat="45.17544712821935" lon="5.757245113482091"><ele>211.57142857142858</ele><time>2026-04-28T06:36:07.999Z</time></trkpt><trkpt lat="45.17538246087185" lon="5.757278929420558"><ele>211.85714285714283</ele><time>2026-04-28T06:36:08.999Z</time></trkpt><trkpt lat="45.17531837628289" lon="5.757312446928192"><ele>212.14285714285714</ele><time>2026-04-28T06:36:09.999Z</time></trkpt><trkpt lat="45.17525456335269" lon="5.757345822336819"><ele>212.42857142857142</ele><time>2026-04-28T06:36:10.999Z</time></trkpt><trkpt lat="45.175187843357364" lon="5.7573807181512855"><ele>212.7142857142857</ele><time>2026-04-28T06:36:11.999Z</time></trkpt><trkpt lat="45.17512450591283" lon="5.75741334245219"><ele>213.0</ele><time>2026-04-28T06:36:12.999Z</time></trkpt><trkpt lat="45.17505863176962" lon="5.757446547521795"><ele>212.99999999999997</ele><time>2026-04-28T06:36:14Z</time></trkpt><trkpt lat="45.17498976466019" lon="5.7574812612522726"><ele>213.0</ele><time>2026-04-28T06:36:15Z</time></trkpt><trkpt lat="45.17492496545432" lon="5.75751392444763"><ele>213.0</ele><time>2026-04-28T06:36:16Z</time></trkpt><trkpt lat="45.174854214375586" lon="5.75755036445727"><ele>213.0</ele><time>2026-04-28T06:36:17Z</time></trkpt><trkpt lat="45.17479140007947" lon="5.7575832878431985"><ele>213.0</ele><time>2026-04-28T06:36:18Z</time></trkpt><trkpt lat="45.17472747012076" lon="5.75761733390367"><ele>212.99999999999997</ele><time>2026-04-28T06:36:19Z</time></trkpt><trkpt lat="45.17465853144675" lon="5.75765453390527"><ele>213.0</ele><time>2026-04-28T06:36:20Z</time></trkpt><trkpt lat="45.17459437368322" lon="5.757689154075737"><ele>213.14285714285714</ele><time>2026-04-28T06:36:21Z</time></trkpt><trkpt lat="45.174528681645256" lon="5.757724602163859"><ele>213.28571428571428</ele><time>2026-04-28T06:36:22Z</time></trkpt><trkpt lat="45.17446690843655" lon="5.757757350756936"><ele>213.42857142857144</ele><time>2026-04-28T06:36:23Z</time></trkpt><trkpt lat="45.17440361655224" lon="5.757790170614633"><ele>213.57142857142856</ele><time>2026-04-28T06:36:24Z</time></trkpt><trkpt lat="45.17434043041485" lon="5.757822935882787"><ele>213.71428571428572</ele><time>2026-04-28T06:36:25Z</time></trkpt><trkpt lat="45.1742782290698" lon="5.757853711060036"><ele>213.85714285714286</ele><time>2026-04-28T06:36:26Z</time></trkpt><trkpt lat="45.174216565015925" lon="5.757885354964587"><ele>214.0</ele><time>2026-04-28T06:36:27Z</time></trkpt><trkpt lat="45.17415093896801" lon="5.757918923431249"><ele>213.99999999999997</ele><time>2026-04-28T06:36:28Z</time></trkpt><trkpt lat="45.17408783674227" lon="5.757951200886333"><ele>214.0</ele><time>2026-04-28T06:36:29Z</time></trkpt><trkpt lat="45.1739618432602" lon="5.758015943371534"><ele>214.0</ele><time>2026-04-28T06:36:31Z</time></trkpt><trkpt lat="45.17389689415393" lon="5.758050387585611"><ele>214.0</ele><time>2026-04-28T06:36:32Z</time></trkpt><trkpt lat="45.173831371446155" lon="5.758085135997632"><ele>213.99999999999997</ele><time>2026-04-28T06:36:33Z</time></trkpt><trkpt lat="45.17376469280584" lon="5.7581204974390054"><ele>214.0</ele><time>2026-04-28T06:36:34Z</time></trkpt><trkpt lat="45.17370174774141" lon="5.758153878853164"><ele>214.99999999999997</ele><time>2026-04-28T06:36:35Z</time></trkpt><trkpt lat="45.17364011222269" lon="5.758186565769174"><ele>216.0</ele><time>2026-04-28T06:36:36Z</time></trkpt><trkpt lat="45.17352144106593" lon="5.758249500224496"><ele>217.0</ele><time>2026-04-28T06:36:38Z</time></trkpt><trkpt lat="45.17345706193154" lon="5.758283642181255"><ele>218.0</ele><time>2026-04-28T06:36:39Z</time></trkpt><trkpt lat="45.17339328887485" lon="5.758316371113514"><ele>218.99999999999997</ele><time>2026-04-28T06:36:40Z</time></trkpt><trkpt lat="45.173327851778126" lon="5.758349944773435"><ele>220.0</ele><time>2026-04-28T06:36:41Z</time></trkpt><trkpt lat="45.17326201632562" lon="5.758383722890063"><ele>219.2</ele><time>2026-04-28T06:36:42Z</time></trkpt><trkpt lat="45.17315847506707" lon="5.758436846492184"><ele>218.4</ele><time>2026-04-28T06:36:44Z</time></trkpt><trkpt lat="45.17308245852422" lon="5.758476485767276"><ele>217.60000000000002</ele><time>2026-04-28T06:36:46Z</time></trkpt><trkpt lat="45.17300453152487" lon="5.75851741027208"><ele>216.8</ele><time>2026-04-28T06:36:48Z</time></trkpt><trkpt lat="45.17295345078325" lon="5.758455202039803"><ele>216.0</ele><time>2026-04-28T06:36:54Z</time></trkpt><trkpt lat="45.1728260575977" lon="5.758496873466479"><ele>216.0</ele><time>2026-04-28T06:36:55Z</time></trkpt><trkpt lat="45.17277818415998" lon="5.758382568575246"><ele>216.00000000000003</ele><time>2026-04-28T06:36:57Z</time></trkpt><trkpt lat="45.17271062116647" lon="5.758263889893954"><ele>216.00000000000003</ele><time>2026-04-28T06:36:59Z</time></trkpt><trkpt lat="45.172620505273294" lon="5.758144008889756"><ele>216.0</ele><time>2026-04-28T06:37:01Z</time></trkpt><trkpt lat="45.17253046013162" lon="5.758035437503979"><ele>216.0</ele><time>2026-04-28T06:37:03Z</time></trkpt><trkpt lat="45.1724806275072" lon="5.757976267654541"><ele>216.0</ele><time>2026-04-28T06:37:04Z</time></trkpt><trkpt lat="45.17243232834957" lon="5.757916577077729"><ele>216.00000000000003</ele><time>2026-04-28T06:37:05Z</time></trkpt><trkpt lat="45.17233970644981" lon="5.75779865889287"><ele>216.00000000000003</ele><time>2026-04-28T06:37:07Z</time></trkpt><trkpt lat="45.17224705778475" lon="5.757679469535063"><ele>216.0</ele><time>2026-04-28T06:37:09Z</time></trkpt><trkpt lat="45.17215873106273" lon="5.757571453929712"><ele>216.0</ele><time>2026-04-28T06:37:11Z</time></trkpt><trkpt lat="45.17208410555987" lon="5.757483401876671"><ele>215.5</ele><time>2026-04-28T06:37:13Z</time></trkpt><trkpt lat="45.1720296919121" lon="5.757428208487783"><ele>215.0</ele><time>2026-04-28T06:37:16.999Z</time></trkpt><trkpt lat="45.171967119392484" lon="5.757380714781938"><ele>214.5</ele><time>2026-04-28T06:37:22.999Z</time></trkpt><trkpt lat="45.1718936894447" lon="5.75734832663282"><ele>214.0</ele><time>2026-04-28T06:37:26.999Z</time></trkpt><trkpt lat="45.17181052830958" lon="5.757346123826016"><ele>213.5</ele><time>2026-04-28T06:37:28.999Z</time></trkpt><trkpt lat="45.17170868494765" lon="5.757283741959349"><ele>213.0</ele><time>2026-04-28T06:37:30.999Z</time></trkpt><trkpt lat="45.171600144237466" lon="5.757205861733021"><ele>213.0</ele><time>2026-04-28T06:37:32.999Z</time></trkpt><trkpt lat="45.17154356119722" lon="5.757163179374025"><ele>213.0</ele><time>2026-04-28T06:37:33.999Z</time></trkpt><trkpt lat="45.17148564219002" lon="5.757118834087362"><ele>213.0</ele><time>2026-04-28T06:37:34.999Z</time></trkpt><trkpt lat="45.171377806957295" lon="5.757033449922538"><ele>213.0</ele><time>2026-04-28T06:37:36.999Z</time></trkpt><trkpt lat="45.17131252222234" lon="5.756984605850452"><ele>213.0</ele><time>2026-04-28T06:37:37.999Z</time></trkpt><trkpt lat="45.17125261144629" lon="5.7569448845848195"><ele>213.0</ele><time>2026-04-28T06:37:38.999Z</time></trkpt><trkpt lat="45.171190694389445" lon="5.756908220221224"><ele>213.33333333333334</ele><time>2026-04-28T06:37:39.999Z</time></trkpt><trkpt lat="45.17113106374779" lon="5.756865897018142"><ele>213.66666666666669</ele><time>2026-04-28T06:37:40.999Z</time></trkpt><trkpt lat="45.17106575835413" lon="5.756824619585013"><ele>214.0</ele><time>2026-04-28T06:37:41.999Z</time></trkpt><trkpt lat="45.1710012043912" lon="5.756791726794658"><ele>214.33333333333334</ele><time>2026-04-28T06:37:42.999Z</time></trkpt><trkpt lat="45.17088450933437" lon="5.756717890098571"><ele>214.66666666666669</ele><time>2026-04-28T06:37:44.999Z</time></trkpt><trkpt lat="45.17081656935902" lon="5.756657129733768"><ele>215.0</ele><time>2026-04-28T06:37:46.999Z</time></trkpt><trkpt lat="45.170741159086006" lon="5.756648903709198"><ele>215.2</ele><time>2026-04-28T06:37:47.999Z</time></trkpt><trkpt lat="45.17065691120279" lon="5.756572877058928"><ele>215.4</ele><time>2026-04-28T06:37:49.999Z</time></trkpt><trkpt lat="45.170594753563826" lon="5.756551546153318"><ele>215.60000000000002</ele><time>2026-04-28T06:37:50.999Z</time></trkpt><trkpt lat="45.17048979636466" lon="5.756504501597916"><ele>215.8</ele><time>2026-04-28T06:37:52.999Z</time></trkpt><trkpt lat="45.17037799194693" lon="5.756464118288762"><ele>216.0</ele><time>2026-04-28T06:37:54.999Z</time></trkpt><trkpt lat="45.17027391489513" lon="5.756413981282373"><ele>216.0</ele><time>2026-04-28T06:37:56.999Z</time></trkpt><trkpt lat="45.170160879737615" lon="5.756359011417978"><ele>216.0</ele><time>2026-04-28T06:37:58.999Z</time></trkpt><trkpt lat="45.1700527973035" lon="5.756311646360049"><ele>216.0</ele><time>2026-04-28T06:38:00.999Z</time></trkpt><trkpt lat="45.16994245231698" lon="5.756266344872871"><ele>216.0</ele><time>2026-04-28T06:38:02.999Z</time></trkpt><trkpt lat="45.169831524214615" lon="5.756238548635233"><ele>216.4</ele><time>2026-04-28T06:38:04.999Z</time></trkpt><trkpt lat="45.16973717828997" lon="5.756190510279469"><ele>216.8</ele><time>2026-04-28T06:38:06.999Z</time></trkpt><trkpt lat="45.16962309225992" lon="5.756170905282662"><ele>217.20000000000002</ele><time>2026-04-28T06:38:08.999Z</time></trkpt><trkpt lat="45.16955580949367" lon="5.756147682978198"><ele>217.60000000000002</ele><time>2026-04-28T06:38:09.999Z</time></trkpt><trkpt lat="45.16945878433594" lon="5.756094654405802"><ele>218.0</ele><time>2026-04-28T06:38:11.999Z</time></trkpt><trkpt lat="45.169365214087144" lon="5.756032233001644"><ele>218.25</ele><time>2026-04-28T06:38:13.999Z</time></trkpt><trkpt lat="45.169248732542215" lon="5.7559569566832085"><ele>218.5</ele><time>2026-04-28T06:38:15.999Z</time></trkpt><trkpt lat="45.169123469893435" lon="5.755931415408746"><ele>218.75</ele><time>2026-04-28T06:38:17.999Z</time></trkpt><trkpt lat="45.169036787494036" lon="5.755858215076183"><ele>219.0</ele><time>2026-04-28T06:38:20Z</time></trkpt><trkpt lat="45.168923886263954" lon="5.755793260386665"><ele>218.5</ele><time>2026-04-28T06:38:22Z</time></trkpt><trkpt lat="45.16884203086489" lon="5.755728765880107"><ele>218.0</ele><time>2026-04-28T06:38:25Z</time></trkpt><trkpt lat="45.16876011330299" lon="5.75569612717126"><ele>217.5</ele><time>2026-04-28T06:38:28Z</time></trkpt><trkpt lat="45.16868824743852" lon="5.7556400342450935"><ele>217.0</ele><time>2026-04-28T06:38:32Z</time></trkpt><trkpt lat="45.16862812246328" lon="5.755597606231952"><ele>216.5</ele><time>2026-04-28T06:38:35Z</time></trkpt><trkpt lat="45.16858293060466" lon="5.755496033383757"><ele>216.0</ele><time>2026-04-28T06:38:39Z</time></trkpt><trkpt lat="45.16855842761832" lon="5.755362492589757"><ele>216.0</ele><time>2026-04-28T06:38:41Z</time></trkpt><trkpt lat="45.16846396609209" lon="5.755294147058679"><ele>216.0</ele><time>2026-04-28T06:38:43Z</time></trkpt><trkpt lat="45.16836145180592" lon="5.755343923708631"><ele>216.0</ele><time>2026-04-28T06:38:45Z</time></trkpt><trkpt lat="45.16830304947167" lon="5.755447608945295"><ele>216.0</ele><time>2026-04-28T06:38:47Z</time></trkpt><trkpt lat="45.16831958887734" lon="5.755537354104837"><ele>216.0</ele><time>2026-04-28T06:38:48Z</time></trkpt><trkpt lat="45.16831150495768" lon="5.755641415445851"><ele>216.0</ele><time>2026-04-28T06:38:50Z</time></trkpt><trkpt lat="45.16825477646421" lon="5.755708419828706"><ele>216.20000000000002</ele><time>2026-04-28T06:38:52Z</time></trkpt><trkpt lat="45.16817865993078" lon="5.755797643852006"><ele>216.40000000000003</ele><time>2026-04-28T06:38:54Z</time></trkpt><trkpt lat="45.16809476568911" lon="5.755895178742467"><ele>216.6</ele><time>2026-04-28T06:38:56Z</time></trkpt><trkpt lat="45.168010157826224" lon="5.7560126590809055"><ele>216.8</ele><time>2026-04-28T06:38:58Z</time></trkpt><trkpt lat="45.16791451195395" lon="5.756110614821577"><ele>217.0</ele><time>2026-04-28T06:39:00Z</time></trkpt><trkpt lat="45.16786355031622" lon="5.756166229882429"><ele>216.99999999999997</ele><time>2026-04-28T06:39:01Z</time></trkpt><trkpt lat="45.16776706428767" lon="5.756271211782411"><ele>217.0</ele><time>2026-04-28T06:39:03Z</time></trkpt><trkpt lat="45.16771339333984" lon="5.756318247841838"><ele>217.0</ele><time>2026-04-28T06:39:04Z</time></trkpt><trkpt lat="45.167654245505254" lon="5.756364447552609"><ele>217.0</ele><time>2026-04-28T06:39:05Z</time></trkpt><trkpt lat="45.167587274140814" lon="5.75639901174023"><ele>216.99999999999997</ele><time>2026-04-28T06:39:06Z</time></trkpt><trkpt lat="45.16753444014169" lon="5.756453167283293"><ele>217.0</ele><time>2026-04-28T06:39:07Z</time></trkpt><trkpt lat="45.167478642186325" lon="5.756507511977365"><ele>217.0</ele><time>2026-04-28T06:39:08Z</time></trkpt><trkpt lat="45.16742498985829" lon="5.756558091226733"><ele>217.0</ele><time>2026-04-28T06:39:09Z</time></trkpt><trkpt lat="45.167371799945506" lon="5.75660946545592"><ele>217.0</ele><time>2026-04-28T06:39:10Z</time></trkpt><trkpt lat="45.16731837454865" lon="5.756660072102936"><ele>217.0</ele><time>2026-04-28T06:39:11Z</time></trkpt><trkpt lat="45.16726618640832" lon="5.756713796720089"><ele>217.0</ele><time>2026-04-28T06:39:12Z</time></trkpt><trkpt lat="45.16721370739893" lon="5.756765730594716"><ele>217.0</ele><time>2026-04-28T06:39:13Z</time></trkpt><trkpt lat="45.167160094056214" lon="5.756815954456926"><ele>217.0</ele><time>2026-04-28T06:39:14Z</time></trkpt><trkpt lat="45.16710776203847" lon="5.756869462660109"><ele>216.99999999999997</ele><time>2026-04-28T06:39:15Z</time></trkpt><trkpt lat="45.1670534317747" lon="5.756925513061279"><ele>217.0</ele><time>2026-04-28T06:39:16Z</time></trkpt><trkpt lat="45.16699979763432" lon="5.756982078551639"><ele>217.0</ele><time>2026-04-28T06:39:17Z</time></trkpt><trkpt lat="45.16694917085314" lon="5.757040447666401"><ele>217.0</ele><time>2026-04-28T06:39:18Z</time></trkpt><trkpt lat="45.16690084285072" lon="5.757098425413701"><ele>216.99999999999997</ele><time>2026-04-28T06:39:19Z</time></trkpt><trkpt lat="45.166815834442566" lon="5.7572017090436685"><ele>217.0</ele><time>2026-04-28T06:39:21Z</time></trkpt><trkpt lat="45.166737385512135" lon="5.757297713981669"><ele>217.0</ele><time>2026-04-28T06:39:23Z</time></trkpt><trkpt lat="45.16667309079047" lon="5.757366813019975"><ele>217.0</ele><time>2026-04-28T06:39:25Z</time></trkpt><trkpt lat="45.16661903997632" lon="5.757430817140763"><ele>217.0</ele><time>2026-04-28T06:39:43.999Z</time></trkpt><trkpt lat="45.16652848968508" lon="5.757525480159436"><ele>217.0</ele><time>2026-04-28T06:39:46.999Z</time></trkpt><trkpt lat="45.166433309619514" lon="5.757602410748933"><ele>217.0</ele><time>2026-04-28T06:39:48.999Z</time></trkpt><trkpt lat="45.16636002672146" lon="5.757704624402174"><ele>216.83333333333331</ele><time>2026-04-28T06:39:50.999Z</time></trkpt><trkpt lat="45.16630578244943" lon="5.757779160618052"><ele>216.66666666666666</ele><time>2026-04-28T06:39:52.999Z</time></trkpt><trkpt lat="45.166250745779024" lon="5.757837431501272"><ele>216.5</ele><time>2026-04-28T06:39:56.999Z</time></trkpt><trkpt lat="45.166181346620384" lon="5.757922205036219"><ele>216.33333333333331</ele><time>2026-04-28T06:39:59.999Z</time></trkpt><trkpt lat="45.16611191396352" lon="5.758009172178367"><ele>216.16666666666666</ele><time>2026-04-28T06:40:01.999Z</time></trkpt><trkpt lat="45.166027674557675" lon="5.758103587879828"><ele>216.0</ele><time>2026-04-28T06:40:03.999Z</time></trkpt><trkpt lat="45.16593927943774" lon="5.758209694186296"><ele>216.0</ele><time>2026-04-28T06:40:05.999Z</time></trkpt><trkpt lat="45.165847719401555" lon="5.758324432911635"><ele>216.0</ele><time>2026-04-28T06:40:07.999Z</time></trkpt><trkpt lat="45.16580230282453" lon="5.758389162095885"><ele>216.0</ele><time>2026-04-28T06:40:08.999Z</time></trkpt><trkpt lat="45.165753201880044" lon="5.758449418210704"><ele>216.0</ele><time>2026-04-28T06:40:09.999Z</time></trkpt><trkpt lat="45.165700385615125" lon="5.758510059684524"><ele>216.0</ele><time>2026-04-28T06:40:10.999Z</time></trkpt><trkpt lat="45.16564810630893" lon="5.758574813103627"><ele>216.0</ele><time>2026-04-28T06:40:11.999Z</time></trkpt><trkpt lat="45.165597699666506" lon="5.75864190036753"><ele>216.0</ele><time>2026-04-28T06:40:12.999Z</time></trkpt><trkpt lat="45.16554227792306" lon="5.758711210556477"><ele>216.0</ele><time>2026-04-28T06:40:13.999Z</time></trkpt><trkpt lat="45.16548869835968" lon="5.758780838996521"><ele>216.0</ele><time>2026-04-28T06:40:14.999Z</time></trkpt><trkpt lat="45.16542892744233" lon="5.758855233268763"><ele>216.0</ele><time>2026-04-28T06:40:15.999Z</time></trkpt><trkpt lat="45.16537564787242" lon="5.758931281672007"><ele>216.0</ele><time>2026-04-28T06:40:16.999Z</time></trkpt><trkpt lat="45.16531944891922" lon="5.7590084482906105"><ele>216.0</ele><time>2026-04-28T06:40:17.999Z</time></trkpt><trkpt lat="45.16526647263587" lon="5.759086750944708"><ele>216.0</ele><time>2026-04-28T06:40:18.999Z</time></trkpt><trkpt lat="45.16520726566151" lon="5.759168212688611"><ele>216.0</ele><time>2026-04-28T06:40:19.999Z</time></trkpt><trkpt lat="45.16514864004179" lon="5.759248850051865"><ele>216.0</ele><time>2026-04-28T06:40:20.999Z</time></trkpt><trkpt lat="45.16508585492237" lon="5.7593317698025"><ele>216.0</ele><time>2026-04-28T06:40:21.999Z</time></trkpt><trkpt lat="45.165023221151834" lon="5.7594178967495795"><ele>216.0</ele><time>2026-04-28T06:40:22.999Z</time></trkpt><trkpt lat="45.16495683601654" lon="5.759501209558489"><ele>216.0</ele><time>2026-04-28T06:40:23.999Z</time></trkpt><trkpt lat="45.16489081597122" lon="5.759577025545362"><ele>216.0</ele><time>2026-04-28T06:40:24.999Z</time></trkpt><trkpt lat="45.16482470905255" lon="5.759659731083579"><ele>216.0</ele><time>2026-04-28T06:40:26Z</time></trkpt><trkpt lat="45.16475808782899" lon="5.759740226405851"><ele>216.0</ele><time>2026-04-28T06:40:27Z</time></trkpt><trkpt lat="45.16468799261352" lon="5.759825160505349"><ele>216.0</ele><time>2026-04-28T06:40:28Z</time></trkpt><trkpt lat="45.164616139404764" lon="5.759900132211779"><ele>216.0</ele><time>2026-04-28T06:40:29Z</time></trkpt><trkpt lat="45.164541257894186" lon="5.759973204950616"><ele>216.0</ele><time>2026-04-28T06:40:30Z</time></trkpt><trkpt lat="45.16446659512195" lon="5.76005162564447"><ele>216.0</ele><time>2026-04-28T06:40:31Z</time></trkpt><trkpt lat="45.164390306748736" lon="5.760126342799155"><ele>216.00000000000003</ele><time>2026-04-28T06:40:32Z</time></trkpt><trkpt lat="45.1643151574901" lon="5.760199100040333"><ele>216.00000000000003</ele><time>2026-04-28T06:40:33Z</time></trkpt><trkpt lat="45.16423720622887" lon="5.760269731225593"><ele>216.0</ele><time>2026-04-28T06:40:34Z</time></trkpt><trkpt lat="45.16416295110026" lon="5.76034589479778"><ele>216.0</ele><time>2026-04-28T06:40:35Z</time></trkpt><trkpt lat="45.16408920077589" lon="5.760415143083449"><ele>216.5</ele><time>2026-04-28T06:40:36Z</time></trkpt><trkpt lat="45.16401382818909" lon="5.760481153547649"><ele>217.0</ele><time>2026-04-28T06:40:37Z</time></trkpt><trkpt lat="45.16394081622215" lon="5.7605469907399565"><ele>217.5</ele><time>2026-04-28T06:40:38Z</time></trkpt><trkpt lat="45.16386871003857" lon="5.7606139718233695"><ele>218.0</ele><time>2026-04-28T06:40:39Z</time></trkpt><trkpt lat="45.16379902667884" lon="5.76068007001448"><ele>218.5</ele><time>2026-04-28T06:40:40Z</time></trkpt><trkpt lat="45.16372639934243" lon="5.760745479911925"><ele>219.0</ele><time>2026-04-28T06:40:41Z</time></trkpt><trkpt lat="45.16366215042164" lon="5.760824343566624"><ele>219.0</ele><time>2026-04-28T06:40:42Z</time></trkpt><trkpt lat="45.1635973375136" lon="5.76089737654384"><ele>219.0</ele><time>2026-04-28T06:40:43Z</time></trkpt><trkpt lat="45.16353196271175" lon="5.760969155396808"><ele>219.0</ele><time>2026-04-28T06:40:44Z</time></trkpt><trkpt lat="45.16347425783025" lon="5.7610358913847906"><ele>219.0</ele><time>2026-04-28T06:40:45Z</time></trkpt><trkpt lat="45.1634137727349" lon="5.7611016046523185"><ele>219.0</ele><time>2026-04-28T06:40:46Z</time></trkpt><trkpt lat="45.16334281935855" lon="5.761169450836566"><ele>219.0</ele><time>2026-04-28T06:40:47Z</time></trkpt><trkpt lat="45.16327346553516" lon="5.76123306713351"><ele>219.0</ele><time>2026-04-28T06:40:48Z</time></trkpt><trkpt lat="45.163209179767144" lon="5.761299156190568"><ele>219.0</ele><time>2026-04-28T06:40:49Z</time></trkpt><trkpt lat="45.1631394160291" lon="5.76136463979244"><ele>219.0</ele><time>2026-04-28T06:40:50Z</time></trkpt><trkpt lat="45.16306930882873" lon="5.761426396452639"><ele>219.0</ele><time>2026-04-28T06:40:51Z</time></trkpt><trkpt lat="45.16300596828404" lon="5.76148981315775"><ele>219.0</ele><time>2026-04-28T06:40:52Z</time></trkpt><trkpt lat="45.16293753702029" lon="5.761552472454501"><ele>219.0</ele><time>2026-04-28T06:40:53Z</time></trkpt><trkpt lat="45.16287412547288" lon="5.761613487838363"><ele>219.0</ele><time>2026-04-28T06:40:54Z</time></trkpt><trkpt lat="45.16280731353852" lon="5.761670514176463"><ele>219.0</ele><time>2026-04-28T06:40:55Z</time></trkpt><trkpt lat="45.16274493461582" lon="5.761737180197349"><ele>219.0</ele><time>2026-04-28T06:40:56Z</time></trkpt><trkpt lat="45.16268224111388" lon="5.761804516092093"><ele>219.0</ele><time>2026-04-28T06:40:57Z</time></trkpt><trkpt lat="45.16261762565685" lon="5.761867282066491"><ele>219.0</ele><time>2026-04-28T06:40:58Z</time></trkpt><trkpt lat="45.162555983496226" lon="5.761926761275843"><ele>219.0</ele><time>2026-04-28T06:40:59Z</time></trkpt><trkpt lat="45.16249520568957" lon="5.761989652640164"><ele>219.0</ele><time>2026-04-28T06:41:00Z</time></trkpt><trkpt lat="45.1624329880244" lon="5.762052223980694"><ele>219.0</ele><time>2026-04-28T06:41:01Z</time></trkpt><trkpt lat="45.16237315424768" lon="5.76211506887157"><ele>219.0</ele><time>2026-04-28T06:41:02Z</time></trkpt><trkpt lat="45.16231091266162" lon="5.762172020105251"><ele>219.0</ele><time>2026-04-28T06:41:03Z</time></trkpt><trkpt lat="45.162250312174244" lon="5.762232256183912"><ele>219.0</ele><time>2026-04-28T06:41:04Z</time></trkpt><trkpt lat="45.16218376436413" lon="5.762296008739892"><ele>219.0</ele><time>2026-04-28T06:41:05Z</time></trkpt><trkpt lat="45.162139138581466" lon="5.762374341828381"><ele>219.0</ele><time>2026-04-28T06:41:06Z</time></trkpt><trkpt lat="45.16204591259861" lon="5.762407919347475"><ele>218.99999999999997</ele><time>2026-04-28T06:41:07Z</time></trkpt><trkpt lat="45.1619707438703" lon="5.762430266775577"><ele>218.99999999999997</ele><time>2026-04-28T06:41:08Z</time></trkpt><trkpt lat="45.16188722519959" lon="5.762440096291027"><ele>219.0</ele><time>2026-04-28T06:41:09Z</time></trkpt><trkpt lat="45.161822527382505" lon="5.7624388773434525"><ele>219.0</ele><time>2026-04-28T06:41:10Z</time></trkpt><trkpt lat="45.161737631722204" lon="5.762264756860797"><ele>219.0</ele><time>2026-04-28T06:41:11Z</time></trkpt><trkpt lat="45.16168164011713" lon="5.762218725947802"><ele>219.0</ele><time>2026-04-28T06:41:12Z</time></trkpt><trkpt lat="45.161613910122874" lon="5.762173045529214"><ele>219.0</ele><time>2026-04-28T06:41:13Z</time></trkpt><trkpt lat="45.16155343333181" lon="5.762131345472654"><ele>219.0</ele><time>2026-04-28T06:41:14Z</time></trkpt><trkpt lat="45.161489075396084" lon="5.762098588770961"><ele>219.0</ele><time>2026-04-28T06:41:15Z</time></trkpt><trkpt lat="45.16141784885701" lon="5.76206843060819"><ele>219.0</ele><time>2026-04-28T06:41:16Z</time></trkpt><trkpt lat="45.16136039453327" lon="5.761995158163492"><ele>219.0</ele><time>2026-04-28T06:41:17Z</time></trkpt><trkpt lat="45.16130196180146" lon="5.7619309149327345"><ele>218.85714285714286</ele><time>2026-04-28T06:41:18Z</time></trkpt><trkpt lat="45.16124079299137" lon="5.76187494792809"><ele>218.7142857142857</ele><time>2026-04-28T06:41:19Z</time></trkpt><trkpt lat="45.16117665828088" lon="5.761817684308659"><ele>218.57142857142856</ele><time>2026-04-28T06:41:20Z</time></trkpt><trkpt lat="45.161117546822226" lon="5.761759479297421"><ele>218.42857142857144</ele><time>2026-04-28T06:41:21Z</time></trkpt><trkpt lat="45.16105478204201" lon="5.761706770681563"><ele>218.28571428571428</ele><time>2026-04-28T06:41:22Z</time></trkpt><trkpt lat="45.16099260597802" lon="5.761647630747303"><ele>218.14285714285714</ele><time>2026-04-28T06:41:23Z</time></trkpt><trkpt lat="45.16093461216593" lon="5.76158385591312"><ele>218.0</ele><time>2026-04-28T06:41:24Z</time></trkpt><trkpt lat="45.16087406349709" lon="5.761528874442001"><ele>218.0</ele><time>2026-04-28T06:41:25Z</time></trkpt><trkpt lat="45.160813193012274" lon="5.7614761552065445"><ele>218.0</ele><time>2026-04-28T06:41:26Z</time></trkpt><trkpt lat="45.16075328087965" lon="5.761420399784137"><ele>218.0</ele><time>2026-04-28T06:41:27Z</time></trkpt><trkpt lat="45.160695083084114" lon="5.761364090205005"><ele>218.0</ele><time>2026-04-28T06:41:27.999Z</time></trkpt><trkpt lat="45.16063458629509" lon="5.7613093413174665"><ele>218.0</ele><time>2026-04-28T06:41:28.999Z</time></trkpt><trkpt lat="45.16058103211621" lon="5.761243060057347"><ele>218.0</ele><time>2026-04-28T06:41:29.999Z</time></trkpt><trkpt lat="45.1605264575961" lon="5.761188553662637"><ele>218.0</ele><time>2026-04-28T06:41:30.999Z</time></trkpt><trkpt lat="45.16051514154035" lon="5.761081644693705"><ele>218.0</ele><time>2026-04-28T06:41:31.999Z</time></trkpt><trkpt lat="45.16042553507818" lon="5.761071172306809"><ele>218.0</ele><time>2026-04-28T06:41:33.999Z</time></trkpt><trkpt lat="45.16033069432485" lon="5.761015486766519"><ele>218.0</ele><time>2026-04-28T06:41:35.999Z</time></trkpt><trkpt lat="45.16025479732388" lon="5.760913438535783"><ele>218.0</ele><time>2026-04-28T06:41:37.999Z</time></trkpt><trkpt lat="45.160184239658136" lon="5.760854953344003"><ele>218.0</ele><time>2026-04-28T06:41:40.999Z</time></trkpt><trkpt lat="45.160122027280174" lon="5.760796163897753"><ele>218.0</ele><time>2026-04-28T06:41:43.999Z</time></trkpt><trkpt lat="45.160063060201225" lon="5.760724590721702"><ele>218.0</ele><time>2026-04-28T06:41:45.999Z</time></trkpt><trkpt lat="45.159991844226404" lon="5.76062162686314"><ele>218.0</ele><time>2026-04-28T06:41:47.999Z</time></trkpt><trkpt lat="45.159904338891764" lon="5.760529218769458"><ele>218.0</ele><time>2026-04-28T06:41:49.999Z</time></trkpt><trkpt lat="45.159816167845705" lon="5.7604308872681615"><ele>218.0</ele><time>2026-04-28T06:41:51.999Z</time></trkpt><trkpt lat="45.15972962781756" lon="5.760324271535893"><ele>218.5</ele><time>2026-04-28T06:41:53.999Z</time></trkpt><trkpt lat="45.15964207116563" lon="5.76021509017019"><ele>219.0</ele><time>2026-04-28T06:41:55.999Z</time></trkpt><trkpt lat="45.1595491544363" lon="5.760113209262127"><ele>219.5</ele><time>2026-04-28T06:41:57.999Z</time></trkpt><trkpt lat="45.15948539862897" lon="5.759996090579044"><ele>220.0</ele><time>2026-04-28T06:41:59.999Z</time></trkpt><trkpt lat="45.15938359942758" lon="5.759894173536047"><ele>220.0</ele><time>2026-04-28T06:42:01.999Z</time></trkpt><trkpt lat="45.15928725243396" lon="5.759781402236538"><ele>220.0</ele><time>2026-04-28T06:42:03.999Z</time></trkpt><trkpt lat="45.15919533025775" lon="5.759671668066421"><ele>220.0</ele><time>2026-04-28T06:42:05.999Z</time></trkpt><trkpt lat="45.15909815068595" lon="5.759579424757727"><ele>220.0</ele><time>2026-04-28T06:42:07.999Z</time></trkpt><trkpt lat="45.159016455360714" lon="5.759496792252301"><ele>220.2</ele><time>2026-04-28T06:42:09.999Z</time></trkpt><trkpt lat="45.15892384373406" lon="5.759423854982782"><ele>220.4</ele><time>2026-04-28T06:42:11.999Z</time></trkpt><trkpt lat="45.158847250134464" lon="5.759333611439776"><ele>220.60000000000002</ele><time>2026-04-28T06:42:13.999Z</time></trkpt><trkpt lat="45.15879473352856" lon="5.759222472076711"><ele>220.8</ele><time>2026-04-28T06:42:15.999Z</time></trkpt><trkpt lat="45.15873613429535" lon="5.759098788000301"><ele>221.0</ele><time>2026-04-28T06:42:17.999Z</time></trkpt><trkpt lat="45.158725836291" lon="5.758982796040303"><ele>221.0</ele><time>2026-04-28T06:42:19.999Z</time></trkpt><trkpt lat="45.15865630518814" lon="5.758911501877416"><ele>221.00000000000003</ele><time>2026-04-28T06:42:23.999Z</time></trkpt><trkpt lat="45.158589979242144" lon="5.758985775366811"><ele>221.00000000000003</ele><time>2026-04-28T06:42:24.999Z</time></trkpt><trkpt lat="45.1585251650121" lon="5.758832948084602"><ele>221.0</ele><time>2026-04-28T06:42:26.999Z</time></trkpt><trkpt lat="45.158468613802896" lon="5.758706369406439"><ele>221.0</ele><time>2026-04-28T06:42:28.999Z</time></trkpt><trkpt lat="45.15839358472827" lon="5.75857979088535"><ele>220.5</ele><time>2026-04-28T06:42:30.999Z</time></trkpt><trkpt lat="45.15830793018988" lon="5.758466949877"><ele>220.0</ele><time>2026-04-28T06:42:33Z</time></trkpt><trkpt lat="45.15823182161924" lon="5.758339050430243"><ele>219.5</ele><time>2026-04-28T06:42:35Z</time></trkpt><trkpt lat="45.15815834298138" lon="5.758213472607398"><ele>219.0</ele><time>2026-04-28T06:42:37Z</time></trkpt><trkpt lat="45.15810634369018" lon="5.7580672581529235"><ele>218.5</ele><time>2026-04-28T06:42:39Z</time></trkpt><trkpt lat="45.158031765550916" lon="5.75793359507533"><ele>218.0</ele><time>2026-04-28T06:42:41Z</time></trkpt><trkpt lat="45.15794433614973" lon="5.757824986278941"><ele>217.5</ele><time>2026-04-28T06:42:43Z</time></trkpt><trkpt lat="45.157883808946686" lon="5.757675551608346"><ele>217.0</ele><time>2026-04-28T06:42:45Z</time></trkpt><trkpt lat="45.157805728465455" lon="5.757540437469761"><ele>216.83333333333331</ele><time>2026-04-28T06:42:47Z</time></trkpt><trkpt lat="45.157722972308754" lon="5.757404710264749"><ele>216.66666666666666</ele><time>2026-04-28T06:42:49Z</time></trkpt><trkpt lat="45.15765390308681" lon="5.757258791580911"><ele>216.5</ele><time>2026-04-28T06:42:51Z</time></trkpt><trkpt lat="45.157614302089264" lon="5.7571877321825475"><ele>216.33333333333331</ele><time>2026-04-28T06:42:52Z</time></trkpt><trkpt lat="45.1575710190464" lon="5.757120152242261"><ele>216.16666666666666</ele><time>2026-04-28T06:42:53Z</time></trkpt><trkpt lat="45.15753016548274" lon="5.757049892660482"><ele>216.0</ele><time>2026-04-28T06:42:54Z</time></trkpt><trkpt lat="45.157490910840025" lon="5.756979789977094"><ele>216.0</ele><time>2026-04-28T06:42:55Z</time></trkpt><trkpt lat="45.15744956692504" lon="5.756908609062962"><ele>216.0</ele><time>2026-04-28T06:42:56Z</time></trkpt><trkpt lat="45.15740881895976" lon="5.756837644615734"><ele>216.0</ele><time>2026-04-28T06:42:57Z</time></trkpt><trkpt lat="45.157367640516554" lon="5.756768060622755"><ele>216.0</ele><time>2026-04-28T06:42:58Z</time></trkpt><trkpt lat="45.157325412308616" lon="5.756696310961867"><ele>216.0</ele><time>2026-04-28T06:42:59Z</time></trkpt><trkpt lat="45.15728330536245" lon="5.756622382217253"><ele>216.0</ele><time>2026-04-28T06:43:00Z</time></trkpt><trkpt lat="45.157243114491585" lon="5.756552272455246"><ele>216.0</ele><time>2026-04-28T06:43:01Z</time></trkpt><trkpt lat="45.15720014017667" lon="5.756481747237664"><ele>216.8</ele><time>2026-04-28T06:43:02Z</time></trkpt><trkpt lat="45.157158758144185" lon="5.756414102447477"><ele>217.60000000000002</ele><time>2026-04-28T06:43:03Z</time></trkpt><trkpt lat="45.157117662303044" lon="5.756346339231298"><ele>218.4</ele><time>2026-04-28T06:43:04Z</time></trkpt><trkpt lat="45.15703584585505" lon="5.7562281909149355"><ele>219.2</ele><time>2026-04-28T06:43:06Z</time></trkpt><trkpt lat="45.15695773154312" lon="5.75610165903429"><ele>220.0</ele><time>2026-04-28T06:43:08Z</time></trkpt><trkpt lat="45.15688341902512" lon="5.7559781738588836"><ele>220.0</ele><time>2026-04-28T06:43:10Z</time></trkpt><trkpt lat="45.156816771559235" lon="5.755859959445297"><ele>220.0</ele><time>2026-04-28T06:43:12Z</time></trkpt><trkpt lat="45.156750599876815" lon="5.755737035386519"><ele>220.0</ele><time>2026-04-28T06:43:14Z</time></trkpt><trkpt lat="45.15667465006344" lon="5.7556199480316845"><ele>220.0</ele><time>2026-04-28T06:43:16Z</time></trkpt><trkpt lat="45.156636941238865" lon="5.755546608326247"><ele>220.0</ele><time>2026-04-28T06:43:17Z</time></trkpt><trkpt lat="45.1566049218726" lon="5.75546748714634"><ele>220.0</ele><time>2026-04-28T06:43:18Z</time></trkpt><trkpt lat="45.15653653335337" lon="5.755332171721988"><ele>220.0</ele><time>2026-04-28T06:43:20Z</time></trkpt><trkpt lat="45.15648380475111" lon="5.755184517219194"><ele>220.0</ele><time>2026-04-28T06:43:22Z</time></trkpt><trkpt lat="45.15639951628893" lon="5.755072158445974"><ele>220.0</ele><time>2026-04-28T06:43:24Z</time></trkpt><trkpt lat="45.156317272702424" lon="5.7549599072003526"><ele>220.2</ele><time>2026-04-28T06:43:26Z</time></trkpt><trkpt lat="45.15625109066079" lon="5.754829208740842"><ele>220.4</ele><time>2026-04-28T06:43:28Z</time></trkpt><trkpt lat="45.15621116735" lon="5.754758354663423"><ele>220.60000000000002</ele><time>2026-04-28T06:43:29Z</time></trkpt><trkpt lat="45.15613591305544" lon="5.754632278732403"><ele>220.8</ele><time>2026-04-28T06:43:31Z</time></trkpt><trkpt lat="45.156058405424595" lon="5.754503530683922"><ele>221.0</ele><time>2026-04-28T06:43:33Z</time></trkpt><trkpt lat="45.15597806061313" lon="5.75437664632803"><ele>221.25</ele><time>2026-04-28T06:43:34.999Z</time></trkpt><trkpt lat="45.155894170072095" lon="5.754247754482088"><ele>221.5</ele><time>2026-04-28T06:43:36.999Z</time></trkpt><trkpt lat="45.155815768263004" lon="5.754115423084201"><ele>221.75</ele><time>2026-04-28T06:43:38.999Z</time></trkpt><trkpt lat="45.15572448684922" lon="5.753997168823455"><ele>222.0</ele><time>2026-04-28T06:43:40.999Z</time></trkpt><trkpt lat="45.15564963667361" lon="5.753873264868183"><ele>222.0</ele><time>2026-04-28T06:43:42.999Z</time></trkpt><trkpt lat="45.155601667056175" lon="5.753791037435879"><ele>222.0</ele><time>2026-04-28T06:43:44.999Z</time></trkpt><trkpt lat="45.15552667376015" lon="5.753731543632425"><ele>222.0</ele><time>2026-04-28T06:44:26.999Z</time></trkpt><trkpt lat="45.15546894536578" lon="5.7536581899072266"><ele>222.0</ele><time>2026-04-28T06:44:28.999Z</time></trkpt><trkpt lat="45.155402808228196" lon="5.753556474361504"><ele>222.0</ele><time>2026-04-28T06:44:30.999Z</time></trkpt><trkpt lat="45.15532962533972" lon="5.753447677094468"><ele>222.0</ele><time>2026-04-28T06:44:32.999Z</time></trkpt><trkpt lat="45.15524913108622" lon="5.753336976316185"><ele>222.0</ele><time>2026-04-28T06:44:34.999Z</time></trkpt><trkpt lat="45.155167680335886" lon="5.753227075491196"><ele>222.0</ele><time>2026-04-28T06:44:36.999Z</time></trkpt><trkpt lat="45.15508276551392" lon="5.7531179545247815"><ele>222.0</ele><time>2026-04-28T06:44:39Z</time></trkpt><trkpt lat="45.15501315950415" lon="5.752987271732989"><ele>222.0</ele><time>2026-04-28T06:44:41Z</time></trkpt><trkpt lat="45.15493669401951" lon="5.752871595493594"><ele>222.0</ele><time>2026-04-28T06:44:43Z</time></trkpt><trkpt lat="45.154872454947984" lon="5.752827512224043"><ele>222.0</ele><time>2026-04-28T06:44:44Z</time></trkpt><trkpt lat="45.15478325321346" lon="5.752698556154254"><ele>222.0</ele><time>2026-04-28T06:44:46Z</time></trkpt><trkpt lat="45.15469629929117" lon="5.752575969737949"><ele>222.0</ele><time>2026-04-28T06:44:48Z</time></trkpt><trkpt lat="45.15464929135452" lon="5.752514560838716"><ele>222.0</ele><time>2026-04-28T06:44:49Z</time></trkpt><trkpt lat="45.15455815177972" lon="5.752394815580405"><ele>222.0</ele><time>2026-04-28T06:44:51Z</time></trkpt><trkpt lat="45.1544852370438" lon="5.752254472776151"><ele>222.0</ele><time>2026-04-28T06:44:53Z</time></trkpt><trkpt lat="45.154389753268354" lon="5.752144892579756"><ele>222.0</ele><time>2026-04-28T06:44:55Z</time></trkpt><trkpt lat="45.154294228924776" lon="5.752042824627302"><ele>222.0</ele><time>2026-04-28T06:44:57Z</time></trkpt><trkpt lat="45.154208090985684" lon="5.751913666922001"><ele>222.0</ele><time>2026-04-28T06:44:59Z</time></trkpt><trkpt lat="45.154161253050056" lon="5.751847767142281"><ele>222.0</ele><time>2026-04-28T06:45:00Z</time></trkpt><trkpt lat="45.15408568252354" lon="5.751719017788959"><ele>222.0</ele><time>2026-04-28T06:45:02Z</time></trkpt><trkpt lat="45.154043475608" lon="5.751651726224502"><ele>222.0</ele><time>2026-04-28T06:45:03Z</time></trkpt><trkpt lat="45.15396444988064" lon="5.751508365677722"><ele>222.0</ele><time>2026-04-28T06:45:05Z</time></trkpt><trkpt lat="45.15393190133095" lon="5.751427824873778"><ele>222.0</ele><time>2026-04-28T06:45:06Z</time></trkpt><trkpt lat="45.15390631924906" lon="5.751343551535987"><ele>222.28571428571428</ele><time>2026-04-28T06:45:07Z</time></trkpt><trkpt lat="45.153884654710744" lon="5.75125422180892"><ele>222.57142857142858</ele><time>2026-04-28T06:45:08Z</time></trkpt><trkpt lat="45.15386861547684" lon="5.7511602169009155"><ele>222.85714285714286</ele><time>2026-04-28T06:45:09Z</time></trkpt><trkpt lat="45.15386305890607" lon="5.751063124471121"><ele>223.14285714285714</ele><time>2026-04-28T06:45:10Z</time></trkpt><trkpt lat="45.15385717516274" lon="5.750972636981313"><ele>223.42857142857144</ele><time>2026-04-28T06:45:11Z</time></trkpt><trkpt lat="45.15384648542931" lon="5.750872120222658"><ele>223.71428571428572</ele><time>2026-04-28T06:45:12Z</time></trkpt><trkpt lat="45.15383378266792" lon="5.75077570999988"><ele>224.0</ele><time>2026-04-28T06:45:13Z</time></trkpt><trkpt lat="45.15381728258725" lon="5.750684286448794"><ele>224.0</ele><time>2026-04-28T06:45:14Z</time></trkpt><trkpt lat="45.153794999413535" lon="5.750592421844975"><ele>224.0</ele><time>2026-04-28T06:45:15Z</time></trkpt><trkpt lat="45.15376630514396" lon="5.750504477433064"><ele>224.0</ele><time>2026-04-28T06:45:16Z</time></trkpt><trkpt lat="45.15373833453946" lon="5.750417158761046"><ele>224.0</ele><time>2026-04-28T06:45:17Z</time></trkpt><trkpt lat="45.15370946556402" lon="5.750329732577352"><ele>224.0</ele><time>2026-04-28T06:45:18Z</time></trkpt><trkpt lat="45.153677659049265" lon="5.750243816748999"><ele>224.0</ele><time>2026-04-28T06:45:19Z</time></trkpt><trkpt lat="45.15364602175184" lon="5.750157508159715"><ele>224.0</ele><time>2026-04-28T06:45:20Z</time></trkpt><trkpt lat="45.15360409386989" lon="5.75007920525438"><ele>224.0</ele><time>2026-04-28T06:45:21Z</time></trkpt><trkpt lat="45.15356469718986" lon="5.749997538824747"><ele>224.0</ele><time>2026-04-28T06:45:22Z</time></trkpt><trkpt lat="45.153520613657854" lon="5.749925703377765"><ele>224.0</ele><time>2026-04-28T06:45:23Z</time></trkpt><trkpt lat="45.1534759778179" lon="5.74985685218528"><ele>224.0</ele><time>2026-04-28T06:45:24Z</time></trkpt><trkpt lat="45.15343060011438" lon="5.749777367536041"><ele>224.0</ele><time>2026-04-28T06:45:25Z</time></trkpt><trkpt lat="45.15337342602863" lon="5.74972013507499"><ele>224.0</ele><time>2026-04-28T06:45:26Z</time></trkpt><trkpt lat="45.153320291604516" lon="5.749651189445846"><ele>224.0</ele><time>2026-04-28T06:45:27Z</time></trkpt><trkpt lat="45.15327184166891" lon="5.749576450929819"><ele>224.0</ele><time>2026-04-28T06:45:28Z</time></trkpt><trkpt lat="45.15322594234581" lon="5.749501068574921"><ele>224.0</ele><time>2026-04-28T06:45:29Z</time></trkpt><trkpt lat="45.15318070216696" lon="5.749424676724358"><ele>224.0</ele><time>2026-04-28T06:45:30Z</time></trkpt><trkpt lat="45.15313677637652" lon="5.749350134762297"><ele>224.0</ele><time>2026-04-28T06:45:31Z</time></trkpt><trkpt lat="45.15309382443421" lon="5.749270698778945"><ele>224.0</ele><time>2026-04-28T06:45:32Z</time></trkpt><trkpt lat="45.15305630324253" lon="5.749183489887991"><ele>224.0</ele><time>2026-04-28T06:45:33Z</time></trkpt><trkpt lat="45.153018253102175" lon="5.749102202735241"><ele>224.0</ele><time>2026-04-28T06:45:34Z</time></trkpt><trkpt lat="45.15297482057213" lon="5.749031065382589"><ele>224.33333333333334</ele><time>2026-04-28T06:45:35Z</time></trkpt><trkpt lat="45.152902233567595" lon="5.748926144532916"><ele>224.66666666666669</ele><time>2026-04-28T06:45:37Z</time></trkpt><trkpt lat="45.15284487123317" lon="5.7488745074998775"><ele>225.0</ele><time>2026-04-28T06:45:39Z</time></trkpt><trkpt lat="45.15278477390763" lon="5.74879056112482"><ele>225.33333333333331</ele><time>2026-04-28T06:45:45.999Z</time></trkpt><trkpt lat="45.15274018092367" lon="5.74871764180979"><ele>225.66666666666666</ele><time>2026-04-28T06:45:48.999Z</time></trkpt><trkpt lat="45.15268293330262" lon="5.748679319412277"><ele>226.0</ele><time>2026-04-28T06:45:52.999Z</time></trkpt><trkpt lat="45.15255533669531" lon="5.748797693250764"><ele>226.0</ele><time>2026-04-28T06:46:01.999Z</time></trkpt><trkpt lat="45.15247241950027" lon="5.748845251226593"><ele>226.00000000000003</ele><time>2026-04-28T06:46:03.999Z</time></trkpt><trkpt lat="45.15238433711273" lon="5.7488956045659965"><ele>226.00000000000003</ele><time>2026-04-28T06:46:05.999Z</time></trkpt><trkpt lat="45.15229766311448" lon="5.748940324308274"><ele>226.0</ele><time>2026-04-28T06:46:07.999Z</time></trkpt><trkpt lat="45.15219781213234" lon="5.748983106498954"><ele>226.0</ele><time>2026-04-28T06:46:09.999Z</time></trkpt><trkpt lat="45.15211333525553" lon="5.749037787127491"><ele>226.20000000000002</ele><time>2026-04-28T06:46:11.999Z</time></trkpt><trkpt lat="45.15202487812945" lon="5.749096505293047"><ele>226.40000000000003</ele><time>2026-04-28T06:46:13.999Z</time></trkpt><trkpt lat="45.151924608187485" lon="5.749139424800075"><ele>226.6</ele><time>2026-04-28T06:46:15.999Z</time></trkpt><trkpt lat="45.1518255562451" lon="5.749180918917499"><ele>226.8</ele><time>2026-04-28T06:46:17.999Z</time></trkpt><trkpt lat="45.15173235983527" lon="5.74923658880665"><ele>227.0</ele><time>2026-04-28T06:46:19.999Z</time></trkpt><trkpt lat="45.15163408795487" lon="5.749274284147285"><ele>227.0</ele><time>2026-04-28T06:46:21.999Z</time></trkpt><trkpt lat="45.1515446673722" lon="5.74932509040425"><ele>227.0</ele><time>2026-04-28T06:46:23.999Z</time></trkpt><trkpt lat="45.15144727573318" lon="5.749364139137573"><ele>227.0</ele><time>2026-04-28T06:46:25.999Z</time></trkpt><trkpt lat="45.151353574311486" lon="5.749408574003312"><ele>227.0</ele><time>2026-04-28T06:46:27.999Z</time></trkpt><trkpt lat="45.15126128331996" lon="5.749446738504487"><ele>227.0</ele><time>2026-04-28T06:46:29.999Z</time></trkpt><trkpt lat="45.151170206151086" lon="5.749484322089551"><ele>228.6</ele><time>2026-04-28T06:46:31.999Z</time></trkpt><trkpt lat="45.15107870465501" lon="5.749520300274553"><ele>230.2</ele><time>2026-04-28T06:46:33.999Z</time></trkpt><trkpt lat="45.15098801312018" lon="5.749564612368035"><ele>231.8</ele><time>2026-04-28T06:46:35.999Z</time></trkpt><trkpt lat="45.15089793827973" lon="5.749605914104026"><ele>233.4</ele><time>2026-04-28T06:46:37.999Z</time></trkpt><trkpt lat="45.15081000208966" lon="5.749650652232767"><ele>235.0</ele><time>2026-04-28T06:46:39.999Z</time></trkpt><trkpt lat="45.15072038229825" lon="5.7496936155560405"><ele>234.99999999999997</ele><time>2026-04-28T06:46:41.999Z</time></trkpt><trkpt lat="45.15063846966728" lon="5.749739881588158"><ele>235.0</ele><time>2026-04-28T06:46:44Z</time></trkpt><trkpt lat="45.15055469316984" lon="5.749790200415313"><ele>235.0</ele><time>2026-04-28T06:46:46Z</time></trkpt><trkpt lat="45.150473956697724" lon="5.749839440768646"><ele>235.0</ele><time>2026-04-28T06:46:48Z</time></trkpt><trkpt lat="45.1503895269286" lon="5.74987974199275"><ele>234.99999999999997</ele><time>2026-04-28T06:46:50Z</time></trkpt><trkpt lat="45.15030130717549" lon="5.749918192390188"><ele>235.0</ele><time>2026-04-28T06:46:52Z</time></trkpt><trkpt lat="45.15020831249749" lon="5.749949292593339"><ele>235.0</ele><time>2026-04-28T06:46:54Z</time></trkpt><trkpt lat="45.150123095824775" lon="5.74998651228274"><ele>235.0</ele><time>2026-04-28T06:46:56Z</time></trkpt><trkpt lat="45.15002772769685" lon="5.750029588151833"><ele>235.0</ele><time>2026-04-28T06:46:58Z</time></trkpt><trkpt lat="45.14993510258545" lon="5.750082104289399"><ele>235.0</ele><time>2026-04-28T06:47:00Z</time></trkpt><trkpt lat="45.14984218488953" lon="5.750125175917748"><ele>235.0</ele><time>2026-04-28T06:47:02Z</time></trkpt><trkpt lat="45.14975539339218" lon="5.750182128797822"><ele>235.2</ele><time>2026-04-28T06:47:04Z</time></trkpt><trkpt lat="45.14965481487417" lon="5.750226366325194"><ele>235.4</ele><time>2026-04-28T06:47:06Z</time></trkpt><trkpt lat="45.1495536468672" lon="5.7502669817166785"><ele>235.60000000000002</ele><time>2026-04-28T06:47:08Z</time></trkpt><trkpt lat="45.149462143261566" lon="5.750321076642341"><ele>235.8</ele><time>2026-04-28T06:47:10Z</time></trkpt><trkpt lat="45.149370230685044" lon="5.750371721646169"><ele>236.0</ele><time>2026-04-28T06:47:12Z</time></trkpt><trkpt lat="45.14927771664767" lon="5.750410824953227"><ele>236.00000000000003</ele><time>2026-04-28T06:47:14Z</time></trkpt><trkpt lat="45.149189507764724" lon="5.750456023043212"><ele>236.0</ele><time>2026-04-28T06:47:16Z</time></trkpt><trkpt lat="45.14910088995913" lon="5.75049741070808"><ele>236.0</ele><time>2026-04-28T06:47:18Z</time></trkpt><trkpt lat="45.1490215015883" lon="5.750538830397591"><ele>236.0</ele><time>2026-04-28T06:47:20Z</time></trkpt><trkpt lat="45.148943928612205" lon="5.750569283336013"><ele>236.00000000000003</ele><time>2026-04-28T06:47:22Z</time></trkpt><trkpt lat="45.14887340445223" lon="5.7506043520412975"><ele>236.0</ele><time>2026-04-28T06:47:24Z</time></trkpt><trkpt lat="45.1488023609979" lon="5.750651727272397"><ele>236.57142857142856</ele><time>2026-04-28T06:47:26Z</time></trkpt><trkpt lat="45.14873718178615" lon="5.7506939955200345"><ele>237.14285714285717</ele><time>2026-04-28T06:47:28Z</time></trkpt><trkpt lat="45.14866794553299" lon="5.750723756298445"><ele>237.71428571428572</ele><time>2026-04-28T06:47:30Z</time></trkpt><trkpt lat="45.148596443744324" lon="5.7507531427197405"><ele>238.28571428571428</ele><time>2026-04-28T06:47:32Z</time></trkpt><trkpt lat="45.14853425038883" lon="5.7507847724732155"><ele>238.85714285714283</ele><time>2026-04-28T06:47:34Z</time></trkpt><trkpt lat="45.14846985482963" lon="5.750820046886326"><ele>239.42857142857144</ele><time>2026-04-28T06:47:36Z</time></trkpt><trkpt lat="45.1484076515103" lon="5.750857470523562"><ele>240.0</ele><time>2026-04-28T06:47:38Z</time></trkpt><trkpt lat="45.14833561250589" lon="5.750897442347715"><ele>240.0</ele><time>2026-04-28T06:47:40Z</time></trkpt><trkpt lat="45.14826586259281" lon="5.750931465773995"><ele>240.0</ele><time>2026-04-28T06:47:42Z</time></trkpt><trkpt lat="45.14819661245002" lon="5.750962453891016"><ele>240.0</ele><time>2026-04-28T06:47:44Z</time></trkpt><trkpt lat="45.14812746130968" lon="5.750996347635681"><ele>240.0</ele><time>2026-04-28T06:47:46Z</time></trkpt><trkpt lat="45.14805754166921" lon="5.751020718647991"><ele>240.0</ele><time>2026-04-28T06:47:47.999Z</time></trkpt><trkpt lat="45.147996692002984" lon="5.751057745502716"><ele>240.0</ele><time>2026-04-28T06:47:49.999Z</time></trkpt><trkpt lat="45.14793624419934" lon="5.751093022761004"><ele>240.0</ele><time>2026-04-28T06:47:51.999Z</time></trkpt><trkpt lat="45.147871324694066" lon="5.751131374158816"><ele>241.0</ele><time>2026-04-28T06:47:53.999Z</time></trkpt><trkpt lat="45.14780674066595" lon="5.75115939877763"><ele>242.0</ele><time>2026-04-28T06:47:55.999Z</time></trkpt><trkpt lat="45.147747474699436" lon="5.751191848823223"><ele>243.0</ele><time>2026-04-28T06:47:57.999Z</time></trkpt><trkpt lat="45.14768730490511" lon="5.751229908569369"><ele>244.0</ele><time>2026-04-28T06:47:59.999Z</time></trkpt><trkpt lat="45.14762292200925" lon="5.7512671578827"><ele>245.0</ele><time>2026-04-28T06:48:01.999Z</time></trkpt><trkpt lat="45.147558314224376" lon="5.751285723149584"><ele>246.0</ele><time>2026-04-28T06:48:03.999Z</time></trkpt><trkpt lat="45.14747854181092" lon="5.751324246392379"><ele>247.0</ele><time>2026-04-28T06:48:06.999Z</time></trkpt><trkpt lat="45.14740598197767" lon="5.751352651121722"><ele>247.71428571428572</ele><time>2026-04-28T06:48:08.999Z</time></trkpt><trkpt lat="45.147348640823225" lon="5.751397329085031"><ele>248.42857142857142</ele><time>2026-04-28T06:48:10.999Z</time></trkpt><trkpt lat="45.14729535834887" lon="5.751468982266148"><ele>249.14285714285714</ele><time>2026-04-28T06:48:12.999Z</time></trkpt><trkpt lat="45.14724068946663" lon="5.751524662680569"><ele>249.85714285714286</ele><time>2026-04-28T06:48:15.999Z</time></trkpt><trkpt lat="45.14720779042109" lon="5.751617571925385"><ele>250.57142857142856</ele><time>2026-04-28T06:48:18.999Z</time></trkpt><trkpt lat="45.147171811300886" lon="5.751700064309339"><ele>251.28571428571428</ele><time>2026-04-28T06:48:21.999Z</time></trkpt><trkpt lat="45.14726279524553" lon="5.751740870341188"><ele>252.0</ele><time>2026-04-28T06:52:41.999Z</time></trkpt><trkpt lat="45.14723264537814" lon="5.7518324027730445"><ele>251.83333333333334</ele><time>2026-04-28T06:52:45.999Z</time></trkpt><trkpt lat="45.147242044813865" lon="5.751960937388329"><ele>251.66666666666669</ele><time>2026-04-28T06:52:48.999Z</time></trkpt><trkpt lat="45.147234732158594" lon="5.752088093583453"><ele>251.5</ele><time>2026-04-28T06:52:51.999Z</time></trkpt><trkpt lat="45.14712847162462" lon="5.752164641788317"><ele>251.33333333333334</ele><time>2026-04-28T06:52:53.999Z</time></trkpt><trkpt lat="45.147116604946845" lon="5.752252436703087"><ele>251.16666666666669</ele><time>2026-04-28T06:52:55.999Z</time></trkpt><trkpt lat="45.147102527675344" lon="5.752360956715651"><ele>251.0</ele><time>2026-04-28T06:52:57.999Z</time></trkpt><trkpt lat="45.14708711572355" lon="5.752479765632488"><ele>251.0</ele><time>2026-04-28T06:52:59.999Z</time></trkpt><trkpt lat="45.147071462162465" lon="5.752609488286344"><ele>251.00000000000003</ele><time>2026-04-28T06:53:01.999Z</time></trkpt><trkpt lat="45.14705853929141" lon="5.752735868139115"><ele>251.00000000000003</ele><time>2026-04-28T06:53:03.999Z</time></trkpt><trkpt lat="45.147051397185685" lon="5.752878532398271"><ele>251.0</ele><time>2026-04-28T06:53:05.999Z</time></trkpt><trkpt lat="45.14705779246505" lon="5.753016529695382"><ele>251.0</ele><time>2026-04-28T06:53:07.999Z</time></trkpt><trkpt lat="45.147052678449604" lon="5.753122386507253"><ele>251.0</ele><time>2026-04-28T06:53:09.999Z</time></trkpt><trkpt lat="45.14703803751961" lon="5.753247934331139"><ele>251.00000000000003</ele><time>2026-04-28T06:53:11.999Z</time></trkpt><trkpt lat="45.1470348681094" lon="5.753394041130972"><ele>251.00000000000003</ele><time>2026-04-28T06:53:13.999Z</time></trkpt><trkpt lat="45.14701210316961" lon="5.75353047120472"><ele>251.0</ele><time>2026-04-28T06:53:15.999Z</time></trkpt><trkpt lat="45.14699951574864" lon="5.753672536623242"><ele>251.0</ele><time>2026-04-28T06:53:17.999Z</time></trkpt><trkpt lat="45.14697079238694" lon="5.753800086801697"><ele>251.60000000000002</ele><time>2026-04-28T06:53:19.999Z</time></trkpt><trkpt lat="45.14696662483121" lon="5.753940910642203"><ele>252.20000000000002</ele><time>2026-04-28T06:53:21.999Z</time></trkpt><trkpt lat="45.14696237676923" lon="5.754071334372502"><ele>252.79999999999998</ele><time>2026-04-28T06:53:23.999Z</time></trkpt><trkpt lat="45.1469554645511" lon="5.754199256530455"><ele>253.39999999999998</ele><time>2026-04-28T06:53:25.999Z</time></trkpt><trkpt lat="45.14694338424958" lon="5.754327915372676"><ele>254.0</ele><time>2026-04-28T06:53:27.999Z</time></trkpt><trkpt lat="45.14693043875077" lon="5.7544520373945796"><ele>254.16666666666669</ele><time>2026-04-28T06:53:29.999Z</time></trkpt><trkpt lat="45.14691733498187" lon="5.754577440397978"><ele>254.33333333333334</ele><time>2026-04-28T06:53:32Z</time></trkpt><trkpt lat="45.14691924187079" lon="5.754702408650861"><ele>254.5</ele><time>2026-04-28T06:53:33.999Z</time></trkpt><trkpt lat="45.1468887879996" lon="5.754801315850074"><ele>254.66666666666669</ele><time>2026-04-28T06:53:35.999Z</time></trkpt><trkpt lat="45.14687766664072" lon="5.754902201150599"><ele>254.83333333333334</ele><time>2026-04-28T06:53:37.999Z</time></trkpt><trkpt lat="45.14686866305345" lon="5.75500339641377"><ele>255.0</ele><time>2026-04-28T06:53:39.999Z</time></trkpt><trkpt lat="45.14686027697483" lon="5.755105078004414"><ele>255.0</ele><time>2026-04-28T06:53:41.999Z</time></trkpt><trkpt lat="45.146981890731844" lon="5.755198580173545"><ele>255.0</ele><time>2026-04-28T06:53:44.999Z</time></trkpt><trkpt lat="45.147063003601836" lon="5.755187919272774"><ele>255.0</ele><time>2026-04-28T06:53:46.999Z</time></trkpt><trkpt lat="45.14714288992476" lon="5.755178491170395"><ele>255.0</ele><time>2026-04-28T06:53:48.999Z</time></trkpt><trkpt lat="45.14720536067787" lon="5.7553073057054505"><ele>255.0</ele><time>2026-04-28T06:53:50.999Z</time></trkpt><trkpt lat="45.14717902078539" lon="5.755413057448531"><ele>255.2</ele><time>2026-04-28T06:53:51.999Z</time></trkpt><trkpt lat="45.14716610593412" lon="5.7555466526963555"><ele>255.4</ele><time>2026-04-28T06:53:53.999Z</time></trkpt><trkpt lat="45.14716493216022" lon="5.755667713697459"><ele>255.60000000000002</ele><time>2026-04-28T06:53:55.999Z</time></trkpt><trkpt lat="45.14716873691164" lon="5.755795657626577"><ele>255.8</ele><time>2026-04-28T06:53:57.999Z</time></trkpt><trkpt lat="45.14718249834652" lon="5.7559269324518265"><ele>256.0</ele><time>2026-04-28T06:53:59.999Z</time></trkpt><trkpt lat="45.147195099093274" lon="5.756061198588329"><ele>256.8</ele><time>2026-04-28T06:54:01.999Z</time></trkpt><trkpt lat="45.147216141464426" lon="5.756190251620477"><ele>257.6</ele><time>2026-04-28T06:54:03.999Z</time></trkpt><trkpt lat="45.14724197555926" lon="5.756313331108284"><ele>258.4</ele><time>2026-04-28T06:54:05.999Z</time></trkpt><trkpt lat="45.147261947646086" lon="5.756438647742347"><ele>259.2</ele><time>2026-04-28T06:54:07.999Z</time></trkpt><trkpt lat="45.147286263493555" lon="5.756566801793596"><ele>260.0</ele><time>2026-04-28T06:54:09.999Z</time></trkpt><trkpt lat="45.147313642295536" lon="5.756690242036392"><ele>260.0</ele><time>2026-04-28T06:54:11.999Z</time></trkpt><trkpt lat="45.147346040578945" lon="5.75680959432958"><ele>260.0</ele><time>2026-04-28T06:54:13.999Z</time></trkpt><trkpt lat="45.147373685684926" lon="5.756928927986634"><ele>260.0</ele><time>2026-04-28T06:54:15.999Z</time></trkpt><trkpt lat="45.1474061249047" lon="5.757050060589613"><ele>260.0</ele><time>2026-04-28T06:54:17.999Z</time></trkpt><trkpt lat="45.14743401922306" lon="5.757167767024788"><ele>260.0</ele><time>2026-04-28T06:54:19.999Z</time></trkpt><trkpt lat="45.147465701132944" lon="5.757284840650404"><ele>260.0</ele><time>2026-04-28T06:54:21.999Z</time></trkpt><trkpt lat="45.147490904832196" lon="5.757396758392167"><ele>260.0</ele><time>2026-04-28T06:54:23.999Z</time></trkpt><trkpt lat="45.1475238163826" lon="5.75750721521908"><ele>260.0</ele><time>2026-04-28T06:54:25.999Z</time></trkpt><trkpt lat="45.14755611806868" lon="5.757609263367636"><ele>260.0</ele><time>2026-04-28T06:54:27.999Z</time></trkpt><trkpt lat="45.147587143525826" lon="5.7577043874108575"><ele>260.0</ele><time>2026-04-28T06:54:29.999Z</time></trkpt><trkpt lat="45.147618479839295" lon="5.757795955823025"><ele>260.0</ele><time>2026-04-28T06:54:31.999Z</time></trkpt><trkpt lat="45.14765486503828" lon="5.757913628852597"><ele>260.0</ele><time>2026-04-28T06:54:34.999Z</time></trkpt><trkpt lat="45.147675900941316" lon="5.758040015859848"><ele>261.0</ele><time>2026-04-28T06:54:37.999Z</time></trkpt><trkpt lat="45.14771076842654" lon="5.758157538698558"><ele>262.0</ele><time>2026-04-28T06:54:40.999Z</time></trkpt><trkpt lat="45.14774977398385" lon="5.758256981881953"><ele>263.0</ele><time>2026-04-28T06:54:43.999Z</time></trkpt><trkpt lat="45.14778244233746" lon="5.7583695819347716"><ele>264.0</ele><time>2026-04-28T06:54:46.999Z</time></trkpt><trkpt lat="45.14780853614017" lon="5.7584690457272885"><ele>265.0</ele><time>2026-04-28T06:54:49.999Z</time></trkpt><trkpt lat="45.147836005220356" lon="5.758567756669546"><ele>266.0</ele><time>2026-04-28T06:54:52.999Z</time></trkpt><trkpt lat="45.14786218948016" lon="5.758668542007719"><ele>266.1666666666667</ele><time>2026-04-28T06:54:55.999Z</time></trkpt><trkpt lat="45.1478914283371" lon="5.758767753694852"><ele>266.33333333333337</ele><time>2026-04-28T06:54:58.999Z</time></trkpt><trkpt lat="45.147921254591054" lon="5.758876119701261"><ele>266.5</ele><time>2026-04-28T06:55:01.999Z</time></trkpt><trkpt lat="45.14794151526199" lon="5.758967169033614"><ele>266.6666666666667</ele><time>2026-04-28T06:55:04.999Z</time></trkpt><trkpt lat="45.147970037251525" lon="5.759084419457122"><ele>266.8333333333333</ele><time>2026-04-28T06:55:09Z</time></trkpt><trkpt lat="45.14800123824194" lon="5.7591843848602196"><ele>267.0</ele><time>2026-04-28T06:55:12Z</time></trkpt><trkpt lat="45.14801580176767" lon="5.759295176590366"><ele>267.6666666666667</ele><time>2026-04-28T06:55:15Z</time></trkpt><trkpt lat="45.14803551947729" lon="5.759382212044339"><ele>268.3333333333333</ele><time>2026-04-28T06:55:18Z</time></trkpt><trkpt lat="45.148060867841394" lon="5.7594995090800145"><ele>269.0</ele><time>2026-04-28T06:55:22Z</time></trkpt><trkpt lat="45.14808224367689" lon="5.7595993258565095"><ele>269.66666666666663</ele><time>2026-04-28T06:55:25Z</time></trkpt><trkpt lat="45.14810040145521" lon="5.759701618035941"><ele>270.3333333333333</ele><time>2026-04-28T06:55:28Z</time></trkpt><trkpt lat="45.14811690198875" lon="5.759797888263924"><ele>271.0</ele><time>2026-04-28T06:55:31Z</time></trkpt><trkpt lat="45.14815027039608" lon="5.759903989482903"><ele>271.0</ele><time>2026-04-28T06:55:34Z</time></trkpt><trkpt lat="45.14816350817655" lon="5.76000481010736"><ele>271.0</ele><time>2026-04-28T06:55:37Z</time></trkpt><trkpt lat="45.148163480727945" lon="5.760101645656487"><ele>271.0</ele><time>2026-04-28T06:55:40Z</time></trkpt><trkpt lat="45.14817694189809" lon="5.760205164721064"><ele>271.0</ele><time>2026-04-28T06:55:43Z</time></trkpt><trkpt lat="45.148190322920335" lon="5.76030773705714"><ele>271.0</ele><time>2026-04-28T06:55:46Z</time></trkpt><trkpt lat="45.1481963707274" lon="5.7604076246880025"><ele>271.0</ele><time>2026-04-28T06:55:49Z</time></trkpt><trkpt lat="45.14820311685955" lon="5.760515306611925"><ele>271.0</ele><time>2026-04-28T06:55:52Z</time></trkpt><trkpt lat="45.148219430699214" lon="5.760618490227782"><ele>271.42857142857144</ele><time>2026-04-28T06:55:55Z</time></trkpt><trkpt lat="45.14820680896517" lon="5.760729094457554"><ele>271.8571428571429</ele><time>2026-04-28T06:55:58Z</time></trkpt><trkpt lat="45.14822163578601" lon="5.7608232136676065"><ele>272.28571428571433</ele><time>2026-04-28T06:56:01Z</time></trkpt><trkpt lat="45.148212580545305" lon="5.7609263186614506"><ele>272.7142857142857</ele><time>2026-04-28T06:56:04Z</time></trkpt><trkpt lat="45.14822579999875" lon="5.76101822661917"><ele>273.14285714285717</ele><time>2026-04-28T06:56:07Z</time></trkpt><trkpt lat="45.148227254356385" lon="5.761119197144443"><ele>273.5714285714286</ele><time>2026-04-28T06:56:10Z</time></trkpt><trkpt lat="45.14821740403046" lon="5.761225926918553"><ele>274.0</ele><time>2026-04-28T06:56:13Z</time></trkpt><trkpt lat="45.148227035218525" lon="5.761341055565845"><ele>275.14285714285717</ele><time>2026-04-28T06:56:16Z</time></trkpt><trkpt lat="45.14820695511369" lon="5.761445079616181"><ele>276.2857142857143</ele><time>2026-04-28T06:56:19Z</time></trkpt><trkpt lat="45.148191500432134" lon="5.761539124341038"><ele>277.42857142857144</ele><time>2026-04-28T06:56:22Z</time></trkpt><trkpt lat="45.14817278690774" lon="5.761648200625235"><ele>278.57142857142856</ele><time>2026-04-28T06:56:26Z</time></trkpt><trkpt lat="45.148190793020085" lon="5.761746244061273"><ele>279.7142857142857</ele><time>2026-04-28T06:56:29Z</time></trkpt><trkpt lat="45.14817726298902" lon="5.761842784097164"><ele>280.8571428571429</ele><time>2026-04-28T06:56:32Z</time></trkpt><trkpt lat="45.14817771808316" lon="5.761950602403702"><ele>282.0</ele><time>2026-04-28T06:56:35Z</time></trkpt><trkpt lat="45.148168482283225" lon="5.762058783425662"><ele>282.0</ele><time>2026-04-28T06:56:39Z</time></trkpt><trkpt lat="45.14816057023052" lon="5.762156732615367"><ele>282.0</ele><time>2026-04-28T06:56:42.999Z</time></trkpt><trkpt lat="45.148159061387496" lon="5.762259749841417"><ele>282.0</ele><time>2026-04-28T06:56:45.999Z</time></trkpt><trkpt lat="45.14812701720894" lon="5.762337888685149"><ele>282.0</ele><time>2026-04-28T06:56:48.999Z</time></trkpt><trkpt lat="45.14811047847043" lon="5.762463180501735"><ele>282.0</ele><time>2026-04-28T06:56:52.999Z</time></trkpt><trkpt lat="45.14809546505999" lon="5.76256163573142"><ele>282.0</ele><time>2026-04-28T06:56:55.999Z</time></trkpt><trkpt lat="45.14807936529564" lon="5.762655456659779"><ele>282.0</ele><time>2026-04-28T06:56:58.999Z</time></trkpt><trkpt lat="45.14806114986981" lon="5.76275237349038"><ele>285.0</ele><time>2026-04-28T06:57:01.999Z</time></trkpt><trkpt lat="45.148037950803214" lon="5.762852340138492"><ele>288.0</ele><time>2026-04-28T06:57:04.999Z</time></trkpt><trkpt lat="45.148008263782465" lon="5.762949686735564"><ele>291.0</ele><time>2026-04-28T06:57:07.999Z</time></trkpt><trkpt lat="45.147971777040304" lon="5.76305209260923"><ele>294.0</ele><time>2026-04-28T06:57:10.999Z</time></trkpt><trkpt lat="45.14792840745628" lon="5.7631633365763415"><ele>297.0</ele><time>2026-04-28T06:57:14Z</time></trkpt><trkpt lat="45.14788543045987" lon="5.763265254654489"><ele>300.0</ele><time>2026-04-28T06:57:17Z</time></trkpt><trkpt lat="45.14784064270821" lon="5.763365549323119"><ele>300.0</ele><time>2026-04-28T06:57:20Z</time></trkpt><trkpt lat="45.147791082648716" lon="5.763462793917263"><ele>300.0</ele><time>2026-04-28T06:57:23Z</time></trkpt><trkpt lat="45.147726517258405" lon="5.763551492012112"><ele>300.0</ele><time>2026-04-28T06:57:26Z</time></trkpt><trkpt lat="45.1476804792682" lon="5.763658885551293"><ele>300.0</ele><time>2026-04-28T06:57:29Z</time></trkpt><trkpt lat="45.14762532838603" lon="5.7637394790256815"><ele>300.0</ele><time>2026-04-28T06:57:32Z</time></trkpt><trkpt lat="45.14755287302532" lon="5.763858642430703"><ele>302.5</ele><time>2026-04-28T06:57:36Z</time></trkpt><trkpt lat="45.147509831056865" lon="5.763966882038884"><ele>305.0</ele><time>2026-04-28T06:57:39Z</time></trkpt><trkpt lat="45.147466317446934" lon="5.76406362117356"><ele>307.5</ele><time>2026-04-28T06:57:42Z</time></trkpt><trkpt lat="45.14742164401421" lon="5.764162411855441"><ele>310.0</ele><time>2026-04-28T06:57:45Z</time></trkpt><trkpt lat="45.147389618600826" lon="5.764270441801369"><ele>312.5</ele><time>2026-04-28T06:57:48Z</time></trkpt><trkpt lat="45.147358894098744" lon="5.764379301183351"><ele>315.0</ele><time>2026-04-28T06:57:51Z</time></trkpt><trkpt lat="45.147328754562" lon="5.7644880466757265"><ele>315.0</ele><time>2026-04-28T06:57:54Z</time></trkpt><trkpt lat="45.14729672866421" lon="5.764589480819869"><ele>315.0</ele><time>2026-04-28T06:57:57Z</time></trkpt><trkpt lat="45.147271903541295" lon="5.764701594252515"><ele>315.0</ele><time>2026-04-28T06:58:00Z</time></trkpt><trkpt lat="45.14722581572574" lon="5.76476751727146"><ele>315.0</ele><time>2026-04-28T06:58:02Z</time></trkpt><trkpt lat="45.14716743043591" lon="5.764855792700212"><ele>315.0</ele><time>2026-04-28T06:58:05Z</time></trkpt><trkpt lat="45.14712591887717" lon="5.764939015418347"><ele>315.0</ele><time>2026-04-28T06:58:08Z</time></trkpt><trkpt lat="45.14704555258948" lon="5.7649872679652026"><ele>315.0</ele><time>2026-04-28T06:58:11Z</time></trkpt><trkpt lat="45.14697242658226" lon="5.765046122006603"><ele>315.0</ele><time>2026-04-28T06:58:14Z</time></trkpt><trkpt lat="45.14689898346246" lon="5.765099246212478"><ele>315.0</ele><time>2026-04-28T06:58:17Z</time></trkpt><trkpt lat="45.14682510414368" lon="5.765158352231785"><ele>315.0</ele><time>2026-04-28T06:58:20Z</time></trkpt><trkpt lat="45.14674807565595" lon="5.7652051257490555"><ele>315.0</ele><time>2026-04-28T06:58:23Z</time></trkpt><trkpt lat="45.14667654386248" lon="5.765266502935032"><ele>315.0</ele><time>2026-04-28T06:58:26Z</time></trkpt><trkpt lat="45.14660903386837" lon="5.7653380629285"><ele>316.1666666666667</ele><time>2026-04-28T06:58:29Z</time></trkpt><trkpt lat="45.14654418031265" lon="5.76542090906026"><ele>317.3333333333333</ele><time>2026-04-28T06:58:32Z</time></trkpt><trkpt lat="45.14648048977938" lon="5.765502712909954"><ele>318.5</ele><time>2026-04-28T06:58:35Z</time></trkpt><trkpt lat="45.1464125631254" lon="5.765590454420833"><ele>319.66666666666663</ele><time>2026-04-28T06:58:38Z</time></trkpt><trkpt lat="45.146345929880425" lon="5.765677440827066"><ele>320.8333333333333</ele><time>2026-04-28T06:58:41Z</time></trkpt><trkpt lat="45.14629878033702" lon="5.765738992220126"><ele>322.0</ele><time>2026-04-28T06:58:43Z</time></trkpt><trkpt lat="45.14625077618567" lon="5.765801659275551"><ele>322.0</ele><time>2026-04-28T06:58:45Z</time></trkpt><trkpt lat="45.146200715274944" lon="5.76586701128103"><ele>322.0</ele><time>2026-04-28T06:58:47Z</time></trkpt><trkpt lat="45.14614968145105" lon="5.7659336333442"><ele>322.0</ele><time>2026-04-28T06:58:49Z</time></trkpt><trkpt lat="45.14610276493587" lon="5.765994880578597"><ele>322.0</ele><time>2026-04-28T06:58:51Z</time></trkpt><trkpt lat="45.14603206167775" lon="5.7660880567570665"><ele>322.0</ele><time>2026-04-28T06:58:54Z</time></trkpt><trkpt lat="45.145969406251" lon="5.766176483345895"><ele>322.0</ele><time>2026-04-28T06:58:56.999Z</time></trkpt><trkpt lat="45.14590763563522" lon="5.766272825298082"><ele>323.0</ele><time>2026-04-28T06:58:59.999Z</time></trkpt><trkpt lat="45.14586648825128" lon="5.766343823861241"><ele>324.0</ele><time>2026-04-28T06:59:01.999Z</time></trkpt><trkpt lat="45.145823503084365" lon="5.766428687121548"><ele>325.0</ele><time>2026-04-28T06:59:03.999Z</time></trkpt><trkpt lat="45.14578427889969" lon="5.766521376120429"><ele>326.0</ele><time>2026-04-28T06:59:05.999Z</time></trkpt><trkpt lat="45.14574952963118" lon="5.766611234192993"><ele>327.0</ele><time>2026-04-28T06:59:07.999Z</time></trkpt><trkpt lat="45.1457291347454" lon="5.766708380417027"><ele>328.0</ele><time>2026-04-28T06:59:09.999Z</time></trkpt><trkpt lat="45.14569651893303" lon="5.766787301787682"><ele>329.0</ele><time>2026-04-28T06:59:11.999Z</time></trkpt><trkpt lat="45.14565359317343" lon="5.766870488144431"><ele>329.14285714285717</ele><time>2026-04-28T06:59:13.999Z</time></trkpt><trkpt lat="45.14562186891688" lon="5.766957254194558"><ele>329.2857142857143</ele><time>2026-04-28T06:59:15.999Z</time></trkpt><trkpt lat="45.145591094809" lon="5.767041421381559"><ele>329.42857142857144</ele><time>2026-04-28T06:59:17.999Z</time></trkpt><trkpt lat="45.14556083939708" lon="5.767124169779062"><ele>329.57142857142856</ele><time>2026-04-28T06:59:20Z</time></trkpt><trkpt lat="45.14553026033852" lon="5.767207803418928"><ele>329.7142857142857</ele><time>2026-04-28T06:59:22Z</time></trkpt><trkpt lat="45.145500196910426" lon="5.767290026919308"><ele>329.8571428571429</ele><time>2026-04-28T06:59:24Z</time></trkpt><trkpt lat="45.1454698772652" lon="5.767372951262904"><ele>330.0</ele><time>2026-04-28T06:59:26Z</time></trkpt><trkpt lat="45.14544037954658" lon="5.767453627450544"><ele>330.00000000000006</ele><time>2026-04-28T06:59:28Z</time></trkpt><trkpt lat="45.14540948146001" lon="5.767536722883174"><ele>330.0</ele><time>2026-04-28T06:59:30Z</time></trkpt><trkpt lat="45.145379209890315" lon="5.767617818624952"><ele>330.0</ele><time>2026-04-28T06:59:32Z</time></trkpt><trkpt lat="45.14534706489604" lon="5.767703932923272"><ele>330.0</ele><time>2026-04-28T06:59:34Z</time></trkpt><trkpt lat="45.14531521351911" lon="5.7677892606378425"><ele>330.0</ele><time>2026-04-28T06:59:36Z</time></trkpt><trkpt lat="45.14528353818606" lon="5.767871488809535"><ele>330.00000000000006</ele><time>2026-04-28T06:59:38Z</time></trkpt><trkpt lat="45.1452523193429" lon="5.767951632075224"><ele>330.0</ele><time>2026-04-28T06:59:40Z</time></trkpt><trkpt lat="45.14521845932793" lon="5.76803497804175"><ele>330.8571428571429</ele><time>2026-04-28T06:59:42Z</time></trkpt><trkpt lat="45.14518359794039" lon="5.768117835145413"><ele>331.7142857142857</ele><time>2026-04-28T06:59:44Z</time></trkpt><trkpt lat="45.145162176098786" lon="5.768211661940131"><ele>332.57142857142856</ele><time>2026-04-28T06:59:46Z</time></trkpt><trkpt lat="45.14510835778124" lon="5.768276189097037"><ele>333.42857142857144</ele><time>2026-04-28T06:59:48Z</time></trkpt><trkpt lat="45.1450689462073" lon="5.7683564660394495"><ele>334.2857142857143</ele><time>2026-04-28T06:59:50Z</time></trkpt><trkpt lat="45.1450259711594" lon="5.768438303759417"><ele>335.14285714285717</ele><time>2026-04-28T06:59:52Z</time></trkpt><trkpt lat="45.14497660336267" lon="5.768506967364494"><ele>336.0</ele><time>2026-04-28T06:59:54Z</time></trkpt><trkpt lat="45.144938410905034" lon="5.76858381653481"><ele>336.6666666666667</ele><time>2026-04-28T06:59:56Z</time></trkpt><trkpt lat="45.14489730165326" lon="5.768658796404567"><ele>337.3333333333333</ele><time>2026-04-28T06:59:58Z</time></trkpt><trkpt lat="45.144851601355136" lon="5.768724634286301"><ele>338.0</ele><time>2026-04-28T07:00:00Z</time></trkpt><trkpt lat="45.14478686476601" lon="5.768816548083753"><ele>338.66666666666663</ele><time>2026-04-28T07:00:03Z</time></trkpt><trkpt lat="45.14472466090717" lon="5.768902462219672"><ele>339.3333333333333</ele><time>2026-04-28T07:00:06Z</time></trkpt><trkpt lat="45.14469354342979" lon="5.76898381859418"><ele>340.0</ele><time>2026-04-28T07:00:08Z</time></trkpt><trkpt lat="45.14462629248575" lon="5.7690557060163865"><ele>340.0</ele><time>2026-04-28T07:00:11Z</time></trkpt><trkpt lat="45.14458939740489" lon="5.769136826945449"><ele>340.0</ele><time>2026-04-28T07:00:13Z</time></trkpt><trkpt lat="45.144527336305806" lon="5.7691900512493195"><ele>340.0</ele><time>2026-04-28T07:00:15Z</time></trkpt><trkpt lat="45.14447387976927" lon="5.769262523666752"><ele>340.0</ele><time>2026-04-28T07:00:17Z</time></trkpt><trkpt lat="45.144432230468375" lon="5.769349657995545"><ele>340.0</ele><time>2026-04-28T07:00:19Z</time></trkpt><trkpt lat="45.14437183011758" lon="5.7693954173629525"><ele>340.0</ele><time>2026-04-28T07:00:21Z</time></trkpt><trkpt lat="45.14431989588008" lon="5.769460634414678"><ele>340.0</ele><time>2026-04-28T07:00:23Z</time></trkpt><trkpt lat="45.144257938571904" lon="5.769532565015087"><ele>341.3333333333333</ele><time>2026-04-28T07:00:25Z</time></trkpt><trkpt lat="45.14418363314497" lon="5.7695609613921155"><ele>342.66666666666663</ele><time>2026-04-28T07:00:27Z</time></trkpt><trkpt lat="45.144118741036145" lon="5.769602528598544"><ele>344.0</ele><time>2026-04-28T07:00:29Z</time></trkpt><trkpt lat="45.14404187326909" lon="5.769647112408684"><ele>345.3333333333333</ele><time>2026-04-28T07:00:31Z</time></trkpt><trkpt lat="45.14396589081567" lon="5.769686325652156"><ele>346.6666666666667</ele><time>2026-04-28T07:00:33Z</time></trkpt><trkpt lat="45.143875977185296" lon="5.7697489815496805"><ele>348.0</ele><time>2026-04-28T07:00:35Z</time></trkpt><trkpt lat="45.14377631512282" lon="5.7697735484374215"><ele>348.0</ele><time>2026-04-28T07:00:37Z</time></trkpt><trkpt lat="45.14367269836986" lon="5.769788915135479"><ele>348.0</ele><time>2026-04-28T07:00:39Z</time></trkpt><trkpt lat="45.14357092714598" lon="5.769785300200183"><ele>348.0</ele><time>2026-04-28T07:00:41Z</time></trkpt><trkpt lat="45.143477249169386" lon="5.7697914472548515"><ele>348.0</ele><time>2026-04-28T07:00:43Z</time></trkpt><trkpt lat="45.14337681895863" lon="5.769797105693234"><ele>348.0</ele><time>2026-04-28T07:00:45Z</time></trkpt><trkpt lat="45.143274170166954" lon="5.769786254957616"><ele>348.4</ele><time>2026-04-28T07:00:47Z</time></trkpt><trkpt lat="45.1431797368606" lon="5.769760879234196"><ele>348.79999999999995</ele><time>2026-04-28T07:00:49Z</time></trkpt><trkpt lat="45.1430852970546" lon="5.769724959551156"><ele>349.2</ele><time>2026-04-28T07:00:51Z</time></trkpt><trkpt lat="45.14298379745555" lon="5.769687917564982"><ele>349.6</ele><time>2026-04-28T07:00:52.999Z</time></trkpt><trkpt lat="45.142899785703285" lon="5.7696494011490795"><ele>350.0</ele><time>2026-04-28T07:00:54.999Z</time></trkpt><trkpt lat="45.1427913705624" lon="5.769652801509953"><ele>350.0</ele><time>2026-04-28T07:00:56.999Z</time></trkpt><trkpt lat="45.14269398813635" lon="5.769625577796704"><ele>350.0</ele><time>2026-04-28T07:00:58.999Z</time></trkpt><trkpt lat="45.14259130232792" lon="5.7696293773274085"><ele>350.0</ele><time>2026-04-28T07:01:00.999Z</time></trkpt><trkpt lat="45.14248566908438" lon="5.769646583272539"><ele>350.0</ele><time>2026-04-28T07:01:02.999Z</time></trkpt><trkpt lat="45.14238131944464" lon="5.76966936190736"><ele>350.0</ele><time>2026-04-28T07:01:04.999Z</time></trkpt><trkpt lat="45.142284412243285" lon="5.769666648551498"><ele>350.2</ele><time>2026-04-28T07:01:06.999Z</time></trkpt><trkpt lat="45.142179617949424" lon="5.76967496007938"><ele>350.4</ele><time>2026-04-28T07:01:08.999Z</time></trkpt><trkpt lat="45.142065716032114" lon="5.769685636252612"><ele>350.6</ele><time>2026-04-28T07:01:10.999Z</time></trkpt><trkpt lat="45.14197896849543" lon="5.769690115136316"><ele>350.8</ele><time>2026-04-28T07:01:12.999Z</time></trkpt><trkpt lat="45.141888574427334" lon="5.769708378801127"><ele>351.0</ele><time>2026-04-28T07:01:14.999Z</time></trkpt><trkpt lat="45.14179631708198" lon="5.769731859094736"><ele>351.0</ele><time>2026-04-28T07:01:16.999Z</time></trkpt><trkpt lat="45.14170322928317" lon="5.769726860865575"><ele>351.0</ele><time>2026-04-28T07:01:18.999Z</time></trkpt><trkpt lat="45.141614317700565" lon="5.769716324952289"><ele>351.0</ele><time>2026-04-28T07:01:20.999Z</time></trkpt><trkpt lat="45.14152076116413" lon="5.769708024990057"><ele>351.0</ele><time>2026-04-28T07:01:22.999Z</time></trkpt><trkpt lat="45.14143829046074" lon="5.769715189377905"><ele>351.0</ele><time>2026-04-28T07:01:24.999Z</time></trkpt><trkpt lat="45.141353294609694" lon="5.769715363790208"><ele>351.0</ele><time>2026-04-28T07:01:27Z</time></trkpt><trkpt lat="45.141258760924096" lon="5.769731125782954"><ele>350.1666666666667</ele><time>2026-04-28T07:01:29Z</time></trkpt><trkpt lat="45.14117160319145" lon="5.769722163652015"><ele>349.3333333333333</ele><time>2026-04-28T07:01:31Z</time></trkpt><trkpt lat="45.1410888236781" lon="5.769722286251148"><ele>348.5</ele><time>2026-04-28T07:01:33Z</time></trkpt><trkpt lat="45.14100006548038" lon="5.769724461364192"><ele>347.66666666666663</ele><time>2026-04-28T07:01:35Z</time></trkpt><trkpt lat="45.140909369713675" lon="5.769728501845843"><ele>346.8333333333333</ele><time>2026-04-28T07:01:37Z</time></trkpt><trkpt lat="45.1408247780977" lon="5.769739249736088"><ele>346.0</ele><time>2026-04-28T07:01:39Z</time></trkpt><trkpt lat="45.140731140878685" lon="5.7697123944291295"><ele>346.16666666666663</ele><time>2026-04-28T07:01:41Z</time></trkpt><trkpt lat="45.140645563113914" lon="5.769716719600449"><ele>346.3333333333333</ele><time>2026-04-28T07:01:43Z</time></trkpt><trkpt lat="45.140559053075485" lon="5.769722350049406"><ele>346.5</ele><time>2026-04-28T07:01:45Z</time></trkpt><trkpt lat="45.140468177288106" lon="5.769719604599551"><ele>346.6666666666667</ele><time>2026-04-28T07:01:47Z</time></trkpt><trkpt lat="45.140375930121316" lon="5.769721113336367"><ele>346.83333333333337</ele><time>2026-04-28T07:01:49Z</time></trkpt><trkpt lat="45.140290092574794" lon="5.769722258386277"><ele>347.0</ele><time>2026-04-28T07:01:51Z</time></trkpt><trkpt lat="45.14020713314941" lon="5.769717449886412"><ele>347.0</ele><time>2026-04-28T07:01:53Z</time></trkpt><trkpt lat="45.1401197714334" lon="5.769720187192219"><ele>347.0</ele><time>2026-04-28T07:01:55Z</time></trkpt><trkpt lat="45.140028132570166" lon="5.769703714781852"><ele>347.0</ele><time>2026-04-28T07:01:57Z</time></trkpt><trkpt lat="45.13994090937362" lon="5.769676480965948"><ele>347.0</ele><time>2026-04-28T07:01:59Z</time></trkpt><trkpt lat="45.13986231618114" lon="5.769648711566782"><ele>347.0</ele><time>2026-04-28T07:02:01Z</time></trkpt><trkpt lat="45.13977702729794" lon="5.7696394652580265"><ele>347.0</ele><time>2026-04-28T07:02:03Z</time></trkpt><trkpt lat="45.139692710741365" lon="5.7696338121425725"><ele>347.5</ele><time>2026-04-28T07:02:05Z</time></trkpt><trkpt lat="45.139605181014964" lon="5.769629303602697"><ele>348.0</ele><time>2026-04-28T07:02:07Z</time></trkpt><trkpt lat="45.13951463936642" lon="5.7696265285326245"><ele>348.5</ele><time>2026-04-28T07:02:09Z</time></trkpt><trkpt lat="45.13942931083496" lon="5.769629517441589"><ele>349.0</ele><time>2026-04-28T07:02:11Z</time></trkpt><trkpt lat="45.13934747390712" lon="5.76961666950376"><ele>349.5</ele><time>2026-04-28T07:02:13Z</time></trkpt><trkpt lat="45.13926554576018" lon="5.76961422053751"><ele>350.0</ele><time>2026-04-28T07:02:15Z</time></trkpt><trkpt lat="45.139191313326826" lon="5.769585580921723"><ele>350.0</ele><time>2026-04-28T07:02:17Z</time></trkpt><trkpt lat="45.13911056694978" lon="5.76959792224761"><ele>350.0</ele><time>2026-04-28T07:02:19Z</time></trkpt><trkpt lat="45.13903609375845" lon="5.769572970656043"><ele>350.0</ele><time>2026-04-28T07:02:21Z</time></trkpt><trkpt lat="45.1389538388161" lon="5.769563998575568"><ele>350.0</ele><time>2026-04-28T07:02:23Z</time></trkpt><trkpt lat="45.13887833725688" lon="5.769559717557521"><ele>350.0</ele><time>2026-04-28T07:02:25Z</time></trkpt><trkpt lat="45.138803420840524" lon="5.769520263071842"><ele>350.0</ele><time>2026-04-28T07:02:27Z</time></trkpt><trkpt lat="45.13872292623053" lon="5.769525688657824"><ele>350.4</ele><time>2026-04-28T07:02:29Z</time></trkpt><trkpt lat="45.138639503641826" lon="5.769526445122717"><ele>350.8</ele><time>2026-04-28T07:02:31Z</time></trkpt><trkpt lat="45.138551473899625" lon="5.769529942012228"><ele>351.20000000000005</ele><time>2026-04-28T07:02:33Z</time></trkpt><trkpt lat="45.13845228066622" lon="5.769547481718988"><ele>351.6</ele><time>2026-04-28T07:02:35Z</time></trkpt><trkpt lat="45.13836319009235" lon="5.769563351205751"><ele>352.0</ele><time>2026-04-28T07:02:37Z</time></trkpt><trkpt lat="45.138269310709674" lon="5.769563512096229"><ele>352.6</ele><time>2026-04-28T07:02:39Z</time></trkpt><trkpt lat="45.13817902859047" lon="5.769575458971905"><ele>353.20000000000005</ele><time>2026-04-28T07:02:41Z</time></trkpt><trkpt lat="45.13808592701899" lon="5.769591560304991"><ele>353.8</ele><time>2026-04-28T07:02:43Z</time></trkpt><trkpt lat="45.13798938139782" lon="5.769597809786067"><ele>354.4</ele><time>2026-04-28T07:02:45Z</time></trkpt><trkpt lat="45.13789402949579" lon="5.769608604726486"><ele>355.0</ele><time>2026-04-28T07:02:47Z</time></trkpt><trkpt lat="45.13779952948655" lon="5.769612992177503"><ele>355.0</ele><time>2026-04-28T07:02:48.999Z</time></trkpt><trkpt lat="45.13771083090541" lon="5.769618142600448"><ele>355.0</ele><time>2026-04-28T07:02:50.999Z</time></trkpt><trkpt lat="45.13761804066943" lon="5.76963585491633"><ele>355.0</ele><time>2026-04-28T07:02:52.999Z</time></trkpt><trkpt lat="45.137526461507775" lon="5.7696393389333105"><ele>355.0</ele><time>2026-04-28T07:02:54.999Z</time></trkpt><trkpt lat="45.13742515617913" lon="5.769636528160681"><ele>355.0</ele><time>2026-04-28T07:02:56.999Z</time></trkpt><trkpt lat="45.137338875181975" lon="5.769656493496586"><ele>355.16666666666663</ele><time>2026-04-28T07:02:58.999Z</time></trkpt><trkpt lat="45.13725188823507" lon="5.769671695992821"><ele>355.3333333333333</ele><time>2026-04-28T07:03:00.999Z</time></trkpt><trkpt lat="45.13716110631716" lon="5.769678513839237"><ele>355.5</ele><time>2026-04-28T07:03:02.999Z</time></trkpt><trkpt lat="45.13707227481237" lon="5.769687058328317"><ele>355.6666666666667</ele><time>2026-04-28T07:03:04.999Z</time></trkpt><trkpt lat="45.13698500881121" lon="5.7696965450668385"><ele>355.83333333333337</ele><time>2026-04-28T07:03:06.999Z</time></trkpt><trkpt lat="45.13689299288696" lon="5.769689710584053"><ele>356.0</ele><time>2026-04-28T07:03:08.999Z</time></trkpt><trkpt lat="45.13679668255794" lon="5.769697476318045"><ele>356.0</ele><time>2026-04-28T07:03:10.999Z</time></trkpt><trkpt lat="45.13670684133525" lon="5.769717150833041"><ele>356.0</ele><time>2026-04-28T07:03:12.999Z</time></trkpt><trkpt lat="45.13662321006725" lon="5.769768001498557"><ele>356.0</ele><time>2026-04-28T07:03:14.999Z</time></trkpt><trkpt lat="45.136546954223554" lon="5.769823645539254"><ele>356.0</ele><time>2026-04-28T07:03:16.999Z</time></trkpt><trkpt lat="45.1365076244972" lon="5.769923364612903"><ele>356.0</ele><time>2026-04-28T07:03:18.999Z</time></trkpt><trkpt lat="45.136449886645174" lon="5.770012579790798"><ele>356.0</ele><time>2026-04-28T07:03:20.999Z</time></trkpt><trkpt lat="45.13638632919022" lon="5.770100491540982"><ele>356.6</ele><time>2026-04-28T07:03:22.999Z</time></trkpt><trkpt lat="45.13632565023497" lon="5.770194020932832"><ele>357.20000000000005</ele><time>2026-04-28T07:03:24.999Z</time></trkpt><trkpt lat="45.13626505729761" lon="5.770289742353643"><ele>357.79999999999995</ele><time>2026-04-28T07:03:26.999Z</time></trkpt><trkpt lat="45.1362046048402" lon="5.770384352944962"><ele>358.4</ele><time>2026-04-28T07:03:28.999Z</time></trkpt><trkpt lat="45.13613030537199" lon="5.770459178807655"><ele>359.0</ele><time>2026-04-28T07:03:30.999Z</time></trkpt><trkpt lat="45.13607392457926" lon="5.770562886177195"><ele>359.0</ele><time>2026-04-28T07:03:33Z</time></trkpt><trkpt lat="45.136013536048026" lon="5.770658720235139"><ele>359.0</ele><time>2026-04-28T07:03:35Z</time></trkpt><trkpt lat="45.135950495758145" lon="5.770755766956938"><ele>359.0</ele><time>2026-04-28T07:03:37Z</time></trkpt><trkpt lat="45.135896292170514" lon="5.7708523704635475"><ele>359.0</ele><time>2026-04-28T07:03:39Z</time></trkpt><trkpt lat="45.135841271586216" lon="5.770942232988625"><ele>359.0</ele><time>2026-04-28T07:03:41Z</time></trkpt><trkpt lat="45.13577552669872" lon="5.771011709401309"><ele>359.0</ele><time>2026-04-28T07:03:43Z</time></trkpt><trkpt lat="45.13571724223633" lon="5.7711040629395995"><ele>359.5</ele><time>2026-04-28T07:03:45Z</time></trkpt><trkpt lat="45.1356788606854" lon="5.771215006556375"><ele>360.0</ele><time>2026-04-28T07:03:47Z</time></trkpt><trkpt lat="45.135637153318264" lon="5.7713135692698785"><ele>360.5</ele><time>2026-04-28T07:03:49Z</time></trkpt><trkpt lat="45.13559655520461" lon="5.7714166341927715"><ele>361.0</ele><time>2026-04-28T07:03:51Z</time></trkpt><trkpt lat="45.135515961464186" lon="5.771471559522162"><ele>361.5</ele><time>2026-04-28T07:03:53Z</time></trkpt><trkpt lat="45.135420640479886" lon="5.771476023861295"><ele>362.0</ele><time>2026-04-28T07:03:55Z</time></trkpt><trkpt lat="45.13532449079249" lon="5.77142960985459"><ele>362.0</ele><time>2026-04-28T07:03:57Z</time></trkpt><trkpt lat="45.13524371799322" lon="5.771342120076609"><ele>362.0</ele><time>2026-04-28T07:03:59Z</time></trkpt><trkpt lat="45.13516078226621" lon="5.771244841500893"><ele>362.0</ele><time>2026-04-28T07:04:01Z</time></trkpt><trkpt lat="45.13506500917832" lon="5.7711543010280195"><ele>362.0</ele><time>2026-04-28T07:04:03Z</time></trkpt><trkpt lat="45.13495252553195" lon="5.771087129616523"><ele>362.0</ele><time>2026-04-28T07:04:05Z</time></trkpt><trkpt lat="45.13483782475956" lon="5.771022254081454"><ele>361.75</ele><time>2026-04-28T07:04:07Z</time></trkpt><trkpt lat="45.13478354624604" lon="5.770975148532013"><ele>361.5</ele><time>2026-04-28T07:04:08Z</time></trkpt><trkpt lat="45.134731183954955" lon="5.770923683041499"><ele>361.25</ele><time>2026-04-28T07:04:09Z</time></trkpt><trkpt lat="45.13468019986828" lon="5.7708690033460375"><ele>361.0</ele><time>2026-04-28T07:04:10Z</time></trkpt><trkpt lat="45.13462975702963" lon="5.770811457520188"><ele>360.75</ele><time>2026-04-28T07:04:11Z</time></trkpt><trkpt lat="45.134584689985026" lon="5.770747858231578"><ele>360.5</ele><time>2026-04-28T07:04:12Z</time></trkpt><trkpt lat="45.13453917950722" lon="5.770684359503709"><ele>360.25</ele><time>2026-04-28T07:04:13Z</time></trkpt><trkpt lat="45.13449337248739" lon="5.770619746991796"><ele>360.0</ele><time>2026-04-28T07:04:14Z</time></trkpt><trkpt lat="45.13444594444946" lon="5.770556658512158"><ele>360.0</ele><time>2026-04-28T07:04:15Z</time></trkpt><trkpt lat="45.13439970044596" lon="5.770490997669045"><ele>360.0</ele><time>2026-04-28T07:04:16Z</time></trkpt><trkpt lat="45.13435304605328" lon="5.7704244266935785"><ele>360.0</ele><time>2026-04-28T07:04:17Z</time></trkpt><trkpt lat="45.13430582870515" lon="5.770357603514818"><ele>360.0</ele><time>2026-04-28T07:04:18Z</time></trkpt><trkpt lat="45.134256345110806" lon="5.770292080418101"><ele>360.0</ele><time>2026-04-28T07:04:19Z</time></trkpt><trkpt lat="45.13421105410064" lon="5.770221521813646"><ele>360.0</ele><time>2026-04-28T07:04:20Z</time></trkpt><trkpt lat="45.134164663237954" lon="5.770149189744142"><ele>360.0</ele><time>2026-04-28T07:04:21Z</time></trkpt><trkpt lat="45.13412084253779" lon="5.770077627916023"><ele>360.0</ele><time>2026-04-28T07:04:22Z</time></trkpt><trkpt lat="45.13407277622722" lon="5.770005528595423"><ele>360.0</ele><time>2026-04-28T07:04:23Z</time></trkpt><trkpt lat="45.1340305639351" lon="5.76992613576457"><ele>360.0</ele><time>2026-04-28T07:04:24Z</time></trkpt><trkpt lat="45.13399213220641" lon="5.76984326431561"><ele>360.0</ele><time>2026-04-28T07:04:25Z</time></trkpt><trkpt lat="45.13395429335147" lon="5.769764867977049"><ele>360.0</ele><time>2026-04-28T07:04:26Z</time></trkpt><trkpt lat="45.13392023896426" lon="5.769682893115598"><ele>360.0</ele><time>2026-04-28T07:04:27Z</time></trkpt><trkpt lat="45.13388739799704" lon="5.769600909586486"><ele>360.0</ele><time>2026-04-28T07:04:28Z</time></trkpt><trkpt lat="45.1338551179071" lon="5.769522169551614"><ele>360.8</ele><time>2026-04-28T07:04:29Z</time></trkpt><trkpt lat="45.13380704700609" lon="5.769363210860309"><ele>361.6</ele><time>2026-04-28T07:04:31Z</time></trkpt><trkpt lat="45.13376978008686" lon="5.769210584833143"><ele>362.4</ele><time>2026-04-28T07:04:33Z</time></trkpt><trkpt lat="45.13373680027011" lon="5.76907781968131"><ele>363.2</ele><time>2026-04-28T07:04:35Z</time></trkpt><trkpt lat="45.13370326003355" lon="5.768951676811585"><ele>364.0</ele><time>2026-04-28T07:04:37Z</time></trkpt><trkpt lat="45.13366921809231" lon="5.768832172761901"><ele>364.0</ele><time>2026-04-28T07:04:38.999Z</time></trkpt><trkpt lat="45.13363896420454" lon="5.7687262525159895"><ele>364.0</ele><time>2026-04-28T07:04:40.999Z</time></trkpt><trkpt lat="45.13360614622243" lon="5.768630135709102"><ele>364.0</ele><time>2026-04-28T07:04:42.999Z</time></trkpt><trkpt lat="45.13358195805277" lon="5.768508640008446"><ele>364.0</ele><time>2026-04-28T07:04:45.999Z</time></trkpt><trkpt lat="45.13354855484246" lon="5.768396900079664"><ele>364.0</ele><time>2026-04-28T07:04:48.999Z</time></trkpt><trkpt lat="45.13351573726772" lon="5.768279067941742"><ele>364.0</ele><time>2026-04-28T07:04:51.999Z</time></trkpt><trkpt lat="45.133481213952265" lon="5.768170130771086"><ele>364.42857142857144</ele><time>2026-04-28T07:04:54.999Z</time></trkpt><trkpt lat="45.13344835528645" lon="5.768063154276312"><ele>364.8571428571429</ele><time>2026-04-28T07:04:57.999Z</time></trkpt><trkpt lat="45.13341575112361" lon="5.767948691227754"><ele>365.2857142857143</ele><time>2026-04-28T07:05:00.999Z</time></trkpt><trkpt lat="45.13338565593481" lon="5.767867880224437"><ele>365.7142857142857</ele><time>2026-04-28T07:05:02.999Z</time></trkpt><trkpt lat="45.133355624411216" lon="5.7677866591635745"><ele>366.14285714285717</ele><time>2026-04-28T07:05:04.999Z</time></trkpt><trkpt lat="45.13332090678895" lon="5.767706325634411"><ele>366.57142857142856</ele><time>2026-04-28T07:05:06.999Z</time></trkpt><trkpt lat="45.133283237331845" lon="5.767624824995133"><ele>367.0</ele><time>2026-04-28T07:05:08.999Z</time></trkpt><trkpt lat="45.133248011030894" lon="5.767541178776348"><ele>367.4285714285714</ele><time>2026-04-28T07:05:10.999Z</time></trkpt><trkpt lat="45.133207656648125" lon="5.767471043689578"><ele>367.8571428571429</ele><time>2026-04-28T07:05:12.999Z</time></trkpt><trkpt lat="45.13316013359317" lon="5.767405997294098"><ele>368.2857142857143</ele><time>2026-04-28T07:05:14.999Z</time></trkpt><trkpt lat="45.133122669264274" lon="5.767333741045471"><ele>368.71428571428567</ele><time>2026-04-28T07:05:16.999Z</time></trkpt><trkpt lat="45.133047525045086" lon="5.767255829855456"><ele>369.1428571428571</ele><time>2026-04-28T07:05:19.999Z</time></trkpt><trkpt lat="45.13298025585448" lon="5.7671660691551"><ele>369.57142857142856</ele><time>2026-04-28T07:05:22.999Z</time></trkpt><trkpt lat="45.13293343021632" lon="5.767102487425641"><ele>370.0</ele><time>2026-04-28T07:05:24.999Z</time></trkpt><trkpt lat="45.132857249807095" lon="5.767016993056136"><ele>370.0</ele><time>2026-04-28T07:05:27.999Z</time></trkpt><trkpt lat="45.13279775110462" lon="5.766961367306801"><ele>370.0</ele><time>2026-04-28T07:05:29.999Z</time></trkpt><trkpt lat="45.13273181359587" lon="5.766898252544109"><ele>370.0</ele><time>2026-04-28T07:05:31.999Z</time></trkpt><trkpt lat="45.13266625329393" lon="5.76682959686388"><ele>370.0</ele><time>2026-04-28T07:05:33.999Z</time></trkpt><trkpt lat="45.13258306500036" lon="5.766772127441041"><ele>370.0</ele><time>2026-04-28T07:05:35.999Z</time></trkpt><trkpt lat="45.13250402946496" lon="5.7666918227775845"><ele>370.0</ele><time>2026-04-28T07:05:38Z</time></trkpt><trkpt lat="45.132417967458125" lon="5.766621515183048"><ele>370.6</ele><time>2026-04-28T07:05:40Z</time></trkpt><trkpt lat="45.132328460619604" lon="5.76655371795088"><ele>371.2</ele><time>2026-04-28T07:05:42Z</time></trkpt><trkpt lat="45.13224098670282" lon="5.766487187070114"><ele>371.79999999999995</ele><time>2026-04-28T07:05:44Z</time></trkpt><trkpt lat="45.13215433508653" lon="5.766414851474931"><ele>372.4</ele><time>2026-04-28T07:05:46Z</time></trkpt><trkpt lat="45.13206083451898" lon="5.76634548182389"><ele>373.0</ele><time>2026-04-28T07:05:48Z</time></trkpt><trkpt lat="45.131969718826866" lon="5.76626694926445"><ele>373.0</ele><time>2026-04-28T07:05:50Z</time></trkpt><trkpt lat="45.131867786319845" lon="5.766190276266145"><ele>373.0</ele><time>2026-04-28T07:05:52Z</time></trkpt><trkpt lat="45.131763451231365" lon="5.766108161459568"><ele>373.0</ele><time>2026-04-28T07:05:54Z</time></trkpt><trkpt lat="45.13165818574178" lon="5.7660236756341705"><ele>373.0</ele><time>2026-04-28T07:05:56Z</time></trkpt><trkpt lat="45.131602914328184" lon="5.765978710080024"><ele>373.0</ele><time>2026-04-28T07:05:57Z</time></trkpt><trkpt lat="45.131543840246366" lon="5.765933244678609"><ele>373.0</ele><time>2026-04-28T07:05:58Z</time></trkpt><trkpt lat="45.13148462170344" lon="5.765885388024513"><ele>373.0</ele><time>2026-04-28T07:05:59Z</time></trkpt><trkpt lat="45.131423509573274" lon="5.765840697621593"><ele>373.0</ele><time>2026-04-28T07:06:00Z</time></trkpt><trkpt lat="45.131362165500455" lon="5.765793408550086"><ele>373.0</ele><time>2026-04-28T07:06:01Z</time></trkpt><trkpt lat="45.13129718074676" lon="5.765745158424868"><ele>373.0</ele><time>2026-04-28T07:06:02Z</time></trkpt><trkpt lat="45.13123400934495" lon="5.765700417134424"><ele>373.0</ele><time>2026-04-28T07:06:03Z</time></trkpt><trkpt lat="45.131169306785196" lon="5.765657970109085"><ele>373.0</ele><time>2026-04-28T07:06:04Z</time></trkpt><trkpt lat="45.131103420108204" lon="5.765611484682544"><ele>373.0</ele><time>2026-04-28T07:06:05Z</time></trkpt><trkpt lat="45.13103839147349" lon="5.765561321171256"><ele>373.0</ele><time>2026-04-28T07:06:06Z</time></trkpt><trkpt lat="45.13096837102254" lon="5.765510030514171"><ele>373.0</ele><time>2026-04-28T07:06:07Z</time></trkpt><trkpt lat="45.13090200886841" lon="5.765461407263875"><ele>373.0</ele><time>2026-04-28T07:06:08Z</time></trkpt><trkpt lat="45.130831147120205" lon="5.765412305227993"><ele>373.0</ele><time>2026-04-28T07:06:09Z</time></trkpt><trkpt lat="45.13075880372097" lon="5.765359806188985"><ele>373.0</ele><time>2026-04-28T07:06:10Z</time></trkpt><trkpt lat="45.13068934909676" lon="5.765311814906597"><ele>373.16666666666663</ele><time>2026-04-28T07:06:11Z</time></trkpt><trkpt lat="45.130616441801465" lon="5.76525907673639"><ele>373.3333333333333</ele><time>2026-04-28T07:06:12Z</time></trkpt><trkpt lat="45.13054687447856" lon="5.765206556037432"><ele>373.5</ele><time>2026-04-28T07:06:13Z</time></trkpt><trkpt lat="45.13047480152447" lon="5.765158072085455"><ele>373.6666666666667</ele><time>2026-04-28T07:06:14Z</time></trkpt><trkpt lat="45.130404490317474" lon="5.765110127333228"><ele>373.83333333333337</ele><time>2026-04-28T07:06:15Z</time></trkpt><trkpt lat="45.13033297410129" lon="5.76505011139031"><ele>374.0</ele><time>2026-04-28T07:06:16Z</time></trkpt><trkpt lat="45.13026209838039" lon="5.764994412605589"><ele>374.0</ele><time>2026-04-28T07:06:17Z</time></trkpt><trkpt lat="45.130190585584245" lon="5.764944298932101"><ele>374.0</ele><time>2026-04-28T07:06:18Z</time></trkpt><trkpt lat="45.13011419532031" lon="5.764889899059461"><ele>374.0</ele><time>2026-04-28T07:06:19Z</time></trkpt><trkpt lat="45.130044207523255" lon="5.7648328518330345"><ele>374.0</ele><time>2026-04-28T07:06:20Z</time></trkpt><trkpt lat="45.129971265813126" lon="5.764779299247585"><ele>374.0</ele><time>2026-04-28T07:06:21Z</time></trkpt><trkpt lat="45.129898506943135" lon="5.764720423663289"><ele>374.0</ele><time>2026-04-28T07:06:22Z</time></trkpt><trkpt lat="45.12982655627778" lon="5.764658125133686"><ele>374.5</ele><time>2026-04-28T07:06:23Z</time></trkpt><trkpt lat="45.12975489044137" lon="5.76459414035811"><ele>375.0</ele><time>2026-04-28T07:06:24Z</time></trkpt><trkpt lat="45.12968339612115" lon="5.764526047700873"><ele>375.5</ele><time>2026-04-28T07:06:25Z</time></trkpt><trkpt lat="45.12960780223233" lon="5.764462377735113"><ele>376.0</ele><time>2026-04-28T07:06:26Z</time></trkpt><trkpt lat="45.12953346374981" lon="5.76439857986441"><ele>376.5</ele><time>2026-04-28T07:06:27Z</time></trkpt><trkpt lat="45.129456624792105" lon="5.764331362199587"><ele>377.0</ele><time>2026-04-28T07:06:28Z</time></trkpt><trkpt lat="45.129378668408016" lon="5.764263197469166"><ele>377.20000000000005</ele><time>2026-04-28T07:06:29Z</time></trkpt><trkpt lat="45.12930071881741" lon="5.764200030794042"><ele>377.4</ele><time>2026-04-28T07:06:30Z</time></trkpt><trkpt lat="45.12922321747569" lon="5.764131250488007"><ele>377.6</ele><time>2026-04-28T07:06:31Z</time></trkpt><trkpt lat="45.12914689712853" lon="5.7640601334699"><ele>377.79999999999995</ele><time>2026-04-28T07:06:32Z</time></trkpt><trkpt lat="45.12907104121054" lon="5.763990879303169"><ele>378.0</ele><time>2026-04-28T07:06:33Z</time></trkpt><trkpt lat="45.12899559093041" lon="5.763923880001896"><ele>378.0</ele><time>2026-04-28T07:06:34Z</time></trkpt><trkpt lat="45.12891814847" lon="5.763858434780271"><ele>378.0</ele><time>2026-04-28T07:06:35Z</time></trkpt><trkpt lat="45.128839885791955" lon="5.763797394555722"><ele>378.0</ele><time>2026-04-28T07:06:36Z</time></trkpt><trkpt lat="45.128762273370775" lon="5.763732059972488"><ele>378.0</ele><time>2026-04-28T07:06:37Z</time></trkpt><trkpt lat="45.128685078619895" lon="5.763669439310771"><ele>378.0</ele><time>2026-04-28T07:06:38Z</time></trkpt><trkpt lat="45.128610110297274" lon="5.763599391043693"><ele>378.0</ele><time>2026-04-28T07:06:39Z</time></trkpt><trkpt lat="45.12853903164555" lon="5.763526823611695"><ele>378.0</ele><time>2026-04-28T07:06:40Z</time></trkpt><trkpt lat="45.12846882463503" lon="5.7634499035775795"><ele>378.0</ele><time>2026-04-28T07:06:41Z</time></trkpt><trkpt lat="45.128406127039874" lon="5.7633620666163266"><ele>378.0</ele><time>2026-04-28T07:06:42Z</time></trkpt><trkpt lat="45.128346696331704" lon="5.7632737069958795"><ele>378.0</ele><time>2026-04-28T07:06:43Z</time></trkpt><trkpt lat="45.128288428441955" lon="5.763184517699703"><ele>378.0</ele><time>2026-04-28T07:06:43.999Z</time></trkpt><trkpt lat="45.128232811789466" lon="5.763095475784752"><ele>378.0</ele><time>2026-04-28T07:06:44.999Z</time></trkpt><trkpt lat="45.12817447013173" lon="5.763003651175822"><ele>378.0</ele><time>2026-04-28T07:06:45.999Z</time></trkpt><trkpt lat="45.12811652393734" lon="5.762917587585035"><ele>378.0</ele><time>2026-04-28T07:06:46.999Z</time></trkpt><trkpt lat="45.12805615830063" lon="5.762834968865143"><ele>378.0</ele><time>2026-04-28T07:06:47.999Z</time></trkpt><trkpt lat="45.127990843195825" lon="5.762750808046731"><ele>378.0</ele><time>2026-04-28T07:06:48.999Z</time></trkpt><trkpt lat="45.12792378675827" lon="5.762668388901369"><ele>378.0</ele><time>2026-04-28T07:06:49.999Z</time></trkpt><trkpt lat="45.12786020973737" lon="5.762587818644378"><ele>378.0</ele><time>2026-04-28T07:06:50.999Z</time></trkpt><trkpt lat="45.12779130748341" lon="5.762507349397591"><ele>378.5</ele><time>2026-04-28T07:06:51.999Z</time></trkpt><trkpt lat="45.127722224541564" lon="5.7624345985808185"><ele>379.0</ele><time>2026-04-28T07:06:52.999Z</time></trkpt><trkpt lat="45.12765355309698" lon="5.762358900913028"><ele>379.5</ele><time>2026-04-28T07:06:53.999Z</time></trkpt><trkpt lat="45.1275929090002" lon="5.762289885632026"><ele>380.0</ele><time>2026-04-28T07:06:54.999Z</time></trkpt><trkpt lat="45.12752136308637" lon="5.762224439644443"><ele>380.5</ele><time>2026-04-28T07:06:55.999Z</time></trkpt><trkpt lat="45.127452711205144" lon="5.762159034190113"><ele>381.0</ele><time>2026-04-28T07:06:56.999Z</time></trkpt><trkpt lat="45.1273872000973" lon="5.762099496229384"><ele>381.0</ele><time>2026-04-28T07:06:57.999Z</time></trkpt><trkpt lat="45.127321168093566" lon="5.762039410607273"><ele>381.0</ele><time>2026-04-28T07:06:58.999Z</time></trkpt><trkpt lat="45.12726247312582" lon="5.761973015455622"><ele>381.0</ele><time>2026-04-28T07:06:59.999Z</time></trkpt><trkpt lat="45.12720334958554" lon="5.761906816216787"><ele>381.0</ele><time>2026-04-28T07:07:00.999Z</time></trkpt><trkpt lat="45.127144476365956" lon="5.761841959495988"><ele>381.0</ele><time>2026-04-28T07:07:01.999Z</time></trkpt><trkpt lat="45.12708134812071" lon="5.7617842412991145"><ele>381.0</ele><time>2026-04-28T07:07:02.999Z</time></trkpt><trkpt lat="45.127020410281986" lon="5.7617324069994265"><ele>379.5</ele><time>2026-04-28T07:07:03.999Z</time></trkpt><trkpt lat="45.126964468270664" lon="5.761674685197149"><ele>378.0</ele><time>2026-04-28T07:07:04.999Z</time></trkpt><trkpt lat="45.12690849797766" lon="5.761619424853306"><ele>376.5</ele><time>2026-04-28T07:07:05.999Z</time></trkpt><trkpt lat="45.126847750142986" lon="5.761574770829619"><ele>375.0</ele><time>2026-04-28T07:07:06.999Z</time></trkpt><trkpt lat="45.1267898741036" lon="5.761524963483351"><ele>373.5</ele><time>2026-04-28T07:07:07.999Z</time></trkpt><trkpt lat="45.1266881162063" lon="5.76143911741635"><ele>372.0</ele><time>2026-04-28T07:07:09.999Z</time></trkpt><trkpt lat="45.126581513213175" lon="5.761381648889231"><ele>374.8</ele><time>2026-04-28T07:07:11.999Z</time></trkpt><trkpt lat="45.12650129455994" lon="5.761305664156933"><ele>377.6</ele><time>2026-04-28T07:07:13.999Z</time></trkpt><trkpt lat="45.12641201061134" lon="5.761223273406353"><ele>380.40000000000003</ele><time>2026-04-28T07:07:15.999Z</time></trkpt><trkpt lat="45.12631535681044" lon="5.761161838344925"><ele>383.20000000000005</ele><time>2026-04-28T07:07:17.999Z</time></trkpt><trkpt lat="45.12623353839083" lon="5.761103709463932"><ele>386.0</ele><time>2026-04-28T07:07:19.999Z</time></trkpt><trkpt lat="45.126148193117906" lon="5.761040304710887"><ele>384.8</ele><time>2026-04-28T07:07:21.999Z</time></trkpt><trkpt lat="45.12606640920581" lon="5.760971450223822"><ele>383.6</ele><time>2026-04-28T07:07:23.999Z</time></trkpt><trkpt lat="45.12598708035881" lon="5.760913315116202"><ele>382.4</ele><time>2026-04-28T07:07:25.999Z</time></trkpt><trkpt lat="45.12590457949431" lon="5.7608644292831706"><ele>381.2</ele><time>2026-04-28T07:07:27.999Z</time></trkpt><trkpt lat="45.12581429096337" lon="5.760829488452991"><ele>380.0</ele><time>2026-04-28T07:07:29.999Z</time></trkpt><trkpt lat="45.12573753251904" lon="5.760779306639321"><ele>381.1666666666667</ele><time>2026-04-28T07:07:31.999Z</time></trkpt><trkpt lat="45.12565553947109" lon="5.760734567021599"><ele>382.33333333333337</ele><time>2026-04-28T07:07:33.999Z</time></trkpt><trkpt lat="45.12557727136656" lon="5.760701246770216"><ele>383.5</ele><time>2026-04-28T07:07:35.999Z</time></trkpt><trkpt lat="45.12548737303862" lon="5.760667237020885"><ele>384.6666666666667</ele><time>2026-04-28T07:07:37.999Z</time></trkpt><trkpt lat="45.12540855660209" lon="5.760630671226808"><ele>385.8333333333333</ele><time>2026-04-28T07:07:39.999Z</time></trkpt><trkpt lat="45.12531512140885" lon="5.760594015436549"><ele>387.0</ele><time>2026-04-28T07:07:41.999Z</time></trkpt><trkpt lat="45.12522396177472" lon="5.7605528528053425"><ele>387.0</ele><time>2026-04-28T07:07:44Z</time></trkpt><trkpt lat="45.1251278758351" lon="5.760482248896503"><ele>387.0</ele><time>2026-04-28T07:07:46Z</time></trkpt><trkpt lat="45.125032768728275" lon="5.76042075857629"><ele>387.0</ele><time>2026-04-28T07:07:48Z</time></trkpt><trkpt lat="45.124943811496436" lon="5.760360501710698"><ele>387.0</ele><time>2026-04-28T07:07:50Z</time></trkpt><trkpt lat="45.12484744837444" lon="5.760280423950837"><ele>387.0</ele><time>2026-04-28T07:07:52Z</time></trkpt><trkpt lat="45.124742133037834" lon="5.760228304937144"><ele>385.75</ele><time>2026-04-28T07:07:54Z</time></trkpt><trkpt lat="45.124629983541375" lon="5.760165178398305"><ele>384.5</ele><time>2026-04-28T07:07:56Z</time></trkpt><trkpt lat="45.12451363518589" lon="5.76010807428131"><ele>383.25</ele><time>2026-04-28T07:07:58Z</time></trkpt><trkpt lat="45.124412995194945" lon="5.760055219458004"><ele>382.0</ele><time>2026-04-28T07:08:00Z</time></trkpt><trkpt lat="45.12431729480602" lon="5.760009540413656"><ele>382.0</ele><time>2026-04-28T07:08:02Z</time></trkpt><trkpt lat="45.124217829258384" lon="5.759957928574909"><ele>382.0</ele><time>2026-04-28T07:08:04Z</time></trkpt><trkpt lat="45.12412091838285" lon="5.759901887583014"><ele>382.0</ele><time>2026-04-28T07:08:06Z</time></trkpt><trkpt lat="45.124021295025976" lon="5.7598620432273915"><ele>382.0</ele><time>2026-04-28T07:08:08Z</time></trkpt><trkpt lat="45.123924695455365" lon="5.759838412446981"><ele>382.0</ele><time>2026-04-28T07:08:10Z</time></trkpt><trkpt lat="45.12382887020053" lon="5.759815578236919"><ele>382.20000000000005</ele><time>2026-04-28T07:08:12Z</time></trkpt><trkpt lat="45.12372234653511" lon="5.759779919638498"><ele>382.4</ele><time>2026-04-28T07:08:14Z</time></trkpt><trkpt lat="45.12361032110144" lon="5.759771476607667"><ele>382.6</ele><time>2026-04-28T07:08:16Z</time></trkpt><trkpt lat="45.1235436666898" lon="5.759768033918409"><ele>382.79999999999995</ele><time>2026-04-28T07:08:17Z</time></trkpt><trkpt lat="45.12341397171988" lon="5.759763185928718"><ele>383.0</ele><time>2026-04-28T07:08:19Z</time></trkpt><trkpt lat="45.12335055370377" lon="5.75976970518292"><ele>383.0</ele><time>2026-04-28T07:08:20Z</time></trkpt><trkpt lat="45.123284818197796" lon="5.759784906200127"><ele>383.0</ele><time>2026-04-28T07:08:21Z</time></trkpt><trkpt lat="45.12322049346873" lon="5.759803027037946"><ele>383.0</ele><time>2026-04-28T07:08:22Z</time></trkpt><trkpt lat="45.1231579984593" lon="5.759818727454482"><ele>383.0</ele><time>2026-04-28T07:08:23Z</time></trkpt><trkpt lat="45.12309455427077" lon="5.759828267014775"><ele>383.0</ele><time>2026-04-28T07:08:24Z</time></trkpt><trkpt lat="45.12297001210034" lon="5.759835596511998"><ele>383.0</ele><time>2026-04-28T07:08:26Z</time></trkpt><trkpt lat="45.122904047973954" lon="5.759833220739583"><ele>383.25</ele><time>2026-04-28T07:08:27Z</time></trkpt><trkpt lat="45.122778503134" lon="5.759840048921113"><ele>383.5</ele><time>2026-04-28T07:08:29Z</time></trkpt><trkpt lat="45.12266334669696" lon="5.759785589221951"><ele>383.75</ele><time>2026-04-28T07:08:31Z</time></trkpt><trkpt lat="45.12254842448252" lon="5.759759525234803"><ele>384.0</ele><time>2026-04-28T07:08:33Z</time></trkpt><trkpt lat="45.122438823600234" lon="5.759711114120505"><ele>384.4</ele><time>2026-04-28T07:08:35Z</time></trkpt><trkpt lat="45.122333980944596" lon="5.759679047663165"><ele>384.79999999999995</ele><time>2026-04-28T07:08:37Z</time></trkpt><trkpt lat="45.12223417472708" lon="5.759631266949654"><ele>385.20000000000005</ele><time>2026-04-28T07:08:39Z</time></trkpt><trkpt lat="45.12212210613371" lon="5.759623800671941"><ele>385.6</ele><time>2026-04-28T07:08:41Z</time></trkpt><trkpt lat="45.12201737081154" lon="5.759619214503345"><ele>386.0</ele><time>2026-04-28T07:08:43Z</time></trkpt><trkpt lat="45.1219063859149" lon="5.7596524160343"><ele>386.0</ele><time>2026-04-28T07:08:44.999Z</time></trkpt><trkpt lat="45.12180004026197" lon="5.759681333945908"><ele>386.0</ele><time>2026-04-28T07:08:46.999Z</time></trkpt><trkpt lat="45.121691427206294" lon="5.759677286327286"><ele>386.0</ele><time>2026-04-28T07:08:48.999Z</time></trkpt><trkpt lat="45.12159098204029" lon="5.759688167453611"><ele>386.0</ele><time>2026-04-28T07:08:50.999Z</time></trkpt><trkpt lat="45.12150689385111" lon="5.759655771777895"><ele>386.0</ele><time>2026-04-28T07:08:52.999Z</time></trkpt><trkpt lat="45.12142483330156" lon="5.759630610344997"><ele>386.66666666666663</ele><time>2026-04-28T07:08:54.999Z</time></trkpt><trkpt lat="45.1213547225254" lon="5.759624797875279"><ele>387.3333333333333</ele><time>2026-04-28T07:08:56.999Z</time></trkpt><trkpt lat="45.12128287950345" lon="5.759608568097227"><ele>388.0</ele><time>2026-04-28T07:08:58.999Z</time></trkpt><trkpt lat="45.12119553596448" lon="5.759597357376667"><ele>388.66666666666663</ele><time>2026-04-28T07:09:00.999Z</time></trkpt><trkpt lat="45.12111574595102" lon="5.759582272696787"><ele>389.3333333333333</ele><time>2026-04-28T07:09:02.999Z</time></trkpt><trkpt lat="45.12103535221786" lon="5.7595710453862345"><ele>390.0</ele><time>2026-04-28T07:09:04.999Z</time></trkpt><trkpt lat="45.12095725476535" lon="5.759561795580588"><ele>390.0</ele><time>2026-04-28T07:09:06.999Z</time></trkpt><trkpt lat="45.12087578904647" lon="5.759560633598477"><ele>390.0</ele><time>2026-04-28T07:09:08.999Z</time></trkpt><trkpt lat="45.12078996674958" lon="5.759566130024271"><ele>390.0</ele><time>2026-04-28T07:09:10.999Z</time></trkpt><trkpt lat="45.12069680245352" lon="5.759561749415445"><ele>390.0</ele><time>2026-04-28T07:09:12.999Z</time></trkpt><trkpt lat="45.12060397118819" lon="5.759564434116281"><ele>390.0</ele><time>2026-04-28T07:09:14.999Z</time></trkpt><trkpt lat="45.12051581478138" lon="5.7595883523224"><ele>390.0</ele><time>2026-04-28T07:09:16.999Z</time></trkpt><trkpt lat="45.12042774277919" lon="5.759600618361973"><ele>390.2</ele><time>2026-04-28T07:09:18.999Z</time></trkpt><trkpt lat="45.12033389833619" lon="5.759627416747506"><ele>390.4</ele><time>2026-04-28T07:09:20.999Z</time></trkpt><trkpt lat="45.12023717171436" lon="5.7596543830615445"><ele>390.6</ele><time>2026-04-28T07:09:22.999Z</time></trkpt><trkpt lat="45.12014478922983" lon="5.75967787101629"><ele>390.8</ele><time>2026-04-28T07:09:24.999Z</time></trkpt><trkpt lat="45.12004938334789" lon="5.75968431695726"><ele>391.0</ele><time>2026-04-28T07:09:26.999Z</time></trkpt><trkpt lat="45.1199607526603" lon="5.759709346073752"><ele>390.6</ele><time>2026-04-28T07:09:28.999Z</time></trkpt><trkpt lat="45.1198621988556" lon="5.759737325400447"><ele>390.20000000000005</ele><time>2026-04-28T07:09:30.999Z</time></trkpt><trkpt lat="45.119766511783965" lon="5.759764051020814"><ele>389.79999999999995</ele><time>2026-04-28T07:09:32.999Z</time></trkpt><trkpt lat="45.119674592079456" lon="5.759802085378415"><ele>389.4</ele><time>2026-04-28T07:09:34.999Z</time></trkpt><trkpt lat="45.11957916471143" lon="5.759837984935096"><ele>389.0</ele><time>2026-04-28T07:09:36.999Z</time></trkpt><trkpt lat="45.119485155546606" lon="5.759864893057737"><ele>389.0</ele><time>2026-04-28T07:09:38.999Z</time></trkpt><trkpt lat="45.119385772897516" lon="5.75987022206809"><ele>389.0</ele><time>2026-04-28T07:09:40.999Z</time></trkpt><trkpt lat="45.11929897122138" lon="5.75992939817415"><ele>389.0</ele><time>2026-04-28T07:09:42.999Z</time></trkpt><trkpt lat="45.119219000965295" lon="5.759959620287105"><ele>389.0</ele><time>2026-04-28T07:09:44.999Z</time></trkpt><trkpt lat="45.11912600768707" lon="5.759977301635361"><ele>389.0</ele><time>2026-04-28T07:09:46.999Z</time></trkpt><trkpt lat="45.1190461054201" lon="5.760013623579577"><ele>389.4</ele><time>2026-04-28T07:09:48.999Z</time></trkpt><trkpt lat="45.11896348457188" lon="5.760045989174706"><ele>389.79999999999995</ele><time>2026-04-28T07:09:51Z</time></trkpt><trkpt lat="45.11886013640915" lon="5.760073297693706"><ele>390.20000000000005</ele><time>2026-04-28T07:09:53Z</time></trkpt><trkpt lat="45.11877345246088" lon="5.760115729936371"><ele>390.6</ele><time>2026-04-28T07:09:55Z</time></trkpt><trkpt lat="45.11868107680458" lon="5.760154307037202"><ele>391.0</ele><time>2026-04-28T07:09:57Z</time></trkpt><trkpt lat="45.118587701357654" lon="5.760158394037207"><ele>391.0</ele><time>2026-04-28T07:09:59Z</time></trkpt><trkpt lat="45.11850080023235" lon="5.76018851764919"><ele>391.0</ele><time>2026-04-28T07:10:01Z</time></trkpt><trkpt lat="45.11840466406273" lon="5.760172363325785"><ele>391.0</ele><time>2026-04-28T07:10:03Z</time></trkpt><trkpt lat="45.118290675003685" lon="5.760174171588157"><ele>391.0</ele><time>2026-04-28T07:10:05Z</time></trkpt><trkpt lat="45.11817571631657" lon="5.760188092390537"><ele>391.0</ele><time>2026-04-28T07:10:07Z</time></trkpt><trkpt lat="45.118051213675336" lon="5.7601908448527785"><ele>391.0</ele><time>2026-04-28T07:10:09Z</time></trkpt><trkpt lat="45.11792880780439" lon="5.760200861173725"><ele>391.0</ele><time>2026-04-28T07:10:11Z</time></trkpt><trkpt lat="45.11780760959286" lon="5.760201525489986"><ele>391.0</ele><time>2026-04-28T07:10:13Z</time></trkpt><trkpt lat="45.117687474427285" lon="5.7601913515562195"><ele>391.0</ele><time>2026-04-28T07:10:15Z</time></trkpt><trkpt lat="45.117562716787624" lon="5.760143436410785"><ele>391.0</ele><time>2026-04-28T07:10:17Z</time></trkpt><trkpt lat="45.11743731675536" lon="5.7601060853233665"><ele>391.0</ele><time>2026-04-28T07:10:19Z</time></trkpt><trkpt lat="45.11731534504581" lon="5.760062661177254"><ele>391.0</ele><time>2026-04-28T07:10:21Z</time></trkpt><trkpt lat="45.11725087588014" lon="5.760040368729743"><ele>391.0</ele><time>2026-04-28T07:10:22Z</time></trkpt><trkpt lat="45.11718729201142" lon="5.760021562613533"><ele>391.0</ele><time>2026-04-28T07:10:23Z</time></trkpt><trkpt lat="45.1170677606303" lon="5.759977990726584"><ele>391.6</ele><time>2026-04-28T07:10:25Z</time></trkpt><trkpt lat="45.116942956447055" lon="5.759930305008116"><ele>392.20000000000005</ele><time>2026-04-28T07:10:27Z</time></trkpt><trkpt lat="45.11682552837849" lon="5.759873741798634"><ele>392.79999999999995</ele><time>2026-04-28T07:10:29Z</time></trkpt><trkpt lat="45.11670139189356" lon="5.759848135431952"><ele>393.4</ele><time>2026-04-28T07:10:31Z</time></trkpt><trkpt lat="45.116637477573306" lon="5.759851119928677"><ele>394.0</ele><time>2026-04-28T07:10:32Z</time></trkpt><trkpt lat="45.116512421860946" lon="5.759866102963343"><ele>394.4</ele><time>2026-04-28T07:10:34Z</time></trkpt><trkpt lat="45.116393089946854" lon="5.759883788640036"><ele>394.79999999999995</ele><time>2026-04-28T07:10:36Z</time></trkpt><trkpt lat="45.11633014444674" lon="5.759886928047408"><ele>395.20000000000005</ele><time>2026-04-28T07:10:37Z</time></trkpt><trkpt lat="45.11622093023272" lon="5.759913339903274"><ele>395.6</ele><time>2026-04-28T07:10:39Z</time></trkpt><trkpt lat="45.11611758009638" lon="5.759910203374207"><ele>396.0</ele><time>2026-04-28T07:10:41Z</time></trkpt><trkpt lat="45.11601231418613" lon="5.75988020467829"><ele>396.0</ele><time>2026-04-28T07:10:43Z</time></trkpt><trkpt lat="45.11593169223341" lon="5.759811347128155"><ele>396.0</ele><time>2026-04-28T07:10:45Z</time></trkpt><trkpt lat="45.115880402039004" lon="5.75965682150416"><ele>396.0</ele><time>2026-04-28T07:10:47Z</time></trkpt><trkpt lat="45.11587669600659" lon="5.759567096979485"><ele>396.0</ele><time>2026-04-28T07:10:48Z</time></trkpt><trkpt lat="45.1159170405311" lon="5.7593968136823115"><ele>396.0</ele><time>2026-04-28T07:10:50Z</time></trkpt><trkpt lat="45.1159559635389" lon="5.759309153506252"><ele>395.7142857142857</ele><time>2026-04-28T07:10:50.999Z</time></trkpt><trkpt lat="45.11597982970335" lon="5.759226311102866"><ele>395.4285714285714</ele><time>2026-04-28T07:10:51.999Z</time></trkpt><trkpt lat="45.115998859187265" lon="5.759138992631341"><ele>395.1428571428571</ele><time>2026-04-28T07:10:52.999Z</time></trkpt><trkpt lat="45.11602384443122" lon="5.759055889704475"><ele>394.8571428571429</ele><time>2026-04-28T07:10:53.999Z</time></trkpt><trkpt lat="45.116034391061326" lon="5.758961481264649"><ele>394.57142857142856</ele><time>2026-04-28T07:10:54.999Z</time></trkpt><trkpt lat="45.11603406077384" lon="5.758857458577082"><ele>394.2857142857143</ele><time>2026-04-28T07:10:55.999Z</time></trkpt><trkpt lat="45.11603457362095" lon="5.758748715996495"><ele>394.0</ele><time>2026-04-28T07:10:56.999Z</time></trkpt><trkpt lat="45.11603175821449" lon="5.758640607548918"><ele>394.0</ele><time>2026-04-28T07:10:57.999Z</time></trkpt><trkpt lat="45.11602630749196" lon="5.758533167928361"><ele>394.0</ele><time>2026-04-28T07:10:58.999Z</time></trkpt><trkpt lat="45.11602350799617" lon="5.758426722369583"><ele>394.0</ele><time>2026-04-28T07:10:59.999Z</time></trkpt><trkpt lat="45.11603412512054" lon="5.758320951424616"><ele>394.0</ele><time>2026-04-28T07:11:00.999Z</time></trkpt><trkpt lat="45.11605684196412" lon="5.758222182387097"><ele>394.0</ele><time>2026-04-28T07:11:01.999Z</time></trkpt><trkpt lat="45.11609919873088" lon="5.758136259211624"><ele>394.0</ele><time>2026-04-28T07:11:02.999Z</time></trkpt><trkpt lat="45.11612656094396" lon="5.758042598577901"><ele>394.0</ele><time>2026-04-28T07:11:03.999Z</time></trkpt><trkpt lat="45.116112421937" lon="5.757937437235332"><ele>394.0</ele><time>2026-04-28T07:11:04.999Z</time></trkpt><trkpt lat="45.11608469460453" lon="5.75783825492937"><ele>394.0</ele><time>2026-04-28T07:11:05.999Z</time></trkpt><trkpt lat="45.11608224971124" lon="5.75773262385937"><ele>394.0</ele><time>2026-04-28T07:11:06.999Z</time></trkpt><trkpt lat="45.11608120415505" lon="5.757629924981108"><ele>394.0</ele><time>2026-04-28T07:11:07.999Z</time></trkpt><trkpt lat="45.11607761695751" lon="5.7575243269907075"><ele>394.0</ele><time>2026-04-28T07:11:08.999Z</time></trkpt><trkpt lat="45.11607380725526" lon="5.757418451537573"><ele>394.0</ele><time>2026-04-28T07:11:09.999Z</time></trkpt><trkpt lat="45.1160816969469" lon="5.757317309878708"><ele>394.0</ele><time>2026-04-28T07:11:10.999Z</time></trkpt><trkpt lat="45.11609141343838" lon="5.757217136076539"><ele>394.0</ele><time>2026-04-28T07:11:11.999Z</time></trkpt><trkpt lat="45.116106316385874" lon="5.757115527814603"><ele>394.0</ele><time>2026-04-28T07:11:12.999Z</time></trkpt><trkpt lat="45.11611239014281" lon="5.757018535522662"><ele>394.0</ele><time>2026-04-28T07:11:13.999Z</time></trkpt><trkpt lat="45.116114694029704" lon="5.756913379032531"><ele>394.0</ele><time>2026-04-28T07:11:14.999Z</time></trkpt><trkpt lat="45.116120732171495" lon="5.756814591304976"><ele>394.0</ele><time>2026-04-28T07:11:15.999Z</time></trkpt><trkpt lat="45.11612802357909" lon="5.756715451788654"><ele>394.0</ele><time>2026-04-28T07:11:16.999Z</time></trkpt><trkpt lat="45.11611985414976" lon="5.756612844984578"><ele>394.0</ele><time>2026-04-28T07:11:17.999Z</time></trkpt><trkpt lat="45.11609142661091" lon="5.75651808593819"><ele>394.00000000000006</ele><time>2026-04-28T07:11:18.999Z</time></trkpt><trkpt lat="45.116020040263585" lon="5.756464273078027"><ele>394.0</ele><time>2026-04-28T07:11:19.999Z</time></trkpt><trkpt lat="45.11596947727842" lon="5.756408431471376"><ele>394.0</ele><time>2026-04-28T07:11:20.999Z</time></trkpt><trkpt lat="45.115917760892195" lon="5.756349417159394"><ele>394.0</ele><time>2026-04-28T07:11:21.999Z</time></trkpt><trkpt lat="45.11588184471131" lon="5.756267608223185"><ele>394.00000000000006</ele><time>2026-04-28T07:11:22.999Z</time></trkpt><trkpt lat="45.115835561170535" lon="5.756200281869938"><ele>394.0</ele><time>2026-04-28T07:11:23.999Z</time></trkpt><trkpt lat="45.11573687025655" lon="5.756088498847057"><ele>394.0</ele><time>2026-04-28T07:11:25.999Z</time></trkpt><trkpt lat="45.11569389568041" lon="5.756016334604831"><ele>394.0</ele><time>2026-04-28T07:11:26.999Z</time></trkpt><trkpt lat="45.115645637963524" lon="5.755951516168746"><ele>394.0</ele><time>2026-04-28T07:11:27.999Z</time></trkpt><trkpt lat="45.11556193259815" lon="5.755827866662245"><ele>394.0</ele><time>2026-04-28T07:11:29.999Z</time></trkpt><trkpt lat="45.115485373889946" lon="5.755693504267917"><ele>394.0</ele><time>2026-04-28T07:11:31.999Z</time></trkpt><trkpt lat="45.11540121250834" lon="5.755583233179095"><ele>394.00000000000006</ele><time>2026-04-28T07:11:33.999Z</time></trkpt><trkpt lat="45.115327564533374" lon="5.755466539121799"><ele>394.0</ele><time>2026-04-28T07:11:35.999Z</time></trkpt><trkpt lat="45.11527578831292" lon="5.755312400613838"><ele>394.0</ele><time>2026-04-28T07:11:37.999Z</time></trkpt><trkpt lat="45.11527915677654" lon="5.755221843057973"><ele>394.0</ele><time>2026-04-28T07:11:38.999Z</time></trkpt><trkpt lat="45.115306497381766" lon="5.755131018970401"><ele>394.00000000000006</ele><time>2026-04-28T07:11:39.999Z</time></trkpt><trkpt lat="45.11534159946094" lon="5.7550427638333685"><ele>394.0</ele><time>2026-04-28T07:11:40.999Z</time></trkpt><trkpt lat="45.11537092627664" lon="5.75495475203357"><ele>393.8571428571429</ele><time>2026-04-28T07:11:41.999Z</time></trkpt><trkpt lat="45.11538790261847" lon="5.754860817338252"><ele>393.7142857142857</ele><time>2026-04-28T07:11:42.999Z</time></trkpt><trkpt lat="45.11540691802587" lon="5.754763359583323"><ele>393.57142857142856</ele><time>2026-04-28T07:11:43.999Z</time></trkpt><trkpt lat="45.11541885025539" lon="5.754659502607035"><ele>393.42857142857144</ele><time>2026-04-28T07:11:44.999Z</time></trkpt><trkpt lat="45.11543278870343" lon="5.754557117822246"><ele>393.2857142857143</ele><time>2026-04-28T07:11:45.999Z</time></trkpt><trkpt lat="45.115440301377305" lon="5.7544478117755595"><ele>393.14285714285717</ele><time>2026-04-28T07:11:46.999Z</time></trkpt><trkpt lat="45.11544715061872" lon="5.754342542248737"><ele>393.0</ele><time>2026-04-28T07:11:47.999Z</time></trkpt><trkpt lat="45.11545797958306" lon="5.754234498612084"><ele>392.5</ele><time>2026-04-28T07:11:48.999Z</time></trkpt><trkpt lat="45.115471605990614" lon="5.754130026010449"><ele>392.0</ele><time>2026-04-28T07:11:49.999Z</time></trkpt><trkpt lat="45.11548269056207" lon="5.754025562659917"><ele>391.5</ele><time>2026-04-28T07:11:50.999Z</time></trkpt><trkpt lat="45.11549209912789" lon="5.753918084633205"><ele>391.0</ele><time>2026-04-28T07:11:51.999Z</time></trkpt><trkpt lat="45.1155038330289" lon="5.753810236658036"><ele>390.5</ele><time>2026-04-28T07:11:52.999Z</time></trkpt><trkpt lat="45.115511303463784" lon="5.753699409231802"><ele>390.0</ele><time>2026-04-28T07:11:53.999Z</time></trkpt><trkpt lat="45.115514379585754" lon="5.7535869824617585"><ele>389.5</ele><time>2026-04-28T07:11:54.999Z</time></trkpt><trkpt lat="45.11551063897376" lon="5.753472663369694"><ele>389.0</ele><time>2026-04-28T07:11:56Z</time></trkpt><trkpt lat="45.11550712843253" lon="5.753360869828171"><ele>388.5</ele><time>2026-04-28T07:11:57Z</time></trkpt><trkpt lat="45.11550375085454" lon="5.7532492485109366"><ele>388.0</ele><time>2026-04-28T07:11:58Z</time></trkpt><trkpt lat="45.115509990433694" lon="5.75313628552909"><ele>387.5</ele><time>2026-04-28T07:11:59Z</time></trkpt><trkpt lat="45.11551057090303" lon="5.753033207580274"><ele>387.0</ele><time>2026-04-28T07:12:00Z</time></trkpt><trkpt lat="45.11550801971729" lon="5.75293057811077"><ele>387.0</ele><time>2026-04-28T07:12:01Z</time></trkpt><trkpt lat="45.115504976044086" lon="5.7528349211051495"><ele>387.0</ele><time>2026-04-28T07:12:02Z</time></trkpt><trkpt lat="45.11550546179154" lon="5.752731180395617"><ele>387.0</ele><time>2026-04-28T07:12:03Z</time></trkpt><trkpt lat="45.115506131994195" lon="5.752623187889691"><ele>387.0</ele><time>2026-04-28T07:12:04Z</time></trkpt><trkpt lat="45.11550927340575" lon="5.752509236652348"><ele>387.0</ele><time>2026-04-28T07:12:05Z</time></trkpt><trkpt lat="45.115517352937005" lon="5.752401290202159"><ele>387.0</ele><time>2026-04-28T07:12:06Z</time></trkpt><trkpt lat="45.11552483529707" lon="5.752295426792681"><ele>387.0</ele><time>2026-04-28T07:12:07Z</time></trkpt><trkpt lat="45.11553998487229" lon="5.752185900038363"><ele>386.5</ele><time>2026-04-28T07:12:08Z</time></trkpt><trkpt lat="45.115561641349174" lon="5.752077754541445"><ele>386.0</ele><time>2026-04-28T07:12:09Z</time></trkpt><trkpt lat="45.11557536467381" lon="5.751967350039776"><ele>385.5</ele><time>2026-04-28T07:12:10Z</time></trkpt><trkpt lat="45.11558848759517" lon="5.751859608973102"><ele>385.0</ele><time>2026-04-28T07:12:11Z</time></trkpt><trkpt lat="45.115602560473164" lon="5.7517570851576485"><ele>384.5</ele><time>2026-04-28T07:12:12Z</time></trkpt><trkpt lat="45.115613980986964" lon="5.751654915374994"><ele>384.0</ele><time>2026-04-28T07:12:13Z</time></trkpt><trkpt lat="45.11562261544151" lon="5.751553312866614"><ele>384.0</ele><time>2026-04-28T07:12:14Z</time></trkpt><trkpt lat="45.115646965183" lon="5.751436330998619"><ele>384.0</ele><time>2026-04-28T07:12:15Z</time></trkpt><trkpt lat="45.11565144169443" lon="5.7513357640569795"><ele>384.0</ele><time>2026-04-28T07:12:16Z</time></trkpt><trkpt lat="45.11565743743591" lon="5.751227873823682"><ele>384.0</ele><time>2026-04-28T07:12:17Z</time></trkpt><trkpt lat="45.11567133714761" lon="5.751122621206394"><ele>384.0</ele><time>2026-04-28T07:12:18Z</time></trkpt><trkpt lat="45.11568286157165" lon="5.751032628013289"><ele>384.0</ele><time>2026-04-28T07:12:19Z</time></trkpt><trkpt lat="45.11572047635263" lon="5.750874402980722"><ele>384.0</ele><time>2026-04-28T07:12:21Z</time></trkpt><trkpt lat="45.11575697469525" lon="5.750755388447359"><ele>384.0</ele><time>2026-04-28T07:12:23Z</time></trkpt><trkpt lat="45.11585934629535" lon="5.750581675083573"><ele>384.0</ele><time>2026-04-28T07:12:25Z</time></trkpt><trkpt lat="45.11565432048459" lon="5.750637362071187"><ele>384.0</ele><time>2026-04-28T07:12:26Z</time></trkpt><trkpt lat="45.115547277636566" lon="5.750684911962105"><ele>384.0</ele><time>2026-04-28T07:12:28Z</time></trkpt><trkpt lat="45.115443580419225" lon="5.750713933289745"><ele>384.0</ele><time>2026-04-28T07:12:30Z</time></trkpt><trkpt lat="45.11532905569881" lon="5.750757381100161"><ele>384.0</ele><time>2026-04-28T07:12:32Z</time></trkpt><trkpt lat="45.115211357915854" lon="5.750820536998451"><ele>383.99999999999994</ele><time>2026-04-28T07:12:34Z</time></trkpt><trkpt lat="45.115147453207555" lon="5.750851287425248"><ele>384.0</ele><time>2026-04-28T07:12:35Z</time></trkpt><trkpt lat="45.11508533741134" lon="5.750883900426203"><ele>384.0</ele><time>2026-04-28T07:12:36Z</time></trkpt><trkpt lat="45.1150253833935" lon="5.750924364472366"><ele>384.0</ele><time>2026-04-28T07:12:37Z</time></trkpt><trkpt lat="45.11495908851126" lon="5.750961025179358"><ele>384.0</ele><time>2026-04-28T07:12:38Z</time></trkpt><trkpt lat="45.11489323504431" lon="5.750993527677371"><ele>383.99999999999994</ele><time>2026-04-28T07:12:39Z</time></trkpt><trkpt lat="45.11482588406072" lon="5.751026820004736"><ele>384.0</ele><time>2026-04-28T07:12:40Z</time></trkpt><trkpt lat="45.114761855693956" lon="5.751067171724308"><ele>383.4285714285714</ele><time>2026-04-28T07:12:41Z</time></trkpt><trkpt lat="45.114704882180405" lon="5.751115642394049"><ele>382.85714285714283</ele><time>2026-04-28T07:12:42Z</time></trkpt><trkpt lat="45.11464556215071" lon="5.751167065085664"><ele>382.2857142857143</ele><time>2026-04-28T07:12:43Z</time></trkpt><trkpt lat="45.11460782360837" lon="5.751266312872473"><ele>381.71428571428567</ele><time>2026-04-28T07:12:44Z</time></trkpt><trkpt lat="45.11457024909805" lon="5.751350925425564"><ele>381.14285714285717</ele><time>2026-04-28T07:12:45Z</time></trkpt><trkpt lat="45.11450877335993" lon="5.751419917254934"><ele>380.57142857142856</ele><time>2026-04-28T07:12:46Z</time></trkpt><trkpt lat="45.11444880126063" lon="5.751478461323805"><ele>380.0</ele><time>2026-04-28T07:12:47Z</time></trkpt><trkpt lat="45.1143775611727" lon="5.751489504808693"><ele>380.0</ele><time>2026-04-28T07:12:48Z</time></trkpt><trkpt lat="45.11430733305795" lon="5.751523171354404"><ele>380.0</ele><time>2026-04-28T07:12:49Z</time></trkpt><trkpt lat="45.11423458641833" lon="5.751574796604653"><ele>380.0</ele><time>2026-04-28T07:12:50Z</time></trkpt><trkpt lat="45.114160854190885" lon="5.75160016565931"><ele>380.0</ele><time>2026-04-28T07:12:51Z</time></trkpt><trkpt lat="45.11407843255148" lon="5.751618279024245"><ele>380.0</ele><time>2026-04-28T07:12:52Z</time></trkpt><trkpt lat="45.113995371406084" lon="5.751628832618597"><ele>380.0</ele><time>2026-04-28T07:12:53Z</time></trkpt><trkpt lat="45.113904227332974" lon="5.751632651298047"><ele>379.4</ele><time>2026-04-28T07:12:54Z</time></trkpt><trkpt lat="45.11381294655338" lon="5.751652662166168"><ele>378.8</ele><time>2026-04-28T07:12:55Z</time></trkpt><trkpt lat="45.11371787470925" lon="5.751685804542365"><ele>378.20000000000005</ele><time>2026-04-28T07:12:55.999Z</time></trkpt><trkpt lat="45.1136218250835" lon="5.751719170832519"><ele>377.6</ele><time>2026-04-28T07:12:56.999Z</time></trkpt><trkpt lat="45.11353047355551" lon="5.751746270228376"><ele>377.0</ele><time>2026-04-28T07:12:57.999Z</time></trkpt><trkpt lat="45.11343026877512" lon="5.751769816964812"><ele>377.0</ele><time>2026-04-28T07:12:58.999Z</time></trkpt><trkpt lat="45.113332343100055" lon="5.751792046673137"><ele>377.0</ele><time>2026-04-28T07:12:59.999Z</time></trkpt><trkpt lat="45.113243156640884" lon="5.751796337246221"><ele>377.0</ele><time>2026-04-28T07:13:00.999Z</time></trkpt><trkpt lat="45.113154616241935" lon="5.751782129530319"><ele>377.0</ele><time>2026-04-28T07:13:01.999Z</time></trkpt><trkpt lat="45.113054611736885" lon="5.751746835611576"><ele>377.0</ele><time>2026-04-28T07:13:02.999Z</time></trkpt><trkpt lat="45.112964121204996" lon="5.751688508016186"><ele>374.8</ele><time>2026-04-28T07:13:03.999Z</time></trkpt><trkpt lat="45.112876370252025" lon="5.751631651484893"><ele>372.6</ele><time>2026-04-28T07:13:04.999Z</time></trkpt><trkpt lat="45.112789463981194" lon="5.751580176444066"><ele>370.40000000000003</ele><time>2026-04-28T07:13:05.999Z</time></trkpt><trkpt lat="45.11270293446099" lon="5.751543633234205"><ele>368.20000000000005</ele><time>2026-04-28T07:13:06.999Z</time></trkpt><trkpt lat="45.11261544946192" lon="5.751511906352525"><ele>366.0</ele><time>2026-04-28T07:13:07.999Z</time></trkpt><trkpt lat="45.11252670530861" lon="5.751481831819711"><ele>366.0</ele><time>2026-04-28T07:13:08.999Z</time></trkpt><trkpt lat="45.11243754765773" lon="5.751468235050692"><ele>366.0</ele><time>2026-04-28T07:13:09.999Z</time></trkpt><trkpt lat="45.11234870858807" lon="5.7514631630323825"><ele>366.0</ele><time>2026-04-28T07:13:10.999Z</time></trkpt><trkpt lat="45.112258561952416" lon="5.751449111444146"><ele>366.0</ele><time>2026-04-28T07:13:11.999Z</time></trkpt><trkpt lat="45.112165088609366" lon="5.751434466395891"><ele>366.0</ele><time>2026-04-28T07:13:12.999Z</time></trkpt><trkpt lat="45.11206867772952" lon="5.751432772425913"><ele>365.20000000000005</ele><time>2026-04-28T07:13:13.999Z</time></trkpt><trkpt lat="45.11197877045626" lon="5.75141881628628"><ele>364.40000000000003</ele><time>2026-04-28T07:13:14.999Z</time></trkpt><trkpt lat="45.111882464870675" lon="5.751407031013343"><ele>363.6</ele><time>2026-04-28T07:13:15.999Z</time></trkpt><trkpt lat="45.11178370315441" lon="5.751394269485392"><ele>362.8</ele><time>2026-04-28T07:13:16.999Z</time></trkpt><trkpt lat="45.111684968223365" lon="5.751380941431279"><ele>362.0</ele><time>2026-04-28T07:13:17.999Z</time></trkpt><trkpt lat="45.111586235185946" lon="5.751376813961745"><ele>361.40000000000003</ele><time>2026-04-28T07:13:18.999Z</time></trkpt><trkpt lat="45.111485276640266" lon="5.75137557432746"><ele>360.8</ele><time>2026-04-28T07:13:19.999Z</time></trkpt><trkpt lat="45.111382801366844" lon="5.751359077677195"><ele>360.2</ele><time>2026-04-28T07:13:20.999Z</time></trkpt><trkpt lat="45.111285486683904" lon="5.751338459128509"><ele>359.6</ele><time>2026-04-28T07:13:21.999Z</time></trkpt><trkpt lat="45.1111852504441" lon="5.751315733570613"><ele>359.0</ele><time>2026-04-28T07:13:22.999Z</time></trkpt><trkpt lat="45.111087314089666" lon="5.751295131648571"><ele>359.0</ele><time>2026-04-28T07:13:23.999Z</time></trkpt><trkpt lat="45.11098775370958" lon="5.751286064966013"><ele>359.0</ele><time>2026-04-28T07:13:24.999Z</time></trkpt><trkpt lat="45.11089542244101" lon="5.751274667051289"><ele>359.0</ele><time>2026-04-28T07:13:25.999Z</time></trkpt><trkpt lat="45.11081221991566" lon="5.751266321429323"><ele>359.0</ele><time>2026-04-28T07:13:26.999Z</time></trkpt><trkpt lat="45.11073530072739" lon="5.751243776364222"><ele>359.0</ele><time>2026-04-28T07:13:27.999Z</time></trkpt><trkpt lat="45.110654965389955" lon="5.751240673407658"><ele>359.0</ele><time>2026-04-28T07:13:28.999Z</time></trkpt><trkpt lat="45.11054279653731" lon="5.751228494915965"><ele>358.0</ele><time>2026-04-28T07:13:30.999Z</time></trkpt><trkpt lat="45.11044659769186" lon="5.751192722289936"><ele>357.0</ele><time>2026-04-28T07:13:32.999Z</time></trkpt><trkpt lat="45.110350841726856" lon="5.751168923350568"><ele>356.0</ele><time>2026-04-28T07:13:34.999Z</time></trkpt><trkpt lat="45.11024517371409" lon="5.7511247824616305"><ele>355.0</ele><time>2026-04-28T07:13:36.999Z</time></trkpt><trkpt lat="45.110129001970975" lon="5.7511250429252785"><ele>354.0</ele><time>2026-04-28T07:13:38.999Z</time></trkpt><trkpt lat="45.11006631735872" lon="5.75114222217924"><ele>354.0</ele><time>2026-04-28T07:13:39.999Z</time></trkpt><trkpt lat="45.10997064143802" lon="5.751184435335802"><ele>354.0</ele><time>2026-04-28T07:13:41.999Z</time></trkpt><trkpt lat="45.1098854188418" lon="5.7512487258441185"><ele>354.0</ele><time>2026-04-28T07:13:43.999Z</time></trkpt><trkpt lat="45.10978913304066" lon="5.7512993133629084"><ele>354.0</ele><time>2026-04-28T07:13:45.999Z</time></trkpt><trkpt lat="45.10968988607938" lon="5.751378032897483"><ele>354.0</ele><time>2026-04-28T07:13:47.999Z</time></trkpt><trkpt lat="45.10960851717742" lon="5.751427830963393"><ele>353.4</ele><time>2026-04-28T07:13:49.999Z</time></trkpt><trkpt lat="45.1095160448163" lon="5.751481117955773"><ele>352.79999999999995</ele><time>2026-04-28T07:13:51.999Z</time></trkpt><trkpt lat="45.10942747457148" lon="5.751556844464316"><ele>352.20000000000005</ele><time>2026-04-28T07:13:53.999Z</time></trkpt><trkpt lat="45.10931689213572" lon="5.751606618643209"><ele>351.6</ele><time>2026-04-28T07:13:55.999Z</time></trkpt><trkpt lat="45.109210209148564" lon="5.751685252649149"><ele>351.0</ele><time>2026-04-28T07:13:57.999Z</time></trkpt><trkpt lat="45.10911627990486" lon="5.751642857127545"><ele>350.3333333333333</ele><time>2026-04-28T07:13:58.999Z</time></trkpt><trkpt lat="45.1090366678148" lon="5.751628883333055"><ele>349.6666666666667</ele><time>2026-04-28T07:13:59.999Z</time></trkpt><trkpt lat="45.108958020711505" lon="5.751619502180791"><ele>349.0</ele><time>2026-04-28T07:14:00.999Z</time></trkpt><trkpt lat="45.10888087178593" lon="5.751585374375215"><ele>348.33333333333337</ele><time>2026-04-28T07:14:02Z</time></trkpt><trkpt lat="45.10880589190232" lon="5.751504469980692"><ele>347.6666666666667</ele><time>2026-04-28T07:14:03Z</time></trkpt><trkpt lat="45.108738608448185" lon="5.751422727476682"><ele>347.0</ele><time>2026-04-28T07:14:04Z</time></trkpt><trkpt lat="45.10866322168087" lon="5.751361852283644"><ele>347.0</ele><time>2026-04-28T07:14:05Z</time></trkpt><trkpt lat="45.10858882080663" lon="5.751278504206288"><ele>347.0</ele><time>2026-04-28T07:14:06Z</time></trkpt><trkpt lat="45.10851018803232" lon="5.751200664351739"><ele>347.0</ele><time>2026-04-28T07:14:07Z</time></trkpt><trkpt lat="45.108443377310294" lon="5.75112645638282"><ele>347.0</ele><time>2026-04-28T07:14:08Z</time></trkpt><trkpt lat="45.10838869531247" lon="5.751032006952175"><ele>347.0</ele><time>2026-04-28T07:14:09Z</time></trkpt><trkpt lat="45.10833255890167" lon="5.750956165500158"><ele>347.0</ele><time>2026-04-28T07:14:10Z</time></trkpt><trkpt lat="45.10828615058996" lon="5.750881678732494"><ele>345.6666666666667</ele><time>2026-04-28T07:14:11Z</time></trkpt><trkpt lat="45.10823848125329" lon="5.750785607175094"><ele>344.33333333333337</ele><time>2026-04-28T07:14:12Z</time></trkpt><trkpt lat="45.10819764331797" lon="5.750680540201773"><ele>343.0</ele><time>2026-04-28T07:14:13Z</time></trkpt><trkpt lat="45.108160658759324" lon="5.750568450128853"><ele>341.6666666666667</ele><time>2026-04-28T07:14:14Z</time></trkpt><trkpt lat="45.10812817512352" lon="5.75044940666892"><ele>340.3333333333333</ele><time>2026-04-28T07:14:15Z</time></trkpt><trkpt lat="45.10810218000272" lon="5.750309673485264"><ele>339.0</ele><time>2026-04-28T07:14:16Z</time></trkpt><trkpt lat="45.10806746002366" lon="5.750192170500537"><ele>339.0</ele><time>2026-04-28T07:14:17Z</time></trkpt><trkpt lat="45.10804697090843" lon="5.750077283562216"><ele>339.0</ele><time>2026-04-28T07:14:18Z</time></trkpt><trkpt lat="45.10802016365277" lon="5.749983700183024"><ele>339.0</ele><time>2026-04-28T07:14:19Z</time></trkpt><trkpt lat="45.10798153496532" lon="5.749882453686696"><ele>339.0</ele><time>2026-04-28T07:14:20Z</time></trkpt><trkpt lat="45.1079301528671" lon="5.749786696216948"><ele>339.0</ele><time>2026-04-28T07:14:21Z</time></trkpt><trkpt lat="45.10788075864408" lon="5.749691855349118"><ele>339.0</ele><time>2026-04-28T07:14:22Z</time></trkpt><trkpt lat="45.10783328613175" lon="5.749615143879669"><ele>339.0</ele><time>2026-04-28T07:14:23Z</time></trkpt><trkpt lat="45.10774032723971" lon="5.749536484503393"><ele>339.0</ele><time>2026-04-28T07:14:25Z</time></trkpt><trkpt lat="45.10762486238198" lon="5.749450493963788"><ele>339.0</ele><time>2026-04-28T07:14:27Z</time></trkpt><trkpt lat="45.107573478328234" lon="5.74939562161732"><ele>339.0</ele><time>2026-04-28T07:14:28Z</time></trkpt><trkpt lat="45.107506255360754" lon="5.749352278121322"><ele>339.0</ele><time>2026-04-28T07:14:29Z</time></trkpt><trkpt lat="45.10742590682308" lon="5.749337858976532"><ele>336.79999999999995</ele><time>2026-04-28T07:14:30Z</time></trkpt><trkpt lat="45.10732347255309" lon="5.749303612985504"><ele>334.59999999999997</ele><time>2026-04-28T07:14:31Z</time></trkpt><trkpt lat="45.10722545338259" lon="5.749282234007191"><ele>332.4</ele><time>2026-04-28T07:14:32Z</time></trkpt><trkpt lat="45.10712593674554" lon="5.749268516808708"><ele>330.2</ele><time>2026-04-28T07:14:33Z</time></trkpt><trkpt lat="45.10704396360825" lon="5.749187381577774"><ele>328.0</ele><time>2026-04-28T07:14:34Z</time></trkpt><trkpt lat="45.10695799703061" lon="5.749136722375732"><ele>328.0</ele><time>2026-04-28T07:14:35Z</time></trkpt><trkpt lat="45.106887649386" lon="5.749051428107245"><ele>328.0</ele><time>2026-04-28T07:14:36Z</time></trkpt><trkpt lat="45.10683610914498" lon="5.748930874567668"><ele>328.0</ele><time>2026-04-28T07:14:37Z</time></trkpt><trkpt lat="45.10678494846776" lon="5.748806959233155"><ele>328.0</ele><time>2026-04-28T07:14:38Z</time></trkpt><trkpt lat="45.1067358597619" lon="5.748680728851178"><ele>328.0</ele><time>2026-04-28T07:14:39Z</time></trkpt><trkpt lat="45.10668569260652" lon="5.748565378318299"><ele>328.8333333333333</ele><time>2026-04-28T07:14:40Z</time></trkpt><trkpt lat="45.10663915518343" lon="5.748456410715799"><ele>329.66666666666663</ele><time>2026-04-28T07:14:41Z</time></trkpt><trkpt lat="45.10658807056104" lon="5.748342094937162"><ele>330.5</ele><time>2026-04-28T07:14:42Z</time></trkpt><trkpt lat="45.10655668207619" lon="5.748236349695334"><ele>331.3333333333333</ele><time>2026-04-28T07:14:43Z</time></trkpt><trkpt lat="45.10651408280329" lon="5.748147047333666"><ele>332.1666666666667</ele><time>2026-04-28T07:14:44Z</time></trkpt><trkpt lat="45.106476344462024" lon="5.748055047259873"><ele>333.0</ele><time>2026-04-28T07:14:45Z</time></trkpt><trkpt lat="45.1064288462399" lon="5.747958204109162"><ele>332.0</ele><time>2026-04-28T07:14:46Z</time></trkpt><trkpt lat="45.10638287466197" lon="5.747865972175779"><ele>331.0</ele><time>2026-04-28T07:14:47Z</time></trkpt><trkpt lat="45.10633311462299" lon="5.74778894089673"><ele>330.0</ele><time>2026-04-28T07:14:48Z</time></trkpt><trkpt lat="45.10627622363231" lon="5.74772377511848"><ele>329.0</ele><time>2026-04-28T07:14:49Z</time></trkpt><trkpt lat="45.10623119010641" lon="5.747639325444267"><ele>328.0</ele><time>2026-04-28T07:14:50Z</time></trkpt><trkpt lat="45.106188351172044" lon="5.747555083137271"><ele>327.0</ele><time>2026-04-28T07:14:51Z</time></trkpt><trkpt lat="45.10614035021662" lon="5.747482806710855"><ele>326.0</ele><time>2026-04-28T07:14:52Z</time></trkpt><trkpt lat="45.10609967787993" lon="5.7474086991777815"><ele>326.0</ele><time>2026-04-28T07:14:53Z</time></trkpt><trkpt lat="45.10604754183031" lon="5.747330710708079"><ele>326.0</ele><time>2026-04-28T07:14:54Z</time></trkpt><trkpt lat="45.106009322583375" lon="5.747247491709659"><ele>326.0</ele><time>2026-04-28T07:14:55Z</time></trkpt><trkpt lat="45.10596562824811" lon="5.74716412946096"><ele>326.0</ele><time>2026-04-28T07:14:56Z</time></trkpt><trkpt lat="45.105929021940135" lon="5.747076914300167"><ele>326.0</ele><time>2026-04-28T07:14:57Z</time></trkpt><trkpt lat="45.105893327945246" lon="5.746989525948419"><ele>326.0</ele><time>2026-04-28T07:14:58Z</time></trkpt><trkpt lat="45.105855136381045" lon="5.746904457177671"><ele>326.0</ele><time>2026-04-28T07:14:59Z</time></trkpt><trkpt lat="45.105812442715866" lon="5.746826488278887"><ele>326.0</ele><time>2026-04-28T07:15:00Z</time></trkpt><trkpt lat="45.105764991173736" lon="5.746747548985987"><ele>326.0</ele><time>2026-04-28T07:15:01Z</time></trkpt><trkpt lat="45.105718160164976" lon="5.746665911232267"><ele>326.0</ele><time>2026-04-28T07:15:02Z</time></trkpt><trkpt lat="45.105680186876945" lon="5.746570792130121"><ele>326.0</ele><time>2026-04-28T07:15:03Z</time></trkpt><trkpt lat="45.105643249378076" lon="5.746486225466513"><ele>326.0</ele><time>2026-04-28T07:15:03.999Z</time></trkpt><trkpt lat="45.105610564574675" lon="5.746401901831527"><ele>326.0</ele><time>2026-04-28T07:15:04.999Z</time></trkpt><trkpt lat="45.10557545949974" lon="5.746325284584445"><ele>326.0</ele><time>2026-04-28T07:15:05.999Z</time></trkpt><trkpt lat="45.105541682685576" lon="5.7462489324770205"><ele>325.42857142857144</ele><time>2026-04-28T07:15:06.999Z</time></trkpt><trkpt lat="45.10549810033683" lon="5.746161818225393"><ele>324.85714285714283</ele><time>2026-04-28T07:15:07.999Z</time></trkpt><trkpt lat="45.105457520766926" lon="5.746082129750633"><ele>324.2857142857143</ele><time>2026-04-28T07:15:08.999Z</time></trkpt><trkpt lat="45.10541668279801" lon="5.746009300516265"><ele>323.7142857142857</ele><time>2026-04-28T07:15:09.999Z</time></trkpt><trkpt lat="45.10536633281497" lon="5.745940371785357"><ele>323.1428571428571</ele><time>2026-04-28T07:15:10.999Z</time></trkpt><trkpt lat="45.10532151573096" lon="5.745870874385699"><ele>322.57142857142856</ele><time>2026-04-28T07:15:11.999Z</time></trkpt><trkpt lat="45.10526563919104" lon="5.745761465978682"><ele>322.0</ele><time>2026-04-28T07:15:13.999Z</time></trkpt><trkpt lat="45.10527632785601" lon="5.7458555764316275"><ele>322.0</ele><time>2026-04-28T07:15:20.999Z</time></trkpt><trkpt lat="45.10532799427956" lon="5.745934183326592"><ele>322.0</ele><time>2026-04-28T07:15:23.999Z</time></trkpt><trkpt lat="45.10536278428539" lon="5.746022732001249"><ele>322.0</ele><time>2026-04-28T07:15:25.999Z</time></trkpt><trkpt lat="45.10542560908006" lon="5.746119172644991"><ele>322.0</ele><time>2026-04-28T07:15:27.999Z</time></trkpt><trkpt lat="45.105483605579174" lon="5.746224659598187"><ele>322.0</ele><time>2026-04-28T07:15:29.999Z</time></trkpt><trkpt lat="45.10554650954443" lon="5.7463310951883955"><ele>322.0</ele><time>2026-04-28T07:15:31.999Z</time></trkpt><trkpt lat="45.10558555181613" lon="5.7464415578601935"><ele>321.8</ele><time>2026-04-28T07:15:33.999Z</time></trkpt><trkpt lat="45.105576531760654" lon="5.74657698210931"><ele>321.6</ele><time>2026-04-28T07:15:35.999Z</time></trkpt><trkpt lat="45.105466744754416" lon="5.74666304661701"><ele>321.40000000000003</ele><time>2026-04-28T07:15:37.999Z</time></trkpt><trkpt lat="45.10539221744258" lon="5.746664513483693"><ele>321.20000000000005</ele><time>2026-04-28T07:15:38.999Z</time></trkpt><trkpt lat="45.105331944650324" lon="5.746730966761371"><ele>321.0</ele><time>2026-04-28T07:15:39.999Z</time></trkpt><trkpt lat="45.1052567809113" lon="5.746783371150648"><ele>321.0</ele><time>2026-04-28T07:15:40.999Z</time></trkpt><trkpt lat="45.10517273800941" lon="5.746799726468024"><ele>321.0</ele><time>2026-04-28T07:15:41.999Z</time></trkpt><trkpt lat="45.105091154757" lon="5.746750389939475"><ele>321.0</ele><time>2026-04-28T07:15:42.999Z</time></trkpt><trkpt lat="45.1050214503347" lon="5.746689386274123"><ele>321.0</ele><time>2026-04-28T07:15:43.999Z</time></trkpt><trkpt lat="45.104951143962595" lon="5.746679412415545"><ele>321.0</ele><time>2026-04-28T07:15:44.999Z</time></trkpt><trkpt lat="45.10488259197347" lon="5.746733861532682"><ele>321.0</ele><time>2026-04-28T07:15:45.999Z</time></trkpt><trkpt lat="45.10483803033543" lon="5.746843149659424"><ele>319.5</ele><time>2026-04-28T07:15:46.999Z</time></trkpt><trkpt lat="45.10479923725821" lon="5.746949150632872"><ele>318.0</ele><time>2026-04-28T07:15:47.999Z</time></trkpt><trkpt lat="45.10476171470849" lon="5.747048369765928"><ele>316.5</ele><time>2026-04-28T07:15:48.999Z</time></trkpt><trkpt lat="45.104703217573956" lon="5.747145424531499"><ele>315.0</ele><time>2026-04-28T07:15:49.999Z</time></trkpt><trkpt lat="45.10466667932226" lon="5.747248121384989"><ele>313.5</ele><time>2026-04-28T07:15:50.999Z</time></trkpt><trkpt lat="45.10463301990138" lon="5.747352164920475"><ele>312.0</ele><time>2026-04-28T07:15:51.999Z</time></trkpt><trkpt lat="45.10457654902231" lon="5.747469300247415"><ele>312.0</ele><time>2026-04-28T07:15:52.999Z</time></trkpt><trkpt lat="45.10451565393996" lon="5.747588015139453"><ele>312.0</ele><time>2026-04-28T07:15:53.999Z</time></trkpt><trkpt lat="45.104454533728855" lon="5.747712112321475"><ele>312.0</ele><time>2026-04-28T07:15:54.999Z</time></trkpt><trkpt lat="45.10439427758867" lon="5.747837517007476"><ele>312.0</ele><time>2026-04-28T07:15:55.999Z</time></trkpt><trkpt lat="45.104336668708875" lon="5.747975174878088"><ele>312.0</ele><time>2026-04-28T07:15:56.999Z</time></trkpt><trkpt lat="45.10428021374579" lon="5.748118976148313"><ele>311.25</ele><time>2026-04-28T07:15:57.999Z</time></trkpt><trkpt lat="45.10423886043334" lon="5.748269379313478"><ele>310.5</ele><time>2026-04-28T07:15:58.999Z</time></trkpt><trkpt lat="45.104225212327975" lon="5.748424141941355"><ele>309.75</ele><time>2026-04-28T07:15:59.999Z</time></trkpt><trkpt lat="45.10424411473039" lon="5.748586319171163"><ele>309.0</ele><time>2026-04-28T07:16:00.999Z</time></trkpt><trkpt lat="45.1042776354235" lon="5.748738159753337"><ele>308.59999999999997</ele><time>2026-04-28T07:16:01.999Z</time></trkpt><trkpt lat="45.104288077190624" lon="5.748886932427032"><ele>308.2</ele><time>2026-04-28T07:16:02.999Z</time></trkpt><trkpt lat="45.1042944279813" lon="5.7490194723268955"><ele>307.79999999999995</ele><time>2026-04-28T07:16:03.999Z</time></trkpt><trkpt lat="45.1042824135741" lon="5.749150030565941"><ele>307.4</ele><time>2026-04-28T07:16:04.999Z</time></trkpt><trkpt lat="45.10426026337835" lon="5.749272351449091"><ele>307.0</ele><time>2026-04-28T07:16:05.999Z</time></trkpt><trkpt lat="45.10424438230899" lon="5.749398138843536"><ele>306.66666666666663</ele><time>2026-04-28T07:16:06.999Z</time></trkpt><trkpt lat="45.10419953566547" lon="5.749498073507216"><ele>306.3333333333333</ele><time>2026-04-28T07:16:08Z</time></trkpt><trkpt lat="45.104153660588835" lon="5.74960531751566"><ele>306.0</ele><time>2026-04-28T07:16:09Z</time></trkpt><trkpt lat="45.104087877566826" lon="5.749687616947061"><ele>305.6666666666667</ele><time>2026-04-28T07:16:10Z</time></trkpt><trkpt lat="45.104032443622735" lon="5.749773440319808"><ele>305.33333333333337</ele><time>2026-04-28T07:16:11Z</time></trkpt><trkpt lat="45.10397979369187" lon="5.749851246550064"><ele>305.0</ele><time>2026-04-28T07:16:12Z</time></trkpt><trkpt lat="45.10389236595754" lon="5.74985742028103"><ele>305.0</ele><time>2026-04-28T07:16:13Z</time></trkpt><trkpt lat="45.10380507116048" lon="5.74983600928872"><ele>305.0</ele><time>2026-04-28T07:16:14Z</time></trkpt><trkpt lat="45.103721305421715" lon="5.749787975994643"><ele>305.0</ele><time>2026-04-28T07:16:15Z</time></trkpt><trkpt lat="45.103627053570655" lon="5.7497675028452395"><ele>305.0</ele><time>2026-04-28T07:16:16Z</time></trkpt><trkpt lat="45.103534146981104" lon="5.749776050273621"><ele>305.0</ele><time>2026-04-28T07:16:17Z</time></trkpt><trkpt lat="45.10343574702584" lon="5.749789935154637"><ele>305.0</ele><time>2026-04-28T07:16:18Z</time></trkpt><trkpt lat="45.10334543999881" lon="5.749857691091999"><ele>305.0</ele><time>2026-04-28T07:16:19Z</time></trkpt><trkpt lat="45.103277235622144" lon="5.74995986335649"><ele>305.0</ele><time>2026-04-28T07:16:20Z</time></trkpt><trkpt lat="45.103181532125355" lon="5.750030400839445"><ele>305.0</ele><time>2026-04-28T07:16:21Z</time></trkpt><trkpt lat="45.103119600607535" lon="5.7501207186244425"><ele>305.0</ele><time>2026-04-28T07:16:22Z</time></trkpt><trkpt lat="45.103044965126394" lon="5.75018258074453"><ele>304.2</ele><time>2026-04-28T07:16:23Z</time></trkpt><trkpt lat="45.10297179948739" lon="5.7502676268876955"><ele>303.4</ele><time>2026-04-28T07:16:24Z</time></trkpt><trkpt lat="45.102904326438065" lon="5.750349260991039"><ele>302.6</ele><time>2026-04-28T07:16:25Z</time></trkpt><trkpt lat="45.1028320799344" lon="5.7504262723540895"><ele>301.8</ele><time>2026-04-28T07:16:26Z</time></trkpt><trkpt lat="45.102762686636304" lon="5.7505052732970885"><ele>301.0</ele><time>2026-04-28T07:16:27Z</time></trkpt><trkpt lat="45.102693510849456" lon="5.750580543242194"><ele>301.0</ele><time>2026-04-28T07:16:28Z</time></trkpt><trkpt lat="45.102625178436924" lon="5.750661698007683"><ele>301.0</ele><time>2026-04-28T07:16:29Z</time></trkpt><trkpt lat="45.102546560819825" lon="5.750722333378612"><ele>301.0</ele><time>2026-04-28T07:16:30Z</time></trkpt><trkpt lat="45.1024763164551" lon="5.750790264960254"><ele>301.0</ele><time>2026-04-28T07:16:31Z</time></trkpt><trkpt lat="45.10241060995518" lon="5.750872548897044"><ele>301.0</ele><time>2026-04-28T07:16:32Z</time></trkpt><trkpt lat="45.10235207627281" lon="5.750953908525695"><ele>301.0</ele><time>2026-04-28T07:16:33Z</time></trkpt><trkpt lat="45.102297997113006" lon="5.751040943912709"><ele>301.40000000000003</ele><time>2026-04-28T07:16:34Z</time></trkpt><trkpt lat="45.10224418491586" lon="5.751128039128182"><ele>301.8</ele><time>2026-04-28T07:16:35Z</time></trkpt><trkpt lat="45.10219664577411" lon="5.751213378836219"><ele>302.20000000000005</ele><time>2026-04-28T07:16:36Z</time></trkpt><trkpt lat="45.1021498419071" lon="5.75129259681109"><ele>302.6</ele><time>2026-04-28T07:16:37Z</time></trkpt><trkpt lat="45.10208369675262" lon="5.751419921052926"><ele>303.0</ele><time>2026-04-28T07:16:39Z</time></trkpt><trkpt lat="45.10200422644202" lon="5.751525822833915"><ele>303.0</ele><time>2026-04-28T07:16:41Z</time></trkpt><trkpt lat="45.10188722896932" lon="5.751524869524149"><ele>303.0</ele><time>2026-04-28T07:16:43Z</time></trkpt><trkpt lat="45.101831724148354" lon="5.75144924886776"><ele>303.0</ele><time>2026-04-28T07:16:44Z</time></trkpt><trkpt lat="45.10179864581311" lon="5.751346422182312"><ele>303.0</ele><time>2026-04-28T07:16:45Z</time></trkpt><trkpt lat="45.101742997006234" lon="5.751258074361165"><ele>303.0</ele><time>2026-04-28T07:16:46Z</time></trkpt><trkpt lat="45.101682771392525" lon="5.75116920801391"><ele>303.0</ele><time>2026-04-28T07:16:47Z</time></trkpt><trkpt lat="45.10162912940226" lon="5.751072178281132"><ele>301.6</ele><time>2026-04-28T07:16:48Z</time></trkpt><trkpt lat="45.10156866019258" lon="5.7509699967262815"><ele>300.20000000000005</ele><time>2026-04-28T07:16:49Z</time></trkpt><trkpt lat="45.10150558145677" lon="5.750861590019311"><ele>298.8</ele><time>2026-04-28T07:16:50Z</time></trkpt><trkpt lat="45.10143809462229" lon="5.750753630257973"><ele>297.40000000000003</ele><time>2026-04-28T07:16:51Z</time></trkpt><trkpt lat="45.101359457343484" lon="5.750650247953706"><ele>296.0</ele><time>2026-04-28T07:16:52Z</time></trkpt><trkpt lat="45.10127217049468" lon="5.750551752767652"><ele>296.0</ele><time>2026-04-28T07:16:53Z</time></trkpt><trkpt lat="45.10117790691067" lon="5.750459990553157"><ele>296.0</ele><time>2026-04-28T07:16:54Z</time></trkpt><trkpt lat="45.10108068364844" lon="5.750369634191208"><ele>296.0</ele><time>2026-04-28T07:16:55Z</time></trkpt><trkpt lat="45.10097939189773" lon="5.750276413660003"><ele>296.0</ele><time>2026-04-28T07:16:56Z</time></trkpt><trkpt lat="45.10087692707106" lon="5.750183435611233"><ele>294.75</ele><time>2026-04-28T07:16:57Z</time></trkpt><trkpt lat="45.100772653081385" lon="5.750080504787267"><ele>293.5</ele><time>2026-04-28T07:16:58Z</time></trkpt><trkpt lat="45.10067411900043" lon="5.749975069271128"><ele>292.25</ele><time>2026-04-28T07:16:59Z</time></trkpt><trkpt lat="45.10057345923289" lon="5.749865332435449"><ele>291.0</ele><time>2026-04-28T07:17:00Z</time></trkpt><trkpt lat="45.1004864102041" lon="5.749738876393459"><ele>290.75</ele><time>2026-04-28T07:17:01Z</time></trkpt><trkpt lat="45.10037378006739" lon="5.749631242652047"><ele>290.5</ele><time>2026-04-28T07:17:02Z</time></trkpt><trkpt lat="45.10025609902888" lon="5.749553278077124"><ele>290.25</ele><time>2026-04-28T07:17:03Z</time></trkpt><trkpt lat="45.10015188955563" lon="5.74946408712882"><ele>290.0</ele><time>2026-04-28T07:17:04Z</time></trkpt><trkpt lat="45.10004427059502" lon="5.749370764311951"><ele>289.0</ele><time>2026-04-28T07:17:05Z</time></trkpt><trkpt lat="45.099940172423246" lon="5.749271226176844"><ele>288.0</ele><time>2026-04-28T07:17:06Z</time></trkpt><trkpt lat="45.09983469120838" lon="5.749178368798612"><ele>287.0</ele><time>2026-04-28T07:17:07Z</time></trkpt><trkpt lat="45.099733942252286" lon="5.749083006054831"><ele>286.0</ele><time>2026-04-28T07:17:08Z</time></trkpt><trkpt lat="45.09962844299169" lon="5.748991504032476"><ele>286.0</ele><time>2026-04-28T07:17:09Z</time></trkpt><trkpt lat="45.099526458979405" lon="5.748900834493233"><ele>286.0</ele><time>2026-04-28T07:17:10Z</time></trkpt><trkpt lat="45.09942877747562" lon="5.74881564243942"><ele>286.0</ele><time>2026-04-28T07:17:11Z</time></trkpt><trkpt lat="45.09933550961047" lon="5.7487134460887415"><ele>286.0</ele><time>2026-04-28T07:17:12Z</time></trkpt><trkpt lat="45.099230836495785" lon="5.748640756098683"><ele>286.0</ele><time>2026-04-28T07:17:13Z</time></trkpt><trkpt lat="45.09913688584733" lon="5.748550795443113"><ele>286.0</ele><time>2026-04-28T07:17:14Z</time></trkpt><trkpt lat="45.099039243296005" lon="5.748459180843317"><ele>286.0</ele><time>2026-04-28T07:17:15Z</time></trkpt><trkpt lat="45.09894628102667" lon="5.748368972728792"><ele>286.0</ele><time>2026-04-28T07:17:16Z</time></trkpt><trkpt lat="45.09884861858481" lon="5.748277370744415"><ele>283.75</ele><time>2026-04-28T07:17:16.999Z</time></trkpt><trkpt lat="45.09875048247914" lon="5.748193876802452"><ele>281.5</ele><time>2026-04-28T07:17:17.999Z</time></trkpt><trkpt lat="45.09865184961541" lon="5.7481049285860735"><ele>279.25</ele><time>2026-04-28T07:17:18.999Z</time></trkpt><trkpt lat="45.09854940419408" lon="5.748035679222121"><ele>277.0</ele><time>2026-04-28T07:17:19.999Z</time></trkpt><trkpt lat="45.09844811696715" lon="5.747960515308556"><ele>277.0</ele><time>2026-04-28T07:17:20.999Z</time></trkpt><trkpt lat="45.098346972392136" lon="5.747886925053565"><ele>277.0</ele><time>2026-04-28T07:17:21.999Z</time></trkpt><trkpt lat="45.09824815981705" lon="5.747809784235975"><ele>277.0</ele><time>2026-04-28T07:17:22.999Z</time></trkpt><trkpt lat="45.09815115689895" lon="5.747737881116401"><ele>277.0</ele><time>2026-04-28T07:17:23.999Z</time></trkpt><trkpt lat="45.09805157485117" lon="5.747666327043031"><ele>277.0</ele><time>2026-04-28T07:17:24.999Z</time></trkpt><trkpt lat="45.097958996595644" lon="5.747596971956933"><ele>276.2</ele><time>2026-04-28T07:17:25.999Z</time></trkpt><trkpt lat="45.09788807145221" lon="5.7474958024145115"><ele>275.4</ele><time>2026-04-28T07:17:26.999Z</time></trkpt><trkpt lat="45.097809311570934" lon="5.747397950877959"><ele>274.6</ele><time>2026-04-28T07:17:27.999Z</time></trkpt><trkpt lat="45.097729974621345" lon="5.747302945920986"><ele>273.8</ele><time>2026-04-28T07:17:28.999Z</time></trkpt><trkpt lat="45.097659351165255" lon="5.747179636568151"><ele>273.0</ele><time>2026-04-28T07:17:29.999Z</time></trkpt><trkpt lat="45.09759492493668" lon="5.747061100112753"><ele>273.0</ele><time>2026-04-28T07:17:30.999Z</time></trkpt><trkpt lat="45.09753167494728" lon="5.7469406805469045"><ele>273.0</ele><time>2026-04-28T07:17:31.999Z</time></trkpt><trkpt lat="45.09746870959206" lon="5.74681691678604"><ele>273.0</ele><time>2026-04-28T07:17:32.999Z</time></trkpt><trkpt lat="45.09741529521104" lon="5.746691346183176"><ele>273.0</ele><time>2026-04-28T07:17:33.999Z</time></trkpt><trkpt lat="45.09735716797847" lon="5.746566507792299"><ele>273.0</ele><time>2026-04-28T07:17:34.999Z</time></trkpt><trkpt lat="45.09730099745842" lon="5.746450427099773"><ele>272.1666666666667</ele><time>2026-04-28T07:17:35.999Z</time></trkpt><trkpt lat="45.097245627885826" lon="5.7463457509155145"><ele>271.3333333333333</ele><time>2026-04-28T07:17:36.999Z</time></trkpt><trkpt lat="45.09718427308005" lon="5.7462503680421495"><ele>270.5</ele><time>2026-04-28T07:17:37.999Z</time></trkpt><trkpt lat="45.09712278700259" lon="5.7461558019841865"><ele>269.66666666666663</ele><time>2026-04-28T07:17:38.999Z</time></trkpt><trkpt lat="45.09706482795357" lon="5.74606683677133"><ele>268.8333333333333</ele><time>2026-04-28T07:17:39.999Z</time></trkpt><trkpt lat="45.09700166739295" lon="5.745987862004851"><ele>268.0</ele><time>2026-04-28T07:17:40.999Z</time></trkpt><trkpt lat="45.0969396108483" lon="5.745915456353243"><ele>268.0</ele><time>2026-04-28T07:17:41.999Z</time></trkpt><trkpt lat="45.09688094962198" lon="5.745831759291314"><ele>268.0</ele><time>2026-04-28T07:17:42.999Z</time></trkpt><trkpt lat="45.09680697744111" lon="5.7457855791517884"><ele>268.0</ele><time>2026-04-28T07:17:43.999Z</time></trkpt><trkpt lat="45.09673958814735" lon="5.745720383957263"><ele>268.0</ele><time>2026-04-28T07:17:44.999Z</time></trkpt><trkpt lat="45.09667476704315" lon="5.7456522450388565"><ele>268.0</ele><time>2026-04-28T07:17:45.999Z</time></trkpt><trkpt lat="45.09660356302102" lon="5.745593802140471"><ele>268.0</ele><time>2026-04-28T07:17:46.999Z</time></trkpt><trkpt lat="45.0965383403191" lon="5.745554841164921"><ele>269.0</ele><time>2026-04-28T07:17:47.999Z</time></trkpt><trkpt lat="45.096478606888994" lon="5.745508889202493"><ele>270.0</ele><time>2026-04-28T07:17:49.999Z</time></trkpt><trkpt lat="45.09639403691556" lon="5.74547554118622"><ele>271.0</ele><time>2026-04-28T07:18:05.999Z</time></trkpt><trkpt lat="45.096308859965575" lon="5.74543268666294"><ele>272.0</ele><time>2026-04-28T07:18:07.999Z</time></trkpt><trkpt lat="45.09620609121325" lon="5.745406301770587"><ele>273.0</ele><time>2026-04-28T07:18:09.999Z</time></trkpt><trkpt lat="45.0960912295564" lon="5.745374377347751"><ele>273.0</ele><time>2026-04-28T07:18:11.999Z</time></trkpt><trkpt lat="45.095979951147996" lon="5.745363338639393"><ele>273.0</ele><time>2026-04-28T07:18:14Z</time></trkpt><trkpt lat="45.09591558016027" lon="5.745352035663072"><ele>273.0</ele><time>2026-04-28T07:18:15Z</time></trkpt><trkpt lat="45.09579186035518" lon="5.745311871909971"><ele>273.0</ele><time>2026-04-28T07:18:17Z</time></trkpt><trkpt lat="45.09573146870728" lon="5.745280855440983"><ele>273.0</ele><time>2026-04-28T07:18:18Z</time></trkpt><trkpt lat="45.095671740238316" lon="5.745235000655359"><ele>273.0</ele><time>2026-04-28T07:18:19Z</time></trkpt><trkpt lat="45.095613686498865" lon="5.745183591563174"><ele>272.7142857142857</ele><time>2026-04-28T07:18:20Z</time></trkpt><trkpt lat="45.09556451738621" lon="5.745125097543483"><ele>272.42857142857144</ele><time>2026-04-28T07:18:21Z</time></trkpt><trkpt lat="45.09550748644231" lon="5.74506937227704"><ele>272.1428571428571</ele><time>2026-04-28T07:18:22Z</time></trkpt><trkpt lat="45.095452351636695" lon="5.745012787363667"><ele>271.8571428571429</ele><time>2026-04-28T07:18:23Z</time></trkpt><trkpt lat="45.09539697885548" lon="5.744953514181019"><ele>271.57142857142856</ele><time>2026-04-28T07:18:24Z</time></trkpt><trkpt lat="45.09534185573436" lon="5.744897479845441"><ele>271.2857142857143</ele><time>2026-04-28T07:18:25Z</time></trkpt><trkpt lat="45.095282353784654" lon="5.744841961433407"><ele>271.0</ele><time>2026-04-28T07:18:26Z</time></trkpt><trkpt lat="45.09522380913818" lon="5.74478923564117"><ele>271.0</ele><time>2026-04-28T07:18:27Z</time></trkpt><trkpt lat="45.09516762631573" lon="5.744732535385068"><ele>271.0</ele><time>2026-04-28T07:18:28Z</time></trkpt><trkpt lat="45.0951080494462" lon="5.744676017536332"><ele>271.0</ele><time>2026-04-28T07:18:29Z</time></trkpt><trkpt lat="45.0950495806684" lon="5.744622713949899"><ele>271.0</ele><time>2026-04-28T07:18:30Z</time></trkpt><trkpt lat="45.0949951137126" lon="5.744560415863244"><ele>271.0</ele><time>2026-04-28T07:18:31Z</time></trkpt><trkpt lat="45.094936270170976" lon="5.744509468034042"><ele>271.0</ele><time>2026-04-28T07:18:32Z</time></trkpt><trkpt lat="45.09487991578831" lon="5.744435019819693"><ele>271.0</ele><time>2026-04-28T07:18:33Z</time></trkpt><trkpt lat="45.094816241137444" lon="5.744395139208025"><ele>271.0</ele><time>2026-04-28T07:18:34Z</time></trkpt><trkpt lat="45.09476090350085" lon="5.744332905267379"><ele>271.0</ele><time>2026-04-28T07:18:35Z</time></trkpt><trkpt lat="45.0947037411719" lon="5.744279050130473"><ele>271.0</ele><time>2026-04-28T07:18:36Z</time></trkpt><trkpt lat="45.09463932833263" lon="5.744223077839661"><ele>271.0</ele><time>2026-04-28T07:18:37Z</time></trkpt><trkpt lat="45.09458836474775" lon="5.744145708770558"><ele>271.0</ele><time>2026-04-28T07:18:38Z</time></trkpt><trkpt lat="45.094529034871094" lon="5.744084891422"><ele>271.0</ele><time>2026-04-28T07:18:39Z</time></trkpt><trkpt lat="45.09447851171411" lon="5.744021353659548"><ele>271.0</ele><time>2026-04-28T07:18:40Z</time></trkpt><trkpt lat="45.094425538424716" lon="5.74395825459783"><ele>271.0</ele><time>2026-04-28T07:18:41Z</time></trkpt><trkpt lat="45.09440280632316" lon="5.743857791880818"><ele>271.0</ele><time>2026-04-28T07:18:42Z</time></trkpt><trkpt lat="45.094394902142554" lon="5.743753237007343"><ele>271.0</ele><time>2026-04-28T07:18:43Z</time></trkpt><trkpt lat="45.09440177865078" lon="5.743644361060197"><ele>271.0</ele><time>2026-04-28T07:18:44Z</time></trkpt><trkpt lat="45.094440233265715" lon="5.74354140971154"><ele>271.0</ele><time>2026-04-28T07:18:45Z</time></trkpt><trkpt lat="45.09448801333983" lon="5.743457205495091"><ele>271.0</ele><time>2026-04-28T07:18:46Z</time></trkpt><trkpt lat="45.09453009545044" lon="5.74337035996425"><ele>270.8333333333333</ele><time>2026-04-28T07:18:47Z</time></trkpt><trkpt lat="45.094569205087616" lon="5.743275569706672"><ele>270.66666666666663</ele><time>2026-04-28T07:18:48Z</time></trkpt><trkpt lat="45.094606543141204" lon="5.743176846941985"><ele>270.5</ele><time>2026-04-28T07:18:49Z</time></trkpt><trkpt lat="45.09464894064857" lon="5.743086973365569"><ele>270.3333333333333</ele><time>2026-04-28T07:18:50Z</time></trkpt><trkpt lat="45.09469238565275" lon="5.742992449469986"><ele>270.1666666666667</ele><time>2026-04-28T07:18:51Z</time></trkpt><trkpt lat="45.09473123829813" lon="5.7428909962862225"><ele>270.0</ele><time>2026-04-28T07:18:52Z</time></trkpt><trkpt lat="45.0947657691415" lon="5.742785457110242"><ele>270.1666666666667</ele><time>2026-04-28T07:18:53Z</time></trkpt><trkpt lat="45.094801311352654" lon="5.742692976934837"><ele>270.3333333333333</ele><time>2026-04-28T07:18:54Z</time></trkpt><trkpt lat="45.09483675531099" lon="5.742591451026977"><ele>270.5</ele><time>2026-04-28T07:18:55Z</time></trkpt><trkpt lat="45.09487387845186" lon="5.742493843022669"><ele>270.66666666666663</ele><time>2026-04-28T07:18:56Z</time></trkpt><trkpt lat="45.09491129122978" lon="5.742396896368016"><ele>270.8333333333333</ele><time>2026-04-28T07:18:57Z</time></trkpt><trkpt lat="45.094948183329215" lon="5.742301483363166"><ele>271.0</ele><time>2026-04-28T07:18:58Z</time></trkpt><trkpt lat="45.094989811902636" lon="5.742209477697542"><ele>270.66666666666663</ele><time>2026-04-28T07:18:59Z</time></trkpt><trkpt lat="45.09502831327242" lon="5.742115108108664"><ele>270.3333333333333</ele><time>2026-04-28T07:19:00Z</time></trkpt><trkpt lat="45.09505562532503" lon="5.742007916352678"><ele>270.0</ele><time>2026-04-28T07:19:01Z</time></trkpt><trkpt lat="45.095090508386676" lon="5.741906364167543"><ele>269.6666666666667</ele><time>2026-04-28T07:19:02Z</time></trkpt><trkpt lat="45.095125594144044" lon="5.741809996935595"><ele>269.33333333333337</ele><time>2026-04-28T07:19:03Z</time></trkpt><trkpt lat="45.09516022983725" lon="5.74171209647404"><ele>269.0</ele><time>2026-04-28T07:19:04Z</time></trkpt><trkpt lat="45.095196685541005" lon="5.741616428126707"><ele>268.6666666666667</ele><time>2026-04-28T07:19:05Z</time></trkpt><trkpt lat="45.09523734537989" lon="5.741525952460544"><ele>268.33333333333337</ele><time>2026-04-28T07:19:06Z</time></trkpt><trkpt lat="45.095275514127245" lon="5.741433706897278"><ele>268.0</ele><time>2026-04-28T07:19:07Z</time></trkpt><trkpt lat="45.09531133868459" lon="5.741338134828104"><ele>267.6666666666667</ele><time>2026-04-28T07:19:08Z</time></trkpt><trkpt lat="45.09534681419717" lon="5.7412422133774665"><ele>267.3333333333333</ele><time>2026-04-28T07:19:09Z</time></trkpt><trkpt lat="45.095381757459876" lon="5.741147789730785"><ele>267.0</ele><time>2026-04-28T07:19:10Z</time></trkpt><trkpt lat="45.09542038946126" lon="5.741053010841261"><ele>267.00000000000006</ele><time>2026-04-28T07:19:11Z</time></trkpt><trkpt lat="45.095453450819285" lon="5.740961714169601"><ele>267.0</ele><time>2026-04-28T07:19:12Z</time></trkpt><trkpt lat="45.09548574242307" lon="5.74086669803676"><ele>267.0</ele><time>2026-04-28T07:19:13Z</time></trkpt><trkpt lat="45.095524362113245" lon="5.740779577395882"><ele>267.0</ele><time>2026-04-28T07:19:14Z</time></trkpt><trkpt lat="45.09555519810154" lon="5.740685685548585"><ele>267.0</ele><time>2026-04-28T07:19:14.999Z</time></trkpt><trkpt lat="45.09558400871754" lon="5.7405930238929965"><ele>267.00000000000006</ele><time>2026-04-28T07:19:15.999Z</time></trkpt><trkpt lat="45.09561574078933" lon="5.740503038067355"><ele>267.0</ele><time>2026-04-28T07:19:16.999Z</time></trkpt><trkpt lat="45.0956476131839" lon="5.740412911565947"><ele>267.0</ele><time>2026-04-28T07:19:17.999Z</time></trkpt><trkpt lat="45.0956799354063" lon="5.740327847505408"><ele>267.0</ele><time>2026-04-28T07:19:18.999Z</time></trkpt><trkpt lat="45.09571210388758" lon="5.740243245048349"><ele>267.0</ele><time>2026-04-28T07:19:19.999Z</time></trkpt><trkpt lat="45.09574674968202" lon="5.740164103566601"><ele>267.0</ele><time>2026-04-28T07:19:20.999Z</time></trkpt><trkpt lat="45.095773185692686" lon="5.740081719371185"><ele>267.0</ele><time>2026-04-28T07:19:21.999Z</time></trkpt><trkpt lat="45.09579823050015" lon="5.739996923211693"><ele>267.0</ele><time>2026-04-28T07:19:22.999Z</time></trkpt><trkpt lat="45.09585011319067" lon="5.7398429475737025"><ele>266.8333333333333</ele><time>2026-04-28T07:19:24.999Z</time></trkpt><trkpt lat="45.095825238325" lon="5.739677315961564"><ele>266.6666666666667</ele><time>2026-04-28T07:19:26.999Z</time></trkpt><trkpt lat="45.09579268384532" lon="5.739591414552137"><ele>266.5</ele><time>2026-04-28T07:19:27.999Z</time></trkpt><trkpt lat="45.09574641181329" lon="5.739519460289294"><ele>266.33333333333337</ele><time>2026-04-28T07:19:28.999Z</time></trkpt><trkpt lat="45.09568966455951" lon="5.739459790739243"><ele>266.1666666666667</ele><time>2026-04-28T07:19:29.999Z</time></trkpt><trkpt lat="45.095635249193535" lon="5.739404183851547"><ele>266.0</ele><time>2026-04-28T07:19:30.999Z</time></trkpt><trkpt lat="45.095575719633295" lon="5.739340200613497"><ele>265.6666666666667</ele><time>2026-04-28T07:19:31.999Z</time></trkpt><trkpt lat="45.095515211827255" lon="5.739272240559968"><ele>265.33333333333337</ele><time>2026-04-28T07:19:32.999Z</time></trkpt><trkpt lat="45.09545205733432" lon="5.7392048450981905"><ele>265.0</ele><time>2026-04-28T07:19:33.999Z</time></trkpt><trkpt lat="45.095389115323314" lon="5.739133987035735"><ele>264.6666666666667</ele><time>2026-04-28T07:19:34.999Z</time></trkpt><trkpt lat="45.09532607761904" lon="5.739062807139019"><ele>264.3333333333333</ele><time>2026-04-28T07:19:35.999Z</time></trkpt><trkpt lat="45.095259803865176" lon="5.738992805839627"><ele>264.0</ele><time>2026-04-28T07:19:36.999Z</time></trkpt><trkpt lat="45.09519543183949" lon="5.738916122827966"><ele>264.0</ele><time>2026-04-28T07:19:37.999Z</time></trkpt><trkpt lat="45.09513368594993" lon="5.738838829487844"><ele>264.0</ele><time>2026-04-28T07:19:38.999Z</time></trkpt><trkpt lat="45.09507004919207" lon="5.738759226946062"><ele>264.0</ele><time>2026-04-28T07:19:39.999Z</time></trkpt><trkpt lat="45.095006020416534" lon="5.738687506710478"><ele>264.0</ele><time>2026-04-28T07:19:40.999Z</time></trkpt><trkpt lat="45.09494151098408" lon="5.738614683263377"><ele>264.0</ele><time>2026-04-28T07:19:41.999Z</time></trkpt><trkpt lat="45.09487772787625" lon="5.738539767761629"><ele>264.0</ele><time>2026-04-28T07:19:42.999Z</time></trkpt><trkpt lat="45.09481353043515" lon="5.738463675535148"><ele>263.8333333333333</ele><time>2026-04-28T07:19:43.999Z</time></trkpt><trkpt lat="45.094750720317904" lon="5.738386203386685"><ele>263.6666666666667</ele><time>2026-04-28T07:19:44.999Z</time></trkpt><trkpt lat="45.094686248712" lon="5.738313132309127"><ele>263.5</ele><time>2026-04-28T07:19:45.999Z</time></trkpt><trkpt lat="45.094621159915484" lon="5.73823926356334"><ele>263.33333333333337</ele><time>2026-04-28T07:19:46.999Z</time></trkpt><trkpt lat="45.09455477040775" lon="5.738166224803701"><ele>263.1666666666667</ele><time>2026-04-28T07:19:47.999Z</time></trkpt><trkpt lat="45.094490241866865" lon="5.738091406503373"><ele>263.0</ele><time>2026-04-28T07:19:48.999Z</time></trkpt><trkpt lat="45.09442552844118" lon="5.738018579404497"><ele>263.0</ele><time>2026-04-28T07:19:49.999Z</time></trkpt><trkpt lat="45.09436114920596" lon="5.737943056300798"><ele>263.0</ele><time>2026-04-28T07:19:50.999Z</time></trkpt><trkpt lat="45.09429830409147" lon="5.737865004608742"><ele>263.0</ele><time>2026-04-28T07:19:51.999Z</time></trkpt><trkpt lat="45.09423404353244" lon="5.737787308236464"><ele>263.0</ele><time>2026-04-28T07:19:52.999Z</time></trkpt><trkpt lat="45.094167809071855" lon="5.737714293154738"><ele>263.0</ele><time>2026-04-28T07:19:53.999Z</time></trkpt><trkpt lat="45.094104882557694" lon="5.73763751256049"><ele>263.0</ele><time>2026-04-28T07:19:54.999Z</time></trkpt><trkpt lat="45.094041175030426" lon="5.737560256903793"><ele>263.0</ele><time>2026-04-28T07:19:55.999Z</time></trkpt><trkpt lat="45.09397608682762" lon="5.737485665416796"><ele>263.0</ele><time>2026-04-28T07:19:56.999Z</time></trkpt><trkpt lat="45.093912315617786" lon="5.737409558537289"><ele>263.0</ele><time>2026-04-28T07:19:57.999Z</time></trkpt><trkpt lat="45.093848276798724" lon="5.737334700959763"><ele>263.0</ele><time>2026-04-28T07:19:58.999Z</time></trkpt><trkpt lat="45.093783856752346" lon="5.737260799313409"><ele>263.0</ele><time>2026-04-28T07:19:59.999Z</time></trkpt><trkpt lat="45.093720504879975" lon="5.737184063834032"><ele>263.0</ele><time>2026-04-28T07:20:00.999Z</time></trkpt><trkpt lat="45.093656152616845" lon="5.737112068156458"><ele>263.0</ele><time>2026-04-28T07:20:01.999Z</time></trkpt><trkpt lat="45.093595507223995" lon="5.7370373353609745"><ele>263.0</ele><time>2026-04-28T07:20:02.999Z</time></trkpt><trkpt lat="45.09353154985873" lon="5.736965147454417"><ele>263.0</ele><time>2026-04-28T07:20:03.999Z</time></trkpt><trkpt lat="45.09347017668516" lon="5.736896344166662"><ele>263.0</ele><time>2026-04-28T07:20:04.999Z</time></trkpt><trkpt lat="45.09340816345329" lon="5.736822170435974"><ele>263.0</ele><time>2026-04-28T07:20:05.999Z</time></trkpt><trkpt lat="45.09334554941466" lon="5.7367525514199125"><ele>263.0</ele><time>2026-04-28T07:20:06.999Z</time></trkpt><trkpt lat="45.09328290340804" lon="5.736681039953622"><ele>263.0</ele><time>2026-04-28T07:20:07.999Z</time></trkpt><trkpt lat="45.093224125737564" lon="5.7366044247417936"><ele>263.0</ele><time>2026-04-28T07:20:08.999Z</time></trkpt><trkpt lat="45.093161291003646" lon="5.73653527695021"><ele>263.0</ele><time>2026-04-28T07:20:09.999Z</time></trkpt><trkpt lat="45.09309911212417" lon="5.736466067485135"><ele>263.0</ele><time>2026-04-28T07:20:10.999Z</time></trkpt><trkpt lat="45.09303772889928" lon="5.736395533129009"><ele>263.0</ele><time>2026-04-28T07:20:11.999Z</time></trkpt><trkpt lat="45.092979737815504" lon="5.736323693046448"><ele>263.0</ele><time>2026-04-28T07:20:12.999Z</time></trkpt><trkpt lat="45.09292168717328" lon="5.736250100016637"><ele>263.0</ele><time>2026-04-28T07:20:13.999Z</time></trkpt><trkpt lat="45.09286139249022" lon="5.73617961860845"><ele>263.0</ele><time>2026-04-28T07:20:14.999Z</time></trkpt><trkpt lat="45.092801853639386" lon="5.736111209105737"><ele>263.0</ele><time>2026-04-28T07:20:15.999Z</time></trkpt><trkpt lat="45.09273826946726" lon="5.736046337555121"><ele>263.0</ele><time>2026-04-28T07:20:16.999Z</time></trkpt><trkpt lat="45.09267734481009" lon="5.73597912680447"><ele>263.0</ele><time>2026-04-28T07:20:17.999Z</time></trkpt><trkpt lat="45.092617501911235" lon="5.735913045240502"><ele>263.0</ele><time>2026-04-28T07:20:18.999Z</time></trkpt><trkpt lat="45.09256106612682" lon="5.73584210924666"><ele>263.1428571428571</ele><time>2026-04-28T07:20:20Z</time></trkpt><trkpt lat="45.09250315266909" lon="5.735774211483402"><ele>263.2857142857143</ele><time>2026-04-28T07:20:21Z</time></trkpt><trkpt lat="45.09244888889276" lon="5.735702442116812"><ele>263.42857142857144</ele><time>2026-04-28T07:20:22Z</time></trkpt><trkpt lat="45.09239176957142" lon="5.735634454585559"><ele>263.57142857142856</ele><time>2026-04-28T07:20:23Z</time></trkpt><trkpt lat="45.09233293736143" lon="5.735569301071707"><ele>263.7142857142857</ele><time>2026-04-28T07:20:24Z</time></trkpt><trkpt lat="45.092275532319356" lon="5.7355000438466615"><ele>263.85714285714283</ele><time>2026-04-28T07:20:25Z</time></trkpt><trkpt lat="45.09221876062813" lon="5.735431974014701"><ele>264.0</ele><time>2026-04-28T07:20:26Z</time></trkpt><trkpt lat="45.09216232098584" lon="5.735367785326139"><ele>264.0</ele><time>2026-04-28T07:20:27Z</time></trkpt><trkpt lat="45.092106664716404" lon="5.735300175385389"><ele>264.0</ele><time>2026-04-28T07:20:28Z</time></trkpt><trkpt lat="45.092052200027844" lon="5.735232992521093"><ele>264.0</ele><time>2026-04-28T07:20:29Z</time></trkpt><trkpt lat="45.09199625495604" lon="5.735167467463771"><ele>264.0</ele><time>2026-04-28T07:20:30Z</time></trkpt><trkpt lat="45.09193904327941" lon="5.735101677052586"><ele>264.0</ele><time>2026-04-28T07:20:31Z</time></trkpt><trkpt lat="45.091881401340906" lon="5.735036867883798"><ele>264.0</ele><time>2026-04-28T07:20:32Z</time></trkpt><trkpt lat="45.09182511139113" lon="5.734971095407237"><ele>264.0</ele><time>2026-04-28T07:20:33Z</time></trkpt><trkpt lat="45.09176795467331" lon="5.734907918750377"><ele>264.1428571428571</ele><time>2026-04-28T07:20:34Z</time></trkpt><trkpt lat="45.09171207196249" lon="5.734840593898901"><ele>264.2857142857143</ele><time>2026-04-28T07:20:35Z</time></trkpt><trkpt lat="45.091655671429955" lon="5.734777282728814"><ele>264.42857142857144</ele><time>2026-04-28T07:20:36Z</time></trkpt><trkpt lat="45.09159950017267" lon="5.734711937179937"><ele>264.57142857142856</ele><time>2026-04-28T07:20:37Z</time></trkpt><trkpt lat="45.09154107248991" lon="5.734650507079514"><ele>264.7142857142857</ele><time>2026-04-28T07:20:38Z</time></trkpt><trkpt lat="45.091485749406544" lon="5.734586414606325"><ele>264.85714285714283</ele><time>2026-04-28T07:20:39Z</time></trkpt><trkpt lat="45.09143164092761" lon="5.73452211715154"><ele>265.0</ele><time>2026-04-28T07:20:40Z</time></trkpt><trkpt lat="45.091377116655856" lon="5.734454672018225"><ele>264.99999999999994</ele><time>2026-04-28T07:20:41Z</time></trkpt><trkpt lat="45.091322638851295" lon="5.734389139047382"><ele>265.0</ele><time>2026-04-28T07:20:42Z</time></trkpt><trkpt lat="45.091268189542106" lon="5.734325705346675"><ele>265.0</ele><time>2026-04-28T07:20:43Z</time></trkpt><trkpt lat="45.09121093332075" lon="5.734265025480652"><ele>265.0</ele><time>2026-04-28T07:20:44Z</time></trkpt><trkpt lat="45.091154645608505" lon="5.734202276398373"><ele>265.0</ele><time>2026-04-28T07:20:45Z</time></trkpt><trkpt lat="45.091100411443705" lon="5.734137891601354"><ele>264.99999999999994</ele><time>2026-04-28T07:20:46Z</time></trkpt><trkpt lat="45.09104830363545" lon="5.7340742520223875"><ele>265.0</ele><time>2026-04-28T07:20:47Z</time></trkpt><trkpt lat="45.09099945775386" lon="5.734005138872919"><ele>264.85714285714283</ele><time>2026-04-28T07:20:48Z</time></trkpt><trkpt lat="45.09094758033539" lon="5.733938429664087"><ele>264.7142857142857</ele><time>2026-04-28T07:20:49Z</time></trkpt><trkpt lat="45.090893279947885" lon="5.733876114779045"><ele>264.57142857142856</ele><time>2026-04-28T07:20:50Z</time></trkpt><trkpt lat="45.090839794168446" lon="5.733809926334236"><ele>264.42857142857144</ele><time>2026-04-28T07:20:51Z</time></trkpt><trkpt lat="45.09078989094668" lon="5.733738720299565"><ele>264.2857142857143</ele><time>2026-04-28T07:20:52Z</time></trkpt><trkpt lat="45.09073670454822" lon="5.733676048776069"><ele>264.1428571428571</ele><time>2026-04-28T07:20:53Z</time></trkpt><trkpt lat="45.09068182835917" lon="5.733612400297359"><ele>264.0</ele><time>2026-04-28T07:20:54Z</time></trkpt><trkpt lat="45.09063083986701" lon="5.733541064993446"><ele>264.0</ele><time>2026-04-28T07:20:55Z</time></trkpt><trkpt lat="45.090572640701986" lon="5.733474493252678"><ele>264.0</ele><time>2026-04-28T07:20:56Z</time></trkpt><trkpt lat="45.09051723055337" lon="5.733407552465799"><ele>264.0</ele><time>2026-04-28T07:20:57Z</time></trkpt><trkpt lat="45.0904609432518" lon="5.7333421979875245"><ele>264.0</ele><time>2026-04-28T07:20:58Z</time></trkpt><trkpt lat="45.09040638772786" lon="5.733275945804393"><ele>264.0</ele><time>2026-04-28T07:20:59Z</time></trkpt><trkpt lat="45.090344489638845" lon="5.733224537532232"><ele>264.0</ele><time>2026-04-28T07:21:00Z</time></trkpt><trkpt lat="45.0902804214376" lon="5.733162132972894"><ele>264.0</ele><time>2026-04-28T07:21:01Z</time></trkpt><trkpt lat="45.09022504585042" lon="5.733095277810746"><ele>264.0</ele><time>2026-04-28T07:21:02Z</time></trkpt><trkpt lat="45.090173619795614" lon="5.733020271384718"><ele>264.0</ele><time>2026-04-28T07:21:03Z</time></trkpt><trkpt lat="45.0901193725445" lon="5.732952384113616"><ele>264.0</ele><time>2026-04-28T07:21:04Z</time></trkpt><trkpt lat="45.090064702926405" lon="5.732886583979278"><ele>264.0</ele><time>2026-04-28T07:21:05Z</time></trkpt><trkpt lat="45.090006253750694" lon="5.7328226435193805"><ele>264.0</ele><time>2026-04-28T07:21:06Z</time></trkpt><trkpt lat="45.08994519070081" lon="5.732757746275068"><ele>264.0</ele><time>2026-04-28T07:21:07Z</time></trkpt><trkpt lat="45.08989247435396" lon="5.732690404695752"><ele>264.0</ele><time>2026-04-28T07:21:08Z</time></trkpt><trkpt lat="45.08984540949004" lon="5.732623757645004"><ele>263.85714285714283</ele><time>2026-04-28T07:21:09Z</time></trkpt><trkpt lat="45.08979123164121" lon="5.732563703303297"><ele>263.7142857142857</ele><time>2026-04-28T07:21:10Z</time></trkpt><trkpt lat="45.089727864845386" lon="5.7325082346202105"><ele>263.57142857142856</ele><time>2026-04-28T07:21:11Z</time></trkpt><trkpt lat="45.08967042450783" lon="5.732446927993852"><ele>263.42857142857144</ele><time>2026-04-28T07:21:12Z</time></trkpt><trkpt lat="45.08961380602588" lon="5.732384878055748"><ele>263.2857142857143</ele><time>2026-04-28T07:21:12.999Z</time></trkpt><trkpt lat="45.08956188881232" lon="5.7323223939303105"><ele>263.1428571428571</ele><time>2026-04-28T07:21:13.999Z</time></trkpt><trkpt lat="45.08951056110417" lon="5.732257665255358"><ele>263.0</ele><time>2026-04-28T07:21:14.999Z</time></trkpt><trkpt lat="45.089454887080066" lon="5.7322046377892"><ele>263.0</ele><time>2026-04-28T07:21:15.999Z</time></trkpt><trkpt lat="45.08940255188569" lon="5.732153121162245"><ele>263.0</ele><time>2026-04-28T07:21:16.999Z</time></trkpt><trkpt lat="45.089345647179904" lon="5.73209526052442"><ele>263.0</ele><time>2026-04-28T07:21:17.999Z</time></trkpt><trkpt lat="45.08929094437283" lon="5.732038735073634"><ele>263.0</ele><time>2026-04-28T07:21:18.999Z</time></trkpt><trkpt lat="45.08918947905489" lon="5.73192737486743"><ele>263.0</ele><time>2026-04-28T07:21:20.999Z</time></trkpt><trkpt lat="45.08914380740133" lon="5.731855040154132"><ele>263.0</ele><time>2026-04-28T07:21:21.999Z</time></trkpt><trkpt lat="45.08909167745015" lon="5.73179890211095"><ele>262.6666666666667</ele><time>2026-04-28T07:21:22.999Z</time></trkpt><trkpt lat="45.08899612935371" lon="5.731652539608222"><ele>262.33333333333337</ele><time>2026-04-28T07:21:24.999Z</time></trkpt><trkpt lat="45.08893074733441" lon="5.731610677653736"><ele>262.0</ele><time>2026-04-28T07:21:25.999Z</time></trkpt><trkpt lat="45.088880060704035" lon="5.731548036699861"><ele>261.6666666666667</ele><time>2026-04-28T07:21:26.999Z</time></trkpt><trkpt lat="45.0888278775619" lon="5.731484728829755"><ele>261.3333333333333</ele><time>2026-04-28T07:21:27.999Z</time></trkpt><trkpt lat="45.08877514754795" lon="5.731435637533682"><ele>261.0</ele><time>2026-04-28T07:21:28.999Z</time></trkpt><trkpt lat="45.0886879456515" lon="5.73132296438231"><ele>261.0</ele><time>2026-04-28T07:21:30.999Z</time></trkpt><trkpt lat="45.08860890376491" lon="5.731225417219925"><ele>261.0</ele><time>2026-04-28T07:21:32.999Z</time></trkpt><trkpt lat="45.08856612347207" lon="5.731158484269305"><ele>261.0</ele><time>2026-04-28T07:21:35.999Z</time></trkpt><trkpt lat="45.08851368461455" lon="5.731054766672587"><ele>261.0</ele><time>2026-04-28T07:21:40.999Z</time></trkpt><trkpt lat="45.088461980307464" lon="5.730977783958988"><ele>261.0</ele><time>2026-04-28T07:21:42.999Z</time></trkpt><trkpt lat="45.08836245378441" lon="5.731002519884832"><ele>261.0</ele><time>2026-04-28T07:21:44.999Z</time></trkpt><trkpt lat="45.08825875873973" lon="5.73096345819837"><ele>261.8333333333333</ele><time>2026-04-28T07:21:46.999Z</time></trkpt><trkpt lat="45.0881631410614" lon="5.730884710923726"><ele>262.6666666666667</ele><time>2026-04-28T07:21:48.999Z</time></trkpt><trkpt lat="45.08806485723169" lon="5.730784730437392"><ele>263.5</ele><time>2026-04-28T07:21:50.999Z</time></trkpt><trkpt lat="45.08801102155072" lon="5.730736961944988"><ele>264.33333333333337</ele><time>2026-04-28T07:21:51.999Z</time></trkpt><trkpt lat="45.087955000695075" lon="5.730689757636539"><ele>265.1666666666667</ele><time>2026-04-28T07:21:52.999Z</time></trkpt><trkpt lat="45.087891607682494" lon="5.730647894000614"><ele>266.0</ele><time>2026-04-28T07:21:53.999Z</time></trkpt><trkpt lat="45.087833895240685" lon="5.730604031196646"><ele>266.0</ele><time>2026-04-28T07:21:54.999Z</time></trkpt><trkpt lat="45.08777562928998" lon="5.7305586464538685"><ele>266.0</ele><time>2026-04-28T07:21:55.999Z</time></trkpt><trkpt lat="45.08771875792249" lon="5.730504979522206"><ele>266.0</ele><time>2026-04-28T07:21:56.999Z</time></trkpt><trkpt lat="45.08765985788654" lon="5.730454872547712"><ele>266.0</ele><time>2026-04-28T07:21:57.999Z</time></trkpt><trkpt lat="45.08760000096033" lon="5.730399684017482"><ele>266.0</ele><time>2026-04-28T07:21:58.999Z</time></trkpt><trkpt lat="45.08754046887046" lon="5.730346643893486"><ele>266.0</ele><time>2026-04-28T07:21:59.999Z</time></trkpt><trkpt lat="45.08748062845882" lon="5.730296089152218"><ele>266.0</ele><time>2026-04-28T07:22:00.999Z</time></trkpt><trkpt lat="45.087420426731356" lon="5.730246773537658"><ele>266.14285714285717</ele><time>2026-04-28T07:22:01.999Z</time></trkpt><trkpt lat="45.0873599669634" lon="5.7301977865788"><ele>266.2857142857143</ele><time>2026-04-28T07:22:02.999Z</time></trkpt><trkpt lat="45.08729761537496" lon="5.730154297305926"><ele>266.42857142857144</ele><time>2026-04-28T07:22:03.999Z</time></trkpt><trkpt lat="45.0872329989911" lon="5.730116563824011"><ele>266.57142857142856</ele><time>2026-04-28T07:22:04.999Z</time></trkpt><trkpt lat="45.08716865575222" lon="5.730079976739163"><ele>266.7142857142857</ele><time>2026-04-28T07:22:05.999Z</time></trkpt><trkpt lat="45.08710104935511" lon="5.730051411016405"><ele>266.8571428571429</ele><time>2026-04-28T07:22:06.999Z</time></trkpt><trkpt lat="45.0870315987139" lon="5.730035072701472"><ele>267.0</ele><time>2026-04-28T07:22:07.999Z</time></trkpt><trkpt lat="45.08696272600744" lon="5.730014487750509"><ele>267.00000000000006</ele><time>2026-04-28T07:22:08.999Z</time></trkpt><trkpt lat="45.08689395322462" lon="5.729990019643671"><ele>267.0</ele><time>2026-04-28T07:22:09.999Z</time></trkpt><trkpt lat="45.086827130469594" lon="5.729961332436269"><ele>267.0</ele><time>2026-04-28T07:22:10.999Z</time></trkpt><trkpt lat="45.08675900288912" lon="5.729930124804464"><ele>267.0</ele><time>2026-04-28T07:22:11.999Z</time></trkpt><trkpt lat="45.086689102922605" lon="5.729895780969418"><ele>267.0</ele><time>2026-04-28T07:22:12.999Z</time></trkpt><trkpt lat="45.08661818756319" lon="5.729855914252271"><ele>267.00000000000006</ele><time>2026-04-28T07:22:13.999Z</time></trkpt><trkpt lat="45.08654822155143" lon="5.729809602302373"><ele>267.0</ele><time>2026-04-28T07:22:14.999Z</time></trkpt><trkpt lat="45.08647900642189" lon="5.729766597273881"><ele>267.5</ele><time>2026-04-28T07:22:15.999Z</time></trkpt><trkpt lat="45.08640646160767" lon="5.7297241438412465"><ele>268.0</ele><time>2026-04-28T07:22:16.999Z</time></trkpt><trkpt lat="45.08633330984839" lon="5.729688591039768"><ele>268.5</ele><time>2026-04-28T07:22:17.999Z</time></trkpt><trkpt lat="45.08626099937446" lon="5.7296545804962395"><ele>269.0</ele><time>2026-04-28T07:22:18.999Z</time></trkpt><trkpt lat="45.08618707352181" lon="5.729621045203666"><ele>269.5</ele><time>2026-04-28T07:22:19.999Z</time></trkpt><trkpt lat="45.08611500742541" lon="5.729586589979949"><ele>270.0</ele><time>2026-04-28T07:22:20.999Z</time></trkpt><trkpt lat="45.08604141841002" lon="5.729551339981732"><ele>270.0</ele><time>2026-04-28T07:22:21.999Z</time></trkpt><trkpt lat="45.08596592500984" lon="5.7295194209552"><ele>270.0</ele><time>2026-04-28T07:22:22.999Z</time></trkpt><trkpt lat="45.085891902785264" lon="5.729484537521571"><ele>270.0</ele><time>2026-04-28T07:22:23.999Z</time></trkpt><trkpt lat="45.08581770165336" lon="5.729449182008536"><ele>270.0</ele><time>2026-04-28T07:22:24.999Z</time></trkpt><trkpt lat="45.08574310046356" lon="5.729418358438302"><ele>270.0</ele><time>2026-04-28T07:22:26Z</time></trkpt><trkpt lat="45.085669587837984" lon="5.729387627677478"><ele>270.0</ele><time>2026-04-28T07:22:27Z</time></trkpt><trkpt lat="45.08559607070135" lon="5.729352491613134"><ele>270.0</ele><time>2026-04-28T07:22:28Z</time></trkpt><trkpt lat="45.0855219372677" lon="5.729317105391636"><ele>270.0</ele><time>2026-04-28T07:22:29Z</time></trkpt><trkpt lat="45.0854478949467" lon="5.7292842089404745"><ele>270.0</ele><time>2026-04-28T07:22:30Z</time></trkpt><trkpt lat="45.08537481644972" lon="5.729253740560338"><ele>270.0</ele><time>2026-04-28T07:22:31Z</time></trkpt><trkpt lat="45.085301903201454" lon="5.729222160930449"><ele>270.0</ele><time>2026-04-28T07:22:32Z</time></trkpt><trkpt lat="45.08522729569304" lon="5.729196701011452"><ele>270.0</ele><time>2026-04-28T07:22:33Z</time></trkpt><trkpt lat="45.085152420112294" lon="5.729174847152299"><ele>270.0</ele><time>2026-04-28T07:22:34Z</time></trkpt><trkpt lat="45.085080458268486" lon="5.729155251394409"><ele>270.0</ele><time>2026-04-28T07:22:35Z</time></trkpt><trkpt lat="45.085010199743614" lon="5.729137160735156"><ele>270.0</ele><time>2026-04-28T07:22:36Z</time></trkpt><trkpt lat="45.084947495526066" lon="5.729108172553588"><ele>270.0</ele><time>2026-04-28T07:22:37Z</time></trkpt><trkpt lat="45.08488220277943" lon="5.729080460814443"><ele>270.0</ele><time>2026-04-28T07:22:38Z</time></trkpt><trkpt lat="45.08481771320014" lon="5.729046798665257"><ele>270.0</ele><time>2026-04-28T07:22:39Z</time></trkpt><trkpt lat="45.08475083921468" lon="5.729012122002035"><ele>270.0</ele><time>2026-04-28T07:22:40Z</time></trkpt><trkpt lat="45.08468468140894" lon="5.7289744300098935"><ele>269.85714285714283</ele><time>2026-04-28T07:22:41Z</time></trkpt><trkpt lat="45.084613816359635" lon="5.728948511597771"><ele>269.71428571428567</ele><time>2026-04-28T07:22:42Z</time></trkpt><trkpt lat="45.084545819281324" lon="5.7289243329072095"><ele>269.57142857142856</ele><time>2026-04-28T07:22:43Z</time></trkpt><trkpt lat="45.08447711724354" lon="5.728894965526708"><ele>269.42857142857144</ele><time>2026-04-28T07:22:44Z</time></trkpt><trkpt lat="45.08441111229948" lon="5.728863074193649"><ele>269.28571428571433</ele><time>2026-04-28T07:22:45Z</time></trkpt><trkpt lat="45.08434681241224" lon="5.728824988224698"><ele>269.14285714285717</ele><time>2026-04-28T07:22:46Z</time></trkpt><trkpt lat="45.08428146780597" lon="5.728785054140596"><ele>269.0</ele><time>2026-04-28T07:22:47Z</time></trkpt><trkpt lat="45.08421450912275" lon="5.728753216795036"><ele>269.0</ele><time>2026-04-28T07:22:48Z</time></trkpt><trkpt lat="45.08414820249145" lon="5.728717094245133"><ele>269.0</ele><time>2026-04-28T07:22:49Z</time></trkpt><trkpt lat="45.08408053035061" lon="5.728684597335496"><ele>269.0</ele><time>2026-04-28T07:22:50Z</time></trkpt><trkpt lat="45.08401044774667" lon="5.728658627974022"><ele>269.0</ele><time>2026-04-28T07:22:51Z</time></trkpt><trkpt lat="45.0839419237562" lon="5.728627065337058"><ele>269.0</ele><time>2026-04-28T07:22:52Z</time></trkpt><trkpt lat="45.08387647919938" lon="5.728597522721872"><ele>269.0</ele><time>2026-04-28T07:22:53Z</time></trkpt><trkpt lat="45.08380666837632" lon="5.7285677421876295"><ele>269.0</ele><time>2026-04-28T07:22:54Z</time></trkpt><trkpt lat="45.083734448111656" lon="5.728539471878528"><ele>269.1666666666667</ele><time>2026-04-28T07:22:55Z</time></trkpt><trkpt lat="45.08365975506389" lon="5.728506351667801"><ele>269.33333333333337</ele><time>2026-04-28T07:22:56Z</time></trkpt><trkpt lat="45.08358348011134" lon="5.72847313329196"><ele>269.5</ele><time>2026-04-28T07:22:57Z</time></trkpt><trkpt lat="45.08350859353615" lon="5.728436737536973"><ele>269.6666666666667</ele><time>2026-04-28T07:22:58Z</time></trkpt><trkpt lat="45.08343208133968" lon="5.728401603801315"><ele>269.8333333333333</ele><time>2026-04-28T07:22:59Z</time></trkpt><trkpt lat="45.08335707323021" lon="5.728362475542119"><ele>270.0</ele><time>2026-04-28T07:23:00Z</time></trkpt><trkpt lat="45.08328063789552" lon="5.728317922246333"><ele>270.0</ele><time>2026-04-28T07:23:01Z</time></trkpt><trkpt lat="45.08319623653876" lon="5.7282800639870075"><ele>270.0</ele><time>2026-04-28T07:23:02Z</time></trkpt><trkpt lat="45.083115629381346" lon="5.728234625817533"><ele>270.0</ele><time>2026-04-28T07:23:03Z</time></trkpt><trkpt lat="45.08304275201979" lon="5.728185337005391"><ele>270.0</ele><time>2026-04-28T07:23:04Z</time></trkpt><trkpt lat="45.082960041296914" lon="5.728143297042455"><ele>270.0</ele><time>2026-04-28T07:23:05Z</time></trkpt><trkpt lat="45.0828728632656" lon="5.728109091895735"><ele>270.0</ele><time>2026-04-28T07:23:06Z</time></trkpt><trkpt lat="45.082789429829525" lon="5.728091928201519"><ele>270.0</ele><time>2026-04-28T07:23:07Z</time></trkpt><trkpt lat="45.082706391791895" lon="5.72807941632003"><ele>270.0</ele><time>2026-04-28T07:23:08Z</time></trkpt><trkpt lat="45.08262666135231" lon="5.728056235469339"><ele>270.0</ele><time>2026-04-28T07:23:09Z</time></trkpt><trkpt lat="45.082551603391785" lon="5.728023484045247"><ele>270.0</ele><time>2026-04-28T07:23:10Z</time></trkpt><trkpt lat="45.08247286667834" lon="5.727987903104912"><ele>270.0</ele><time>2026-04-28T07:23:11Z</time></trkpt><trkpt lat="45.08239555258959" lon="5.727948878274099"><ele>270.0</ele><time>2026-04-28T07:23:12Z</time></trkpt><trkpt lat="45.08231854007581" lon="5.727913658367642"><ele>269.3333333333333</ele><time>2026-04-28T07:23:13Z</time></trkpt><trkpt lat="45.08224229681091" lon="5.72787618352598"><ele>268.6666666666667</ele><time>2026-04-28T07:23:14Z</time></trkpt><trkpt lat="45.082164303840436" lon="5.727838538793725"><ele>268.0</ele><time>2026-04-28T07:23:15Z</time></trkpt><trkpt lat="45.082084740968455" lon="5.727804975508638"><ele>267.33333333333337</ele><time>2026-04-28T07:23:16Z</time></trkpt><trkpt lat="45.08200453059489" lon="5.727775469893177"><ele>266.6666666666667</ele><time>2026-04-28T07:23:17Z</time></trkpt><trkpt lat="45.08192629032928" lon="5.72773864727062"><ele>266.0</ele><time>2026-04-28T07:23:18Z</time></trkpt><trkpt lat="45.0818517915013" lon="5.727703329449995"><ele>265.83333333333337</ele><time>2026-04-28T07:23:19Z</time></trkpt><trkpt lat="45.081775464448256" lon="5.727668831397638"><ele>265.6666666666667</ele><time>2026-04-28T07:23:20Z</time></trkpt><trkpt lat="45.08169833400172" lon="5.727636285456037"><ele>265.5</ele><time>2026-04-28T07:23:21Z</time></trkpt><trkpt lat="45.08162212478421" lon="5.727600948699528"><ele>265.3333333333333</ele><time>2026-04-28T07:23:22Z</time></trkpt><trkpt lat="45.081546778078916" lon="5.727571444385849"><ele>265.16666666666663</ele><time>2026-04-28T07:23:23Z</time></trkpt><trkpt lat="45.08147367044649" lon="5.727539413160105"><ele>265.0</ele><time>2026-04-28T07:23:24Z</time></trkpt><trkpt lat="45.08140174386042" lon="5.727505776871161"><ele>265.3333333333333</ele><time>2026-04-28T07:23:25Z</time></trkpt><trkpt lat="45.08132801803701" lon="5.72747135812879"><ele>265.66666666666663</ele><time>2026-04-28T07:23:26Z</time></trkpt><trkpt lat="45.08125843873668" lon="5.727439222718833"><ele>266.0</ele><time>2026-04-28T07:23:27Z</time></trkpt><trkpt lat="45.081185459600306" lon="5.727413471894207"><ele>266.3333333333333</ele><time>2026-04-28T07:23:28Z</time></trkpt><trkpt lat="45.081107571561915" lon="5.727391067521619"><ele>266.6666666666667</ele><time>2026-04-28T07:23:29Z</time></trkpt><trkpt lat="45.08104021326278" lon="5.727349315725756"><ele>267.0</ele><time>2026-04-28T07:23:30Z</time></trkpt><trkpt lat="45.08096939271482" lon="5.727316246751642"><ele>267.0</ele><time>2026-04-28T07:23:30.999Z</time></trkpt><trkpt lat="45.08089677525517" lon="5.7272792734482065"><ele>267.0</ele><time>2026-04-28T07:23:31.999Z</time></trkpt><trkpt lat="45.08082410447932" lon="5.727250674507955"><ele>267.0</ele><time>2026-04-28T07:23:32.999Z</time></trkpt><trkpt lat="45.08075254832123" lon="5.7272175560353995"><ele>267.0</ele><time>2026-04-28T07:23:33.999Z</time></trkpt><trkpt lat="45.080679493468345" lon="5.727185329540155"><ele>267.0</ele><time>2026-04-28T07:23:34.999Z</time></trkpt><trkpt lat="45.080607598141015" lon="5.727152204815964"><ele>267.0</ele><time>2026-04-28T07:23:35.999Z</time></trkpt><trkpt lat="45.080538116685176" lon="5.727118655113718"><ele>267.42857142857144</ele><time>2026-04-28T07:23:36.999Z</time></trkpt><trkpt lat="45.08046500656968" lon="5.727091923244464"><ele>267.8571428571429</ele><time>2026-04-28T07:23:37.999Z</time></trkpt><trkpt lat="45.08039637386073" lon="5.727058654886771"><ele>268.2857142857143</ele><time>2026-04-28T07:23:38.999Z</time></trkpt><trkpt lat="45.080325346421354" lon="5.727025618631933"><ele>268.7142857142857</ele><time>2026-04-28T07:23:39.999Z</time></trkpt><trkpt lat="45.08025344014335" lon="5.72699097118598"><ele>269.1428571428571</ele><time>2026-04-28T07:23:40.999Z</time></trkpt><trkpt lat="45.080184873943665" lon="5.726960206770361"><ele>269.57142857142856</ele><time>2026-04-28T07:23:41.999Z</time></trkpt><trkpt lat="45.080114267973904" lon="5.72692693166163"><ele>270.0</ele><time>2026-04-28T07:23:42.999Z</time></trkpt><trkpt lat="45.08004292320023" lon="5.72688641142674"><ele>270.0</ele><time>2026-04-28T07:23:43.999Z</time></trkpt><trkpt lat="45.07997067475296" lon="5.726853656954391"><ele>270.0</ele><time>2026-04-28T07:23:44.999Z</time></trkpt><trkpt lat="45.079902662284695" lon="5.72682418188042"><ele>270.0</ele><time>2026-04-28T07:23:45.999Z</time></trkpt><trkpt lat="45.07983347754496" lon="5.7267959665487425"><ele>270.0</ele><time>2026-04-28T07:23:46.999Z</time></trkpt><trkpt lat="45.079765698768256" lon="5.726765097311508"><ele>270.0</ele><time>2026-04-28T07:23:47.999Z</time></trkpt><trkpt lat="45.079696973675105" lon="5.72673296855922"><ele>270.0</ele><time>2026-04-28T07:23:48.999Z</time></trkpt><trkpt lat="45.07962965257511" lon="5.72670379605012"><ele>270.0</ele><time>2026-04-28T07:23:49.999Z</time></trkpt><trkpt lat="45.07956252261204" lon="5.726674735012161"><ele>269.85714285714283</ele><time>2026-04-28T07:23:50.999Z</time></trkpt><trkpt lat="45.079495842071076" lon="5.726647851105778"><ele>269.71428571428567</ele><time>2026-04-28T07:23:51.999Z</time></trkpt><trkpt lat="45.07942945487261" lon="5.726616608408186"><ele>269.57142857142856</ele><time>2026-04-28T07:23:52.999Z</time></trkpt><trkpt lat="45.079361738726575" lon="5.726583533629301"><ele>269.42857142857144</ele><time>2026-04-28T07:23:53.999Z</time></trkpt><trkpt lat="45.07929621932133" lon="5.7265536836906"><ele>269.28571428571433</ele><time>2026-04-28T07:23:54.999Z</time></trkpt><trkpt lat="45.079230580204595" lon="5.726526881588663"><ele>269.14285714285717</ele><time>2026-04-28T07:23:55.999Z</time></trkpt><trkpt lat="45.079162484356985" lon="5.726496560861553"><ele>269.0</ele><time>2026-04-28T07:23:56.999Z</time></trkpt><trkpt lat="45.079096096615686" lon="5.726465529449572"><ele>269.0</ele><time>2026-04-28T07:23:57.999Z</time></trkpt><trkpt lat="45.07902994631071" lon="5.726436805752328"><ele>269.0</ele><time>2026-04-28T07:23:58.999Z</time></trkpt><trkpt lat="45.07896068682435" lon="5.726408321966963"><ele>269.0</ele><time>2026-04-28T07:23:59.999Z</time></trkpt><trkpt lat="45.07889532960898" lon="5.726376969600233"><ele>269.0</ele><time>2026-04-28T07:24:00.999Z</time></trkpt><trkpt lat="45.07882940886183" lon="5.726347525835368"><ele>269.0</ele><time>2026-04-28T07:24:01.999Z</time></trkpt><trkpt lat="45.07876223904449" lon="5.726320188738603"><ele>269.0</ele><time>2026-04-28T07:24:02.999Z</time></trkpt><trkpt lat="45.07869621560577" lon="5.726290990890968"><ele>269.0</ele><time>2026-04-28T07:24:03.999Z</time></trkpt><trkpt lat="45.07863071770826" lon="5.72625979440449"><ele>269.0</ele><time>2026-04-28T07:24:04.999Z</time></trkpt><trkpt lat="45.0785648725021" lon="5.726232318915858"><ele>269.0</ele><time>2026-04-28T07:24:05.999Z</time></trkpt><trkpt lat="45.07849887419674" lon="5.726203684350716"><ele>269.0</ele><time>2026-04-28T07:24:06.999Z</time></trkpt><trkpt lat="45.078433063162805" lon="5.726174385845009"><ele>269.0</ele><time>2026-04-28T07:24:07.999Z</time></trkpt><trkpt lat="45.07836732276534" lon="5.726144072098246"><ele>269.0</ele><time>2026-04-28T07:24:08.999Z</time></trkpt><trkpt lat="45.078299821118655" lon="5.726114277766861"><ele>269.0</ele><time>2026-04-28T07:24:09.999Z</time></trkpt><trkpt lat="45.07823316887751" lon="5.726083665047586"><ele>269.0</ele><time>2026-04-28T07:24:10.999Z</time></trkpt><trkpt lat="45.078165378238666" lon="5.726050411889517"><ele>268.8571428571429</ele><time>2026-04-28T07:24:11.999Z</time></trkpt><trkpt lat="45.078096790775604" lon="5.7260171425012505"><ele>268.7142857142857</ele><time>2026-04-28T07:24:12.999Z</time></trkpt><trkpt lat="45.078028635080024" lon="5.7259895495656625"><ele>268.57142857142856</ele><time>2026-04-28T07:24:13.999Z</time></trkpt><trkpt lat="45.0779612503078" lon="5.7259608395169845"><ele>268.42857142857144</ele><time>2026-04-28T07:24:14.999Z</time></trkpt><trkpt lat="45.077892712541384" lon="5.725928246527159"><ele>268.2857142857143</ele><time>2026-04-28T07:24:15.999Z</time></trkpt><trkpt lat="45.07782481352621" lon="5.725905081342409"><ele>268.14285714285717</ele><time>2026-04-28T07:24:16.999Z</time></trkpt><trkpt lat="45.07775477340595" lon="5.725880930406441"><ele>268.0</ele><time>2026-04-28T07:24:17.999Z</time></trkpt><trkpt lat="45.077686112109895" lon="5.725850172679514"><ele>268.0</ele><time>2026-04-28T07:24:18.999Z</time></trkpt><trkpt lat="45.077617266680676" lon="5.725817964374459"><ele>268.0</ele><time>2026-04-28T07:24:19.999Z</time></trkpt><trkpt lat="45.07754601861455" lon="5.725785373454776"><ele>268.0</ele><time>2026-04-28T07:24:20.999Z</time></trkpt><trkpt lat="45.077475900895166" lon="5.725755426190818"><ele>268.0</ele><time>2026-04-28T07:24:21.999Z</time></trkpt><trkpt lat="45.07740580674421" lon="5.725721805897394"><ele>268.0</ele><time>2026-04-28T07:24:22.999Z</time></trkpt><trkpt lat="45.077334991659406" lon="5.7256885748853055"><ele>268.0</ele><time>2026-04-28T07:24:23.999Z</time></trkpt><trkpt lat="45.07726469142372" lon="5.725658492185494"><ele>268.0</ele><time>2026-04-28T07:24:24.999Z</time></trkpt><trkpt lat="45.07719843868424" lon="5.725629578041259"><ele>268.2857142857143</ele><time>2026-04-28T07:24:25.999Z</time></trkpt><trkpt lat="45.07712938576918" lon="5.725598480723162"><ele>268.57142857142856</ele><time>2026-04-28T07:24:26.999Z</time></trkpt><trkpt lat="45.07705931040292" lon="5.7255634225204375"><ele>268.85714285714283</ele><time>2026-04-28T07:24:27.999Z</time></trkpt><trkpt lat="45.076988226754146" lon="5.72552566980233"><ele>269.1428571428571</ele><time>2026-04-28T07:24:28.999Z</time></trkpt><trkpt lat="45.076919035972516" lon="5.7254891803630485"><ele>269.4285714285714</ele><time>2026-04-28T07:24:29.999Z</time></trkpt><trkpt lat="45.0768512506611" lon="5.725452258738935"><ele>269.7142857142857</ele><time>2026-04-28T07:24:30.999Z</time></trkpt><trkpt lat="45.07678219004895" lon="5.725419600694943"><ele>270.0</ele><time>2026-04-28T07:24:32Z</time></trkpt><trkpt lat="45.07671128019224" lon="5.725388460064223"><ele>270.0</ele><time>2026-04-28T07:24:33Z</time></trkpt><trkpt lat="45.07664169465504" lon="5.725357332064777"><ele>270.0</ele><time>2026-04-28T07:24:34Z</time></trkpt><trkpt lat="45.076569901534356" lon="5.725329921459027"><ele>270.0</ele><time>2026-04-28T07:24:35Z</time></trkpt><trkpt lat="45.07649954040218" lon="5.725301773737801"><ele>270.0</ele><time>2026-04-28T07:24:36Z</time></trkpt><trkpt lat="45.07642719368684" lon="5.725276845444715"><ele>270.0</ele><time>2026-04-28T07:24:37Z</time></trkpt><trkpt lat="45.07635686919642" lon="5.7252518833846375"><ele>270.0</ele><time>2026-04-28T07:24:38Z</time></trkpt><trkpt lat="45.07628835303203" lon="5.725223798861837"><ele>270.0</ele><time>2026-04-28T07:24:39Z</time></trkpt><trkpt lat="45.076219249577335" lon="5.725195236219026"><ele>270.0</ele><time>2026-04-28T07:24:40Z</time></trkpt><trkpt lat="45.07614950939578" lon="5.725163488393842"><ele>270.0</ele><time>2026-04-28T07:24:41Z</time></trkpt><trkpt lat="45.07607912788265" lon="5.725131894817473"><ele>270.0</ele><time>2026-04-28T07:24:42Z</time></trkpt><trkpt lat="45.07600854969285" lon="5.7251011975989385"><ele>270.0</ele><time>2026-04-28T07:24:43Z</time></trkpt><trkpt lat="45.075939447222844" lon="5.7250696950548425"><ele>270.0</ele><time>2026-04-28T07:24:44Z</time></trkpt><trkpt lat="45.075871865075285" lon="5.725040474301234"><ele>270.0</ele><time>2026-04-28T07:24:45Z</time></trkpt><trkpt lat="45.075804000783364" lon="5.725008578934304"><ele>270.0</ele><time>2026-04-28T07:24:46Z</time></trkpt><trkpt lat="45.07573872886052" lon="5.724980567308093"><ele>270.0</ele><time>2026-04-28T07:24:47Z</time></trkpt><trkpt lat="45.07567131176196" lon="5.724950762824493"><ele>270.0</ele><time>2026-04-28T07:24:48Z</time></trkpt><trkpt lat="45.075605145499395" lon="5.7249215082752745"><ele>270.0</ele><time>2026-04-28T07:24:49Z</time></trkpt><trkpt lat="45.07553605234265" lon="5.724889549240537"><ele>270.0</ele><time>2026-04-28T07:24:50Z</time></trkpt><trkpt lat="45.075467946251145" lon="5.724858912180621"><ele>270.0</ele><time>2026-04-28T07:24:51Z</time></trkpt><trkpt lat="45.07540063753652" lon="5.724825108626219"><ele>270.0</ele><time>2026-04-28T07:24:52Z</time></trkpt><trkpt lat="45.0753321926322" lon="5.724795724072605"><ele>270.0</ele><time>2026-04-28T07:24:53Z</time></trkpt><trkpt lat="45.07526439968289" lon="5.7247668421664235"><ele>270.0</ele><time>2026-04-28T07:24:54Z</time></trkpt><trkpt lat="45.0751961020747" lon="5.724737390254059"><ele>270.0</ele><time>2026-04-28T07:24:55Z</time></trkpt><trkpt lat="45.07513009320904" lon="5.72470906249922"><ele>270.0</ele><time>2026-04-28T07:24:56Z</time></trkpt><trkpt lat="45.075062714996136" lon="5.724677114494958"><ele>270.0</ele><time>2026-04-28T07:24:57Z</time></trkpt><trkpt lat="45.07499489933257" lon="5.724646052649288"><ele>270.0</ele><time>2026-04-28T07:24:58Z</time></trkpt><trkpt lat="45.074929097335556" lon="5.724617818647334"><ele>270.0</ele><time>2026-04-28T07:24:59Z</time></trkpt><trkpt lat="45.074865273268365" lon="5.724589712179016"><ele>270.0</ele><time>2026-04-28T07:25:00Z</time></trkpt><trkpt lat="45.07480027509669" lon="5.724559831070082"><ele>270.1428571428571</ele><time>2026-04-28T07:25:01Z</time></trkpt><trkpt lat="45.074732965051794" lon="5.724529447385477"><ele>270.2857142857143</ele><time>2026-04-28T07:25:02Z</time></trkpt><trkpt lat="45.07466655631498" lon="5.724501812245145"><ele>270.42857142857144</ele><time>2026-04-28T07:25:03Z</time></trkpt><trkpt lat="45.074600025939965" lon="5.724473528771077"><ele>270.57142857142856</ele><time>2026-04-28T07:25:04Z</time></trkpt><trkpt lat="45.07453321246163" lon="5.724444029599675"><ele>270.7142857142857</ele><time>2026-04-28T07:25:05Z</time></trkpt><trkpt lat="45.07446841818425" lon="5.72441261038036"><ele>270.85714285714283</ele><time>2026-04-28T07:25:06Z</time></trkpt><trkpt lat="45.07440224440498" lon="5.724380461296733"><ele>271.0</ele><time>2026-04-28T07:25:07Z</time></trkpt><trkpt lat="45.0743353697588" lon="5.724353060716282"><ele>271.0</ele><time>2026-04-28T07:25:08Z</time></trkpt><trkpt lat="45.074266969392774" lon="5.724324126576861"><ele>271.0</ele><time>2026-04-28T07:25:09Z</time></trkpt><trkpt lat="45.07419799434988" lon="5.724299235507201"><ele>271.0</ele><time>2026-04-28T07:25:10Z</time></trkpt><trkpt lat="45.07413130672029" lon="5.7242674465674765"><ele>271.0</ele><time>2026-04-28T07:25:11Z</time></trkpt><trkpt lat="45.07406409287793" lon="5.724233606746126"><ele>271.0</ele><time>2026-04-28T07:25:12Z</time></trkpt><trkpt lat="45.07399590896459" lon="5.724205101483548"><ele>271.0</ele><time>2026-04-28T07:25:13Z</time></trkpt><trkpt lat="45.07392925940127" lon="5.724173916534386"><ele>271.0</ele><time>2026-04-28T07:25:14Z</time></trkpt><trkpt lat="45.07386249874027" lon="5.7241459512890485"><ele>271.1428571428571</ele><time>2026-04-28T07:25:15Z</time></trkpt><trkpt lat="45.073792888041126" lon="5.724112836237435"><ele>271.2857142857143</ele><time>2026-04-28T07:25:16Z</time></trkpt><trkpt lat="45.073726027415574" lon="5.724082838430292"><ele>271.42857142857144</ele><time>2026-04-28T07:25:17Z</time></trkpt><trkpt lat="45.073657815790305" lon="5.724054025910308"><ele>271.57142857142856</ele><time>2026-04-28T07:25:18Z</time></trkpt><trkpt lat="45.07359114697756" lon="5.724023935318388"><ele>271.7142857142857</ele><time>2026-04-28T07:25:19Z</time></trkpt><trkpt lat="45.07352521275761" lon="5.723995311568132"><ele>271.85714285714283</ele><time>2026-04-28T07:25:20Z</time></trkpt><trkpt lat="45.073460314339584" lon="5.72396481476457"><ele>272.0</ele><time>2026-04-28T07:25:21Z</time></trkpt><trkpt lat="45.07339611271815" lon="5.7239373787454415"><ele>271.99999999999994</ele><time>2026-04-28T07:25:22Z</time></trkpt><trkpt lat="45.0733297748074" lon="5.723906340160985"><ele>272.0</ele><time>2026-04-28T07:25:23Z</time></trkpt><trkpt lat="45.07326425436237" lon="5.723875307211668"><ele>272.0</ele><time>2026-04-28T07:25:24Z</time></trkpt><trkpt lat="45.07320056195847" lon="5.723841192092735"><ele>272.0</ele><time>2026-04-28T07:25:25Z</time></trkpt><trkpt lat="45.07313336298045" lon="5.723814591770855"><ele>272.0</ele><time>2026-04-28T07:25:26Z</time></trkpt><trkpt lat="45.07306815639343" lon="5.7237907532285766"><ele>271.99999999999994</ele><time>2026-04-28T07:25:27Z</time></trkpt><trkpt lat="45.07300196419341" lon="5.723765053459137"><ele>272.0</ele><time>2026-04-28T07:25:28Z</time></trkpt><trkpt lat="45.0729366020742" lon="5.723733663000287"><ele>272.4285714285714</ele><time>2026-04-28T07:25:29Z</time></trkpt><trkpt lat="45.0728707665956" lon="5.723700987841283"><ele>272.85714285714283</ele><time>2026-04-28T07:25:30Z</time></trkpt><trkpt lat="45.072803916899716" lon="5.723672231386228"><ele>273.2857142857143</ele><time>2026-04-28T07:25:31Z</time></trkpt><trkpt lat="45.07273850721447" lon="5.723641932980211"><ele>273.71428571428567</ele><time>2026-04-28T07:25:32Z</time></trkpt><trkpt lat="45.072672880604884" lon="5.723609305861425"><ele>274.1428571428571</ele><time>2026-04-28T07:25:32.999Z</time></trkpt><trkpt lat="45.072610806201105" lon="5.723581332112721"><ele>274.57142857142856</ele><time>2026-04-28T07:25:33.999Z</time></trkpt><trkpt lat="45.072546152291075" lon="5.723552727247385"><ele>275.0</ele><time>2026-04-28T07:25:34.999Z</time></trkpt><trkpt lat="45.07247960135259" lon="5.723525531320679"><ele>275.0</ele><time>2026-04-28T07:25:35.999Z</time></trkpt><trkpt lat="45.07235829234457" lon="5.723464758636232"><ele>275.0</ele><time>2026-04-28T07:25:37.999Z</time></trkpt><trkpt lat="45.072294580490976" lon="5.72343455382032"><ele>275.0</ele><time>2026-04-28T07:25:38.999Z</time></trkpt><trkpt lat="45.072230859082104" lon="5.723408166608766"><ele>275.0</ele><time>2026-04-28T07:25:39.999Z</time></trkpt><trkpt lat="45.072164296342095" lon="5.723377904238724"><ele>275.0</ele><time>2026-04-28T07:25:40.999Z</time></trkpt><trkpt lat="45.072100902002724" lon="5.7233549853031835"><ele>275.0</ele><time>2026-04-28T07:25:41.999Z</time></trkpt><trkpt lat="45.07203526705428" lon="5.723328611244946"><ele>275.0</ele><time>2026-04-28T07:25:42.999Z</time></trkpt><trkpt lat="45.071974517021715" lon="5.723296128787473"><ele>275.0</ele><time>2026-04-28T07:25:43.999Z</time></trkpt><trkpt lat="45.07191187929086" lon="5.723267541349375"><ele>275.0</ele><time>2026-04-28T07:25:44.999Z</time></trkpt><trkpt lat="45.071847337762534" lon="5.723238050456111"><ele>275.0</ele><time>2026-04-28T07:25:45.999Z</time></trkpt><trkpt lat="45.0717824822116" lon="5.72320887995628"><ele>275.0</ele><time>2026-04-28T07:25:46.999Z</time></trkpt><trkpt lat="45.071719091551564" lon="5.72317951362013"><ele>275.0</ele><time>2026-04-28T07:25:47.999Z</time></trkpt><trkpt lat="45.07165533251215" lon="5.7231513787084864"><ele>275.0</ele><time>2026-04-28T07:25:48.999Z</time></trkpt><trkpt lat="45.07159158148446" lon="5.723125804708147"><ele>274.8571428571429</ele><time>2026-04-28T07:25:49.999Z</time></trkpt><trkpt lat="45.07152740293809" lon="5.723095535883766"><ele>274.7142857142857</ele><time>2026-04-28T07:25:50.999Z</time></trkpt><trkpt lat="45.07146363484264" lon="5.723072333674143"><ele>274.57142857142856</ele><time>2026-04-28T07:25:51.999Z</time></trkpt><trkpt lat="45.07139707983575" lon="5.72304662531335"><ele>274.42857142857144</ele><time>2026-04-28T07:25:52.999Z</time></trkpt><trkpt lat="45.07133039587984" lon="5.723019197903393"><ele>274.2857142857143</ele><time>2026-04-28T07:25:53.999Z</time></trkpt><trkpt lat="45.071266015085186" lon="5.722990113019302"><ele>274.14285714285717</ele><time>2026-04-28T07:25:54.999Z</time></trkpt><trkpt lat="45.071204763357855" lon="5.722960198165023"><ele>274.0</ele><time>2026-04-28T07:25:55.999Z</time></trkpt><trkpt lat="45.07114187193074" lon="5.722930299692127"><ele>274.00000000000006</ele><time>2026-04-28T07:25:56.999Z</time></trkpt><trkpt lat="45.07108098451386" lon="5.722903175045082"><ele>274.0</ele><time>2026-04-28T07:25:57.999Z</time></trkpt><trkpt lat="45.071019190171114" lon="5.722874391328976"><ele>274.0</ele><time>2026-04-28T07:25:58.999Z</time></trkpt><trkpt lat="45.07095475568659" lon="5.72284273253405"><ele>274.0</ele><time>2026-04-28T07:25:59.999Z</time></trkpt><trkpt lat="45.07088961261545" lon="5.722814794021314"><ele>274.0</ele><time>2026-04-28T07:26:00.999Z</time></trkpt><trkpt lat="45.07082606964473" lon="5.722787263847247"><ele>274.00000000000006</ele><time>2026-04-28T07:26:01.999Z</time></trkpt><trkpt lat="45.07076030687692" lon="5.7227577098744495"><ele>274.0</ele><time>2026-04-28T07:26:02.999Z</time></trkpt><trkpt lat="45.07069593435197" lon="5.722725342222408"><ele>274.28571428571433</ele><time>2026-04-28T07:26:03.999Z</time></trkpt><trkpt lat="45.0706301603233" lon="5.722700021294979"><ele>274.57142857142856</ele><time>2026-04-28T07:26:04.999Z</time></trkpt><trkpt lat="45.070564337696524" lon="5.7226741479339545"><ele>274.8571428571429</ele><time>2026-04-28T07:26:05.999Z</time></trkpt><trkpt lat="45.07049788150765" lon="5.722639697163646"><ele>275.14285714285717</ele><time>2026-04-28T07:26:06.999Z</time></trkpt><trkpt lat="45.07043137879555" lon="5.72260953361187"><ele>275.42857142857144</ele><time>2026-04-28T07:26:07.999Z</time></trkpt><trkpt lat="45.070365549659854" lon="5.722580492117902"><ele>275.7142857142857</ele><time>2026-04-28T07:26:08.999Z</time></trkpt><trkpt lat="45.0702999352884" lon="5.72255390987474"><ele>276.0</ele><time>2026-04-28T07:26:09.999Z</time></trkpt><trkpt lat="45.07023369967355" lon="5.722520406597687"><ele>276.0</ele><time>2026-04-28T07:26:10.999Z</time></trkpt><trkpt lat="45.07016739598695" lon="5.722492408163485"><ele>276.0</ele><time>2026-04-28T07:26:11.999Z</time></trkpt><trkpt lat="45.07010065855212" lon="5.7224648584931455"><ele>276.0</ele><time>2026-04-28T07:26:12.999Z</time></trkpt><trkpt lat="45.07003528070105" lon="5.722440589735264"><ele>276.0</ele><time>2026-04-28T07:26:13.999Z</time></trkpt><trkpt lat="45.06997006127265" lon="5.722415350626671"><ele>276.0</ele><time>2026-04-28T07:26:14.999Z</time></trkpt><trkpt lat="45.06990233075676" lon="5.722389405403653"><ele>276.0</ele><time>2026-04-28T07:26:15.999Z</time></trkpt><trkpt lat="45.0698427800102" lon="5.722351647802439"><ele>276.0</ele><time>2026-04-28T07:26:16.999Z</time></trkpt><trkpt lat="45.06977227101744" lon="5.722313049663237"><ele>276.0</ele><time>2026-04-28T07:26:17.999Z</time></trkpt><trkpt lat="45.06969377270325" lon="5.722283538151334"><ele>276.0</ele><time>2026-04-28T07:26:18.999Z</time></trkpt><trkpt lat="45.069632289728794" lon="5.722258445753508"><ele>276.0</ele><time>2026-04-28T07:26:19.999Z</time></trkpt><trkpt lat="45.06956382343729" lon="5.722228804988029"><ele>276.0</ele><time>2026-04-28T07:26:20.999Z</time></trkpt><trkpt lat="45.069498152601206" lon="5.722198177710244"><ele>276.0</ele><time>2026-04-28T07:26:21.999Z</time></trkpt><trkpt lat="45.069431335161354" lon="5.722165213847371"><ele>276.0</ele><time>2026-04-28T07:26:22.999Z</time></trkpt><trkpt lat="45.06936510356965" lon="5.722131933756731"><ele>276.0</ele><time>2026-04-28T07:26:23.999Z</time></trkpt><trkpt lat="45.06929837545104" lon="5.722103715576877"><ele>276.0</ele><time>2026-04-28T07:26:24.999Z</time></trkpt><trkpt lat="45.069231273684395" lon="5.722074813285374"><ele>276.0</ele><time>2026-04-28T07:26:25.999Z</time></trkpt><trkpt lat="45.06916480166849" lon="5.722046865018001"><ele>276.0</ele><time>2026-04-28T07:26:26.999Z</time></trkpt><trkpt lat="45.06909717734475" lon="5.7220151405238475"><ele>276.0</ele><time>2026-04-28T07:26:27.999Z</time></trkpt><trkpt lat="45.069032655832046" lon="5.721983781643484"><ele>276.0</ele><time>2026-04-28T07:26:28.999Z</time></trkpt><trkpt lat="45.06896678016987" lon="5.721958594400396"><ele>276.0</ele><time>2026-04-28T07:26:29.999Z</time></trkpt><trkpt lat="45.06889969706965" lon="5.721928659081763"><ele>276.0</ele><time>2026-04-28T07:26:30.999Z</time></trkpt><trkpt lat="45.06883257694611" lon="5.721898737553872"><ele>276.0</ele><time>2026-04-28T07:26:31.999Z</time></trkpt><trkpt lat="45.06876713392863" lon="5.721870117676539"><ele>276.0</ele><time>2026-04-28T07:26:32.999Z</time></trkpt><trkpt lat="45.068701877624534" lon="5.721839383817321"><ele>276.0</ele><time>2026-04-28T07:26:33.999Z</time></trkpt><trkpt lat="45.068635894478284" lon="5.721808169408844"><ele>276.0</ele><time>2026-04-28T07:26:34.999Z</time></trkpt><trkpt lat="45.06856907871919" lon="5.721774569025707"><ele>276.0</ele><time>2026-04-28T07:26:35.999Z</time></trkpt><trkpt lat="45.06849992154018" lon="5.721746539027788"><ele>276.0</ele><time>2026-04-28T07:26:36.999Z</time></trkpt><trkpt lat="45.06843297956022" lon="5.72172000045159"><ele>276.0</ele><time>2026-04-28T07:26:38Z</time></trkpt><trkpt lat="45.06836779012094" lon="5.7216906086874335"><ele>276.0</ele><time>2026-04-28T07:26:39Z</time></trkpt><trkpt lat="45.06829960389407" lon="5.721656326223125"><ele>276.0</ele><time>2026-04-28T07:26:40Z</time></trkpt><trkpt lat="45.06823573583348" lon="5.721627474676606"><ele>276.0</ele><time>2026-04-28T07:26:41Z</time></trkpt><trkpt lat="45.068169249658524" lon="5.721600951645096"><ele>276.0</ele><time>2026-04-28T07:26:42Z</time></trkpt><trkpt lat="45.06810503809104" lon="5.721572057825202"><ele>276.0</ele><time>2026-04-28T07:26:43Z</time></trkpt><trkpt lat="45.06803913593655" lon="5.7215409516735045"><ele>276.0</ele><time>2026-04-28T07:26:44Z</time></trkpt><trkpt lat="45.06797417645734" lon="5.721517023123817"><ele>276.0</ele><time>2026-04-28T07:26:45Z</time></trkpt><trkpt lat="45.06790857307545" lon="5.721482930531239"><ele>276.0</ele><time>2026-04-28T07:26:46Z</time></trkpt><trkpt lat="45.06784244970336" lon="5.721451535142249"><ele>276.0</ele><time>2026-04-28T07:26:47Z</time></trkpt><trkpt lat="45.06777595187502" lon="5.721425842184672"><ele>276.0</ele><time>2026-04-28T07:26:48Z</time></trkpt><trkpt lat="45.06770953491547" lon="5.721400389412401"><ele>276.0</ele><time>2026-04-28T07:26:49Z</time></trkpt><trkpt lat="45.067644985178546" lon="5.721371633600887"><ele>276.0</ele><time>2026-04-28T07:26:50Z</time></trkpt><trkpt lat="45.06757963479117" lon="5.721340837063543"><ele>276.0</ele><time>2026-04-28T07:26:51Z</time></trkpt><trkpt lat="45.06751502516922" lon="5.721309589272062"><ele>276.0</ele><time>2026-04-28T07:26:52Z</time></trkpt><trkpt lat="45.06745122965803" lon="5.721280903199316"><ele>276.0</ele><time>2026-04-28T07:26:53Z</time></trkpt><trkpt lat="45.0673856692629" lon="5.721254130623866"><ele>276.0</ele><time>2026-04-28T07:26:54Z</time></trkpt><trkpt lat="45.067317514596844" lon="5.721218436370891"><ele>276.0</ele><time>2026-04-28T07:26:55Z</time></trkpt><trkpt lat="45.067255046422936" lon="5.7211908556209545"><ele>276.0</ele><time>2026-04-28T07:26:56Z</time></trkpt><trkpt lat="45.06719140548283" lon="5.721155532001074"><ele>276.0</ele><time>2026-04-28T07:26:57Z</time></trkpt><trkpt lat="45.067124699039034" lon="5.72112923689116"><ele>276.0</ele><time>2026-04-28T07:26:58Z</time></trkpt><trkpt lat="45.067059498079246" lon="5.721101686866319"><ele>276.0</ele><time>2026-04-28T07:26:59Z</time></trkpt><trkpt lat="45.06699590639199" lon="5.7210730524678866"><ele>276.0</ele><time>2026-04-28T07:27:00Z</time></trkpt><trkpt lat="45.06692919514133" lon="5.721042626973227"><ele>276.0</ele><time>2026-04-28T07:27:01Z</time></trkpt><trkpt lat="45.066865053486104" lon="5.721013602544893"><ele>276.0</ele><time>2026-04-28T07:27:02Z</time></trkpt><trkpt lat="45.066802220229064" lon="5.7209841400818195"><ele>276.0</ele><time>2026-04-28T07:27:03Z</time></trkpt><trkpt lat="45.066740792759944" lon="5.720957588265207"><ele>276.0</ele><time>2026-04-28T07:27:04Z</time></trkpt><trkpt lat="45.06667656406576" lon="5.720929059931294"><ele>276.0</ele><time>2026-04-28T07:27:05Z</time></trkpt><trkpt lat="45.06661302407086" lon="5.720900085612619"><ele>276.0</ele><time>2026-04-28T07:27:06Z</time></trkpt><trkpt lat="45.06655226193422" lon="5.720865195096861"><ele>276.6666666666667</ele><time>2026-04-28T07:27:07Z</time></trkpt><trkpt lat="45.06648978029376" lon="5.720838845542096"><ele>277.3333333333333</ele><time>2026-04-28T07:27:08Z</time></trkpt><trkpt lat="45.066428380405114" lon="5.720812868539843"><ele>278.0</ele><time>2026-04-28T07:27:09Z</time></trkpt><trkpt lat="45.06636578317434" lon="5.720788159168426"><ele>278.66666666666663</ele><time>2026-04-28T07:27:10Z</time></trkpt><trkpt lat="45.06630287222837" lon="5.720768776686144"><ele>279.3333333333333</ele><time>2026-04-28T07:27:11Z</time></trkpt><trkpt lat="45.06623730512036" lon="5.720752606878045"><ele>280.0</ele><time>2026-04-28T07:27:12Z</time></trkpt><trkpt lat="45.06611323203143" lon="5.720734972938849"><ele>280.0</ele><time>2026-04-28T07:27:14Z</time></trkpt><trkpt lat="45.06599212492603" lon="5.720747274740886"><ele>280.0</ele><time>2026-04-28T07:27:16Z</time></trkpt><trkpt lat="45.06580770435293" lon="5.720825348798061"><ele>280.0</ele><time>2026-04-28T07:27:19Z</time></trkpt><trkpt lat="45.06574768513889" lon="5.720861096702231"><ele>280.0</ele><time>2026-04-28T07:27:20Z</time></trkpt><trkpt lat="45.06567930098132" lon="5.72089089784916"><ele>280.0</ele><time>2026-04-28T07:27:21Z</time></trkpt><trkpt lat="45.06561825187599" lon="5.720919472603782"><ele>280.0</ele><time>2026-04-28T07:27:22Z</time></trkpt><trkpt lat="45.06549360946959" lon="5.7209694425272835"><ele>280.0</ele><time>2026-04-28T07:27:24Z</time></trkpt><trkpt lat="45.06537031563567" lon="5.721026513748667"><ele>280.0</ele><time>2026-04-28T07:27:26Z</time></trkpt><trkpt lat="45.0653106614849" lon="5.721057216299504"><ele>280.0</ele><time>2026-04-28T07:27:27Z</time></trkpt><trkpt lat="45.06524539891336" lon="5.721065911479577"><ele>280.0</ele><time>2026-04-28T07:27:28Z</time></trkpt><trkpt lat="45.06518368813798" lon="5.721094070383073"><ele>280.0</ele><time>2026-04-28T07:27:29Z</time></trkpt><trkpt lat="45.06512072909327" lon="5.721123060763203"><ele>280.0</ele><time>2026-04-28T07:27:30Z</time></trkpt><trkpt lat="45.065059002048486" lon="5.721151676010747"><ele>280.0</ele><time>2026-04-28T07:27:31Z</time></trkpt><trkpt lat="45.06499615575639" lon="5.721180810121608"><ele>280.0</ele><time>2026-04-28T07:27:32Z</time></trkpt><trkpt lat="45.06493291563529" lon="5.721221062768479"><ele>280.0</ele><time>2026-04-28T07:27:33Z</time></trkpt><trkpt lat="45.06487159300575" lon="5.721255499754916"><ele>280.0</ele><time>2026-04-28T07:27:34Z</time></trkpt><trkpt lat="45.0647519066909" lon="5.721305929922237"><ele>280.0</ele><time>2026-04-28T07:27:35.999Z</time></trkpt><trkpt lat="45.06469055540639" lon="5.721331238194173"><ele>280.0</ele><time>2026-04-28T07:27:36.999Z</time></trkpt><trkpt lat="45.06462909377909" lon="5.721359301272721"><ele>280.0</ele><time>2026-04-28T07:27:37.999Z</time></trkpt><trkpt lat="45.064568909668644" lon="5.721387250038134"><ele>280.0</ele><time>2026-04-28T07:27:38.999Z</time></trkpt><trkpt lat="45.064452096259444" lon="5.7214505051334426"><ele>280.0</ele><time>2026-04-28T07:27:40.999Z</time></trkpt><trkpt lat="45.06439117877953" lon="5.721479504249825"><ele>280.0</ele><time>2026-04-28T07:27:41.999Z</time></trkpt><trkpt lat="45.06432943394323" lon="5.72150468263168"><ele>280.0</ele><time>2026-04-28T07:27:42.999Z</time></trkpt><trkpt lat="45.06426678993209" lon="5.721533360841371"><ele>280.0</ele><time>2026-04-28T07:27:43.999Z</time></trkpt><trkpt lat="45.06420484122876" lon="5.7215589700013885"><ele>280.0</ele><time>2026-04-28T07:27:44.999Z</time></trkpt><trkpt lat="45.06408350723477" lon="5.721603820403096"><ele>280.0</ele><time>2026-04-28T07:27:46.999Z</time></trkpt><trkpt lat="45.06401780126132" lon="5.7216102681434124"><ele>280.0</ele><time>2026-04-28T07:27:47.999Z</time></trkpt><trkpt lat="45.06395025573169" lon="5.721614066293628"><ele>280.0</ele><time>2026-04-28T07:27:48.999Z</time></trkpt><trkpt lat="45.06388652304749" lon="5.721606493456557"><ele>280.0</ele><time>2026-04-28T07:27:49.999Z</time></trkpt><trkpt lat="45.06382474410488" lon="5.721585546111446"><ele>280.2857142857143</ele><time>2026-04-28T07:27:50.999Z</time></trkpt><trkpt lat="45.063763140676876" lon="5.721559039073565"><ele>280.57142857142856</ele><time>2026-04-28T07:27:51.999Z</time></trkpt><trkpt lat="45.063703275786786" lon="5.721518837185925"><ele>280.8571428571429</ele><time>2026-04-28T07:27:52.999Z</time></trkpt><trkpt lat="45.06363945532837" lon="5.721463511156386"><ele>281.1428571428571</ele><time>2026-04-28T07:27:53.999Z</time></trkpt><trkpt lat="45.06359050841863" lon="5.7214064200704335"><ele>281.42857142857144</ele><time>2026-04-28T07:27:54.999Z</time></trkpt><trkpt lat="45.06354147283247" lon="5.7213504526780286"><ele>281.7142857142857</ele><time>2026-04-28T07:27:55.999Z</time></trkpt><trkpt lat="45.06348356704545" lon="5.721306936921443"><ele>282.0</ele><time>2026-04-28T07:27:56.999Z</time></trkpt><trkpt lat="45.06343288472279" lon="5.72125323080348"><ele>282.0</ele><time>2026-04-28T07:27:57.999Z</time></trkpt><trkpt lat="45.06337567506321" lon="5.721202301890441"><ele>282.0</ele><time>2026-04-28T07:27:58.999Z</time></trkpt><trkpt lat="45.06332081122339" lon="5.7211477586877475"><ele>282.0</ele><time>2026-04-28T07:27:59.999Z</time></trkpt><trkpt lat="45.06326479922101" lon="5.7210963858213395"><ele>282.0</ele><time>2026-04-28T07:28:00.999Z</time></trkpt><trkpt lat="45.063209470750536" lon="5.7210419364464"><ele>282.0</ele><time>2026-04-28T07:28:01.999Z</time></trkpt><trkpt lat="45.063155227977624" lon="5.72098742479963"><ele>282.0</ele><time>2026-04-28T07:28:02.999Z</time></trkpt><trkpt lat="45.063098807097965" lon="5.720933719049106"><ele>282.0</ele><time>2026-04-28T07:28:03.999Z</time></trkpt><trkpt lat="45.06303959621686" lon="5.72087861442095"><ele>282.0</ele><time>2026-04-28T07:28:04.999Z</time></trkpt><trkpt lat="45.06298397834263" lon="5.720823165285308"><ele>282.0</ele><time>2026-04-28T07:28:05.999Z</time></trkpt><trkpt lat="45.062929079689496" lon="5.720766788621349"><ele>282.0</ele><time>2026-04-28T07:28:06.999Z</time></trkpt><trkpt lat="45.06287301944889" lon="5.720708937908367"><ele>282.0</ele><time>2026-04-28T07:28:07.999Z</time></trkpt><trkpt lat="45.06281498135855" lon="5.72065303618105"><ele>282.0</ele><time>2026-04-28T07:28:08.999Z</time></trkpt><trkpt lat="45.062757760644146" lon="5.72060005483091"><ele>282.0</ele><time>2026-04-28T07:28:09.999Z</time></trkpt><trkpt lat="45.06270154531672" lon="5.720545398651211"><ele>282.0</ele><time>2026-04-28T07:28:10.999Z</time></trkpt><trkpt lat="45.062644575579235" lon="5.720488134793826"><ele>282.0</ele><time>2026-04-28T07:28:11.999Z</time></trkpt><trkpt lat="45.06258797495868" lon="5.720432985781992"><ele>282.0</ele><time>2026-04-28T07:28:12.999Z</time></trkpt><trkpt lat="45.06253420568011" lon="5.720376644836153"><ele>282.0</ele><time>2026-04-28T07:28:13.999Z</time></trkpt><trkpt lat="45.062481842023416" lon="5.720319496033734"><ele>282.0</ele><time>2026-04-28T07:28:14.999Z</time></trkpt><trkpt lat="45.06242495889498" lon="5.720269177594687"><ele>282.0</ele><time>2026-04-28T07:28:15.999Z</time></trkpt><trkpt lat="45.062369446601764" lon="5.720215650499995"><ele>282.0</ele><time>2026-04-28T07:28:16.999Z</time></trkpt><trkpt lat="45.06231446190479" lon="5.720163699443329"><ele>282.0</ele><time>2026-04-28T07:28:17.999Z</time></trkpt><trkpt lat="45.06225967588527" lon="5.720117235162156"><ele>282.42857142857144</ele><time>2026-04-28T07:28:18.999Z</time></trkpt><trkpt lat="45.0622039642651" lon="5.720065524929024"><ele>282.85714285714283</ele><time>2026-04-28T07:28:19.999Z</time></trkpt><trkpt lat="45.06214776535912" lon="5.72001544587873"><ele>283.2857142857143</ele><time>2026-04-28T07:28:20.999Z</time></trkpt><trkpt lat="45.062089000465825" lon="5.7199597250926075"><ele>283.7142857142857</ele><time>2026-04-28T07:28:21.999Z</time></trkpt><trkpt lat="45.06203134004844" lon="5.719909735674007"><ele>284.14285714285717</ele><time>2026-04-28T07:28:22.999Z</time></trkpt><trkpt lat="45.06197462564988" lon="5.7198608585070785"><ele>284.57142857142856</ele><time>2026-04-28T07:28:23.999Z</time></trkpt><trkpt lat="45.06191733579279" lon="5.719817518986931"><ele>285.0</ele><time>2026-04-28T07:28:24.999Z</time></trkpt><trkpt lat="45.061859476121604" lon="5.719776980604824"><ele>285.0</ele><time>2026-04-28T07:28:25.999Z</time></trkpt><trkpt lat="45.061750395289856" lon="5.7196960070816925"><ele>285.0</ele><time>2026-04-28T07:28:27.999Z</time></trkpt><trkpt lat="45.06170207864085" lon="5.7196345589318565"><ele>285.0</ele><time>2026-04-28T07:28:28.999Z</time></trkpt><trkpt lat="45.06165638608133" lon="5.719568155549942"><ele>285.0</ele><time>2026-04-28T07:28:29.999Z</time></trkpt><trkpt lat="45.061613522766436" lon="5.719502860539711"><ele>285.0</ele><time>2026-04-28T07:28:30.999Z</time></trkpt><trkpt lat="45.06152771154552" lon="5.719402103068002"><ele>285.0</ele><time>2026-04-28T07:28:32.999Z</time></trkpt><trkpt lat="45.06144829766306" lon="5.719323447134615"><ele>286.2</ele><time>2026-04-28T07:28:34.999Z</time></trkpt><trkpt lat="45.061342733798995" lon="5.719351641885286"><ele>287.4</ele><time>2026-04-28T07:30:30.999Z</time></trkpt><trkpt lat="45.061274912881466" lon="5.719324768044795"><ele>288.6</ele><time>2026-04-28T07:30:35.999Z</time></trkpt><trkpt lat="45.06118492022203" lon="5.719300676815012"><ele>289.8</ele><time>2026-04-28T07:30:38.999Z</time></trkpt><trkpt lat="45.06109908278262" lon="5.719250085544394"><ele>291.0</ele><time>2026-04-28T07:30:41.999Z</time></trkpt><trkpt lat="45.06101173967682" lon="5.719188526020013"><ele>291.0</ele><time>2026-04-28T07:30:43.999Z</time></trkpt><trkpt lat="45.06091213115047" lon="5.719118395000272"><ele>291.0</ele><time>2026-04-28T07:30:45.999Z</time></trkpt><trkpt lat="45.06080044628709" lon="5.719039711391125"><ele>291.0</ele><time>2026-04-28T07:30:47.999Z</time></trkpt><trkpt lat="45.06073170303617" lon="5.719037190376626"><ele>291.0</ele><time>2026-04-28T07:30:48.999Z</time></trkpt><trkpt lat="45.0606191170259" lon="5.718960567220001"><ele>291.0</ele><time>2026-04-28T07:30:51Z</time></trkpt><trkpt lat="45.060577837150724" lon="5.718877297098811"><ele>293.1428571428571</ele><time>2026-04-28T07:30:52Z</time></trkpt><trkpt lat="45.06051826051314" lon="5.718832818371929"><ele>295.2857142857143</ele><time>2026-04-28T07:30:53Z</time></trkpt><trkpt lat="45.06045860923546" lon="5.718788284061371"><ele>297.42857142857144</ele><time>2026-04-28T07:30:54Z</time></trkpt><trkpt lat="45.06039696295786" lon="5.718742260304451"><ele>299.57142857142856</ele><time>2026-04-28T07:30:55Z</time></trkpt><trkpt lat="45.06033623473271" lon="5.718714186300873"><ele>301.7142857142857</ele><time>2026-04-28T07:30:56Z</time></trkpt><trkpt lat="45.060275866048705" lon="5.7186617049266815"><ele>303.85714285714283</ele><time>2026-04-28T07:30:57Z</time></trkpt><trkpt lat="45.060217566297574" lon="5.718617437679887"><ele>306.0</ele><time>2026-04-28T07:30:58Z</time></trkpt><trkpt lat="45.06015646550355" lon="5.718574060871434"><ele>305.6666666666667</ele><time>2026-04-28T07:30:59Z</time></trkpt><trkpt lat="45.06009098749829" lon="5.718526657420724"><ele>305.3333333333333</ele><time>2026-04-28T07:31:00Z</time></trkpt><trkpt lat="45.06002951999707" lon="5.718475180257366"><ele>305.0</ele><time>2026-04-28T07:31:01Z</time></trkpt><trkpt lat="45.05996624489943" lon="5.718425688443165"><ele>304.66666666666663</ele><time>2026-04-28T07:31:02Z</time></trkpt><trkpt lat="45.059898553997" lon="5.718377554317865"><ele>304.3333333333333</ele><time>2026-04-28T07:31:03Z</time></trkpt><trkpt lat="45.05983130430549" lon="5.7183273269467465"><ele>304.0</ele><time>2026-04-28T07:31:04Z</time></trkpt><trkpt lat="45.059757324980524" lon="5.718267195506051"><ele>304.0</ele><time>2026-04-28T07:31:05Z</time></trkpt><trkpt lat="45.05968494632538" lon="5.718211710696332"><ele>304.0</ele><time>2026-04-28T07:31:06Z</time></trkpt><trkpt lat="45.059613352973585" lon="5.7181569188901555"><ele>304.0</ele><time>2026-04-28T07:31:07Z</time></trkpt><trkpt lat="45.05953850583252" lon="5.718103876117427"><ele>304.0</ele><time>2026-04-28T07:31:08Z</time></trkpt><trkpt lat="45.059467408151995" lon="5.718047047661355"><ele>304.0</ele><time>2026-04-28T07:31:09Z</time></trkpt><trkpt lat="45.05939483829624" lon="5.717989771438187"><ele>304.0</ele><time>2026-04-28T07:31:10Z</time></trkpt><trkpt lat="45.059322800494506" lon="5.717937227945232"><ele>304.0</ele><time>2026-04-28T07:31:11Z</time></trkpt><trkpt lat="45.0592484727859" lon="5.717881307680136"><ele>304.0</ele><time>2026-04-28T07:31:12Z</time></trkpt><trkpt lat="45.059176616332884" lon="5.7178262137453215"><ele>304.0</ele><time>2026-04-28T07:31:13Z</time></trkpt><trkpt lat="45.059105242432565" lon="5.717767767542193"><ele>304.0</ele><time>2026-04-28T07:31:14Z</time></trkpt><trkpt lat="45.05903192384004" lon="5.71770802160619"><ele>304.0</ele><time>2026-04-28T07:31:15Z</time></trkpt><trkpt lat="45.058960757017886" lon="5.717651039652626"><ele>304.0</ele><time>2026-04-28T07:31:16Z</time></trkpt><trkpt lat="45.05888877767467" lon="5.717592009084971"><ele>303.16666666666663</ele><time>2026-04-28T07:31:17Z</time></trkpt><trkpt lat="45.05881543329212" lon="5.717531762700427"><ele>302.3333333333333</ele><time>2026-04-28T07:31:18Z</time></trkpt><trkpt lat="45.05874481588143" lon="5.7174712435872355"><ele>301.5</ele><time>2026-04-28T07:31:19Z</time></trkpt><trkpt lat="45.05867321485378" lon="5.717408312003231"><ele>300.6666666666667</ele><time>2026-04-28T07:31:20Z</time></trkpt><trkpt lat="45.05859999858997" lon="5.717349726660473"><ele>299.83333333333337</ele><time>2026-04-28T07:31:21Z</time></trkpt><trkpt lat="45.05852956580479" lon="5.71729121081939"><ele>299.0</ele><time>2026-04-28T07:31:22Z</time></trkpt><trkpt lat="45.05846023095791" lon="5.7172307033425325"><ele>299.0</ele><time>2026-04-28T07:31:23Z</time></trkpt><trkpt lat="45.05839102722405" lon="5.717171595377801"><ele>299.0</ele><time>2026-04-28T07:31:24Z</time></trkpt><trkpt lat="45.05832480857614" lon="5.717112957311779"><ele>299.0</ele><time>2026-04-28T07:31:25Z</time></trkpt><trkpt lat="45.0582561536968" lon="5.717054692945974"><ele>299.0</ele><time>2026-04-28T07:31:26Z</time></trkpt><trkpt lat="45.058187268895836" lon="5.71700273847225"><ele>299.0</ele><time>2026-04-28T07:31:27Z</time></trkpt><trkpt lat="45.058116387072765" lon="5.716949921356912"><ele>299.0</ele><time>2026-04-28T07:31:28Z</time></trkpt><trkpt lat="45.05804596259901" lon="5.7168822840494515"><ele>299.0</ele><time>2026-04-28T07:31:29Z</time></trkpt><trkpt lat="45.057977635702265" lon="5.716830135479891"><ele>299.0</ele><time>2026-04-28T07:31:30Z</time></trkpt><trkpt lat="45.05790821839134" lon="5.716771399438835"><ele>299.0</ele><time>2026-04-28T07:31:31Z</time></trkpt><trkpt lat="45.0578388510227" lon="5.716710930438222"><ele>299.0</ele><time>2026-04-28T07:31:32Z</time></trkpt><trkpt lat="45.057770873600816" lon="5.716654348203887"><ele>299.0</ele><time>2026-04-28T07:31:33Z</time></trkpt><trkpt lat="45.057702030011775" lon="5.716594191531888"><ele>299.0</ele><time>2026-04-28T07:31:34Z</time></trkpt><trkpt lat="45.057632230705174" lon="5.716533603988618"><ele>299.0</ele><time>2026-04-28T07:31:35Z</time></trkpt><trkpt lat="45.05756202574799" lon="5.716475889309326"><ele>299.0</ele><time>2026-04-28T07:31:36Z</time></trkpt><trkpt lat="45.05749374210263" lon="5.716417438521398"><ele>299.0</ele><time>2026-04-28T07:31:37Z</time></trkpt><trkpt lat="45.057425624558114" lon="5.716362648896253"><ele>299.0</ele><time>2026-04-28T07:31:38Z</time></trkpt><trkpt lat="45.05735803320599" lon="5.716306598889324"><ele>299.0</ele><time>2026-04-28T07:31:39Z</time></trkpt><trkpt lat="45.05728623865707" lon="5.716254246138435"><ele>299.0</ele><time>2026-04-28T07:31:40Z</time></trkpt><trkpt lat="45.057212505214835" lon="5.716196971741337"><ele>298.33333333333337</ele><time>2026-04-28T07:31:41Z</time></trkpt><trkpt lat="45.05713949944407" lon="5.716135459997649"><ele>297.6666666666667</ele><time>2026-04-28T07:31:42Z</time></trkpt><trkpt lat="45.057070836356864" lon="5.716071188136052"><ele>297.0</ele><time>2026-04-28T07:31:43Z</time></trkpt><trkpt lat="45.0569956785563" lon="5.716004137994353"><ele>296.3333333333333</ele><time>2026-04-28T07:31:44Z</time></trkpt><trkpt lat="45.05692520729593" lon="5.715938633072321"><ele>295.66666666666663</ele><time>2026-04-28T07:31:45Z</time></trkpt><trkpt lat="45.056847739165256" lon="5.71587547210497"><ele>295.0</ele><time>2026-04-28T07:31:46Z</time></trkpt><trkpt lat="45.05676503088154" lon="5.71581948191799"><ele>295.0</ele><time>2026-04-28T07:31:47Z</time></trkpt><trkpt lat="45.056688161442885" lon="5.715749621251498"><ele>295.0</ele><time>2026-04-28T07:31:47.999Z</time></trkpt><trkpt lat="45.05661704243585" lon="5.715678912078745"><ele>295.0</ele><time>2026-04-28T07:31:48.999Z</time></trkpt><trkpt lat="45.05653859330667" lon="5.715613963745248"><ele>295.0</ele><time>2026-04-28T07:31:49.999Z</time></trkpt><trkpt lat="45.05646521943658" lon="5.715549429143635"><ele>295.0</ele><time>2026-04-28T07:31:50.999Z</time></trkpt><trkpt lat="45.05639545107315" lon="5.7154767549431895"><ele>295.0</ele><time>2026-04-28T07:31:51.999Z</time></trkpt><trkpt lat="45.056317525107985" lon="5.715417063039316"><ele>295.3333333333333</ele><time>2026-04-28T07:31:52.999Z</time></trkpt><trkpt lat="45.05624174342736" lon="5.715355724398917"><ele>295.66666666666663</ele><time>2026-04-28T07:31:53.999Z</time></trkpt><trkpt lat="45.05617061107123" lon="5.71529724026861"><ele>296.0</ele><time>2026-04-28T07:31:54.999Z</time></trkpt><trkpt lat="45.056095573926946" lon="5.71523580336567"><ele>296.3333333333333</ele><time>2026-04-28T07:31:55.999Z</time></trkpt><trkpt lat="45.05602452208349" lon="5.715173535785455"><ele>296.6666666666667</ele><time>2026-04-28T07:31:56.999Z</time></trkpt><trkpt lat="45.05595244878657" lon="5.715107268155124"><ele>297.0</ele><time>2026-04-28T07:31:57.999Z</time></trkpt><trkpt lat="45.055875605613444" lon="5.715045020874495"><ele>297.0</ele><time>2026-04-28T07:31:58.999Z</time></trkpt><trkpt lat="45.05580746846149" lon="5.714981961488791"><ele>297.0</ele><time>2026-04-28T07:31:59.999Z</time></trkpt><trkpt lat="45.055737385630714" lon="5.714918723706735"><ele>297.0</ele><time>2026-04-28T07:32:00.999Z</time></trkpt><trkpt lat="45.0556680646369" lon="5.714845230998948"><ele>297.0</ele><time>2026-04-28T07:32:01.999Z</time></trkpt><trkpt lat="45.055600573231736" lon="5.714778450811597"><ele>297.0</ele><time>2026-04-28T07:32:02.999Z</time></trkpt><trkpt lat="45.05553090455944" lon="5.714706706448979"><ele>297.0</ele><time>2026-04-28T07:32:03.999Z</time></trkpt><trkpt lat="45.055462516289026" lon="5.714640125802758"><ele>297.3333333333333</ele><time>2026-04-28T07:32:04.999Z</time></trkpt><trkpt lat="45.05539194593649" lon="5.714574641426508"><ele>297.6666666666667</ele><time>2026-04-28T07:32:05.999Z</time></trkpt><trkpt lat="45.05532834670338" lon="5.714506420679352"><ele>298.0</ele><time>2026-04-28T07:32:06.999Z</time></trkpt><trkpt lat="45.055259286539986" lon="5.714432964865778"><ele>298.33333333333337</ele><time>2026-04-28T07:32:07.999Z</time></trkpt><trkpt lat="45.05519277980933" lon="5.714363945411029"><ele>298.6666666666667</ele><time>2026-04-28T07:32:08.999Z</time></trkpt><trkpt lat="45.05512536884704" lon="5.714294425852691"><ele>299.0</ele><time>2026-04-28T07:32:09.999Z</time></trkpt><trkpt lat="45.055056396736084" lon="5.714230951352754"><ele>299.0</ele><time>2026-04-28T07:32:10.999Z</time></trkpt><trkpt lat="45.054990156287865" lon="5.714161603432544"><ele>299.0</ele><time>2026-04-28T07:32:11.999Z</time></trkpt><trkpt lat="45.05492536268497" lon="5.714105815013916"><ele>299.0</ele><time>2026-04-28T07:32:12.999Z</time></trkpt><trkpt lat="45.05486184481789" lon="5.7140398798858385"><ele>299.0</ele><time>2026-04-28T07:32:13.999Z</time></trkpt><trkpt lat="45.05479570677603" lon="5.713981865725001"><ele>299.0</ele><time>2026-04-28T07:32:14.999Z</time></trkpt><trkpt lat="45.054725270411375" lon="5.713916333773586"><ele>299.0</ele><time>2026-04-28T07:32:15.999Z</time></trkpt><trkpt lat="45.05466855640591" lon="5.713844029288145"><ele>298.4</ele><time>2026-04-28T07:32:16.999Z</time></trkpt><trkpt lat="45.054598815254195" lon="5.713782274614194"><ele>297.79999999999995</ele><time>2026-04-28T07:32:17.999Z</time></trkpt><trkpt lat="45.054536372126705" lon="5.713718372396564"><ele>297.20000000000005</ele><time>2026-04-28T07:32:18.999Z</time></trkpt><trkpt lat="45.054444921165086" lon="5.7136567317274345"><ele>296.6</ele><time>2026-04-28T07:32:19.999Z</time></trkpt><trkpt lat="45.05433974031524" lon="5.7135142638911836"><ele>296.0</ele><time>2026-04-28T07:32:21.999Z</time></trkpt><trkpt lat="45.05427288098535" lon="5.713466175584568"><ele>296.0</ele><time>2026-04-28T07:32:22.999Z</time></trkpt><trkpt lat="45.054216130191236" lon="5.713404919703839"><ele>296.0</ele><time>2026-04-28T07:32:23.999Z</time></trkpt><trkpt lat="45.05414899348274" lon="5.713343684660711"><ele>296.0</ele><time>2026-04-28T07:32:24.999Z</time></trkpt><trkpt lat="45.054089086717774" lon="5.71328311117539"><ele>296.0</ele><time>2026-04-28T07:32:25.999Z</time></trkpt><trkpt lat="45.05402894104641" lon="5.71323496254384"><ele>296.0</ele><time>2026-04-28T07:32:26.999Z</time></trkpt><trkpt lat="45.053954255411746" lon="5.713159985653713"><ele>296.0</ele><time>2026-04-28T07:32:27.999Z</time></trkpt><trkpt lat="45.05388695963782" lon="5.713092806488033"><ele>295.6666666666667</ele><time>2026-04-28T07:32:28.999Z</time></trkpt><trkpt lat="45.05382876403747" lon="5.713017200566247"><ele>295.33333333333337</ele><time>2026-04-28T07:32:29.999Z</time></trkpt><trkpt lat="45.05375259017478" lon="5.712961368429308"><ele>295.0</ele><time>2026-04-28T07:32:30.999Z</time></trkpt><trkpt lat="45.05368533953273" lon="5.7128980184215665"><ele>294.6666666666667</ele><time>2026-04-28T07:32:31.999Z</time></trkpt><trkpt lat="45.05362166069513" lon="5.712831649927992"><ele>294.3333333333333</ele><time>2026-04-28T07:32:32.999Z</time></trkpt><trkpt lat="45.05355138678058" lon="5.712769406667093"><ele>294.0</ele><time>2026-04-28T07:32:33.999Z</time></trkpt><trkpt lat="45.05348459929436" lon="5.712709839295715"><ele>294.0</ele><time>2026-04-28T07:32:34.999Z</time></trkpt><trkpt lat="45.053413910491756" lon="5.712648843944154"><ele>294.0</ele><time>2026-04-28T07:32:35.999Z</time></trkpt><trkpt lat="45.053350729029255" lon="5.712582698991615"><ele>294.0</ele><time>2026-04-28T07:32:36.999Z</time></trkpt><trkpt lat="45.05328482122117" lon="5.71251855939316"><ele>294.0</ele><time>2026-04-28T07:32:37.999Z</time></trkpt><trkpt lat="45.05321798541141" lon="5.712447260075904"><ele>294.0</ele><time>2026-04-28T07:32:38.999Z</time></trkpt><trkpt lat="45.05314797357554" lon="5.712384648055036"><ele>294.0</ele><time>2026-04-28T07:32:39.999Z</time></trkpt><trkpt lat="45.053079504448796" lon="5.712315972991217"><ele>294.8333333333333</ele><time>2026-04-28T07:32:40.999Z</time></trkpt><trkpt lat="45.05301119626858" lon="5.71224527111032"><ele>295.6666666666667</ele><time>2026-04-28T07:32:41.999Z</time></trkpt><trkpt lat="45.05294533400097" lon="5.712170383636032"><ele>296.5</ele><time>2026-04-28T07:32:42.999Z</time></trkpt><trkpt lat="45.052879180500085" lon="5.712098329076178"><ele>297.33333333333337</ele><time>2026-04-28T07:32:43.999Z</time></trkpt><trkpt lat="45.052817401997736" lon="5.712016364949736"><ele>298.1666666666667</ele><time>2026-04-28T07:32:44.999Z</time></trkpt><trkpt lat="45.05275950585835" lon="5.711929977129746"><ele>299.0</ele><time>2026-04-28T07:32:45.999Z</time></trkpt><trkpt lat="45.052703035524665" lon="5.7118417989640635"><ele>299.0</ele><time>2026-04-28T07:32:46.999Z</time></trkpt><trkpt lat="45.05264807360603" lon="5.711753428297106"><ele>299.0</ele><time>2026-04-28T07:32:47.999Z</time></trkpt><trkpt lat="45.052602206254285" lon="5.711660587825882"><ele>299.0</ele><time>2026-04-28T07:32:48.999Z</time></trkpt><trkpt lat="45.05257550888705" lon="5.711560139566786"><ele>299.0</ele><time>2026-04-28T07:32:49.999Z</time></trkpt><trkpt lat="45.052602615875244" lon="5.711438015435895"><ele>299.0</ele><time>2026-04-28T07:32:50.999Z</time></trkpt><trkpt lat="45.0525933221623" lon="5.711326495885719"><ele>299.0</ele><time>2026-04-28T07:32:51.999Z</time></trkpt><trkpt lat="45.052541488815585" lon="5.7112299872771635"><ele>299.0</ele><time>2026-04-28T07:32:52.999Z</time></trkpt><trkpt lat="45.052473012940716" lon="5.71115437809728"><ele>299.0</ele><time>2026-04-28T07:32:53.999Z</time></trkpt><trkpt lat="45.052401009529106" lon="5.7110885252921095"><ele>299.0</ele><time>2026-04-28T07:32:54.999Z</time></trkpt><trkpt lat="45.05233844926598" lon="5.7110049967206935"><ele>299.0</ele><time>2026-04-28T07:32:56Z</time></trkpt><trkpt lat="45.05229108353063" lon="5.710899830005297"><ele>299.0</ele><time>2026-04-28T07:32:57Z</time></trkpt><trkpt lat="45.05224860909882" lon="5.710789136443775"><ele>299.0</ele><time>2026-04-28T07:32:58Z</time></trkpt><trkpt lat="45.05220769049767" lon="5.710677569017896"><ele>299.33333333333337</ele><time>2026-04-28T07:32:59Z</time></trkpt><trkpt lat="45.052160471723134" lon="5.710569136440052"><ele>299.6666666666667</ele><time>2026-04-28T07:33:00Z</time></trkpt><trkpt lat="45.05211890369845" lon="5.710468390121208"><ele>300.0</ele><time>2026-04-28T07:33:01Z</time></trkpt><trkpt lat="45.05206626048206" lon="5.710364169733491"><ele>300.3333333333333</ele><time>2026-04-28T07:33:02Z</time></trkpt><trkpt lat="45.05201017244612" lon="5.710268193481884"><ele>300.66666666666663</ele><time>2026-04-28T07:33:03Z</time></trkpt><trkpt lat="45.05194813642742" lon="5.7101767799623895"><ele>301.0</ele><time>2026-04-28T07:33:04Z</time></trkpt><trkpt lat="45.051890310808254" lon="5.710083612228804"><ele>301.3333333333333</ele><time>2026-04-28T07:33:05Z</time></trkpt><trkpt lat="45.05183724181224" lon="5.70998942278847"><ele>301.66666666666663</ele><time>2026-04-28T07:33:06Z</time></trkpt><trkpt lat="45.051778934955536" lon="5.709895939292406"><ele>302.0</ele><time>2026-04-28T07:33:07Z</time></trkpt><trkpt lat="45.05172092943939" lon="5.709808541098334"><ele>302.3333333333333</ele><time>2026-04-28T07:33:08Z</time></trkpt><trkpt lat="45.05166676248113" lon="5.709714817608181"><ele>302.6666666666667</ele><time>2026-04-28T07:33:09Z</time></trkpt><trkpt lat="45.05161237010911" lon="5.709625888537382"><ele>303.0</ele><time>2026-04-28T07:33:10Z</time></trkpt><trkpt lat="45.05155229908586" lon="5.7095411361270525"><ele>303.0</ele><time>2026-04-28T07:33:11Z</time></trkpt><trkpt lat="45.05149014940557" lon="5.709462520941549"><ele>303.0</ele><time>2026-04-28T07:33:12Z</time></trkpt><trkpt lat="45.05142844525203" lon="5.709383520852144"><ele>303.0</ele><time>2026-04-28T07:33:13Z</time></trkpt><trkpt lat="45.05136625839639" lon="5.7093113472671435"><ele>303.0</ele><time>2026-04-28T07:33:14Z</time></trkpt><trkpt lat="45.05130173035581" lon="5.7092420367966925"><ele>303.0</ele><time>2026-04-28T07:33:15Z</time></trkpt><trkpt lat="45.05123775182867" lon="5.709174033484501"><ele>303.0</ele><time>2026-04-28T07:33:16Z</time></trkpt><trkpt lat="45.05117491125517" lon="5.709105534488123"><ele>301.3333333333333</ele><time>2026-04-28T07:33:17Z</time></trkpt><trkpt lat="45.05111026656676" lon="5.709037365251766"><ele>299.6666666666667</ele><time>2026-04-28T07:33:18Z</time></trkpt><trkpt lat="45.051046135705974" lon="5.708966865434618"><ele>298.0</ele><time>2026-04-28T07:33:19Z</time></trkpt><trkpt lat="45.05098540892042" lon="5.708896449184756"><ele>296.33333333333337</ele><time>2026-04-28T07:33:20Z</time></trkpt><trkpt lat="45.05092575892599" lon="5.708819871812765"><ele>294.6666666666667</ele><time>2026-04-28T07:33:21Z</time></trkpt><trkpt lat="45.050865552617715" lon="5.7087405917990734"><ele>293.0</ele><time>2026-04-28T07:33:22Z</time></trkpt><trkpt lat="45.050812050433606" lon="5.708659346207928"><ele>293.0</ele><time>2026-04-28T07:33:23Z</time></trkpt><trkpt lat="45.05075581020117" lon="5.70858232787516"><ele>293.0</ele><time>2026-04-28T07:33:24Z</time></trkpt><trkpt lat="45.05070371245283" lon="5.708503380431993"><ele>293.0</ele><time>2026-04-28T07:33:25Z</time></trkpt><trkpt lat="45.050651477404315" lon="5.708423343819679"><ele>293.0</ele><time>2026-04-28T07:33:26Z</time></trkpt><trkpt lat="45.05061221746471" lon="5.708328594628642"><ele>293.0</ele><time>2026-04-28T07:33:27Z</time></trkpt><trkpt lat="45.05055556340131" lon="5.7082579448388095"><ele>293.0</ele><time>2026-04-28T07:33:28Z</time></trkpt><trkpt lat="45.05050576475751" lon="5.7081764695259745"><ele>293.0</ele><time>2026-04-28T07:33:29Z</time></trkpt><trkpt lat="45.05045476453617" lon="5.70809561743742"><ele>293.0</ele><time>2026-04-28T07:33:30Z</time></trkpt><trkpt lat="45.05039978117339" lon="5.708021135444755"><ele>293.0</ele><time>2026-04-28T07:33:31Z</time></trkpt><trkpt lat="45.05034226950081" lon="5.7079525203133485"><ele>293.0</ele><time>2026-04-28T07:33:32Z</time></trkpt><trkpt lat="45.05028376789428" lon="5.707887268296611"><ele>293.0</ele><time>2026-04-28T07:33:33Z</time></trkpt><trkpt lat="45.05022347999549" lon="5.707822009644884"><ele>293.0</ele><time>2026-04-28T07:33:34Z</time></trkpt><trkpt lat="45.05016208922015" lon="5.707759572334714"><ele>292.85714285714283</ele><time>2026-04-28T07:33:35Z</time></trkpt><trkpt lat="45.05010108213381" lon="5.707699778439926"><ele>292.7142857142857</ele><time>2026-04-28T07:33:36Z</time></trkpt><trkpt lat="45.05003868295186" lon="5.707640540094378"><ele>292.57142857142856</ele><time>2026-04-28T07:33:37Z</time></trkpt><trkpt lat="45.04997446946425" lon="5.70758157338668"><ele>292.42857142857144</ele><time>2026-04-28T07:33:38Z</time></trkpt><trkpt lat="45.04991157191395" lon="5.707523435286402"><ele>292.2857142857143</ele><time>2026-04-28T07:33:39Z</time></trkpt><trkpt lat="45.04985095257562" lon="5.70746970166769"><ele>292.1428571428571</ele><time>2026-04-28T07:33:40Z</time></trkpt><trkpt lat="45.04979056877747" lon="5.7074187207926865"><ele>292.0</ele><time>2026-04-28T07:33:41Z</time></trkpt><trkpt lat="45.04972969491791" lon="5.7073602321470975"><ele>292.42857142857144</ele><time>2026-04-28T07:33:42Z</time></trkpt><trkpt lat="45.04966721697799" lon="5.707305205895238"><ele>292.8571428571429</ele><time>2026-04-28T07:33:43Z</time></trkpt><trkpt lat="45.04960452958786" lon="5.707256587251871"><ele>293.28571428571433</ele><time>2026-04-28T07:33:44Z</time></trkpt><trkpt lat="45.04954244050818" lon="5.707206441949138"><ele>293.7142857142857</ele><time>2026-04-28T07:33:45Z</time></trkpt><trkpt lat="45.049479191882895" lon="5.707150659211163"><ele>294.14285714285717</ele><time>2026-04-28T07:33:46Z</time></trkpt><trkpt lat="45.049416938981445" lon="5.707100477364037"><ele>294.5714285714286</ele><time>2026-04-28T07:33:47Z</time></trkpt><trkpt lat="45.04935089880799" lon="5.7070564467083145"><ele>295.0</ele><time>2026-04-28T07:33:48Z</time></trkpt><trkpt lat="45.049288114037275" lon="5.707007857881966"><ele>295.00000000000006</ele><time>2026-04-28T07:33:49Z</time></trkpt><trkpt lat="45.04922327958821" lon="5.706956815549477"><ele>295.0</ele><time>2026-04-28T07:33:50Z</time></trkpt><trkpt lat="45.049156302607884" lon="5.706913895365124"><ele>295.0</ele><time>2026-04-28T07:33:51Z</time></trkpt><trkpt lat="45.04909214968288" lon="5.706868814340236"><ele>295.0</ele><time>2026-04-28T07:33:52Z</time></trkpt><trkpt lat="45.049029336618425" lon="5.7068165865807154"><ele>295.0</ele><time>2026-04-28T07:33:52.999Z</time></trkpt><trkpt lat="45.048967919117224" lon="5.706763648943565"><ele>295.00000000000006</ele><time>2026-04-28T07:33:53.999Z</time></trkpt><trkpt lat="45.0489025030045" lon="5.706725547639808"><ele>295.0</ele><time>2026-04-28T07:33:54.999Z</time></trkpt><trkpt lat="45.04883571584748" lon="5.706689357278989"><ele>295.42857142857144</ele><time>2026-04-28T07:33:55.999Z</time></trkpt><trkpt lat="45.04877202427551" lon="5.70664482898308"><ele>295.8571428571429</ele><time>2026-04-28T07:33:56.999Z</time></trkpt><trkpt lat="45.04871134757997" lon="5.706588403193493"><ele>296.2857142857143</ele><time>2026-04-28T07:33:57.999Z</time></trkpt><trkpt lat="45.04864615650069" lon="5.7065506060103734"><ele>296.7142857142857</ele><time>2026-04-28T07:33:58.999Z</time></trkpt><trkpt lat="45.04857641941726" lon="5.706512781661863"><ele>297.1428571428571</ele><time>2026-04-28T07:33:59.999Z</time></trkpt><trkpt lat="45.048508053515434" lon="5.706467335281788"><ele>297.57142857142856</ele><time>2026-04-28T07:34:00.999Z</time></trkpt><trkpt lat="45.04844086164611" lon="5.706420051415603"><ele>298.0</ele><time>2026-04-28T07:34:01.999Z</time></trkpt><trkpt lat="45.048376164857196" lon="5.706369239148643"><ele>298.0</ele><time>2026-04-28T07:34:02.999Z</time></trkpt><trkpt lat="45.04831210992924" lon="5.706318537004319"><ele>298.0</ele><time>2026-04-28T07:34:03.999Z</time></trkpt><trkpt lat="45.04824693957503" lon="5.706273775672759"><ele>298.0</ele><time>2026-04-28T07:34:04.999Z</time></trkpt><trkpt lat="45.048177779265494" lon="5.706228024744375"><ele>298.0</ele><time>2026-04-28T07:34:05.999Z</time></trkpt><trkpt lat="45.04811142617715" lon="5.706180406711532"><ele>298.0</ele><time>2026-04-28T07:34:06.999Z</time></trkpt><trkpt lat="45.04804485983157" lon="5.706132133704757"><ele>298.0</ele><time>2026-04-28T07:34:07.999Z</time></trkpt><trkpt lat="45.04797705130384" lon="5.706085393380825"><ele>298.0</ele><time>2026-04-28T07:34:08.999Z</time></trkpt><trkpt lat="45.04791177151924" lon="5.706033251943531"><ele>298.1428571428571</ele><time>2026-04-28T07:34:09.999Z</time></trkpt><trkpt lat="45.047846426859834" lon="5.705985295153576"><ele>298.2857142857143</ele><time>2026-04-28T07:34:10.999Z</time></trkpt><trkpt lat="45.0477903389947" lon="5.7059213577802215"><ele>298.42857142857144</ele><time>2026-04-28T07:34:11.999Z</time></trkpt><trkpt lat="45.047726678007336" lon="5.705859868544762"><ele>298.57142857142856</ele><time>2026-04-28T07:34:12.999Z</time></trkpt><trkpt lat="45.04766998823266" lon="5.705791979507901"><ele>298.7142857142857</ele><time>2026-04-28T07:34:13.999Z</time></trkpt><trkpt lat="45.047616200524516" lon="5.705723755298614"><ele>298.85714285714283</ele><time>2026-04-28T07:34:14.999Z</time></trkpt><trkpt lat="45.047561387934806" lon="5.705654254540542"><ele>299.0</ele><time>2026-04-28T07:34:15.999Z</time></trkpt><trkpt lat="45.04750585889768" lon="5.705587222260928"><ele>299.0</ele><time>2026-04-28T07:34:16.999Z</time></trkpt><trkpt lat="45.047452860274014" lon="5.705516687747585"><ele>299.0</ele><time>2026-04-28T07:34:17.999Z</time></trkpt><trkpt lat="45.047402031325525" lon="5.705439331069606"><ele>299.0</ele><time>2026-04-28T07:34:18.999Z</time></trkpt><trkpt lat="45.04735401877799" lon="5.705367806279496"><ele>299.0</ele><time>2026-04-28T07:34:19.999Z</time></trkpt><trkpt lat="45.04730624012576" lon="5.705288496002184"><ele>299.0</ele><time>2026-04-28T07:34:20.999Z</time></trkpt><trkpt lat="45.04726241759973" lon="5.705209902732759"><ele>299.0</ele><time>2026-04-28T07:34:21.999Z</time></trkpt><trkpt lat="45.047215125031606" lon="5.705131386080116"><ele>299.0</ele><time>2026-04-28T07:34:22.999Z</time></trkpt><trkpt lat="45.04716932592435" lon="5.705052322069732"><ele>299.0</ele><time>2026-04-28T07:34:23.999Z</time></trkpt><trkpt lat="45.04712694186284" lon="5.704970160274455"><ele>299.0</ele><time>2026-04-28T07:34:24.999Z</time></trkpt><trkpt lat="45.04708162715411" lon="5.704891580399431"><ele>299.0</ele><time>2026-04-28T07:34:25.999Z</time></trkpt><trkpt lat="45.04703413140465" lon="5.7048132767593405"><ele>299.0</ele><time>2026-04-28T07:34:26.999Z</time></trkpt><trkpt lat="45.04698888478342" lon="5.704734248255613"><ele>299.0</ele><time>2026-04-28T07:34:27.999Z</time></trkpt><trkpt lat="45.046942524406575" lon="5.704659396739133"><ele>299.0</ele><time>2026-04-28T07:34:28.999Z</time></trkpt><trkpt lat="45.046896722131464" lon="5.704586198991206"><ele>299.0</ele><time>2026-04-28T07:34:29.999Z</time></trkpt><trkpt lat="45.04684810903877" lon="5.704510402791564"><ele>299.0</ele><time>2026-04-28T07:34:30.999Z</time></trkpt><trkpt lat="45.046806079313974" lon="5.704435766214128"><ele>299.0</ele><time>2026-04-28T07:34:31.999Z</time></trkpt><trkpt lat="45.04676358503608" lon="5.704357721127049"><ele>299.0</ele><time>2026-04-28T07:34:32.999Z</time></trkpt><trkpt lat="45.046717392526105" lon="5.704285816558571"><ele>299.0</ele><time>2026-04-28T07:34:33.999Z</time></trkpt><trkpt lat="45.04666843424008" lon="5.7042179002967055"><ele>299.0</ele><time>2026-04-28T07:34:34.999Z</time></trkpt><trkpt lat="45.04662131663165" lon="5.70414377899824"><ele>299.0</ele><time>2026-04-28T07:34:35.999Z</time></trkpt><trkpt lat="45.04658376117695" lon="5.704058683931653"><ele>299.0</ele><time>2026-04-28T07:34:36.999Z</time></trkpt><trkpt lat="45.04656819372298" lon="5.703963153097131"><ele>299.0</ele><time>2026-04-28T07:34:37.999Z</time></trkpt><trkpt lat="45.046541853670035" lon="5.7038722567763465"><ele>299.0</ele><time>2026-04-28T07:34:38.999Z</time></trkpt><trkpt lat="45.04650868685401" lon="5.703782753289316"><ele>299.0</ele><time>2026-04-28T07:34:39.999Z</time></trkpt><trkpt lat="45.04646574938566" lon="5.7037030349716344"><ele>299.0</ele><time>2026-04-28T07:34:40.999Z</time></trkpt><trkpt lat="45.04641441814003" lon="5.70362973347192"><ele>299.0</ele><time>2026-04-28T07:34:41.999Z</time></trkpt><trkpt lat="45.04635856811152" lon="5.703562600500736"><ele>299.0</ele><time>2026-04-28T07:34:42.999Z</time></trkpt><trkpt lat="45.046304122113604" lon="5.703497462330631"><ele>299.0</ele><time>2026-04-28T07:34:43.999Z</time></trkpt><trkpt lat="45.04625291410795" lon="5.703419528450538"><ele>299.0</ele><time>2026-04-28T07:34:44.999Z</time></trkpt><trkpt lat="45.04621206396641" lon="5.70333187606649"><ele>299.0</ele><time>2026-04-28T07:34:45.999Z</time></trkpt><trkpt lat="45.04617126348878" lon="5.703242800467641"><ele>299.0</ele><time>2026-04-28T07:34:46.999Z</time></trkpt><trkpt lat="45.046127867945415" lon="5.703163501325932"><ele>299.0</ele><time>2026-04-28T07:34:47.999Z</time></trkpt><trkpt lat="45.04608690813505" lon="5.703085157917623"><ele>299.0</ele><time>2026-04-28T07:34:48.999Z</time></trkpt><trkpt lat="45.0460371780159" lon="5.703006060325782"><ele>299.0</ele><time>2026-04-28T07:34:49.999Z</time></trkpt><trkpt lat="45.04600591889364" lon="5.70291401772422"><ele>299.0</ele><time>2026-04-28T07:34:50.999Z</time></trkpt><trkpt lat="45.045964576104495" lon="5.702833502434103"><ele>299.0</ele><time>2026-04-28T07:34:51.999Z</time></trkpt><trkpt lat="45.04591496936062" lon="5.702762827025938"><ele>299.0</ele><time>2026-04-28T07:34:52.999Z</time></trkpt><trkpt lat="45.045881416545775" lon="5.702676099245134"><ele>299.0</ele><time>2026-04-28T07:34:53.999Z</time></trkpt><trkpt lat="45.04584317047437" lon="5.70259075609214"><ele>299.0</ele><time>2026-04-28T07:34:54.999Z</time></trkpt><trkpt lat="45.045801246636536" lon="5.702509543942873"><ele>299.0</ele><time>2026-04-28T07:34:55.999Z</time></trkpt><trkpt lat="45.04575851327996" lon="5.702431859491388"><ele>299.0</ele><time>2026-04-28T07:34:56.999Z</time></trkpt><trkpt lat="45.04571751249512" lon="5.7023519832829095"><ele>299.0</ele><time>2026-04-28T07:34:57.999Z</time></trkpt><trkpt lat="45.04567548960673" lon="5.702272932567375"><ele>299.0</ele><time>2026-04-28T07:34:58.999Z</time></trkpt><trkpt lat="45.045633475055325" lon="5.702194673100308"><ele>299.0</ele><time>2026-04-28T07:34:59.999Z</time></trkpt><trkpt lat="45.04559488749828" lon="5.702120780145112"><ele>299.0</ele><time>2026-04-28T07:35:00.999Z</time></trkpt><trkpt lat="45.0455587731293" lon="5.702038327809415"><ele>299.0</ele><time>2026-04-28T07:35:02Z</time></trkpt><trkpt lat="45.045527278121796" lon="5.70195380929157"><ele>299.0</ele><time>2026-04-28T07:35:03Z</time></trkpt><trkpt lat="45.04548818106391" lon="5.70187564213805"><ele>299.0</ele><time>2026-04-28T07:35:04Z</time></trkpt><trkpt lat="45.04544151662989" lon="5.701802637349178"><ele>299.0</ele><time>2026-04-28T07:35:05Z</time></trkpt><trkpt lat="45.04539766392082" lon="5.701732221002405"><ele>299.0</ele><time>2026-04-28T07:35:06Z</time></trkpt><trkpt lat="45.045351015187315" lon="5.701663045763833"><ele>299.0</ele><time>2026-04-28T07:35:07Z</time></trkpt><trkpt lat="45.045304858726794" lon="5.70159734516049"><ele>299.0</ele><time>2026-04-28T07:35:08Z</time></trkpt><trkpt lat="45.045255189528305" lon="5.701531657611109"><ele>299.0</ele><time>2026-04-28T07:35:09Z</time></trkpt><trkpt lat="45.04521564675333" lon="5.701454089557073"><ele>299.0</ele><time>2026-04-28T07:35:10Z</time></trkpt><trkpt lat="45.04516755154266" lon="5.701386421105696"><ele>299.0</ele><time>2026-04-28T07:35:11Z</time></trkpt><trkpt lat="45.04512284423323" lon="5.701317074410064"><ele>299.0</ele><time>2026-04-28T07:35:12Z</time></trkpt><trkpt lat="45.04508255436212" lon="5.701240844121872"><ele>299.0</ele><time>2026-04-28T07:35:13Z</time></trkpt><trkpt lat="45.04502813460565" lon="5.70118329023875"><ele>299.0</ele><time>2026-04-28T07:35:14Z</time></trkpt><trkpt lat="45.044975104601164" lon="5.701124747120662"><ele>299.0</ele><time>2026-04-28T07:35:15Z</time></trkpt><trkpt lat="45.04492735718865" lon="5.701059719857464"><ele>299.0</ele><time>2026-04-28T07:35:16Z</time></trkpt><trkpt lat="45.04488081645272" lon="5.7009972316730675"><ele>299.0</ele><time>2026-04-28T07:35:17Z</time></trkpt><trkpt lat="45.04478794827962" lon="5.700880605672636"><ele>299.0</ele><time>2026-04-28T07:35:19Z</time></trkpt><trkpt lat="45.04470354256732" lon="5.7007774069455746"><ele>300.6666666666667</ele><time>2026-04-28T07:35:21Z</time></trkpt><trkpt lat="45.04463118589229" lon="5.700672029045995"><ele>302.33333333333337</ele><time>2026-04-28T07:35:23Z</time></trkpt><trkpt lat="45.044560908509865" lon="5.700588565711727"><ele>304.0</ele><time>2026-04-28T07:35:25Z</time></trkpt><trkpt lat="45.04448749574529" lon="5.700515891239354"><ele>305.6666666666667</ele><time>2026-04-28T07:35:27Z</time></trkpt><trkpt lat="45.044418649083994" lon="5.70045826187502"><ele>307.3333333333333</ele><time>2026-04-28T07:35:29Z</time></trkpt><trkpt lat="45.04434824143941" lon="5.700404738447477"><ele>309.0</ele><time>2026-04-28T07:35:31Z</time></trkpt><trkpt lat="45.044279328505695" lon="5.700349097805695"><ele>309.0</ele><time>2026-04-28T07:35:33Z</time></trkpt><trkpt lat="45.04420698021375" lon="5.7002954355134285"><ele>309.0</ele><time>2026-04-28T07:35:35Z</time></trkpt><trkpt lat="45.044137957591616" lon="5.700253371920892"><ele>309.0</ele><time>2026-04-28T07:35:37Z</time></trkpt><trkpt lat="45.04407436116541" lon="5.700193211680123"><ele>309.0</ele><time>2026-04-28T07:35:39Z</time></trkpt><trkpt lat="45.044004104133975" lon="5.700155888794157"><ele>309.0</ele><time>2026-04-28T07:35:41Z</time></trkpt><trkpt lat="45.04393124269969" lon="5.700129234163655"><ele>309.0</ele><time>2026-04-28T07:35:43Z</time></trkpt><trkpt lat="45.043855568932734" lon="5.70012432181784"><ele>310.5</ele><time>2026-04-28T07:35:45Z</time></trkpt><trkpt lat="45.04378267059303" lon="5.700138579462043"><ele>312.0</ele><time>2026-04-28T07:35:47Z</time></trkpt><trkpt lat="45.043705725328735" lon="5.700154085369908"><ele>313.5</ele><time>2026-04-28T07:35:49Z</time></trkpt><trkpt lat="45.04364348708828" lon="5.700171208003999"><ele>315.0</ele><time>2026-04-28T07:35:51Z</time></trkpt><trkpt lat="45.04356419759998" lon="5.700195680983185"><ele>316.5</ele><time>2026-04-28T07:35:54Z</time></trkpt><trkpt lat="45.04347753980968" lon="5.700155126469811"><ele>318.0</ele><time>2026-04-28T07:35:56Z</time></trkpt><trkpt lat="45.04343111772771" lon="5.700081059950781"><ele>318.0</ele><time>2026-04-28T07:35:58Z</time></trkpt><trkpt lat="45.043404062071346" lon="5.6999890976417"><ele>318.0</ele><time>2026-04-28T07:35:59Z</time></trkpt><trkpt lat="45.04339698334512" lon="5.699818032769183"><ele>318.0</ele><time>2026-04-28T07:36:01Z</time></trkpt><trkpt lat="45.04338728323388" lon="5.699729696929895"><ele>318.0</ele><time>2026-04-28T07:36:02Z</time></trkpt><trkpt lat="45.04338381493199" lon="5.699627148441999"><ele>318.0</ele><time>2026-04-28T07:36:03Z</time></trkpt><trkpt lat="45.04337902840365" lon="5.699528424004834"><ele>318.0</ele><time>2026-04-28T07:36:04Z</time></trkpt><trkpt lat="45.04337057585785" lon="5.699419541508446"><ele>317.0</ele><time>2026-04-28T07:36:05Z</time></trkpt><trkpt lat="45.043370649631896" lon="5.699307133082521"><ele>316.0</ele><time>2026-04-28T07:36:06Z</time></trkpt><trkpt lat="45.04336797455673" lon="5.69918534350525"><ele>315.0</ele><time>2026-04-28T07:36:07Z</time></trkpt><trkpt lat="45.04337194104274" lon="5.699065831400695"><ele>314.0</ele><time>2026-04-28T07:36:08Z</time></trkpt><trkpt lat="45.04338622301911" lon="5.698942273481597"><ele>313.0</ele><time>2026-04-28T07:36:09Z</time></trkpt><trkpt lat="45.04338899332157" lon="5.698810202068732"><ele>312.0</ele><time>2026-04-28T07:36:09.999Z</time></trkpt><trkpt lat="45.04340608120424" lon="5.698678926761071"><ele>311.8</ele><time>2026-04-28T07:36:10.999Z</time></trkpt><trkpt lat="45.04341471983866" lon="5.69854134049792"><ele>311.6</ele><time>2026-04-28T07:36:11.999Z</time></trkpt><trkpt lat="45.043434884886835" lon="5.6984162768214475"><ele>311.40000000000003</ele><time>2026-04-28T07:36:12.999Z</time></trkpt><trkpt lat="45.043461613864665" lon="5.698282807150287"><ele>311.2</ele><time>2026-04-28T07:36:13.999Z</time></trkpt><trkpt lat="45.0434712810127" lon="5.698156628684828"><ele>311.0</ele><time>2026-04-28T07:36:14.999Z</time></trkpt><trkpt lat="45.04349184138337" lon="5.698037011922201"><ele>311.0</ele><time>2026-04-28T07:36:15.999Z</time></trkpt><trkpt lat="45.043503658873476" lon="5.69791285594039"><ele>311.0</ele><time>2026-04-28T07:36:16.999Z</time></trkpt><trkpt lat="45.043526905119926" lon="5.6977911279286575"><ele>311.0</ele><time>2026-04-28T07:36:17.999Z</time></trkpt><trkpt lat="45.04353929612144" lon="5.697671467287588"><ele>311.0</ele><time>2026-04-28T07:36:18.999Z</time></trkpt><trkpt lat="45.043553822783494" lon="5.697551062496821"><ele>311.0</ele><time>2026-04-28T07:36:19.999Z</time></trkpt><trkpt lat="45.04357275971287" lon="5.697431749180991"><ele>311.0</ele><time>2026-04-28T07:36:20.999Z</time></trkpt><trkpt lat="45.043589715002746" lon="5.697313203343281"><ele>310.83333333333337</ele><time>2026-04-28T07:36:21.999Z</time></trkpt><trkpt lat="45.043604148862485" lon="5.69720046055946"><ele>310.6666666666667</ele><time>2026-04-28T07:36:22.999Z</time></trkpt><trkpt lat="45.043620121278906" lon="5.69708423567745"><ele>310.5</ele><time>2026-04-28T07:36:23.999Z</time></trkpt><trkpt lat="45.043633504343646" lon="5.696968607251483"><ele>310.3333333333333</ele><time>2026-04-28T07:36:24.999Z</time></trkpt><trkpt lat="45.04364902119693" lon="5.696857089195715"><ele>310.16666666666663</ele><time>2026-04-28T07:36:25.999Z</time></trkpt><trkpt lat="45.04366516600958" lon="5.696748119421347"><ele>310.0</ele><time>2026-04-28T07:36:26.999Z</time></trkpt><trkpt lat="45.043679428411274" lon="5.696639509137479"><ele>309.42857142857144</ele><time>2026-04-28T07:36:27.999Z</time></trkpt><trkpt lat="45.04368955387511" lon="5.696537083943408"><ele>308.85714285714283</ele><time>2026-04-28T07:36:28.999Z</time></trkpt><trkpt lat="45.04370382980517" lon="5.696433006720649"><ele>308.2857142857143</ele><time>2026-04-28T07:36:29.999Z</time></trkpt><trkpt lat="45.04371719124369" lon="5.696328300970414"><ele>307.7142857142857</ele><time>2026-04-28T07:36:30.999Z</time></trkpt><trkpt lat="45.04373540273678" lon="5.696232822667355"><ele>307.14285714285717</ele><time>2026-04-28T07:36:31.999Z</time></trkpt><trkpt lat="45.043752294351926" lon="5.696138078479843"><ele>306.57142857142856</ele><time>2026-04-28T07:36:32.999Z</time></trkpt><trkpt lat="45.043767741603794" lon="5.696038913706677"><ele>306.0</ele><time>2026-04-28T07:36:33.999Z</time></trkpt><trkpt lat="45.043777060598366" lon="5.6959413569089286"><ele>305.42857142857144</ele><time>2026-04-28T07:36:34.999Z</time></trkpt><trkpt lat="45.04379447943799" lon="5.695847447338786"><ele>304.8571428571429</ele><time>2026-04-28T07:36:35.999Z</time></trkpt><trkpt lat="45.043811564077146" lon="5.695754607346538"><ele>304.28571428571433</ele><time>2026-04-28T07:36:36.999Z</time></trkpt><trkpt lat="45.04382629531911" lon="5.6956638909174995"><ele>303.7142857142857</ele><time>2026-04-28T07:36:37.999Z</time></trkpt><trkpt lat="45.04384136185037" lon="5.695572839547152"><ele>303.14285714285717</ele><time>2026-04-28T07:36:38.999Z</time></trkpt><trkpt lat="45.043857404121994" lon="5.695478400064953"><ele>302.5714285714286</ele><time>2026-04-28T07:36:39.999Z</time></trkpt><trkpt lat="45.04387574769552" lon="5.6953841743170806"><ele>302.0</ele><time>2026-04-28T07:36:40.999Z</time></trkpt><trkpt lat="45.043892002844196" lon="5.69529297074007"><ele>301.7142857142857</ele><time>2026-04-28T07:36:41.999Z</time></trkpt><trkpt lat="45.04390614399256" lon="5.695199779358626"><ele>301.42857142857144</ele><time>2026-04-28T07:36:42.999Z</time></trkpt><trkpt lat="45.04392686327981" lon="5.695101517985361"><ele>301.1428571428571</ele><time>2026-04-28T07:36:43.999Z</time></trkpt><trkpt lat="45.04394585322097" lon="5.695008615996974"><ele>300.8571428571429</ele><time>2026-04-28T07:36:44.999Z</time></trkpt><trkpt lat="45.04396712611676" lon="5.694908321393547"><ele>300.57142857142856</ele><time>2026-04-28T07:36:45.999Z</time></trkpt><trkpt lat="45.043981520987096" lon="5.694813447609728"><ele>300.2857142857143</ele><time>2026-04-28T07:36:46.999Z</time></trkpt><trkpt lat="45.04400113154511" lon="5.694711910015749"><ele>300.0</ele><time>2026-04-28T07:36:47.999Z</time></trkpt><trkpt lat="45.04401906545874" lon="5.694613711414102"><ele>300.0</ele><time>2026-04-28T07:36:48.999Z</time></trkpt><trkpt lat="45.044040040230804" lon="5.694512168407344"><ele>300.0</ele><time>2026-04-28T07:36:49.999Z</time></trkpt><trkpt lat="45.044060219236385" lon="5.6944065264381925"><ele>300.0</ele><time>2026-04-28T07:36:50.999Z</time></trkpt><trkpt lat="45.04408231037579" lon="5.694296272467751"><ele>300.0</ele><time>2026-04-28T07:36:51.999Z</time></trkpt><trkpt lat="45.04409981566382" lon="5.6941845040315595"><ele>300.0</ele><time>2026-04-28T07:36:52.999Z</time></trkpt><trkpt lat="45.04412070102298" lon="5.694073375996745"><ele>300.0</ele><time>2026-04-28T07:36:53.999Z</time></trkpt><trkpt lat="45.044163934291696" lon="5.693966622603941"><ele>302.2</ele><time>2026-04-28T07:36:54.999Z</time></trkpt><trkpt lat="45.04424816962091" lon="5.693904785831085"><ele>304.4</ele><time>2026-04-28T07:36:55.999Z</time></trkpt><trkpt lat="45.04434093731954" lon="5.693877067268471"><ele>306.6</ele><time>2026-04-28T07:36:56.999Z</time></trkpt><trkpt lat="45.044437669550746" lon="5.693883710144231"><ele>308.8</ele><time>2026-04-28T07:36:57.999Z</time></trkpt><trkpt lat="45.04453139999536" lon="5.693903619677533"><ele>311.0</ele><time>2026-04-28T07:36:58.999Z</time></trkpt><trkpt lat="45.044619292561826" lon="5.693913100646726"><ele>311.0</ele><time>2026-04-28T07:36:59.999Z</time></trkpt><trkpt lat="45.04472110237686" lon="5.693962323065435"><ele>311.0</ele><time>2026-04-28T07:37:00.999Z</time></trkpt><trkpt lat="45.04479543683605" lon="5.693970959811333"><ele>311.0</ele><time>2026-04-28T07:37:01.999Z</time></trkpt><trkpt lat="45.044881004761685" lon="5.693968010116513"><ele>311.0</ele><time>2026-04-28T07:37:02.999Z</time></trkpt><trkpt lat="45.044962976447714" lon="5.6939361235369725"><ele>311.0</ele><time>2026-04-28T07:37:03.999Z</time></trkpt><trkpt lat="45.04502519635846" lon="5.693837133758857"><ele>311.0</ele><time>2026-04-28T07:37:04.999Z</time></trkpt><trkpt lat="45.04505577562052" lon="5.693727689914914"><ele>310.83333333333337</ele><time>2026-04-28T07:37:05.999Z</time></trkpt><trkpt lat="45.0450536887263" lon="5.693608616260738"><ele>310.6666666666667</ele><time>2026-04-28T07:37:06.999Z</time></trkpt><trkpt lat="45.04503293949692" lon="5.693504381919827"><ele>310.5</ele><time>2026-04-28T07:37:08Z</time></trkpt><trkpt lat="45.045007400247286" lon="5.693403497495198"><ele>310.3333333333333</ele><time>2026-04-28T07:37:09Z</time></trkpt><trkpt lat="45.04497377657687" lon="5.693299154239071"><ele>310.16666666666663</ele><time>2026-04-28T07:37:10Z</time></trkpt><trkpt lat="45.044939352565784" lon="5.693193453117981"><ele>310.0</ele><time>2026-04-28T07:37:11Z</time></trkpt><trkpt lat="45.044924683442254" lon="5.693103702345014"><ele>314.42857142857144</ele><time>2026-04-28T07:37:12Z</time></trkpt><trkpt lat="45.04490655050676" lon="5.6930091812761106"><ele>318.85714285714283</ele><time>2026-04-28T07:37:13Z</time></trkpt><trkpt lat="45.04490297764801" lon="5.692897831615062"><ele>323.2857142857143</ele><time>2026-04-28T07:37:14Z</time></trkpt><trkpt lat="45.04490821333695" lon="5.6927892905196105"><ele>327.7142857142857</ele><time>2026-04-28T07:37:15Z</time></trkpt><trkpt lat="45.04489950053117" lon="5.692695820975691"><ele>332.14285714285717</ele><time>2026-04-28T07:37:16Z</time></trkpt><trkpt lat="45.04490863641173" lon="5.692598859958982"><ele>336.57142857142856</ele><time>2026-04-28T07:37:17Z</time></trkpt><trkpt lat="45.04492446673785" lon="5.692502834137157"><ele>341.0</ele><time>2026-04-28T07:37:18Z</time></trkpt><trkpt lat="45.0449414914567" lon="5.692403981514324"><ele>339.1428571428571</ele><time>2026-04-28T07:37:19Z</time></trkpt><trkpt lat="45.0449611897284" lon="5.69230339969551"><ele>337.2857142857143</ele><time>2026-04-28T07:37:20Z</time></trkpt><trkpt lat="45.04498206666219" lon="5.692201584812261"><ele>335.42857142857144</ele><time>2026-04-28T07:37:21Z</time></trkpt><trkpt lat="45.045005804900086" lon="5.692100629272734"><ele>333.57142857142856</ele><time>2026-04-28T07:37:22Z</time></trkpt><trkpt lat="45.04503083287526" lon="5.692003481958431"><ele>331.7142857142857</ele><time>2026-04-28T07:37:23Z</time></trkpt><trkpt lat="45.045051516677105" lon="5.69190423563924"><ele>329.85714285714283</ele><time>2026-04-28T07:37:24Z</time></trkpt><trkpt lat="45.04507183100015" lon="5.691803137134204"><ele>328.0</ele><time>2026-04-28T07:37:25Z</time></trkpt><trkpt lat="45.04509500179442" lon="5.691713398676649"><ele>327.99999999999994</ele><time>2026-04-28T07:37:26Z</time></trkpt><trkpt lat="45.04512740995683" lon="5.691631509008772"><ele>328.0</ele><time>2026-04-28T07:37:27Z</time></trkpt><trkpt lat="45.045151487107155" lon="5.691539537399177"><ele>328.0</ele><time>2026-04-28T07:37:28Z</time></trkpt><trkpt lat="45.04518041998078" lon="5.69144933415404"><ele>328.0</ele><time>2026-04-28T07:37:29Z</time></trkpt><trkpt lat="45.04520586258046" lon="5.691362330209136"><ele>328.0</ele><time>2026-04-28T07:37:30Z</time></trkpt><trkpt lat="45.045236178356824" lon="5.691279083861432"><ele>327.99999999999994</ele><time>2026-04-28T07:37:31Z</time></trkpt><trkpt lat="45.04526975966074" lon="5.691200683697147"><ele>328.0</ele><time>2026-04-28T07:37:32Z</time></trkpt><trkpt lat="45.04530616327707" lon="5.691127358583184"><ele>332.0</ele><time>2026-04-28T07:37:33Z</time></trkpt><trkpt lat="45.04537358215915" lon="5.690988441374053"><ele>336.0</ele><time>2026-04-28T07:37:35Z</time></trkpt><trkpt lat="45.045446094596606" lon="5.690866401980725"><ele>340.0</ele><time>2026-04-28T07:37:37Z</time></trkpt><trkpt lat="45.04553028767595" lon="5.69076539366052"><ele>344.0</ele><time>2026-04-28T07:37:39Z</time></trkpt><trkpt lat="45.04561082599895" lon="5.690653295341053"><ele>344.0</ele><time>2026-04-28T07:37:41Z</time></trkpt><trkpt lat="45.045694244132214" lon="5.690549917861132"><ele>344.0</ele><time>2026-04-28T07:37:43Z</time></trkpt><trkpt lat="45.04578200882827" lon="5.6904585038182045"><ele>344.0</ele><time>2026-04-28T07:37:45Z</time></trkpt><trkpt lat="45.04585531454695" lon="5.690385856442649"><ele>344.0</ele><time>2026-04-28T07:37:47Z</time></trkpt><trkpt lat="45.04589993789805" lon="5.69031847895604"><ele>344.0</ele><time>2026-04-28T07:37:48Z</time></trkpt><trkpt lat="45.045975454804484" lon="5.690220594072168"><ele>340.79999999999995</ele><time>2026-04-28T07:37:50Z</time></trkpt><trkpt lat="45.046058145549736" lon="5.690127630214295"><ele>337.59999999999997</ele><time>2026-04-28T07:37:52Z</time></trkpt><trkpt lat="45.04613855604957" lon="5.6900305758483976"><ele>334.4</ele><time>2026-04-28T07:37:54Z</time></trkpt><trkpt lat="45.046213083130226" lon="5.68991476266898"><ele>331.2</ele><time>2026-04-28T07:37:56Z</time></trkpt><trkpt lat="45.04629218878429" lon="5.689798131485357"><ele>328.0</ele><time>2026-04-28T07:37:58Z</time></trkpt><trkpt lat="45.04636307962112" lon="5.689662205952296"><ele>328.0</ele><time>2026-04-28T07:38:00Z</time></trkpt><trkpt lat="45.04641986034211" lon="5.689512863619727"><ele>328.0</ele><time>2026-04-28T07:38:02Z</time></trkpt><trkpt lat="45.04648518936287" lon="5.689359698184946"><ele>328.0</ele><time>2026-04-28T07:38:04Z</time></trkpt><trkpt lat="45.04654882208484" lon="5.689205445910708"><ele>328.0</ele><time>2026-04-28T07:38:06Z</time></trkpt><trkpt lat="45.04658329509284" lon="5.68913036047173"><ele>328.0</ele><time>2026-04-28T07:38:07Z</time></trkpt><trkpt lat="45.046619167321644" lon="5.689055816969276"><ele>327.99999999999994</ele><time>2026-04-28T07:38:08Z</time></trkpt><trkpt lat="45.04665251058678" lon="5.688979650047513"><ele>328.0</ele><time>2026-04-28T07:38:09Z</time></trkpt><trkpt lat="45.04668932763766" lon="5.688903060912207"><ele>328.0</ele><time>2026-04-28T07:38:10Z</time></trkpt><trkpt lat="45.04672018547907" lon="5.688821578280322"><ele>328.0</ele><time>2026-04-28T07:38:10.999Z</time></trkpt><trkpt lat="45.04674825251851" lon="5.688736535746821"><ele>328.0</ele><time>2026-04-28T07:38:11.999Z</time></trkpt><trkpt lat="45.04678608404129" lon="5.688660789941018"><ele>327.99999999999994</ele><time>2026-04-28T07:38:12.999Z</time></trkpt><trkpt lat="45.04682327455794" lon="5.688584569839127"><ele>328.0</ele><time>2026-04-28T07:38:13.999Z</time></trkpt><trkpt lat="45.04685602046404" lon="5.688497172087259"><ele>327.99999999999994</ele><time>2026-04-28T07:38:14.999Z</time></trkpt><trkpt lat="45.04689015057044" lon="5.688415628332817"><ele>328.0</ele><time>2026-04-28T07:38:15.999Z</time></trkpt><trkpt lat="45.04692485318619" lon="5.688327229481411"><ele>328.0</ele><time>2026-04-28T07:38:16.999Z</time></trkpt><trkpt lat="45.046960849344075" lon="5.688245830445803"><ele>328.0</ele><time>2026-04-28T07:38:17.999Z</time></trkpt><trkpt lat="45.04699929735984" lon="5.688166395392008"><ele>328.0</ele><time>2026-04-28T07:38:18.999Z</time></trkpt><trkpt lat="45.04703807711747" lon="5.688083568165787"><ele>327.99999999999994</ele><time>2026-04-28T07:38:19.999Z</time></trkpt><trkpt lat="45.04708109232617" lon="5.687991358872685"><ele>328.0</ele><time>2026-04-28T07:38:20.999Z</time></trkpt><trkpt lat="45.047119111080995" lon="5.687919112810113"><ele>327.99999999999994</ele><time>2026-04-28T07:38:21.999Z</time></trkpt><trkpt lat="45.047152131989336" lon="5.687831106822616"><ele>328.0</ele><time>2026-04-28T07:38:22.999Z</time></trkpt><trkpt lat="45.04718850219076" lon="5.687745291744615"><ele>328.0</ele><time>2026-04-28T07:38:23.999Z</time></trkpt><trkpt lat="45.04723312916076" lon="5.687668220685525"><ele>328.0</ele><time>2026-04-28T07:38:24.999Z</time></trkpt><trkpt lat="45.04727448511588" lon="5.687588729798683"><ele>328.0</ele><time>2026-04-28T07:38:25.999Z</time></trkpt><trkpt lat="45.04731772781713" lon="5.687514268517494"><ele>327.99999999999994</ele><time>2026-04-28T07:38:26.999Z</time></trkpt><trkpt lat="45.04736301657207" lon="5.687434200493938"><ele>328.0</ele><time>2026-04-28T07:38:27.999Z</time></trkpt><trkpt lat="45.04740636605789" lon="5.687366228432986"><ele>328.1428571428571</ele><time>2026-04-28T07:38:28.999Z</time></trkpt><trkpt lat="45.04745232230561" lon="5.687291761798498"><ele>328.2857142857143</ele><time>2026-04-28T07:38:29.999Z</time></trkpt><trkpt lat="45.04749715849508" lon="5.68721490464626"><ele>328.42857142857144</ele><time>2026-04-28T07:38:30.999Z</time></trkpt><trkpt lat="45.04753929988858" lon="5.687133335519964"><ele>328.57142857142856</ele><time>2026-04-28T07:38:31.999Z</time></trkpt><trkpt lat="45.04758115225877" lon="5.6870548634404186"><ele>328.7142857142857</ele><time>2026-04-28T07:38:32.999Z</time></trkpt><trkpt lat="45.04760893340924" lon="5.686963755453089"><ele>328.85714285714283</ele><time>2026-04-28T07:38:33.999Z</time></trkpt><trkpt lat="45.04765525887591" lon="5.686883818645173"><ele>329.0</ele><time>2026-04-28T07:38:34.999Z</time></trkpt><trkpt lat="45.04770573812883" lon="5.686810286383938"><ele>326.8</ele><time>2026-04-28T07:38:35.999Z</time></trkpt><trkpt lat="45.04775120287375" lon="5.686729619538936"><ele>324.59999999999997</ele><time>2026-04-28T07:38:36.999Z</time></trkpt><trkpt lat="45.047796937537306" lon="5.686646896004409"><ele>322.4</ele><time>2026-04-28T07:38:37.999Z</time></trkpt><trkpt lat="45.047844685831286" lon="5.686562731910131"><ele>320.2</ele><time>2026-04-28T07:38:38.999Z</time></trkpt><trkpt lat="45.04790997726605" lon="5.6864582655026155"><ele>318.0</ele><time>2026-04-28T07:38:39.999Z</time></trkpt><trkpt lat="45.0479921948566" lon="5.686291921924165"><ele>318.0</ele><time>2026-04-28T07:38:41.999Z</time></trkpt><trkpt lat="45.04804323943531" lon="5.686197916001642"><ele>318.0</ele><time>2026-04-28T07:38:42.999Z</time></trkpt><trkpt lat="45.04809153778585" lon="5.686099112141311"><ele>318.0</ele><time>2026-04-28T07:38:43.999Z</time></trkpt><trkpt lat="45.048142127834055" lon="5.685996770071"><ele>318.0</ele><time>2026-04-28T07:38:44.999Z</time></trkpt><trkpt lat="45.048198669011605" lon="5.685902597279532"><ele>318.0</ele><time>2026-04-28T07:38:45.999Z</time></trkpt><trkpt lat="45.048252734197455" lon="5.685799727046971"><ele>318.0</ele><time>2026-04-28T07:38:46.999Z</time></trkpt><trkpt lat="45.0483071581626" lon="5.685692554457998"><ele>317.6</ele><time>2026-04-28T07:38:47.999Z</time></trkpt><trkpt lat="45.048366595929686" lon="5.685590565603517"><ele>317.20000000000005</ele><time>2026-04-28T07:38:48.999Z</time></trkpt><trkpt lat="45.04842742755599" lon="5.685489892620363"><ele>316.8</ele><time>2026-04-28T07:38:49.999Z</time></trkpt><trkpt lat="45.04849289451471" lon="5.685392823402789"><ele>316.40000000000003</ele><time>2026-04-28T07:38:50.999Z</time></trkpt><trkpt lat="45.04856254541904" lon="5.68530079407947"><ele>316.0</ele><time>2026-04-28T07:38:51.999Z</time></trkpt><trkpt lat="45.04863348885324" lon="5.685208836535692"><ele>316.0</ele><time>2026-04-28T07:38:52.999Z</time></trkpt><trkpt lat="45.048707490388814" lon="5.685116712163166"><ele>316.0</ele><time>2026-04-28T07:38:53.999Z</time></trkpt><trkpt lat="45.04878065943527" lon="5.685011818451269"><ele>316.0</ele><time>2026-04-28T07:38:54.999Z</time></trkpt><trkpt lat="45.04885672490051" lon="5.684915398957045"><ele>316.0</ele><time>2026-04-28T07:38:55.999Z</time></trkpt><trkpt lat="45.04892858799476" lon="5.684816387813861"><ele>316.0</ele><time>2026-04-28T07:38:56.999Z</time></trkpt><trkpt lat="45.04900416531026" lon="5.684720503484692"><ele>316.0</ele><time>2026-04-28T07:38:57.999Z</time></trkpt><trkpt lat="45.049086633456014" lon="5.684621967574335"><ele>316.0</ele><time>2026-04-28T07:38:58.999Z</time></trkpt><trkpt lat="45.04916469948727" lon="5.684510912667441"><ele>316.0</ele><time>2026-04-28T07:38:59.999Z</time></trkpt><trkpt lat="45.04923390429904" lon="5.684398663990624"><ele>316.0</ele><time>2026-04-28T07:39:00.999Z</time></trkpt><trkpt lat="45.04931274993557" lon="5.684300848053178"><ele>316.0</ele><time>2026-04-28T07:39:01.999Z</time></trkpt><trkpt lat="45.0494013143559" lon="5.6841906733926315"><ele>314.40000000000003</ele><time>2026-04-28T07:39:02.999Z</time></trkpt><trkpt lat="45.04948621583395" lon="5.684072327408069"><ele>312.8</ele><time>2026-04-28T07:39:03.999Z</time></trkpt><trkpt lat="45.04957029033323" lon="5.683974232295658"><ele>311.20000000000005</ele><time>2026-04-28T07:39:04.999Z</time></trkpt><trkpt lat="45.04964818398902" lon="5.683864103098602"><ele>309.6</ele><time>2026-04-28T07:39:05.999Z</time></trkpt><trkpt lat="45.049725198141104" lon="5.68375437023658"><ele>308.0</ele><time>2026-04-28T07:39:06.999Z</time></trkpt><trkpt lat="45.04979575823484" lon="5.683641202869786"><ele>308.4</ele><time>2026-04-28T07:39:07.999Z</time></trkpt><trkpt lat="45.049861086118874" lon="5.683520612495785"><ele>308.8</ele><time>2026-04-28T07:39:08.999Z</time></trkpt><trkpt lat="45.04991556418839" lon="5.683394230846545"><ele>309.2</ele><time>2026-04-28T07:39:09.999Z</time></trkpt><trkpt lat="45.04996365522188" lon="5.6832707901579615"><ele>309.6</ele><time>2026-04-28T07:39:10.999Z</time></trkpt><trkpt lat="45.05000717935405" lon="5.683138806723931"><ele>310.0</ele><time>2026-04-28T07:39:11.999Z</time></trkpt><trkpt lat="45.05006038256185" lon="5.683019302861143"><ele>309.6</ele><time>2026-04-28T07:39:12.999Z</time></trkpt><trkpt lat="45.0501056615832" lon="5.6829011484491305"><ele>309.2</ele><time>2026-04-28T07:39:14Z</time></trkpt><trkpt lat="45.05015767427454" lon="5.6827760505613005"><ele>308.8</ele><time>2026-04-28T07:39:15Z</time></trkpt><trkpt lat="45.05019664364889" lon="5.682658541225611"><ele>308.4</ele><time>2026-04-28T07:39:16Z</time></trkpt><trkpt lat="45.05023805661376" lon="5.682544715735975"><ele>308.0</ele><time>2026-04-28T07:39:17Z</time></trkpt><trkpt lat="45.05027578247607" lon="5.682431240822748"><ele>308.0</ele><time>2026-04-28T07:39:18Z</time></trkpt><trkpt lat="45.05031937032348" lon="5.682337921871298"><ele>308.0</ele><time>2026-04-28T07:39:19Z</time></trkpt><trkpt lat="45.050387647510036" lon="5.6822302068721555"><ele>308.0</ele><time>2026-04-28T07:39:20Z</time></trkpt><trkpt lat="45.05044041730286" lon="5.6821230050666784"><ele>308.0</ele><time>2026-04-28T07:39:21Z</time></trkpt><trkpt lat="45.05049030862552" lon="5.682012051457158"><ele>308.0</ele><time>2026-04-28T07:39:22Z</time></trkpt><trkpt lat="45.05054084261406" lon="5.6819045076697625"><ele>307.6</ele><time>2026-04-28T07:39:23Z</time></trkpt><trkpt lat="45.05058963909859" lon="5.681791109101517"><ele>307.20000000000005</ele><time>2026-04-28T07:39:24Z</time></trkpt><trkpt lat="45.05063998212603" lon="5.6816842085122055"><ele>306.8</ele><time>2026-04-28T07:39:25Z</time></trkpt><trkpt lat="45.05069281549675" lon="5.681578911302865"><ele>306.40000000000003</ele><time>2026-04-28T07:39:26Z</time></trkpt><trkpt lat="45.050741879765226" lon="5.681458116302389"><ele>306.0</ele><time>2026-04-28T07:39:27Z</time></trkpt><trkpt lat="45.050787664935726" lon="5.681360589902182"><ele>306.1666666666667</ele><time>2026-04-28T07:39:28Z</time></trkpt><trkpt lat="45.05084033056496" lon="5.681259264020209"><ele>306.3333333333333</ele><time>2026-04-28T07:39:29Z</time></trkpt><trkpt lat="45.050892477568574" lon="5.681156865038392"><ele>306.5</ele><time>2026-04-28T07:39:30Z</time></trkpt><trkpt lat="45.05093780736805" lon="5.681050399826507"><ele>306.66666666666663</ele><time>2026-04-28T07:39:31Z</time></trkpt><trkpt lat="45.05098762208617" lon="5.680946984846333"><ele>306.8333333333333</ele><time>2026-04-28T07:39:32Z</time></trkpt><trkpt lat="45.051037779195624" lon="5.68084750028969"><ele>307.0</ele><time>2026-04-28T07:39:33Z</time></trkpt><trkpt lat="45.0510858944622" lon="5.680745403357035"><ele>307.0</ele><time>2026-04-28T07:39:34Z</time></trkpt><trkpt lat="45.05113386280399" lon="5.680645745621173"><ele>307.0</ele><time>2026-04-28T07:39:35Z</time></trkpt><trkpt lat="45.05118004994514" lon="5.680543739729591"><ele>307.0</ele><time>2026-04-28T07:39:36Z</time></trkpt><trkpt lat="45.051227567106" lon="5.680443980816571"><ele>307.0</ele><time>2026-04-28T07:39:37Z</time></trkpt><trkpt lat="45.051276810458894" lon="5.680347757167834"><ele>307.0</ele><time>2026-04-28T07:39:38Z</time></trkpt><trkpt lat="45.05132348377951" lon="5.680248320110313"><ele>307.0</ele><time>2026-04-28T07:39:39Z</time></trkpt><trkpt lat="45.05136643295065" lon="5.680149975896226"><ele>307.0</ele><time>2026-04-28T07:39:40Z</time></trkpt><trkpt lat="45.05141107121071" lon="5.680051474736623"><ele>307.0</ele><time>2026-04-28T07:39:41Z</time></trkpt><trkpt lat="45.05145845695686" lon="5.679958197906454"><ele>307.0</ele><time>2026-04-28T07:39:42Z</time></trkpt><trkpt lat="45.051501167697666" lon="5.679862242860934"><ele>307.0</ele><time>2026-04-28T07:39:43Z</time></trkpt><trkpt lat="45.05154331213422" lon="5.679766464354405"><ele>307.0</ele><time>2026-04-28T07:39:44Z</time></trkpt><trkpt lat="45.051585565639485" lon="5.679669471365028"><ele>307.0</ele><time>2026-04-28T07:39:45Z</time></trkpt><trkpt lat="45.05163084744052" lon="5.679579390897706"><ele>307.0</ele><time>2026-04-28T07:39:46Z</time></trkpt><trkpt lat="45.05167442358371" lon="5.679488307079697"><ele>307.0</ele><time>2026-04-28T07:39:47Z</time></trkpt><trkpt lat="45.05171714137477" lon="5.679397033400476"><ele>307.0</ele><time>2026-04-28T07:39:48Z</time></trkpt><trkpt lat="45.05175884859853" lon="5.679304009491308"><ele>307.0</ele><time>2026-04-28T07:39:49Z</time></trkpt><trkpt lat="45.051802562851506" lon="5.6792165570592985"><ele>307.0</ele><time>2026-04-28T07:39:50Z</time></trkpt><trkpt lat="45.05184185211641" lon="5.679128289664973"><ele>307.0</ele><time>2026-04-28T07:39:51Z</time></trkpt><trkpt lat="45.051882498683085" lon="5.679037543932293"><ele>307.1428571428571</ele><time>2026-04-28T07:39:52Z</time></trkpt><trkpt lat="45.051922727114295" lon="5.678950336049622"><ele>307.2857142857143</ele><time>2026-04-28T07:39:53Z</time></trkpt><trkpt lat="45.05196216190328" lon="5.678861214890227"><ele>307.42857142857144</ele><time>2026-04-28T07:39:54Z</time></trkpt><trkpt lat="45.05200071229032" lon="5.678773852754379"><ele>307.57142857142856</ele><time>2026-04-28T07:39:55Z</time></trkpt><trkpt lat="45.052040798220084" lon="5.678689074337473"><ele>307.7142857142857</ele><time>2026-04-28T07:39:56Z</time></trkpt><trkpt lat="45.05208079299707" lon="5.678602869632367"><ele>307.85714285714283</ele><time>2026-04-28T07:39:57Z</time></trkpt><trkpt lat="45.05212204341033" lon="5.678515596607941"><ele>308.0</ele><time>2026-04-28T07:39:58Z</time></trkpt><trkpt lat="45.05216257736208" lon="5.678431352325131"><ele>308.0</ele><time>2026-04-28T07:39:59Z</time></trkpt><trkpt lat="45.05219811929376" lon="5.678341866449475"><ele>308.0</ele><time>2026-04-28T07:40:00Z</time></trkpt><trkpt lat="45.05223694838526" lon="5.678258296578648"><ele>308.0</ele><time>2026-04-28T07:40:01Z</time></trkpt><trkpt lat="45.05227673793455" lon="5.678175734358065"><ele>308.0</ele><time>2026-04-28T07:40:02Z</time></trkpt><trkpt lat="45.05231364155274" lon="5.678091382364457"><ele>308.0</ele><time>2026-04-28T07:40:03Z</time></trkpt><trkpt lat="45.0523516017592" lon="5.678014871647782"><ele>308.0</ele><time>2026-04-28T07:40:04Z</time></trkpt><trkpt lat="45.05238932239645" lon="5.677935607130144"><ele>308.0</ele><time>2026-04-28T07:40:05Z</time></trkpt><trkpt lat="45.05242684015345" lon="5.677861489012949"><ele>308.0</ele><time>2026-04-28T07:40:06Z</time></trkpt><trkpt lat="45.052453282911316" lon="5.67770645744147"><ele>308.0</ele><time>2026-04-28T07:40:08Z</time></trkpt><trkpt lat="45.052431611980055" lon="5.677555818460034"><ele>308.0</ele><time>2026-04-28T07:40:10Z</time></trkpt><trkpt lat="45.05238470728174" lon="5.677432623287774"><ele>308.0</ele><time>2026-04-28T07:40:12Z</time></trkpt><trkpt lat="45.0523986574465" lon="5.677308652341874"><ele>308.0</ele><time>2026-04-28T07:40:14Z</time></trkpt><trkpt lat="45.0524665866804" lon="5.677254525259211"><ele>308.5</ele><time>2026-04-28T07:40:15.999Z</time></trkpt><trkpt lat="45.05254541366815" lon="5.677270580015537"><ele>309.0</ele><time>2026-04-28T07:40:18.999Z</time></trkpt><trkpt lat="45.05260697616409" lon="5.677353552762253"><ele>309.5</ele><time>2026-04-28T07:40:20.999Z</time></trkpt><trkpt lat="45.05269357710812" lon="5.677339385087878"><ele>310.0</ele><time>2026-04-28T07:40:22.999Z</time></trkpt><trkpt lat="45.052780129662" lon="5.67727339744076"><ele>310.5</ele><time>2026-04-28T07:40:24.999Z</time></trkpt><trkpt lat="45.05281353944669" lon="5.677151685681976"><ele>311.0</ele><time>2026-04-28T07:40:26.999Z</time></trkpt><trkpt lat="45.052850672547166" lon="5.677075968416513"><ele>311.0</ele><time>2026-04-28T07:40:28.999Z</time></trkpt><trkpt lat="45.052767327696884" lon="5.6770000761100485"><ele>311.0</ele><time>2026-04-28T07:40:29.999Z</time></trkpt><trkpt lat="45.05268529690197" lon="5.676942922406636"><ele>311.0</ele><time>2026-04-28T07:40:31.999Z</time></trkpt><trkpt lat="45.05261579025318" lon="5.676851216206956"><ele>311.0</ele><time>2026-04-28T07:40:33.999Z</time></trkpt><trkpt lat="45.052556787684125" lon="5.676725265187025"><ele>311.0</ele><time>2026-04-28T07:40:35.999Z</time></trkpt><trkpt lat="45.05250305603356" lon="5.676590718866841"><ele>311.0</ele><time>2026-04-28T07:40:37.999Z</time></trkpt><trkpt lat="45.052452160929406" lon="5.676449129432553"><ele>311.0</ele><time>2026-04-28T07:40:39.999Z</time></trkpt><trkpt lat="45.052417684599334" lon="5.676299624800078"><ele>311.0</ele><time>2026-04-28T07:40:41.999Z</time></trkpt><trkpt lat="45.05239766346603" lon="5.676136038223819"><ele>311.0</ele><time>2026-04-28T07:40:43.999Z</time></trkpt><trkpt lat="45.052359103754384" lon="5.675975245389164"><ele>310.75</ele><time>2026-04-28T07:40:45.999Z</time></trkpt><trkpt lat="45.052322572833596" lon="5.675815374033897"><ele>310.5</ele><time>2026-04-28T07:40:47.999Z</time></trkpt><trkpt lat="45.052294400343094" lon="5.675646059010915"><ele>310.25</ele><time>2026-04-28T07:40:49.999Z</time></trkpt><trkpt lat="45.052260289739785" lon="5.675487256833573"><ele>310.0</ele><time>2026-04-28T07:40:51.999Z</time></trkpt><trkpt lat="45.05221831231501" lon="5.675329044762428"><ele>310.0</ele><time>2026-04-28T07:40:53.999Z</time></trkpt><trkpt lat="45.052173910706635" lon="5.675172723784068"><ele>310.0</ele><time>2026-04-28T07:40:55.999Z</time></trkpt><trkpt lat="45.05212897088924" lon="5.675021344825592"><ele>310.0</ele><time>2026-04-28T07:40:57.999Z</time></trkpt><trkpt lat="45.052073645981054" lon="5.67487582876115"><ele>310.0</ele><time>2026-04-28T07:40:59.999Z</time></trkpt><trkpt lat="45.05201695673931" lon="5.674734505354525"><ele>310.0</ele><time>2026-04-28T07:41:01.999Z</time></trkpt><trkpt lat="45.05195143351711" lon="5.674597302617797"><ele>310.0</ele><time>2026-04-28T07:41:03.999Z</time></trkpt><trkpt lat="45.05188811658246" lon="5.67445837824602"><ele>310.0</ele><time>2026-04-28T07:41:05.999Z</time></trkpt><trkpt lat="45.0518285500618" lon="5.674321799950132"><ele>310.0</ele><time>2026-04-28T07:41:07.999Z</time></trkpt><trkpt lat="45.05176910624115" lon="5.674181887067243"><ele>310.2</ele><time>2026-04-28T07:41:09.999Z</time></trkpt><trkpt lat="45.0517145710753" lon="5.674045553968651"><ele>310.4</ele><time>2026-04-28T07:41:11.999Z</time></trkpt><trkpt lat="45.05166578084954" lon="5.673925926122994"><ele>310.6</ele><time>2026-04-28T07:41:13.999Z</time></trkpt><trkpt lat="45.051609648924554" lon="5.6737958576646585"><ele>310.8</ele><time>2026-04-28T07:41:15.999Z</time></trkpt><trkpt lat="45.051547769883264" lon="5.673667131382387"><ele>311.0</ele><time>2026-04-28T07:41:17.999Z</time></trkpt><trkpt lat="45.05148809191905" lon="5.673541163269756"><ele>311.2</ele><time>2026-04-28T07:41:20Z</time></trkpt><trkpt lat="45.05142798637911" lon="5.673414253769389"><ele>311.40000000000003</ele><time>2026-04-28T07:41:22Z</time></trkpt><trkpt lat="45.05137030204087" lon="5.67329369532335"><ele>311.6</ele><time>2026-04-28T07:41:24Z</time></trkpt><trkpt lat="45.05132726404712" lon="5.673166399397019"><ele>311.8</ele><time>2026-04-28T07:41:26Z</time></trkpt><trkpt lat="45.05127620998773" lon="5.673046708226384"><ele>312.0</ele><time>2026-04-28T07:41:28Z</time></trkpt><trkpt lat="45.051212324051036" lon="5.672928350052268"><ele>312.0</ele><time>2026-04-28T07:41:30Z</time></trkpt><trkpt lat="45.05115037819045" lon="5.67280775557839"><ele>312.0</ele><time>2026-04-28T07:41:32Z</time></trkpt><trkpt lat="45.0510877787537" lon="5.672679646992564"><ele>312.0</ele><time>2026-04-28T07:41:34Z</time></trkpt><trkpt lat="45.05101448032915" lon="5.672553176579261"><ele>312.0</ele><time>2026-04-28T07:41:36Z</time></trkpt><trkpt lat="45.050950230779435" lon="5.672434015693316"><ele>312.0</ele><time>2026-04-28T07:41:38Z</time></trkpt><trkpt lat="45.05088453646595" lon="5.672318793371009"><ele>312.4</ele><time>2026-04-28T07:41:40Z</time></trkpt><trkpt lat="45.05082206771221" lon="5.672202997379655"><ele>312.79999999999995</ele><time>2026-04-28T07:41:42Z</time></trkpt><trkpt lat="45.050759058775206" lon="5.67208606560445"><ele>313.2</ele><time>2026-04-28T07:41:44Z</time></trkpt><trkpt lat="45.05069140964844" lon="5.671970769144925"><ele>313.59999999999997</ele><time>2026-04-28T07:41:46Z</time></trkpt><trkpt lat="45.050627185418755" lon="5.671857953416237"><ele>314.0</ele><time>2026-04-28T07:41:48Z</time></trkpt><trkpt lat="45.05055935726528" lon="5.671747436485715"><ele>315.2</ele><time>2026-04-28T07:41:50Z</time></trkpt><trkpt lat="45.050489153887504" lon="5.671640784592756"><ele>316.4</ele><time>2026-04-28T07:41:52Z</time></trkpt><trkpt lat="45.05042013000743" lon="5.671528725856101"><ele>317.6</ele><time>2026-04-28T07:41:54Z</time></trkpt><trkpt lat="45.05035327788612" lon="5.671414593177087"><ele>318.8</ele><time>2026-04-28T07:41:56Z</time></trkpt><trkpt lat="45.050282591081206" lon="5.6713026363241035"><ele>320.0</ele><time>2026-04-28T07:41:58Z</time></trkpt><trkpt lat="45.050215305846315" lon="5.671183191896918"><ele>319.6</ele><time>2026-04-28T07:42:00Z</time></trkpt><trkpt lat="45.05014718057602" lon="5.671063167202695"><ele>319.2</ele><time>2026-04-28T07:42:02Z</time></trkpt><trkpt lat="45.0500847837245" lon="5.670947997164203"><ele>318.8</ele><time>2026-04-28T07:42:04Z</time></trkpt><trkpt lat="45.05002602305918" lon="5.670834302141961"><ele>318.4</ele><time>2026-04-28T07:42:06Z</time></trkpt><trkpt lat="45.04996072636562" lon="5.670719656305489"><ele>318.0</ele><time>2026-04-28T07:42:08Z</time></trkpt><trkpt lat="45.04989372402357" lon="5.67061213843522"><ele>318.6</ele><time>2026-04-28T07:42:10Z</time></trkpt><trkpt lat="45.04982675815548" lon="5.670506172393122"><ele>319.20000000000005</ele><time>2026-04-28T07:42:12Z</time></trkpt><trkpt lat="45.049768309820635" lon="5.6703836131416026"><ele>319.8</ele><time>2026-04-28T07:42:14Z</time></trkpt><trkpt lat="45.04969543826989" lon="5.670278745517915"><ele>320.40000000000003</ele><time>2026-04-28T07:42:16Z</time></trkpt><trkpt lat="45.049634748680575" lon="5.670161478050569"><ele>321.0</ele><time>2026-04-28T07:42:18Z</time></trkpt><trkpt lat="45.049569290280736" lon="5.670037067471746"><ele>321.0</ele><time>2026-04-28T07:42:20Z</time></trkpt><trkpt lat="45.04949939277844" lon="5.66992587429107"><ele>321.0</ele><time>2026-04-28T07:42:22Z</time></trkpt><trkpt lat="45.0494326792695" lon="5.669807725204117"><ele>321.0</ele><time>2026-04-28T07:42:23.999Z</time></trkpt><trkpt lat="45.04937054331311" lon="5.669692189103483"><ele>321.0</ele><time>2026-04-28T07:42:25.999Z</time></trkpt><trkpt lat="45.04930218220108" lon="5.669580370419612"><ele>321.0</ele><time>2026-04-28T07:42:27.999Z</time></trkpt><trkpt lat="45.049230685343474" lon="5.669476712157951"><ele>320.6</ele><time>2026-04-28T07:42:29.999Z</time></trkpt><trkpt lat="45.04916063694098" lon="5.669376083214135"><ele>320.20000000000005</ele><time>2026-04-28T07:42:31.999Z</time></trkpt><trkpt lat="45.049103349141" lon="5.669260942764969"><ele>319.79999999999995</ele><time>2026-04-28T07:42:33.999Z</time></trkpt><trkpt lat="45.049050761357016" lon="5.669167577312201"><ele>319.4</ele><time>2026-04-28T07:42:35.999Z</time></trkpt><trkpt lat="45.04900740157332" lon="5.669073256219102"><ele>319.0</ele><time>2026-04-28T07:42:37.999Z</time></trkpt><trkpt lat="45.04894196717903" lon="5.668992594042122"><ele>319.79999999999995</ele><time>2026-04-28T07:42:39.999Z</time></trkpt><trkpt lat="45.048897176171984" lon="5.668883341512512"><ele>320.59999999999997</ele><time>2026-04-28T07:42:41.999Z</time></trkpt><trkpt lat="45.048886567892666" lon="5.668742165523541"><ele>321.4</ele><time>2026-04-28T07:42:43.999Z</time></trkpt><trkpt lat="45.048947784390236" lon="5.668610605072231"><ele>322.2</ele><time>2026-04-28T07:42:45.999Z</time></trkpt><trkpt lat="45.04898152169836" lon="5.668483814781089"><ele>323.0</ele><time>2026-04-28T07:42:47.999Z</time></trkpt><trkpt lat="45.04891218926282" lon="5.668439770109334"><ele>323.0</ele><time>2026-04-28T07:42:48.999Z</time></trkpt><trkpt lat="45.04891276540741" lon="5.66832876366714"><ele>323.0</ele><time>2026-04-28T07:42:50.999Z</time></trkpt><trkpt lat="45.04884660010829" lon="5.6683084455884485"><ele>323.0</ele><time>2026-04-28T07:42:52.999Z</time></trkpt><trkpt lat="45.048766367092426" lon="5.6682851479013925"><ele>323.0</ele><time>2026-04-28T07:42:55.999Z</time></trkpt><trkpt lat="45.04873955791925" lon="5.668155252969284"><ele>323.0</ele><time>2026-04-28T07:42:57.999Z</time></trkpt><trkpt lat="45.04872676321493" lon="5.6680037221718775"><ele>323.0</ele><time>2026-04-28T07:42:59.999Z</time></trkpt><trkpt lat="45.04870930474787" lon="5.667864221690103"><ele>322.4</ele><time>2026-04-28T07:43:01.999Z</time></trkpt><trkpt lat="45.04867371082461" lon="5.667727402624683"><ele>321.79999999999995</ele><time>2026-04-28T07:43:03.999Z</time></trkpt><trkpt lat="45.04861341146818" lon="5.667615842518815"><ele>321.2</ele><time>2026-04-28T07:43:05.999Z</time></trkpt><trkpt lat="45.048541811824755" lon="5.667516437312751"><ele>320.6</ele><time>2026-04-28T07:43:07.999Z</time></trkpt><trkpt lat="45.04844962082382" lon="5.667457732105187"><ele>320.0</ele><time>2026-04-28T07:43:09.999Z</time></trkpt><trkpt lat="45.04835312257576" lon="5.667417792245532"><ele>320.6</ele><time>2026-04-28T07:43:11.999Z</time></trkpt><trkpt lat="45.04825643536231" lon="5.667402951086885"><ele>321.2</ele><time>2026-04-28T07:43:13.999Z</time></trkpt><trkpt lat="45.04814267456791" lon="5.66740035785415"><ele>321.79999999999995</ele><time>2026-04-28T07:43:15.999Z</time></trkpt><trkpt lat="45.04803578261343" lon="5.667391637395378"><ele>322.4</ele><time>2026-04-28T07:43:17.999Z</time></trkpt><trkpt lat="45.04794206755058" lon="5.667361329444537"><ele>323.0</ele><time>2026-04-28T07:43:19.999Z</time></trkpt><trkpt lat="45.04786508324088" lon="5.66729673411885"><ele>323.0</ele><time>2026-04-28T07:43:21.999Z</time></trkpt><trkpt lat="45.04779510067529" lon="5.667236555945483"><ele>323.0</ele><time>2026-04-28T07:43:23.999Z</time></trkpt><trkpt lat="45.04774509911385" lon="5.6671471014033274"><ele>323.0</ele><time>2026-04-28T07:43:26Z</time></trkpt><trkpt lat="45.047692951399334" lon="5.667050150859465"><ele>323.0</ele><time>2026-04-28T07:43:28Z</time></trkpt><trkpt lat="45.0476283428747" lon="5.666965915464333"><ele>323.0</ele><time>2026-04-28T07:43:30Z</time></trkpt><trkpt lat="45.0475649254218" lon="5.666885154332913"><ele>323.0</ele><time>2026-04-28T07:43:32Z</time></trkpt><trkpt lat="45.04749444353444" lon="5.666831279453977"><ele>322.8571428571429</ele><time>2026-04-28T07:43:34Z</time></trkpt><trkpt lat="45.047432682740336" lon="5.666788126597333"><ele>322.7142857142857</ele><time>2026-04-28T07:43:36Z</time></trkpt><trkpt lat="45.047374324885446" lon="5.666748836995222"><ele>322.57142857142856</ele><time>2026-04-28T07:43:38Z</time></trkpt><trkpt lat="45.04729526717747" lon="5.666731907287122"><ele>322.42857142857144</ele><time>2026-04-28T07:43:41Z</time></trkpt><trkpt lat="45.04722045351648" lon="5.666715126803511"><ele>322.2857142857143</ele><time>2026-04-28T07:43:45Z</time></trkpt><trkpt lat="45.047154202128915" lon="5.666673025473431"><ele>322.14285714285717</ele><time>2026-04-28T07:43:51Z</time></trkpt><trkpt lat="45.0470940114874" lon="5.666708152222889"><ele>322.0</ele><time>2026-04-28T07:44:16Z</time></trkpt><trkpt lat="45.04701643170215" lon="5.666709169751365"><ele>322.0</ele><time>2026-04-28T07:44:19Z</time></trkpt><trkpt lat="45.046949857438825" lon="5.666689513539118"><ele>322.0</ele><time>2026-04-28T07:44:20.999Z</time></trkpt><trkpt lat="45.04688593851897" lon="5.666661226464894"><ele>322.0</ele><time>2026-04-28T07:44:22.999Z</time></trkpt><trkpt lat="45.04681918207151" lon="5.666616634742172"><ele>322.0</ele><time>2026-04-28T07:44:24.999Z</time></trkpt><trkpt lat="45.046748620607936" lon="5.666561928316885"><ele>322.0</ele><time>2026-04-28T07:44:26.999Z</time></trkpt><trkpt lat="45.046685117096715" lon="5.666506776323217"><ele>322.0</ele><time>2026-04-28T07:44:28.999Z</time></trkpt><trkpt lat="45.046615367187016" lon="5.666460467555239"><ele>322.0</ele><time>2026-04-28T07:44:30.999Z</time></trkpt><trkpt lat="45.046543926521814" lon="5.666406800596661"><ele>322.3333333333333</ele><time>2026-04-28T07:44:32.999Z</time></trkpt><trkpt lat="45.04647539806521" lon="5.666338215379236"><ele>322.66666666666663</ele><time>2026-04-28T07:44:34.999Z</time></trkpt><trkpt lat="45.046401959684786" lon="5.666274096186596"><ele>323.0</ele><time>2026-04-28T07:44:36.999Z</time></trkpt><trkpt lat="45.04632353491985" lon="5.666217903852571"><ele>323.3333333333333</ele><time>2026-04-28T07:44:38.999Z</time></trkpt><trkpt lat="45.04625036847031" lon="5.666139483556132"><ele>323.6666666666667</ele><time>2026-04-28T07:44:40.999Z</time></trkpt><trkpt lat="45.046165279269026" lon="5.666077566830412"><ele>324.0</ele><time>2026-04-28T07:44:42.999Z</time></trkpt><trkpt lat="45.04609305310757" lon="5.6660324594085125"><ele>324.0</ele><time>2026-04-28T07:44:44.999Z</time></trkpt><trkpt lat="45.04600685918117" lon="5.66595719503032"><ele>324.0</ele><time>2026-04-28T07:44:46.999Z</time></trkpt><trkpt lat="45.045923666231594" lon="5.665891852743964"><ele>324.0</ele><time>2026-04-28T07:44:48.999Z</time></trkpt><trkpt lat="45.04584097731286" lon="5.66581755894638"><ele>324.0</ele><time>2026-04-28T07:44:50.999Z</time></trkpt><trkpt lat="45.04575572943631" lon="5.665752718833023"><ele>324.0</ele><time>2026-04-28T07:44:52.999Z</time></trkpt><trkpt lat="45.0456706066428" lon="5.66568752510861"><ele>324.6</ele><time>2026-04-28T07:44:54.999Z</time></trkpt><trkpt lat="45.04557842259996" lon="5.6656015722549995"><ele>325.2</ele><time>2026-04-28T07:44:56.999Z</time></trkpt><trkpt lat="45.045488291058696" lon="5.665536645627733"><ele>325.8</ele><time>2026-04-28T07:44:58.999Z</time></trkpt><trkpt lat="45.045390430555535" lon="5.665477929740699"><ele>326.40000000000003</ele><time>2026-04-28T07:45:00.999Z</time></trkpt><trkpt lat="45.045313495058664" lon="5.6654129171333665"><ele>327.0</ele><time>2026-04-28T07:45:02.999Z</time></trkpt><trkpt lat="45.045242191381966" lon="5.665352817175431"><ele>327.0</ele><time>2026-04-28T07:45:04.999Z</time></trkpt><trkpt lat="45.045177794192746" lon="5.66529872671673"><ele>327.0</ele><time>2026-04-28T07:45:06.999Z</time></trkpt><trkpt lat="45.04511226204844" lon="5.6652464215207035"><ele>327.0</ele><time>2026-04-28T07:45:08.999Z</time></trkpt><trkpt lat="45.045043123842774" lon="5.665181375760476"><ele>327.0</ele><time>2026-04-28T07:45:10.999Z</time></trkpt><trkpt lat="45.04496624450214" lon="5.665120435364871"><ele>327.0</ele><time>2026-04-28T07:45:12.999Z</time></trkpt><trkpt lat="45.04489002973255" lon="5.665045582189977"><ele>327.0</ele><time>2026-04-28T07:45:14.999Z</time></trkpt><trkpt lat="45.04480730674736" lon="5.66497868464184"><ele>327.8</ele><time>2026-04-28T07:45:16.999Z</time></trkpt><trkpt lat="45.04472465278937" lon="5.6648948554301946"><ele>328.6</ele><time>2026-04-28T07:45:18.999Z</time></trkpt><trkpt lat="45.044636027752" lon="5.6648093087543385"><ele>329.40000000000003</ele><time>2026-04-28T07:45:20.999Z</time></trkpt><trkpt lat="45.044544122488254" lon="5.664729158004899"><ele>330.20000000000005</ele><time>2026-04-28T07:45:22.999Z</time></trkpt><trkpt lat="45.04444785357212" lon="5.664650680049246"><ele>331.0</ele><time>2026-04-28T07:45:24.999Z</time></trkpt><trkpt lat="45.04434820215272" lon="5.6645917825992465"><ele>331.0</ele><time>2026-04-28T07:45:26.999Z</time></trkpt><trkpt lat="45.044243794654676" lon="5.664549493402197"><ele>331.0</ele><time>2026-04-28T07:45:28.999Z</time></trkpt><trkpt lat="45.04413491305421" lon="5.664506071635877"><ele>331.0</ele><time>2026-04-28T07:45:30.999Z</time></trkpt><trkpt lat="45.04402066796309" lon="5.664479471704367"><ele>331.0</ele><time>2026-04-28T07:45:33Z</time></trkpt><trkpt lat="45.04391349587565" lon="5.66447571434524"><ele>331.0</ele><time>2026-04-28T07:45:35Z</time></trkpt><trkpt lat="45.043802899186176" lon="5.66446563636873"><ele>330.4</ele><time>2026-04-28T07:45:37Z</time></trkpt><trkpt lat="45.04369778962787" lon="5.66444567481722"><ele>329.8</ele><time>2026-04-28T07:45:39Z</time></trkpt><trkpt lat="45.043586674791875" lon="5.664426361983545"><ele>329.2</ele><time>2026-04-28T07:45:41Z</time></trkpt><trkpt lat="45.043484507075796" lon="5.664429923429959"><ele>328.59999999999997</ele><time>2026-04-28T07:45:43Z</time></trkpt><trkpt lat="45.043378828585475" lon="5.664410103528516"><ele>328.0</ele><time>2026-04-28T07:45:45Z</time></trkpt><trkpt lat="45.043299923594226" lon="5.664417731318733"><ele>328.59999999999997</ele><time>2026-04-28T07:45:47Z</time></trkpt><trkpt lat="45.04320610562624" lon="5.664397868421861"><ele>329.2</ele><time>2026-04-28T07:45:50Z</time></trkpt><trkpt lat="45.04312735076777" lon="5.664370599151541"><ele>329.8</ele><time>2026-04-28T07:45:52Z</time></trkpt><trkpt lat="45.04303307591539" lon="5.664383414642717"><ele>330.4</ele><time>2026-04-28T07:45:54Z</time></trkpt><trkpt lat="45.04291704103989" lon="5.664390823949873"><ele>331.0</ele><time>2026-04-28T07:45:55Z</time></trkpt><trkpt lat="45.04282279146396" lon="5.664382863049946"><ele>331.0</ele><time>2026-04-28T07:45:57Z</time></trkpt><trkpt lat="45.04273268874206" lon="5.664330127219644"><ele>331.0</ele><time>2026-04-28T07:45:59Z</time></trkpt><trkpt lat="45.0426362151021" lon="5.664283772581802"><ele>331.0</ele><time>2026-04-28T07:46:01Z</time></trkpt><trkpt lat="45.04255653158079" lon="5.664228680272146"><ele>331.0</ele><time>2026-04-28T07:46:03Z</time></trkpt><trkpt lat="45.04248071741845" lon="5.664159397418579"><ele>331.0</ele><time>2026-04-28T07:46:05Z</time></trkpt><trkpt lat="45.042394184375766" lon="5.664105460524005"><ele>331.4</ele><time>2026-04-28T07:46:07Z</time></trkpt><trkpt lat="45.04231657362587" lon="5.664032102886541"><ele>331.8</ele><time>2026-04-28T07:46:09Z</time></trkpt><trkpt lat="45.0422454359848" lon="5.663946265882681"><ele>332.2</ele><time>2026-04-28T07:46:11Z</time></trkpt><trkpt lat="45.04216762036397" lon="5.663876321232576"><ele>332.59999999999997</ele><time>2026-04-28T07:46:13Z</time></trkpt><trkpt lat="45.04208073153762" lon="5.663803956047116"><ele>333.0</ele><time>2026-04-28T07:46:15Z</time></trkpt><trkpt lat="45.0419977837314" lon="5.663730335092904"><ele>333.0</ele><time>2026-04-28T07:46:16.999Z</time></trkpt><trkpt lat="45.04192019709916" lon="5.663643500405132"><ele>333.0</ele><time>2026-04-28T07:46:18.999Z</time></trkpt><trkpt lat="45.04185620420177" lon="5.6635792240984"><ele>333.0</ele><time>2026-04-28T07:46:20.999Z</time></trkpt><trkpt lat="45.04179612932695" lon="5.663518665117226"><ele>333.0</ele><time>2026-04-28T07:46:21.999Z</time></trkpt><trkpt lat="45.04170738482945" lon="5.663450513670505"><ele>333.0</ele><time>2026-04-28T07:46:23.999Z</time></trkpt><trkpt lat="45.04162823635548" lon="5.66335437376945"><ele>332.59999999999997</ele><time>2026-04-28T07:46:25.999Z</time></trkpt><trkpt lat="45.04154026692221" lon="5.66326456629481"><ele>332.2</ele><time>2026-04-28T07:46:27.999Z</time></trkpt><trkpt lat="45.04144963440756" lon="5.663200761619066"><ele>331.8</ele><time>2026-04-28T07:46:29.999Z</time></trkpt><trkpt lat="45.04136994364649" lon="5.663115447942274"><ele>331.4</ele><time>2026-04-28T07:46:31.999Z</time></trkpt><trkpt lat="45.04128045973844" lon="5.663024522818114"><ele>331.0</ele><time>2026-04-28T07:46:33.999Z</time></trkpt><trkpt lat="45.04118259792672" lon="5.662947536396803"><ele>331.0</ele><time>2026-04-28T07:46:35.999Z</time></trkpt><trkpt lat="45.041095540044786" lon="5.662860484935957"><ele>331.0</ele><time>2026-04-28T07:46:37.999Z</time></trkpt><trkpt lat="45.04100421157169" lon="5.66277076347224"><ele>331.0</ele><time>2026-04-28T07:46:39.999Z</time></trkpt><trkpt lat="45.04091798502198" lon="5.6626867335553275"><ele>331.0</ele><time>2026-04-28T07:46:41.999Z</time></trkpt><trkpt lat="45.040832110801965" lon="5.662590162422449"><ele>331.0</ele><time>2026-04-28T07:46:43.999Z</time></trkpt><trkpt lat="45.04073465617469" lon="5.662514508020834"><ele>331.0</ele><time>2026-04-28T07:46:45.999Z</time></trkpt><trkpt lat="45.0406500414933" lon="5.662424037950174"><ele>331.0</ele><time>2026-04-28T07:46:47.999Z</time></trkpt><trkpt lat="45.04058921106939" lon="5.662371011858389"><ele>331.0</ele><time>2026-04-28T07:46:49.999Z</time></trkpt><trkpt lat="45.04047954196316" lon="5.662281282865513"><ele>331.0</ele><time>2026-04-28T07:46:51.999Z</time></trkpt><trkpt lat="45.04038811915079" lon="5.662199586099232"><ele>331.0</ele><time>2026-04-28T07:46:53.999Z</time></trkpt><trkpt lat="45.04029765202486" lon="5.662105124220822"><ele>331.0</ele><time>2026-04-28T07:46:55.999Z</time></trkpt><trkpt lat="45.040200278136616" lon="5.662011488570645"><ele>331.0</ele><time>2026-04-28T07:46:57.999Z</time></trkpt><trkpt lat="45.04009907218299" lon="5.661918467315252"><ele>331.0</ele><time>2026-04-28T07:46:59.999Z</time></trkpt><trkpt lat="45.04000461938243" lon="5.661817266912664"><ele>331.0</ele><time>2026-04-28T07:47:01.999Z</time></trkpt><trkpt lat="45.03990740476926" lon="5.661711650631579"><ele>331.8</ele><time>2026-04-28T07:47:03.999Z</time></trkpt><trkpt lat="45.03980424154838" lon="5.661614910333278"><ele>332.6</ele><time>2026-04-28T07:47:05.999Z</time></trkpt><trkpt lat="45.03974829886551" lon="5.661568517990366"><ele>333.4</ele><time>2026-04-28T07:47:06.999Z</time></trkpt><trkpt lat="45.03964100780284" lon="5.6614909525741295"><ele>334.2</ele><time>2026-04-28T07:47:08.999Z</time></trkpt><trkpt lat="45.03953082865809" lon="5.661410298883511"><ele>335.0</ele><time>2026-04-28T07:47:10.999Z</time></trkpt><trkpt lat="45.03941994505957" lon="5.661334456063462"><ele>335.0</ele><time>2026-04-28T07:47:12.999Z</time></trkpt><trkpt lat="45.0393135006147" lon="5.6612435250157285"><ele>335.0</ele><time>2026-04-28T07:47:14.999Z</time></trkpt><trkpt lat="45.039205961068554" lon="5.661150493292944"><ele>335.0</ele><time>2026-04-28T07:47:16.999Z</time></trkpt><trkpt lat="45.03914882077114" lon="5.661103701494186"><ele>335.0</ele><time>2026-04-28T07:47:17.999Z</time></trkpt><trkpt lat="45.03909130531272" lon="5.661055532036862"><ele>335.0</ele><time>2026-04-28T07:47:18.999Z</time></trkpt><trkpt lat="45.0390318780339" lon="5.66100484541186"><ele>335.2857142857143</ele><time>2026-04-28T07:47:19.999Z</time></trkpt><trkpt lat="45.038974838850514" lon="5.660956133020359"><ele>335.57142857142856</ele><time>2026-04-28T07:47:20.999Z</time></trkpt><trkpt lat="45.038916033003694" lon="5.660908770130523"><ele>335.8571428571429</ele><time>2026-04-28T07:47:21.999Z</time></trkpt><trkpt lat="45.038859232828266" lon="5.660868539480567"><ele>336.1428571428571</ele><time>2026-04-28T07:47:22.999Z</time></trkpt><trkpt lat="45.038799409145476" lon="5.660824331040068"><ele>336.42857142857144</ele><time>2026-04-28T07:47:23.999Z</time></trkpt><trkpt lat="45.03874445695013" lon="5.660778860004827"><ele>336.7142857142857</ele><time>2026-04-28T07:47:24.999Z</time></trkpt><trkpt lat="45.03868848738356" lon="5.660733476657155"><ele>337.0</ele><time>2026-04-28T07:47:25.999Z</time></trkpt><trkpt lat="45.038581288712" lon="5.660646741817617"><ele>337.00000000000006</ele><time>2026-04-28T07:47:27.999Z</time></trkpt><trkpt lat="45.038527566883346" lon="5.660597069346922"><ele>337.0</ele><time>2026-04-28T07:47:28.999Z</time></trkpt><trkpt lat="45.03847178651031" lon="5.66054782958543"><ele>337.0</ele><time>2026-04-28T07:47:29.999Z</time></trkpt><trkpt lat="45.038414597014594" lon="5.6604991910765206"><ele>337.0</ele><time>2026-04-28T07:47:30.999Z</time></trkpt><trkpt lat="45.03835664963046" lon="5.660455511951776"><ele>337.0</ele><time>2026-04-28T07:47:31.999Z</time></trkpt><trkpt lat="45.03829619965242" lon="5.660414623433444"><ele>337.00000000000006</ele><time>2026-04-28T07:47:32.999Z</time></trkpt><trkpt lat="45.03823793321865" lon="5.660380800330301"><ele>337.0</ele><time>2026-04-28T07:47:33.999Z</time></trkpt><trkpt lat="45.03812790697561" lon="5.66029178484016"><ele>337.40000000000003</ele><time>2026-04-28T07:47:35.999Z</time></trkpt><trkpt lat="45.03807318482047" lon="5.660246748915907"><ele>337.8</ele><time>2026-04-28T07:47:36.999Z</time></trkpt><trkpt lat="45.037965846031405" lon="5.660160171693137"><ele>338.2</ele><time>2026-04-28T07:47:38.999Z</time></trkpt><trkpt lat="45.03785574767023" lon="5.660067900849348"><ele>338.6</ele><time>2026-04-28T07:47:40.999Z</time></trkpt><trkpt lat="45.03774695652463" lon="5.659979042891083"><ele>339.0</ele><time>2026-04-28T07:47:42.999Z</time></trkpt><trkpt lat="45.037691549515216" lon="5.659935659698537"><ele>339.0</ele><time>2026-04-28T07:47:43.999Z</time></trkpt><trkpt lat="45.037635854535765" lon="5.659891786004488"><ele>339.0</ele><time>2026-04-28T07:47:44.999Z</time></trkpt><trkpt lat="45.0375814039614" lon="5.659837547086781"><ele>339.0</ele><time>2026-04-28T07:47:45.999Z</time></trkpt><trkpt lat="45.03747285060253" lon="5.659750260920062"><ele>339.0</ele><time>2026-04-28T07:47:47.999Z</time></trkpt><trkpt lat="45.037417474961075" lon="5.659704468257568"><ele>339.0</ele><time>2026-04-28T07:47:48.999Z</time></trkpt><trkpt lat="45.037310263199124" lon="5.659619022065504"><ele>339.0</ele><time>2026-04-28T07:47:50.999Z</time></trkpt><trkpt lat="45.037254788764166" lon="5.659576274292334"><ele>339.0</ele><time>2026-04-28T07:47:51.999Z</time></trkpt><trkpt lat="45.037200705799734" lon="5.659530562385792"><ele>339.0</ele><time>2026-04-28T07:47:52.999Z</time></trkpt><trkpt lat="45.037095376686324" lon="5.6594409883337455"><ele>339.0</ele><time>2026-04-28T07:47:54.999Z</time></trkpt><trkpt lat="45.036988397010205" lon="5.659357127957737"><ele>339.0</ele><time>2026-04-28T07:47:56.999Z</time></trkpt><trkpt lat="45.0368819475254" lon="5.659266133232121"><ele>339.0</ele><time>2026-04-28T07:47:58.999Z</time></trkpt><trkpt lat="45.0367754894529" lon="5.659184766978656"><ele>339.0</ele><time>2026-04-28T07:48:00.999Z</time></trkpt><trkpt lat="45.03667279432189" lon="5.65909841317068"><ele>339.0</ele><time>2026-04-28T07:48:02.999Z</time></trkpt><trkpt lat="45.03656256244597" lon="5.659020847116617"><ele>339.0</ele><time>2026-04-28T07:48:04.999Z</time></trkpt><trkpt lat="45.03651228104919" lon="5.658965857757315"><ele>339.0</ele><time>2026-04-28T07:48:05.999Z</time></trkpt><trkpt lat="45.03645656327645" lon="5.6589204493783445"><ele>339.0</ele><time>2026-04-28T07:48:06.999Z</time></trkpt><trkpt lat="45.0364007814174" lon="5.658878806531991"><ele>339.0</ele><time>2026-04-28T07:48:07.999Z</time></trkpt><trkpt lat="45.03634534848576" lon="5.658832054261053"><ele>339.1666666666667</ele><time>2026-04-28T07:48:08.999Z</time></trkpt><trkpt lat="45.036286951714196" lon="5.658788806537467"><ele>339.3333333333333</ele><time>2026-04-28T07:48:09.999Z</time></trkpt><trkpt lat="45.03623133503175" lon="5.658742075888678"><ele>339.5</ele><time>2026-04-28T07:48:10.999Z</time></trkpt><trkpt lat="45.036124296227875" lon="5.658653617369204"><ele>339.66666666666663</ele><time>2026-04-28T07:48:12.999Z</time></trkpt><trkpt lat="45.03601485420727" lon="5.658564047604985"><ele>339.8333333333333</ele><time>2026-04-28T07:48:14.999Z</time></trkpt><trkpt lat="45.03595746614461" lon="5.65852136394848"><ele>340.0</ele><time>2026-04-28T07:48:15.999Z</time></trkpt><trkpt lat="45.03590252750315" lon="5.658476600599207"><ele>340.0</ele><time>2026-04-28T07:48:16.999Z</time></trkpt><trkpt lat="45.035847110204024" lon="5.658427491401178"><ele>340.0</ele><time>2026-04-28T07:48:17.999Z</time></trkpt><trkpt lat="45.03579086131564" lon="5.65838284289015"><ele>340.0</ele><time>2026-04-28T07:48:18.999Z</time></trkpt><trkpt lat="45.03573273917144" lon="5.6583366735389875"><ele>340.0</ele><time>2026-04-28T07:48:19.999Z</time></trkpt><trkpt lat="45.035677604229896" lon="5.658293061106346"><ele>340.0</ele><time>2026-04-28T07:48:20.999Z</time></trkpt><trkpt lat="45.035620184032844" lon="5.6582535158422385"><ele>340.0</ele><time>2026-04-28T07:48:21.999Z</time></trkpt><trkpt lat="45.03556567627214" lon="5.658206725060061"><ele>340.0</ele><time>2026-04-28T07:48:22.999Z</time></trkpt><trkpt lat="45.035455284644215" lon="5.65811821886054"><ele>340.0</ele><time>2026-04-28T07:48:24.999Z</time></trkpt><trkpt lat="45.035351461599255" lon="5.658031208563529"><ele>340.0</ele><time>2026-04-28T07:48:26.999Z</time></trkpt><trkpt lat="45.035245680329794" lon="5.657938560719818"><ele>340.0</ele><time>2026-04-28T07:48:28.999Z</time></trkpt><trkpt lat="45.035135115219326" lon="5.657854489670265"><ele>340.0</ele><time>2026-04-28T07:48:30.999Z</time></trkpt><trkpt lat="45.03502968660745" lon="5.657761633681992"><ele>340.0</ele><time>2026-04-28T07:48:32.999Z</time></trkpt><trkpt lat="45.034973738192626" lon="5.657712714791564"><ele>340.0</ele><time>2026-04-28T07:48:33.999Z</time></trkpt><trkpt lat="45.03486356343448" lon="5.657624907692319"><ele>340.0</ele><time>2026-04-28T07:48:35.999Z</time></trkpt><trkpt lat="45.034757599707184" lon="5.657538419681013"><ele>340.0</ele><time>2026-04-28T07:48:37.999Z</time></trkpt><trkpt lat="45.03465086268928" lon="5.6574554134640005"><ele>340.0</ele><time>2026-04-28T07:48:39.999Z</time></trkpt><trkpt lat="45.03454962861016" lon="5.657370949439095"><ele>341.25</ele><time>2026-04-28T07:48:41.999Z</time></trkpt><trkpt lat="45.034445181238006" lon="5.65728940311092"><ele>342.5</ele><time>2026-04-28T07:48:43.999Z</time></trkpt><trkpt lat="45.034344529612106" lon="5.657198331227891"><ele>343.75</ele><time>2026-04-28T07:48:45.999Z</time></trkpt><trkpt lat="45.034237325342474" lon="5.65712338822271"><ele>345.0</ele><time>2026-04-28T07:48:47.999Z</time></trkpt><trkpt lat="45.0341370193992" lon="5.657028642255368"><ele>345.25</ele><time>2026-04-28T07:48:49.999Z</time></trkpt><trkpt lat="45.03403142407369" lon="5.656942162936988"><ele>345.5</ele><time>2026-04-28T07:48:51.999Z</time></trkpt><trkpt lat="45.03392878341543" lon="5.656854552390357"><ele>345.75</ele><time>2026-04-28T07:48:53.999Z</time></trkpt><trkpt lat="45.0338216375871" lon="5.656771690938472"><ele>346.0</ele><time>2026-04-28T07:48:55.999Z</time></trkpt><trkpt lat="45.033717899481026" lon="5.656689963840416"><ele>346.0</ele><time>2026-04-28T07:48:57.999Z</time></trkpt><trkpt lat="45.03361159891065" lon="5.656602203574879"><ele>346.0</ele><time>2026-04-28T07:48:59.999Z</time></trkpt><trkpt lat="45.03350812089737" lon="5.65651666524153"><ele>346.0</ele><time>2026-04-28T07:49:01.999Z</time></trkpt><trkpt lat="45.03340286195818" lon="5.656432177805706"><ele>346.0</ele><time>2026-04-28T07:49:03.999Z</time></trkpt><trkpt lat="45.03330018674751" lon="5.656346499886223"><ele>347.25</ele><time>2026-04-28T07:49:05.999Z</time></trkpt><trkpt lat="45.03319957645027" lon="5.656270316418149"><ele>348.5</ele><time>2026-04-28T07:49:07.999Z</time></trkpt><trkpt lat="45.033100562263684" lon="5.656184790335343"><ele>349.75</ele><time>2026-04-28T07:49:09.999Z</time></trkpt><trkpt lat="45.033000496236305" lon="5.656106143006304"><ele>351.0</ele><time>2026-04-28T07:49:11.999Z</time></trkpt><trkpt lat="45.03290429178131" lon="5.656027794084679"><ele>351.0</ele><time>2026-04-28T07:49:13.999Z</time></trkpt><trkpt lat="45.03281293455181" lon="5.6559321763189425"><ele>351.0</ele><time>2026-04-28T07:49:15.999Z</time></trkpt><trkpt lat="45.032722524960505" lon="5.655837936030539"><ele>351.0</ele><time>2026-04-28T07:49:17.999Z</time></trkpt><trkpt lat="45.03262639714764" lon="5.655753475134043"><ele>351.0</ele><time>2026-04-28T07:49:19.999Z</time></trkpt><trkpt lat="45.03252717380769" lon="5.655663224070249"><ele>351.0</ele><time>2026-04-28T07:49:21.999Z</time></trkpt><trkpt lat="45.03243067895732" lon="5.655562024145361"><ele>351.0</ele><time>2026-04-28T07:49:23.999Z</time></trkpt><trkpt lat="45.0323489921166" lon="5.655438015358373"><ele>351.0</ele><time>2026-04-28T07:49:25.999Z</time></trkpt><trkpt lat="45.032252896384286" lon="5.6553358716992985"><ele>351.0</ele><time>2026-04-28T07:49:27.999Z</time></trkpt><trkpt lat="45.0322018745114" lon="5.655280350923821"><ele>351.0</ele><time>2026-04-28T07:49:28.999Z</time></trkpt><trkpt lat="45.032160287886576" lon="5.655212613426012"><ele>350.6666666666667</ele><time>2026-04-28T07:49:29.999Z</time></trkpt><trkpt lat="45.03207225953523" lon="5.655082690814151"><ele>350.3333333333333</ele><time>2026-04-28T07:49:31.999Z</time></trkpt><trkpt lat="45.03202494799355" lon="5.655018296382424"><ele>350.0</ele><time>2026-04-28T07:49:32.999Z</time></trkpt><trkpt lat="45.031975481187196" lon="5.654951717682777"><ele>349.66666666666663</ele><time>2026-04-28T07:49:33.999Z</time></trkpt><trkpt lat="45.03192287332344" lon="5.654884994867429"><ele>349.3333333333333</ele><time>2026-04-28T07:49:34.999Z</time></trkpt><trkpt lat="45.03187350117482" lon="5.654820422213964"><ele>349.0</ele><time>2026-04-28T07:49:35.999Z</time></trkpt><trkpt lat="45.031828084574514" lon="5.654752193338936"><ele>348.99999999999994</ele><time>2026-04-28T07:49:36.999Z</time></trkpt><trkpt lat="45.03177251651418" lon="5.654691497616637"><ele>349.0</ele><time>2026-04-28T07:49:37.999Z</time></trkpt><trkpt lat="45.03172003155298" lon="5.6546260559431945"><ele>349.0</ele><time>2026-04-28T07:49:38.999Z</time></trkpt><trkpt lat="45.03166677292318" lon="5.654561502281767"><ele>349.0</ele><time>2026-04-28T07:49:39.999Z</time></trkpt><trkpt lat="45.03161671904593" lon="5.654504775876053"><ele>349.0</ele><time>2026-04-28T07:49:40.999Z</time></trkpt><trkpt lat="45.03155984784116" lon="5.654454137413404"><ele>348.99999999999994</ele><time>2026-04-28T07:49:41.999Z</time></trkpt><trkpt lat="45.03150318925329" lon="5.654403320475876"><ele>349.0</ele><time>2026-04-28T07:49:42.999Z</time></trkpt><trkpt lat="45.03144860776522" lon="5.654341571472684"><ele>348.99999999999994</ele><time>2026-04-28T07:49:44Z</time></trkpt><trkpt lat="45.031399402373026" lon="5.6542767754921845"><ele>349.0</ele><time>2026-04-28T07:49:45Z</time></trkpt><trkpt lat="45.03134469285979" lon="5.654217761077242"><ele>349.0</ele><time>2026-04-28T07:49:46Z</time></trkpt><trkpt lat="45.03128947961247" lon="5.654160428256767"><ele>349.0</ele><time>2026-04-28T07:49:47Z</time></trkpt><trkpt lat="45.03123494397172" lon="5.6541058971256355"><ele>349.0</ele><time>2026-04-28T07:49:48Z</time></trkpt><trkpt lat="45.03118009305388" lon="5.654046495711523"><ele>348.99999999999994</ele><time>2026-04-28T07:49:49Z</time></trkpt><trkpt lat="45.03112457710092" lon="5.653988384652694"><ele>349.0</ele><time>2026-04-28T07:49:50Z</time></trkpt><trkpt lat="45.03106993629294" lon="5.653927889360299"><ele>348.99999999999994</ele><time>2026-04-28T07:49:51Z</time></trkpt><trkpt lat="45.03101624757561" lon="5.65386763513073"><ele>349.0</ele><time>2026-04-28T07:49:52Z</time></trkpt><trkpt lat="45.03095961158521" lon="5.653816634589279"><ele>349.0</ele><time>2026-04-28T07:49:53Z</time></trkpt><trkpt lat="45.03090481488393" lon="5.653752706529905"><ele>349.0</ele><time>2026-04-28T07:49:54Z</time></trkpt><trkpt lat="45.03085300604859" lon="5.653691091316534"><ele>349.0</ele><time>2026-04-28T07:49:55Z</time></trkpt><trkpt lat="45.03079735847254" lon="5.6536343670154"><ele>348.99999999999994</ele><time>2026-04-28T07:49:56Z</time></trkpt><trkpt lat="45.030740676478544" lon="5.653576211276753"><ele>349.0</ele><time>2026-04-28T07:49:57Z</time></trkpt><trkpt lat="45.0306873336309" lon="5.653515279622185"><ele>349.4285714285714</ele><time>2026-04-28T07:49:58Z</time></trkpt><trkpt lat="45.03063298277589" lon="5.653453108585228"><ele>349.85714285714283</ele><time>2026-04-28T07:49:59Z</time></trkpt><trkpt lat="45.03057361763714" lon="5.653398461193822"><ele>350.2857142857143</ele><time>2026-04-28T07:50:00Z</time></trkpt><trkpt lat="45.0305215125546" lon="5.653339123637976"><ele>350.71428571428567</ele><time>2026-04-28T07:50:01Z</time></trkpt><trkpt lat="45.03046920533329" lon="5.653283355376599"><ele>351.1428571428571</ele><time>2026-04-28T07:50:02Z</time></trkpt><trkpt lat="45.03041750729734" lon="5.653227206492353"><ele>351.57142857142856</ele><time>2026-04-28T07:50:03Z</time></trkpt><trkpt lat="45.03036714293227" lon="5.653168124402096"><ele>352.0</ele><time>2026-04-28T07:50:04Z</time></trkpt><trkpt lat="45.03031628513327" lon="5.653113147702819"><ele>352.0</ele><time>2026-04-28T07:50:05Z</time></trkpt><trkpt lat="45.03026536092774" lon="5.653058228588558"><ele>352.0</ele><time>2026-04-28T07:50:06Z</time></trkpt><trkpt lat="45.03021343865031" lon="5.653007550198489"><ele>352.0</ele><time>2026-04-28T07:50:07Z</time></trkpt><trkpt lat="45.03016425369795" lon="5.652950853220336"><ele>352.0</ele><time>2026-04-28T07:50:08Z</time></trkpt><trkpt lat="45.03011340281839" lon="5.6528983196020395"><ele>352.0</ele><time>2026-04-28T07:50:09Z</time></trkpt><trkpt lat="45.0300082695961" lon="5.652806290955295"><ele>352.0</ele><time>2026-04-28T07:50:11Z</time></trkpt><trkpt lat="45.029951839812284" lon="5.652759927000155"><ele>352.0</ele><time>2026-04-28T07:50:12Z</time></trkpt><trkpt lat="45.02989555956941" lon="5.652716892076987"><ele>352.42857142857144</ele><time>2026-04-28T07:50:13Z</time></trkpt><trkpt lat="45.02983613670894" lon="5.652668377440288"><ele>352.85714285714283</ele><time>2026-04-28T07:50:14Z</time></trkpt><trkpt lat="45.02977808262474" lon="5.652623728785987"><ele>353.2857142857143</ele><time>2026-04-28T07:50:15Z</time></trkpt><trkpt lat="45.029718834496876" lon="5.652579350124973"><ele>353.7142857142857</ele><time>2026-04-28T07:50:16Z</time></trkpt><trkpt lat="45.02965968344175" lon="5.652532541568145"><ele>354.14285714285717</ele><time>2026-04-28T07:50:17Z</time></trkpt><trkpt lat="45.029600820749245" lon="5.652489004746005"><ele>354.57142857142856</ele><time>2026-04-28T07:50:18Z</time></trkpt><trkpt lat="45.029537418051454" lon="5.6524512602393875"><ele>355.0</ele><time>2026-04-28T07:50:19Z</time></trkpt><trkpt lat="45.029477472614424" lon="5.652405459116426"><ele>355.0</ele><time>2026-04-28T07:50:20Z</time></trkpt><trkpt lat="45.02941757942343" lon="5.652358367885312"><ele>355.0</ele><time>2026-04-28T07:50:21Z</time></trkpt><trkpt lat="45.02935678840919" lon="5.652316572584002"><ele>355.0</ele><time>2026-04-28T07:50:22Z</time></trkpt><trkpt lat="45.029296787811255" lon="5.652271538707171"><ele>355.0</ele><time>2026-04-28T07:50:23Z</time></trkpt><trkpt lat="45.02923766175993" lon="5.65222356533443"><ele>355.0</ele><time>2026-04-28T07:50:24Z</time></trkpt><trkpt lat="45.029121303919574" lon="5.65212949815152"><ele>355.0</ele><time>2026-04-28T07:50:26Z</time></trkpt><trkpt lat="45.02906524553201" lon="5.6520884626578916"><ele>355.0</ele><time>2026-04-28T07:50:27Z</time></trkpt><trkpt lat="45.029007261476224" lon="5.65204627945884"><ele>355.0</ele><time>2026-04-28T07:50:28Z</time></trkpt><trkpt lat="45.028946721812744" lon="5.652010902505635"><ele>355.0</ele><time>2026-04-28T07:50:29Z</time></trkpt><trkpt lat="45.028888375530734" lon="5.651968117318631"><ele>355.0</ele><time>2026-04-28T07:50:30Z</time></trkpt><trkpt lat="45.028831977494875" lon="5.6519201497224385"><ele>355.0</ele><time>2026-04-28T07:50:31Z</time></trkpt><trkpt lat="45.0287743533513" lon="5.651878023860066"><ele>355.0</ele><time>2026-04-28T07:50:32Z</time></trkpt><trkpt lat="45.028713449606734" lon="5.651835570986577"><ele>355.0</ele><time>2026-04-28T07:50:33Z</time></trkpt><trkpt lat="45.0286542655172" lon="5.6517938315502185"><ele>354.8</ele><time>2026-04-28T07:50:34Z</time></trkpt><trkpt lat="45.02859727687392" lon="5.651753570025669"><ele>354.6</ele><time>2026-04-28T07:50:35Z</time></trkpt><trkpt lat="45.028540919840445" lon="5.6517077603892485"><ele>354.4</ele><time>2026-04-28T07:50:36Z</time></trkpt><trkpt lat="45.02843058540085" lon="5.651619099484209"><ele>354.2</ele><time>2026-04-28T07:50:38Z</time></trkpt><trkpt lat="45.028333709002034" lon="5.651541795474637"><ele>354.0</ele><time>2026-04-28T07:50:40Z</time></trkpt><trkpt lat="45.028263714439284" lon="5.651442645252385"><ele>354.2</ele><time>2026-04-28T07:50:42Z</time></trkpt><trkpt lat="45.02821843744785" lon="5.651324252295765"><ele>354.4</ele><time>2026-04-28T07:50:44Z</time></trkpt><trkpt lat="45.02817955682283" lon="5.65120156562132"><ele>354.6</ele><time>2026-04-28T07:50:46Z</time></trkpt><trkpt lat="45.02818417309916" lon="5.651053212010801"><ele>354.8</ele><time>2026-04-28T07:50:48Z</time></trkpt><trkpt lat="45.028182100442116" lon="5.650919403438748"><ele>355.0</ele><time>2026-04-28T07:50:50Z</time></trkpt><trkpt lat="45.02818621848629" lon="5.650787108285533"><ele>355.0</ele><time>2026-04-28T07:50:52Z</time></trkpt><trkpt lat="45.02819780109991" lon="5.650650005541066"><ele>355.0</ele><time>2026-04-28T07:50:54Z</time></trkpt><trkpt lat="45.028199068285616" lon="5.650528022875109"><ele>355.0</ele><time>2026-04-28T07:50:56Z</time></trkpt><trkpt lat="45.028207361142066" lon="5.650407600169777"><ele>355.0</ele><time>2026-04-28T07:50:58Z</time></trkpt><trkpt lat="45.028221766068164" lon="5.65028515968815"><ele>355.0</ele><time>2026-04-28T07:51:00Z</time></trkpt><trkpt lat="45.02821130553774" lon="5.650159853432677"><ele>355.0</ele><time>2026-04-28T07:51:03Z</time></trkpt><trkpt lat="45.028200698739916" lon="5.650268119071589"><ele>355.0</ele><time>2026-04-28T07:51:07Z</time></trkpt><trkpt lat="45.02834657443018" lon="5.650100006968609"><ele>355.0</ele><time>2026-04-28T07:51:08Z</time></trkpt><trkpt lat="45.02821540366101" lon="5.6503237510919755"><ele>355.0</ele><time>2026-04-28T07:52:32Z</time></trkpt><trkpt lat="45.028221799069435" lon="5.6502077431111815"><ele>355.2</ele><time>2026-04-28T07:52:35Z</time></trkpt><trkpt lat="45.028188276507784" lon="5.650078361875191"><ele>355.4</ele><time>2026-04-28T07:52:38Z</time></trkpt><trkpt lat="45.02817288298471" lon="5.649969114025905"><ele>355.6</ele><time>2026-04-28T07:52:40Z</time></trkpt><trkpt lat="45.028133334938445" lon="5.649861058672795"><ele>355.8</ele><time>2026-04-28T07:52:42Z</time></trkpt><trkpt lat="45.02806585954637" lon="5.649756018295634"><ele>356.0</ele><time>2026-04-28T07:52:44Z</time></trkpt><trkpt lat="45.02799405274527" lon="5.649638814934039"><ele>356.0</ele><time>2026-04-28T07:52:46Z</time></trkpt><trkpt lat="45.027938025584476" lon="5.649500065168684"><ele>356.0</ele><time>2026-04-28T07:52:48Z</time></trkpt><trkpt lat="45.02786389669015" lon="5.649387841544899"><ele>356.0</ele><time>2026-04-28T07:52:50Z</time></trkpt><trkpt lat="45.02778301477379" lon="5.649275386549748"><ele>356.0</ele><time>2026-04-28T07:52:52Z</time></trkpt><trkpt lat="45.02769530911486" lon="5.649173964679663"><ele>356.0</ele><time>2026-04-28T07:52:54Z</time></trkpt><trkpt lat="45.027598685610734" lon="5.649077282154685"><ele>356.5</ele><time>2026-04-28T07:52:56Z</time></trkpt><trkpt lat="45.02749727115139" lon="5.648983007002752"><ele>357.0</ele><time>2026-04-28T07:52:58Z</time></trkpt><trkpt lat="45.02739993009743" lon="5.648885721997708"><ele>357.5</ele><time>2026-04-28T07:53:00Z</time></trkpt><trkpt lat="45.02730075202017" lon="5.648802230353736"><ele>358.0</ele><time>2026-04-28T07:53:02Z</time></trkpt><trkpt lat="45.02720436383866" lon="5.648721950512105"><ele>358.0</ele><time>2026-04-28T07:53:04Z</time></trkpt><trkpt lat="45.02711322031261" lon="5.648637824888438"><ele>358.0</ele><time>2026-04-28T07:53:06Z</time></trkpt><trkpt lat="45.027024647710405" lon="5.648556433244228"><ele>358.0</ele><time>2026-04-28T07:53:08Z</time></trkpt><trkpt lat="45.02693495664571" lon="5.6484806023532315"><ele>358.0</ele><time>2026-04-28T07:53:10Z</time></trkpt><trkpt lat="45.026849989224054" lon="5.64841630856501"><ele>358.0</ele><time>2026-04-28T07:53:12Z</time></trkpt><trkpt lat="45.02677875817926" lon="5.648336606867168"><ele>359.16666666666663</ele><time>2026-04-28T07:53:14Z</time></trkpt><trkpt lat="45.026702616906555" lon="5.648269458613088"><ele>360.3333333333333</ele><time>2026-04-28T07:53:16Z</time></trkpt><trkpt lat="45.02662931562328" lon="5.648199277844003"><ele>361.5</ele><time>2026-04-28T07:53:18Z</time></trkpt><trkpt lat="45.026551849861214" lon="5.648143624392488"><ele>362.6666666666667</ele><time>2026-04-28T07:53:20Z</time></trkpt><trkpt lat="45.02648348475541" lon="5.648069934856364"><ele>363.83333333333337</ele><time>2026-04-28T07:53:22Z</time></trkpt><trkpt lat="45.02641083170141" lon="5.648017248672346"><ele>365.0</ele><time>2026-04-28T07:53:24Z</time></trkpt><trkpt lat="45.02634406165995" lon="5.647952148896282"><ele>365.0</ele><time>2026-04-28T07:53:26Z</time></trkpt><trkpt lat="45.02626748133608" lon="5.647886632946298"><ele>365.0</ele><time>2026-04-28T07:53:28Z</time></trkpt><trkpt lat="45.02620365651346" lon="5.647820990067599"><ele>365.0</ele><time>2026-04-28T07:53:30Z</time></trkpt><trkpt lat="45.0261380870181" lon="5.647767032327502"><ele>365.0</ele><time>2026-04-28T07:53:32Z</time></trkpt><trkpt lat="45.026077279540466" lon="5.647708519929326"><ele>365.0</ele><time>2026-04-28T07:53:34Z</time></trkpt><trkpt lat="45.02601658924336" lon="5.647652282806707"><ele>365.0</ele><time>2026-04-28T07:53:35.999Z</time></trkpt><trkpt lat="45.02596069703561" lon="5.647603459236107"><ele>365.33333333333337</ele><time>2026-04-28T07:53:37.999Z</time></trkpt><trkpt lat="45.02590043980395" lon="5.647530948438312"><ele>365.6666666666667</ele><time>2026-04-28T07:53:39.999Z</time></trkpt><trkpt lat="45.02583642080708" lon="5.647467220706855"><ele>366.0</ele><time>2026-04-28T07:53:41.999Z</time></trkpt><trkpt lat="45.02578350927308" lon="5.647386394998924"><ele>366.3333333333333</ele><time>2026-04-28T07:53:43.999Z</time></trkpt><trkpt lat="45.02573520680551" lon="5.647304165741976"><ele>366.66666666666663</ele><time>2026-04-28T07:53:45.999Z</time></trkpt><trkpt lat="45.02568882577331" lon="5.647199017395248"><ele>367.0</ele><time>2026-04-28T07:53:47.999Z</time></trkpt><trkpt lat="45.025632786099706" lon="5.647113933562219"><ele>367.0</ele><time>2026-04-28T07:53:49.999Z</time></trkpt><trkpt lat="45.02559093364976" lon="5.646993388093286"><ele>367.0</ele><time>2026-04-28T07:53:51.999Z</time></trkpt><trkpt lat="45.02553301190234" lon="5.646898906477475"><ele>367.0</ele><time>2026-04-28T07:53:53.999Z</time></trkpt><trkpt lat="45.02547985899005" lon="5.646793843352432"><ele>367.0</ele><time>2026-04-28T07:53:56.001Z</time></trkpt><trkpt lat="45.025436746878874" lon="5.646701823620396"><ele>367.0</ele><time>2026-04-28T07:53:58.001Z</time></trkpt><trkpt lat="45.025400341950345" lon="5.646621710388638"><ele>367.0</ele><time>2026-04-28T07:54:00.001Z</time></trkpt><trkpt lat="45.02536651774636" lon="5.646540098648829"><ele>367.5</ele><time>2026-04-28T07:54:02.001Z</time></trkpt><trkpt lat="45.025311000179734" lon="5.646440878801494"><ele>368.0</ele><time>2026-04-28T07:54:05Z</time></trkpt><trkpt lat="45.02526664468086" lon="5.64632869706447"><ele>368.5</ele><time>2026-04-28T07:54:08Z</time></trkpt><trkpt lat="45.02522269519864" lon="5.646260115500788"><ele>369.0</ele><time>2026-04-28T07:54:10Z</time></trkpt><trkpt lat="45.02517876257759" lon="5.646191267106417"><ele>369.5</ele><time>2026-04-28T07:54:12Z</time></trkpt><trkpt lat="45.02511680556973" lon="5.646096173421507"><ele>370.0</ele><time>2026-04-28T07:54:15Z</time></trkpt><trkpt lat="45.0250570680952" lon="5.6459949372442555"><ele>370.8333333333333</ele><time>2026-04-28T07:54:18Z</time></trkpt><trkpt lat="45.024989041363476" lon="5.645907997094198"><ele>371.66666666666663</ele><time>2026-04-28T07:54:21Z</time></trkpt><trkpt lat="45.02491430138613" lon="5.645841139993796"><ele>372.5</ele><time>2026-04-28T07:54:24Z</time></trkpt><trkpt lat="45.02485647861439" lon="5.645804371897178"><ele>373.3333333333333</ele><time>2026-04-28T07:54:26Z</time></trkpt><trkpt lat="45.024788476338244" lon="5.645776063038377"><ele>374.1666666666667</ele><time>2026-04-28T07:54:28Z</time></trkpt><trkpt lat="45.02471146383586" lon="5.645755779944589"><ele>375.0</ele><time>2026-04-28T07:54:30Z</time></trkpt><trkpt lat="45.02462691138748" lon="5.645733232728062"><ele>375.0</ele><time>2026-04-28T07:54:32Z</time></trkpt><trkpt lat="45.024545895849926" lon="5.645700370988203"><ele>375.0</ele><time>2026-04-28T07:54:34Z</time></trkpt><trkpt lat="45.024456541089286" lon="5.645694035627779"><ele>375.0</ele><time>2026-04-28T07:54:36Z</time></trkpt><trkpt lat="45.024369040789715" lon="5.64567761125738"><ele>375.0</ele><time>2026-04-28T07:54:38Z</time></trkpt><trkpt lat="45.02428202335324" lon="5.645664858647977"><ele>375.0</ele><time>2026-04-28T07:54:40Z</time></trkpt><trkpt lat="45.02420292464438" lon="5.645638445265634"><ele>375.0</ele><time>2026-04-28T07:54:42Z</time></trkpt><trkpt lat="45.0241269104693" lon="5.645625606196064"><ele>374.8333333333333</ele><time>2026-04-28T07:54:44Z</time></trkpt><trkpt lat="45.024042404595114" lon="5.6455927439416405"><ele>374.6666666666667</ele><time>2026-04-28T07:54:46Z</time></trkpt><trkpt lat="45.02396649355929" lon="5.645576782902917"><ele>374.5</ele><time>2026-04-28T07:54:48Z</time></trkpt><trkpt lat="45.023890526051055" lon="5.645556474858532"><ele>374.33333333333337</ele><time>2026-04-28T07:54:50Z</time></trkpt><trkpt lat="45.02381713974043" lon="5.645528014067201"><ele>374.1666666666667</ele><time>2026-04-28T07:54:52Z</time></trkpt><trkpt lat="45.023748416261334" lon="5.6454979879668254"><ele>374.0</ele><time>2026-04-28T07:54:54Z</time></trkpt><trkpt lat="45.02367992057038" lon="5.645459188190561"><ele>374.0</ele><time>2026-04-28T07:54:56Z</time></trkpt><trkpt lat="45.023599873159476" lon="5.645444445824591"><ele>374.0</ele><time>2026-04-28T07:54:58Z</time></trkpt><trkpt lat="45.0235318872007" lon="5.645422892349067"><ele>374.0</ele><time>2026-04-28T07:55:00Z</time></trkpt><trkpt lat="45.02345530205717" lon="5.645409491159379"><ele>374.0</ele><time>2026-04-28T07:55:02Z</time></trkpt><trkpt lat="45.02338141151748" lon="5.645378171598798"><ele>374.0</ele><time>2026-04-28T07:55:04Z</time></trkpt><trkpt lat="45.02331158585712" lon="5.645348260083567"><ele>374.0</ele><time>2026-04-28T07:55:06Z</time></trkpt><trkpt lat="45.02324626050386" lon="5.645321104551796"><ele>374.0</ele><time>2026-04-28T07:55:08Z</time></trkpt><trkpt lat="45.02317365865611" lon="5.645262812698471"><ele>375.83333333333337</ele><time>2026-04-28T07:55:11Z</time></trkpt><trkpt lat="45.02311659520128" lon="5.6452231679308715"><ele>377.6666666666667</ele><time>2026-04-28T07:55:13Z</time></trkpt><trkpt lat="45.02303679452882" lon="5.645165615774652"><ele>379.5</ele><time>2026-04-28T07:55:16Z</time></trkpt><trkpt lat="45.0229641441568" lon="5.645106876241836"><ele>381.33333333333337</ele><time>2026-04-28T07:55:19Z</time></trkpt><trkpt lat="45.02289978179078" lon="5.645059343525572"><ele>383.1666666666667</ele><time>2026-04-28T07:55:22Z</time></trkpt><trkpt lat="45.02282991551118" lon="5.645006259854456"><ele>385.0</ele><time>2026-04-28T07:55:24.999Z</time></trkpt><trkpt lat="45.02276240832496" lon="5.644956197927755"><ele>385.00000000000006</ele><time>2026-04-28T07:55:27.999Z</time></trkpt><trkpt lat="45.022691180937194" lon="5.64490125697485"><ele>385.0</ele><time>2026-04-28T07:55:30.999Z</time></trkpt><trkpt lat="45.02262019485816" lon="5.644852726471043"><ele>385.0</ele><time>2026-04-28T07:55:33.999Z</time></trkpt><trkpt lat="45.02254966976873" lon="5.644800981568596"><ele>385.0</ele><time>2026-04-28T07:55:36.999Z</time></trkpt><trkpt lat="45.022481216444056" lon="5.644754108718432"><ele>385.00000000000006</ele><time>2026-04-28T07:55:39.999Z</time></trkpt><trkpt lat="45.02240687654486" lon="5.644697708775131"><ele>385.0</ele><time>2026-04-28T07:55:42.999Z</time></trkpt><trkpt lat="45.0223346081453" lon="5.644643618359738"><ele>385.33333333333337</ele><time>2026-04-28T07:55:45.999Z</time></trkpt><trkpt lat="45.02225685967812" lon="5.644584449428916"><ele>385.6666666666667</ele><time>2026-04-28T07:55:48.999Z</time></trkpt><trkpt lat="45.022175175843536" lon="5.644526273659736"><ele>386.0</ele><time>2026-04-28T07:55:51.999Z</time></trkpt><trkpt lat="45.02211612870909" lon="5.644493320182721"><ele>386.33333333333337</ele><time>2026-04-28T07:55:53.999Z</time></trkpt><trkpt lat="45.022036871198246" lon="5.644435788746385"><ele>386.6666666666667</ele><time>2026-04-28T07:55:56.999Z</time></trkpt><trkpt lat="45.02196381525334" lon="5.6443755800471695"><ele>387.0</ele><time>2026-04-28T07:55:59.999Z</time></trkpt><trkpt lat="45.02189565727997" lon="5.644303782729325"><ele>388.1666666666667</ele><time>2026-04-28T07:56:03Z</time></trkpt><trkpt lat="45.02182338248195" lon="5.644258394678858"><ele>389.33333333333337</ele><time>2026-04-28T07:56:06Z</time></trkpt><trkpt lat="45.021754419863" lon="5.644193721047217"><ele>390.5</ele><time>2026-04-28T07:56:09Z</time></trkpt><trkpt lat="45.02168180190945" lon="5.64414275006438"><ele>391.6666666666667</ele><time>2026-04-28T07:56:12Z</time></trkpt><trkpt lat="45.0216081884095" lon="5.644082782067675"><ele>392.83333333333337</ele><time>2026-04-28T07:56:15Z</time></trkpt><trkpt lat="45.02153645422463" lon="5.64402762702152"><ele>394.0</ele><time>2026-04-28T07:56:18Z</time></trkpt><trkpt lat="45.02145576366135" lon="5.643973503870357"><ele>394.1666666666667</ele><time>2026-04-28T07:56:21Z</time></trkpt><trkpt lat="45.02138177584939" lon="5.643914092945968"><ele>394.33333333333337</ele><time>2026-04-28T07:56:24Z</time></trkpt><trkpt lat="45.02130249975051" lon="5.643855782056822"><ele>394.5</ele><time>2026-04-28T07:56:27Z</time></trkpt><trkpt lat="45.0212226947926" lon="5.643795722989559"><ele>394.66666666666663</ele><time>2026-04-28T07:56:30Z</time></trkpt><trkpt lat="45.021147454943524" lon="5.6437323935430666"><ele>394.8333333333333</ele><time>2026-04-28T07:56:33Z</time></trkpt><trkpt lat="45.02106892638261" lon="5.643671961304805"><ele>395.0</ele><time>2026-04-28T07:56:36Z</time></trkpt><trkpt lat="45.02099484945129" lon="5.643607454979942"><ele>396.16666666666663</ele><time>2026-04-28T07:56:39Z</time></trkpt><trkpt lat="45.0209177595624" lon="5.643543680442249"><ele>397.3333333333333</ele><time>2026-04-28T07:56:42Z</time></trkpt><trkpt lat="45.02083517789365" lon="5.643480433289104"><ele>398.5</ele><time>2026-04-28T07:56:45Z</time></trkpt><trkpt lat="45.020777410308504" lon="5.643443943319271"><ele>399.66666666666663</ele><time>2026-04-28T07:56:47Z</time></trkpt><trkpt lat="45.02069554909439" lon="5.643385690677645"><ele>400.8333333333333</ele><time>2026-04-28T07:56:50Z</time></trkpt><trkpt lat="45.02062211676399" lon="5.643320093158846"><ele>402.0</ele><time>2026-04-28T07:56:53Z</time></trkpt><trkpt lat="45.02054444132524" lon="5.643258536820876"><ele>402.20000000000005</ele><time>2026-04-28T07:56:56Z</time></trkpt><trkpt lat="45.02047019900216" lon="5.643182576682386"><ele>402.4</ele><time>2026-04-28T07:56:59Z</time></trkpt><trkpt lat="45.02039354355023" lon="5.6431223627405425"><ele>402.6</ele><time>2026-04-28T07:57:02Z</time></trkpt><trkpt lat="45.02032560974439" lon="5.643042625247348"><ele>402.79999999999995</ele><time>2026-04-28T07:57:05Z</time></trkpt><trkpt lat="45.020252188327994" lon="5.642970410475846"><ele>403.0</ele><time>2026-04-28T07:57:08Z</time></trkpt><trkpt lat="45.02017917222403" lon="5.642887726836281"><ele>403.00000000000006</ele><time>2026-04-28T07:57:11Z</time></trkpt><trkpt lat="45.0201252191726" lon="5.642838599518936"><ele>403.0</ele><time>2026-04-28T07:57:13Z</time></trkpt><trkpt lat="45.0200642868407" lon="5.642793011005525"><ele>403.0</ele><time>2026-04-28T07:57:15Z</time></trkpt><trkpt lat="45.01999606968953" lon="5.642754172944147"><ele>403.0</ele><time>2026-04-28T07:57:17Z</time></trkpt><trkpt lat="45.01992217296709" lon="5.642709489439722"><ele>403.00000000000006</ele><time>2026-04-28T07:57:19Z</time></trkpt><trkpt lat="45.01984675253562" lon="5.642662160313714"><ele>403.0</ele><time>2026-04-28T07:57:20.999Z</time></trkpt><trkpt lat="45.019773036336595" lon="5.642616949421187"><ele>403.83333333333337</ele><time>2026-04-28T07:57:22.999Z</time></trkpt><trkpt lat="45.019699127899365" lon="5.642571646544824"><ele>404.6666666666667</ele><time>2026-04-28T07:57:24.999Z</time></trkpt><trkpt lat="45.019644798019954" lon="5.642522260384196"><ele>405.5</ele><time>2026-04-28T07:57:26.999Z</time></trkpt><trkpt lat="45.01956520441505" lon="5.642517660149599"><ele>406.33333333333337</ele><time>2026-04-28T07:59:16.999Z</time></trkpt><trkpt lat="45.019480590871034" lon="5.6424936226734"><ele>407.1666666666667</ele><time>2026-04-28T07:59:19.999Z</time></trkpt><trkpt lat="45.01938124327793" lon="5.6424412165778675"><ele>408.0</ele><time>2026-04-28T07:59:22.999Z</time></trkpt><trkpt lat="45.019299302088505" lon="5.642384038690709"><ele>408.0</ele><time>2026-04-28T07:59:24.999Z</time></trkpt><trkpt lat="45.01922294674767" lon="5.642337875843168"><ele>408.0</ele><time>2026-04-28T07:59:26.999Z</time></trkpt><trkpt lat="45.01914439767227" lon="5.642274704944356"><ele>408.0</ele><time>2026-04-28T07:59:28.999Z</time></trkpt><trkpt lat="45.019059671967746" lon="5.6422450563024205"><ele>408.0</ele><time>2026-04-28T07:59:30.999Z</time></trkpt><trkpt lat="45.01897907872426" lon="5.642195670431039"><ele>408.0</ele><time>2026-04-28T07:59:32.999Z</time></trkpt><trkpt lat="45.01890329190602" lon="5.642137302029908"><ele>408.0</ele><time>2026-04-28T07:59:34.999Z</time></trkpt><trkpt lat="45.0188194381838" lon="5.6421031822937415"><ele>408.1666666666667</ele><time>2026-04-28T07:59:36.999Z</time></trkpt><trkpt lat="45.01874431513745" lon="5.64206145368095"><ele>408.33333333333337</ele><time>2026-04-28T07:59:38.999Z</time></trkpt><trkpt lat="45.01866194278426" lon="5.642018819413996"><ele>408.5</ele><time>2026-04-28T07:59:40.999Z</time></trkpt><trkpt lat="45.01857489539961" lon="5.641982963360655"><ele>408.6666666666667</ele><time>2026-04-28T07:59:42.999Z</time></trkpt><trkpt lat="45.01849670927892" lon="5.641927386043315"><ele>408.83333333333337</ele><time>2026-04-28T07:59:44.999Z</time></trkpt><trkpt lat="45.01840662870074" lon="5.641883103956728"><ele>409.0</ele><time>2026-04-28T07:59:46.999Z</time></trkpt><trkpt lat="45.01831274138232" lon="5.641831396372216"><ele>410.1666666666667</ele><time>2026-04-28T07:59:48.999Z</time></trkpt><trkpt lat="45.01822486054599" lon="5.6417807194049345"><ele>411.33333333333337</ele><time>2026-04-28T07:59:50.999Z</time></trkpt><trkpt lat="45.01813918339561" lon="5.641729384464513"><ele>412.5</ele><time>2026-04-28T07:59:52.999Z</time></trkpt><trkpt lat="45.018061023444474" lon="5.641681689802791"><ele>413.66666666666663</ele><time>2026-04-28T07:59:54.999Z</time></trkpt><trkpt lat="45.01798565595483" lon="5.641632626030452"><ele>414.8333333333333</ele><time>2026-04-28T07:59:56.999Z</time></trkpt><trkpt lat="45.01790519977327" lon="5.6415911444861"><ele>416.0</ele><time>2026-04-28T07:59:58.999Z</time></trkpt><trkpt lat="45.01783046699714" lon="5.641536182437342"><ele>415.99999999999994</ele><time>2026-04-28T08:00:00.999Z</time></trkpt><trkpt lat="45.017757782032355" lon="5.6414812000126755"><ele>416.0</ele><time>2026-04-28T08:00:02.999Z</time></trkpt><trkpt lat="45.01768128824492" lon="5.641424913938293"><ele>416.0</ele><time>2026-04-28T08:00:04.999Z</time></trkpt><trkpt lat="45.01761461623146" lon="5.641355389180247"><ele>416.0</ele><time>2026-04-28T08:00:06.999Z</time></trkpt><trkpt lat="45.01755071136191" lon="5.641292101236859"><ele>415.99999999999994</ele><time>2026-04-28T08:00:08.999Z</time></trkpt><trkpt lat="45.01747905585649" lon="5.641221795924791"><ele>416.0</ele><time>2026-04-28T08:00:10.999Z</time></trkpt><trkpt lat="45.0174108421066" lon="5.641139160364423"><ele>417.66666666666663</ele><time>2026-04-28T08:00:12.999Z</time></trkpt><trkpt lat="45.01733700320778" lon="5.641069428403685"><ele>419.3333333333333</ele><time>2026-04-28T08:00:15Z</time></trkpt><trkpt lat="45.01725816675431" lon="5.641002567626837"><ele>421.0</ele><time>2026-04-28T08:00:17Z</time></trkpt><trkpt lat="45.01717945885399" lon="5.640944373044991"><ele>422.66666666666663</ele><time>2026-04-28T08:00:19Z</time></trkpt><trkpt lat="45.01709649093518" lon="5.640897944737583"><ele>424.3333333333333</ele><time>2026-04-28T08:00:21Z</time></trkpt><trkpt lat="45.017011057124996" lon="5.640871801755282"><ele>426.0</ele><time>2026-04-28T08:00:23Z</time></trkpt><trkpt lat="45.01692722247326" lon="5.640851924261285"><ele>426.0</ele><time>2026-04-28T08:00:25Z</time></trkpt><trkpt lat="45.016839653143684" lon="5.640823553819178"><ele>426.0</ele><time>2026-04-28T08:00:27Z</time></trkpt><trkpt lat="45.0167570760677" lon="5.640805788309158"><ele>426.0</ele><time>2026-04-28T08:00:29Z</time></trkpt><trkpt lat="45.016682112142135" lon="5.640782741824361"><ele>426.0</ele><time>2026-04-28T08:00:31Z</time></trkpt><trkpt lat="45.01660589859668" lon="5.640753700185897"><ele>426.0</ele><time>2026-04-28T08:00:33Z</time></trkpt><trkpt lat="45.016527186661484" lon="5.640721197862697"><ele>426.0</ele><time>2026-04-28T08:00:35Z</time></trkpt><trkpt lat="45.01645907325098" lon="5.640682145998032"><ele>425.71428571428567</ele><time>2026-04-28T08:00:37Z</time></trkpt><trkpt lat="45.01638932218873" lon="5.640651765173353"><ele>425.42857142857144</ele><time>2026-04-28T08:00:39Z</time></trkpt><trkpt lat="45.016321231118816" lon="5.640612496635418"><ele>425.1428571428571</ele><time>2026-04-28T08:00:41Z</time></trkpt><trkpt lat="45.016257988140254" lon="5.640573901033208"><ele>424.85714285714283</ele><time>2026-04-28T08:00:43Z</time></trkpt><trkpt lat="45.0162011920737" lon="5.640517946124162"><ele>424.57142857142856</ele><time>2026-04-28T08:00:45Z</time></trkpt><trkpt lat="45.016151844411176" lon="5.640461891233788"><ele>424.2857142857143</ele><time>2026-04-28T08:00:47Z</time></trkpt><trkpt lat="45.01609405733459" lon="5.640407540145065"><ele>424.0</ele><time>2026-04-28T08:00:49Z</time></trkpt><trkpt lat="45.01604697002993" lon="5.640346048670769"><ele>425.83333333333337</ele><time>2026-04-28T08:00:51Z</time></trkpt><trkpt lat="45.01599640879708" lon="5.640290133948408"><ele>427.6666666666667</ele><time>2026-04-28T08:00:53Z</time></trkpt><trkpt lat="45.01592553269363" lon="5.6402111232663845"><ele>429.5</ele><time>2026-04-28T08:00:56Z</time></trkpt><trkpt lat="45.01584794297183" lon="5.640141708569279"><ele>431.33333333333337</ele><time>2026-04-28T08:00:59Z</time></trkpt><trkpt lat="45.01576932429764" lon="5.640082001830317"><ele>433.1666666666667</ele><time>2026-04-28T08:01:02Z</time></trkpt><trkpt lat="45.015678417893874" lon="5.6400587259550035"><ele>435.0</ele><time>2026-04-28T08:01:05Z</time></trkpt><trkpt lat="45.01559034490708" lon="5.640045584830375"><ele>435.8</ele><time>2026-04-28T08:01:08Z</time></trkpt><trkpt lat="45.01549908140738" lon="5.640018514903436"><ele>436.6</ele><time>2026-04-28T08:01:11Z</time></trkpt><trkpt lat="45.0154119748781" lon="5.639997939778174"><ele>437.4</ele><time>2026-04-28T08:01:14Z</time></trkpt><trkpt lat="45.015314886458626" lon="5.640029966693956"><ele>438.2</ele><time>2026-04-28T08:01:17Z</time></trkpt><trkpt lat="45.01522912603812" lon="5.6400006534002385"><ele>439.0</ele><time>2026-04-28T08:01:19.999Z</time></trkpt><trkpt lat="45.01514274029897" lon="5.639991578128441"><ele>439.00000000000006</ele><time>2026-04-28T08:01:22.999Z</time></trkpt><trkpt lat="45.01505184618698" lon="5.639959573796427"><ele>439.0</ele><time>2026-04-28T08:01:25.999Z</time></trkpt><trkpt lat="45.01496453088781" lon="5.639944662610076"><ele>439.0</ele><time>2026-04-28T08:01:28.999Z</time></trkpt><trkpt lat="45.01487547076199" lon="5.639935101908439"><ele>439.0</ele><time>2026-04-28T08:01:31.999Z</time></trkpt><trkpt lat="45.01479033815507" lon="5.639913102741042"><ele>439.00000000000006</ele><time>2026-04-28T08:01:34.999Z</time></trkpt><trkpt lat="45.01470564523738" lon="5.639896702759408"><ele>439.0</ele><time>2026-04-28T08:01:37.999Z</time></trkpt><trkpt lat="45.014627365977645" lon="5.639865212514984"><ele>439.50000000000006</ele><time>2026-04-28T08:01:40.999Z</time></trkpt><trkpt lat="45.014558314696494" lon="5.639847285984698"><ele>440.0</ele><time>2026-04-28T08:01:43.999Z</time></trkpt><trkpt lat="45.014495381324494" lon="5.639837865494186"><ele>440.5</ele><time>2026-04-28T08:01:45.999Z</time></trkpt><trkpt lat="45.014414970290765" lon="5.639808039584862"><ele>441.0</ele><time>2026-04-28T08:01:48.999Z</time></trkpt><trkpt lat="45.01432494884086" lon="5.639794995899684"><ele>441.50000000000006</ele><time>2026-04-28T08:01:51.999Z</time></trkpt><trkpt lat="45.01423820563357" lon="5.639783964828848"><ele>442.0</ele><time>2026-04-28T08:01:54.999Z</time></trkpt><trkpt lat="45.01415098892258" lon="5.639767841972201"><ele>442.1666666666667</ele><time>2026-04-28T08:01:57.999Z</time></trkpt><trkpt lat="45.01406586519203" lon="5.639749386158858"><ele>442.33333333333337</ele><time>2026-04-28T08:02:00.999Z</time></trkpt><trkpt lat="45.01398070810226" lon="5.639731871405301"><ele>442.5</ele><time>2026-04-28T08:02:03.999Z</time></trkpt><trkpt lat="45.013899931389396" lon="5.639711882822865"><ele>442.66666666666663</ele><time>2026-04-28T08:02:06.999Z</time></trkpt><trkpt lat="45.01382803553413" lon="5.6396647706727965"><ele>442.8333333333333</ele><time>2026-04-28T08:02:09.999Z</time></trkpt><trkpt lat="45.013747241604385" lon="5.639607880558956"><ele>443.0</ele><time>2026-04-28T08:02:12.999Z</time></trkpt><trkpt lat="45.01369097328262" lon="5.639528098555912"><ele>444.3333333333333</ele><time>2026-04-28T08:02:15.999Z</time></trkpt><trkpt lat="45.013626530242526" lon="5.639444527519846"><ele>445.66666666666663</ele><time>2026-04-28T08:02:18.999Z</time></trkpt><trkpt lat="45.01358760463941" lon="5.639333947740772"><ele>447.0</ele><time>2026-04-28T08:02:22Z</time></trkpt><trkpt lat="45.0135710212367" lon="5.639224650339336"><ele>448.33333333333337</ele><time>2026-04-28T08:02:25Z</time></trkpt><trkpt lat="45.01354633068077" lon="5.639140427472708"><ele>449.6666666666667</ele><time>2026-04-28T08:02:27Z</time></trkpt><trkpt lat="45.01353035438743" lon="5.639028490355247"><ele>451.0</ele><time>2026-04-28T08:02:30Z</time></trkpt><trkpt lat="45.0135122373472" lon="5.6389178463890435"><ele>451.00000000000006</ele><time>2026-04-28T08:02:33Z</time></trkpt><trkpt lat="45.01348191416461" lon="5.638804309785224"><ele>451.0</ele><time>2026-04-28T08:02:36Z</time></trkpt><trkpt lat="45.013443900258046" lon="5.638690151954111"><ele>451.0</ele><time>2026-04-28T08:02:39Z</time></trkpt><trkpt lat="45.01340285661617" lon="5.638580056943527"><ele>451.0</ele><time>2026-04-28T08:02:42Z</time></trkpt><trkpt lat="45.01336504539405" lon="5.63847845631617"><ele>451.00000000000006</ele><time>2026-04-28T08:02:45Z</time></trkpt><trkpt lat="45.01331821911458" lon="5.638381631975393"><ele>451.0</ele><time>2026-04-28T08:02:48Z</time></trkpt><trkpt lat="45.01327150828862" lon="5.638285796086149"><ele>451.6666666666667</ele><time>2026-04-28T08:02:51Z</time></trkpt><trkpt lat="45.013228160125564" lon="5.638188860633977"><ele>452.33333333333337</ele><time>2026-04-28T08:02:54Z</time></trkpt><trkpt lat="45.0131810175965" lon="5.638096036720586"><ele>453.0</ele><time>2026-04-28T08:02:57Z</time></trkpt><trkpt lat="45.01312298503333" lon="5.638006618252147"><ele>453.66666666666663</ele><time>2026-04-28T08:03:00Z</time></trkpt><trkpt lat="45.013061857091465" lon="5.637935903851436"><ele>454.3333333333333</ele><time>2026-04-28T08:03:03Z</time></trkpt><trkpt lat="45.01298962865854" lon="5.637879048032379"><ele>455.0</ele><time>2026-04-28T08:03:06Z</time></trkpt><trkpt lat="45.012920679103686" lon="5.637830796949088"><ele>458.49999999999994</ele><time>2026-04-28T08:03:09Z</time></trkpt><trkpt lat="45.012841685583034" lon="5.637792183053611"><ele>462.0</ele><time>2026-04-28T08:03:12Z</time></trkpt><trkpt lat="45.0127587496877" lon="5.637750222651335"><ele>465.5</ele><time>2026-04-28T08:03:15Z</time></trkpt><trkpt lat="45.01267899966681" lon="5.637708440610535"><ele>469.0</ele><time>2026-04-28T08:03:18Z</time></trkpt><trkpt lat="45.012594600139295" lon="5.637669145455883"><ele>472.49999999999994</ele><time>2026-04-28T08:03:20.999Z</time></trkpt><trkpt lat="45.01251166956802" lon="5.637628721300034"><ele>476.0</ele><time>2026-04-28T08:03:23.999Z</time></trkpt><trkpt lat="45.012427862305856" lon="5.637590287537385"><ele>475.99999999999994</ele><time>2026-04-28T08:03:26.999Z</time></trkpt><trkpt lat="45.012342581886806" lon="5.63755745229106"><ele>476.0</ele><time>2026-04-28T08:03:29.999Z</time></trkpt><trkpt lat="45.01226147953115" lon="5.637530262251134"><ele>476.0</ele><time>2026-04-28T08:03:32.999Z</time></trkpt><trkpt lat="45.01217719377788" lon="5.637513351198695"><ele>476.0</ele><time>2026-04-28T08:03:35.999Z</time></trkpt><trkpt lat="45.01208880651955" lon="5.637503687785607"><ele>475.99999999999994</ele><time>2026-04-28T08:03:38.999Z</time></trkpt><trkpt lat="45.01200300686377" lon="5.637491162839144"><ele>476.0</ele><time>2026-04-28T08:03:41.999Z</time></trkpt><trkpt lat="45.011921156207634" lon="5.637473308428154"><ele>475.99999999999994</ele><time>2026-04-28T08:03:44.999Z</time></trkpt><trkpt lat="45.01183997344965" lon="5.637455869599726"><ele>476.0</ele><time>2026-04-28T08:03:47.999Z</time></trkpt><trkpt lat="45.01175919124782" lon="5.63743952126388"><ele>476.0</ele><time>2026-04-28T08:03:50.999Z</time></trkpt><trkpt lat="45.011684991675025" lon="5.637396990514051"><ele>476.0</ele><time>2026-04-28T08:03:53.999Z</time></trkpt><trkpt lat="45.011599488310154" lon="5.637374767863338"><ele>475.99999999999994</ele><time>2026-04-28T08:03:56.999Z</time></trkpt><trkpt lat="45.01152429060305" lon="5.637334290300937"><ele>476.0</ele><time>2026-04-28T08:03:59.999Z</time></trkpt><trkpt lat="45.01144905859374" lon="5.637280609730773"><ele>478.3333333333333</ele><time>2026-04-28T08:04:02.999Z</time></trkpt><trkpt lat="45.011370160204564" lon="5.6372340887986425"><ele>480.66666666666663</ele><time>2026-04-28T08:04:05.999Z</time></trkpt><trkpt lat="45.011291389936886" lon="5.637195649168472"><ele>483.0</ele><time>2026-04-28T08:04:08.999Z</time></trkpt><trkpt lat="45.01122282075563" lon="5.637126640623214"><ele>485.33333333333337</ele><time>2026-04-28T08:04:11.999Z</time></trkpt><trkpt lat="45.01116270090328" lon="5.637044638182135"><ele>487.6666666666667</ele><time>2026-04-28T08:04:14.999Z</time></trkpt><trkpt lat="45.01110474891791" lon="5.636948218626355"><ele>490.0</ele><time>2026-04-28T08:04:17.999Z</time></trkpt><trkpt lat="45.01105040618911" lon="5.636851237380269"><ele>490.00000000000006</ele><time>2026-04-28T08:04:20.999Z</time></trkpt><trkpt lat="45.010994540283065" lon="5.636759451139913"><ele>490.0</ele><time>2026-04-28T08:04:23.999Z</time></trkpt><trkpt lat="45.01094486167533" lon="5.636659222286795"><ele>490.0</ele><time>2026-04-28T08:04:27Z</time></trkpt><trkpt lat="45.010893243014785" lon="5.636557880736806"><ele>490.0</ele><time>2026-04-28T08:04:30Z</time></trkpt><trkpt lat="45.01084920846722" lon="5.636488021440534"><ele>490.00000000000006</ele><time>2026-04-28T08:04:32Z</time></trkpt><trkpt lat="45.01079896529625" lon="5.6363885173444865"><ele>490.0</ele><time>2026-04-28T08:04:35Z</time></trkpt><trkpt lat="45.01074010715295" lon="5.636294024733433"><ele>487.4</ele><time>2026-04-28T08:04:38Z</time></trkpt><trkpt lat="45.01069857772004" lon="5.636190382072444"><ele>484.8</ele><time>2026-04-28T08:04:41Z</time></trkpt><trkpt lat="45.010641086314266" lon="5.6360882537425"><ele>482.20000000000005</ele><time>2026-04-28T08:04:44Z</time></trkpt><trkpt lat="45.01058230334785" lon="5.635996483803374"><ele>479.6</ele><time>2026-04-28T08:04:47Z</time></trkpt><trkpt lat="45.01050787044898" lon="5.635898340378079"><ele>477.0</ele><time>2026-04-28T08:04:51Z</time></trkpt><trkpt lat="45.010451216638096" lon="5.635800301989122"><ele>477.0</ele><time>2026-04-28T08:04:54Z</time></trkpt><trkpt lat="45.01041726167604" lon="5.635718827587889"><ele>477.0</ele><time>2026-04-28T08:04:56Z</time></trkpt><trkpt lat="45.01035856939784" lon="5.635628097781969"><ele>477.0</ele><time>2026-04-28T08:04:59Z</time></trkpt><trkpt lat="45.01030443320329" lon="5.635523847819817"><ele>477.0</ele><time>2026-04-28T08:05:02Z</time></trkpt><trkpt lat="45.0102570996982" lon="5.635417590972609"><ele>477.0</ele><time>2026-04-28T08:05:05Z</time></trkpt><trkpt lat="45.0101979224511" lon="5.635330393267923"><ele>477.0</ele><time>2026-04-28T08:05:08Z</time></trkpt><trkpt lat="45.01016315023779" lon="5.635255219219931"><ele>480.6666666666667</ele><time>2026-04-28T08:05:10Z</time></trkpt><trkpt lat="45.01012505957351" lon="5.635134847507157"><ele>484.33333333333337</ele><time>2026-04-28T08:05:13Z</time></trkpt><trkpt lat="45.01010868529164" lon="5.635046745880967"><ele>488.0</ele><time>2026-04-28T08:05:15Z</time></trkpt><trkpt lat="45.010110195616534" lon="5.634952841908574"><ele>491.6666666666667</ele><time>2026-04-28T08:05:17Z</time></trkpt><trkpt lat="45.01009574247348" lon="5.634842377820899"><ele>495.33333333333337</ele><time>2026-04-28T08:05:20Z</time></trkpt><trkpt lat="45.01012160817246" lon="5.6347072607842525"><ele>499.0</ele><time>2026-04-28T08:05:23Z</time></trkpt><trkpt lat="45.01016338753586" lon="5.634587583646272"><ele>499.00000000000006</ele><time>2026-04-28T08:05:26Z</time></trkpt><trkpt lat="45.010160002613695" lon="5.634473074842752"><ele>499.0</ele><time>2026-04-28T08:05:28.999Z</time></trkpt><trkpt lat="45.01016191427793" lon="5.634344911976974"><ele>499.0</ele><time>2026-04-28T08:05:31.999Z</time></trkpt><trkpt lat="45.010152167452304" lon="5.634220450310523"><ele>499.0</ele><time>2026-04-28T08:05:34.999Z</time></trkpt><trkpt lat="45.01014027818489" lon="5.634104117982923"><ele>499.00000000000006</ele><time>2026-04-28T08:05:37.999Z</time></trkpt><trkpt lat="45.0101516624475" lon="5.633984850044553"><ele>499.0</ele><time>2026-04-28T08:05:40.999Z</time></trkpt><trkpt lat="45.010128531559616" lon="5.633877846595509"><ele>499.83333333333337</ele><time>2026-04-28T08:05:43.999Z</time></trkpt><trkpt lat="45.010116755558016" lon="5.633760516961506"><ele>500.6666666666667</ele><time>2026-04-28T08:05:46.999Z</time></trkpt><trkpt lat="45.010118539679844" lon="5.633658592585836"><ele>501.5</ele><time>2026-04-28T08:05:49.999Z</time></trkpt><trkpt lat="45.010115475468574" lon="5.633555185537207"><ele>502.33333333333337</ele><time>2026-04-28T08:05:52.999Z</time></trkpt><trkpt lat="45.01010103721707" lon="5.63344988763618"><ele>503.1666666666667</ele><time>2026-04-28T08:05:55.999Z</time></trkpt><trkpt lat="45.01008155854046" lon="5.6333405048487695"><ele>504.0</ele><time>2026-04-28T08:05:58.999Z</time></trkpt><trkpt lat="45.010055177140835" lon="5.633236429945237"><ele>504.3333333333333</ele><time>2026-04-28T08:06:01.999Z</time></trkpt><trkpt lat="45.0100255840094" lon="5.633139773888982"><ele>504.66666666666663</ele><time>2026-04-28T08:06:04.999Z</time></trkpt><trkpt lat="45.00999112937169" lon="5.6330425979684655"><ele>505.0</ele><time>2026-04-28T08:06:07.999Z</time></trkpt><trkpt lat="45.00995102192263" lon="5.632958927608363"><ele>505.3333333333333</ele><time>2026-04-28T08:06:10.999Z</time></trkpt><trkpt lat="45.00988566911446" lon="5.632898550817582"><ele>505.66666666666663</ele><time>2026-04-28T08:06:13.999Z</time></trkpt><trkpt lat="45.0098193099522" lon="5.632825024293247"><ele>506.0</ele><time>2026-04-28T08:06:17.999Z</time></trkpt><trkpt lat="45.00973139029425" lon="5.6328187660640685"><ele>505.99999999999994</ele><time>2026-04-28T08:06:21.999Z</time></trkpt><trkpt lat="45.00964748372262" lon="5.6328142048616145"><ele>506.0</ele><time>2026-04-28T08:06:24.999Z</time></trkpt><trkpt lat="45.00957041903418" lon="5.632812471640409"><ele>506.0</ele><time>2026-04-28T08:06:27.999Z</time></trkpt><trkpt lat="45.00950520920712" lon="5.632797328145083"><ele>506.0</ele><time>2026-04-28T08:06:30.999Z</time></trkpt><trkpt lat="45.00942463087001" lon="5.6327923405446665"><ele>505.99999999999994</ele><time>2026-04-28T08:06:34Z</time></trkpt><trkpt lat="45.009348826307026" lon="5.632786812742126"><ele>506.0</ele><time>2026-04-28T08:06:37Z</time></trkpt><trkpt lat="45.00926950458407" lon="5.632778769434048"><ele>509.16666666666663</ele><time>2026-04-28T08:06:40Z</time></trkpt><trkpt lat="45.0091896131205" lon="5.632762778921446"><ele>512.3333333333333</ele><time>2026-04-28T08:06:43Z</time></trkpt><trkpt lat="45.00912141390825" lon="5.632738088788064"><ele>515.5</ele><time>2026-04-28T08:06:46Z</time></trkpt><trkpt lat="45.00901913498354" lon="5.63272350746354"><ele>518.6666666666666</ele><time>2026-04-28T08:06:50Z</time></trkpt><trkpt lat="45.00895075918699" lon="5.6326736437263865"><ele>521.8333333333334</ele><time>2026-04-28T08:06:53Z</time></trkpt><trkpt lat="45.0088722436393" lon="5.632644852887562"><ele>525.0</ele><time>2026-04-28T08:06:56Z</time></trkpt><trkpt lat="45.00878695834826" lon="5.632631594652009"><ele>525.0</ele><time>2026-04-28T08:06:59Z</time></trkpt><trkpt lat="45.00870882055536" lon="5.632620265663508"><ele>525.0</ele><time>2026-04-28T08:07:02Z</time></trkpt><trkpt lat="45.008639806130795" lon="5.632612060458168"><ele>525.0</ele><time>2026-04-28T08:07:05Z</time></trkpt><trkpt lat="45.0085694789958" lon="5.632617640439341"><ele>525.0</ele><time>2026-04-28T08:07:08Z</time></trkpt><trkpt lat="45.008494517846955" lon="5.632641906751169"><ele>525.0</ele><time>2026-04-28T08:07:11Z</time></trkpt><trkpt lat="45.00843196889579" lon="5.632684407765069"><ele>525.0</ele><time>2026-04-28T08:07:14Z</time></trkpt><trkpt lat="45.008353992400686" lon="5.632697133052737"><ele>525.0</ele><time>2026-04-28T08:07:17Z</time></trkpt><trkpt lat="45.00829217769984" lon="5.632651808446544"><ele>525.0</ele><time>2026-04-28T08:07:20Z</time></trkpt><trkpt lat="45.0082568357652" lon="5.632557702878039"><ele>525.0</ele><time>2026-04-28T08:07:24Z</time></trkpt><trkpt lat="45.0082442345784" lon="5.632461150202234"><ele>525.0</ele><time>2026-04-28T08:07:27Z</time></trkpt><trkpt lat="45.00827524889574" lon="5.632366201558507"><ele>525.0</ele><time>2026-04-28T08:07:30Z</time></trkpt><trkpt lat="45.00829509382008" lon="5.632267136191325"><ele>525.0</ele><time>2026-04-28T08:07:33.999Z</time></trkpt><trkpt lat="45.008309349082424" lon="5.632160158076094"><ele>525.0</ele><time>2026-04-28T08:07:35.999Z</time></trkpt><trkpt lat="45.008339189557425" lon="5.6320320987247605"><ele>525.8333333333334</ele><time>2026-04-28T08:07:38.999Z</time></trkpt><trkpt lat="45.008339545701226" lon="5.63190831360449"><ele>526.6666666666666</ele><time>2026-04-28T08:07:41.999Z</time></trkpt><trkpt lat="45.0083388926346" lon="5.631816614989745"><ele>527.5</ele><time>2026-04-28T08:07:43.999Z</time></trkpt><trkpt lat="45.00831684942637" lon="5.631692231825345"><ele>528.3333333333333</ele><time>2026-04-28T08:07:46.999Z</time></trkpt><trkpt lat="45.00829601463861" lon="5.6315812655651705"><ele>529.1666666666666</ele><time>2026-04-28T08:07:49.999Z</time></trkpt><trkpt lat="45.008238922288676" lon="5.631486852493771"><ele>530.0</ele><time>2026-04-28T08:07:52.999Z</time></trkpt><trkpt lat="45.00819454295333" lon="5.631422246175415"><ele>530.0</ele><time>2026-04-28T08:07:54.999Z</time></trkpt><trkpt lat="45.00815251775694" lon="5.63133746016492"><ele>530.0</ele><time>2026-04-28T08:07:57.999Z</time></trkpt><trkpt lat="45.00808131873741" lon="5.631263592053659"><ele>530.0</ele><time>2026-04-28T08:08:00.999Z</time></trkpt><trkpt lat="45.008018757174355" lon="5.631196433116354"><ele>530.0</ele><time>2026-04-28T08:08:03.999Z</time></trkpt><trkpt lat="45.00795262017231" lon="5.63114827361504"><ele>530.0</ele><time>2026-04-28T08:08:06.999Z</time></trkpt><trkpt lat="45.0078907522615" lon="5.631122848010421"><ele>530.0</ele><time>2026-04-28T08:08:08.999Z</time></trkpt><trkpt lat="45.007811862547655" lon="5.631075146506259"><ele>531.3333333333333</ele><time>2026-04-28T08:08:11.999Z</time></trkpt><trkpt lat="45.007724344691" lon="5.63105076853289"><ele>532.6666666666666</ele><time>2026-04-28T08:08:14.999Z</time></trkpt><trkpt lat="45.00764512144899" lon="5.631002439800903"><ele>534.0</ele><time>2026-04-28T08:08:17.999Z</time></trkpt><trkpt lat="45.00755837950746" lon="5.630972515271855"><ele>535.3333333333334</ele><time>2026-04-28T08:08:20.999Z</time></trkpt><trkpt lat="45.007490578242034" lon="5.630907706885302"><ele>536.6666666666667</ele><time>2026-04-28T08:08:23.999Z</time></trkpt><trkpt lat="45.00742012497398" lon="5.630906783426597"><ele>538.0</ele><time>2026-04-28T08:08:25.999Z</time></trkpt><trkpt lat="45.0073525459489" lon="5.630871501107973"><ele>538.0</ele><time>2026-04-28T08:08:28.999Z</time></trkpt><trkpt lat="45.00726697742978" lon="5.630831031232264"><ele>538.0</ele><time>2026-04-28T08:08:31.999Z</time></trkpt><trkpt lat="45.00720026050302" lon="5.630773351686181"><ele>538.0</ele><time>2026-04-28T08:08:34.999Z</time></trkpt><trkpt lat="45.00713421157792" lon="5.630701823672449"><ele>538.0</ele><time>2026-04-28T08:08:38Z</time></trkpt><trkpt lat="45.00706420805662" lon="5.630636521920137"><ele>538.0</ele><time>2026-04-28T08:08:41Z</time></trkpt><trkpt lat="45.00700443669873" lon="5.630562209348759"><ele>538.0</ele><time>2026-04-28T08:08:44Z</time></trkpt><trkpt lat="45.00693133163625" lon="5.630495087257447"><ele>538.0</ele><time>2026-04-28T08:08:47Z</time></trkpt><trkpt lat="45.00691245159651" lon="5.6303934169789365"><ele>538.0</ele><time>2026-04-28T08:08:49Z</time></trkpt><trkpt lat="45.00682885553623" lon="5.630360393955739"><ele>538.0</ele><time>2026-04-28T08:08:52Z</time></trkpt><trkpt lat="45.00677263586146" lon="5.630264069758333"><ele>538.0</ele><time>2026-04-28T08:08:55Z</time></trkpt><trkpt lat="45.00671980735823" lon="5.630165979264155"><ele>538.0</ele><time>2026-04-28T08:08:58Z</time></trkpt><trkpt lat="45.006673564996284" lon="5.630062411371789"><ele>538.0</ele><time>2026-04-28T08:09:01Z</time></trkpt><trkpt lat="45.00664181252735" lon="5.629955186124673"><ele>543.3333333333334</ele><time>2026-04-28T08:09:04Z</time></trkpt><trkpt lat="45.00660603994146" lon="5.629863939442084"><ele>548.6666666666667</ele><time>2026-04-28T08:09:07Z</time></trkpt><trkpt lat="45.00658364577276" lon="5.6297581423353975"><ele>554.0</ele><time>2026-04-28T08:09:10Z</time></trkpt><trkpt lat="45.00654669958784" lon="5.629665715611775"><ele>559.3333333333334</ele><time>2026-04-28T08:09:13Z</time></trkpt><trkpt lat="45.006513567771805" lon="5.6295630710004865"><ele>564.6666666666666</ele><time>2026-04-28T08:09:16Z</time></trkpt><trkpt lat="45.00649591153215" lon="5.629451585233436"><ele>570.0</ele><time>2026-04-28T08:09:19Z</time></trkpt><trkpt lat="45.00646770685452" lon="5.629340471098062"><ele>570.5</ele><time>2026-04-28T08:09:22Z</time></trkpt><trkpt lat="45.00643937612407" lon="5.62922603923975"><ele>571.0</ele><time>2026-04-28T08:09:25Z</time></trkpt><trkpt lat="45.006405796909675" lon="5.629114042431363"><ele>571.5</ele><time>2026-04-28T08:09:28Z</time></trkpt><trkpt lat="45.00640306851419" lon="5.628997136707872"><ele>572.0</ele><time>2026-04-28T08:09:31Z</time></trkpt><trkpt lat="45.006404836187315" lon="5.62887790076727"><ele>572.5</ele><time>2026-04-28T08:09:34Z</time></trkpt><trkpt lat="45.006421381160095" lon="5.628765466410127"><ele>573.0</ele><time>2026-04-28T08:09:36.999Z</time></trkpt><trkpt lat="45.00644885893947" lon="5.628670189947752"><ele>573.5</ele><time>2026-04-28T08:09:39.999Z</time></trkpt><trkpt lat="45.006471468844616" lon="5.628561868170139"><ele>574.0</ele><time>2026-04-28T08:09:42.999Z</time></trkpt><trkpt lat="45.00647569358435" lon="5.6284599754014195"><ele>574.5</ele><time>2026-04-28T08:09:45.999Z</time></trkpt><trkpt lat="45.0064256737773" lon="5.628344685386415"><ele>575.0</ele><time>2026-04-28T08:09:48.999Z</time></trkpt><trkpt lat="45.00638205952244" lon="5.628267626745125"><ele>575.5</ele><time>2026-04-28T08:09:51.999Z</time></trkpt><trkpt lat="45.00633185905376" lon="5.628211246654521"><ele>576.0</ele><time>2026-04-28T08:09:53.999Z</time></trkpt><trkpt lat="45.00626790690421" lon="5.628145608247333"><ele>576.0</ele><time>2026-04-28T08:09:56.999Z</time></trkpt><trkpt lat="45.00619537410724" lon="5.628093320590249"><ele>576.0</ele><time>2026-04-28T08:09:59.999Z</time></trkpt><trkpt lat="45.00613055213732" lon="5.628039562726668"><ele>576.0</ele><time>2026-04-28T08:10:02.999Z</time></trkpt><trkpt lat="45.00605307898676" lon="5.628070379787479"><ele>576.0</ele><time>2026-04-28T08:10:05.999Z</time></trkpt><trkpt lat="45.005992947826776" lon="5.628118651188052"><ele>576.0</ele><time>2026-04-28T08:10:09.999Z</time></trkpt><trkpt lat="45.00593946471367" lon="5.628209303331471"><ele>576.0</ele><time>2026-04-28T08:10:12.999Z</time></trkpt><trkpt lat="45.005920555146076" lon="5.62831727111231"><ele>576.0000000000001</ele><time>2026-04-28T08:10:15.999Z</time></trkpt><trkpt lat="45.00588297267787" lon="5.628419813300604"><ele>576.0</ele><time>2026-04-28T08:10:18.999Z</time></trkpt><trkpt lat="45.00585524453977" lon="5.628501100054989"><ele>576.0</ele><time>2026-04-28T08:10:20.999Z</time></trkpt><trkpt lat="45.005810323288436" lon="5.628585152928507"><ele>576.0</ele><time>2026-04-28T08:10:23.999Z</time></trkpt><trkpt lat="45.005802546565036" lon="5.62868021810514"><ele>576.0</ele><time>2026-04-28T08:10:25.999Z</time></trkpt><trkpt lat="45.0057634772273" lon="5.628787181040155"><ele>576.0000000000001</ele><time>2026-04-28T08:10:28.999Z</time></trkpt><trkpt lat="45.005762056128425" lon="5.628881527614867"><ele>576.0</ele><time>2026-04-28T08:10:30.999Z</time></trkpt><trkpt lat="45.0057563359307" lon="5.629011819246229"><ele>578.8333333333334</ele><time>2026-04-28T08:10:33.999Z</time></trkpt><trkpt lat="45.00572846256871" lon="5.629127637343553"><ele>581.6666666666666</ele><time>2026-04-28T08:10:36.999Z</time></trkpt><trkpt lat="45.00570905535674" lon="5.62921701488823"><ele>584.5</ele><time>2026-04-28T08:10:38.999Z</time></trkpt><trkpt lat="45.0057057396526" lon="5.62934607581521"><ele>587.3333333333333</ele><time>2026-04-28T08:10:41.999Z</time></trkpt><trkpt lat="45.00569316603558" lon="5.629475407413511"><ele>590.1666666666666</ele><time>2026-04-28T08:10:45Z</time></trkpt><trkpt lat="45.0056937990894" lon="5.629604276096065"><ele>593.0</ele><time>2026-04-28T08:10:48Z</time></trkpt><trkpt lat="45.00568993709464" lon="5.629721954680788"><ele>593.0</ele><time>2026-04-28T08:10:51Z</time></trkpt><trkpt lat="45.00567892364267" lon="5.629841611478779"><ele>593.0</ele><time>2026-04-28T08:10:54Z</time></trkpt><trkpt lat="45.00567142233357" lon="5.62993220470964"><ele>593.0</ele><time>2026-04-28T08:10:56Z</time></trkpt><trkpt lat="45.005649006227294" lon="5.630044756695045"><ele>593.0</ele><time>2026-04-28T08:10:59Z</time></trkpt><trkpt lat="45.005615618391545" lon="5.630150125449621"><ele>593.0</ele><time>2026-04-28T08:11:02Z</time></trkpt><trkpt lat="45.005557588314886" lon="5.630249202273185"><ele>593.0</ele><time>2026-04-28T08:11:05Z</time></trkpt><trkpt lat="45.00552277519136" lon="5.630326241722333"><ele>591.0</ele><time>2026-04-28T08:11:07Z</time></trkpt><trkpt lat="45.00547881547108" lon="5.630443120355371"><ele>589.0</ele><time>2026-04-28T08:11:10Z</time></trkpt><trkpt lat="45.00543523619168" lon="5.630558708003374"><ele>587.0</ele><time>2026-04-28T08:11:13Z</time></trkpt><trkpt lat="45.00539776380442" lon="5.6306787483406655"><ele>585.0</ele><time>2026-04-28T08:11:16Z</time></trkpt><trkpt lat="45.00536699892398" lon="5.630797730292915"><ele>583.0</ele><time>2026-04-28T08:11:19Z</time></trkpt><trkpt lat="45.00532871388889" lon="5.630908400189305"><ele>583.0</ele><time>2026-04-28T08:11:22Z</time></trkpt><trkpt lat="45.005262893624696" lon="5.63099195481248"><ele>583.0</ele><time>2026-04-28T08:11:25Z</time></trkpt><trkpt lat="45.00518546994973" lon="5.631023486309191"><ele>583.0</ele><time>2026-04-28T08:11:28Z</time></trkpt><trkpt lat="45.00510864210717" lon="5.630997183037403"><ele>583.0</ele><time>2026-04-28T08:11:31Z</time></trkpt><trkpt lat="45.00503113016296" lon="5.630961506270074"><ele>583.0</ele><time>2026-04-28T08:11:34Z</time></trkpt><trkpt lat="45.004958183307345" lon="5.630894376535909"><ele>583.0</ele><time>2026-04-28T08:11:37Z</time></trkpt><trkpt lat="45.004888188254704" lon="5.630825847539301"><ele>581.6666666666667</ele><time>2026-04-28T08:11:40Z</time></trkpt><trkpt lat="45.00481483433744" lon="5.630756870606339"><ele>580.3333333333334</ele><time>2026-04-28T08:11:42.999Z</time></trkpt><trkpt lat="45.00475692983455" lon="5.630675536595568"><ele>579.0</ele><time>2026-04-28T08:11:45.999Z</time></trkpt><trkpt lat="45.004677721877925" lon="5.6306123689101035"><ele>577.6666666666666</ele><time>2026-04-28T08:11:48.999Z</time></trkpt><trkpt lat="45.00460418183998" lon="5.630538135794859"><ele>576.3333333333333</ele><time>2026-04-28T08:11:51.999Z</time></trkpt><trkpt lat="45.00453385285823" lon="5.630460692021832"><ele>575.0</ele><time>2026-04-28T08:11:54.999Z</time></trkpt><trkpt lat="45.004467590752235" lon="5.630376430345652"><ele>578.0</ele><time>2026-04-28T08:11:57.999Z</time></trkpt><trkpt lat="45.004406008665555" lon="5.6302836960292675"><ele>581.0</ele><time>2026-04-28T08:12:00.999Z</time></trkpt><trkpt lat="45.00437586458809" lon="5.630159674769605"><ele>584.0</ele><time>2026-04-28T08:12:03.999Z</time></trkpt><trkpt lat="45.0043579882777" lon="5.630035947381241"><ele>587.0</ele><time>2026-04-28T08:12:06.999Z</time></trkpt><trkpt lat="45.00436951448518" lon="5.629906324733842"><ele>590.0</ele><time>2026-04-28T08:12:09.999Z</time></trkpt><trkpt lat="45.00438065641502" lon="5.629777489607657"><ele>590.0</ele><time>2026-04-28T08:12:12.999Z</time></trkpt><trkpt lat="45.00439179662455" lon="5.62965331533265"><ele>590.0</ele><time>2026-04-28T08:12:15.999Z</time></trkpt><trkpt lat="45.00438586941993" lon="5.629530056911448"><ele>590.0</ele><time>2026-04-28T08:12:18.999Z</time></trkpt><trkpt lat="45.004363285893525" lon="5.629412715704794"><ele>590.0</ele><time>2026-04-28T08:12:21.999Z</time></trkpt><trkpt lat="45.00431963793571" lon="5.62930549436673"><ele>590.0</ele><time>2026-04-28T08:12:24.999Z</time></trkpt><trkpt lat="45.00426295075109" lon="5.6292110685235"><ele>590.0</ele><time>2026-04-28T08:12:27.999Z</time></trkpt><trkpt lat="45.0041967864606" lon="5.629145959385584"><ele>592.5</ele><time>2026-04-28T08:12:30.999Z</time></trkpt><trkpt lat="45.00411122786278" lon="5.629123914223061"><ele>595.0</ele><time>2026-04-28T08:12:33.999Z</time></trkpt><trkpt lat="45.00402600927666" lon="5.629154377956769"><ele>597.5</ele><time>2026-04-28T08:12:36.999Z</time></trkpt><trkpt lat="45.00395637766331" lon="5.629227900135786"><ele>600.0</ele><time>2026-04-28T08:12:39.999Z</time></trkpt><trkpt lat="45.00390353355881" lon="5.6292980523180205"><ele>602.5</ele><time>2026-04-28T08:12:41.999Z</time></trkpt><trkpt lat="45.003860637100736" lon="5.629367095631569"><ele>605.0</ele><time>2026-04-28T08:12:43.999Z</time></trkpt><trkpt lat="45.00380875944636" lon="5.629420601949265"><ele>603.8333333333333</ele><time>2026-04-28T08:12:45.999Z</time></trkpt><trkpt lat="45.0037533284653" lon="5.629475880065588"><ele>602.6666666666666</ele><time>2026-04-28T08:12:47.999Z</time></trkpt><trkpt lat="45.00367710411384" lon="5.629547975388932"><ele>601.5</ele><time>2026-04-28T08:12:51Z</time></trkpt><trkpt lat="45.00361053074085" lon="5.6296090959041605"><ele>600.3333333333334</ele><time>2026-04-28T08:12:54Z</time></trkpt><trkpt lat="45.00354011779465" lon="5.6296712100575075"><ele>599.1666666666667</ele><time>2026-04-28T08:12:57Z</time></trkpt><trkpt lat="45.0034643434466" lon="5.629751168612682"><ele>598.0</ele><time>2026-04-28T08:13:00Z</time></trkpt><trkpt lat="45.00341360953761" lon="5.629804486036804"><ele>598.0</ele><time>2026-04-28T08:13:02Z</time></trkpt><trkpt lat="45.00335820383374" lon="5.629906373424839"><ele>598.0</ele><time>2026-04-28T08:13:05Z</time></trkpt><trkpt lat="45.003307920948075" lon="5.630004551720878"><ele>598.0</ele><time>2026-04-28T08:13:08Z</time></trkpt><trkpt lat="45.00325372236644" lon="5.630088666091869"><ele>598.0</ele><time>2026-04-28T08:13:11Z</time></trkpt><trkpt lat="45.00319818204647" lon="5.630134439036128"><ele>598.0</ele><time>2026-04-28T08:13:13Z</time></trkpt><trkpt lat="45.00312088059139" lon="5.6301906656627345"><ele>598.0</ele><time>2026-04-28T08:13:16Z</time></trkpt><trkpt lat="45.00305701568885" lon="5.630215992201275"><ele>599.0</ele><time>2026-04-28T08:13:18Z</time></trkpt><trkpt lat="45.0029752551388" lon="5.630255123521703"><ele>600.0</ele><time>2026-04-28T08:13:21Z</time></trkpt><trkpt lat="45.00289567706004" lon="5.630279751732556"><ele>601.0</ele><time>2026-04-28T08:13:24Z</time></trkpt><trkpt lat="45.00281708811318" lon="5.630298337138929"><ele>602.0</ele><time>2026-04-28T08:13:27Z</time></trkpt><trkpt lat="45.00273251115053" lon="5.63029681768107"><ele>603.0</ele><time>2026-04-28T08:13:30Z</time></trkpt><trkpt lat="45.00266121971405" lon="5.630270261980222"><ele>604.0</ele><time>2026-04-28T08:13:33Z</time></trkpt><trkpt lat="45.002591534831595" lon="5.630225873615655"><ele>604.0</ele><time>2026-04-28T08:13:36Z</time></trkpt><trkpt lat="45.00252604271156" lon="5.63017037307746"><ele>604.0</ele><time>2026-04-28T08:13:39Z</time></trkpt><trkpt lat="45.00246015692934" lon="5.630112798168038"><ele>604.0</ele><time>2026-04-28T08:13:42Z</time></trkpt><trkpt lat="45.00238127206957" lon="5.63006793976745"><ele>604.0</ele><time>2026-04-28T08:13:45Z</time></trkpt><trkpt lat="45.00230725136424" lon="5.630023261849143"><ele>604.0</ele><time>2026-04-28T08:13:48Z</time></trkpt><trkpt lat="45.002232904966874" lon="5.629971152864569"><ele>604.0</ele><time>2026-04-28T08:13:51Z</time></trkpt><trkpt lat="45.002150215482935" lon="5.629932742101639"><ele>604.5</ele><time>2026-04-28T08:13:53.999Z</time></trkpt><trkpt lat="45.002073463127516" lon="5.629898689638336"><ele>605.0</ele><time>2026-04-28T08:13:56.999Z</time></trkpt><trkpt lat="45.00199528145124" lon="5.6298728635256285"><ele>605.5</ele><time>2026-04-28T08:13:59.999Z</time></trkpt><trkpt lat="45.00191584111938" lon="5.629847025819038"><ele>606.0</ele><time>2026-04-28T08:14:02.999Z</time></trkpt><trkpt lat="45.00183060127024" lon="5.629791758151834"><ele>606.5</ele><time>2026-04-28T08:14:05.999Z</time></trkpt><trkpt lat="45.001743734765355" lon="5.629766083297273"><ele>607.0</ele><time>2026-04-28T08:14:08.999Z</time></trkpt><trkpt lat="45.00166223941531" lon="5.629737322420555"><ele>608.1666666666667</ele><time>2026-04-28T08:14:11.999Z</time></trkpt><trkpt lat="45.001581463531636" lon="5.629701684663082"><ele>609.3333333333334</ele><time>2026-04-28T08:14:14.999Z</time></trkpt><trkpt lat="45.001493955528026" lon="5.629653611972213"><ele>610.5</ele><time>2026-04-28T08:14:17.999Z</time></trkpt><trkpt lat="45.00141740743266" lon="5.629615900590454"><ele>611.6666666666666</ele><time>2026-04-28T08:14:20.999Z</time></trkpt><trkpt lat="45.00132883297629" lon="5.6295877308476685"><ele>612.8333333333333</ele><time>2026-04-28T08:14:23.999Z</time></trkpt><trkpt lat="45.00124747383443" lon="5.629548421303375"><ele>614.0</ele><time>2026-04-28T08:14:26.999Z</time></trkpt><trkpt lat="45.00116261886021" lon="5.629518435507268"><ele>614.0</ele><time>2026-04-28T08:14:29.999Z</time></trkpt><trkpt lat="45.00107279048603" lon="5.629507292739778"><ele>614.0</ele><time>2026-04-28T08:14:32.999Z</time></trkpt><trkpt lat="45.00098508914779" lon="5.629520021256517"><ele>614.0</ele><time>2026-04-28T08:14:35.999Z</time></trkpt><trkpt lat="45.000904035621524" lon="5.629551350347515"><ele>614.0</ele><time>2026-04-28T08:14:38.999Z</time></trkpt><trkpt lat="45.00082915814675" lon="5.629595703120715"><ele>614.0</ele><time>2026-04-28T08:14:41.999Z</time></trkpt><trkpt lat="45.0007482614618" lon="5.629631083637847"><ele>614.0</ele><time>2026-04-28T08:14:44.999Z</time></trkpt><trkpt lat="45.000667018003085" lon="5.629641551097027"><ele>615.1666666666666</ele><time>2026-04-28T08:14:47.999Z</time></trkpt><trkpt lat="45.000583324623264" lon="5.629656788109668"><ele>616.3333333333333</ele><time>2026-04-28T08:14:50.999Z</time></trkpt><trkpt lat="45.00049425195244" lon="5.62963066137488"><ele>617.5</ele><time>2026-04-28T08:14:53.999Z</time></trkpt><trkpt lat="45.0004349460381" lon="5.629597700014928"><ele>618.6666666666666</ele><time>2026-04-28T08:14:56Z</time></trkpt><trkpt lat="45.00034985751115" lon="5.6295503200224655"><ele>619.8333333333334</ele><time>2026-04-28T08:14:59Z</time></trkpt><trkpt lat="45.00026332834281" lon="5.629504239293108"><ele>621.0</ele><time>2026-04-28T08:15:02Z</time></trkpt><trkpt lat="45.00020160643977" lon="5.629471113790813"><ele>621.1428571428571</ele><time>2026-04-28T08:15:04Z</time></trkpt><trkpt lat="45.00013851986721" lon="5.6294423079568565"><ele>621.2857142857142</ele><time>2026-04-28T08:15:06Z</time></trkpt><trkpt lat="45.000075534626184" lon="5.629406338248135"><ele>621.4285714285713</ele><time>2026-04-28T08:15:08Z</time></trkpt><trkpt lat="45.00000683768749" lon="5.6293959390948345"><ele>621.5714285714286</ele><time>2026-04-28T08:15:10Z</time></trkpt><trkpt lat="44.99993675969499" lon="5.629323395018973"><ele>621.7142857142858</ele><time>2026-04-28T08:15:13Z</time></trkpt><trkpt lat="44.99995654229295" lon="5.629222850287316"><ele>621.8571428571428</ele><time>2026-04-28T08:15:15Z</time></trkpt><trkpt lat="45.00000628930025" lon="5.629140634372063"><ele>622.0</ele><time>2026-04-28T08:15:17Z</time></trkpt><trkpt lat="45.00005631108611" lon="5.62902721952887"><ele>622.0</ele><time>2026-04-28T08:15:20Z</time></trkpt><trkpt lat="45.00010585452272" lon="5.628918076710872"><ele>622.0</ele><time>2026-04-28T08:15:23Z</time></trkpt><trkpt lat="45.00015657631392" lon="5.62881006494931"><ele>622.0</ele><time>2026-04-28T08:15:26Z</time></trkpt><trkpt lat="45.00020154247798" lon="5.628694204781764"><ele>622.0</ele><time>2026-04-28T08:15:29Z</time></trkpt><trkpt lat="45.00022880281741" lon="5.6285678955282235"><ele>622.0</ele><time>2026-04-28T08:15:32Z</time></trkpt><trkpt lat="45.000271698352215" lon="5.628460535246618"><ele>622.8333333333334</ele><time>2026-04-28T08:15:35Z</time></trkpt><trkpt lat="45.00029905089308" lon="5.628340980248474"><ele>623.6666666666667</ele><time>2026-04-28T08:15:38Z</time></trkpt><trkpt lat="45.00032859121957" lon="5.6282305317679855"><ele>624.5</ele><time>2026-04-28T08:15:41Z</time></trkpt><trkpt lat="45.00036381918036" lon="5.628116167835638"><ele>625.3333333333334</ele><time>2026-04-28T08:15:44Z</time></trkpt><trkpt lat="45.000390742064226" lon="5.62799486635762"><ele>626.1666666666666</ele><time>2026-04-28T08:15:47Z</time></trkpt><trkpt lat="45.000423843615835" lon="5.627877951780492"><ele>627.0</ele><time>2026-04-28T08:15:50Z</time></trkpt><trkpt lat="45.000471604710235" lon="5.627798344495591"><ele>628.0</ele><time>2026-04-28T08:15:52Z</time></trkpt><trkpt lat="45.000489933711805" lon="5.627700009619015"><ele>629.0</ele><time>2026-04-28T08:15:55Z</time></trkpt><trkpt lat="45.00051586277773" lon="5.627600997256801"><ele>630.0</ele><time>2026-04-28T08:15:58Z</time></trkpt><trkpt lat="45.000544036605454" lon="5.627500561055908"><ele>631.0</ele><time>2026-04-28T08:16:01Z</time></trkpt><trkpt lat="45.000566283503844" lon="5.627395962330766"><ele>632.0</ele><time>2026-04-28T08:16:03.999Z</time></trkpt><trkpt lat="45.00060644439873" lon="5.627297488909584"><ele>633.0</ele><time>2026-04-28T08:16:06.999Z</time></trkpt><trkpt lat="45.00064009898742" lon="5.6271935431277855"><ele>633.0</ele><time>2026-04-28T08:16:09.999Z</time></trkpt><trkpt lat="45.00066672133842" lon="5.6270940171060335"><ele>633.0</ele><time>2026-04-28T08:16:12.999Z</time></trkpt><trkpt lat="45.00069856788001" lon="5.626992138880285"><ele>633.0</ele><time>2026-04-28T08:16:15.999Z</time></trkpt><trkpt lat="45.00073070287334" lon="5.6268815723045575"><ele>633.0</ele><time>2026-04-28T08:16:18.999Z</time></trkpt><trkpt lat="45.00076584807312" lon="5.626776659230811"><ele>633.0</ele><time>2026-04-28T08:16:21.999Z</time></trkpt><trkpt lat="45.00079136726032" lon="5.626670136478384"><ele>633.0</ele><time>2026-04-28T08:16:24.999Z</time></trkpt><trkpt lat="45.00082751130365" lon="5.626561527205179"><ele>633.6666666666666</ele><time>2026-04-28T08:16:27.999Z</time></trkpt><trkpt lat="45.00085534229721" lon="5.6264545742444625"><ele>634.3333333333334</ele><time>2026-04-28T08:16:30.999Z</time></trkpt><trkpt lat="45.00088774836185" lon="5.626346448153219"><ele>635.0</ele><time>2026-04-28T08:16:33.999Z</time></trkpt><trkpt lat="45.00091671126813" lon="5.626243722293787"><ele>635.6666666666667</ele><time>2026-04-28T08:16:36.999Z</time></trkpt><trkpt lat="45.00094598572263" lon="5.626141125934915"><ele>636.3333333333334</ele><time>2026-04-28T08:16:39.999Z</time></trkpt><trkpt lat="45.00096719391875" lon="5.626041912034468"><ele>637.0</ele><time>2026-04-28T08:16:42.999Z</time></trkpt><trkpt lat="45.00099418350652" lon="5.625940435445549"><ele>637.8571428571429</ele><time>2026-04-28T08:16:45.999Z</time></trkpt><trkpt lat="45.001029278735224" lon="5.625851317888794"><ele>638.7142857142858</ele><time>2026-04-28T08:16:48.999Z</time></trkpt><trkpt lat="45.00104955675215" lon="5.625762521921593"><ele>639.5714285714286</ele><time>2026-04-28T08:16:51.999Z</time></trkpt><trkpt lat="45.00107928038506" lon="5.625672265624206"><ele>640.4285714285714</ele><time>2026-04-28T08:16:54.999Z</time></trkpt><trkpt lat="45.00110321987478" lon="5.625577579340802"><ele>641.2857142857143</ele><time>2026-04-28T08:16:57.999Z</time></trkpt><trkpt lat="45.00113630677701" lon="5.625484224960011"><ele>642.1428571428571</ele><time>2026-04-28T08:17:01Z</time></trkpt><trkpt lat="45.00116258690883" lon="5.625388959293392"><ele>643.0</ele><time>2026-04-28T08:17:04Z</time></trkpt><trkpt lat="45.001191866272016" lon="5.625291739810062"><ele>644.0</ele><time>2026-04-28T08:17:07Z</time></trkpt><trkpt lat="45.00122554004263" lon="5.625193810678112"><ele>645.0</ele><time>2026-04-28T08:17:10Z</time></trkpt><trkpt lat="45.001270863130976" lon="5.625117250471133"><ele>646.0</ele><time>2026-04-28T08:17:13Z</time></trkpt><trkpt lat="45.00133117424651" lon="5.625043631995797"><ele>647.0</ele><time>2026-04-28T08:17:16Z</time></trkpt><trkpt lat="45.001390932333535" lon="5.62498319576057"><ele>648.0</ele><time>2026-04-28T08:17:19Z</time></trkpt><trkpt lat="45.00146302653019" lon="5.624944214580252"><ele>649.0</ele><time>2026-04-28T08:17:22Z</time></trkpt><trkpt lat="45.001538953819924" lon="5.624907576923832"><ele>649.0</ele><time>2026-04-28T08:17:25Z</time></trkpt><trkpt lat="45.00161925953341" lon="5.6248693149244335"><ele>649.0</ele><time>2026-04-28T08:17:28Z</time></trkpt><trkpt lat="45.00169574098293" lon="5.624835405584824"><ele>649.0</ele><time>2026-04-28T08:17:31Z</time></trkpt><trkpt lat="45.001773365088255" lon="5.624807453162064"><ele>649.0</ele><time>2026-04-28T08:17:34Z</time></trkpt><trkpt lat="45.00184844872959" lon="5.624774068545968"><ele>649.0</ele><time>2026-04-28T08:17:37Z</time></trkpt><trkpt lat="45.001925601569226" lon="5.6247463732692395"><ele>649.0</ele><time>2026-04-28T08:17:40Z</time></trkpt><trkpt lat="45.00200644560135" lon="5.624719705280469"><ele>648.6666666666667</ele><time>2026-04-28T08:17:43Z</time></trkpt><trkpt lat="45.002083180966416" lon="5.6246780087897434"><ele>648.3333333333334</ele><time>2026-04-28T08:17:46Z</time></trkpt><trkpt lat="45.00216292553159" lon="5.624649675586653"><ele>648.0</ele><time>2026-04-28T08:17:49Z</time></trkpt><trkpt lat="45.00224114926945" lon="5.624621917759656"><ele>647.6666666666666</ele><time>2026-04-28T08:17:52Z</time></trkpt><trkpt lat="45.00231663945659" lon="5.624583864322917"><ele>647.3333333333333</ele><time>2026-04-28T08:17:55Z</time></trkpt><trkpt lat="45.00239175488533" lon="5.624555788452185"><ele>647.0</ele><time>2026-04-28T08:17:58Z</time></trkpt><trkpt lat="45.002473197219445" lon="5.624524796052609"><ele>647.5</ele><time>2026-04-28T08:18:01Z</time></trkpt><trkpt lat="45.002548871255776" lon="5.6244853506169505"><ele>648.0</ele><time>2026-04-28T08:18:04Z</time></trkpt><trkpt lat="45.00262364204198" lon="5.624455655991029"><ele>648.5</ele><time>2026-04-28T08:18:06.999Z</time></trkpt><trkpt lat="45.002701331252325" lon="5.624439504602453"><ele>649.0</ele><time>2026-04-28T08:18:09.999Z</time></trkpt><trkpt lat="45.00277734175501" lon="5.624412393337277"><ele>649.5</ele><time>2026-04-28T08:18:12.999Z</time></trkpt><trkpt lat="45.002850645251335" lon="5.624389346557821"><ele>650.0</ele><time>2026-04-28T08:18:15.999Z</time></trkpt><trkpt lat="45.00293105380127" lon="5.624369840801062"><ele>652.5</ele><time>2026-04-28T08:18:18.999Z</time></trkpt><trkpt lat="45.00301147041518" lon="5.624343792076766"><ele>655.0</ele><time>2026-04-28T08:18:21.999Z</time></trkpt><trkpt lat="45.00309206590141" lon="5.624330812685616"><ele>657.5</ele><time>2026-04-28T08:18:24.999Z</time></trkpt><trkpt lat="45.00317253381502" lon="5.62431766820502"><ele>660.0</ele><time>2026-04-28T08:18:27.999Z</time></trkpt><trkpt lat="45.00325221155508" lon="5.624301053542233"><ele>662.5</ele><time>2026-04-28T08:18:30.999Z</time></trkpt><trkpt lat="45.003331513970465" lon="5.624294319178667"><ele>665.0</ele><time>2026-04-28T08:18:33.999Z</time></trkpt><trkpt lat="45.00341122866718" lon="5.62428345458051"><ele>666.3333333333333</ele><time>2026-04-28T08:18:36.999Z</time></trkpt><trkpt lat="45.0034877808956" lon="5.62428233927774"><ele>667.6666666666666</ele><time>2026-04-28T08:18:39.999Z</time></trkpt><trkpt lat="45.00356990934416" lon="5.624279371231179"><ele>669.0</ele><time>2026-04-28T08:18:42.999Z</time></trkpt><trkpt lat="45.003651159897366" lon="5.6242869414192445"><ele>670.3333333333334</ele><time>2026-04-28T08:18:45.999Z</time></trkpt><trkpt lat="45.003732306722235" lon="5.624303904701734"><ele>671.6666666666667</ele><time>2026-04-28T08:18:48.999Z</time></trkpt><trkpt lat="45.003813644975864" lon="5.6243231872612585"><ele>673.0</ele><time>2026-04-28T08:18:51.999Z</time></trkpt><trkpt lat="45.003893534478486" lon="5.62434732534317"><ele>673.0</ele><time>2026-04-28T08:18:54.999Z</time></trkpt><trkpt lat="45.00396785237688" lon="5.624374983508613"><ele>673.0</ele><time>2026-04-28T08:18:57.999Z</time></trkpt><trkpt lat="45.00404106336023" lon="5.624417269730133"><ele>673.0</ele><time>2026-04-28T08:19:00.999Z</time></trkpt><trkpt lat="45.00411035313011" lon="5.624490329056089"><ele>673.0</ele><time>2026-04-28T08:19:03.999Z</time></trkpt><trkpt lat="45.00416897388292" lon="5.624570882373739"><ele>673.0</ele><time>2026-04-28T08:19:07Z</time></trkpt><trkpt lat="45.00424075012908" lon="5.624644785567659"><ele>673.0</ele><time>2026-04-28T08:19:10Z</time></trkpt><trkpt lat="45.00430132537468" lon="5.62471545235724"><ele>671.3333333333334</ele><time>2026-04-28T08:19:13Z</time></trkpt><trkpt lat="45.004385484834955" lon="5.624763321428175"><ele>669.6666666666667</ele><time>2026-04-28T08:19:16Z</time></trkpt><trkpt lat="45.00444411540001" lon="5.62472704401917"><ele>668.0</ele><time>2026-04-28T08:19:18Z</time></trkpt><trkpt lat="45.00450654294992" lon="5.624633315004103"><ele>666.3333333333334</ele><time>2026-04-28T08:19:21Z</time></trkpt><trkpt lat="45.00452322915781" lon="5.624517961803316"><ele>664.6666666666666</ele><time>2026-04-28T08:19:24Z</time></trkpt><trkpt lat="45.0044650745829" lon="5.624417214388167"><ele>663.0</ele><time>2026-04-28T08:19:27Z</time></trkpt><trkpt lat="45.004405596267304" lon="5.6243701890031685"><ele>664.6666666666666</ele><time>2026-04-28T08:19:29Z</time></trkpt><trkpt lat="45.00434916907363" lon="5.624330345995627"><ele>666.3333333333334</ele><time>2026-04-28T08:19:31Z</time></trkpt><trkpt lat="45.00427520830299" lon="5.624273784738924"><ele>668.0</ele><time>2026-04-28T08:19:33Z</time></trkpt><trkpt lat="45.00420766823951" lon="5.624211856073894"><ele>669.6666666666667</ele><time>2026-04-28T08:19:35Z</time></trkpt><trkpt lat="45.00414303137815" lon="5.624161310041425"><ele>671.3333333333334</ele><time>2026-04-28T08:19:37Z</time></trkpt><trkpt lat="45.00408728032109" lon="5.624114686493895"><ele>673.0</ele><time>2026-04-28T08:19:39Z</time></trkpt><trkpt lat="45.00400965062813" lon="5.62406278676117"><ele>673.0</ele><time>2026-04-28T08:19:42Z</time></trkpt><trkpt lat="45.003937408451634" lon="5.624007659740442"><ele>673.0</ele><time>2026-04-28T08:19:45Z</time></trkpt><trkpt lat="45.00387030673418" lon="5.623944394857999"><ele>673.0</ele><time>2026-04-28T08:19:48Z</time></trkpt><trkpt lat="45.00379631305226" lon="5.6238846805330525"><ele>673.0</ele><time>2026-04-28T08:19:51Z</time></trkpt><trkpt lat="45.00371480057997" lon="5.623846695900818"><ele>673.0</ele><time>2026-04-28T08:19:54Z</time></trkpt><trkpt lat="45.003628394685556" lon="5.62382026602207"><ele>673.0</ele><time>2026-04-28T08:19:57Z</time></trkpt><trkpt lat="45.003549390433946" lon="5.623784463283158"><ele>673.0</ele><time>2026-04-28T08:20:00Z</time></trkpt><trkpt lat="45.00346473879772" lon="5.623743360575192"><ele>673.0</ele><time>2026-04-28T08:20:03Z</time></trkpt><trkpt lat="45.00338181233019" lon="5.623713889946252"><ele>673.0</ele><time>2026-04-28T08:20:06Z</time></trkpt><trkpt lat="45.003302259319305" lon="5.623675808411053"><ele>673.0</ele><time>2026-04-28T08:20:09Z</time></trkpt><trkpt lat="45.00322187470043" lon="5.623645658843169"><ele>673.0</ele><time>2026-04-28T08:20:11.999Z</time></trkpt><trkpt lat="45.00314209830428" lon="5.623612973882263"><ele>673.0</ele><time>2026-04-28T08:20:14.999Z</time></trkpt><trkpt lat="45.0030588815978" lon="5.623589953969611"><ele>678.1666666666667</ele><time>2026-04-28T08:20:17.999Z</time></trkpt><trkpt lat="45.00297714182325" lon="5.623556649196325"><ele>683.3333333333334</ele><time>2026-04-28T08:20:20.999Z</time></trkpt><trkpt lat="45.002897534888696" lon="5.623518259169385"><ele>688.5</ele><time>2026-04-28T08:20:23.999Z</time></trkpt><trkpt lat="45.002814462983935" lon="5.623484487155091"><ele>693.6666666666666</ele><time>2026-04-28T08:20:26.999Z</time></trkpt><trkpt lat="45.00273456413121" lon="5.623459502785504"><ele>698.8333333333333</ele><time>2026-04-28T08:20:29.999Z</time></trkpt><trkpt lat="45.002652735980746" lon="5.623434960253822"><ele>704.0</ele><time>2026-04-28T08:20:32.999Z</time></trkpt><trkpt lat="45.0025707174805" lon="5.623401484768268"><ele>701.8333333333333</ele><time>2026-04-28T08:20:35.999Z</time></trkpt><trkpt lat="45.00249358029135" lon="5.623371853620917"><ele>699.6666666666666</ele><time>2026-04-28T08:20:38.999Z</time></trkpt><trkpt lat="45.00241904894693" lon="5.623339866472198"><ele>697.5</ele><time>2026-04-28T08:20:41.999Z</time></trkpt><trkpt lat="45.00234650089511" lon="5.62330512846484"><ele>695.3333333333334</ele><time>2026-04-28T08:20:44.999Z</time></trkpt><trkpt lat="45.00226884468488" lon="5.623280684152043"><ele>693.1666666666667</ele><time>2026-04-28T08:20:47.999Z</time></trkpt><trkpt lat="45.0021947942875" lon="5.62324186503666"><ele>691.0</ele><time>2026-04-28T08:20:50.999Z</time></trkpt><trkpt lat="45.002122939631235" lon="5.623195781128965"><ele>690.9999999999999</ele><time>2026-04-28T08:20:53.999Z</time></trkpt><trkpt lat="45.0020505689481" lon="5.62316723843345"><ele>691.0</ele><time>2026-04-28T08:20:56.999Z</time></trkpt><trkpt lat="45.00198592927649" lon="5.623129821423627"><ele>691.0</ele><time>2026-04-28T08:20:59.999Z</time></trkpt><trkpt lat="45.001921517397996" lon="5.623079943316941"><ele>691.0</ele><time>2026-04-28T08:21:02.999Z</time></trkpt><trkpt lat="45.00185386168303" lon="5.6230498441456245"><ele>691.0</ele><time>2026-04-28T08:21:05.999Z</time></trkpt><trkpt lat="45.00178420821541" lon="5.623008376844149"><ele>690.9999999999999</ele><time>2026-04-28T08:21:08.999Z</time></trkpt><trkpt lat="45.00172048694991" lon="5.622964739717758"><ele>691.0</ele><time>2026-04-28T08:21:11.999Z</time></trkpt><trkpt lat="45.001662413581506" lon="5.6229023175439075"><ele>689.6666666666667</ele><time>2026-04-28T08:21:15Z</time></trkpt><trkpt lat="45.001590445018195" lon="5.6228589780753895"><ele>688.3333333333334</ele><time>2026-04-28T08:21:18Z</time></trkpt><trkpt lat="45.00153200573328" lon="5.622818081230831"><ele>687.0</ele><time>2026-04-28T08:21:21Z</time></trkpt><trkpt lat="45.00146788410919" lon="5.622782223415275"><ele>685.6666666666666</ele><time>2026-04-28T08:21:24Z</time></trkpt><trkpt lat="45.00138568657048" lon="5.622725029131344"><ele>684.3333333333333</ele><time>2026-04-28T08:21:28Z</time></trkpt><trkpt lat="45.00131522325852" lon="5.622669184995146"><ele>683.0</ele><time>2026-04-28T08:21:31Z</time></trkpt><trkpt lat="45.0012353782163" lon="5.622620024191911"><ele>686.1666666666666</ele><time>2026-04-28T08:21:34Z</time></trkpt><trkpt lat="45.00115813276679" lon="5.622572546602134"><ele>689.3333333333333</ele><time>2026-04-28T08:21:37Z</time></trkpt><trkpt lat="45.0010932856465" lon="5.62255237142847"><ele>692.5</ele><time>2026-04-28T08:21:39Z</time></trkpt><trkpt lat="45.001037588848966" lon="5.622495123722218"><ele>695.6666666666666</ele><time>2026-04-28T08:21:42Z</time></trkpt><trkpt lat="45.00097002968048" lon="5.622438032047327"><ele>698.8333333333334</ele><time>2026-04-28T08:21:45Z</time></trkpt><trkpt lat="45.00089326969323" lon="5.622386176931843"><ele>702.0</ele><time>2026-04-28T08:21:48Z</time></trkpt><trkpt lat="45.000822820266144" lon="5.62233774293792"><ele>702.0</ele><time>2026-04-28T08:21:51Z</time></trkpt><trkpt lat="45.000743023745265" lon="5.622301988906343"><ele>702.0</ele><time>2026-04-28T08:21:54Z</time></trkpt><trkpt lat="45.00066656726575" lon="5.622257548291887"><ele>702.0</ele><time>2026-04-28T08:21:57Z</time></trkpt><trkpt lat="45.0005918876507" lon="5.622219756214481"><ele>702.0</ele><time>2026-04-28T08:22:00Z</time></trkpt><trkpt lat="45.00052016550202" lon="5.622220953442107"><ele>702.0</ele><time>2026-04-28T08:22:02Z</time></trkpt><trkpt lat="45.00044337797597" lon="5.62217701743518"><ele>702.0</ele><time>2026-04-28T08:22:05Z</time></trkpt><trkpt lat="45.00035988344962" lon="5.622147125570666"><ele>702.0</ele><time>2026-04-28T08:22:08Z</time></trkpt><trkpt lat="45.000271927265196" lon="5.6221120131786675"><ele>702.0</ele><time>2026-04-28T08:22:11Z</time></trkpt><trkpt lat="45.00017991965538" lon="5.622091221751244"><ele>702.0</ele><time>2026-04-28T08:22:14Z</time></trkpt><trkpt lat="45.00011788191484" lon="5.622075097237674"><ele>702.0</ele><time>2026-04-28T08:22:16Z</time></trkpt><trkpt lat="45.00003063798654" lon="5.622037021949854"><ele>702.0</ele><time>2026-04-28T08:22:18.999Z</time></trkpt><trkpt lat="44.999955786802616" lon="5.621978095738861"><ele>702.0</ele><time>2026-04-28T08:22:21.999Z</time></trkpt><trkpt lat="44.99994570076147" lon="5.621862949095252"><ele>707.0</ele><time>2026-04-28T08:22:24.999Z</time></trkpt><trkpt lat="44.99999589456777" lon="5.621800858406236"><ele>712.0</ele><time>2026-04-28T08:22:26.999Z</time></trkpt><trkpt lat="45.000064270920475" lon="5.621803942545235"><ele>717.0</ele><time>2026-04-28T08:22:28.999Z</time></trkpt><trkpt lat="45.00014589495012" lon="5.621825805559982"><ele>722.0</ele><time>2026-04-28T08:22:31.999Z</time></trkpt><trkpt lat="45.00022069675097" lon="5.621888330892082"><ele>727.0</ele><time>2026-04-28T08:22:34.999Z</time></trkpt><trkpt lat="45.00030022587414" lon="5.621943892751882"><ele>732.0</ele><time>2026-04-28T08:22:37.999Z</time></trkpt><trkpt lat="45.00038847953812" lon="5.621960445439731"><ele>732.0</ele><time>2026-04-28T08:22:40.999Z</time></trkpt><trkpt lat="45.000477066384285" lon="5.621962886328467"><ele>732.0</ele><time>2026-04-28T08:22:43.999Z</time></trkpt><trkpt lat="45.000569905120855" lon="5.621951265222198"><ele>732.0</ele><time>2026-04-28T08:22:47.999Z</time></trkpt><trkpt lat="45.00064750160067" lon="5.621943644300018"><ele>732.0</ele><time>2026-04-28T08:22:50.999Z</time></trkpt><trkpt lat="45.00072287254061" lon="5.621928885781708"><ele>732.0</ele><time>2026-04-28T08:22:53.999Z</time></trkpt><trkpt lat="45.000798302691344" lon="5.62193269932692"><ele>732.0</ele><time>2026-04-28T08:22:56.999Z</time></trkpt><trkpt lat="45.000883771673955" lon="5.62195004754564"><ele>733.8333333333334</ele><time>2026-04-28T08:22:59.999Z</time></trkpt><trkpt lat="45.0009601563947" lon="5.6219762462211955"><ele>735.6666666666666</ele><time>2026-04-28T08:23:02.999Z</time></trkpt><trkpt lat="45.00102627233681" lon="5.622000810975367"><ele>737.5</ele><time>2026-04-28T08:23:05.999Z</time></trkpt><trkpt lat="45.001092264894254" lon="5.622023531810226"><ele>739.3333333333333</ele><time>2026-04-28T08:23:07.999Z</time></trkpt><trkpt lat="45.001180088733385" lon="5.622065279445825"><ele>741.1666666666666</ele><time>2026-04-28T08:23:11.999Z</time></trkpt><trkpt lat="45.001264572686885" lon="5.622095632851247"><ele>743.0</ele><time>2026-04-28T08:23:14.999Z</time></trkpt><trkpt lat="45.001340204040105" lon="5.622124721285822"><ele>741.0</ele><time>2026-04-28T08:23:17.999Z</time></trkpt><trkpt lat="45.00141431162626" lon="5.622164690166408"><ele>739.0</ele><time>2026-04-28T08:23:21Z</time></trkpt><trkpt lat="45.001487008249036" lon="5.622187498020169"><ele>737.0</ele><time>2026-04-28T08:23:24Z</time></trkpt><trkpt lat="45.00156252296415" lon="5.622209652895764"><ele>735.0</ele><time>2026-04-28T08:23:27Z</time></trkpt><trkpt lat="45.00163174063503" lon="5.622249555751846"><ele>733.0</ele><time>2026-04-28T08:23:30Z</time></trkpt><trkpt lat="45.00169858121778" lon="5.622272707370446"><ele>731.0</ele><time>2026-04-28T08:23:33Z</time></trkpt><trkpt lat="45.00177457710806" lon="5.622288560801728"><ele>731.0</ele><time>2026-04-28T08:23:36Z</time></trkpt><trkpt lat="45.001844134746555" lon="5.6223051835836335"><ele>731.0</ele><time>2026-04-28T08:23:39Z</time></trkpt><trkpt lat="45.00192062910284" lon="5.62232301026597"><ele>731.0</ele><time>2026-04-28T08:23:42Z</time></trkpt><trkpt lat="45.001987309404484" lon="5.622338299116394"><ele>731.0</ele><time>2026-04-28T08:23:45Z</time></trkpt><trkpt lat="45.002051091648084" lon="5.622357408601284"><ele>731.0</ele><time>2026-04-28T08:23:48Z</time></trkpt><trkpt lat="45.002120375143264" lon="5.622366771096287"><ele>731.0</ele><time>2026-04-28T08:23:51Z</time></trkpt><trkpt lat="45.00218388181544" lon="5.6223900881710565"><ele>731.0</ele><time>2026-04-28T08:23:54Z</time></trkpt><trkpt lat="45.00225191203573" lon="5.622405591490896"><ele>731.0</ele><time>2026-04-28T08:23:57Z</time></trkpt><trkpt lat="45.00232752507127" lon="5.622420616633843"><ele>731.0</ele><time>2026-04-28T08:24:00Z</time></trkpt><trkpt lat="45.002399168044654" lon="5.622428076335223"><ele>731.0</ele><time>2026-04-28T08:24:03Z</time></trkpt><trkpt lat="45.00247091149411" lon="5.6224313340570555"><ele>731.0</ele><time>2026-04-28T08:24:06Z</time></trkpt><trkpt lat="45.00253600644791" lon="5.622444213192808"><ele>731.0</ele><time>2026-04-28T08:24:09Z</time></trkpt><trkpt lat="45.00260753468482" lon="5.622437367887592"><ele>731.0</ele><time>2026-04-28T08:24:12Z</time></trkpt><trkpt lat="45.00267663258013" lon="5.622443937563306"><ele>731.0</ele><time>2026-04-28T08:24:15Z</time></trkpt><trkpt lat="45.00274351899744" lon="5.622442184539963"><ele>731.8571428571429</ele><time>2026-04-28T08:24:17.999Z</time></trkpt><trkpt lat="45.00280893723621" lon="5.622444913548712"><ele>732.7142857142857</ele><time>2026-04-28T08:24:20.999Z</time></trkpt><trkpt lat="45.0028805145557" lon="5.622449430037776"><ele>733.5714285714287</ele><time>2026-04-28T08:24:23.999Z</time></trkpt><trkpt lat="45.00295462855588" lon="5.622458565584734"><ele>734.4285714285714</ele><time>2026-04-28T08:24:26.999Z</time></trkpt><trkpt lat="45.0030274828928" lon="5.622459415094007"><ele>735.2857142857143</ele><time>2026-04-28T08:24:29.999Z</time></trkpt><trkpt lat="45.003094033147875" lon="5.622450551973498"><ele>736.1428571428572</ele><time>2026-04-28T08:24:32.999Z</time></trkpt><trkpt lat="45.003164804520786" lon="5.622443993997434"><ele>737.0</ele><time>2026-04-28T08:24:35.999Z</time></trkpt><trkpt lat="45.00323779613649" lon="5.6224527286386365"><ele>737.0</ele><time>2026-04-28T08:24:38.999Z</time></trkpt><trkpt lat="45.00331302004448" lon="5.6224608533986755"><ele>737.0</ele><time>2026-04-28T08:24:41.999Z</time></trkpt><trkpt lat="45.00337869461329" lon="5.62248352643782"><ele>737.0</ele><time>2026-04-28T08:24:44.999Z</time></trkpt><trkpt lat="45.003464765970314" lon="5.622501214070123"><ele>737.0</ele><time>2026-04-28T08:24:47.999Z</time></trkpt><trkpt lat="45.00355186626506" lon="5.622478188516601"><ele>737.0</ele><time>2026-04-28T08:24:51.999Z</time></trkpt><trkpt lat="45.00362730943805" lon="5.622471119219738"><ele>737.0</ele><time>2026-04-28T08:24:54.999Z</time></trkpt><trkpt lat="45.00369641192364" lon="5.622473528789865"><ele>738.3333333333333</ele><time>2026-04-28T08:24:57.999Z</time></trkpt><trkpt lat="45.00378952585048" lon="5.622470438865862"><ele>739.6666666666666</ele><time>2026-04-28T08:25:01.999Z</time></trkpt><trkpt lat="45.00387642843915" lon="5.622462019286175"><ele>741.0</ele><time>2026-04-28T08:25:04.999Z</time></trkpt><trkpt lat="45.00395937864815" lon="5.622456596918148"><ele>742.3333333333334</ele><time>2026-04-28T08:25:07.999Z</time></trkpt><trkpt lat="45.00404891869323" lon="5.622453042584796"><ele>743.6666666666667</ele><time>2026-04-28T08:25:10.999Z</time></trkpt><trkpt lat="45.004118839624816" lon="5.622443277763514"><ele>745.0</ele><time>2026-04-28T08:25:13.999Z</time></trkpt><trkpt lat="45.00419217726863" lon="5.622434701212502"><ele>745.4285714285714</ele><time>2026-04-28T08:25:16.999Z</time></trkpt><trkpt lat="45.004258106711355" lon="5.622432267517895"><ele>745.8571428571429</ele><time>2026-04-28T08:25:19.999Z</time></trkpt><trkpt lat="45.004330371512076" lon="5.622426552714334"><ele>746.2857142857142</ele><time>2026-04-28T08:25:22.999Z</time></trkpt><trkpt lat="45.00441493635235" lon="5.622402363434264"><ele>746.7142857142858</ele><time>2026-04-28T08:25:26Z</time></trkpt><trkpt lat="45.00449952897694" lon="5.622391381248705"><ele>747.1428571428572</ele><time>2026-04-28T08:25:29Z</time></trkpt><trkpt lat="45.00457270183146" lon="5.622379008830073"><ele>747.5714285714286</ele><time>2026-04-28T08:25:32Z</time></trkpt><trkpt lat="45.00463703010054" lon="5.6223771450023845"><ele>748.0</ele><time>2026-04-28T08:25:35Z</time></trkpt><trkpt lat="45.00472057934673" lon="5.622351709807368"><ele>748.0</ele><time>2026-04-28T08:25:38Z</time></trkpt><trkpt lat="45.00478454091071" lon="5.622333286060718"><ele>748.0</ele><time>2026-04-28T08:25:41Z</time></trkpt><trkpt lat="45.00485867845006" lon="5.622280378562153"><ele>748.0</ele><time>2026-04-28T08:25:44Z</time></trkpt><trkpt lat="45.00492199707716" lon="5.6222158076292885"><ele>748.0</ele><time>2026-04-28T08:25:47Z</time></trkpt><trkpt lat="45.0049799417815" lon="5.622120179230744"><ele>748.0</ele><time>2026-04-28T08:25:50Z</time></trkpt><trkpt lat="45.005029659151965" lon="5.622037172323979"><ele>748.0</ele><time>2026-04-28T08:25:53Z</time></trkpt><trkpt lat="45.005081168914856" lon="5.621956239439366"><ele>755.0</ele><time>2026-04-28T08:25:56Z</time></trkpt><trkpt lat="45.005125264189154" lon="5.621868235720689"><ele>762.0</ele><time>2026-04-28T08:25:59Z</time></trkpt><trkpt lat="45.005165921090246" lon="5.62177898295243"><ele>769.0</ele><time>2026-04-28T08:26:02Z</time></trkpt><trkpt lat="45.00520447032548" lon="5.621677759686125"><ele>776.0</ele><time>2026-04-28T08:26:05Z</time></trkpt><trkpt lat="45.0052463008726" lon="5.621604394965509"><ele>782.9999999999999</ele><time>2026-04-28T08:26:08Z</time></trkpt><trkpt lat="45.00529049266735" lon="5.621507869607112"><ele>790.0</ele><time>2026-04-28T08:26:11Z</time></trkpt><trkpt lat="45.005341286303384" lon="5.621417474123508"><ele>789.9999999999999</ele><time>2026-04-28T08:26:14Z</time></trkpt><trkpt lat="45.00536610859393" lon="5.621321790703058"><ele>790.0</ele><time>2026-04-28T08:26:17Z</time></trkpt><trkpt lat="45.00539233386799" lon="5.621221289584812"><ele>790.0</ele><time>2026-04-28T08:26:20Z</time></trkpt><trkpt lat="45.00542958007365" lon="5.621144683516045"><ele>790.0</ele><time>2026-04-28T08:26:22.999Z</time></trkpt><trkpt lat="45.005491532494425" lon="5.621071974822285"><ele>789.9999999999999</ele><time>2026-04-28T08:26:25.999Z</time></trkpt><trkpt lat="45.00552655696028" lon="5.620993856223875"><ele>790.0</ele><time>2026-04-28T08:26:28.999Z</time></trkpt><trkpt lat="45.00560646189026" lon="5.620914425674578"><ele>790.0</ele><time>2026-04-28T08:26:31.999Z</time></trkpt><trkpt lat="45.0056601363718" lon="5.620866036827153"><ele>790.0</ele><time>2026-04-28T08:26:34.999Z</time></trkpt><trkpt lat="45.0057229449651" lon="5.6208598494500475"><ele>790.0</ele><time>2026-04-28T08:26:36.999Z</time></trkpt><trkpt lat="45.00580604635145" lon="5.620823825349256"><ele>790.0</ele><time>2026-04-28T08:26:39.999Z</time></trkpt><trkpt lat="45.00588241837912" lon="5.620812878196615"><ele>790.0</ele><time>2026-04-28T08:26:42.999Z</time></trkpt><trkpt lat="45.005943229559186" lon="5.62078749987189"><ele>790.0</ele><time>2026-04-28T08:26:44.999Z</time></trkpt><trkpt lat="45.00600871098817" lon="5.6207638260711015"><ele>790.0</ele><time>2026-04-28T08:26:46.999Z</time></trkpt><trkpt lat="45.006082113087835" lon="5.620746338478486"><ele>789.9999999999999</ele><time>2026-04-28T08:26:49.999Z</time></trkpt><trkpt lat="45.00616195058775" lon="5.620704873087628"><ele>790.0</ele><time>2026-04-28T08:26:52.999Z</time></trkpt><trkpt lat="45.0062390340128" lon="5.620693803905244"><ele>790.0</ele><time>2026-04-28T08:26:55.999Z</time></trkpt><trkpt lat="45.00630399390063" lon="5.620649655550607"><ele>790.0</ele><time>2026-04-28T08:26:58.999Z</time></trkpt><trkpt lat="45.0063729897764" lon="5.620656794907275"><ele>789.9999999999999</ele><time>2026-04-28T08:27:00.999Z</time></trkpt><trkpt lat="45.006433263232715" lon="5.620630835938131"><ele>790.0</ele><time>2026-04-28T08:27:02.999Z</time></trkpt><trkpt lat="45.00651753492184" lon="5.620604445078662"><ele>789.9999999999999</ele><time>2026-04-28T08:27:05.999Z</time></trkpt><trkpt lat="45.0065902950829" lon="5.6205603869972265"><ele>790.0</ele><time>2026-04-28T08:27:08.999Z</time></trkpt><trkpt lat="45.006645655765695" lon="5.620492972462354"><ele>790.0</ele><time>2026-04-28T08:27:11.999Z</time></trkpt><trkpt lat="45.00670274355465" lon="5.620416307854148"><ele>790.0</ele><time>2026-04-28T08:27:14.999Z</time></trkpt><trkpt lat="45.006754973040415" lon="5.6203273094956065"><ele>789.9999999999999</ele><time>2026-04-28T08:27:17.999Z</time></trkpt><trkpt lat="45.00681450551787" lon="5.620262235399844"><ele>790.0</ele><time>2026-04-28T08:27:20.999Z</time></trkpt><trkpt lat="45.0068759129268" lon="5.620199989370715"><ele>798.0</ele><time>2026-04-28T08:27:23.999Z</time></trkpt><trkpt lat="45.006936651593996" lon="5.620169339107448"><ele>806.0</ele><time>2026-04-28T08:27:26.999Z</time></trkpt><trkpt lat="45.00701201358836" lon="5.620137770083857"><ele>814.0</ele><time>2026-04-28T08:27:29.999Z</time></trkpt><trkpt lat="45.00707523396246" lon="5.620148113548696"><ele>822.0</ele><time>2026-04-28T08:27:32Z</time></trkpt><trkpt lat="45.00714666365178" lon="5.620126781047629"><ele>830.0</ele><time>2026-04-28T08:27:36Z</time></trkpt><trkpt lat="45.00722314057198" lon="5.620117115951335"><ele>838.0</ele><time>2026-04-28T08:27:39Z</time></trkpt><trkpt lat="45.007296425140915" lon="5.620089529818239"><ele>846.0</ele><time>2026-04-28T08:27:42Z</time></trkpt><trkpt lat="45.00736825229336" lon="5.620057885605285"><ele>846.0</ele><time>2026-04-28T08:27:45Z</time></trkpt><trkpt lat="45.0074417194991" lon="5.620021707563823"><ele>846.0</ele><time>2026-04-28T08:27:48Z</time></trkpt><trkpt lat="45.0075137663517" lon="5.619965906264588"><ele>846.0</ele><time>2026-04-28T08:27:52Z</time></trkpt><trkpt lat="45.00759304881755" lon="5.619929792322795"><ele>846.0</ele><time>2026-04-28T08:27:55Z</time></trkpt><trkpt lat="45.007677849675034" lon="5.6199852162766595"><ele>846.0</ele><time>2026-04-28T08:27:58Z</time></trkpt><trkpt lat="45.00772492757112" lon="5.620103706177494"><ele>846.0</ele><time>2026-04-28T08:28:00Z</time></trkpt><trkpt lat="45.00770131935292" lon="5.6202170348659815"><ele>840.5714285714286</ele><time>2026-04-28T08:28:03Z</time></trkpt><trkpt lat="45.00768444484938" lon="5.620316002782474"><ele>835.1428571428572</ele><time>2026-04-28T08:28:06Z</time></trkpt><trkpt lat="45.007660593099786" lon="5.62043242846823"><ele>829.7142857142858</ele><time>2026-04-28T08:28:10Z</time></trkpt><trkpt lat="45.007656298078764" lon="5.620521495532269"><ele>824.2857142857142</ele><time>2026-04-28T08:28:12Z</time></trkpt><trkpt lat="45.0076448760012" lon="5.62061575470708"><ele>818.8571428571429</ele><time>2026-04-28T08:28:15Z</time></trkpt><trkpt lat="45.007650977649" lon="5.620713749065532"><ele>813.4285714285714</ele><time>2026-04-28T08:28:18Z</time></trkpt><trkpt lat="45.00764477068115" lon="5.620824149478399"><ele>808.0</ele><time>2026-04-28T08:28:21Z</time></trkpt><trkpt lat="45.00762674459284" lon="5.620927796441853"><ele>805.1428571428571</ele><time>2026-04-28T08:28:24Z</time></trkpt><trkpt lat="45.00762664294925" lon="5.621034669391734"><ele>802.2857142857142</ele><time>2026-04-28T08:28:27Z</time></trkpt><trkpt lat="45.007632183553284" lon="5.621139717701601"><ele>799.4285714285714</ele><time>2026-04-28T08:28:30Z</time></trkpt><trkpt lat="45.00765406910966" lon="5.621236902634692"><ele>796.5714285714286</ele><time>2026-04-28T08:28:33Z</time></trkpt><trkpt lat="45.00767424284043" lon="5.621334318128757"><ele>793.7142857142858</ele><time>2026-04-28T08:28:36Z</time></trkpt><trkpt lat="45.00770438908715" lon="5.6214329645155425"><ele>790.8571428571429</ele><time>2026-04-28T08:28:39Z</time></trkpt><trkpt lat="45.00774530428629" lon="5.621525544017543"><ele>788.0</ele><time>2026-04-28T08:28:41.999Z</time></trkpt><trkpt lat="45.0078018199718" lon="5.6215812018375635"><ele>786.7142857142858</ele><time>2026-04-28T08:28:44.999Z</time></trkpt><trkpt lat="45.00787912753722" lon="5.621586216461134"><ele>785.4285714285714</ele><time>2026-04-28T08:28:47.999Z</time></trkpt><trkpt lat="45.00794381571409" lon="5.621532602857353"><ele>784.1428571428571</ele><time>2026-04-28T08:28:50.999Z</time></trkpt><trkpt lat="45.00800621457264" lon="5.6214869603411906"><ele>782.8571428571429</ele><time>2026-04-28T08:28:53.999Z</time></trkpt><trkpt lat="45.00807456182823" lon="5.621435732019066"><ele>781.5714285714286</ele><time>2026-04-28T08:28:56.999Z</time></trkpt><trkpt lat="45.00812134479219" lon="5.6213638301785585"><ele>780.2857142857143</ele><time>2026-04-28T08:28:59.999Z</time></trkpt><trkpt lat="45.0081662959556" lon="5.621282998146302"><ele>779.0</ele><time>2026-04-28T08:29:02.999Z</time></trkpt><trkpt lat="45.00820397006198" lon="5.621202566939256"><ele>780.5000000000001</ele><time>2026-04-28T08:29:05.999Z</time></trkpt><trkpt lat="45.008232723484845" lon="5.6211075408538385"><ele>782.0</ele><time>2026-04-28T08:29:08.999Z</time></trkpt><trkpt lat="45.00826604226011" lon="5.6210193297376625"><ele>783.5</ele><time>2026-04-28T08:29:11.999Z</time></trkpt><trkpt lat="45.008304038456195" lon="5.6209186933454065"><ele>785.0</ele><time>2026-04-28T08:29:14.999Z</time></trkpt><trkpt lat="45.008342020192025" lon="5.620831976184998"><ele>786.5000000000001</ele><time>2026-04-28T08:29:17.999Z</time></trkpt><trkpt lat="45.008377196301616" lon="5.620724347779518"><ele>788.0</ele><time>2026-04-28T08:29:20.999Z</time></trkpt><trkpt lat="45.00839787840411" lon="5.620619411276356"><ele>790.1428571428571</ele><time>2026-04-28T08:29:23.999Z</time></trkpt><trkpt lat="45.00842042586731" lon="5.620513541255986"><ele>792.2857142857143</ele><time>2026-04-28T08:29:26.999Z</time></trkpt><trkpt lat="45.00843799082954" lon="5.620423696314308"><ele>794.4285714285713</ele><time>2026-04-28T08:29:29.999Z</time></trkpt><trkpt lat="45.00844643092275" lon="5.6202981847730005"><ele>796.5714285714286</ele><time>2026-04-28T08:29:32.999Z</time></trkpt><trkpt lat="45.00846511112049" lon="5.620210138345778"><ele>798.7142857142857</ele><time>2026-04-28T08:29:34.999Z</time></trkpt><trkpt lat="45.00847537104368" lon="5.620106657676595"><ele>800.8571428571428</ele><time>2026-04-28T08:29:38Z</time></trkpt><trkpt lat="45.00848820953328" lon="5.620007222599439"><ele>803.0</ele><time>2026-04-28T08:29:41Z</time></trkpt><trkpt lat="45.008520160979764" lon="5.619894346410299"><ele>803.6666666666667</ele><time>2026-04-28T08:29:45Z</time></trkpt><trkpt lat="45.008555289366235" lon="5.61980765725883"><ele>804.3333333333334</ele><time>2026-04-28T08:29:48Z</time></trkpt><trkpt lat="45.00858684395312" lon="5.619714242198485"><ele>805.0</ele><time>2026-04-28T08:29:51Z</time></trkpt><trkpt lat="45.008629623936905" lon="5.619626274779308"><ele>805.6666666666667</ele><time>2026-04-28T08:29:54Z</time></trkpt><trkpt lat="45.00867366229453" lon="5.619531677233752"><ele>806.3333333333334</ele><time>2026-04-28T08:29:57Z</time></trkpt><trkpt lat="45.008722588654805" lon="5.619436935357932"><ele>807.0</ele><time>2026-04-28T08:30:01Z</time></trkpt><trkpt lat="45.00878318618005" lon="5.619367512997416"><ele>809.0</ele><time>2026-04-28T08:30:04Z</time></trkpt><trkpt lat="45.00884230504754" lon="5.619333272069656"><ele>811.0</ele><time>2026-04-28T08:30:07Z</time></trkpt><trkpt lat="45.008930316959116" lon="5.619341763599437"><ele>813.0</ele><time>2026-04-28T08:30:10Z</time></trkpt><trkpt lat="45.00899402648008" lon="5.6193733601690425"><ele>815.0</ele><time>2026-04-28T08:30:12Z</time></trkpt><trkpt lat="45.009093416997366" lon="5.6194147247136925"><ele>817.0</ele><time>2026-04-28T08:30:15Z</time></trkpt><trkpt lat="45.00917051706446" lon="5.619446560556672"><ele>819.0</ele><time>2026-04-28T08:30:19Z</time></trkpt><trkpt lat="45.00925250712011" lon="5.619470047310336"><ele>817.1666666666666</ele><time>2026-04-28T08:30:22Z</time></trkpt><trkpt lat="45.0093379267271" lon="5.619508139824537"><ele>815.3333333333333</ele><time>2026-04-28T08:30:26Z</time></trkpt><trkpt lat="45.00941644735584" lon="5.619514186924057"><ele>813.5</ele><time>2026-04-28T08:30:29Z</time></trkpt><trkpt lat="45.00948356693459" lon="5.619530658200974"><ele>811.6666666666666</ele><time>2026-04-28T08:30:32Z</time></trkpt><trkpt lat="45.0095485427795" lon="5.619539874442491"><ele>809.8333333333333</ele><time>2026-04-28T08:30:34Z</time></trkpt><trkpt lat="45.00962512854076" lon="5.619539303343445"><ele>808.0</ele><time>2026-04-28T08:30:37Z</time></trkpt><trkpt lat="45.00970214890673" lon="5.619511014530876"><ele>810.1666666666666</ele><time>2026-04-28T08:30:40Z</time></trkpt><trkpt lat="45.009766441200924" lon="5.6194583545090655"><ele>812.3333333333333</ele><time>2026-04-28T08:30:42.999Z</time></trkpt><trkpt lat="45.009813964312464" lon="5.619397286280269"><ele>814.5</ele><time>2026-04-28T08:30:45.999Z</time></trkpt><trkpt lat="45.00987747675214" lon="5.619363027586142"><ele>816.6666666666667</ele><time>2026-04-28T08:30:47.999Z</time></trkpt><trkpt lat="45.00994539174754" lon="5.619282797918794"><ele>818.8333333333334</ele><time>2026-04-28T08:30:50.999Z</time></trkpt><trkpt lat="45.010018172441555" lon="5.61921774811354"><ele>821.0</ele><time>2026-04-28T08:30:53.999Z</time></trkpt><trkpt lat="45.0100726242501" lon="5.619144465668839"><ele>823.3333333333334</ele><time>2026-04-28T08:30:56.999Z</time></trkpt><trkpt lat="45.010130010800644" lon="5.619081440077311"><ele>825.6666666666667</ele><time>2026-04-28T08:30:58.999Z</time></trkpt><trkpt lat="45.01019542612492" lon="5.619017621118611"><ele>828.0</ele><time>2026-04-28T08:31:01.999Z</time></trkpt><trkpt lat="45.01024333500208" lon="5.618917032148858"><ele>830.3333333333333</ele><time>2026-04-28T08:31:04.999Z</time></trkpt><trkpt lat="45.01030012718877" lon="5.61881674474299"><ele>832.6666666666666</ele><time>2026-04-28T08:31:07.999Z</time></trkpt><trkpt lat="45.01033746968357" lon="5.618721620575101"><ele>835.0</ele><time>2026-04-28T08:31:10.999Z</time></trkpt><trkpt lat="45.010387215485444" lon="5.618636733181566"><ele>834.9999999999999</ele><time>2026-04-28T08:31:13.999Z</time></trkpt><trkpt lat="45.010442944779406" lon="5.618573437197458"><ele>835.0</ele><time>2026-04-28T08:31:15.999Z</time></trkpt><trkpt lat="45.01052114518403" lon="5.6185302654466165"><ele>835.0</ele><time>2026-04-28T08:31:18.999Z</time></trkpt><trkpt lat="45.0106140454121" lon="5.618564824868679"><ele>835.0</ele><time>2026-04-28T08:31:21.999Z</time></trkpt><trkpt lat="45.01065159780021" lon="5.618661157695585"><ele>834.9999999999999</ele><time>2026-04-28T08:31:24.999Z</time></trkpt><trkpt lat="45.01065748490054" lon="5.618793085684236"><ele>835.0</ele><time>2026-04-28T08:31:27.999Z</time></trkpt><trkpt lat="45.010652132690964" lon="5.618909932713744"><ele>834.9999999999999</ele><time>2026-04-28T08:31:30.999Z</time></trkpt><trkpt lat="45.010654458788046" lon="5.619016228718688"><ele>835.0</ele><time>2026-04-28T08:31:33.999Z</time></trkpt><trkpt lat="45.01064532906201" lon="5.619146470245766"><ele>835.0</ele><time>2026-04-28T08:31:36.999Z</time></trkpt><trkpt lat="45.01067981021298" lon="5.6192259079340285"><ele>835.0</ele><time>2026-04-28T08:31:38.999Z</time></trkpt><trkpt lat="45.01067744001895" lon="5.619316520498274"><ele>834.9999999999999</ele><time>2026-04-28T08:31:40.999Z</time></trkpt><trkpt lat="45.01066073085212" lon="5.619442989136824"><ele>835.0</ele><time>2026-04-28T08:31:44Z</time></trkpt><trkpt lat="45.010673963705614" lon="5.619532329655208"><ele>832.4999999999999</ele><time>2026-04-28T08:31:47Z</time></trkpt><trkpt lat="45.01066866378603" lon="5.619637581949282"><ele>830.0</ele><time>2026-04-28T08:31:50Z</time></trkpt><trkpt lat="45.01065793529461" lon="5.619748133536482"><ele>827.5</ele><time>2026-04-28T08:31:53Z</time></trkpt><trkpt lat="45.01066747416227" lon="5.6198536539046655"><ele>825.0</ele><time>2026-04-28T08:31:56Z</time></trkpt><trkpt lat="45.010654874907765" lon="5.619968964643562"><ele>822.4999999999999</ele><time>2026-04-28T08:31:59Z</time></trkpt><trkpt lat="45.01064916253512" lon="5.62007999460359"><ele>820.0</ele><time>2026-04-28T08:32:02Z</time></trkpt><trkpt lat="45.01062796409522" lon="5.620188032911348"><ele>819.9999999999999</ele><time>2026-04-28T08:32:05Z</time></trkpt><trkpt lat="45.010587070037055" lon="5.620291875582041"><ele>820.0</ele><time>2026-04-28T08:32:08Z</time></trkpt><trkpt lat="45.010568384953785" lon="5.62040294283164"><ele>820.0</ele><time>2026-04-28T08:32:11Z</time></trkpt><trkpt lat="45.010550505796374" lon="5.620493976482761"><ele>820.0</ele><time>2026-04-28T08:32:14Z</time></trkpt><trkpt lat="45.01052278410015" lon="5.620594995305255"><ele>819.9999999999999</ele><time>2026-04-28T08:32:17Z</time></trkpt><trkpt lat="45.010504462908166" lon="5.62070206735731"><ele>820.0</ele><time>2026-04-28T08:32:20Z</time></trkpt><trkpt lat="45.01051340765912" lon="5.620811507599262"><ele>820.1666666666666</ele><time>2026-04-28T08:32:23Z</time></trkpt><trkpt lat="45.01052078814295" lon="5.620922323225663"><ele>820.3333333333333</ele><time>2026-04-28T08:32:26Z</time></trkpt><trkpt lat="45.01051677342622" lon="5.621030394943352"><ele>820.5</ele><time>2026-04-28T08:32:29Z</time></trkpt><trkpt lat="45.01050764608902" lon="5.621139037047333"><ele>820.6666666666667</ele><time>2026-04-28T08:32:32Z</time></trkpt><trkpt lat="45.010478323444126" lon="5.621238710345639"><ele>820.8333333333334</ele><time>2026-04-28T08:32:35Z</time></trkpt><trkpt lat="45.010458687655145" lon="5.621334385889388"><ele>821.0</ele><time>2026-04-28T08:32:38Z</time></trkpt><trkpt lat="45.010458475782016" lon="5.621449904629036"><ele>821.0000000000001</ele><time>2026-04-28T08:32:41Z</time></trkpt><trkpt lat="45.010468969926556" lon="5.621555476534477"><ele>821.0</ele><time>2026-04-28T08:32:44Z</time></trkpt><trkpt lat="45.01047987822504" lon="5.62166220547172"><ele>821.0</ele><time>2026-04-28T08:32:46.999Z</time></trkpt><trkpt lat="45.01047695258933" lon="5.621764243102309"><ele>821.0</ele><time>2026-04-28T08:32:49.999Z</time></trkpt><trkpt lat="45.01046470111429" lon="5.621863467319951"><ele>821.0</ele><time>2026-04-28T08:32:52.999Z</time></trkpt><trkpt lat="45.01044523760569" lon="5.621962002966773"><ele>821.0000000000001</ele><time>2026-04-28T08:32:55.999Z</time></trkpt><trkpt lat="45.010414643150796" lon="5.622063506411639"><ele>821.0</ele><time>2026-04-28T08:32:58.999Z</time></trkpt><trkpt lat="45.01038739716972" lon="5.622165599939469"><ele>822.1666666666667</ele><time>2026-04-28T08:33:01.999Z</time></trkpt><trkpt lat="45.0103657206654" lon="5.622268736101202"><ele>823.3333333333334</ele><time>2026-04-28T08:33:04.999Z</time></trkpt><trkpt lat="45.010336109205696" lon="5.622369238868528"><ele>824.5</ele><time>2026-04-28T08:33:07.999Z</time></trkpt><trkpt lat="45.010314896905165" lon="5.622472048901975"><ele>825.6666666666667</ele><time>2026-04-28T08:33:10.999Z</time></trkpt><trkpt lat="45.0103033028731" lon="5.622576094943867"><ele>826.8333333333334</ele><time>2026-04-28T08:33:13.999Z</time></trkpt><trkpt lat="45.010293057257506" lon="5.6226915479946005"><ele>828.0</ele><time>2026-04-28T08:33:16.999Z</time></trkpt><trkpt lat="45.01033440197452" lon="5.6227994347328165"><ele>828.0</ele><time>2026-04-28T08:33:19.999Z</time></trkpt><trkpt lat="45.01041658223822" lon="5.6228352187541395"><ele>828.0</ele><time>2026-04-28T08:33:22.999Z</time></trkpt><trkpt lat="45.010497946053746" lon="5.62281298647095"><ele>828.0</ele><time>2026-04-28T08:33:25.999Z</time></trkpt><trkpt lat="45.01053901358061" lon="5.622712729431874"><ele>828.0</ele><time>2026-04-28T08:33:28.999Z</time></trkpt><trkpt lat="45.01056213660856" lon="5.622588375322814"><ele>828.0</ele><time>2026-04-28T08:33:31.999Z</time></trkpt><trkpt lat="45.010576059362215" lon="5.622466248582027"><ele>828.0</ele><time>2026-04-28T08:33:34.999Z</time></trkpt><trkpt lat="45.01057830571247" lon="5.622347763373953"><ele>828.0</ele><time>2026-04-28T08:33:37.999Z</time></trkpt><trkpt lat="45.01059379301972" lon="5.622227791344264"><ele>828.0</ele><time>2026-04-28T08:33:40.999Z</time></trkpt><trkpt lat="45.01063176507082" lon="5.622124157247549"><ele>828.0</ele><time>2026-04-28T08:33:43.999Z</time></trkpt><trkpt lat="45.01066362120659" lon="5.622014932356135"><ele>828.0</ele><time>2026-04-28T08:33:46.999Z</time></trkpt><trkpt lat="45.010689510608024" lon="5.621904279264014"><ele>828.0</ele><time>2026-04-28T08:33:50Z</time></trkpt><trkpt lat="45.01072600422873" lon="5.621809186913924"><ele>828.0</ele><time>2026-04-28T08:33:53Z</time></trkpt><trkpt lat="45.01076702490314" lon="5.621710576609168"><ele>827.0000000000001</ele><time>2026-04-28T08:33:56Z</time></trkpt><trkpt lat="45.01077795897807" lon="5.621603768126056"><ele>826.0</ele><time>2026-04-28T08:33:59Z</time></trkpt><trkpt lat="45.01081355156688" lon="5.621510637040654"><ele>825.0</ele><time>2026-04-28T08:34:02Z</time></trkpt><trkpt lat="45.01082545842359" lon="5.62142295780704"><ele>824.0</ele><time>2026-04-28T08:34:05Z</time></trkpt><trkpt lat="45.01086758951329" lon="5.621328750620409"><ele>823.0</ele><time>2026-04-28T08:34:08Z</time></trkpt><trkpt lat="45.01089316018126" lon="5.621230092220965"><ele>822.0000000000001</ele><time>2026-04-28T08:34:11Z</time></trkpt><trkpt lat="45.01091166804029" lon="5.6211428628233895"><ele>821.0</ele><time>2026-04-28T08:34:14Z</time></trkpt><trkpt lat="45.010913498124886" lon="5.621022302908381"><ele>827.1428571428572</ele><time>2026-04-28T08:34:17Z</time></trkpt><trkpt lat="45.01091208815875" lon="5.620907138423619"><ele>833.2857142857143</ele><time>2026-04-28T08:34:20Z</time></trkpt><trkpt lat="45.01091676530947" lon="5.620804923503576"><ele>839.4285714285714</ele><time>2026-04-28T08:34:23Z</time></trkpt><trkpt lat="45.01093167029294" lon="5.620717150420506"><ele>845.5714285714287</ele><time>2026-04-28T08:34:26Z</time></trkpt><trkpt lat="45.01095936064208" lon="5.6206269428078866"><ele>851.7142857142857</ele><time>2026-04-28T08:34:29Z</time></trkpt><trkpt lat="45.01101068849886" lon="5.6205512704077405"><ele>857.8571428571429</ele><time>2026-04-28T08:34:32Z</time></trkpt><trkpt lat="45.011071083535526" lon="5.620468155517404"><ele>864.0</ele><time>2026-04-28T08:34:36Z</time></trkpt><trkpt lat="45.011112865430555" lon="5.620365717772266"><ele>862.7142857142857</ele><time>2026-04-28T08:34:40Z</time></trkpt><trkpt lat="45.01114643978574" lon="5.620274061041968"><ele>861.4285714285713</ele><time>2026-04-28T08:34:43Z</time></trkpt><trkpt lat="45.01117234355537" lon="5.620183699812253"><ele>860.1428571428571</ele><time>2026-04-28T08:34:46Z</time></trkpt><trkpt lat="45.0111630603305" lon="5.620069979797896"><ele>858.8571428571429</ele><time>2026-04-28T08:34:49Z</time></trkpt><trkpt lat="45.011199785377855" lon="5.619984125132012"><ele>857.5714285714286</ele><time>2026-04-28T08:34:52Z</time></trkpt><trkpt lat="45.01121716285299" lon="5.619885135835187"><ele>856.2857142857143</ele><time>2026-04-28T08:34:55Z</time></trkpt><trkpt lat="45.0112273400629" lon="5.619782726434812"><ele>855.0</ele><time>2026-04-28T08:34:57.999Z</time></trkpt><trkpt lat="45.01125237474382" lon="5.619678953086963"><ele>855.0</ele><time>2026-04-28T08:35:00.999Z</time></trkpt><trkpt lat="45.0112589882992" lon="5.6195809424918135"><ele>855.0</ele><time>2026-04-28T08:35:03.999Z</time></trkpt><trkpt lat="45.01126139889907" lon="5.6194784865268685"><ele>855.0</ele><time>2026-04-28T08:35:06.999Z</time></trkpt><trkpt lat="45.011260758449836" lon="5.619380323078524"><ele>855.0</ele><time>2026-04-28T08:35:09.999Z</time></trkpt><trkpt lat="45.01125910109511" lon="5.6192804995903645"><ele>855.0</ele><time>2026-04-28T08:35:12.999Z</time></trkpt><trkpt lat="45.01126189633316" lon="5.619171233684897"><ele>855.0</ele><time>2026-04-28T08:35:16.999Z</time></trkpt><trkpt lat="45.01128806655391" lon="5.619087169116061"><ele>855.0</ele><time>2026-04-28T08:35:19.999Z</time></trkpt><trkpt lat="45.01132292520713" lon="5.618997954949741"><ele>854.6666666666666</ele><time>2026-04-28T08:35:22.999Z</time></trkpt><trkpt lat="45.0113499436045" lon="5.618899264063992"><ele>854.3333333333333</ele><time>2026-04-28T08:35:25.999Z</time></trkpt><trkpt lat="45.01136948670405" lon="5.618780177874735"><ele>854.0</ele><time>2026-04-28T08:35:28.999Z</time></trkpt><trkpt lat="45.01135774305009" lon="5.618668546685458"><ele>853.6666666666666</ele><time>2026-04-28T08:35:31.999Z</time></trkpt><trkpt lat="45.01133765607808" lon="5.618553768345637"><ele>853.3333333333333</ele><time>2026-04-28T08:35:34.999Z</time></trkpt><trkpt lat="45.01131457245486" lon="5.618469881639384"><ele>853.0</ele><time>2026-04-28T08:35:36.999Z</time></trkpt><trkpt lat="45.01132641522853" lon="5.61834571552305"><ele>854.1666666666666</ele><time>2026-04-28T08:35:39.999Z</time></trkpt><trkpt lat="45.0113478452383" lon="5.6182469888311735"><ele>855.3333333333333</ele><time>2026-04-28T08:35:41.999Z</time></trkpt><trkpt lat="45.011393134696306" lon="5.618180501107671"><ele>856.5</ele><time>2026-04-28T08:35:43.999Z</time></trkpt><trkpt lat="45.01146096653857" lon="5.618109206190226"><ele>857.6666666666667</ele><time>2026-04-28T08:35:46.999Z</time></trkpt><trkpt lat="45.0115414569097" lon="5.618048959612362"><ele>858.8333333333334</ele><time>2026-04-28T08:35:49.999Z</time></trkpt><trkpt lat="45.01162796746491" lon="5.618005352603695"><ele>860.0</ele><time>2026-04-28T08:35:52.999Z</time></trkpt><trkpt lat="45.01170581887216" lon="5.6179531975742725"><ele>864.0000000000001</ele><time>2026-04-28T08:35:56Z</time></trkpt><trkpt lat="45.0117818032643" lon="5.617887264129526"><ele>868.0</ele><time>2026-04-28T08:35:59Z</time></trkpt><trkpt lat="45.011859797713264" lon="5.617843661615413"><ele>872.0</ele><time>2026-04-28T08:36:02Z</time></trkpt><trkpt lat="45.0119260107493" lon="5.617782284800991"><ele>876.0</ele><time>2026-04-28T08:36:05Z</time></trkpt><trkpt lat="45.011991798036" lon="5.6177142727962"><ele>880.0000000000001</ele><time>2026-04-28T08:36:08Z</time></trkpt><trkpt lat="45.01205027302623" lon="5.617646325062692"><ele>884.0</ele><time>2026-04-28T08:36:11Z</time></trkpt><trkpt lat="45.0121169533029" lon="5.617580386575709"><ele>884.0000000000001</ele><time>2026-04-28T08:36:14Z</time></trkpt><trkpt lat="45.01217072841541" lon="5.6175321235447075"><ele>884.0</ele><time>2026-04-28T08:36:17Z</time></trkpt><trkpt lat="45.0122336964894" lon="5.617475459106916"><ele>884.0</ele><time>2026-04-28T08:36:20Z</time></trkpt><trkpt lat="45.0122832617965" lon="5.61742049884378"><ele>884.0</ele><time>2026-04-28T08:36:23Z</time></trkpt><trkpt lat="45.012349397130066" lon="5.617342006364002"><ele>884.0</ele><time>2026-04-28T08:36:27Z</time></trkpt><trkpt lat="45.012383977832826" lon="5.617262221545621"><ele>884.0000000000001</ele><time>2026-04-28T08:36:30Z</time></trkpt><trkpt lat="45.01241859826741" lon="5.617174749164829"><ele>884.0</ele><time>2026-04-28T08:36:33Z</time></trkpt><trkpt lat="45.012451606982566" lon="5.617086582279177"><ele>884.0000000000001</ele><time>2026-04-28T08:36:36Z</time></trkpt><trkpt lat="45.012473526031286" lon="5.616992416329077"><ele>884.0</ele><time>2026-04-28T08:36:39Z</time></trkpt><trkpt lat="45.01251025669678" lon="5.616909597193439"><ele>884.0</ele><time>2026-04-28T08:36:42Z</time></trkpt><trkpt lat="45.01254826490502" lon="5.616828959269909"><ele>884.0</ele><time>2026-04-28T08:36:45Z</time></trkpt><trkpt lat="45.012582730374376" lon="5.616753481119637"><ele>884.0</ele><time>2026-04-28T08:36:48Z</time></trkpt><trkpt lat="45.01262492530904" lon="5.616673482296293"><ele>884.0000000000001</ele><time>2026-04-28T08:36:51Z</time></trkpt><trkpt lat="45.012675544258975" lon="5.616583905016458"><ele>884.0</ele><time>2026-04-28T08:36:54Z</time></trkpt><trkpt lat="45.01272542528939" lon="5.616514551099734"><ele>886.7142857142858</ele><time>2026-04-28T08:36:56.999Z</time></trkpt><trkpt lat="45.01274335068463" lon="5.616426165307216"><ele>889.4285714285714</ele><time>2026-04-28T08:36:59.999Z</time></trkpt><trkpt lat="45.01277405699838" lon="5.6163307917527865"><ele>892.1428571428571</ele><time>2026-04-28T08:37:02.999Z</time></trkpt><trkpt lat="45.01279183267758" lon="5.616232534860053"><ele>894.8571428571429</ele><time>2026-04-28T08:37:05.999Z</time></trkpt><trkpt lat="45.01280780572818" lon="5.616132743196574"><ele>897.5714285714286</ele><time>2026-04-28T08:37:08.999Z</time></trkpt><trkpt lat="45.01282612537533" lon="5.616029747520662"><ele>900.2857142857143</ele><time>2026-04-28T08:37:11.999Z</time></trkpt><trkpt lat="45.01283227086864" lon="5.615928921914647"><ele>903.0</ele><time>2026-04-28T08:37:14.999Z</time></trkpt><trkpt lat="45.0128465534338" lon="5.615827176630295"><ele>903.5714285714286</ele><time>2026-04-28T08:37:17.999Z</time></trkpt><trkpt lat="45.01286802023604" lon="5.61573019756617"><ele>904.1428571428571</ele><time>2026-04-28T08:37:20.999Z</time></trkpt><trkpt lat="45.012894243282005" lon="5.615640684515376"><ele>904.7142857142858</ele><time>2026-04-28T08:37:23.999Z</time></trkpt><trkpt lat="45.01294013434409" lon="5.615559390729618"><ele>905.2857142857143</ele><time>2026-04-28T08:37:26.999Z</time></trkpt><trkpt lat="45.01299615317862" lon="5.615488858109267"><ele>905.8571428571429</ele><time>2026-04-28T08:37:30.999Z</time></trkpt><trkpt lat="45.01304612492422" lon="5.615407626353118"><ele>906.4285714285716</ele><time>2026-04-28T08:37:34.999Z</time></trkpt><trkpt lat="45.01309910866179" lon="5.615343627910056"><ele>907.0000000000001</ele><time>2026-04-28T08:37:38.999Z</time></trkpt><trkpt lat="45.01315115307397" lon="5.615291613128284"><ele>908.3333333333333</ele><time>2026-04-28T08:37:41.999Z</time></trkpt><trkpt lat="45.01320035747201" lon="5.615222527108599"><ele>909.6666666666666</ele><time>2026-04-28T08:37:44.999Z</time></trkpt><trkpt lat="45.01328021309679" lon="5.615194642209227"><ele>911.0</ele><time>2026-04-28T08:37:48.999Z</time></trkpt><trkpt lat="45.01335234318901" lon="5.615139007382299"><ele>912.3333333333333</ele><time>2026-04-28T08:37:52.999Z</time></trkpt><trkpt lat="45.01341976399321" lon="5.615087994075784"><ele>913.6666666666666</ele><time>2026-04-28T08:37:56.999Z</time></trkpt><trkpt lat="45.0134965851065" lon="5.61505135516384"><ele>915.0</ele><time>2026-04-28T08:38:01Z</time></trkpt><trkpt lat="45.01358117885014" lon="5.615015363481284"><ele>915.0</ele><time>2026-04-28T08:38:05Z</time></trkpt><trkpt lat="45.013658506363505" lon="5.61499451834769"><ele>915.0</ele><time>2026-04-28T08:38:09Z</time></trkpt><trkpt lat="45.01373357835741" lon="5.61497665404632"><ele>915.0</ele><time>2026-04-28T08:38:13Z</time></trkpt><trkpt lat="45.0138207201656" lon="5.614940921177422"><ele>915.0</ele><time>2026-04-28T08:38:18Z</time></trkpt><trkpt lat="45.013890760114954" lon="5.614929374668269"><ele>915.0</ele><time>2026-04-28T08:38:21Z</time></trkpt><trkpt lat="45.01395849762738" lon="5.614888629569455"><ele>915.0</ele><time>2026-04-28T08:38:25Z</time></trkpt><trkpt lat="45.01403222427488" lon="5.614868065625019"><ele>915.0</ele><time>2026-04-28T08:38:28Z</time></trkpt><trkpt lat="45.01411516855432" lon="5.614857478368496"><ele>915.0000000000001</ele><time>2026-04-28T08:38:32Z</time></trkpt><trkpt lat="45.01419927600536" lon="5.6148363396676535"><ele>915.0</ele><time>2026-04-28T08:38:36Z</time></trkpt><trkpt lat="45.014261717547946" lon="5.614811274159338"><ele>915.0</ele><time>2026-04-28T08:38:39Z</time></trkpt><trkpt lat="45.01432285389547" lon="5.614780853533062"><ele>915.0000000000001</ele><time>2026-04-28T08:38:42Z</time></trkpt><trkpt lat="45.014387794312725" lon="5.6147187270895245"><ele>915.0</ele><time>2026-04-28T08:38:46Z</time></trkpt><trkpt lat="45.01441927975734" lon="5.614639832699831"><ele>915.0</ele><time>2026-04-28T08:38:49Z</time></trkpt><trkpt lat="45.014457020968536" lon="5.614539612008256"><ele>917.1428571428572</ele><time>2026-04-28T08:38:53Z</time></trkpt><trkpt lat="45.0144808010077" lon="5.614431981119205"><ele>919.2857142857144</ele><time>2026-04-28T08:38:56.999Z</time></trkpt><trkpt lat="45.014459257701986" lon="5.614333670683886"><ele>921.4285714285714</ele><time>2026-04-28T08:39:00.999Z</time></trkpt><trkpt lat="45.01443089712493" lon="5.614241768374793"><ele>923.5714285714287</ele><time>2026-04-28T08:39:04.999Z</time></trkpt><trkpt lat="45.014396537799165" lon="5.61416262827549"><ele>925.7142857142858</ele><time>2026-04-28T08:39:07.999Z</time></trkpt><trkpt lat="45.01436282050684" lon="5.6140667655374425"><ele>927.8571428571429</ele><time>2026-04-28T08:39:11.999Z</time></trkpt><trkpt lat="45.01435408224083" lon="5.613971117709156"><ele>930.0</ele><time>2026-04-28T08:39:14.999Z</time></trkpt><trkpt lat="45.014330520212546" lon="5.613881679256635"><ele>930.0</ele><time>2026-04-28T08:39:17.999Z</time></trkpt><trkpt lat="45.01434920757558" lon="5.613788239428146"><ele>930.0</ele><time>2026-04-28T08:39:20.999Z</time></trkpt><trkpt lat="45.01435442323287" lon="5.613665541098681"><ele>930.0</ele><time>2026-04-28T08:39:24.999Z</time></trkpt><trkpt lat="45.01435101075859" lon="5.61355878375228"><ele>930.0</ele><time>2026-04-28T08:39:27.999Z</time></trkpt><trkpt lat="45.014305885503695" lon="5.613467826180551"><ele>930.0</ele><time>2026-04-28T08:39:30.999Z</time></trkpt><trkpt lat="45.014256268082114" lon="5.613412237721163"><ele>930.0</ele><time>2026-04-28T08:39:32.999Z</time></trkpt><trkpt lat="45.01417307657722" lon="5.6133293688404855"><ele>930.5</ele><time>2026-04-28T08:39:35.999Z</time></trkpt><trkpt lat="45.014102738497535" lon="5.61327421469559"><ele>931.0</ele><time>2026-04-28T08:39:37.999Z</time></trkpt><trkpt lat="45.01403436762424" lon="5.613213260931793"><ele>931.5</ele><time>2026-04-28T08:39:39.999Z</time></trkpt><trkpt lat="45.01395291385629" lon="5.613175676197896"><ele>932.0</ele><time>2026-04-28T08:39:41.999Z</time></trkpt><trkpt lat="45.01386644332851" lon="5.6131517370676445"><ele>932.5</ele><time>2026-04-28T08:39:43.999Z</time></trkpt><trkpt lat="45.013785605816615" lon="5.613113829135677"><ele>933.0</ele><time>2026-04-28T08:39:45.999Z</time></trkpt><trkpt lat="45.013697330988535" lon="5.613076739222628"><ele>933.0</ele><time>2026-04-28T08:39:47.999Z</time></trkpt><trkpt lat="45.01361185761431" lon="5.613035242322858"><ele>933.0</ele><time>2026-04-28T08:39:49.999Z</time></trkpt><trkpt lat="45.01352557614342" lon="5.612996694983704"><ele>933.0</ele><time>2026-04-28T08:39:51.999Z</time></trkpt><trkpt lat="45.01344315711366" lon="5.612947666793341"><ele>933.0</ele><time>2026-04-28T08:39:53.999Z</time></trkpt><trkpt lat="45.01336768206086" lon="5.612905018769877"><ele>933.0</ele><time>2026-04-28T08:39:55.999Z</time></trkpt><trkpt lat="45.01329298466412" lon="5.612862883520695"><ele>933.0</ele><time>2026-04-28T08:39:57.999Z</time></trkpt><trkpt lat="45.01322648231481" lon="5.612822778791312"><ele>935.0</ele><time>2026-04-28T08:39:59.999Z</time></trkpt><trkpt lat="45.01315331287416" lon="5.612790835228271"><ele>937.0</ele><time>2026-04-28T08:40:01.999Z</time></trkpt><trkpt lat="45.01307971692451" lon="5.612750585303472"><ele>939.0</ele><time>2026-04-28T08:40:03.999Z</time></trkpt><trkpt lat="45.01300532140547" lon="5.612716886802462"><ele>941.0</ele><time>2026-04-28T08:40:05.999Z</time></trkpt><trkpt lat="45.01292581367251" lon="5.612696083621342"><ele>943.0</ele><time>2026-04-28T08:40:08Z</time></trkpt><trkpt lat="45.01284445590916" lon="5.612668012702551"><ele>945.0</ele><time>2026-04-28T08:40:10Z</time></trkpt><trkpt lat="45.01276270820378" lon="5.612654241637389"><ele>945.0</ele><time>2026-04-28T08:40:12Z</time></trkpt><trkpt lat="45.01267773917351" lon="5.612646306063641"><ele>945.0</ele><time>2026-04-28T08:40:14Z</time></trkpt><trkpt lat="45.012595962359974" lon="5.612636869015635"><ele>945.0</ele><time>2026-04-28T08:40:16Z</time></trkpt><trkpt lat="45.01251641822499" lon="5.612626381013365"><ele>945.0</ele><time>2026-04-28T08:40:18Z</time></trkpt><trkpt lat="45.01243947669355" lon="5.612611297796295"><ele>945.0</ele><time>2026-04-28T08:40:20Z</time></trkpt><trkpt lat="45.012365096179366" lon="5.612599724975724"><ele>945.0</ele><time>2026-04-28T08:40:22Z</time></trkpt><trkpt lat="45.012292643400635" lon="5.6125779380126355"><ele>946.1428571428571</ele><time>2026-04-28T08:40:24Z</time></trkpt><trkpt lat="45.0122240155358" lon="5.612556118411989"><ele>947.2857142857142</ele><time>2026-04-28T08:40:26Z</time></trkpt><trkpt lat="45.01215388531273" lon="5.612546957733435"><ele>948.4285714285714</ele><time>2026-04-28T08:40:28Z</time></trkpt><trkpt lat="45.01208859221282" lon="5.612541217467415"><ele>949.5714285714286</ele><time>2026-04-28T08:40:30Z</time></trkpt><trkpt lat="45.01201084596714" lon="5.6125163669028435"><ele>950.7142857142857</ele><time>2026-04-28T08:40:33Z</time></trkpt><trkpt lat="45.01194092708583" lon="5.612497224487982"><ele>951.8571428571429</ele><time>2026-04-28T08:40:35Z</time></trkpt><trkpt lat="45.0118578129897" lon="5.612516631730919"><ele>953.0</ele><time>2026-04-28T08:40:37Z</time></trkpt><trkpt lat="45.01179590437273" lon="5.612491387214137"><ele>953.0000000000001</ele><time>2026-04-28T08:40:39Z</time></trkpt><trkpt lat="45.01172619308626" lon="5.6124908556815445"><ele>953.0</ele><time>2026-04-28T08:40:41Z</time></trkpt><trkpt lat="45.01163795817529" lon="5.61246313443461"><ele>953.0</ele><time>2026-04-28T08:40:44Z</time></trkpt><trkpt lat="45.01155600813307" lon="5.612472079181654"><ele>953.0</ele><time>2026-04-28T08:40:47Z</time></trkpt><trkpt lat="45.01148776749344" lon="5.612480540014104"><ele>953.0000000000001</ele><time>2026-04-28T08:40:49Z</time></trkpt><trkpt lat="45.01142012810814" lon="5.612479595231101"><ele>953.0</ele><time>2026-04-28T08:40:51Z</time></trkpt><trkpt lat="45.01134786688893" lon="5.6124743242248405"><ele>952.8333333333334</ele><time>2026-04-28T08:40:53Z</time></trkpt><trkpt lat="45.01125664007581" lon="5.612459037573735"><ele>952.6666666666667</ele><time>2026-04-28T08:40:56Z</time></trkpt><trkpt lat="45.01118088439008" lon="5.612406072619976"><ele>952.5</ele><time>2026-04-28T08:40:59Z</time></trkpt><trkpt lat="45.0111198065317" lon="5.61236473794011"><ele>952.3333333333333</ele><time>2026-04-28T08:41:01Z</time></trkpt><trkpt lat="45.01104572791507" lon="5.6122973974572625"><ele>952.1666666666666</ele><time>2026-04-28T08:41:03.999Z</time></trkpt><trkpt lat="45.01096370183536" lon="5.612235848232308"><ele>952.0</ele><time>2026-04-28T08:41:06.999Z</time></trkpt><trkpt lat="45.010908496699045" lon="5.612192485235352"><ele>952.0</ele><time>2026-04-28T08:41:08.999Z</time></trkpt><trkpt lat="45.01085377671173" lon="5.612147847033492"><ele>952.0</ele><time>2026-04-28T08:41:10.999Z</time></trkpt><trkpt lat="45.01080070273714" lon="5.6120958310479585"><ele>952.0</ele><time>2026-04-28T08:41:12.999Z</time></trkpt><trkpt lat="45.01071936965566" lon="5.612029748351406"><ele>952.0</ele><time>2026-04-28T08:41:15.999Z</time></trkpt><trkpt lat="45.01067470914925" lon="5.6119637038932"><ele>952.0</ele><time>2026-04-28T08:41:17.999Z</time></trkpt><trkpt lat="45.010589349661565" lon="5.611908828375597"><ele>952.0</ele><time>2026-04-28T08:41:20.999Z</time></trkpt><trkpt lat="45.01053506974914" lon="5.611860735586843"><ele>952.0</ele><time>2026-04-28T08:41:22.999Z</time></trkpt><trkpt lat="45.010473249882594" lon="5.611830528544726"><ele>954.0</ele><time>2026-04-28T08:41:24.999Z</time></trkpt><trkpt lat="45.010406296019084" lon="5.611804440547653"><ele>956.0</ele><time>2026-04-28T08:41:26.999Z</time></trkpt><trkpt lat="45.0103393258052" lon="5.611783799149636"><ele>958.0</ele><time>2026-04-28T08:41:28.999Z</time></trkpt><trkpt lat="45.010268608466205" lon="5.611769566908449"><ele>960.0</ele><time>2026-04-28T08:41:30.999Z</time></trkpt><trkpt lat="45.01019864329066" lon="5.611773470273927"><ele>962.0</ele><time>2026-04-28T08:41:32.999Z</time></trkpt><trkpt lat="45.010125964886164" lon="5.61178291160547"><ele>964.0</ele><time>2026-04-28T08:41:34.999Z</time></trkpt><trkpt lat="45.010053589883654" lon="5.611800350226822"><ele>966.0</ele><time>2026-04-28T08:41:36.999Z</time></trkpt><trkpt lat="45.00999524151271" lon="5.6118396678576214"><ele>965.7142857142858</ele><time>2026-04-28T08:41:38.999Z</time></trkpt><trkpt lat="45.00992849260641" lon="5.611887159669759"><ele>965.4285714285714</ele><time>2026-04-28T08:41:41.999Z</time></trkpt><trkpt lat="45.00986048780074" lon="5.61192538426932"><ele>965.1428571428571</ele><time>2026-04-28T08:41:44.999Z</time></trkpt><trkpt lat="45.00978737826169" lon="5.611993048955623"><ele>964.8571428571429</ele><time>2026-04-28T08:41:48.999Z</time></trkpt><trkpt lat="45.00971828149896" lon="5.612024758127686"><ele>964.5714285714287</ele><time>2026-04-28T08:41:50.999Z</time></trkpt><trkpt lat="45.00964644894239" lon="5.612035265043705"><ele>964.2857142857143</ele><time>2026-04-28T08:41:52.999Z</time></trkpt><trkpt lat="45.009579746780716" lon="5.612051915764329"><ele>964.0</ele><time>2026-04-28T08:41:54.999Z</time></trkpt><trkpt lat="45.009501245190805" lon="5.612060369428356"><ele>963.9999999999999</ele><time>2026-04-28T08:41:56.999Z</time></trkpt><trkpt lat="45.00942131720463" lon="5.612060273763897"><ele>964.0</ele><time>2026-04-28T08:41:58.999Z</time></trkpt><trkpt lat="45.00933881326334" lon="5.612057798020183"><ele>964.0</ele><time>2026-04-28T08:42:00.999Z</time></trkpt><trkpt lat="45.00925780850246" lon="5.612022161588991"><ele>964.0</ele><time>2026-04-28T08:42:02.999Z</time></trkpt><trkpt lat="45.00917591430141" lon="5.611938532914265"><ele>963.9999999999999</ele><time>2026-04-28T08:42:05.999Z</time></trkpt><trkpt lat="45.00911587021985" lon="5.611855853179382"><ele>964.0</ele><time>2026-04-28T08:42:07.999Z</time></trkpt><trkpt lat="45.009033261893705" lon="5.611759262208054"><ele>964.8333333333333</ele><time>2026-04-28T08:42:10.999Z</time></trkpt><trkpt lat="45.008981139660214" lon="5.611689368850387"><ele>965.6666666666666</ele><time>2026-04-28T08:42:13Z</time></trkpt><trkpt lat="45.00891002459274" lon="5.611611961932452"><ele>966.5</ele><time>2026-04-28T08:42:15Z</time></trkpt><trkpt lat="45.008825398211954" lon="5.611568310889842"><ele>967.3333333333333</ele><time>2026-04-28T08:42:17Z</time></trkpt><trkpt lat="45.00874349775425" lon="5.611521490177651"><ele>968.1666666666666</ele><time>2026-04-28T08:42:19Z</time></trkpt><trkpt lat="45.008683570969374" lon="5.61142390347458"><ele>969.0</ele><time>2026-04-28T08:42:21Z</time></trkpt><trkpt lat="45.00861627557597" lon="5.611347241574075"><ele>969.0</ele><time>2026-04-28T08:42:23Z</time></trkpt><trkpt lat="45.00850750852363" lon="5.611319326612139"><ele>969.0000000000001</ele><time>2026-04-28T08:42:25Z</time></trkpt><trkpt lat="45.008408898905955" lon="5.611251404259471"><ele>969.0000000000001</ele><time>2026-04-28T08:42:27Z</time></trkpt><trkpt lat="45.00834300663019" lon="5.611183207516563"><ele>969.0</ele><time>2026-04-28T08:42:29Z</time></trkpt><trkpt lat="45.00826764922582" lon="5.611119229254872"><ele>969.0</ele><time>2026-04-28T08:42:31Z</time></trkpt><trkpt lat="45.00820426220326" lon="5.611114669174538"><ele>970.4000000000001</ele><time>2026-04-28T08:42:32Z</time></trkpt><trkpt lat="45.008144291291586" lon="5.611058323260897"><ele>971.8000000000001</ele><time>2026-04-28T08:42:34Z</time></trkpt><trkpt lat="45.008035829390565" lon="5.6110537878006035"><ele>973.1999999999999</ele><time>2026-04-28T08:42:36Z</time></trkpt><trkpt lat="45.007942309564875" lon="5.611029300541986"><ele>974.5999999999999</ele><time>2026-04-28T08:42:38Z</time></trkpt><trkpt lat="45.00784128960421" lon="5.610989755063943"><ele>976.0</ele><time>2026-04-28T08:42:40Z</time></trkpt><trkpt lat="45.007762603277456" lon="5.61093222185687"><ele>976.0</ele><time>2026-04-28T08:42:42Z</time></trkpt><trkpt lat="45.00769423801954" lon="5.610832426594443"><ele>975.9999999999999</ele><time>2026-04-28T08:42:44Z</time></trkpt><trkpt lat="45.007589422990854" lon="5.610818015204634"><ele>975.9999999999999</ele><time>2026-04-28T08:42:46Z</time></trkpt><trkpt lat="45.00752327299464" lon="5.610748157484142"><ele>976.0</ele><time>2026-04-28T08:42:48Z</time></trkpt><trkpt lat="45.00742497068147" lon="5.610712532156717"><ele>976.0</ele><time>2026-04-28T08:42:50Z</time></trkpt><trkpt lat="45.00735179759435" lon="5.610643569984788"><ele>976.5999999999999</ele><time>2026-04-28T08:42:52Z</time></trkpt><trkpt lat="45.00732127047692" lon="5.61053420799086"><ele>977.1999999999999</ele><time>2026-04-28T08:42:54Z</time></trkpt><trkpt lat="45.007267155727135" lon="5.610422648770873"><ele>977.8000000000001</ele><time>2026-04-28T08:42:56Z</time></trkpt><trkpt lat="45.00720091566962" lon="5.610324195584712"><ele>978.4000000000001</ele><time>2026-04-28T08:42:58Z</time></trkpt><trkpt lat="45.00712818506858" lon="5.610244483286162"><ele>979.0</ele><time>2026-04-28T08:43:00Z</time></trkpt><trkpt lat="45.00705179101534" lon="5.61017725659554"><ele>979.0</ele><time>2026-04-28T08:43:02Z</time></trkpt><trkpt lat="45.00696632119392" lon="5.610136619443118"><ele>979.0000000000001</ele><time>2026-04-28T08:43:04Z</time></trkpt><trkpt lat="45.00689198137031" lon="5.610044928009594"><ele>979.0000000000001</ele><time>2026-04-28T08:43:06Z</time></trkpt><trkpt lat="45.006825621471975" lon="5.609952280853922"><ele>979.0</ele><time>2026-04-28T08:43:08Z</time></trkpt><trkpt lat="45.00675012194068" lon="5.609880431627987"><ele>979.0</ele><time>2026-04-28T08:43:09.999Z</time></trkpt><trkpt lat="45.00668830484632" lon="5.6097843799916145"><ele>978.0</ele><time>2026-04-28T08:43:11.999Z</time></trkpt><trkpt lat="45.006613064989935" lon="5.609713130244909"><ele>977.0000000000001</ele><time>2026-04-28T08:43:13.999Z</time></trkpt><trkpt lat="45.00652216004039" lon="5.609672409719139"><ele>976.0000000000001</ele><time>2026-04-28T08:43:15.999Z</time></trkpt><trkpt lat="45.00644650471928" lon="5.609596367395437"><ele>975.0</ele><time>2026-04-28T08:43:17.999Z</time></trkpt><trkpt lat="45.00636759056258" lon="5.609540151840848"><ele>974.0</ele><time>2026-04-28T08:43:19.999Z</time></trkpt><trkpt lat="45.00629025163374" lon="5.609473074525925"><ele>974.0000000000001</ele><time>2026-04-28T08:43:21.999Z</time></trkpt><trkpt lat="45.00621061209738" lon="5.609422831981709"><ele>974.0</ele><time>2026-04-28T08:43:23.999Z</time></trkpt><trkpt lat="45.0061302878983" lon="5.609398748624132"><ele>974.0</ele><time>2026-04-28T08:43:25.999Z</time></trkpt><trkpt lat="45.00608404075199" lon="5.609272938899733"><ele>974.0</ele><time>2026-04-28T08:43:27.999Z</time></trkpt><trkpt lat="45.00602345562897" lon="5.609192713537734"><ele>974.0000000000001</ele><time>2026-04-28T08:43:29.999Z</time></trkpt><trkpt lat="45.00597723831789" lon="5.609076863285696"><ele>974.0</ele><time>2026-04-28T08:43:31.999Z</time></trkpt><trkpt lat="45.005945093660124" lon="5.608968303971441"><ele>974.0000000000001</ele><time>2026-04-28T08:43:33.999Z</time></trkpt><trkpt lat="45.00593458429423" lon="5.608835046009658"><ele>974.0</ele><time>2026-04-28T08:43:35.999Z</time></trkpt><trkpt lat="45.005939453798085" lon="5.608699559652192"><ele>974.0</ele><time>2026-04-28T08:43:37.999Z</time></trkpt><trkpt lat="45.005928708248945" lon="5.60856242353529"><ele>974.0</ele><time>2026-04-28T08:43:39.999Z</time></trkpt><trkpt lat="45.005861869927095" lon="5.608493017178723"><ele>974.0000000000001</ele><time>2026-04-28T08:43:41.999Z</time></trkpt><trkpt lat="45.00580438615401" lon="5.608427703815473"><ele>974.0</ele><time>2026-04-28T08:43:43.999Z</time></trkpt><trkpt lat="45.00575346158236" lon="5.608349502569862"><ele>974.6666666666667</ele><time>2026-04-28T08:43:45.999Z</time></trkpt><trkpt lat="45.00568431723817" lon="5.6082909356901265"><ele>975.3333333333334</ele><time>2026-04-28T08:43:47.999Z</time></trkpt><trkpt lat="45.00561432463762" lon="5.608229489812888"><ele>976.0</ele><time>2026-04-28T08:43:49.999Z</time></trkpt><trkpt lat="45.005553311363656" lon="5.608148545096127"><ele>976.6666666666667</ele><time>2026-04-28T08:43:51.999Z</time></trkpt><trkpt lat="45.005482340523336" lon="5.608077879299441"><ele>977.3333333333334</ele><time>2026-04-28T08:43:53.999Z</time></trkpt><trkpt lat="45.00540610389969" lon="5.608010908867786"><ele>978.0</ele><time>2026-04-28T08:43:55.999Z</time></trkpt><trkpt lat="45.00533514570351" lon="5.607940885537817"><ele>978.0</ele><time>2026-04-28T08:43:57.999Z</time></trkpt><trkpt lat="45.00527221292661" lon="5.607863918058973"><ele>978.0</ele><time>2026-04-28T08:43:59.999Z</time></trkpt><trkpt lat="45.00519288152193" lon="5.607819231470938"><ele>978.0</ele><time>2026-04-28T08:44:01.999Z</time></trkpt><trkpt lat="45.00511891995651" lon="5.607796743377863"><ele>978.0</ele><time>2026-04-28T08:44:03.999Z</time></trkpt><trkpt lat="45.00504440561931" lon="5.607783312936689"><ele>978.0</ele><time>2026-04-28T08:44:05.999Z</time></trkpt><trkpt lat="45.00496283102933" lon="5.607825326814253"><ele>978.0</ele><time>2026-04-28T08:44:07.999Z</time></trkpt><trkpt lat="45.00488064104126" lon="5.607831566651932"><ele>980.8333333333334</ele><time>2026-04-28T08:44:09.999Z</time></trkpt><trkpt lat="45.00480117681381" lon="5.607823090472843"><ele>983.6666666666667</ele><time>2026-04-28T08:44:11.999Z</time></trkpt><trkpt lat="45.004725970688305" lon="5.607805677053214"><ele>986.5</ele><time>2026-04-28T08:44:13.999Z</time></trkpt><trkpt lat="45.00465973853906" lon="5.607777627508001"><ele>989.3333333333334</ele><time>2026-04-28T08:44:15.999Z</time></trkpt><trkpt lat="45.00458570110702" lon="5.6076980081998435"><ele>992.1666666666667</ele><time>2026-04-28T08:44:17.999Z</time></trkpt><trkpt lat="45.00454982074567" lon="5.607617249512225"><ele>995.0</ele><time>2026-04-28T08:44:20Z</time></trkpt><trkpt lat="45.004514759835416" lon="5.607524502217285"><ele>995.0000000000001</ele><time>2026-04-28T08:44:22Z</time></trkpt><trkpt lat="45.004499260847965" lon="5.607425721420462"><ele>995.0</ele><time>2026-04-28T08:44:24Z</time></trkpt><trkpt lat="45.0044529895208" lon="5.607336321565423"><ele>995.0</ele><time>2026-04-28T08:44:26Z</time></trkpt><trkpt lat="45.00437206766737" lon="5.6072668116228455"><ele>995.0</ele><time>2026-04-28T08:44:28Z</time></trkpt><trkpt lat="45.00427530893293" lon="5.60724852887598"><ele>995.0000000000001</ele><time>2026-04-28T08:44:30Z</time></trkpt><trkpt lat="45.004194768512875" lon="5.607262017781856"><ele>995.0</ele><time>2026-04-28T08:44:32Z</time></trkpt><trkpt lat="45.00410816374748" lon="5.607267250856055"><ele>995.0000000000001</ele><time>2026-04-28T08:44:34Z</time></trkpt><trkpt lat="45.00402045312921" lon="5.607283173923411"><ele>995.0</ele><time>2026-04-28T08:44:36Z</time></trkpt><trkpt lat="45.00394891163004" lon="5.607251114652872"><ele>995.0</ele><time>2026-04-28T08:44:38Z</time></trkpt><trkpt lat="45.00389948840602" lon="5.6071953270715476"><ele>995.0</ele><time>2026-04-28T08:44:40Z</time></trkpt><trkpt lat="45.00382095136218" lon="5.607164634313793"><ele>995.0000000000001</ele><time>2026-04-28T08:44:42Z</time></trkpt><trkpt lat="45.00374850721279" lon="5.60710161819091"><ele>995.0</ele><time>2026-04-28T08:44:44Z</time></trkpt><trkpt lat="45.00366115073039" lon="5.6070519255495475"><ele>998.3333333333334</ele><time>2026-04-28T08:44:46Z</time></trkpt><trkpt lat="45.00360523774226" lon="5.606970737677827"><ele>1001.6666666666667</ele><time>2026-04-28T08:44:48Z</time></trkpt><trkpt lat="45.00352925605654" lon="5.606889444514451"><ele>1005.0</ele><time>2026-04-28T08:44:50Z</time></trkpt><trkpt lat="45.003460545485254" lon="5.606815852439938"><ele>1008.3333333333333</ele><time>2026-04-28T08:44:52Z</time></trkpt><trkpt lat="45.00338617443006" lon="5.606761120816681"><ele>1011.6666666666666</ele><time>2026-04-28T08:44:54Z</time></trkpt><trkpt lat="45.00331325506926" lon="5.6067134006602855"><ele>1015.0</ele><time>2026-04-28T08:44:56Z</time></trkpt><trkpt lat="45.003225664161334" lon="5.606715966465253"><ele>1013.4999999999999</ele><time>2026-04-28T08:44:59Z</time></trkpt><trkpt lat="45.003155974641096" lon="5.606732468469128"><ele>1012.0</ele><time>2026-04-28T08:45:01Z</time></trkpt><trkpt lat="45.0030849112456" lon="5.606751905933583"><ele>1010.5</ele><time>2026-04-28T08:45:04Z</time></trkpt><trkpt lat="45.00300724142365" lon="5.606828463960639"><ele>1009.0</ele><time>2026-04-28T08:45:07Z</time></trkpt><trkpt lat="45.00296298282078" lon="5.606905533225835"><ele>1007.4999999999999</ele><time>2026-04-28T08:45:10Z</time></trkpt><trkpt lat="45.002904413757626" lon="5.606993561244275"><ele>1006.0</ele><time>2026-04-28T08:45:12Z</time></trkpt><trkpt lat="45.002839876226396" lon="5.607054214340962"><ele>1005.9999999999999</ele><time>2026-04-28T08:45:14Z</time></trkpt><trkpt lat="45.00276289419989" lon="5.6070968900182026"><ele>1006.0</ele><time>2026-04-28T08:45:16Z</time></trkpt><trkpt lat="45.002658159704026" lon="5.607186322607002"><ele>1006.0</ele><time>2026-04-28T08:45:19Z</time></trkpt><trkpt lat="45.002586054977066" lon="5.607206857770839"><ele>1006.0</ele><time>2026-04-28T08:45:21Z</time></trkpt><trkpt lat="45.0024971609023" lon="5.607215888387914"><ele>1005.9999999999999</ele><time>2026-04-28T08:45:23.999Z</time></trkpt><trkpt lat="45.002433834899065" lon="5.6072231347957295"><ele>1006.0</ele><time>2026-04-28T08:45:25.999Z</time></trkpt><trkpt lat="45.00236613938852" lon="5.607201830721197"><ele>1007.1666666666666</ele><time>2026-04-28T08:45:27.999Z</time></trkpt><trkpt lat="45.00229773937602" lon="5.60720197647897"><ele>1008.3333333333333</ele><time>2026-04-28T08:45:29.999Z</time></trkpt><trkpt lat="45.00221303561418" lon="5.6071915660351435"><ele>1009.5</ele><time>2026-04-28T08:45:32.999Z</time></trkpt><trkpt lat="45.00214535771569" lon="5.607225801336709"><ele>1010.6666666666667</ele><time>2026-04-28T08:45:34.999Z</time></trkpt><trkpt lat="45.00206517969598" lon="5.607244381361571"><ele>1011.8333333333334</ele><time>2026-04-28T08:45:37.999Z</time></trkpt><trkpt lat="45.00198353016536" lon="5.60725683060388"><ele>1013.0</ele><time>2026-04-28T08:45:40.999Z</time></trkpt><trkpt lat="45.001900507672126" lon="5.607218796051531"><ele>1013.0000000000001</ele><time>2026-04-28T08:45:43.999Z</time></trkpt><trkpt lat="45.001818471990525" lon="5.607199397166114"><ele>1013.0</ele><time>2026-04-28T08:45:46.999Z</time></trkpt><trkpt lat="45.00173821098491" lon="5.607187215269822"><ele>1013.0</ele><time>2026-04-28T08:45:49.999Z</time></trkpt><trkpt lat="45.00165569806579" lon="5.607198179035001"><ele>1013.0</ele><time>2026-04-28T08:45:52.999Z</time></trkpt><trkpt lat="45.00158158096916" lon="5.60718923036109"><ele>1013.0000000000001</ele><time>2026-04-28T08:45:55.999Z</time></trkpt><trkpt lat="45.001508931316536" lon="5.60717479490291"><ele>1013.0</ele><time>2026-04-28T08:45:58.999Z</time></trkpt><trkpt lat="45.00144667207476" lon="5.607146325872933"><ele>1014.7142857142858</ele><time>2026-04-28T08:46:01.999Z</time></trkpt><trkpt lat="45.00137845618071" lon="5.607126574683115"><ele>1016.4285714285716</ele><time>2026-04-28T08:46:04.999Z</time></trkpt><trkpt lat="45.001309715300046" lon="5.607105717765295"><ele>1018.1428571428571</ele><time>2026-04-28T08:46:07.999Z</time></trkpt><trkpt lat="45.00124263485758" lon="5.60708388977737"><ele>1019.8571428571429</ele><time>2026-04-28T08:46:10.999Z</time></trkpt><trkpt lat="45.00117915883535" lon="5.607064653840318"><ele>1021.5714285714286</ele><time>2026-04-28T08:46:13.999Z</time></trkpt><trkpt lat="45.00109696955093" lon="5.6070581999691"><ele>1023.2857142857142</ele><time>2026-04-28T08:46:16.999Z</time></trkpt><trkpt lat="45.0010276396159" lon="5.607034672716931"><ele>1025.0</ele><time>2026-04-28T08:46:19.999Z</time></trkpt><trkpt lat="45.000950263628226" lon="5.607039412340661"><ele>1025.0</ele><time>2026-04-28T08:46:22.999Z</time></trkpt><trkpt lat="45.00086832653082" lon="5.607048860422045"><ele>1025.0</ele><time>2026-04-28T08:46:26Z</time></trkpt><trkpt lat="45.0007818618933" lon="5.607030600121549"><ele>1025.0</ele><time>2026-04-28T08:46:29Z</time></trkpt><trkpt lat="45.00071033930144" lon="5.607008541434461"><ele>1025.0</ele><time>2026-04-28T08:46:32Z</time></trkpt><trkpt lat="45.00063880090785" lon="5.607039584899753"><ele>1025.0</ele><time>2026-04-28T08:46:36Z</time></trkpt><trkpt lat="45.00056745288725" lon="5.607065793410498"><ele>1025.0</ele><time>2026-04-28T08:46:38Z</time></trkpt><trkpt lat="45.000477413674744" lon="5.607072078452049"><ele>1027.5714285714284</ele><time>2026-04-28T08:46:41Z</time></trkpt><trkpt lat="45.000399643929455" lon="5.60711954070386"><ele>1030.142857142857</ele><time>2026-04-28T08:46:44Z</time></trkpt><trkpt lat="45.00033565874774" lon="5.607124371611635"><ele>1032.7142857142858</ele><time>2026-04-28T08:46:47Z</time></trkpt><trkpt lat="45.00029471957984" lon="5.607055907488312"><ele>1035.2857142857142</ele><time>2026-04-28T08:46:49Z</time></trkpt><trkpt lat="45.000224075704494" lon="5.607015355409751"><ele>1037.857142857143</ele><time>2026-04-28T08:46:52Z</time></trkpt><trkpt lat="45.00015224481847" lon="5.607014878507234"><ele>1040.4285714285713</ele><time>2026-04-28T08:46:54Z</time></trkpt><trkpt lat="45.00008061382836" lon="5.606975729103035"><ele>1043.0</ele><time>2026-04-28T08:46:57Z</time></trkpt><trkpt lat="45.00001409846916" lon="5.606933099011405"><ele>1043.0</ele><time>2026-04-28T08:47:00Z</time></trkpt><trkpt lat="44.999970768040946" lon="5.606854174289215"><ele>1043.0</ele><time>2026-04-28T08:47:03Z</time></trkpt><trkpt lat="44.999918745491875" lon="5.60679672790292"><ele>1043.0</ele><time>2026-04-28T08:47:06Z</time></trkpt><trkpt lat="44.99984460002795" lon="5.606738071948406"><ele>1043.0</ele><time>2026-04-28T08:47:10Z</time></trkpt><trkpt lat="44.999757304037246" lon="5.606721302711296"><ele>1043.0</ele><time>2026-04-28T08:47:14Z</time></trkpt><trkpt lat="44.99968958226549" lon="5.606664018335271"><ele>1043.0</ele><time>2026-04-28T08:47:17Z</time></trkpt><trkpt lat="44.99962318403321" lon="5.606629323526299"><ele>1043.0</ele><time>2026-04-28T08:47:21Z</time></trkpt><trkpt lat="44.999562049429606" lon="5.606599988169562"><ele>1043.0</ele><time>2026-04-28T08:47:24Z</time></trkpt><trkpt lat="44.99950596785222" lon="5.606511975801482"><ele>1043.0</ele><time>2026-04-28T08:47:27.999Z</time></trkpt><trkpt lat="44.99945159170776" lon="5.606466856660646"><ele>1043.0</ele><time>2026-04-28T08:47:30.999Z</time></trkpt><trkpt lat="44.99938043005556" lon="5.606428204968781"><ele>1043.0</ele><time>2026-04-28T08:47:33.999Z</time></trkpt><trkpt lat="44.9993125859356" lon="5.606402908978483"><ele>1043.0</ele><time>2026-04-28T08:47:37.999Z</time></trkpt><trkpt lat="44.999252941478154" lon="5.606365068035531"><ele>1043.0</ele><time>2026-04-28T08:47:40.999Z</time></trkpt><trkpt lat="44.99918482175071" lon="5.6063063628596455"><ele>1043.7142857142858</ele><time>2026-04-28T08:47:44.999Z</time></trkpt><trkpt lat="44.99913595659688" lon="5.606232258772946"><ele>1044.4285714285716</ele><time>2026-04-28T08:47:48.999Z</time></trkpt><trkpt lat="44.99907258656705" lon="5.6062316144643605"><ele>1045.142857142857</ele><time>2026-04-28T08:47:50.999Z</time></trkpt><trkpt lat="44.99902297105975" lon="5.606159866585223"><ele>1045.857142857143</ele><time>2026-04-28T08:47:54.999Z</time></trkpt><trkpt lat="44.99895198496065" lon="5.606114699322519"><ele>1046.5714285714287</ele><time>2026-04-28T08:47:57.999Z</time></trkpt><trkpt lat="44.998864139483885" lon="5.606076905365428"><ele>1047.2857142857142</ele><time>2026-04-28T08:48:00.999Z</time></trkpt><trkpt lat="44.998800408450215" lon="5.60606086716271"><ele>1048.0</ele><time>2026-04-28T08:48:02.999Z</time></trkpt><trkpt lat="44.99869730017426" lon="5.606050660801544"><ele>1049.0</ele><time>2026-04-28T08:48:05.999Z</time></trkpt><trkpt lat="44.998618507107075" lon="5.606021237054516"><ele>1050.0</ele><time>2026-04-28T08:48:08.999Z</time></trkpt><trkpt lat="44.998523146517044" lon="5.605995921209781"><ele>1051.0</ele><time>2026-04-28T08:48:11.999Z</time></trkpt><trkpt lat="44.99845089195493" lon="5.60598900668886"><ele>1052.0</ele><time>2026-04-28T08:48:13.999Z</time></trkpt><trkpt lat="44.99838677710137" lon="5.605991053968908"><ele>1053.0</ele><time>2026-04-28T08:48:15.999Z</time></trkpt><trkpt lat="44.99832356741439" lon="5.605966627227079"><ele>1054.0</ele><time>2026-04-28T08:48:17.999Z</time></trkpt><trkpt lat="44.99825096332615" lon="5.60598126001966"><ele>1054.6666666666665</ele><time>2026-04-28T08:48:19.999Z</time></trkpt><trkpt lat="44.998185165623994" lon="5.605984680885499"><ele>1055.3333333333333</ele><time>2026-04-28T08:48:21.999Z</time></trkpt><trkpt lat="44.99809366177941" lon="5.605986143059848"><ele>1056.0</ele><time>2026-04-28T08:48:24.999Z</time></trkpt><trkpt lat="44.99799991356772" lon="5.6059830873577114"><ele>1056.6666666666667</ele><time>2026-04-28T08:48:27.999Z</time></trkpt><trkpt lat="44.99793741437976" lon="5.605997546653694"><ele>1057.3333333333335</ele><time>2026-04-28T08:48:29.999Z</time></trkpt><trkpt lat="44.99785178990949" lon="5.605981702730976"><ele>1058.0</ele><time>2026-04-28T08:48:33Z</time></trkpt><trkpt lat="44.99777217784318" lon="5.605955528008502"><ele>1058.0</ele><time>2026-04-28T08:48:36Z</time></trkpt><trkpt lat="44.99771051852102" lon="5.605905982822555"><ele>1058.0</ele><time>2026-04-28T08:48:39Z</time></trkpt><trkpt lat="44.997631753877236" lon="5.605876492303178"><ele>1058.0</ele><time>2026-04-28T08:48:42Z</time></trkpt><trkpt lat="44.99756231434026" lon="5.605827253941554"><ele>1058.0</ele><time>2026-04-28T08:48:45Z</time></trkpt><trkpt lat="44.99748967708612" lon="5.605808663722794"><ele>1058.0</ele><time>2026-04-28T08:48:48Z</time></trkpt><trkpt lat="44.997425134048804" lon="5.605762418494248"><ele>1058.0</ele><time>2026-04-28T08:48:51Z</time></trkpt><trkpt lat="44.997376852610834" lon="5.605699505840857"><ele>1058.0</ele><time>2026-04-28T08:48:54Z</time></trkpt><trkpt lat="44.997302893915716" lon="5.605634479020521"><ele>1058.1666666666667</ele><time>2026-04-28T08:48:57Z</time></trkpt><trkpt lat="44.99722397298896" lon="5.6055951966891095"><ele>1058.3333333333335</ele><time>2026-04-28T08:49:00Z</time></trkpt><trkpt lat="44.99714032543221" lon="5.605566594182351"><ele>1058.5</ele><time>2026-04-28T08:49:03Z</time></trkpt><trkpt lat="44.99706094311374" lon="5.605543270938552"><ele>1058.6666666666667</ele><time>2026-04-28T08:49:06Z</time></trkpt><trkpt lat="44.99700614522523" lon="5.6054672539236226"><ele>1058.8333333333333</ele><time>2026-04-28T08:49:09Z</time></trkpt><trkpt lat="44.99697290106396" lon="5.605351664242963"><ele>1059.0</ele><time>2026-04-28T08:49:12Z</time></trkpt><trkpt lat="44.996918222342096" lon="5.605260360949973"><ele>1059.3333333333333</ele><time>2026-04-28T08:49:15Z</time></trkpt><trkpt lat="44.99685515075332" lon="5.605190666742503"><ele>1059.6666666666667</ele><time>2026-04-28T08:49:18Z</time></trkpt><trkpt lat="44.99679732430862" lon="5.605105490306157"><ele>1060.0</ele><time>2026-04-28T08:49:21Z</time></trkpt><trkpt lat="44.99675861097513" lon="5.605019755007249"><ele>1060.3333333333335</ele><time>2026-04-28T08:49:24Z</time></trkpt><trkpt lat="44.9967076403027" lon="5.6049299892431295"><ele>1060.6666666666667</ele><time>2026-04-28T08:49:27Z</time></trkpt><trkpt lat="44.99665382886525" lon="5.604838457032761"><ele>1061.0</ele><time>2026-04-28T08:49:29.999Z</time></trkpt><trkpt lat="44.9966207391663" lon="5.604747609277367"><ele>1061.0000000000002</ele><time>2026-04-28T08:49:32.999Z</time></trkpt><trkpt lat="44.99658510287442" lon="5.604673469899506"><ele>1061.0</ele><time>2026-04-28T08:49:34.999Z</time></trkpt><trkpt lat="44.996540516729034" lon="5.604593697574553"><ele>1061.0</ele><time>2026-04-28T08:49:37.999Z</time></trkpt><trkpt lat="44.99649140359003" lon="5.604514262423111"><ele>1061.0</ele><time>2026-04-28T08:49:40.999Z</time></trkpt><trkpt lat="44.99644815020896" lon="5.604433139634271"><ele>1061.0</ele><time>2026-04-28T08:49:43.999Z</time></trkpt><trkpt lat="44.99639130776229" lon="5.604353294182095"><ele>1061.0000000000002</ele><time>2026-04-28T08:49:46.999Z</time></trkpt><trkpt lat="44.99633647866475" lon="5.6042691582073445"><ele>1061.0</ele><time>2026-04-28T08:49:49.999Z</time></trkpt><trkpt lat="44.996282009203064" lon="5.604191019911806"><ele>1061.5714285714287</ele><time>2026-04-28T08:49:52.999Z</time></trkpt><trkpt lat="44.99623662245192" lon="5.604108190461517"><ele>1062.142857142857</ele><time>2026-04-28T08:49:55.999Z</time></trkpt><trkpt lat="44.99618551219177" lon="5.604031550166606"><ele>1062.7142857142858</ele><time>2026-04-28T08:49:58.999Z</time></trkpt><trkpt lat="44.996135612872585" lon="5.603954034375369"><ele>1063.2857142857142</ele><time>2026-04-28T08:50:01.999Z</time></trkpt><trkpt lat="44.99608432087533" lon="5.603882190061984"><ele>1063.857142857143</ele><time>2026-04-28T08:50:04.999Z</time></trkpt><trkpt lat="44.99603151051387" lon="5.603802246118505"><ele>1064.4285714285716</ele><time>2026-04-28T08:50:07.999Z</time></trkpt><trkpt lat="44.995979231977586" lon="5.603728588229198"><ele>1065.0</ele><time>2026-04-28T08:50:10.999Z</time></trkpt><trkpt lat="44.995929218911215" lon="5.6036496009127985"><ele>1065.1666666666667</ele><time>2026-04-28T08:50:13.999Z</time></trkpt><trkpt lat="44.99586547840031" lon="5.603579106462061"><ele>1065.3333333333333</ele><time>2026-04-28T08:50:16.999Z</time></trkpt><trkpt lat="44.99581550659158" lon="5.603499477826331"><ele>1065.5</ele><time>2026-04-28T08:50:19.999Z</time></trkpt><trkpt lat="44.995750801010665" lon="5.603422018825657"><ele>1065.6666666666665</ele><time>2026-04-28T08:50:22.999Z</time></trkpt><trkpt lat="44.995706387452856" lon="5.603314345957417"><ele>1065.8333333333333</ele><time>2026-04-28T08:50:25.999Z</time></trkpt><trkpt lat="44.995656069412796" lon="5.6032141168079"><ele>1066.0</ele><time>2026-04-28T08:50:28.999Z</time></trkpt><trkpt lat="44.99560498809344" lon="5.603114042018532"><ele>1066.0</ele><time>2026-04-28T08:50:31.999Z</time></trkpt><trkpt lat="44.995606965108166" lon="5.603002809513865"><ele>1066.0</ele><time>2026-04-28T08:50:34.999Z</time></trkpt><trkpt lat="44.99561499032715" lon="5.602894384200956"><ele>1066.0</ele><time>2026-04-28T08:50:38Z</time></trkpt><trkpt lat="44.99564818330754" lon="5.602811952958186"><ele>1066.0</ele><time>2026-04-28T08:50:41Z</time></trkpt><trkpt lat="44.995715172991105" lon="5.602744278337383"><ele>1066.0</ele><time>2026-04-28T08:50:44Z</time></trkpt><trkpt lat="44.99579137969913" lon="5.602730840234339"><ele>1066.0</ele><time>2026-04-28T08:50:47Z</time></trkpt><trkpt lat="44.99588070488348" lon="5.602753195540539"><ele>1066.6666666666665</ele><time>2026-04-28T08:50:50Z</time></trkpt><trkpt lat="44.99596132871403" lon="5.602787743472065"><ele>1067.3333333333333</ele><time>2026-04-28T08:50:53Z</time></trkpt><trkpt lat="44.996038416703435" lon="5.602841076689197"><ele>1068.0</ele><time>2026-04-28T08:50:56Z</time></trkpt><trkpt lat="44.99611801404882" lon="5.6028810444957635"><ele>1068.6666666666667</ele><time>2026-04-28T08:50:59Z</time></trkpt><trkpt lat="44.99620319976539" lon="5.602919920265939"><ele>1069.3333333333335</ele><time>2026-04-28T08:51:02Z</time></trkpt><trkpt lat="44.99628730520913" lon="5.602959472575405"><ele>1070.0</ele><time>2026-04-28T08:51:05Z</time></trkpt><trkpt lat="44.99637122575468" lon="5.602992612191439"><ele>1070.0</ele><time>2026-04-28T08:51:08Z</time></trkpt><trkpt lat="44.9964320396984" lon="5.603017090746419"><ele>1070.0</ele><time>2026-04-28T08:51:10Z</time></trkpt><trkpt lat="44.9965099231116" lon="5.60304563257595"><ele>1070.0</ele><time>2026-04-28T08:51:13Z</time></trkpt><trkpt lat="44.99658536067924" lon="5.603068955444885"><ele>1070.0</ele><time>2026-04-28T08:51:16Z</time></trkpt><trkpt lat="44.9966683293004" lon="5.603047978334055"><ele>1070.0</ele><time>2026-04-28T08:51:19Z</time></trkpt><trkpt lat="44.99672891357361" lon="5.603017381677588"><ele>1070.0</ele><time>2026-04-28T08:51:22Z</time></trkpt><trkpt lat="44.99679091091315" lon="5.60297811521112"><ele>1070.0</ele><time>2026-04-28T08:51:25Z</time></trkpt><trkpt lat="44.99684190482519" lon="5.602922880320648"><ele>1070.7142857142858</ele><time>2026-04-28T08:51:28Z</time></trkpt><trkpt lat="44.996889921549254" lon="5.602836326264694"><ele>1071.4285714285716</ele><time>2026-04-28T08:51:31.999Z</time></trkpt><trkpt lat="44.99692682395401" lon="5.602762055232631"><ele>1072.1428571428573</ele><time>2026-04-28T08:51:35.999Z</time></trkpt><trkpt lat="44.996927175966206" lon="5.602672648738668"><ele>1072.857142857143</ele><time>2026-04-28T08:51:38.999Z</time></trkpt><trkpt lat="44.99693787139228" lon="5.602568950362203"><ele>1073.5714285714287</ele><time>2026-04-28T08:51:42.999Z</time></trkpt><trkpt lat="44.99694639805597" lon="5.602478681817433"><ele>1074.2857142857144</ele><time>2026-04-28T08:51:45.999Z</time></trkpt><trkpt lat="44.9969150055524" lon="5.602374434028838"><ele>1075.0</ele><time>2026-04-28T08:51:49.999Z</time></trkpt><trkpt lat="44.996892001207335" lon="5.602285773184413"><ele>1075.5714285714287</ele><time>2026-04-28T08:51:52.999Z</time></trkpt><trkpt lat="44.996846685149094" lon="5.602211854623046"><ele>1076.142857142857</ele><time>2026-04-28T08:51:55.999Z</time></trkpt><trkpt lat="44.99679509403441" lon="5.6021388423261325"><ele>1076.7142857142858</ele><time>2026-04-28T08:51:58.999Z</time></trkpt><trkpt lat="44.996742008946434" lon="5.6020734103827525"><ele>1077.2857142857142</ele><time>2026-04-28T08:52:02.999Z</time></trkpt><trkpt lat="44.99668995169612" lon="5.6020147384548284"><ele>1077.857142857143</ele><time>2026-04-28T08:52:05.999Z</time></trkpt><trkpt lat="44.99664176139789" lon="5.601940927390254"><ele>1078.4285714285716</ele><time>2026-04-28T08:52:08.999Z</time></trkpt><trkpt lat="44.99659038617676" lon="5.601877742865411"><ele>1079.0</ele><time>2026-04-28T08:52:11.999Z</time></trkpt><trkpt lat="44.99653371401321" lon="5.601815459404424"><ele>1080.0</ele><time>2026-04-28T08:52:14.999Z</time></trkpt><trkpt lat="44.99648446740112" lon="5.601744714904512"><ele>1081.0</ele><time>2026-04-28T08:52:17.999Z</time></trkpt><trkpt lat="44.99643115483938" lon="5.601678619913266"><ele>1082.0</ele><time>2026-04-28T08:52:20.999Z</time></trkpt><trkpt lat="44.99637852538847" lon="5.601616952617338"><ele>1083.0</ele><time>2026-04-28T08:52:23.999Z</time></trkpt><trkpt lat="44.99632922067185" lon="5.6015511495640915"><ele>1084.0</ele><time>2026-04-28T08:52:26.999Z</time></trkpt><trkpt lat="44.99627961362806" lon="5.601479482210736"><ele>1085.0</ele><time>2026-04-28T08:52:29.999Z</time></trkpt><trkpt lat="44.99622355352234" lon="5.6014261704832045"><ele>1086.0</ele><time>2026-04-28T08:52:32.999Z</time></trkpt><trkpt lat="44.99618352916802" lon="5.601352425617615"><ele>1086.0</ele><time>2026-04-28T08:52:35.999Z</time></trkpt><trkpt lat="44.996133385842676" lon="5.601273862552491"><ele>1086.0</ele><time>2026-04-28T08:52:38.999Z</time></trkpt><trkpt lat="44.99609065621505" lon="5.601205465945991"><ele>1086.0</ele><time>2026-04-28T08:52:41.999Z</time></trkpt><trkpt lat="44.996053450358744" lon="5.601130740881664"><ele>1086.0</ele><time>2026-04-28T08:52:45Z</time></trkpt><trkpt lat="44.996024159007554" lon="5.601050491989412"><ele>1086.0</ele><time>2026-04-28T08:52:48Z</time></trkpt><trkpt lat="44.99600360719356" lon="5.600962995527287"><ele>1086.0</ele><time>2026-04-28T08:52:51Z</time></trkpt><trkpt lat="44.995983261480205" lon="5.600872308897285"><ele>1086.0</ele><time>2026-04-28T08:52:54Z</time></trkpt><trkpt lat="44.99596412406401" lon="5.600777709094218"><ele>1087.2857142857142</ele><time>2026-04-28T08:52:57Z</time></trkpt><trkpt lat="44.995935946275566" lon="5.600692584348127"><ele>1088.5714285714284</ele><time>2026-04-28T08:53:00Z</time></trkpt><trkpt lat="44.99590384543763" lon="5.600606455402544"><ele>1089.8571428571427</ele><time>2026-04-28T08:53:03Z</time></trkpt><trkpt lat="44.99585111393022" lon="5.600540869720453"><ele>1091.142857142857</ele><time>2026-04-28T08:53:06Z</time></trkpt><trkpt lat="44.99579990466685" lon="5.6004837750121945"><ele>1092.4285714285713</ele><time>2026-04-28T08:53:09Z</time></trkpt><trkpt lat="44.99574044663258" lon="5.600431860826651"><ele>1093.7142857142856</ele><time>2026-04-28T08:53:12Z</time></trkpt><trkpt lat="44.995684114098374" lon="5.600388427140002"><ele>1095.0</ele><time>2026-04-28T08:53:15Z</time></trkpt><trkpt lat="44.995627637276186" lon="5.600342560855398"><ele>1096.8571428571427</ele><time>2026-04-28T08:53:18Z</time></trkpt><trkpt lat="44.99554870234789" lon="5.600292622690936"><ele>1098.7142857142858</ele><time>2026-04-28T08:53:22Z</time></trkpt><trkpt lat="44.99549301915581" lon="5.600242432667905"><ele>1100.5714285714284</ele><time>2026-04-28T08:53:25Z</time></trkpt><trkpt lat="44.99544382756651" lon="5.6001865480717505"><ele>1102.4285714285713</ele><time>2026-04-28T08:53:28Z</time></trkpt><trkpt lat="44.99539412039908" lon="5.600123627266268"><ele>1104.2857142857142</ele><time>2026-04-28T08:53:31Z</time></trkpt><trkpt lat="44.995341557857216" lon="5.600041458374162"><ele>1106.142857142857</ele><time>2026-04-28T08:53:35Z</time></trkpt><trkpt lat="44.99529900915338" lon="5.599974823550829"><ele>1108.0</ele><time>2026-04-28T08:53:38Z</time></trkpt><trkpt lat="44.995268868211795" lon="5.599887677920716"><ele>1108.0</ele><time>2026-04-28T08:53:41Z</time></trkpt><trkpt lat="44.9952336882731" lon="5.5997782805378655"><ele>1108.0</ele><time>2026-04-28T08:53:45Z</time></trkpt><trkpt lat="44.99520963562395" lon="5.599689336725082"><ele>1108.0</ele><time>2026-04-28T08:53:47.999Z</time></trkpt><trkpt lat="44.99519005570291" lon="5.599595845346593"><ele>1108.0</ele><time>2026-04-28T08:53:50.999Z</time></trkpt><trkpt lat="44.99516837474451" lon="5.599504862078602"><ele>1108.0</ele><time>2026-04-28T08:53:53.999Z</time></trkpt><trkpt lat="44.9951421203729" lon="5.5994157447939905"><ele>1108.0</ele><time>2026-04-28T08:53:56.999Z</time></trkpt><trkpt lat="44.995111443083125" lon="5.599329849107272"><ele>1108.0</ele><time>2026-04-28T08:53:59.999Z</time></trkpt><trkpt lat="44.995079396801515" lon="5.599239978012835"><ele>1108.0</ele><time>2026-04-28T08:54:02.999Z</time></trkpt><trkpt lat="44.995039099235235" lon="5.599164451265849"><ele>1108.0</ele><time>2026-04-28T08:54:05.999Z</time></trkpt><trkpt lat="44.995016629963914" lon="5.599072658826866"><ele>1108.0</ele><time>2026-04-28T08:54:08.999Z</time></trkpt><trkpt lat="44.99497994966816" lon="5.598992980533337"><ele>1108.0</ele><time>2026-04-28T08:54:11.999Z</time></trkpt><trkpt lat="44.99494023609876" lon="5.59891457171918"><ele>1108.0</ele><time>2026-04-28T08:54:14.999Z</time></trkpt><trkpt lat="44.994894118113194" lon="5.598847287211833"><ele>1108.0</ele><time>2026-04-28T08:54:17.999Z</time></trkpt><trkpt lat="44.994850073837064" lon="5.598771815143083"><ele>1108.0</ele><time>2026-04-28T08:54:20.999Z</time></trkpt><trkpt lat="44.99479609886753" lon="5.59868882305016"><ele>1109.8333333333333</ele><time>2026-04-28T08:54:23.999Z</time></trkpt><trkpt lat="44.994751238535464" lon="5.598609704212592"><ele>1111.6666666666665</ele><time>2026-04-28T08:54:26.999Z</time></trkpt><trkpt lat="44.99469841243822" lon="5.598539033403879"><ele>1113.5</ele><time>2026-04-28T08:54:29.999Z</time></trkpt><trkpt lat="44.99464826328509" lon="5.598456874579318"><ele>1115.3333333333333</ele><time>2026-04-28T08:54:32.999Z</time></trkpt><trkpt lat="44.99459962413509" lon="5.598366255805552"><ele>1117.1666666666667</ele><time>2026-04-28T08:54:35.999Z</time></trkpt><trkpt lat="44.994550700078" lon="5.598281634110414"><ele>1119.0</ele><time>2026-04-28T08:54:38.999Z</time></trkpt><trkpt lat="44.994502192673174" lon="5.598194961989815"><ele>1119.0</ele><time>2026-04-28T08:54:41.999Z</time></trkpt><trkpt lat="44.99445042330942" lon="5.5981068054565695"><ele>1119.0</ele><time>2026-04-28T08:54:44.999Z</time></trkpt><trkpt lat="44.99440177072065" lon="5.598015703954873"><ele>1119.0</ele><time>2026-04-28T08:54:47.999Z</time></trkpt><trkpt lat="44.99435817667256" lon="5.5979250098283595"><ele>1119.0</ele><time>2026-04-28T08:54:51Z</time></trkpt><trkpt lat="44.99431181773763" lon="5.5978340721200155"><ele>1119.0</ele><time>2026-04-28T08:54:54Z</time></trkpt><trkpt lat="44.99426471285718" lon="5.597737162192252"><ele>1119.0</ele><time>2026-04-28T08:54:57Z</time></trkpt><trkpt lat="44.994216135959796" lon="5.5976262070398555"><ele>1119.0</ele><time>2026-04-28T08:55:00Z</time></trkpt><trkpt lat="44.99417312931958" lon="5.5975104261064415"><ele>1119.0</ele><time>2026-04-28T08:55:03Z</time></trkpt><trkpt lat="44.994149887126675" lon="5.597391498024924"><ele>1119.0</ele><time>2026-04-28T08:55:06Z</time></trkpt><trkpt lat="44.994133665802295" lon="5.597280964857368"><ele>1119.0</ele><time>2026-04-28T08:55:09Z</time></trkpt><trkpt lat="44.99413160169277" lon="5.5971575041638415"><ele>1119.0</ele><time>2026-04-28T08:55:12Z</time></trkpt><trkpt lat="44.994146215443934" lon="5.597040389449367"><ele>1119.0</ele><time>2026-04-28T08:55:15Z</time></trkpt><trkpt lat="44.99416530267711" lon="5.596935735244895"><ele>1120.5</ele><time>2026-04-28T08:55:18Z</time></trkpt><trkpt lat="44.99417262458251" lon="5.596824866611628"><ele>1122.0</ele><time>2026-04-28T08:55:21Z</time></trkpt><trkpt lat="44.9941713782773" lon="5.596716179566554"><ele>1123.5</ele><time>2026-04-28T08:55:24Z</time></trkpt><trkpt lat="44.994163554168004" lon="5.596610368907582"><ele>1125.0</ele><time>2026-04-28T08:55:27Z</time></trkpt><trkpt lat="44.99413952928033" lon="5.596506619960205"><ele>1126.5</ele><time>2026-04-28T08:55:30Z</time></trkpt><trkpt lat="44.99411281202925" lon="5.596405659304415"><ele>1128.0</ele><time>2026-04-28T08:55:33Z</time></trkpt><trkpt lat="44.994066796351284" lon="5.59631317112058"><ele>1128.0</ele><time>2026-04-28T08:55:36Z</time></trkpt><trkpt lat="44.99400820964609" lon="5.596225122917115"><ele>1128.0</ele><time>2026-04-28T08:55:39Z</time></trkpt><trkpt lat="44.993949785747866" lon="5.596137928344611"><ele>1128.0</ele><time>2026-04-28T08:55:42Z</time></trkpt><trkpt lat="44.993886148831514" lon="5.596071600168808"><ele>1128.0</ele><time>2026-04-28T08:55:45Z</time></trkpt><trkpt lat="44.993815414651145" lon="5.5960127686264"><ele>1128.0</ele><time>2026-04-28T08:55:48Z</time></trkpt><trkpt lat="44.99374199486604" lon="5.595984256443936"><ele>1128.0</ele><time>2026-04-28T08:55:51Z</time></trkpt><trkpt lat="44.99366604730894" lon="5.5959504909430375"><ele>1130.0</ele><time>2026-04-28T08:55:53.999Z</time></trkpt><trkpt lat="44.99359547689231" lon="5.595915200387591"><ele>1132.0</ele><time>2026-04-28T08:55:56.999Z</time></trkpt><trkpt lat="44.99351485129243" lon="5.595896229547018"><ele>1134.0</ele><time>2026-04-28T08:55:59.999Z</time></trkpt><trkpt lat="44.99344398068109" lon="5.595871775536779"><ele>1136.0</ele><time>2026-04-28T08:56:02.999Z</time></trkpt><trkpt lat="44.9933735148477" lon="5.595814360532606"><ele>1138.0</ele><time>2026-04-28T08:56:05.999Z</time></trkpt><trkpt lat="44.993314364356735" lon="5.595736767887805"><ele>1140.0</ele><time>2026-04-28T08:56:08.999Z</time></trkpt><trkpt lat="44.99327433855445" lon="5.595642047526548"><ele>1140.0</ele><time>2026-04-28T08:56:11.999Z</time></trkpt><trkpt lat="44.99322722179934" lon="5.595560423769113"><ele>1140.0</ele><time>2026-04-28T08:56:14.999Z</time></trkpt><trkpt lat="44.99320400346875" lon="5.595471017465575"><ele>1140.0</ele><time>2026-04-28T08:56:17.999Z</time></trkpt><trkpt lat="44.99315838464522" lon="5.595382032783884"><ele>1140.0</ele><time>2026-04-28T08:56:20.999Z</time></trkpt><trkpt lat="44.99311594951405" lon="5.5953080353484195"><ele>1140.0</ele><time>2026-04-28T08:56:23.999Z</time></trkpt><trkpt lat="44.99304630453783" lon="5.595267032529736"><ele>1140.0</ele><time>2026-04-28T08:56:26.999Z</time></trkpt><trkpt lat="44.992980741293756" lon="5.595271354938851"><ele>1140.0</ele><time>2026-04-28T08:56:29.999Z</time></trkpt><trkpt lat="44.992891702059424" lon="5.595324342108832"><ele>1140.0</ele><time>2026-04-28T08:56:33.999Z</time></trkpt><trkpt lat="44.992833275584324" lon="5.595369999085853"><ele>1140.0</ele><time>2026-04-28T08:56:35.999Z</time></trkpt><trkpt lat="44.992756624216874" lon="5.595421940566454"><ele>1140.0</ele><time>2026-04-28T08:56:38.999Z</time></trkpt><trkpt lat="44.99269390949739" lon="5.5954373990949"><ele>1140.0</ele><time>2026-04-28T08:56:41.999Z</time></trkpt><trkpt lat="44.992622387191375" lon="5.595478511861009"><ele>1140.0</ele><time>2026-04-28T08:56:44.999Z</time></trkpt><trkpt lat="44.992558196024966" lon="5.595491249567545"><ele>1140.0</ele><time>2026-04-28T08:56:47.999Z</time></trkpt><trkpt lat="44.992483732248694" lon="5.59549116838424"><ele>1140.0</ele><time>2026-04-28T08:56:51.999Z</time></trkpt><trkpt lat="44.992409531158394" lon="5.595508727458248"><ele>1141.4285714285713</ele><time>2026-04-28T08:56:55Z</time></trkpt><trkpt lat="44.992350833641964" lon="5.595543368896021"><ele>1142.857142857143</ele><time>2026-04-28T08:56:58Z</time></trkpt><trkpt lat="44.99228502976493" lon="5.595549902737578"><ele>1144.2857142857142</ele><time>2026-04-28T08:57:02Z</time></trkpt><trkpt lat="44.99221071777895" lon="5.595576647968625"><ele>1145.7142857142858</ele><time>2026-04-28T08:57:06Z</time></trkpt><trkpt lat="44.99213699742089" lon="5.595615443308561"><ele>1147.142857142857</ele><time>2026-04-28T08:57:09Z</time></trkpt><trkpt lat="44.99207706280653" lon="5.595692540631458"><ele>1148.5714285714284</ele><time>2026-04-28T08:57:12Z</time></trkpt><trkpt lat="44.99201922191708" lon="5.595745899519011"><ele>1150.0</ele><time>2026-04-28T08:57:14Z</time></trkpt><trkpt lat="44.99196807174669" lon="5.595813655096204"><ele>1150.0</ele><time>2026-04-28T08:57:18Z</time></trkpt><trkpt lat="44.991913501337436" lon="5.595870189851951"><ele>1150.0</ele><time>2026-04-28T08:57:21Z</time></trkpt><trkpt lat="44.99184033397686" lon="5.595913337448359"><ele>1150.0</ele><time>2026-04-28T08:57:24Z</time></trkpt><trkpt lat="44.991767179960604" lon="5.595903807608844"><ele>1150.0</ele><time>2026-04-28T08:57:27Z</time></trkpt><trkpt lat="44.991688164793075" lon="5.595896952631729"><ele>1150.0</ele><time>2026-04-28T08:57:30Z</time></trkpt><trkpt lat="44.99162009194338" lon="5.595861808796179"><ele>1150.0</ele><time>2026-04-28T08:57:33Z</time></trkpt><trkpt lat="44.99154742815225" lon="5.595830234941248"><ele>1150.0</ele><time>2026-04-28T08:57:36Z</time></trkpt><trkpt lat="44.99148450915647" lon="5.595787731033122"><ele>1150.4285714285713</ele><time>2026-04-28T08:57:39Z</time></trkpt><trkpt lat="44.991413739968515" lon="5.595738892620959"><ele>1150.8571428571427</ele><time>2026-04-28T08:57:42Z</time></trkpt><trkpt lat="44.99134530532319" lon="5.595693850501721"><ele>1151.2857142857142</ele><time>2026-04-28T08:57:45Z</time></trkpt><trkpt lat="44.99128865499137" lon="5.595643311449877"><ele>1151.7142857142858</ele><time>2026-04-28T08:57:48Z</time></trkpt><trkpt lat="44.99121295605539" lon="5.5955874502528165"><ele>1152.1428571428573</ele><time>2026-04-28T08:57:51Z</time></trkpt><trkpt lat="44.99115256794842" lon="5.595547990559329"><ele>1152.5714285714287</ele><time>2026-04-28T08:57:53Z</time></trkpt><trkpt lat="44.99109171492584" lon="5.595495350624276"><ele>1153.0</ele><time>2026-04-28T08:57:55Z</time></trkpt><trkpt lat="44.99102626233365" lon="5.595450937856617"><ele>1153.0</ele><time>2026-04-28T08:57:57Z</time></trkpt><trkpt lat="44.99094981006917" lon="5.595391673962274"><ele>1153.0</ele><time>2026-04-28T08:57:59.999Z</time></trkpt><trkpt lat="44.99088317486945" lon="5.59534248179178"><ele>1153.0</ele><time>2026-04-28T09:01:16.999Z</time></trkpt><trkpt lat="44.99079779179559" lon="5.59535586214295"><ele>1153.0</ele><time>2026-04-28T09:01:20.999Z</time></trkpt><trkpt lat="44.99073354450413" lon="5.595310916331746"><ele>1153.0</ele><time>2026-04-28T09:01:23.999Z</time></trkpt><trkpt lat="44.990652542410906" lon="5.5952577848636595"><ele>1153.0</ele><time>2026-04-28T09:01:26.999Z</time></trkpt><trkpt lat="44.99059004758015" lon="5.595221694941551"><ele>1153.8333333333333</ele><time>2026-04-28T09:01:28.999Z</time></trkpt><trkpt lat="44.990521143763985" lon="5.595177595061466"><ele>1154.6666666666665</ele><time>2026-04-28T09:01:30.999Z</time></trkpt><trkpt lat="44.9904502960291" lon="5.595121117789781"><ele>1155.5</ele><time>2026-04-28T09:01:32.999Z</time></trkpt><trkpt lat="44.99037938439974" lon="5.595060440851456"><ele>1156.3333333333333</ele><time>2026-04-28T09:01:34.999Z</time></trkpt><trkpt lat="44.990298989137855" lon="5.595001277487093"><ele>1157.1666666666667</ele><time>2026-04-28T09:01:36.999Z</time></trkpt><trkpt lat="44.990224794161854" lon="5.594942294173952"><ele>1158.0</ele><time>2026-04-28T09:01:38.999Z</time></trkpt><trkpt lat="44.9901523657197" lon="5.59490778527659"><ele>1157.9999999999998</ele><time>2026-04-28T09:01:40.999Z</time></trkpt><trkpt lat="44.99008898903383" lon="5.594874737583445"><ele>1158.0</ele><time>2026-04-28T09:01:42.999Z</time></trkpt><trkpt lat="44.99002449487193" lon="5.594850333838045"><ele>1158.0</ele><time>2026-04-28T09:01:44.999Z</time></trkpt><trkpt lat="44.989966253952865" lon="5.594811479447224"><ele>1158.0</ele><time>2026-04-28T09:01:46.999Z</time></trkpt><trkpt lat="44.98988889330997" lon="5.594777866928154"><ele>1158.0</ele><time>2026-04-28T09:01:49.999Z</time></trkpt><trkpt lat="44.98982841978928" lon="5.594718922198993"><ele>1157.9999999999998</ele><time>2026-04-28T09:01:52.999Z</time></trkpt><trkpt lat="44.989764434364226" lon="5.594724993864324"><ele>1158.0</ele><time>2026-04-28T09:01:54.999Z</time></trkpt><trkpt lat="44.98969721407492" lon="5.594717531715332"><ele>1157.6666666666667</ele><time>2026-04-28T09:01:56.999Z</time></trkpt><trkpt lat="44.98964023532871" lon="5.59466595816667"><ele>1157.3333333333333</ele><time>2026-04-28T09:01:58.999Z</time></trkpt><trkpt lat="44.98958534436063" lon="5.5945980389271135"><ele>1157.0</ele><time>2026-04-28T09:02:41.999Z</time></trkpt><trkpt lat="44.98952722034925" lon="5.5945598555688445"><ele>1156.6666666666665</ele><time>2026-04-28T09:02:43.999Z</time></trkpt><trkpt lat="44.98943144207016" lon="5.594545011541474"><ele>1156.3333333333333</ele><time>2026-04-28T09:02:45.999Z</time></trkpt><trkpt lat="44.98932997064285" lon="5.594517297501513"><ele>1156.0</ele><time>2026-04-28T09:02:47.999Z</time></trkpt><trkpt lat="44.98923675682841" lon="5.5944450895650135"><ele>1155.3333333333333</ele><time>2026-04-28T09:02:49.999Z</time></trkpt><trkpt lat="44.9891467620873" lon="5.594342748114651"><ele>1154.6666666666665</ele><time>2026-04-28T09:02:51.999Z</time></trkpt><trkpt lat="44.98905176758145" lon="5.594231053683076"><ele>1154.0</ele><time>2026-04-28T09:02:53.999Z</time></trkpt><trkpt lat="44.98900369955003" lon="5.594172957408405"><ele>1153.3333333333333</ele><time>2026-04-28T09:02:54.999Z</time></trkpt><trkpt lat="44.988948539177485" lon="5.594113344245903"><ele>1152.6666666666667</ele><time>2026-04-28T09:02:55.999Z</time></trkpt><trkpt lat="44.98889947060664" lon="5.594047730648288"><ele>1152.0</ele><time>2026-04-28T09:02:56.999Z</time></trkpt><trkpt lat="44.98885191714984" lon="5.593976546141805"><ele>1152.0</ele><time>2026-04-28T09:02:57.999Z</time></trkpt><trkpt lat="44.988802452925086" lon="5.59390497690412"><ele>1152.0</ele><time>2026-04-28T09:02:58.999Z</time></trkpt><trkpt lat="44.98875106734169" lon="5.593824628580699"><ele>1152.0</ele><time>2026-04-28T09:02:59.999Z</time></trkpt><trkpt lat="44.9886939101172" lon="5.59375016308778"><ele>1152.0</ele><time>2026-04-28T09:03:00.999Z</time></trkpt><trkpt lat="44.98863615464426" lon="5.59367511083847"><ele>1152.0</ele><time>2026-04-28T09:03:01.999Z</time></trkpt><trkpt lat="44.98857851984714" lon="5.593591829121408"><ele>1152.0</ele><time>2026-04-28T09:03:02.999Z</time></trkpt><trkpt lat="44.98851769070374" lon="5.59350698495343"><ele>1151.2</ele><time>2026-04-28T09:03:03.999Z</time></trkpt><trkpt lat="44.98845763113989" lon="5.593416881051477"><ele>1150.4</ele><time>2026-04-28T09:03:04.999Z</time></trkpt><trkpt lat="44.98839375902371" lon="5.5933203494156665"><ele>1149.6</ele><time>2026-04-28T09:03:05.999Z</time></trkpt><trkpt lat="44.988336322133364" lon="5.593214260915875"><ele>1148.8</ele><time>2026-04-28T09:03:06.999Z</time></trkpt><trkpt lat="44.988272180472975" lon="5.593111414754438"><ele>1148.0</ele><time>2026-04-28T09:03:07.999Z</time></trkpt><trkpt lat="44.98820504571861" lon="5.593010426111419"><ele>1148.0</ele><time>2026-04-28T09:03:08.999Z</time></trkpt><trkpt lat="44.988127341279444" lon="5.592924024385927"><ele>1148.0</ele><time>2026-04-28T09:03:09.999Z</time></trkpt><trkpt lat="44.98803961263685" lon="5.592845653080031"><ele>1148.0</ele><time>2026-04-28T09:03:10.999Z</time></trkpt><trkpt lat="44.98795049107917" lon="5.592764225042774"><ele>1148.0</ele><time>2026-04-28T09:03:12Z</time></trkpt><trkpt lat="44.98786165896731" lon="5.5926917413574655"><ele>1148.0</ele><time>2026-04-28T09:03:13Z</time></trkpt><trkpt lat="44.987773635174854" lon="5.592612872243434"><ele>1146.4</ele><time>2026-04-28T09:03:14Z</time></trkpt><trkpt lat="44.98768732690908" lon="5.592527494379466"><ele>1144.8</ele><time>2026-04-28T09:03:15Z</time></trkpt><trkpt lat="44.987613608370616" lon="5.592427843254315"><ele>1143.2</ele><time>2026-04-28T09:03:16Z</time></trkpt><trkpt lat="44.987535991013445" lon="5.592329269875363"><ele>1141.6</ele><time>2026-04-28T09:03:17Z</time></trkpt><trkpt lat="44.987466225982885" lon="5.59222214031679"><ele>1140.0</ele><time>2026-04-28T09:03:18Z</time></trkpt><trkpt lat="44.98739534760698" lon="5.59211859637677"><ele>1140.0</ele><time>2026-04-28T09:03:19Z</time></trkpt><trkpt lat="44.98732262572806" lon="5.59200900744152"><ele>1140.0</ele><time>2026-04-28T09:03:20Z</time></trkpt><trkpt lat="44.98725033612912" lon="5.591896133445493"><ele>1140.0</ele><time>2026-04-28T09:03:21Z</time></trkpt><trkpt lat="44.98718388942548" lon="5.591777161683614"><ele>1140.0</ele><time>2026-04-28T09:03:22Z</time></trkpt><trkpt lat="44.98712819047357" lon="5.5916449969325175"><ele>1140.0</ele><time>2026-04-28T09:03:23Z</time></trkpt><trkpt lat="44.987079465549876" lon="5.591504533191899"><ele>1143.5</ele><time>2026-04-28T09:03:24Z</time></trkpt><trkpt lat="44.987033990962324" lon="5.5913578433290745"><ele>1147.0</ele><time>2026-04-28T09:03:25Z</time></trkpt><trkpt lat="44.986999653397895" lon="5.59120516069634"><ele>1150.5</ele><time>2026-04-28T09:03:26Z</time></trkpt><trkpt lat="44.98697434500791" lon="5.591048345808324"><ele>1154.0</ele><time>2026-04-28T09:03:27Z</time></trkpt><trkpt lat="44.98695029342672" lon="5.590886661076672"><ele>1156.75</ele><time>2026-04-28T09:03:28Z</time></trkpt><trkpt lat="44.98692246554046" lon="5.590723040239494"><ele>1159.5</ele><time>2026-04-28T09:03:29Z</time></trkpt><trkpt lat="44.98688688638886" lon="5.590560151195598"><ele>1162.25</ele><time>2026-04-28T09:03:30Z</time></trkpt><trkpt lat="44.986848297163846" lon="5.590397835973038"><ele>1165.0</ele><time>2026-04-28T09:03:31Z</time></trkpt><trkpt lat="44.98680416591054" lon="5.590247953606199"><ele>1166.4</ele><time>2026-04-28T09:03:32Z</time></trkpt><trkpt lat="44.98676006889395" lon="5.5901060719134055"><ele>1167.8</ele><time>2026-04-28T09:03:33Z</time></trkpt><trkpt lat="44.98671512341426" lon="5.589963203387243"><ele>1169.2</ele><time>2026-04-28T09:03:34Z</time></trkpt><trkpt lat="44.98666919952698" lon="5.589818764031594"><ele>1170.6</ele><time>2026-04-28T09:03:35Z</time></trkpt><trkpt lat="44.98662305000543" lon="5.589682871091642"><ele>1172.0</ele><time>2026-04-28T09:03:36Z</time></trkpt><trkpt lat="44.98658348820779" lon="5.58955154057141"><ele>1166.0</ele><time>2026-04-28T09:03:37Z</time></trkpt><trkpt lat="44.98655190115869" lon="5.5894273520886895"><ele>1160.0</ele><time>2026-04-28T09:03:38Z</time></trkpt><trkpt lat="44.98652895270794" lon="5.5893044960683484"><ele>1154.0</ele><time>2026-04-28T09:03:39Z</time></trkpt><trkpt lat="44.986526187547604" lon="5.589184734145544"><ele>1148.0</ele><time>2026-04-28T09:03:40Z</time></trkpt><trkpt lat="44.986538256263486" lon="5.589060566560652"><ele>1142.0</ele><time>2026-04-28T09:03:41Z</time></trkpt><trkpt lat="44.98655970722393" lon="5.58894180104251"><ele>1136.0</ele><time>2026-04-28T09:03:42Z</time></trkpt><trkpt lat="44.98659359593588" lon="5.5888309025303675"><ele>1136.0</ele><time>2026-04-28T09:03:43Z</time></trkpt><trkpt lat="44.98663331830734" lon="5.588727140146006"><ele>1136.0</ele><time>2026-04-28T09:03:44Z</time></trkpt><trkpt lat="44.98667182335206" lon="5.588618111349701"><ele>1136.0</ele><time>2026-04-28T09:03:45Z</time></trkpt><trkpt lat="44.986713879956824" lon="5.588504350935224"><ele>1136.0</ele><time>2026-04-28T09:03:46Z</time></trkpt><trkpt lat="44.986742229851785" lon="5.588375260605085"><ele>1136.0</ele><time>2026-04-28T09:03:47Z</time></trkpt><trkpt lat="44.98676483416875" lon="5.58825227279856"><ele>1136.0</ele><time>2026-04-28T09:03:48Z</time></trkpt><trkpt lat="44.9867806208061" lon="5.588113371154582"><ele>1139.0</ele><time>2026-04-28T09:03:49Z</time></trkpt><trkpt lat="44.98680105585062" lon="5.587974846804273"><ele>1142.0</ele><time>2026-04-28T09:03:50Z</time></trkpt><trkpt lat="44.986819831981045" lon="5.587828712753699"><ele>1145.0</ele><time>2026-04-28T09:03:51Z</time></trkpt><trkpt lat="44.98682821982201" lon="5.587687932560917"><ele>1148.0</ele><time>2026-04-28T09:03:52Z</time></trkpt><trkpt lat="44.98683357206666" lon="5.587549554266288"><ele>1151.0</ele><time>2026-04-28T09:03:53Z</time></trkpt><trkpt lat="44.98683890928199" lon="5.587412058514019"><ele>1151.0</ele><time>2026-04-28T09:03:54Z</time></trkpt><trkpt lat="44.98685164078825" lon="5.587269749030802"><ele>1151.0</ele><time>2026-04-28T09:03:55Z</time></trkpt><trkpt lat="44.98685605978151" lon="5.5871350750263025"><ele>1151.0</ele><time>2026-04-28T09:03:56Z</time></trkpt><trkpt lat="44.98686393889542" lon="5.586992686617074"><ele>1151.0</ele><time>2026-04-28T09:03:57Z</time></trkpt><trkpt lat="44.98686455174509" lon="5.586862464438065"><ele>1151.0</ele><time>2026-04-28T09:03:58Z</time></trkpt><trkpt lat="44.986863470307426" lon="5.586722032776185"><ele>1151.2</ele><time>2026-04-28T09:03:59Z</time></trkpt><trkpt lat="44.986862202615335" lon="5.586585785060666"><ele>1151.3999999999999</ele><time>2026-04-28T09:04:00Z</time></trkpt><trkpt lat="44.986849513658505" lon="5.586451010268195"><ele>1151.6</ele><time>2026-04-28T09:04:01Z</time></trkpt><trkpt lat="44.98677735231053" lon="5.586311555073131"><ele>1151.8</ele><time>2026-04-28T09:04:02Z</time></trkpt><trkpt lat="44.9867374155474" lon="5.586187610867806"><ele>1152.0</ele><time>2026-04-28T09:04:03Z</time></trkpt><trkpt lat="44.986692378653984" lon="5.586080311404742"><ele>1146.2</ele><time>2026-04-28T09:04:04Z</time></trkpt><trkpt lat="44.98663474603481" lon="5.585970119325848"><ele>1140.4</ele><time>2026-04-28T09:04:05Z</time></trkpt><trkpt lat="44.98656900464772" lon="5.585869874138676"><ele>1134.6</ele><time>2026-04-28T09:04:06Z</time></trkpt><trkpt lat="44.986483246992535" lon="5.585803311787111"><ele>1128.8</ele><time>2026-04-28T09:04:07Z</time></trkpt><trkpt lat="44.98639298509154" lon="5.585760328719247"><ele>1123.0</ele><time>2026-04-28T09:04:08Z</time></trkpt><trkpt lat="44.98629927104046" lon="5.585741359232542"><ele>1123.0</ele><time>2026-04-28T09:04:09Z</time></trkpt><trkpt lat="44.98620485741281" lon="5.585708731896546"><ele>1123.0</ele><time>2026-04-28T09:04:10Z</time></trkpt><trkpt lat="44.98611557501585" lon="5.585674078104078"><ele>1123.0</ele><time>2026-04-28T09:04:11Z</time></trkpt><trkpt lat="44.98602396234214" lon="5.585643788081448"><ele>1123.0</ele><time>2026-04-28T09:04:12Z</time></trkpt><trkpt lat="44.98593326768219" lon="5.585625173011449"><ele>1123.0</ele><time>2026-04-28T09:04:13Z</time></trkpt><trkpt lat="44.98584367526055" lon="5.58561771879314"><ele>1120.5</ele><time>2026-04-28T09:04:14Z</time></trkpt><trkpt lat="44.98575890872502" lon="5.585589193949178"><ele>1118.0</ele><time>2026-04-28T09:04:15Z</time></trkpt><trkpt lat="44.985679697188594" lon="5.585561071650472"><ele>1115.5</ele><time>2026-04-28T09:04:16Z</time></trkpt><trkpt lat="44.98560590201869" lon="5.585521287905297"><ele>1113.0</ele><time>2026-04-28T09:04:17Z</time></trkpt><trkpt lat="44.98553518498676" lon="5.5854809718231"><ele>1110.5</ele><time>2026-04-28T09:04:18Z</time></trkpt><trkpt lat="44.985462805092574" lon="5.585439867058719"><ele>1108.0</ele><time>2026-04-28T09:04:19Z</time></trkpt><trkpt lat="44.985391876239326" lon="5.5853885537800245"><ele>1107.6666666666665</ele><time>2026-04-28T09:04:20Z</time></trkpt><trkpt lat="44.98531583226615" lon="5.585341872344258"><ele>1107.3333333333333</ele><time>2026-04-28T09:04:21Z</time></trkpt><trkpt lat="44.9852385626284" lon="5.585295646232007"><ele>1107.0</ele><time>2026-04-28T09:04:22Z</time></trkpt><trkpt lat="44.98516541146343" lon="5.585242087207326"><ele>1106.6666666666667</ele><time>2026-04-28T09:04:23Z</time></trkpt><trkpt lat="44.98509837188054" lon="5.585179424444553"><ele>1106.3333333333335</ele><time>2026-04-28T09:04:24Z</time></trkpt><trkpt lat="44.98502068652362" lon="5.585120796583664"><ele>1106.0</ele><time>2026-04-28T09:04:25Z</time></trkpt><trkpt lat="44.98494318275973" lon="5.585062044497064"><ele>1106.0</ele><time>2026-04-28T09:04:26Z</time></trkpt><trkpt lat="44.984871063355016" lon="5.584987658053028"><ele>1106.0</ele><time>2026-04-28T09:04:27Z</time></trkpt><trkpt lat="44.98479887640583" lon="5.584915619725991"><ele>1106.0</ele><time>2026-04-28T09:04:27.999Z</time></trkpt><trkpt lat="44.98472634308346" lon="5.58484812403053"><ele>1106.0</ele><time>2026-04-28T09:04:28.999Z</time></trkpt><trkpt lat="44.98465129500298" lon="5.584774852658047"><ele>1106.0</ele><time>2026-04-28T09:04:29.999Z</time></trkpt><trkpt lat="44.984571492450385" lon="5.584701331125426"><ele>1106.0</ele><time>2026-04-28T09:04:30.999Z</time></trkpt><trkpt lat="44.984489176592085" lon="5.584624217664821"><ele>1106.0</ele><time>2026-04-28T09:04:31.999Z</time></trkpt><trkpt lat="44.98440403071766" lon="5.58454557875834"><ele>1106.0</ele><time>2026-04-28T09:04:32.999Z</time></trkpt><trkpt lat="44.98432231700895" lon="5.584447334211544"><ele>1106.0</ele><time>2026-04-28T09:04:33.999Z</time></trkpt><trkpt lat="44.98423959697845" lon="5.584354053299649"><ele>1106.0</ele><time>2026-04-28T09:04:34.999Z</time></trkpt><trkpt lat="44.98415424907218" lon="5.584259948998016"><ele>1106.25</ele><time>2026-04-28T09:04:35.999Z</time></trkpt><trkpt lat="44.984060060982486" lon="5.584168078368206"><ele>1106.5</ele><time>2026-04-28T09:04:36.999Z</time></trkpt><trkpt lat="44.98397048583011" lon="5.584073837281069"><ele>1106.75</ele><time>2026-04-28T09:04:37.999Z</time></trkpt><trkpt lat="44.98387716993177" lon="5.5839824095980495"><ele>1107.0</ele><time>2026-04-28T09:04:38.999Z</time></trkpt><trkpt lat="44.98378482596986" lon="5.583893228603326"><ele>1107.0</ele><time>2026-04-28T09:04:39.999Z</time></trkpt><trkpt lat="44.98368774029668" lon="5.583813623248063"><ele>1107.0</ele><time>2026-04-28T09:04:40.999Z</time></trkpt><trkpt lat="44.98358945933564" lon="5.5837451262106566"><ele>1107.0</ele><time>2026-04-28T09:04:41.999Z</time></trkpt><trkpt lat="44.98349181899767" lon="5.583677223359142"><ele>1107.0</ele><time>2026-04-28T09:04:42.999Z</time></trkpt><trkpt lat="44.983393419477956" lon="5.583616216243712"><ele>1107.0</ele><time>2026-04-28T09:04:43.999Z</time></trkpt><trkpt lat="44.98329251469524" lon="5.583557469253381"><ele>1106.4</ele><time>2026-04-28T09:04:44.999Z</time></trkpt><trkpt lat="44.98319061214092" lon="5.583509330993412"><ele>1105.8000000000002</ele><time>2026-04-28T09:04:45.999Z</time></trkpt><trkpt lat="44.98309193936108" lon="5.583454281127726"><ele>1105.2</ele><time>2026-04-28T09:04:46.999Z</time></trkpt><trkpt lat="44.982981690351096" lon="5.583409267307449"><ele>1104.6000000000001</ele><time>2026-04-28T09:04:47.999Z</time></trkpt><trkpt lat="44.982881682394755" lon="5.583361610500952"><ele>1104.0</ele><time>2026-04-28T09:04:48.999Z</time></trkpt><trkpt lat="44.98277941116412" lon="5.58330893008555"><ele>1104.0</ele><time>2026-04-28T09:04:49.999Z</time></trkpt><trkpt lat="44.98267599913472" lon="5.583251462363934"><ele>1104.0</ele><time>2026-04-28T09:04:50.999Z</time></trkpt><trkpt lat="44.982577962300574" lon="5.583193195630508"><ele>1104.0</ele><time>2026-04-28T09:04:51.999Z</time></trkpt><trkpt lat="44.98247917117736" lon="5.583126763286842"><ele>1104.0</ele><time>2026-04-28T09:04:52.999Z</time></trkpt><trkpt lat="44.98238329854332" lon="5.583065757654106"><ele>1104.0</ele><time>2026-04-28T09:04:53.999Z</time></trkpt><trkpt lat="44.98228379659651" lon="5.582996761186945"><ele>1104.0</ele><time>2026-04-28T09:04:54.999Z</time></trkpt><trkpt lat="44.9821874222719" lon="5.582925659098067"><ele>1104.0</ele><time>2026-04-28T09:04:55.999Z</time></trkpt><trkpt lat="44.982092085884624" lon="5.582846862056381"><ele>1104.0</ele><time>2026-04-28T09:04:56.999Z</time></trkpt><trkpt lat="44.98199463405282" lon="5.582768632307543"><ele>1104.0</ele><time>2026-04-28T09:04:57.999Z</time></trkpt><trkpt lat="44.981902398878645" lon="5.582686268551481"><ele>1104.0</ele><time>2026-04-28T09:04:58.999Z</time></trkpt><trkpt lat="44.98181309964105" lon="5.582602613030003"><ele>1104.0</ele><time>2026-04-28T09:04:59.999Z</time></trkpt><trkpt lat="44.981727433769805" lon="5.582511808053158"><ele>1104.0</ele><time>2026-04-28T09:05:00.999Z</time></trkpt><trkpt lat="44.98164209096209" lon="5.582419294059042"><ele>1104.0</ele><time>2026-04-28T09:05:01.999Z</time></trkpt><trkpt lat="44.981561094297426" lon="5.582323520108031"><ele>1104.0</ele><time>2026-04-28T09:05:02.999Z</time></trkpt><trkpt lat="44.981483765006296" lon="5.582228589712544"><ele>1104.0</ele><time>2026-04-28T09:05:03.999Z</time></trkpt><trkpt lat="44.981418441004" lon="5.5821248965708365"><ele>1101.8333333333333</ele><time>2026-04-28T09:05:04.999Z</time></trkpt><trkpt lat="44.98136694817606" lon="5.5820310935465525"><ele>1099.6666666666667</ele><time>2026-04-28T09:05:05.999Z</time></trkpt><trkpt lat="44.981308265076414" lon="5.581921394968055"><ele>1097.5</ele><time>2026-04-28T09:05:06.999Z</time></trkpt><trkpt lat="44.98125361628437" lon="5.581818302310013"><ele>1095.3333333333335</ele><time>2026-04-28T09:05:07.999Z</time></trkpt><trkpt lat="44.981196274059585" lon="5.581726375837255"><ele>1093.1666666666667</ele><time>2026-04-28T09:05:08.999Z</time></trkpt><trkpt lat="44.98113885703548" lon="5.581632208076089"><ele>1091.0</ele><time>2026-04-28T09:05:09.999Z</time></trkpt><trkpt lat="44.98106291226737" lon="5.58155512698688"><ele>1091.0</ele><time>2026-04-28T09:05:10.999Z</time></trkpt><trkpt lat="44.9809940972737" lon="5.581487655414269"><ele>1091.0</ele><time>2026-04-28T09:05:11.999Z</time></trkpt><trkpt lat="44.98091799074716" lon="5.581424515335223"><ele>1091.0</ele><time>2026-04-28T09:05:12.999Z</time></trkpt><trkpt lat="44.980847428949374" lon="5.581356532046757"><ele>1091.0</ele><time>2026-04-28T09:05:13.999Z</time></trkpt><trkpt lat="44.980791200511725" lon="5.581273428917394"><ele>1091.0</ele><time>2026-04-28T09:05:14.999Z</time></trkpt><trkpt lat="44.98072690616593" lon="5.581195252352948"><ele>1091.0</ele><time>2026-04-28T09:05:15.999Z</time></trkpt><trkpt lat="44.98065785376524" lon="5.58109698970207"><ele>1088.0</ele><time>2026-04-28T09:05:16.999Z</time></trkpt><trkpt lat="44.98059848324639" lon="5.5810053569467835"><ele>1085.0</ele><time>2026-04-28T09:05:18Z</time></trkpt><trkpt lat="44.9805339500729" lon="5.580922755652736"><ele>1082.0</ele><time>2026-04-28T09:05:19Z</time></trkpt><trkpt lat="44.98046638733155" lon="5.580846049829719"><ele>1079.0</ele><time>2026-04-28T09:05:20Z</time></trkpt><trkpt lat="44.98040058358638" lon="5.5807819888969386"><ele>1076.0</ele><time>2026-04-28T09:05:21Z</time></trkpt><trkpt lat="44.98032940419597" lon="5.580761289145544"><ele>1073.0</ele><time>2026-04-28T09:05:22Z</time></trkpt><trkpt lat="44.98025931465295" lon="5.580776901620766"><ele>1073.0</ele><time>2026-04-28T09:05:23Z</time></trkpt><trkpt lat="44.980197616445416" lon="5.580831060247491"><ele>1073.0</ele><time>2026-04-28T09:05:24Z</time></trkpt><trkpt lat="44.98016342386144" lon="5.580921683870575"><ele>1073.0</ele><time>2026-04-28T09:05:25Z</time></trkpt><trkpt lat="44.98017084620678" lon="5.581044904091825"><ele>1073.0</ele><time>2026-04-28T09:05:26Z</time></trkpt><trkpt lat="44.98021400635619" lon="5.581153892571893"><ele>1073.0</ele><time>2026-04-28T09:05:27Z</time></trkpt><trkpt lat="44.98026465570774" lon="5.581231092776151"><ele>1073.0</ele><time>2026-04-28T09:05:28Z</time></trkpt><trkpt lat="44.9803397607362" lon="5.581268460268659"><ele>1071.6</ele><time>2026-04-28T09:05:29Z</time></trkpt><trkpt lat="44.98041090439576" lon="5.58132781697711"><ele>1070.1999999999998</ele><time>2026-04-28T09:05:30Z</time></trkpt><trkpt lat="44.98048824169568" lon="5.581386084775309"><ele>1068.8</ele><time>2026-04-28T09:05:31Z</time></trkpt><trkpt lat="44.980566874719436" lon="5.581444932023879"><ele>1067.3999999999999</ele><time>2026-04-28T09:05:32Z</time></trkpt><trkpt lat="44.98065048830034" lon="5.581508116615473"><ele>1066.0</ele><time>2026-04-28T09:05:33Z</time></trkpt><trkpt lat="44.98072643168492" lon="5.581595562824028"><ele>1066.0</ele><time>2026-04-28T09:05:34Z</time></trkpt><trkpt lat="44.98080387622935" lon="5.581695780409089"><ele>1066.0</ele><time>2026-04-28T09:05:35Z</time></trkpt><trkpt lat="44.98087036322081" lon="5.581822385935025"><ele>1066.0</ele><time>2026-04-28T09:05:36Z</time></trkpt><trkpt lat="44.98093441695393" lon="5.5819463749955425"><ele>1066.0</ele><time>2026-04-28T09:05:37Z</time></trkpt><trkpt lat="44.98098496567539" lon="5.582090941817748"><ele>1066.0</ele><time>2026-04-28T09:05:38Z</time></trkpt><trkpt lat="44.98104761016892" lon="5.582240035891908"><ele>1069.0</ele><time>2026-04-28T09:05:39Z</time></trkpt><trkpt lat="44.981096701609296" lon="5.582401908201697"><ele>1072.0</ele><time>2026-04-28T09:05:40Z</time></trkpt><trkpt lat="44.98115295239265" lon="5.582563406698315"><ele>1075.0</ele><time>2026-04-28T09:05:41Z</time></trkpt><trkpt lat="44.981235228239065" lon="5.582684970135571"><ele>1078.0</ele><time>2026-04-28T09:05:42Z</time></trkpt><trkpt lat="44.98130482392855" lon="5.582824947891391"><ele>1071.0</ele><time>2026-04-28T09:05:43Z</time></trkpt><trkpt lat="44.98137136531972" lon="5.5829615578584955"><ele>1064.0</ele><time>2026-04-28T09:05:44Z</time></trkpt><trkpt lat="44.981433054762334" lon="5.583099086047407"><ele>1057.0</ele><time>2026-04-28T09:05:45Z</time></trkpt><trkpt lat="44.9814949596332" lon="5.583234589085586"><ele>1050.0</ele><time>2026-04-28T09:05:46Z</time></trkpt><trkpt lat="44.98155652746748" lon="5.583378727468379"><ele>1050.0</ele><time>2026-04-28T09:05:47Z</time></trkpt><trkpt lat="44.981616841964176" lon="5.583527629593752"><ele>1050.0</ele><time>2026-04-28T09:05:48Z</time></trkpt><trkpt lat="44.981676074805584" lon="5.58368162477494"><ele>1050.0</ele><time>2026-04-28T09:05:49Z</time></trkpt><trkpt lat="44.98173117966438" lon="5.583842994752766"><ele>1050.0</ele><time>2026-04-28T09:05:50Z</time></trkpt><trkpt lat="44.98177736762596" lon="5.584002762636636"><ele>1051.75</ele><time>2026-04-28T09:05:51Z</time></trkpt><trkpt lat="44.98182626401741" lon="5.5841648979175735"><ele>1053.5</ele><time>2026-04-28T09:05:52Z</time></trkpt><trkpt lat="44.98188935185537" lon="5.584311830851332"><ele>1055.25</ele><time>2026-04-28T09:05:53Z</time></trkpt><trkpt lat="44.98193943804141" lon="5.584454221879083"><ele>1057.0</ele><time>2026-04-28T09:05:54Z</time></trkpt><trkpt lat="44.98199245445004" lon="5.584586628396316"><ele>1053.2</ele><time>2026-04-28T09:05:55Z</time></trkpt><trkpt lat="44.98204359622477" lon="5.584700933850182"><ele>1049.4</ele><time>2026-04-28T09:05:56Z</time></trkpt><trkpt lat="44.98210168031651" lon="5.584798031293751"><ele>1045.6</ele><time>2026-04-28T09:05:57Z</time></trkpt><trkpt lat="44.98217294738592" lon="5.584891351852998"><ele>1041.8</ele><time>2026-04-28T09:05:58Z</time></trkpt><trkpt lat="44.98225394193461" lon="5.584976266927858"><ele>1038.0</ele><time>2026-04-28T09:05:59Z</time></trkpt><trkpt lat="44.98234496488658" lon="5.585049563881579"><ele>1038.0</ele><time>2026-04-28T09:06:00Z</time></trkpt><trkpt lat="44.98243118814391" lon="5.58513120162379"><ele>1038.0</ele><time>2026-04-28T09:06:01Z</time></trkpt><trkpt lat="44.98252830668439" lon="5.585204864312191"><ele>1038.0</ele><time>2026-04-28T09:06:02Z</time></trkpt><trkpt lat="44.982618525059884" lon="5.585297169792563"><ele>1038.0</ele><time>2026-04-28T09:06:03Z</time></trkpt><trkpt lat="44.982705662855416" lon="5.58540155952514"><ele>1038.0</ele><time>2026-04-28T09:06:04Z</time></trkpt><trkpt lat="44.982778239002506" lon="5.585536786075872"><ele>1038.6</ele><time>2026-04-28T09:06:05Z</time></trkpt><trkpt lat="44.98284254798295" lon="5.58566806558497"><ele>1039.1999999999998</ele><time>2026-04-28T09:06:06Z</time></trkpt><trkpt lat="44.98289137164723" lon="5.585807925441279"><ele>1039.8</ele><time>2026-04-28T09:06:07Z</time></trkpt><trkpt lat="44.98292445302864" lon="5.585918765886156"><ele>1040.3999999999999</ele><time>2026-04-28T09:06:08Z</time></trkpt><trkpt lat="44.98295589060753" lon="5.586008714747473"><ele>1041.0</ele><time>2026-04-28T09:06:09Z</time></trkpt><trkpt lat="44.98301330251954" lon="5.58614216641088"><ele>1038.8333333333333</ele><time>2026-04-28T09:06:11Z</time></trkpt><trkpt lat="44.98308611245063" lon="5.5862751948258325"><ele>1036.6666666666667</ele><time>2026-04-28T09:06:13Z</time></trkpt><trkpt lat="44.983125094679586" lon="5.586346521574755"><ele>1034.5</ele><time>2026-04-28T09:06:14Z</time></trkpt><trkpt lat="44.98316803724138" lon="5.586417216423959"><ele>1032.3333333333335</ele><time>2026-04-28T09:06:15Z</time></trkpt><trkpt lat="44.983205089470815" lon="5.58649857865783"><ele>1030.1666666666667</ele><time>2026-04-28T09:06:16Z</time></trkpt><trkpt lat="44.98321598175804" lon="5.586602607795699"><ele>1028.0</ele><time>2026-04-28T09:06:17Z</time></trkpt><trkpt lat="44.98317617584124" lon="5.586683250618518"><ele>1028.0</ele><time>2026-04-28T09:06:18Z</time></trkpt><trkpt lat="44.983102117282" lon="5.586723840623701"><ele>1028.0</ele><time>2026-04-28T09:06:19Z</time></trkpt><trkpt lat="44.98302564846103" lon="5.58671244416354"><ele>1028.0</ele><time>2026-04-28T09:06:20Z</time></trkpt><trkpt lat="44.982966081011014" lon="5.5866547782790645"><ele>1028.0</ele><time>2026-04-28T09:06:21Z</time></trkpt><trkpt lat="44.98291154099427" lon="5.58656992700756"><ele>1028.0</ele><time>2026-04-28T09:06:22Z</time></trkpt><trkpt lat="44.982868388431825" lon="5.586473187780071"><ele>1028.0</ele><time>2026-04-28T09:06:23Z</time></trkpt><trkpt lat="44.98282009263262" lon="5.58638160775883"><ele>1028.0</ele><time>2026-04-28T09:06:24Z</time></trkpt><trkpt lat="44.98276074359988" lon="5.5862971118364495"><ele>1028.0</ele><time>2026-04-28T09:06:25Z</time></trkpt><trkpt lat="44.982698933979904" lon="5.586213251329182"><ele>1028.0</ele><time>2026-04-28T09:06:26Z</time></trkpt><trkpt lat="44.982634405275604" lon="5.586130512124977"><ele>1028.0</ele><time>2026-04-28T09:06:27Z</time></trkpt><trkpt lat="44.982561732670064" lon="5.5860617711037195"><ele>1028.0</ele><time>2026-04-28T09:06:28Z</time></trkpt><trkpt lat="44.98248673403519" lon="5.5860067540919776"><ele>1028.0</ele><time>2026-04-28T09:06:29Z</time></trkpt><trkpt lat="44.98241906187345" lon="5.585955193542491"><ele>1027.1666666666667</ele><time>2026-04-28T09:06:30Z</time></trkpt><trkpt lat="44.98234521991895" lon="5.5859090351520555"><ele>1026.3333333333335</ele><time>2026-04-28T09:06:31Z</time></trkpt><trkpt lat="44.98227612336542" lon="5.585862329585669"><ele>1025.5</ele><time>2026-04-28T09:06:32Z</time></trkpt><trkpt lat="44.98219916838301" lon="5.5858256228145615"><ele>1024.6666666666667</ele><time>2026-04-28T09:06:33Z</time></trkpt><trkpt lat="44.982126409494875" lon="5.58579283929701"><ele>1023.8333333333334</ele><time>2026-04-28T09:06:34Z</time></trkpt><trkpt lat="44.98205140613985" lon="5.585767817442385"><ele>1023.0</ele><time>2026-04-28T09:06:35Z</time></trkpt><trkpt lat="44.98197685172363" lon="5.585736146797382"><ele>1023.0</ele><time>2026-04-28T09:06:36Z</time></trkpt><trkpt lat="44.981905886346446" lon="5.585703475129746"><ele>1023.0</ele><time>2026-04-28T09:06:37Z</time></trkpt><trkpt lat="44.981831532810304" lon="5.585664539970659"><ele>1023.0</ele><time>2026-04-28T09:06:38Z</time></trkpt><trkpt lat="44.98175909565839" lon="5.585618730839182"><ele>1023.0</ele><time>2026-04-28T09:06:39Z</time></trkpt><trkpt lat="44.981689452190096" lon="5.585554995858179"><ele>1023.0</ele><time>2026-04-28T09:06:40Z</time></trkpt><trkpt lat="44.9816255777599" lon="5.585477488446781"><ele>1023.0</ele><time>2026-04-28T09:06:41Z</time></trkpt><trkpt lat="44.98156399406543" lon="5.585398109951002"><ele>1022.3333333333334</ele><time>2026-04-28T09:06:42Z</time></trkpt><trkpt lat="44.98150471483188" lon="5.585307480377119"><ele>1021.6666666666667</ele><time>2026-04-28T09:06:43Z</time></trkpt><trkpt lat="44.9814505191957" lon="5.585208199338043"><ele>1021.0</ele><time>2026-04-28T09:06:44Z</time></trkpt><trkpt lat="44.98139864682429" lon="5.5851077549438175"><ele>1020.3333333333334</ele><time>2026-04-28T09:06:45Z</time></trkpt><trkpt lat="44.98134776046499" lon="5.585003404138684"><ele>1019.6666666666667</ele><time>2026-04-28T09:06:46Z</time></trkpt><trkpt lat="44.981293191098565" lon="5.584909820480625"><ele>1019.0</ele><time>2026-04-28T09:06:47Z</time></trkpt><trkpt lat="44.98124626459262" lon="5.584806213011524"><ele>1019.0000000000001</ele><time>2026-04-28T09:06:48Z</time></trkpt><trkpt lat="44.98120162570437" lon="5.584707155939388"><ele>1019.0</ele><time>2026-04-28T09:06:49Z</time></trkpt><trkpt lat="44.9811532062036" lon="5.584611697298114"><ele>1019.0</ele><time>2026-04-28T09:06:50Z</time></trkpt><trkpt lat="44.981108275059256" lon="5.584520090328345"><ele>1019.0</ele><time>2026-04-28T09:06:51Z</time></trkpt><trkpt lat="44.98103984419203" lon="5.584398823338156"><ele>1019.0000000000001</ele><time>2026-04-28T09:06:53Z</time></trkpt><trkpt lat="44.98099191495956" lon="5.584305286340731"><ele>1019.0</ele><time>2026-04-28T09:06:55Z</time></trkpt><trkpt lat="44.9809290141451" lon="5.5842176737901985"><ele>1022.2</ele><time>2026-04-28T09:06:57Z</time></trkpt><trkpt lat="44.980868257039354" lon="5.584124818727771"><ele>1025.4</ele><time>2026-04-28T09:06:59Z</time></trkpt><trkpt lat="44.98081299206903" lon="5.584039905947141"><ele>1028.6</ele><time>2026-04-28T09:07:01Z</time></trkpt><trkpt lat="44.98074914980952" lon="5.583966352946895"><ele>1031.8</ele><time>2026-04-28T09:07:03Z</time></trkpt><trkpt lat="44.98066750471461" lon="5.583899067540295"><ele>1035.0</ele><time>2026-04-28T09:07:05Z</time></trkpt><trkpt lat="44.98056805677026" lon="5.583820391920034"><ele>1032.6666666666667</ele><time>2026-04-28T09:07:07Z</time></trkpt><trkpt lat="44.98050764531189" lon="5.583772876604494"><ele>1030.3333333333333</ele><time>2026-04-28T09:07:08Z</time></trkpt><trkpt lat="44.98044538666272" lon="5.583727524385246"><ele>1028.0</ele><time>2026-04-28T09:07:09Z</time></trkpt><trkpt lat="44.98037534235046" lon="5.583668602231115"><ele>1025.6666666666665</ele><time>2026-04-28T09:07:10Z</time></trkpt><trkpt lat="44.980302383970475" lon="5.583604245491426"><ele>1023.3333333333333</ele><time>2026-04-28T09:07:11Z</time></trkpt><trkpt lat="44.980215374576886" lon="5.583544120505739"><ele>1021.0</ele><time>2026-04-28T09:07:12Z</time></trkpt><trkpt lat="44.98013013693184" lon="5.583473293005519"><ele>1021.0</ele><time>2026-04-28T09:07:12.999Z</time></trkpt><trkpt lat="44.98003757895374" lon="5.583400162373206"><ele>1020.9999999999999</ele><time>2026-04-28T09:07:13.999Z</time></trkpt><trkpt lat="44.97993953162682" lon="5.583334155789244"><ele>1020.9999999999999</ele><time>2026-04-28T09:07:14.999Z</time></trkpt><trkpt lat="44.979837338187345" lon="5.583258646194118"><ele>1021.0</ele><time>2026-04-28T09:07:15.999Z</time></trkpt><trkpt lat="44.97973228328875" lon="5.583185482236617"><ele>1021.0</ele><time>2026-04-28T09:07:16.999Z</time></trkpt><trkpt lat="44.979623838946246" lon="5.583101985997518"><ele>1014.5</ele><time>2026-04-28T09:07:17.999Z</time></trkpt><trkpt lat="44.97951401525613" lon="5.583026725370391"><ele>1008.0</ele><time>2026-04-28T09:07:18.999Z</time></trkpt><trkpt lat="44.97940413642871" lon="5.582944671085942"><ele>1001.5</ele><time>2026-04-28T09:07:19.999Z</time></trkpt><trkpt lat="44.979288403253626" lon="5.582859422269411"><ele>995.0</ele><time>2026-04-28T09:07:20.999Z</time></trkpt><trkpt lat="44.97917233714003" lon="5.582768183563834"><ele>994.5</ele><time>2026-04-28T09:07:21.999Z</time></trkpt><trkpt lat="44.97905307826105" lon="5.582683057458415"><ele>994.0</ele><time>2026-04-28T09:07:22.999Z</time></trkpt><trkpt lat="44.978940353217034" lon="5.582583954528586"><ele>993.5</ele><time>2026-04-28T09:07:24.001Z</time></trkpt><trkpt lat="44.97881878056138" lon="5.582498965190218"><ele>993.0</ele><time>2026-04-28T09:07:25.001Z</time></trkpt><trkpt lat="44.978697362852415" lon="5.58240438333747"><ele>993.0</ele><time>2026-04-28T09:07:26.001Z</time></trkpt><trkpt lat="44.97857072870676" lon="5.582311595177922"><ele>993.0</ele><time>2026-04-28T09:07:27.001Z</time></trkpt><trkpt lat="44.97843676037077" lon="5.582213809147317"><ele>993.0</ele><time>2026-04-28T09:07:28.001Z</time></trkpt><trkpt lat="44.97830371937395" lon="5.582124564688536"><ele>993.0</ele><time>2026-04-28T09:07:29.001Z</time></trkpt><trkpt lat="44.97817109724784" lon="5.582034890139889"><ele>991.0</ele><time>2026-04-28T09:07:30.001Z</time></trkpt><trkpt lat="44.97804315399319" lon="5.581938102110859"><ele>989.0</ele><time>2026-04-28T09:07:31.001Z</time></trkpt><trkpt lat="44.97791412292533" lon="5.581842941604793"><ele>987.0</ele><time>2026-04-28T09:07:32.001Z</time></trkpt><trkpt lat="44.97778339041697" lon="5.581741880771326"><ele>985.0</ele><time>2026-04-28T09:07:33Z</time></trkpt><trkpt lat="44.97764794479375" lon="5.581642337255586"><ele>977.0</ele><time>2026-04-28T09:07:34Z</time></trkpt><trkpt lat="44.97751238789167" lon="5.581542897115087"><ele>969.0</ele><time>2026-04-28T09:07:35Z</time></trkpt><trkpt lat="44.977378533384254" lon="5.581442297635772"><ele>961.0</ele><time>2026-04-28T09:07:36Z</time></trkpt><trkpt lat="44.97724539293047" lon="5.581341473469141"><ele>961.0</ele><time>2026-04-28T09:07:37Z</time></trkpt><trkpt lat="44.977116573073666" lon="5.581242170252053"><ele>961.0</ele><time>2026-04-28T09:07:38Z</time></trkpt><trkpt lat="44.97699604523458" lon="5.581150521112503"><ele>961.0</ele><time>2026-04-28T09:07:39Z</time></trkpt><trkpt lat="44.976885669350224" lon="5.581061607322191"><ele>961.0</ele><time>2026-04-28T09:07:40Z</time></trkpt><trkpt lat="44.976785319182156" lon="5.580971850597792"><ele>959.75</ele><time>2026-04-28T09:07:41Z</time></trkpt><trkpt lat="44.97668644661744" lon="5.5808674272069085"><ele>958.5</ele><time>2026-04-28T09:07:42Z</time></trkpt><trkpt lat="44.97659178193588" lon="5.580744368772837"><ele>957.25</ele><time>2026-04-28T09:07:43Z</time></trkpt><trkpt lat="44.97650265046669" lon="5.580613378475042"><ele>956.0</ele><time>2026-04-28T09:07:44Z</time></trkpt><trkpt lat="44.976415056299665" lon="5.580483255022312"><ele>956.0</ele><time>2026-04-28T09:07:45Z</time></trkpt><trkpt lat="44.97634270604592" lon="5.580352527221478"><ele>956.0</ele><time>2026-04-28T09:07:46Z</time></trkpt><trkpt lat="44.97628899606261" lon="5.580212511624319"><ele>956.0</ele><time>2026-04-28T09:07:47Z</time></trkpt><trkpt lat="44.97625011484407" lon="5.580054602071061"><ele>956.0</ele><time>2026-04-28T09:07:48Z</time></trkpt><trkpt lat="44.97622955340157" lon="5.579883273858674"><ele>955.25</ele><time>2026-04-28T09:07:49Z</time></trkpt><trkpt lat="44.97623070412292" lon="5.57970387961998"><ele>954.5</ele><time>2026-04-28T09:07:50Z</time></trkpt><trkpt lat="44.97624247217567" lon="5.579523620170083"><ele>953.75</ele><time>2026-04-28T09:07:51Z</time></trkpt><trkpt lat="44.976266126609445" lon="5.579347198494538"><ele>953.0</ele><time>2026-04-28T09:07:52Z</time></trkpt><trkpt lat="44.976312010668344" lon="5.579169822634271"><ele>953.0</ele><time>2026-04-28T09:07:53Z</time></trkpt><trkpt lat="44.976374304553666" lon="5.578997856826115"><ele>953.0</ele><time>2026-04-28T09:07:54Z</time></trkpt><trkpt lat="44.976442915568676" lon="5.578837307265089"><ele>953.0</ele><time>2026-04-28T09:07:55Z</time></trkpt><trkpt lat="44.97650848164642" lon="5.578698267668714"><ele>953.0</ele><time>2026-04-28T09:07:56Z</time></trkpt><trkpt lat="44.97656718007329" lon="5.578576292005744"><ele>953.75</ele><time>2026-04-28T09:07:57Z</time></trkpt><trkpt lat="44.97662815600101" lon="5.578446058466192"><ele>954.5</ele><time>2026-04-28T09:07:58Z</time></trkpt><trkpt lat="44.976693203276774" lon="5.57830307091602"><ele>955.25</ele><time>2026-04-28T09:07:59Z</time></trkpt><trkpt lat="44.9767659305215" lon="5.5781708984271114"><ele>956.0</ele><time>2026-04-28T09:08:00Z</time></trkpt><trkpt lat="44.976845193730675" lon="5.578035941744322"><ele>956.0</ele><time>2026-04-28T09:08:01Z</time></trkpt><trkpt lat="44.976934727370036" lon="5.577913419007654"><ele>956.0</ele><time>2026-04-28T09:08:02Z</time></trkpt><trkpt lat="44.977025870407076" lon="5.577797185428004"><ele>956.0</ele><time>2026-04-28T09:08:03Z</time></trkpt><trkpt lat="44.97712447886451" lon="5.577682960616052"><ele>956.0</ele><time>2026-04-28T09:08:04Z</time></trkpt><trkpt lat="44.977225201367546" lon="5.5775733579539"><ele>952.5000000000001</ele><time>2026-04-28T09:08:05Z</time></trkpt><trkpt lat="44.977314599295944" lon="5.577484420571701"><ele>949.0</ele><time>2026-04-28T09:08:06Z</time></trkpt><trkpt lat="44.977375665000544" lon="5.577407951795152"><ele>945.5</ele><time>2026-04-28T09:08:07Z</time></trkpt><trkpt lat="44.97741058117203" lon="5.577322849280847"><ele>942.0</ele><time>2026-04-28T09:08:08Z</time></trkpt><trkpt lat="44.97741078294627" lon="5.5772155470020355"><ele>938.5000000000001</ele><time>2026-04-28T09:08:09Z</time></trkpt><trkpt lat="44.977396415035926" lon="5.577121523596507"><ele>935.0</ele><time>2026-04-28T09:08:10Z</time></trkpt><trkpt lat="44.977351991371016" lon="5.577034579273332"><ele>938.6666666666667</ele><time>2026-04-28T09:08:11Z</time></trkpt><trkpt lat="44.977275264469654" lon="5.576979371669966"><ele>942.3333333333334</ele><time>2026-04-28T09:08:12Z</time></trkpt><trkpt lat="44.97719051552232" lon="5.576954219822047"><ele>946.0</ele><time>2026-04-28T09:08:13Z</time></trkpt><trkpt lat="44.97710595194517" lon="5.576936707092464"><ele>949.6666666666667</ele><time>2026-04-28T09:08:14Z</time></trkpt><trkpt lat="44.97701560556187" lon="5.576917231517688"><ele>953.3333333333334</ele><time>2026-04-28T09:08:15Z</time></trkpt><trkpt lat="44.97692361374461" lon="5.576923130239345"><ele>957.0</ele><time>2026-04-28T09:08:16Z</time></trkpt><trkpt lat="44.97682011309171" lon="5.576924148197301"><ele>957.0</ele><time>2026-04-28T09:08:17Z</time></trkpt><trkpt lat="44.976716476954586" lon="5.576908192404027"><ele>957.0</ele><time>2026-04-28T09:08:18Z</time></trkpt><trkpt lat="44.9766115941056" lon="5.576892586356442"><ele>957.0</ele><time>2026-04-28T09:08:19Z</time></trkpt><trkpt lat="44.976505131873246" lon="5.576872568698979"><ele>957.0</ele><time>2026-04-28T09:08:20Z</time></trkpt><trkpt lat="44.97638958595273" lon="5.576837282750079"><ele>957.0</ele><time>2026-04-28T09:08:21Z</time></trkpt><trkpt lat="44.97626699781513" lon="5.576811491521752"><ele>954.5</ele><time>2026-04-28T09:08:22Z</time></trkpt><trkpt lat="44.97615460910479" lon="5.5767483524218475"><ele>952.0</ele><time>2026-04-28T09:08:23Z</time></trkpt><trkpt lat="44.976038980499844" lon="5.576679957207668"><ele>949.5</ele><time>2026-04-28T09:08:24Z</time></trkpt><trkpt lat="44.97592336688268" lon="5.576591020257486"><ele>947.0</ele><time>2026-04-28T09:08:25Z</time></trkpt><trkpt lat="44.975808035301164" lon="5.576508058351919"><ele>940.75</ele><time>2026-04-28T09:08:26Z</time></trkpt><trkpt lat="44.97569723811972" lon="5.576422090371981"><ele>934.5</ele><time>2026-04-28T09:08:27Z</time></trkpt><trkpt lat="44.97559048174873" lon="5.576339075521968"><ele>928.25</ele><time>2026-04-28T09:08:28Z</time></trkpt><trkpt lat="44.97547598583672" lon="5.576272445239818"><ele>922.0</ele><time>2026-04-28T09:08:29Z</time></trkpt><trkpt lat="44.97535389470565" lon="5.576224879231092"><ele>922.0</ele><time>2026-04-28T09:08:30Z</time></trkpt><trkpt lat="44.97521990687257" lon="5.576213184206742"><ele>922.0</ele><time>2026-04-28T09:08:31Z</time></trkpt><trkpt lat="44.97510181792702" lon="5.576204481377465"><ele>922.0</ele><time>2026-04-28T09:08:32Z</time></trkpt><trkpt lat="44.975001977731665" lon="5.576200802313534"><ele>922.0</ele><time>2026-04-28T09:08:33Z</time></trkpt><trkpt lat="44.97491702523387" lon="5.576205506552649"><ele>922.0</ele><time>2026-04-28T09:08:34Z</time></trkpt><trkpt lat="44.974853354580816" lon="5.5762241152376815"><ele>919.6666666666666</ele><time>2026-04-28T09:08:35Z</time></trkpt><trkpt lat="44.9747733717482" lon="5.576192627935229"><ele>917.3333333333333</ele><time>2026-04-28T09:08:37Z</time></trkpt><trkpt lat="44.97478015109153" lon="5.5760192113239455"><ele>915.0</ele><time>2026-04-28T09:08:39Z</time></trkpt><trkpt lat="44.974813950523355" lon="5.575937995542318"><ele>912.6666666666667</ele><time>2026-04-28T09:08:40Z</time></trkpt><trkpt lat="44.974847453054174" lon="5.575857641236937"><ele>910.3333333333334</ele><time>2026-04-28T09:08:41Z</time></trkpt><trkpt lat="44.97488521092749" lon="5.575773234247268"><ele>908.0</ele><time>2026-04-28T09:08:42Z</time></trkpt><trkpt lat="44.974919762376814" lon="5.575673980514084"><ele>908.0000000000001</ele><time>2026-04-28T09:08:43Z</time></trkpt><trkpt lat="44.97495187176611" lon="5.575572258837868"><ele>908.0</ele><time>2026-04-28T09:08:44Z</time></trkpt><trkpt lat="44.974990673518136" lon="5.575462437315251"><ele>908.0</ele><time>2026-04-28T09:08:45Z</time></trkpt><trkpt lat="44.975024502775135" lon="5.5753475283907505"><ele>908.0</ele><time>2026-04-28T09:08:46Z</time></trkpt><trkpt lat="44.97506194302358" lon="5.575218916678352"><ele>908.0000000000001</ele><time>2026-04-28T09:08:47Z</time></trkpt><trkpt lat="44.97510149840277" lon="5.575094025645644"><ele>908.0</ele><time>2026-04-28T09:08:48Z</time></trkpt><trkpt lat="44.97515588506487" lon="5.574975814410223"><ele>909.2</ele><time>2026-04-28T09:08:49Z</time></trkpt><trkpt lat="44.97521770489904" lon="5.574856612448126"><ele>910.4</ele><time>2026-04-28T09:08:50Z</time></trkpt><trkpt lat="44.97528483791492" lon="5.574747942757696"><ele>911.6000000000001</ele><time>2026-04-28T09:08:51Z</time></trkpt><trkpt lat="44.975341145006524" lon="5.574653110668537"><ele>912.8000000000001</ele><time>2026-04-28T09:08:52Z</time></trkpt><trkpt lat="44.97537609329742" lon="5.574546140254695"><ele>914.0</ele><time>2026-04-28T09:08:53Z</time></trkpt><trkpt lat="44.97538298312031" lon="5.574430173680725"><ele>914.0000000000001</ele><time>2026-04-28T09:08:54Z</time></trkpt><trkpt lat="44.97534369173443" lon="5.574308744987949"><ele>914.0</ele><time>2026-04-28T09:08:55Z</time></trkpt><trkpt lat="44.975292336184" lon="5.57421398721784"><ele>914.0</ele><time>2026-04-28T09:08:56Z</time></trkpt><trkpt lat="44.9752189301303" lon="5.5741573901221955"><ele>914.0</ele><time>2026-04-28T09:08:57Z</time></trkpt><trkpt lat="44.97514119737932" lon="5.574148815140065"><ele>914.0000000000001</ele><time>2026-04-28T09:08:58Z</time></trkpt><trkpt lat="44.97506198769384" lon="5.574145122769323"><ele>914.0</ele><time>2026-04-28T09:08:59Z</time></trkpt><trkpt lat="44.97498693957414" lon="5.5741491564392875"><ele>913.1428571428573</ele><time>2026-04-28T09:09:00Z</time></trkpt><trkpt lat="44.97491776588966" lon="5.574149026089973"><ele>912.2857142857143</ele><time>2026-04-28T09:09:01Z</time></trkpt><trkpt lat="44.974844536296565" lon="5.574152584333437"><ele>911.4285714285716</ele><time>2026-04-28T09:09:02Z</time></trkpt><trkpt lat="44.97477302313116" lon="5.5741395513110215"><ele>910.5714285714287</ele><time>2026-04-28T09:09:03Z</time></trkpt><trkpt lat="44.974708558006725" lon="5.574121061277908"><ele>909.7142857142858</ele><time>2026-04-28T09:09:04Z</time></trkpt><trkpt lat="44.974644295100056" lon="5.574093355709483"><ele>908.8571428571429</ele><time>2026-04-28T09:09:05Z</time></trkpt><trkpt lat="44.97457688899612" lon="5.574059071397189"><ele>908.0</ele><time>2026-04-28T09:09:06Z</time></trkpt><trkpt lat="44.974514489470884" lon="5.5740220742747155"><ele>908.0</ele><time>2026-04-28T09:09:07Z</time></trkpt><trkpt lat="44.97445083063072" lon="5.573980035188134"><ele>908.0000000000001</ele><time>2026-04-28T09:09:08Z</time></trkpt><trkpt lat="44.97439306366076" lon="5.573941007953153"><ele>908.0</ele><time>2026-04-28T09:09:09Z</time></trkpt><trkpt lat="44.974333335977065" lon="5.573878793802635"><ele>908.0</ele><time>2026-04-28T09:09:10Z</time></trkpt><trkpt lat="44.97428233591904" lon="5.5738182430262615"><ele>908.0000000000001</ele><time>2026-04-28T09:09:11Z</time></trkpt><trkpt lat="44.97423544715626" lon="5.573754498891967"><ele>908.0</ele><time>2026-04-28T09:09:12Z</time></trkpt><trkpt lat="44.97419293753911" lon="5.573684565996587"><ele>908.0</ele><time>2026-04-28T09:09:13Z</time></trkpt><trkpt lat="44.974160243504635" lon="5.573606530153985"><ele>907.5</ele><time>2026-04-28T09:09:14Z</time></trkpt><trkpt lat="44.974110015032636" lon="5.5734512856299965"><ele>907.0</ele><time>2026-04-28T09:09:15.999Z</time></trkpt><trkpt lat="44.974103822147946" lon="5.573286863816938"><ele>906.5</ele><time>2026-04-28T09:09:17.999Z</time></trkpt><trkpt lat="44.97413294030212" lon="5.573134046165438"><ele>906.0</ele><time>2026-04-28T09:09:19.999Z</time></trkpt><trkpt lat="44.97421096943898" lon="5.573007221906407"><ele>907.5</ele><time>2026-04-28T09:09:21.999Z</time></trkpt><trkpt lat="44.97429611502878" lon="5.572901733985063"><ele>909.0</ele><time>2026-04-28T09:09:23.999Z</time></trkpt><trkpt lat="44.97439117301844" lon="5.572803767010396"><ele>910.5</ele><time>2026-04-28T09:09:25.999Z</time></trkpt><trkpt lat="44.97449236655977" lon="5.572732389570826"><ele>912.0</ele><time>2026-04-28T09:09:27.999Z</time></trkpt><trkpt lat="44.97459057815117" lon="5.572661050964996"><ele>912.0</ele><time>2026-04-28T09:09:30.001Z</time></trkpt><trkpt lat="44.974693481271316" lon="5.572588870263683"><ele>912.0</ele><time>2026-04-28T09:09:32.001Z</time></trkpt><trkpt lat="44.97479215559905" lon="5.572503208841324"><ele>912.0</ele><time>2026-04-28T09:09:34.001Z</time></trkpt><trkpt lat="44.974886870031284" lon="5.572417632829448"><ele>912.0</ele><time>2026-04-28T09:09:36.001Z</time></trkpt><trkpt lat="44.97498593068002" lon="5.5723356687596315"><ele>912.4000000000001</ele><time>2026-04-28T09:09:38Z</time></trkpt><trkpt lat="44.97507498145389" lon="5.572227841435514"><ele>912.8000000000001</ele><time>2026-04-28T09:09:40Z</time></trkpt><trkpt lat="44.975093988177925" lon="5.572065593865192"><ele>913.2</ele><time>2026-04-28T09:09:42Z</time></trkpt><trkpt lat="44.97505942005799" lon="5.571922862337716"><ele>913.6</ele><time>2026-04-28T09:09:44Z</time></trkpt><trkpt lat="44.97499322464694" lon="5.57182196915327"><ele>914.0</ele><time>2026-04-28T09:09:46Z</time></trkpt><trkpt lat="44.97489461690817" lon="5.571776965267651"><ele>914.0</ele><time>2026-04-28T09:09:48Z</time></trkpt><trkpt lat="44.974783766744814" lon="5.5717892149117345"><ele>914.0</ele><time>2026-04-28T09:09:50Z</time></trkpt><trkpt lat="44.97467272202803" lon="5.571807522125884"><ele>914.0</ele><time>2026-04-28T09:09:52Z</time></trkpt><trkpt lat="44.97456098139918" lon="5.571837957403743"><ele>914.0</ele><time>2026-04-28T09:09:54Z</time></trkpt><trkpt lat="44.97444808262037" lon="5.571869865930831"><ele>914.0</ele><time>2026-04-28T09:09:56Z</time></trkpt><trkpt lat="44.97432790578339" lon="5.571887218384736"><ele>914.0000000000001</ele><time>2026-04-28T09:09:58Z</time></trkpt><trkpt lat="44.97421929828174" lon="5.571910392728908"><ele>914.0000000000001</ele><time>2026-04-28T09:10:00Z</time></trkpt><trkpt lat="44.974120299441985" lon="5.571853856606479"><ele>914.0</ele><time>2026-04-28T09:10:02Z</time></trkpt><trkpt lat="44.974052271342266" lon="5.571735511719678"><ele>914.0</ele><time>2026-04-28T09:10:04Z</time></trkpt><trkpt lat="44.974007219469485" lon="5.571594230187328"><ele>914.4000000000001</ele><time>2026-04-28T09:10:06Z</time></trkpt><trkpt lat="44.97397481482739" lon="5.571448599195083"><ele>914.8000000000001</ele><time>2026-04-28T09:10:08Z</time></trkpt><trkpt lat="44.973951358946685" lon="5.57130904250693"><ele>915.1999999999999</ele><time>2026-04-28T09:10:10Z</time></trkpt><trkpt lat="44.973928611157085" lon="5.571188212944863"><ele>915.5999999999999</ele><time>2026-04-28T09:10:12Z</time></trkpt><trkpt lat="44.973914974926245" lon="5.571079675525827"><ele>916.0</ele><time>2026-04-28T09:10:14Z</time></trkpt><trkpt lat="44.97388712635093" lon="5.570971420603393"><ele>915.9999999999999</ele><time>2026-04-28T09:10:16Z</time></trkpt><trkpt lat="44.973877190146844" lon="5.570870047427839"><ele>916.0</ele><time>2026-04-28T09:10:18Z</time></trkpt><trkpt lat="44.97387062217107" lon="5.570767554716639"><ele>916.0</ele><time>2026-04-28T09:10:20Z</time></trkpt><trkpt lat="44.973855216638995" lon="5.5706667346715495"><ele>916.0</ele><time>2026-04-28T09:10:22Z</time></trkpt><trkpt lat="44.97383806087789" lon="5.570557721453817"><ele>915.9999999999999</ele><time>2026-04-28T09:10:24Z</time></trkpt><trkpt lat="44.973836214847005" lon="5.570444299202134"><ele>916.0</ele><time>2026-04-28T09:10:26Z</time></trkpt><trkpt lat="44.97381970921671" lon="5.570344907048405"><ele>917.4285714285713</ele><time>2026-04-28T09:10:28Z</time></trkpt><trkpt lat="44.97380495211141" lon="5.570243884632471"><ele>918.8571428571429</ele><time>2026-04-28T09:10:30Z</time></trkpt><trkpt lat="44.97376559824127" lon="5.570152121012363"><ele>920.2857142857142</ele><time>2026-04-28T09:10:32Z</time></trkpt><trkpt lat="44.97373003934829" lon="5.570055838763347"><ele>921.7142857142857</ele><time>2026-04-28T09:10:34Z</time></trkpt><trkpt lat="44.973681549793376" lon="5.5699714284161335"><ele>923.1428571428571</ele><time>2026-04-28T09:10:36Z</time></trkpt><trkpt lat="44.97362848248469" lon="5.569895000201218"><ele>924.5714285714286</ele><time>2026-04-28T09:10:38Z</time></trkpt><trkpt lat="44.973589105259876" lon="5.569816755564798"><ele>926.0</ele><time>2026-04-28T09:10:40Z</time></trkpt><trkpt lat="44.973541823625844" lon="5.569751213547506"><ele>926.0</ele><time>2026-04-28T09:10:42Z</time></trkpt><trkpt lat="44.973481644621295" lon="5.569710327174665"><ele>925.9999999999999</ele><time>2026-04-28T09:10:44Z</time></trkpt><trkpt lat="44.97341699222796" lon="5.569676994635001"><ele>926.0</ele><time>2026-04-28T09:10:46Z</time></trkpt><trkpt lat="44.97335065349155" lon="5.569669362917013"><ele>926.0</ele><time>2026-04-28T09:10:48Z</time></trkpt><trkpt lat="44.97328440106211" lon="5.569658561072854"><ele>925.9999999999999</ele><time>2026-04-28T09:10:50Z</time></trkpt><trkpt lat="44.973220657929716" lon="5.569679448673264"><ele>926.0</ele><time>2026-04-28T09:10:52Z</time></trkpt><trkpt lat="44.973153942283595" lon="5.569703038674254"><ele>926.0</ele><time>2026-04-28T09:10:54Z</time></trkpt><trkpt lat="44.97308859552849" lon="5.569707804126019"><ele>924.6666666666667</ele><time>2026-04-28T09:10:56Z</time></trkpt><trkpt lat="44.97299983925015" lon="5.56972648802111"><ele>923.3333333333334</ele><time>2026-04-28T09:10:59Z</time></trkpt><trkpt lat="44.97291490833618" lon="5.569755323107159"><ele>922.0</ele><time>2026-04-28T09:11:02Z</time></trkpt><trkpt lat="44.972828975428754" lon="5.569793428784031"><ele>920.6666666666667</ele><time>2026-04-28T09:11:05Z</time></trkpt><trkpt lat="44.972750312239285" lon="5.56982365665423"><ele>919.3333333333334</ele><time>2026-04-28T09:11:08Z</time></trkpt><trkpt lat="44.972674452528786" lon="5.569797170825653"><ele>918.0</ele><time>2026-04-28T09:11:10.999Z</time></trkpt><trkpt lat="44.972620324368215" lon="5.569705618832735"><ele>918.0</ele><time>2026-04-28T09:11:13.999Z</time></trkpt><trkpt lat="44.97259574061874" lon="5.569600136883969"><ele>918.0</ele><time>2026-04-28T09:11:16.999Z</time></trkpt><trkpt lat="44.972597761907004" lon="5.569487495193377"><ele>918.0</ele><time>2026-04-28T09:11:19.999Z</time></trkpt><trkpt lat="44.972589038034215" lon="5.569377388425295"><ele>918.0</ele><time>2026-04-28T09:11:22.999Z</time></trkpt><trkpt lat="44.97258796079799" lon="5.569253545683422"><ele>918.0</ele><time>2026-04-28T09:11:25.999Z</time></trkpt><trkpt lat="44.972599446261725" lon="5.569158047459208"><ele>918.0</ele><time>2026-04-28T09:11:27.999Z</time></trkpt><trkpt lat="44.97260604981344" lon="5.569048057677833"><ele>920.5999999999999</ele><time>2026-04-28T09:11:29.999Z</time></trkpt><trkpt lat="44.97261158171698" lon="5.568931536868124"><ele>923.1999999999999</ele><time>2026-04-28T09:11:31.999Z</time></trkpt><trkpt lat="44.9726139860727" lon="5.568805378828206"><ele>925.8</ele><time>2026-04-28T09:11:33.999Z</time></trkpt><trkpt lat="44.972664002456334" lon="5.56869116887952"><ele>928.4</ele><time>2026-04-28T09:11:36Z</time></trkpt><trkpt lat="44.97274686728402" lon="5.568597333501783"><ele>931.0</ele><time>2026-04-28T09:11:38Z</time></trkpt><trkpt lat="44.97284796834956" lon="5.568544626774785"><ele>931.0</ele><time>2026-04-28T09:11:40Z</time></trkpt><trkpt lat="44.97295717101087" lon="5.568503328925198"><ele>931.0</ele><time>2026-04-28T09:11:42Z</time></trkpt><trkpt lat="44.97306156263682" lon="5.568459054726217"><ele>931.0</ele><time>2026-04-28T09:11:44Z</time></trkpt><trkpt lat="44.973170025651356" lon="5.568405509084947"><ele>931.0</ele><time>2026-04-28T09:11:46Z</time></trkpt><trkpt lat="44.97332116196998" lon="5.568321064131721"><ele>934.4999999999999</ele><time>2026-04-28T09:11:49Z</time></trkpt><trkpt lat="44.97341040387808" lon="5.568293559060352"><ele>938.0</ele><time>2026-04-28T09:11:51Z</time></trkpt><trkpt lat="44.973491397097284" lon="5.568242611706541"><ele>941.5</ele><time>2026-04-28T09:11:53Z</time></trkpt><trkpt lat="44.97356365804977" lon="5.568179555691092"><ele>945.0</ele><time>2026-04-28T09:11:56Z</time></trkpt><trkpt lat="44.97360506862987" lon="5.5681026739684905"><ele>948.4999999999999</ele><time>2026-04-28T09:12:36Z</time></trkpt><trkpt lat="44.973668772731756" lon="5.568024739880768"><ele>952.0</ele><time>2026-04-28T09:12:39Z</time></trkpt><trkpt lat="44.973742985337836" lon="5.5679428236454935"><ele>951.9999999999999</ele><time>2026-04-28T09:12:42Z</time></trkpt><trkpt lat="44.973795835877596" lon="5.567876651697919"><ele>952.0</ele><time>2026-04-28T09:12:44Z</time></trkpt><trkpt lat="44.97386223033301" lon="5.567821857881719"><ele>952.0</ele><time>2026-04-28T09:12:46Z</time></trkpt><trkpt lat="44.97391541497723" lon="5.567740696115347"><ele>952.0</ele><time>2026-04-28T09:12:48Z</time></trkpt><trkpt lat="44.97394393296519" lon="5.567622421815295"><ele>951.9999999999999</ele><time>2026-04-28T09:12:50Z</time></trkpt><trkpt lat="44.97397163877688" lon="5.567525234432994"><ele>952.0</ele><time>2026-04-28T09:12:52Z</time></trkpt><trkpt lat="44.97398922879595" lon="5.56741925497566"><ele>951.3333333333333</ele><time>2026-04-28T09:12:53.999Z</time></trkpt><trkpt lat="44.97401716375801" lon="5.56731482011025"><ele>950.6666666666666</ele><time>2026-04-28T09:12:55.999Z</time></trkpt><trkpt lat="44.97405191777078" lon="5.567215640816638"><ele>950.0</ele><time>2026-04-28T09:12:57.999Z</time></trkpt><trkpt lat="44.97408159770007" lon="5.567113751590634"><ele>949.3333333333333</ele><time>2026-04-28T09:12:59.999Z</time></trkpt><trkpt lat="44.97410395565455" lon="5.56700739448857"><ele>948.6666666666666</ele><time>2026-04-28T09:13:01.999Z</time></trkpt><trkpt lat="44.974092123270694" lon="5.566899096522867"><ele>948.0</ele><time>2026-04-28T09:13:03.999Z</time></trkpt><trkpt lat="44.97403070238173" lon="5.566798351768987"><ele>948.0</ele><time>2026-04-28T09:13:05.999Z</time></trkpt><trkpt lat="44.973949133319024" lon="5.566760638753303"><ele>948.0</ele><time>2026-04-28T09:13:07.999Z</time></trkpt><trkpt lat="44.973858678733826" lon="5.5667754296613925"><ele>948.0</ele><time>2026-04-28T09:13:09.999Z</time></trkpt><trkpt lat="44.97376805991356" lon="5.566842156869883"><ele>948.0</ele><time>2026-04-28T09:13:11.999Z</time></trkpt><trkpt lat="44.97368591771218" lon="5.566924223914623"><ele>948.0</ele><time>2026-04-28T09:13:13.999Z</time></trkpt><trkpt lat="44.97363588450427" lon="5.56699163690613"><ele>948.0</ele><time>2026-04-28T09:13:15.999Z</time></trkpt><trkpt lat="44.97356116343553" lon="5.567069805707832"><ele>948.0</ele><time>2026-04-28T09:13:17.999Z</time></trkpt><trkpt lat="44.97348923648536" lon="5.567140827458933"><ele>948.0</ele><time>2026-04-28T09:13:19.999Z</time></trkpt><trkpt lat="44.97340550524308" lon="5.567212513995971"><ele>948.0</ele><time>2026-04-28T09:13:21.999Z</time></trkpt><trkpt lat="44.973326812585505" lon="5.567281624047196"><ele>948.0</ele><time>2026-04-28T09:13:23.999Z</time></trkpt><trkpt lat="44.9732510782982" lon="5.567332768058372"><ele>948.0</ele><time>2026-04-28T09:13:25.999Z</time></trkpt><trkpt lat="44.97316263380731" lon="5.567346369811864"><ele>945.1666666666666</ele><time>2026-04-28T09:13:27.999Z</time></trkpt><trkpt lat="44.97307557352288" lon="5.567329145809209"><ele>942.3333333333333</ele><time>2026-04-28T09:13:29.999Z</time></trkpt><trkpt lat="44.9729915263144" lon="5.567316320832157"><ele>939.5</ele><time>2026-04-28T09:13:31.999Z</time></trkpt><trkpt lat="44.97290868017801" lon="5.567292794393844"><ele>936.6666666666666</ele><time>2026-04-28T09:13:33.999Z</time></trkpt><trkpt lat="44.97282369180464" lon="5.567268568492246"><ele>933.8333333333333</ele><time>2026-04-28T09:13:35.999Z</time></trkpt><trkpt lat="44.97273390244731" lon="5.56725640218369"><ele>931.0</ele><time>2026-04-28T09:13:37.999Z</time></trkpt><trkpt lat="44.97264083136184" lon="5.567260312899497"><ele>931.0</ele><time>2026-04-28T09:13:39.999Z</time></trkpt><trkpt lat="44.97254563573204" lon="5.567273783862396"><ele>930.9999999999999</ele><time>2026-04-28T09:13:42Z</time></trkpt><trkpt lat="44.97244228374947" lon="5.567281173795775"><ele>930.9999999999999</ele><time>2026-04-28T09:13:44Z</time></trkpt><trkpt lat="44.97234113672331" lon="5.567276468302962"><ele>931.0</ele><time>2026-04-28T09:13:46Z</time></trkpt><trkpt lat="44.97224733208372" lon="5.567253316718047"><ele>931.0</ele><time>2026-04-28T09:13:48Z</time></trkpt><trkpt lat="44.97216047292649" lon="5.567214130498278"><ele>930.8333333333333</ele><time>2026-04-28T09:13:50Z</time></trkpt><trkpt lat="44.97208252236422" lon="5.567176096549567"><ele>930.6666666666666</ele><time>2026-04-28T09:13:52Z</time></trkpt><trkpt lat="44.97201095971053" lon="5.567118314347686"><ele>930.5</ele><time>2026-04-28T09:13:54Z</time></trkpt><trkpt lat="44.971951867116374" lon="5.56704810259818"><ele>930.3333333333333</ele><time>2026-04-28T09:13:56Z</time></trkpt><trkpt lat="44.97190227538024" lon="5.566973110927702"><ele>930.1666666666666</ele><time>2026-04-28T09:13:58Z</time></trkpt><trkpt lat="44.97186190775944" lon="5.566892595973973"><ele>930.0</ele><time>2026-04-28T09:14:00Z</time></trkpt><trkpt lat="44.97181922317601" lon="5.566814998998815"><ele>931.5</ele><time>2026-04-28T09:14:02Z</time></trkpt><trkpt lat="44.97177578416767" lon="5.56673528939363"><ele>933.0</ele><time>2026-04-28T09:14:04Z</time></trkpt><trkpt lat="44.97173007678813" lon="5.566651209432384"><ele>934.5</ele><time>2026-04-28T09:14:06Z</time></trkpt><trkpt lat="44.97168270551129" lon="5.566561039078165"><ele>936.0</ele><time>2026-04-28T09:14:08Z</time></trkpt><trkpt lat="44.97163003946656" lon="5.56647625546829"><ele>937.5</ele><time>2026-04-28T09:14:10Z</time></trkpt><trkpt lat="44.971576606333564" lon="5.566383316999986"><ele>939.0</ele><time>2026-04-28T09:14:12Z</time></trkpt><trkpt lat="44.97153412161059" lon="5.56627642569063"><ele>942.5</ele><time>2026-04-28T09:14:14Z</time></trkpt><trkpt lat="44.97150343715148" lon="5.566164361181823"><ele>946.0</ele><time>2026-04-28T09:14:16Z</time></trkpt><trkpt lat="44.97146570768364" lon="5.5660587571027555"><ele>949.5</ele><time>2026-04-28T09:14:18Z</time></trkpt><trkpt lat="44.97141678319107" lon="5.565973429075161"><ele>953.0</ele><time>2026-04-28T09:14:20Z</time></trkpt><trkpt lat="44.97135971811445" lon="5.565874154216558"><ele>956.5</ele><time>2026-04-28T09:14:23Z</time></trkpt><trkpt lat="44.97129199257199" lon="5.565806675553201"><ele>960.0</ele><time>2026-04-28T09:14:27Z</time></trkpt><trkpt lat="44.97123902486777" lon="5.565730615307942"><ele>960.0</ele><time>2026-04-28T09:14:30Z</time></trkpt><trkpt lat="44.97118296146526" lon="5.565637693855576"><ele>960.0</ele><time>2026-04-28T09:14:33Z</time></trkpt><trkpt lat="44.97112901912977" lon="5.5655812166477645"><ele>960.0</ele><time>2026-04-28T09:14:35Z</time></trkpt><trkpt lat="44.971068222589835" lon="5.565518049110608"><ele>960.0</ele><time>2026-04-28T09:14:37Z</time></trkpt><trkpt lat="44.97100189790867" lon="5.565471276073956"><ele>960.0</ele><time>2026-04-28T09:14:39Z</time></trkpt><trkpt lat="44.9709372627978" lon="5.565414489391584"><ele>960.0</ele><time>2026-04-28T09:14:41Z</time></trkpt><trkpt lat="44.97086624795242" lon="5.56537766633405"><ele>958.0</ele><time>2026-04-28T09:14:43Z</time></trkpt><trkpt lat="44.97079116775313" lon="5.565333677495038"><ele>956.0</ele><time>2026-04-28T09:14:45Z</time></trkpt><trkpt lat="44.97072417756138" lon="5.5652960199497485"><ele>954.0</ele><time>2026-04-28T09:14:47Z</time></trkpt><trkpt lat="44.97066770321282" lon="5.565247567296054"><ele>952.0</ele><time>2026-04-28T09:14:48.999Z</time></trkpt><trkpt lat="44.9706026012759" lon="5.565195981273316"><ele>950.0</ele><time>2026-04-28T09:14:50.999Z</time></trkpt><trkpt lat="44.97055625030397" lon="5.565129467801319"><ele>948.0</ele><time>2026-04-28T09:14:52.999Z</time></trkpt><trkpt lat="44.970497489737376" lon="5.56502341931958"><ele>948.0</ele><time>2026-04-28T09:14:55.999Z</time></trkpt><trkpt lat="44.970482965596716" lon="5.564926488573235"><ele>948.0</ele><time>2026-04-28T09:14:57.999Z</time></trkpt><trkpt lat="44.970475153401274" lon="5.564835396077289"><ele>948.0</ele><time>2026-04-28T09:14:59.999Z</time></trkpt><trkpt lat="44.97047716460323" lon="5.564740596730707"><ele>948.0</ele><time>2026-04-28T09:15:01.999Z</time></trkpt><trkpt lat="44.97047990897326" lon="5.564638578647231"><ele>948.0</ele><time>2026-04-28T09:15:03.999Z</time></trkpt><trkpt lat="44.97049697964443" lon="5.564522004154081"><ele>948.0</ele><time>2026-04-28T09:15:05.999Z</time></trkpt><trkpt lat="44.97051809324539" lon="5.564396184557097"><ele>947.6666666666666</ele><time>2026-04-28T09:15:07.999Z</time></trkpt><trkpt lat="44.970534671667544" lon="5.564294421240875"><ele>947.3333333333333</ele><time>2026-04-28T09:15:10.999Z</time></trkpt><trkpt lat="44.9705575797068" lon="5.564168727734012"><ele>947.0</ele><time>2026-04-28T09:16:11Z</time></trkpt><trkpt lat="44.97056984150042" lon="5.564066269564539"><ele>946.6666666666666</ele><time>2026-04-28T09:16:13Z</time></trkpt><trkpt lat="44.97058678786122" lon="5.563960232617258"><ele>946.3333333333333</ele><time>2026-04-28T09:16:15Z</time></trkpt><trkpt lat="44.97060561415591" lon="5.563843443531802"><ele>946.0</ele><time>2026-04-28T09:16:17Z</time></trkpt><trkpt lat="44.97062768187348" lon="5.56372247845383"><ele>946.4</ele><time>2026-04-28T09:16:19Z</time></trkpt><trkpt lat="44.97064660456845" lon="5.5635969435623585"><ele>946.8</ele><time>2026-04-28T09:16:21Z</time></trkpt><trkpt lat="44.970684872572505" lon="5.563479269435136"><ele>947.1999999999999</ele><time>2026-04-28T09:16:23Z</time></trkpt><trkpt lat="44.9707301961107" lon="5.56335821502725"><ele>947.5999999999999</ele><time>2026-04-28T09:16:25Z</time></trkpt><trkpt lat="44.97079711255071" lon="5.56323306643542"><ele>948.0</ele><time>2026-04-28T09:16:27Z</time></trkpt><trkpt lat="44.97088118304277" lon="5.563118201475004"><ele>948.0</ele><time>2026-04-28T09:16:29Z</time></trkpt><trkpt lat="44.97098520380234" lon="5.5630321939016625"><ele>948.0</ele><time>2026-04-28T09:16:31Z</time></trkpt><trkpt lat="44.97108860308381" lon="5.562953204816562"><ele>948.0</ele><time>2026-04-28T09:16:33Z</time></trkpt><trkpt lat="44.97120021790915" lon="5.562890335791602"><ele>948.0</ele><time>2026-04-28T09:16:35Z</time></trkpt><trkpt lat="44.971311370137784" lon="5.562831472550444"><ele>947.25</ele><time>2026-04-28T09:16:37Z</time></trkpt><trkpt lat="44.971422468936616" lon="5.562771787326051"><ele>946.5</ele><time>2026-04-28T09:16:39Z</time></trkpt><trkpt lat="44.97153845075584" lon="5.562711571187274"><ele>945.75</ele><time>2026-04-28T09:16:41Z</time></trkpt><trkpt lat="44.97165625315577" lon="5.562653104792066"><ele>945.0</ele><time>2026-04-28T09:16:43Z</time></trkpt><trkpt lat="44.97177080765281" lon="5.562589774402599"><ele>945.0</ele><time>2026-04-28T09:16:44.999Z</time></trkpt><trkpt lat="44.971887453586554" lon="5.562528941209156"><ele>945.0</ele><time>2026-04-28T09:16:46.999Z</time></trkpt><trkpt lat="44.972000309616725" lon="5.562471898167789"><ele>945.0</ele><time>2026-04-28T09:16:48.999Z</time></trkpt><trkpt lat="44.97211065656111" lon="5.5624107119772"><ele>945.0</ele><time>2026-04-28T09:16:50.999Z</time></trkpt><trkpt lat="44.97222446152353" lon="5.562353156891901"><ele>945.0</ele><time>2026-04-28T09:16:52.999Z</time></trkpt><trkpt lat="44.97234016840145" lon="5.562281773446935"><ele>945.0</ele><time>2026-04-28T09:16:54.999Z</time></trkpt><trkpt lat="44.97239618725795" lon="5.562240469238637"><ele>945.0</ele><time>2026-04-28T09:16:55.999Z</time></trkpt><trkpt lat="44.9724560712802" lon="5.562195889890437"><ele>945.0</ele><time>2026-04-28T09:16:56.999Z</time></trkpt><trkpt lat="44.97251546400733" lon="5.562159343392543"><ele>945.0</ele><time>2026-04-28T09:16:57.999Z</time></trkpt><trkpt lat="44.972572389622606" lon="5.5621197958922695"><ele>945.0</ele><time>2026-04-28T09:16:58.999Z</time></trkpt><trkpt lat="44.97263287657693" lon="5.5620694417050816"><ele>945.5714285714286</ele><time>2026-04-28T09:16:59.999Z</time></trkpt><trkpt lat="44.97269518053811" lon="5.562024488435756"><ele>946.1428571428571</ele><time>2026-04-28T09:17:00.999Z</time></trkpt><trkpt lat="44.97275681585234" lon="5.561975272133378"><ele>946.7142857142858</ele><time>2026-04-28T09:17:01.999Z</time></trkpt><trkpt lat="44.97282124669354" lon="5.561929151389038"><ele>947.2857142857143</ele><time>2026-04-28T09:17:02.999Z</time></trkpt><trkpt lat="44.97288648962429" lon="5.561877431409514"><ele>947.8571428571429</ele><time>2026-04-28T09:17:03.999Z</time></trkpt><trkpt lat="44.97294843578135" lon="5.561820167977266"><ele>948.4285714285716</ele><time>2026-04-28T09:17:04.999Z</time></trkpt><trkpt lat="44.973008655939104" lon="5.561762468775613"><ele>949.0000000000001</ele><time>2026-04-28T09:17:05.999Z</time></trkpt><trkpt lat="44.97307001999965" lon="5.561688493694663"><ele>948.9999999999999</ele><time>2026-04-28T09:17:06.999Z</time></trkpt><trkpt lat="44.97312412109733" lon="5.561608006916592"><ele>949.0</ele><time>2026-04-28T09:17:07.999Z</time></trkpt><trkpt lat="44.97317182609988" lon="5.561518830400397"><ele>949.0</ele><time>2026-04-28T09:17:08.999Z</time></trkpt><trkpt lat="44.97321039802295" lon="5.561412401640885"><ele>949.0</ele><time>2026-04-28T09:17:09.999Z</time></trkpt><trkpt lat="44.97324531405915" lon="5.561298392761337"><ele>948.9999999999999</ele><time>2026-04-28T09:17:10.999Z</time></trkpt><trkpt lat="44.97326613735159" lon="5.561181632193507"><ele>949.0</ele><time>2026-04-28T09:17:11.999Z</time></trkpt><trkpt lat="44.973268945197965" lon="5.561058243685022"><ele>948.6666666666666</ele><time>2026-04-28T09:17:12.999Z</time></trkpt><trkpt lat="44.97325700303895" lon="5.560935736280382"><ele>948.3333333333333</ele><time>2026-04-28T09:17:13.999Z</time></trkpt><trkpt lat="44.97322800004596" lon="5.560823162725807"><ele>948.0</ele><time>2026-04-28T09:17:14.999Z</time></trkpt><trkpt lat="44.973169529082654" lon="5.5607374604522715"><ele>947.6666666666667</ele><time>2026-04-28T09:17:15.999Z</time></trkpt><trkpt lat="44.973099738953756" lon="5.560674443753602"><ele>947.3333333333334</ele><time>2026-04-28T09:17:16.999Z</time></trkpt><trkpt lat="44.9730256196925" lon="5.560646559048688"><ele>947.0</ele><time>2026-04-28T09:17:17.999Z</time></trkpt><trkpt lat="44.97295831486585" lon="5.560653857182348"><ele>947.0</ele><time>2026-04-28T09:17:18.999Z</time></trkpt><trkpt lat="44.97289659251447" lon="5.560686062616619"><ele>947.0</ele><time>2026-04-28T09:17:19.999Z</time></trkpt><trkpt lat="44.972791388992235" lon="5.560734173785495"><ele>947.0</ele><time>2026-04-28T09:17:21.999Z</time></trkpt><trkpt lat="44.972687444951966" lon="5.560773572547226"><ele>947.0</ele><time>2026-04-28T09:17:23.999Z</time></trkpt><trkpt lat="44.97258540512698" lon="5.560811448091998"><ele>947.0</ele><time>2026-04-28T09:17:25.999Z</time></trkpt><trkpt lat="44.972486291448575" lon="5.560830116439506"><ele>946.1666666666667</ele><time>2026-04-28T09:17:27.999Z</time></trkpt><trkpt lat="44.972396614926296" lon="5.5608381207850295"><ele>945.3333333333334</ele><time>2026-04-28T09:17:29.999Z</time></trkpt><trkpt lat="44.97230598235999" lon="5.560838624086198"><ele>944.5</ele><time>2026-04-28T09:17:31.999Z</time></trkpt><trkpt lat="44.97222851334819" lon="5.560781796957088"><ele>943.6666666666667</ele><time>2026-04-28T09:17:33.999Z</time></trkpt><trkpt lat="44.97216056213129" lon="5.560716557620637"><ele>942.8333333333334</ele><time>2026-04-28T09:17:35.999Z</time></trkpt><trkpt lat="44.97210571119681" lon="5.560628992725149"><ele>942.0</ele><time>2026-04-28T09:17:37.999Z</time></trkpt><trkpt lat="44.97207632529464" lon="5.560539985932335"><ele>942.0000000000001</ele><time>2026-04-28T09:17:39.999Z</time></trkpt><trkpt lat="44.972040333110435" lon="5.560432808510327"><ele>942.0</ele><time>2026-04-28T09:17:42.999Z</time></trkpt><trkpt lat="44.97203021124208" lon="5.560342169497764"><ele>942.0000000000001</ele><time>2026-04-28T09:17:44.999Z</time></trkpt><trkpt lat="44.972018911034695" lon="5.560246955469452"><ele>942.0000000000001</ele><time>2026-04-28T09:17:46.999Z</time></trkpt><trkpt lat="44.972006053994896" lon="5.560154693362358"><ele>942.0</ele><time>2026-04-28T09:17:48.999Z</time></trkpt><trkpt lat="44.971989311114015" lon="5.560063859890111"><ele>942.0000000000001</ele><time>2026-04-28T09:17:50.999Z</time></trkpt><trkpt lat="44.9719802693883" lon="5.55997227423886"><ele>942.0000000000001</ele><time>2026-04-28T09:17:52.999Z</time></trkpt><trkpt lat="44.971953434338324" lon="5.559886309112809"><ele>943.1666666666666</ele><time>2026-04-28T09:17:54.999Z</time></trkpt><trkpt lat="44.9719254817615" lon="5.559805587736647"><ele>944.3333333333333</ele><time>2026-04-28T09:17:56.999Z</time></trkpt><trkpt lat="44.97186620846633" lon="5.559707311083333"><ele>945.5</ele><time>2026-04-28T09:17:59.999Z</time></trkpt><trkpt lat="44.97179247217613" lon="5.559619852067068"><ele>946.6666666666666</ele><time>2026-04-28T09:18:02.999Z</time></trkpt><trkpt lat="44.97173025203611" lon="5.559575918847013"><ele>947.8333333333333</ele><time>2026-04-28T09:18:04.999Z</time></trkpt><trkpt lat="44.97166732400308" lon="5.559539459014289"><ele>949.0</ele><time>2026-04-28T09:18:06.999Z</time></trkpt><trkpt lat="44.97160204124083" lon="5.559508496922174"><ele>950.7142857142858</ele><time>2026-04-28T09:18:09Z</time></trkpt><trkpt lat="44.9715338463069" lon="5.559487531503504"><ele>952.4285714285714</ele><time>2026-04-28T09:18:11Z</time></trkpt><trkpt lat="44.97146743000049" lon="5.559475841409053"><ele>954.1428571428571</ele><time>2026-04-28T09:18:13Z</time></trkpt><trkpt lat="44.97140142134702" lon="5.559457655951689"><ele>955.8571428571429</ele><time>2026-04-28T09:18:15Z</time></trkpt><trkpt lat="44.97133529651478" lon="5.559440616719106"><ele>957.5714285714284</ele><time>2026-04-28T09:18:17Z</time></trkpt><trkpt lat="44.97126776312503" lon="5.559433080523917"><ele>959.2857142857142</ele><time>2026-04-28T09:18:19Z</time></trkpt><trkpt lat="44.97120504880097" lon="5.559413252836576"><ele>961.0</ele><time>2026-04-28T09:18:21Z</time></trkpt><trkpt lat="44.9711446235998" lon="5.559384923222044"><ele>960.9999999999999</ele><time>2026-04-28T09:18:23Z</time></trkpt><trkpt lat="44.97107279983917" lon="5.559306697313229"><ele>961.0</ele><time>2026-04-28T09:18:26Z</time></trkpt><trkpt lat="44.97102119051009" lon="5.559193900722942"><ele>961.0</ele><time>2026-04-28T09:18:29Z</time></trkpt><trkpt lat="44.97099520485157" lon="5.55906522540358"><ele>961.0</ele><time>2026-04-28T09:18:32Z</time></trkpt><trkpt lat="44.97097617551238" lon="5.558980333170298"><ele>960.9999999999999</ele><time>2026-04-28T09:18:34Z</time></trkpt><trkpt lat="44.97096303488093" lon="5.55888991172534"><ele>961.0</ele><time>2026-04-28T09:18:36Z</time></trkpt><trkpt lat="44.97095616024349" lon="5.558799329271877"><ele>960.9999999999999</ele><time>2026-04-28T09:18:38Z</time></trkpt><trkpt lat="44.97095820192662" lon="5.558707546293961"><ele>961.0</ele><time>2026-04-28T09:18:40Z</time></trkpt><trkpt lat="44.97095552119176" lon="5.558603913194886"><ele>961.0</ele><time>2026-04-28T09:18:42Z</time></trkpt><trkpt lat="44.970935409347824" lon="5.558492101226367"><ele>961.0</ele><time>2026-04-28T09:18:44Z</time></trkpt><trkpt lat="44.97088919343548" lon="5.558388171744234"><ele>960.9999999999999</ele><time>2026-04-28T09:18:46Z</time></trkpt><trkpt lat="44.97082064835655" lon="5.558294785968725"><ele>961.0</ele><time>2026-04-28T09:18:48Z</time></trkpt><trkpt lat="44.970741822512714" lon="5.558220174789573"><ele>960.4</ele><time>2026-04-28T09:18:49.999Z</time></trkpt><trkpt lat="44.970653345607126" lon="5.558166827681988"><ele>959.8</ele><time>2026-04-28T09:18:51.999Z</time></trkpt><trkpt lat="44.970565285254644" lon="5.5581180647057575"><ele>959.1999999999999</ele><time>2026-04-28T09:18:53.999Z</time></trkpt><trkpt lat="44.970476122333864" lon="5.558058229542485"><ele>958.5999999999999</ele><time>2026-04-28T09:18:55.999Z</time></trkpt><trkpt lat="44.97039439975778" lon="5.557967614855999"><ele>958.0</ele><time>2026-04-28T09:18:57.999Z</time></trkpt><trkpt lat="44.970316929169385" lon="5.557857547396013"><ele>964.5</ele><time>2026-04-28T09:18:59.999Z</time></trkpt><trkpt lat="44.970257904313236" lon="5.5577300734798945"><ele>971.0</ele><time>2026-04-28T09:19:01.999Z</time></trkpt><trkpt lat="44.9368654965746" lon="5.544696898446772"><ele>984.25</ele><time>2026-04-28T09:32:39Z</time></trkpt><trkpt lat="44.93679345976618" lon="5.544607219964051"><ele>997.5</ele><time>2026-04-28T09:32:40Z</time></trkpt><trkpt lat="44.93661455053363" lon="5.544541683769568"><ele>1010.75</ele><time>2026-04-28T09:32:42Z</time></trkpt><trkpt lat="44.93651480648675" lon="5.5445774868517175"><ele>1024.0</ele><time>2026-04-28T09:32:43Z</time></trkpt><trkpt lat="44.93644440865025" lon="5.544628124497174"><ele>1024.0</ele><time>2026-04-28T09:32:44Z</time></trkpt><trkpt lat="44.93636155640611" lon="5.544685207710479"><ele>1024.0</ele><time>2026-04-28T09:32:45Z</time></trkpt><trkpt lat="44.936276797725036" lon="5.544731981586871"><ele>1024.0</ele><time>2026-04-28T09:32:46Z</time></trkpt><trkpt lat="44.93617877915867" lon="5.544789494024798"><ele>1024.0</ele><time>2026-04-28T09:32:47Z</time></trkpt><trkpt lat="44.93607970670855" lon="5.54484366740725"><ele>1024.0</ele><time>2026-04-28T09:32:48Z</time></trkpt><trkpt lat="44.935949462291944" lon="5.544934982829753"><ele>1027.0</ele><time>2026-04-28T09:32:49Z</time></trkpt><trkpt lat="44.93584533812498" lon="5.545037638006823"><ele>1030.0</ele><time>2026-04-28T09:32:50Z</time></trkpt><trkpt lat="44.93572132626045" lon="5.54515848601411"><ele>1033.0</ele><time>2026-04-28T09:32:52Z</time></trkpt><trkpt lat="44.93565119624353" lon="5.545247457810008"><ele>1036.0</ele><time>2026-04-28T09:32:53Z</time></trkpt><trkpt lat="44.93556845025208" lon="5.545339443074681"><ele>1029.3999999999999</ele><time>2026-04-28T09:32:54Z</time></trkpt><trkpt lat="44.93549156963976" lon="5.545389385974061"><ele>1022.8</ele><time>2026-04-28T09:32:55Z</time></trkpt><trkpt lat="44.93538952435163" lon="5.545429203169085"><ele>1016.1999999999999</ele><time>2026-04-28T09:32:56Z</time></trkpt><trkpt lat="44.935287403601095" lon="5.545457067404272"><ele>1009.5999999999999</ele><time>2026-04-28T09:32:57Z</time></trkpt><trkpt lat="44.935184193579744" lon="5.545469099269356"><ele>1003.0</ele><time>2026-04-28T09:32:58Z</time></trkpt><trkpt lat="44.93507484116185" lon="5.545452743758706"><ele>1004.75</ele><time>2026-04-28T09:32:59Z</time></trkpt><trkpt lat="44.93497173817911" lon="5.545432669044751"><ele>1006.5</ele><time>2026-04-28T09:33:00Z</time></trkpt><trkpt lat="44.93486377835961" lon="5.545434377546018"><ele>1008.25</ele><time>2026-04-28T09:33:01Z</time></trkpt><trkpt lat="44.934696113325614" lon="5.545467684570961"><ele>1010.0</ele><time>2026-04-28T09:33:03Z</time></trkpt><trkpt lat="44.9346027751093" lon="5.545541824854776"><ele>1010.0000000000001</ele><time>2026-04-28T09:33:04Z</time></trkpt><trkpt lat="44.93451715775379" lon="5.545586140919323"><ele>1010.0</ele><time>2026-04-28T09:33:05Z</time></trkpt><trkpt lat="44.934436388251754" lon="5.545591739110757"><ele>1010.0</ele><time>2026-04-28T09:33:06Z</time></trkpt><trkpt lat="44.93437420682181" lon="5.545550849427993"><ele>1010.0</ele><time>2026-04-28T09:33:07Z</time></trkpt><trkpt lat="44.93432607252475" lon="5.545463539750624"><ele>1010.0000000000001</ele><time>2026-04-28T09:33:08Z</time></trkpt><trkpt lat="44.93428208460838" lon="5.545361775809417"><ele>1010.0</ele><time>2026-04-28T09:33:09Z</time></trkpt><trkpt lat="44.934248844659095" lon="5.545259517120669"><ele>1011.3333333333334</ele><time>2026-04-28T09:33:10Z</time></trkpt><trkpt lat="44.9342117015123" lon="5.545154623863926"><ele>1012.6666666666667</ele><time>2026-04-28T09:33:11Z</time></trkpt><trkpt lat="44.934178930586775" lon="5.5450553998128305"><ele>1014.0</ele><time>2026-04-28T09:33:12Z</time></trkpt><trkpt lat="44.93413319514144" lon="5.544963168503649"><ele>1015.3333333333333</ele><time>2026-04-28T09:33:13Z</time></trkpt><trkpt lat="44.93408138931079" lon="5.544875894356607"><ele>1016.6666666666666</ele><time>2026-04-28T09:33:14Z</time></trkpt><trkpt lat="44.934026986114596" lon="5.544790336965936"><ele>1018.0</ele><time>2026-04-28T09:33:15Z</time></trkpt><trkpt lat="44.933963266915185" lon="5.544712810164794"><ele>1017.9999999999999</ele><time>2026-04-28T09:33:16Z</time></trkpt><trkpt lat="44.93389897452783" lon="5.54463116726861"><ele>1018.0</ele><time>2026-04-28T09:33:17Z</time></trkpt><trkpt lat="44.93381319699355" lon="5.544592266792776"><ele>1018.0</ele><time>2026-04-28T09:33:18Z</time></trkpt><trkpt lat="44.933731428477664" lon="5.544595833839427"><ele>1018.0</ele><time>2026-04-28T09:33:19Z</time></trkpt><trkpt lat="44.933656190192934" lon="5.544621790165864"><ele>1017.9999999999999</ele><time>2026-04-28T09:33:20Z</time></trkpt><trkpt lat="44.93358825508295" lon="5.54468167912586"><ele>1018.0</ele><time>2026-04-28T09:33:21Z</time></trkpt><trkpt lat="44.933525252305536" lon="5.544750329598244"><ele>1018.0</ele><time>2026-04-28T09:33:22Z</time></trkpt><trkpt lat="44.933432653955734" lon="5.544931243666277"><ele>1018.0</ele><time>2026-04-28T09:33:24Z</time></trkpt><trkpt lat="44.93340609029203" lon="5.545043967094765"><ele>1018.0</ele><time>2026-04-28T09:33:25Z</time></trkpt><trkpt lat="44.93339160643595" lon="5.545155749210578"><ele>1018.0</ele><time>2026-04-28T09:33:26Z</time></trkpt><trkpt lat="44.93336771631258" lon="5.545269893833696"><ele>1018.0</ele><time>2026-04-28T09:33:27Z</time></trkpt><trkpt lat="44.93332962551983" lon="5.545359110750715"><ele>1016.1666666666666</ele><time>2026-04-28T09:33:28Z</time></trkpt><trkpt lat="44.933264513521536" lon="5.545428420619625"><ele>1014.3333333333333</ele><time>2026-04-28T09:33:29Z</time></trkpt><trkpt lat="44.93318062179729" lon="5.54546190782218"><ele>1012.5</ele><time>2026-04-28T09:33:30Z</time></trkpt><trkpt lat="44.933100186699164" lon="5.54550712341059"><ele>1010.6666666666667</ele><time>2026-04-28T09:33:31Z</time></trkpt><trkpt lat="44.93301900618514" lon="5.545527667406249"><ele>1008.8333333333334</ele><time>2026-04-28T09:33:32Z</time></trkpt><trkpt lat="44.932933659842426" lon="5.545528422643543"><ele>1007.0</ele><time>2026-04-28T09:33:33Z</time></trkpt><trkpt lat="44.93285305258341" lon="5.545498681534701"><ele>1007.0000000000001</ele><time>2026-04-28T09:33:34Z</time></trkpt><trkpt lat="44.93276682796402" lon="5.545470712769228"><ele>1007.0</ele><time>2026-04-28T09:33:35Z</time></trkpt><trkpt lat="44.93268093749445" lon="5.545420305292864"><ele>1007.0</ele><time>2026-04-28T09:33:36Z</time></trkpt><trkpt lat="44.93259726801359" lon="5.545408140583528"><ele>1007.0</ele><time>2026-04-28T09:33:37Z</time></trkpt><trkpt lat="44.932507504441205" lon="5.545417340388615"><ele>1007.0000000000001</ele><time>2026-04-28T09:33:38Z</time></trkpt><trkpt lat="44.932426687307675" lon="5.5454527020732955"><ele>1007.0</ele><time>2026-04-28T09:33:39Z</time></trkpt><trkpt lat="44.93235059692715" lon="5.545498528457519"><ele>1007.4000000000001</ele><time>2026-04-28T09:33:40Z</time></trkpt><trkpt lat="44.93226308713014" lon="5.54551417955755"><ele>1007.8000000000001</ele><time>2026-04-28T09:33:41Z</time></trkpt><trkpt lat="44.93217658116585" lon="5.545521342840875"><ele>1008.2</ele><time>2026-04-28T09:33:42Z</time></trkpt><trkpt lat="44.93209534203396" lon="5.545522142374106"><ele>1008.6</ele><time>2026-04-28T09:33:43Z</time></trkpt><trkpt lat="44.93192265731011" lon="5.545521002979752"><ele>1009.0</ele><time>2026-04-28T09:33:45Z</time></trkpt><trkpt lat="44.9318298637972" lon="5.545479864061829"><ele>1009.0</ele><time>2026-04-28T09:33:46Z</time></trkpt><trkpt lat="44.93175864444779" lon="5.545404087679682"><ele>1009.0000000000001</ele><time>2026-04-28T09:33:47Z</time></trkpt><trkpt lat="44.93169517203265" lon="5.545311943821527"><ele>1009.0000000000001</ele><time>2026-04-28T09:33:48Z</time></trkpt><trkpt lat="44.93164287345039" lon="5.5452057940717605"><ele>1009.0</ele><time>2026-04-28T09:33:48.999Z</time></trkpt><trkpt lat="44.93160099439228" lon="5.545087174666355"><ele>1009.0</ele><time>2026-04-28T09:33:49.999Z</time></trkpt><trkpt lat="44.93154951801445" lon="5.544969801620211"><ele>1010.8333333333333</ele><time>2026-04-28T09:33:50.999Z</time></trkpt><trkpt lat="44.93148532807016" lon="5.544861696678305"><ele>1012.6666666666666</ele><time>2026-04-28T09:33:51.999Z</time></trkpt><trkpt lat="44.93143909993973" lon="5.544745987586488"><ele>1014.5</ele><time>2026-04-28T09:33:52.999Z</time></trkpt><trkpt lat="44.93138479375708" lon="5.5446474544780475"><ele>1016.3333333333333</ele><time>2026-04-28T09:33:53.999Z</time></trkpt><trkpt lat="44.93132969013009" lon="5.544543892659841"><ele>1018.1666666666666</ele><time>2026-04-28T09:33:54.999Z</time></trkpt><trkpt lat="44.931276400079284" lon="5.544470027234771"><ele>1020.0</ele><time>2026-04-28T09:33:55.999Z</time></trkpt><trkpt lat="44.93122679257762" lon="5.5444015654979735"><ele>1020.0</ele><time>2026-04-28T09:33:56.999Z</time></trkpt><trkpt lat="44.93116449882409" lon="5.544359798070504"><ele>1020.0</ele><time>2026-04-28T09:33:57.999Z</time></trkpt><trkpt lat="44.93109429321203" lon="5.544348135949834"><ele>1020.0</ele><time>2026-04-28T09:33:58.999Z</time></trkpt><trkpt lat="44.93101887205226" lon="5.544365953287531"><ele>1020.0</ele><time>2026-04-28T09:33:59.999Z</time></trkpt><trkpt lat="44.930962666676855" lon="5.5444206177411575"><ele>1020.0</ele><time>2026-04-28T09:34:00.999Z</time></trkpt><trkpt lat="44.930931599067776" lon="5.544526144826196"><ele>1020.0</ele><time>2026-04-28T09:34:01.999Z</time></trkpt><trkpt lat="44.930909933319995" lon="5.544706602046342"><ele>1020.5</ele><time>2026-04-28T09:34:03.999Z</time></trkpt><trkpt lat="44.93082848233447" lon="5.545037801510462"><ele>1021.0</ele><time>2026-04-28T09:34:07.999Z</time></trkpt><trkpt lat="44.930794424097655" lon="5.545120117677289"><ele>1021.5</ele><time>2026-04-28T09:34:08.999Z</time></trkpt><trkpt lat="44.930767613136055" lon="5.545204604756215"><ele>1022.0</ele><time>2026-04-28T09:34:09.999Z</time></trkpt><trkpt lat="44.93069408881323" lon="5.5453412694726065"><ele>1022.0</ele><time>2026-04-28T09:34:11.999Z</time></trkpt><trkpt lat="44.93062848419219" lon="5.545380695007615"><ele>1022.0</ele><time>2026-04-28T09:34:12.999Z</time></trkpt><trkpt lat="44.93055909107295" lon="5.5453949027505125"><ele>1022.0</ele><time>2026-04-28T09:34:13.999Z</time></trkpt><trkpt lat="44.93048738294792" lon="5.545390195079122"><ele>1022.0</ele><time>2026-04-28T09:34:14.999Z</time></trkpt><trkpt lat="44.93042018371273" lon="5.5453739482055235"><ele>1022.0</ele><time>2026-04-28T09:34:15.999Z</time></trkpt><trkpt lat="44.930348762699154" lon="5.545360568545682"><ele>1022.0</ele><time>2026-04-28T09:34:16.999Z</time></trkpt><trkpt lat="44.93027828517825" lon="5.545344332717755"><ele>1022.0</ele><time>2026-04-28T09:34:17.999Z</time></trkpt><trkpt lat="44.930208327829604" lon="5.545321109505396"><ele>1022.0000000000001</ele><time>2026-04-28T09:34:18.999Z</time></trkpt><trkpt lat="44.93013583894589" lon="5.545289275725487"><ele>1022.0</ele><time>2026-04-28T09:34:19.999Z</time></trkpt><trkpt lat="44.930061650303564" lon="5.5452629028685045"><ele>1022.0</ele><time>2026-04-28T09:34:20.999Z</time></trkpt><trkpt lat="44.92998758430333" lon="5.545239923840872"><ele>1022.0</ele><time>2026-04-28T09:34:21.999Z</time></trkpt><trkpt lat="44.92991221138565" lon="5.545215549288125"><ele>1022.0000000000001</ele><time>2026-04-28T09:34:22.999Z</time></trkpt><trkpt lat="44.92983625460581" lon="5.545195733350779"><ele>1022.0</ele><time>2026-04-28T09:34:23.999Z</time></trkpt><trkpt lat="44.92975757885563" lon="5.545186771980548"><ele>1023.2</ele><time>2026-04-28T09:34:24.999Z</time></trkpt><trkpt lat="44.92959381762334" lon="5.545222044413557"><ele>1024.4</ele><time>2026-04-28T09:34:26.999Z</time></trkpt><trkpt lat="44.92951153149837" lon="5.545244935245194"><ele>1025.6</ele><time>2026-04-28T09:34:27.999Z</time></trkpt><trkpt lat="44.92943176078695" lon="5.545276398707594"><ele>1026.8</ele><time>2026-04-28T09:34:28.999Z</time></trkpt><trkpt lat="44.9293446785319" lon="5.5452900324117405"><ele>1028.0</ele><time>2026-04-28T09:34:29.999Z</time></trkpt><trkpt lat="44.92925877153169" lon="5.545299745568308"><ele>1026.5</ele><time>2026-04-28T09:34:30.999Z</time></trkpt><trkpt lat="44.92917479517009" lon="5.545314988892694"><ele>1025.0</ele><time>2026-04-28T09:34:31.999Z</time></trkpt><trkpt lat="44.92909861862079" lon="5.545289383178959"><ele>1023.5</ele><time>2026-04-28T09:34:32.999Z</time></trkpt><trkpt lat="44.92901932137742" lon="5.545255636401038"><ele>1022.0</ele><time>2026-04-28T09:34:33.999Z</time></trkpt><trkpt lat="44.928943785494916" lon="5.54520664246627"><ele>1020.5000000000001</ele><time>2026-04-28T09:34:34.999Z</time></trkpt><trkpt lat="44.928866682716034" lon="5.54516607347573"><ele>1019.0</ele><time>2026-04-28T09:34:35.999Z</time></trkpt><trkpt lat="44.928781236910694" lon="5.545146880460286"><ele>1019.0000000000001</ele><time>2026-04-28T09:34:36.999Z</time></trkpt><trkpt lat="44.92869835890207" lon="5.545141456311077"><ele>1019.0</ele><time>2026-04-28T09:34:37.999Z</time></trkpt><trkpt lat="44.92861389964826" lon="5.54515220012153"><ele>1019.0</ele><time>2026-04-28T09:34:38.999Z</time></trkpt><trkpt lat="44.928529379308166" lon="5.5451716024983195"><ele>1019.0</ele><time>2026-04-28T09:34:39.999Z</time></trkpt><trkpt lat="44.9284438580689" lon="5.54520567877348"><ele>1019.0000000000001</ele><time>2026-04-28T09:34:40.999Z</time></trkpt><trkpt lat="44.92835716190858" lon="5.545235260124856"><ele>1019.0</ele><time>2026-04-28T09:34:42Z</time></trkpt><trkpt lat="44.928279062380554" lon="5.545280705365715"><ele>1019.0</ele><time>2026-04-28T09:34:43Z</time></trkpt><trkpt lat="44.928194694984064" lon="5.545314385825898"><ele>1019.0000000000001</ele><time>2026-04-28T09:34:44Z</time></trkpt><trkpt lat="44.92811277376423" lon="5.54536761653083"><ele>1019.0000000000001</ele><time>2026-04-28T09:34:45Z</time></trkpt><trkpt lat="44.92803009478649" lon="5.545408345668005"><ele>1019.0</ele><time>2026-04-28T09:34:46Z</time></trkpt><trkpt lat="44.92785689244573" lon="5.545461137697174"><ele>1019.0</ele><time>2026-04-28T09:34:48Z</time></trkpt><trkpt lat="44.92777092747259" lon="5.545482294183477"><ele>1017.0000000000001</ele><time>2026-04-28T09:34:49Z</time></trkpt><trkpt lat="44.92768710060171" lon="5.545504177563297"><ele>1015.0</ele><time>2026-04-28T09:34:50Z</time></trkpt><trkpt lat="44.92760256871056" lon="5.545515598914845"><ele>1013.0</ele><time>2026-04-28T09:34:51Z</time></trkpt><trkpt lat="44.92751728720109" lon="5.545500218012259"><ele>1011.0</ele><time>2026-04-28T09:34:52Z</time></trkpt><trkpt lat="44.927433091045025" lon="5.545491065177043"><ele>1009.0000000000001</ele><time>2026-04-28T09:34:53Z</time></trkpt><trkpt lat="44.92735252463737" lon="5.545499182024807"><ele>1007.0</ele><time>2026-04-28T09:34:54Z</time></trkpt><trkpt lat="44.92727812440419" lon="5.5455548705369235"><ele>1006.6666666666667</ele><time>2026-04-28T09:34:55Z</time></trkpt><trkpt lat="44.92720638178687" lon="5.5456197468389705"><ele>1006.3333333333334</ele><time>2026-04-28T09:34:56Z</time></trkpt><trkpt lat="44.927142560895724" lon="5.5456933603452345"><ele>1006.0</ele><time>2026-04-28T09:34:57Z</time></trkpt><trkpt lat="44.927066289978434" lon="5.545740018477074"><ele>1005.6666666666667</ele><time>2026-04-28T09:34:58Z</time></trkpt><trkpt lat="44.92698271725264" lon="5.545757323881772"><ele>1005.3333333333334</ele><time>2026-04-28T09:34:59Z</time></trkpt><trkpt lat="44.9268999559163" lon="5.545757430590837"><ele>1005.0</ele><time>2026-04-28T09:35:00Z</time></trkpt><trkpt lat="44.926816529250566" lon="5.545743624341772"><ele>1005.0</ele><time>2026-04-28T09:35:01Z</time></trkpt><trkpt lat="44.92673559365023" lon="5.545729507225279"><ele>1005.0</ele><time>2026-04-28T09:35:02Z</time></trkpt><trkpt lat="44.92665291442132" lon="5.545722257232616"><ele>1005.0</ele><time>2026-04-28T09:35:03Z</time></trkpt><trkpt lat="44.9265727304715" lon="5.545716451328794"><ele>1005.0</ele><time>2026-04-28T09:35:04Z</time></trkpt><trkpt lat="44.92649546412173" lon="5.54569064184398"><ele>1005.0</ele><time>2026-04-28T09:35:05Z</time></trkpt><trkpt lat="44.926414989022476" lon="5.545658799008115"><ele>1005.0</ele><time>2026-04-28T09:35:06Z</time></trkpt><trkpt lat="44.926336200420174" lon="5.545623118283008"><ele>1006.0</ele><time>2026-04-28T09:35:07Z</time></trkpt><trkpt lat="44.92618649500185" lon="5.5455581686268545"><ele>1007.0</ele><time>2026-04-28T09:35:09Z</time></trkpt><trkpt lat="44.92611311737628" lon="5.54553395602414"><ele>1008.0</ele><time>2026-04-28T09:35:10Z</time></trkpt><trkpt lat="44.926039444291575" lon="5.545500436413933"><ele>1009.0</ele><time>2026-04-28T09:35:11Z</time></trkpt><trkpt lat="44.92596518423035" lon="5.545480181006075"><ele>1010.0</ele><time>2026-04-28T09:35:12Z</time></trkpt><trkpt lat="44.925893346007456" lon="5.54546749021948"><ele>1010.8</ele><time>2026-04-28T09:35:13Z</time></trkpt><trkpt lat="44.92582309206451" lon="5.545494991139711"><ele>1011.6</ele><time>2026-04-28T09:35:14Z</time></trkpt><trkpt lat="44.9257461901195" lon="5.545531999233903"><ele>1012.4000000000001</ele><time>2026-04-28T09:35:15Z</time></trkpt><trkpt lat="44.925680043325954" lon="5.545572589977174"><ele>1013.2</ele><time>2026-04-28T09:35:16Z</time></trkpt><trkpt lat="44.9255631800087" lon="5.545631381697606"><ele>1014.0</ele><time>2026-04-28T09:35:18Z</time></trkpt><trkpt lat="44.92543548749578" lon="5.5456721030291085"><ele>1014.0</ele><time>2026-04-28T09:35:20Z</time></trkpt><trkpt lat="44.92536854969882" lon="5.545680417906999"><ele>1014.0</ele><time>2026-04-28T09:35:21Z</time></trkpt><trkpt lat="44.925258072145546" lon="5.545653670638557"><ele>1014.0</ele><time>2026-04-28T09:35:23Z</time></trkpt><trkpt lat="44.92517853931186" lon="5.545603604093054"><ele>1014.0</ele><time>2026-04-28T09:35:25Z</time></trkpt><trkpt lat="44.925101210912075" lon="5.545545451725151"><ele>1014.0</ele><time>2026-04-28T09:35:27Z</time></trkpt><trkpt lat="44.92504073846234" lon="5.545471738908801"><ele>1014.0</ele><time>2026-04-28T09:35:29Z</time></trkpt><trkpt lat="44.92490373718471" lon="5.545377349422448"><ele>1014.2857142857142</ele><time>2026-04-28T09:35:33Z</time></trkpt><trkpt lat="44.92483706322059" lon="5.545338829323626"><ele>1014.5714285714287</ele><time>2026-04-28T09:35:35Z</time></trkpt><trkpt lat="44.92476836200152" lon="5.545304081837643"><ele>1014.8571428571429</ele><time>2026-04-28T09:35:37Z</time></trkpt><trkpt lat="44.92470474295054" lon="5.545273343600883"><ele>1015.1428571428571</ele><time>2026-04-28T09:35:39Z</time></trkpt><trkpt lat="44.924629600975244" lon="5.545261974359179"><ele>1015.4285714285713</ele><time>2026-04-28T09:35:41Z</time></trkpt><trkpt lat="44.92455459969559" lon="5.545248178154912"><ele>1015.7142857142858</ele><time>2026-04-28T09:35:43Z</time></trkpt><trkpt lat="44.924476667333714" lon="5.545230586580385"><ele>1016.0</ele><time>2026-04-28T09:35:45Z</time></trkpt><trkpt lat="44.92439633827813" lon="5.5452182715364255"><ele>1016.0</ele><time>2026-04-28T09:35:47Z</time></trkpt><trkpt lat="44.924313890927365" lon="5.545193244282559"><ele>1015.9999999999999</ele><time>2026-04-28T09:35:48.999Z</time></trkpt><trkpt lat="44.924234215514936" lon="5.54516820830007"><ele>1015.9999999999999</ele><time>2026-04-28T09:35:50.999Z</time></trkpt><trkpt lat="44.92408036159962" lon="5.5451009939944695"><ele>1016.0</ele><time>2026-04-28T09:35:54.999Z</time></trkpt><trkpt lat="44.924005926082714" lon="5.545075103384435"><ele>1016.0</ele><time>2026-04-28T09:35:56.999Z</time></trkpt><trkpt lat="44.92393871876126" lon="5.5450559744492995"><ele>1016.2857142857143</ele><time>2026-04-28T09:35:58.999Z</time></trkpt><trkpt lat="44.9238760179839" lon="5.545036258834027"><ele>1016.5714285714284</ele><time>2026-04-28T09:36:00.999Z</time></trkpt><trkpt lat="44.923806403131785" lon="5.54503389782876"><ele>1016.8571428571428</ele><time>2026-04-28T09:36:02.999Z</time></trkpt><trkpt lat="44.923738331522934" lon="5.545033670900906"><ele>1017.1428571428571</ele><time>2026-04-28T09:36:04.999Z</time></trkpt><trkpt lat="44.92367765663862" lon="5.545008871897005"><ele>1017.4285714285713</ele><time>2026-04-28T09:36:06.999Z</time></trkpt><trkpt lat="44.923596358012915" lon="5.544990217648572"><ele>1017.7142857142856</ele><time>2026-04-28T09:36:09.999Z</time></trkpt><trkpt lat="44.9235248098831" lon="5.5449594917348906"><ele>1017.9999999999999</ele><time>2026-04-28T09:36:12.999Z</time></trkpt><trkpt lat="44.92340085113753" lon="5.544916456627771"><ele>1019.6666666666666</ele><time>2026-04-28T09:36:18.999Z</time></trkpt><trkpt lat="44.92332940804731" lon="5.544891496272119"><ele>1021.3333333333333</ele><time>2026-04-28T09:36:21.999Z</time></trkpt><trkpt lat="44.92323732923404" lon="5.5448722875559"><ele>1023.0</ele><time>2026-04-28T09:36:24.999Z</time></trkpt><trkpt lat="44.92316687027441" lon="5.544841902433564"><ele>1024.6666666666667</ele><time>2026-04-28T09:36:27.999Z</time></trkpt><trkpt lat="44.92308642504964" lon="5.544863636991552"><ele>1026.3333333333335</ele><time>2026-04-28T09:36:30.999Z</time></trkpt><trkpt lat="44.92300630516489" lon="5.544847134291172"><ele>1028.0</ele><time>2026-04-28T09:36:33.999Z</time></trkpt><trkpt lat="44.92284720693203" lon="5.544836916480215"><ele>1028.0</ele><time>2026-04-28T09:36:39.999Z</time></trkpt><trkpt lat="44.92277812942161" lon="5.544831684874363"><ele>1028.0</ele><time>2026-04-28T09:36:42.999Z</time></trkpt><trkpt lat="44.92271462828808" lon="5.544794987585752"><ele>1028.0</ele><time>2026-04-28T09:36:45.999Z</time></trkpt><trkpt lat="44.92264601506472" lon="5.544771170118972"><ele>1028.0</ele><time>2026-04-28T09:36:49Z</time></trkpt><trkpt lat="44.92256972242044" lon="5.544780098148067"><ele>1028.0</ele><time>2026-04-28T09:36:53Z</time></trkpt><trkpt lat="44.92251704422243" lon="5.544726372023933"><ele>1028.0</ele><time>2026-04-28T09:36:56Z</time></trkpt><trkpt lat="44.92237062812635" lon="5.544728971001709"><ele>1030.0</ele><time>2026-04-28T09:37:04Z</time></trkpt><trkpt lat="44.922285360743906" lon="5.544774834569072"><ele>1032.0</ele><time>2026-04-28T09:37:09Z</time></trkpt><trkpt lat="44.92222088815807" lon="5.544785759062908"><ele>1034.0</ele><time>2026-04-28T09:37:12Z</time></trkpt><trkpt lat="44.92215965240308" lon="5.54480822053381"><ele>1036.0</ele><time>2026-04-28T09:37:15Z</time></trkpt><trkpt lat="44.92208964142678" lon="5.544817957925284"><ele>1038.0</ele><time>2026-04-28T09:37:18Z</time></trkpt><trkpt lat="44.921948291640575" lon="5.544820235994968"><ele>1040.0</ele><time>2026-04-28T09:37:25Z</time></trkpt><trkpt lat="44.92187617352193" lon="5.544820523065011"><ele>1040.0</ele><time>2026-04-28T09:37:28Z</time></trkpt><trkpt lat="44.92179365444143" lon="5.5448397393224536"><ele>1040.0</ele><time>2026-04-28T09:37:32Z</time></trkpt><trkpt lat="44.92172732505532" lon="5.544861022032174"><ele>1040.0</ele><time>2026-04-28T09:37:35Z</time></trkpt><trkpt lat="44.92164986503264" lon="5.544887365782433"><ele>1040.0</ele><time>2026-04-28T09:37:38Z</time></trkpt><trkpt lat="44.9215861221305" lon="5.5449137065720615"><ele>1040.0</ele><time>2026-04-28T09:37:41Z</time></trkpt><trkpt lat="44.92146022140886" lon="5.544927039904292"><ele>1040.0</ele><time>2026-04-28T09:38:17.999Z</time></trkpt><trkpt lat="44.92141289017292" lon="5.5449947216370985"><ele>1040.6</ele><time>2026-04-28T09:38:25.999Z</time></trkpt><trkpt lat="44.92133620548862" lon="5.545038268649973"><ele>1041.2</ele><time>2026-04-28T09:38:28.999Z</time></trkpt><trkpt lat="44.92118688047665" lon="5.545097890416629"><ele>1041.8</ele><time>2026-04-28T09:38:34.999Z</time></trkpt><trkpt lat="44.92110282764997" lon="5.545125045635657"><ele>1042.4</ele><time>2026-04-28T09:38:37.999Z</time></trkpt><trkpt lat="44.92100999475893" lon="5.5451209439038625"><ele>1043.0</ele><time>2026-04-28T09:38:41.999Z</time></trkpt><trkpt lat="44.9209308457377" lon="5.545126652457011"><ele>1044.4</ele><time>2026-04-28T09:38:44.999Z</time></trkpt><trkpt lat="44.920849006163266" lon="5.545127395480431"><ele>1045.8</ele><time>2026-04-28T09:38:47.999Z</time></trkpt><trkpt lat="44.920761553573634" lon="5.545138304941685"><ele>1047.2</ele><time>2026-04-28T09:38:50.999Z</time></trkpt><trkpt lat="44.92059040689163" lon="5.545167174364956"><ele>1048.6</ele><time>2026-04-28T09:38:56Z</time></trkpt><trkpt lat="44.92051798850987" lon="5.545185049078408"><ele>1050.0</ele><time>2026-04-28T09:38:58Z</time></trkpt><trkpt lat="44.920448955384295" lon="5.5451915053204885"><ele>1050.0</ele><time>2026-04-28T09:39:00Z</time></trkpt><trkpt lat="44.9203788415377" lon="5.545192246041162"><ele>1050.0</ele><time>2026-04-28T09:39:02Z</time></trkpt><trkpt lat="44.92030789558476" lon="5.545186664241976"><ele>1050.0</ele><time>2026-04-28T09:39:04Z</time></trkpt><trkpt lat="44.92023302839328" lon="5.545195971140117"><ele>1050.0</ele><time>2026-04-28T09:39:06Z</time></trkpt><trkpt lat="44.920169455848146" lon="5.545180745287321"><ele>1050.0</ele><time>2026-04-28T09:39:08Z</time></trkpt><trkpt lat="44.92007712170684" lon="5.545200365739447"><ele>1050.0</ele><time>2026-04-28T09:39:11Z</time></trkpt><trkpt lat="44.91998285838357" lon="5.54518777526094"><ele>1051.6</ele><time>2026-04-28T09:39:14Z</time></trkpt><trkpt lat="44.919854377165" lon="5.545173318721044"><ele>1053.2</ele><time>2026-04-28T09:39:18Z</time></trkpt><trkpt lat="44.91977978646242" lon="5.545134113154638"><ele>1054.8</ele><time>2026-04-28T09:39:20Z</time></trkpt><trkpt lat="44.91972202494805" lon="5.545171788790746"><ele>1056.4</ele><time>2026-04-28T09:39:22Z</time></trkpt><trkpt lat="44.91962545445147" lon="5.545176160855405"><ele>1058.0</ele><time>2026-04-28T09:39:25Z</time></trkpt><trkpt lat="44.919541494137476" lon="5.54521521258887"><ele>1058.0</ele><time>2026-04-28T09:39:28Z</time></trkpt><trkpt lat="44.91946380570306" lon="5.5452497208131435"><ele>1058.0</ele><time>2026-04-28T09:39:31Z</time></trkpt><trkpt lat="44.91940782154053" lon="5.545295181243501"><ele>1058.0</ele><time>2026-04-28T09:39:33Z</time></trkpt><trkpt lat="44.9193368110816" lon="5.545327350709657"><ele>1058.0</ele><time>2026-04-28T09:39:35.999Z</time></trkpt><trkpt lat="44.919196649351555" lon="5.545404742491561"><ele>1058.0</ele><time>2026-04-28T09:39:41.999Z</time></trkpt><trkpt lat="44.91912790974541" lon="5.545444966192282"><ele>1058.0</ele><time>2026-04-28T09:39:44.999Z</time></trkpt><trkpt lat="44.919058049809834" lon="5.545467751078095"><ele>1059.8</ele><time>2026-04-28T09:39:47.999Z</time></trkpt><trkpt lat="44.91897693966271" lon="5.545521874851334"><ele>1061.6</ele><time>2026-04-28T09:39:50.999Z</time></trkpt><trkpt lat="44.918907098884084" lon="5.5455581881724045"><ele>1063.4</ele><time>2026-04-28T09:39:53.999Z</time></trkpt><trkpt lat="44.91883255266186" lon="5.545584877038768"><ele>1065.2</ele><time>2026-04-28T09:39:56.999Z</time></trkpt><trkpt lat="44.91869523713888" lon="5.545641816841393"><ele>1067.0</ele><time>2026-04-28T09:40:02.999Z</time></trkpt><trkpt lat="44.91861222001844" lon="5.545669629641386"><ele>1067.0</ele><time>2026-04-28T09:40:05.999Z</time></trkpt><trkpt lat="44.918545027932254" lon="5.545702121777143"><ele>1067.0</ele><time>2026-04-28T09:40:08.999Z</time></trkpt><trkpt lat="44.91849812201682" lon="5.5457705753714635"><ele>1067.0</ele><time>2026-04-28T09:40:11.999Z</time></trkpt><trkpt lat="44.91845070374261" lon="5.545841578421244"><ele>1067.0</ele><time>2026-04-28T09:40:14.999Z</time></trkpt><trkpt lat="44.91840491056185" lon="5.545921102766447"><ele>1067.0</ele><time>2026-04-28T09:40:17.999Z</time></trkpt><trkpt lat="44.91830312039661" lon="5.546057623173814"><ele>1067.0</ele><time>2026-04-28T09:40:23.999Z</time></trkpt><trkpt lat="44.918242350572086" lon="5.546127266881145"><ele>1067.0</ele><time>2026-04-28T09:40:26.999Z</time></trkpt><trkpt lat="44.91817250244328" lon="5.546164924047753"><ele>1067.0</ele><time>2026-04-28T09:40:29.999Z</time></trkpt><trkpt lat="44.91810478206329" lon="5.546214099420692"><ele>1067.0</ele><time>2026-04-28T09:40:32.999Z</time></trkpt><trkpt lat="44.91803746407271" lon="5.546233318591082"><ele>1067.0</ele><time>2026-04-28T09:40:35.999Z</time></trkpt><trkpt lat="44.917965459353624" lon="5.546262826415109"><ele>1067.0</ele><time>2026-04-28T09:40:38.999Z</time></trkpt><trkpt lat="44.917829724464426" lon="5.546308727851754"><ele>1067.0</ele><time>2026-04-28T09:40:44.999Z</time></trkpt><trkpt lat="44.91775695216239" lon="5.546316824366938"><ele>1070.8</ele><time>2026-04-28T09:40:47.999Z</time></trkpt><trkpt lat="44.917681699202376" lon="5.546328060841187"><ele>1074.6</ele><time>2026-04-28T09:40:50.999Z</time></trkpt><trkpt lat="44.91760948450415" lon="5.546339827372077"><ele>1078.3999999999999</ele><time>2026-04-28T09:40:53.999Z</time></trkpt><trkpt lat="44.91753606926132" lon="5.546334617928848"><ele>1082.2</ele><time>2026-04-28T09:40:56.999Z</time></trkpt><trkpt lat="44.917463241333344" lon="5.546353911966625"><ele>1086.0</ele><time>2026-04-28T09:41:00Z</time></trkpt><trkpt lat="44.91728880314885" lon="5.546353453054271"><ele>1086.6666666666667</ele><time>2026-04-28T09:41:06Z</time></trkpt><trkpt lat="44.91720721771008" lon="5.546346552358742"><ele>1087.3333333333333</ele><time>2026-04-28T09:41:09Z</time></trkpt><trkpt lat="44.91714102136301" lon="5.546350747137238"><ele>1088.0</ele><time>2026-04-28T09:41:12Z</time></trkpt><trkpt lat="44.917069788686064" lon="5.546351451355222"><ele>1088.6666666666665</ele><time>2026-04-28T09:41:15Z</time></trkpt><trkpt lat="44.91699920524962" lon="5.546359516904961"><ele>1089.3333333333333</ele><time>2026-04-28T09:41:18Z</time></trkpt><trkpt lat="44.916930597536584" lon="5.546384294098397"><ele>1090.0</ele><time>2026-04-28T09:41:21Z</time></trkpt><trkpt lat="44.916796730239334" lon="5.546404559682209"><ele>1091.0</ele><time>2026-04-28T09:41:27Z</time></trkpt><trkpt lat="44.91672323340458" lon="5.546430603698916"><ele>1092.0</ele><time>2026-04-28T09:41:30Z</time></trkpt><trkpt lat="44.91664271440817" lon="5.546448900286685"><ele>1093.0</ele><time>2026-04-28T09:41:33Z</time></trkpt><trkpt lat="44.91656033402899" lon="5.54644601050047"><ele>1094.0</ele><time>2026-04-28T09:41:36Z</time></trkpt><trkpt lat="44.91648442438239" lon="5.546436846321642"><ele>1095.0</ele><time>2026-04-28T09:41:39Z</time></trkpt><trkpt lat="44.916405153408625" lon="5.546448216542179"><ele>1096.0</ele><time>2026-04-28T09:41:42Z</time></trkpt><trkpt lat="44.916247527379184" lon="5.546463378856715"><ele>1096.0</ele><time>2026-04-28T09:41:48Z</time></trkpt><trkpt lat="44.91617289715145" lon="5.5464911584942875"><ele>1096.0</ele><time>2026-04-28T09:41:51Z</time></trkpt><trkpt lat="44.916101040908146" lon="5.54650857034232"><ele>1096.0</ele><time>2026-04-28T09:41:54Z</time></trkpt><trkpt lat="44.91603127038178" lon="5.546530348370369"><ele>1096.0</ele><time>2026-04-28T09:41:57Z</time></trkpt><trkpt lat="44.915961095301235" lon="5.546554047638627"><ele>1096.0</ele><time>2026-04-28T09:42:00Z</time></trkpt><trkpt lat="44.915889021015765" lon="5.546579286724977"><ele>1096.0</ele><time>2026-04-28T09:42:03Z</time></trkpt><trkpt lat="44.91575180076185" lon="5.546640145095934"><ele>1096.1666666666665</ele><time>2026-04-28T09:42:08.999Z</time></trkpt><trkpt lat="44.91568605285367" lon="5.546669001088067"><ele>1096.3333333333333</ele><time>2026-04-28T09:42:11.999Z</time></trkpt><trkpt lat="44.91562526305673" lon="5.546705590674755"><ele>1096.5</ele><time>2026-04-28T09:42:14.999Z</time></trkpt><trkpt lat="44.91555689922517" lon="5.546740511522124"><ele>1096.6666666666667</ele><time>2026-04-28T09:42:17.999Z</time></trkpt><trkpt lat="44.915495175242704" lon="5.546789230407785"><ele>1096.8333333333335</ele><time>2026-04-28T09:42:20.999Z</time></trkpt><trkpt lat="44.915435103802324" lon="5.546831271773563"><ele>1097.0</ele><time>2026-04-28T09:42:23.999Z</time></trkpt><trkpt lat="44.91531845964678" lon="5.546929523176802"><ele>1097.0</ele><time>2026-04-28T09:42:29.999Z</time></trkpt><trkpt lat="44.91525305758105" lon="5.546949891220104"><ele>1097.0</ele><time>2026-04-28T09:42:32.999Z</time></trkpt><trkpt lat="44.91518385406402" lon="5.5469899249985275"><ele>1097.0</ele><time>2026-04-28T09:42:35.999Z</time></trkpt><trkpt lat="44.91511390347966" lon="5.5470047518567815"><ele>1097.0</ele><time>2026-04-28T09:42:38.999Z</time></trkpt><trkpt lat="44.91504106441573" lon="5.54701149065963"><ele>1097.0</ele><time>2026-04-28T09:42:41.999Z</time></trkpt><trkpt lat="44.914962986580825" lon="5.54701169690261"><ele>1097.0</ele><time>2026-04-28T09:42:44.999Z</time></trkpt><trkpt lat="44.91482166851424" lon="5.547042078125851"><ele>1101.6666666666667</ele><time>2026-04-28T09:42:50.999Z</time></trkpt><trkpt lat="44.91474895880456" lon="5.547055511168399"><ele>1106.3333333333335</ele><time>2026-04-28T09:42:53.999Z</time></trkpt><trkpt lat="44.91467806406429" lon="5.547078951308058"><ele>1111.0</ele><time>2026-04-28T09:42:56.999Z</time></trkpt><trkpt lat="44.914602800803635" lon="5.547097270642522"><ele>1115.6666666666667</ele><time>2026-04-28T09:43:00.999Z</time></trkpt><trkpt lat="44.91453673049699" lon="5.547125151673958"><ele>1120.3333333333333</ele><time>2026-04-28T09:43:03.999Z</time></trkpt><trkpt lat="44.91449621327154" lon="5.547208555779658"><ele>1125.0</ele><time>2026-04-28T09:43:07Z</time></trkpt><trkpt lat="44.91467569668407" lon="5.547319664499224"><ele>1125.0</ele><time>2026-04-28T09:43:15Z</time></trkpt><trkpt lat="44.91478081152288" lon="5.547316053590072"><ele>1125.0</ele><time>2026-04-28T09:43:18Z</time></trkpt><trkpt lat="44.914844696490576" lon="5.547332838947657"><ele>1125.0</ele><time>2026-04-28T09:43:20Z</time></trkpt><trkpt lat="44.91491657796888" lon="5.547368599870546"><ele>1125.0</ele><time>2026-04-28T09:43:23Z</time></trkpt><trkpt lat="44.91500057497405" lon="5.547389208739782"><ele>1125.0</ele><time>2026-04-28T09:43:26Z</time></trkpt><trkpt lat="44.91507150151564" lon="5.547413441334441"><ele>1125.0</ele><time>2026-04-28T09:43:29Z</time></trkpt><trkpt lat="44.915191655620305" lon="5.547533568159798"><ele>1124.2</ele><time>2026-04-28T09:43:36Z</time></trkpt><trkpt lat="44.915275815485735" lon="5.547555090332271"><ele>1123.4</ele><time>2026-04-28T09:43:39Z</time></trkpt><trkpt lat="44.91534296469056" lon="5.5475855730663595"><ele>1122.6</ele><time>2026-04-28T09:43:42Z</time></trkpt><trkpt lat="44.91545589686967" lon="5.547599729562857"><ele>1121.8</ele><time>2026-04-28T09:43:47Z</time></trkpt><trkpt lat="44.91553052140072" lon="5.547638949469746"><ele>1121.0</ele><time>2026-04-28T09:43:50Z</time></trkpt><trkpt lat="44.91566768822172" lon="5.5476720621065665"><ele>1121.0</ele><time>2026-04-28T09:43:57Z</time></trkpt><trkpt lat="44.915777706344514" lon="5.547682554875037"><ele>1121.0</ele><time>2026-04-28T09:44:02Z</time></trkpt><trkpt lat="44.91585093664861" lon="5.547707707916276"><ele>1121.0</ele><time>2026-04-28T09:44:05Z</time></trkpt><trkpt lat="44.91593108278555" lon="5.547736369326624"><ele>1121.0</ele><time>2026-04-28T09:44:08Z</time></trkpt><trkpt lat="44.91601429913212" lon="5.547741333020696"><ele>1121.0</ele><time>2026-04-28T09:44:11Z</time></trkpt><trkpt lat="44.916083235386246" lon="5.547766700223072"><ele>1121.0</ele><time>2026-04-28T09:44:14Z</time></trkpt><trkpt lat="44.9163224864241" lon="5.547817946986241"><ele>1120.6</ele><time>2026-04-28T09:44:26.999Z</time></trkpt><trkpt lat="44.916407682059685" lon="5.547840255148888"><ele>1120.1999999999998</ele><time>2026-04-28T09:44:30.999Z</time></trkpt><trkpt lat="44.916471614654455" lon="5.547852064921508"><ele>1119.8000000000002</ele><time>2026-04-28T09:44:33.999Z</time></trkpt><trkpt lat="44.91654717910995" lon="5.547897188108605"><ele>1119.4</ele><time>2026-04-28T09:44:37.999Z</time></trkpt><trkpt lat="44.91670152876718" lon="5.547946533201632"><ele>1119.0</ele><time>2026-04-28T09:44:44.999Z</time></trkpt><trkpt lat="44.91676884982324" lon="5.547958493624575"><ele>1125.0</ele><time>2026-04-28T09:44:47.999Z</time></trkpt><trkpt lat="44.916792804243784" lon="5.5480556962604695"><ele>1131.0</ele><time>2026-04-28T09:44:50.999Z</time></trkpt><trkpt lat="44.91673636149471" lon="5.548116489130403"><ele>1137.0</ele><time>2026-04-28T09:44:52.999Z</time></trkpt><trkpt lat="44.91666620862012" lon="5.548070995682893"><ele>1143.0</ele><time>2026-04-28T09:44:55.999Z</time></trkpt><trkpt lat="44.91660360834985" lon="5.5480559422446305"><ele>1149.0</ele><time>2026-04-28T09:44:58.999Z</time></trkpt><trkpt lat="44.916448546608365" lon="5.548066269440577"><ele>1155.0</ele><time>2026-04-28T09:45:05.999Z</time></trkpt><trkpt lat="44.91638011801679" lon="5.548088235709073"><ele>1155.0</ele><time>2026-04-28T09:45:08.999Z</time></trkpt><trkpt lat="44.91631547693323" lon="5.54811704018121"><ele>1155.0</ele><time>2026-04-28T09:45:12Z</time></trkpt><trkpt lat="44.916253312166546" lon="5.548145542143126"><ele>1155.0</ele><time>2026-04-28T09:45:15Z</time></trkpt><trkpt lat="44.916186076687424" lon="5.5481552419862235"><ele>1155.0</ele><time>2026-04-28T09:45:18Z</time></trkpt><trkpt lat="44.916114256964725" lon="5.548164241957319"><ele>1155.0</ele><time>2026-04-28T09:45:21Z</time></trkpt><trkpt lat="44.9159789492006" lon="5.548182967932638"><ele>1155.0</ele><time>2026-04-28T09:45:28Z</time></trkpt><trkpt lat="44.91591103473234" lon="5.548179581365221"><ele>1154.6666666666667</ele><time>2026-04-28T09:45:32Z</time></trkpt><trkpt lat="44.91584243042481" lon="5.5481954064462995"><ele>1154.3333333333333</ele><time>2026-04-28T09:45:36Z</time></trkpt><trkpt lat="44.915776554231684" lon="5.54824251883219"><ele>1154.0</ele><time>2026-04-28T09:45:39Z</time></trkpt><trkpt lat="44.915693971550304" lon="5.548279802462017"><ele>1153.6666666666665</ele><time>2026-04-28T09:45:43Z</time></trkpt><trkpt lat="44.91555829179904" lon="5.548314230566327"><ele>1153.3333333333333</ele><time>2026-04-28T09:45:50Z</time></trkpt><trkpt lat="44.915489165819814" lon="5.548324801157075"><ele>1153.0</ele><time>2026-04-28T09:45:54Z</time></trkpt><trkpt lat="44.915427082536496" lon="5.548365029885575"><ele>1153.0</ele><time>2026-04-28T09:45:58Z</time></trkpt><trkpt lat="44.91536446802733" lon="5.54840789629747"><ele>1153.0</ele><time>2026-04-28T09:46:02Z</time></trkpt><trkpt lat="44.91528860398036" lon="5.548451034181627"><ele>1153.0</ele><time>2026-04-28T09:46:06Z</time></trkpt><trkpt lat="44.91516011050688" lon="5.548558415480122"><ele>1153.0</ele><time>2026-04-28T09:46:14Z</time></trkpt><trkpt lat="44.915098926038" lon="5.548635754055601"><ele>1153.0</ele><time>2026-04-28T09:46:18Z</time></trkpt><trkpt lat="44.915049525260926" lon="5.548694044660433"><ele>1153.0</ele><time>2026-04-28T09:46:21Z</time></trkpt><trkpt lat="44.91499338601209" lon="5.548779346377771"><ele>1157.1666666666665</ele><time>2026-04-28T09:46:24.999Z</time></trkpt><trkpt lat="44.91494922242288" lon="5.548862938478102"><ele>1161.3333333333333</ele><time>2026-04-28T09:46:28.999Z</time></trkpt><trkpt lat="44.91485012709006" lon="5.549014334435034"><ele>1165.5</ele><time>2026-04-28T09:46:36.999Z</time></trkpt><trkpt lat="44.91480142734721" lon="5.549079721766557"><ele>1169.6666666666667</ele><time>2026-04-28T09:46:40.999Z</time></trkpt><trkpt lat="44.91475546923815" lon="5.549143087754101"><ele>1173.8333333333335</ele><time>2026-04-28T09:46:44.999Z</time></trkpt><trkpt lat="44.91468888610829" lon="5.5491916651353845"><ele>1178.0</ele><time>2026-04-28T09:46:47.999Z</time></trkpt><trkpt lat="44.91463535451625" lon="5.549273174641308"><ele>1178.0</ele><time>2026-04-28T09:46:51.999Z</time></trkpt><trkpt lat="44.914520490489494" lon="5.549403423293433"><ele>1178.0</ele><time>2026-04-28T09:46:59.999Z</time></trkpt><trkpt lat="44.91446433721207" lon="5.5494573538980605"><ele>1178.0</ele><time>2026-04-28T09:47:02.999Z</time></trkpt><trkpt lat="44.914388092359964" lon="5.549505778868838"><ele>1178.0</ele><time>2026-04-28T09:47:05.999Z</time></trkpt><trkpt lat="44.91433270258104" lon="5.549553533447616"><ele>1178.0</ele><time>2026-04-28T09:47:09.999Z</time></trkpt><trkpt lat="44.91426320659695" lon="5.549597176414375"><ele>1178.0</ele><time>2026-04-28T09:47:13.999Z</time></trkpt><trkpt lat="44.91412811498833" lon="5.549652304576789"><ele>1181.3333333333335</ele><time>2026-04-28T09:47:21Z</time></trkpt><trkpt lat="44.91404377099602" lon="5.5496523695538515"><ele>1184.6666666666667</ele><time>2026-04-28T09:47:25Z</time></trkpt><trkpt lat="44.91397116593712" lon="5.5496674701117366"><ele>1188.0</ele><time>2026-04-28T09:47:29Z</time></trkpt><trkpt lat="44.91390635435779" lon="5.549693601136699"><ele>1191.3333333333333</ele><time>2026-04-28T09:47:32Z</time></trkpt><trkpt lat="44.91383023137399" lon="5.549705594330642"><ele>1194.6666666666665</ele><time>2026-04-28T09:47:36Z</time></trkpt><trkpt lat="44.91369870938384" lon="5.549713405159719"><ele>1198.0</ele><time>2026-04-28T09:47:44Z</time></trkpt><trkpt lat="44.913645451710465" lon="5.54964521115214"><ele>1195.5</ele><time>2026-04-28T09:47:48Z</time></trkpt><trkpt lat="44.913609955791344" lon="5.549539870011186"><ele>1193.0</ele><time>2026-04-28T09:47:52Z</time></trkpt><trkpt lat="44.91353779646067" lon="5.549490108279003"><ele>1190.5</ele><time>2026-04-28T09:47:56Z</time></trkpt><trkpt lat="44.91346827776329" lon="5.549473273578998"><ele>1188.0</ele><time>2026-04-28T09:47:59Z</time></trkpt><trkpt lat="44.913333459875645" lon="5.549477985704372"><ele>1185.5</ele><time>2026-04-28T09:48:05Z</time></trkpt><trkpt lat="44.91326910148181" lon="5.549488672779305"><ele>1183.0</ele><time>2026-04-28T09:48:09Z</time></trkpt><trkpt lat="44.91320573086825" lon="5.549495353730141"><ele>1183.0</ele><time>2026-04-28T09:48:13Z</time></trkpt><trkpt lat="44.91313943774345" lon="5.549492103905706"><ele>1183.0</ele><time>2026-04-28T09:48:17Z</time></trkpt><trkpt lat="44.913066779956154" lon="5.5494891801703705"><ele>1183.0</ele><time>2026-04-28T09:48:22Z</time></trkpt><trkpt lat="44.91292349241721" lon="5.549469340733982"><ele>1183.0</ele><time>2026-04-28T09:48:29.999Z</time></trkpt><trkpt lat="44.91285900676372" lon="5.549484158513188"><ele>1183.0</ele><time>2026-04-28T09:48:32.999Z</time></trkpt><trkpt lat="44.91278196645489" lon="5.5494898885082575"><ele>1183.0</ele><time>2026-04-28T09:48:36.999Z</time></trkpt><trkpt lat="44.91270697298246" lon="5.5495047777046045"><ele>1183.0</ele><time>2026-04-28T09:48:40.999Z</time></trkpt><trkpt lat="44.91263612449916" lon="5.549512231803804"><ele>1183.0</ele><time>2026-04-28T09:48:44.999Z</time></trkpt><trkpt lat="44.91249989253301" lon="5.549570975820716"><ele>1183.0</ele><time>2026-04-28T09:48:52.999Z</time></trkpt><trkpt lat="44.912426931608124" lon="5.549595264530398"><ele>1183.0</ele><time>2026-04-28T09:48:56.999Z</time></trkpt><trkpt lat="44.91236550337982" lon="5.549614979183942"><ele>1183.0</ele><time>2026-04-28T09:48:59.999Z</time></trkpt><trkpt lat="44.912299978365056" lon="5.549640739753713"><ele>1183.0</ele><time>2026-04-28T09:49:03.999Z</time></trkpt><trkpt lat="44.912229043122245" lon="5.549688870017935"><ele>1188.4</ele><time>2026-04-28T09:49:07.999Z</time></trkpt><trkpt lat="44.91208929335398" lon="5.549746839278527"><ele>1193.8</ele><time>2026-04-28T09:49:14.999Z</time></trkpt><trkpt lat="44.91201901084425" lon="5.549807721343563"><ele>1199.2</ele><time>2026-04-28T09:49:18.999Z</time></trkpt><trkpt lat="44.91195241348248" lon="5.549862939807539"><ele>1204.6</ele><time>2026-04-28T09:49:22.999Z</time></trkpt><trkpt lat="44.911893265224286" lon="5.549928161509101"><ele>1210.0</ele><time>2026-04-28T09:49:26Z</time></trkpt><trkpt lat="44.91184215937757" lon="5.549998921521994"><ele>1210.0</ele><time>2026-04-28T09:49:29Z</time></trkpt><trkpt lat="44.91177365905198" lon="5.55017569649502"><ele>1210.0</ele><time>2026-04-28T09:49:35Z</time></trkpt><trkpt lat="44.91172693378182" lon="5.5502485020254655"><ele>1210.0</ele><time>2026-04-28T09:49:39Z</time></trkpt><trkpt lat="44.911672856315356" lon="5.550339229543275"><ele>1210.0</ele><time>2026-04-28T09:49:43Z</time></trkpt><trkpt lat="44.91163330371897" lon="5.550420447408388"><ele>1210.0</ele><time>2026-04-28T09:49:46Z</time></trkpt><trkpt lat="44.91160593775177" lon="5.550505785364981"><ele>1210.0</ele><time>2026-04-28T09:49:49Z</time></trkpt><trkpt lat="44.911559004999354" lon="5.550566640299055"><ele>1212.5</ele><time>2026-04-28T09:49:52Z</time></trkpt><trkpt lat="44.911478901391504" lon="5.55071548706354"><ele>1215.0</ele><time>2026-04-28T09:49:58Z</time></trkpt><trkpt lat="44.911434530978966" lon="5.5507892148754046"><ele>1217.5</ele><time>2026-04-28T09:50:01Z</time></trkpt><trkpt lat="44.911365806330316" lon="5.550850700437106"><ele>1220.0</ele><time>2026-04-28T09:50:05Z</time></trkpt><trkpt lat="44.91130719973178" lon="5.550896597348964"><ele>1222.5</ele><time>2026-04-28T09:50:08Z</time></trkpt><trkpt lat="44.911239694322994" lon="5.550936029249352"><ele>1225.0</ele><time>2026-04-28T09:50:12Z</time></trkpt><trkpt lat="44.9111653137511" lon="5.55098457629423"><ele>1225.0</ele><time>2026-04-28T09:50:17Z</time></trkpt><trkpt lat="44.911020140597834" lon="5.551007921520172"><ele>1225.0</ele><time>2026-04-28T09:50:23.999Z</time></trkpt><trkpt lat="44.91095192599474" lon="5.551051951020503"><ele>1225.0</ele><time>2026-04-28T09:50:27.999Z</time></trkpt><trkpt lat="44.910886042712924" lon="5.5510926254111475"><ele>1225.0</ele><time>2026-04-28T09:50:30.999Z</time></trkpt><trkpt lat="44.91081758679118" lon="5.55113238662063"><ele>1225.0</ele><time>2026-04-28T09:50:34.999Z</time></trkpt><trkpt lat="44.91075780396695" lon="5.551198823034561"><ele>1225.0</ele><time>2026-04-28T09:50:39.999Z</time></trkpt><trkpt lat="44.91063690395412" lon="5.5513104837560165"><ele>1227.5</ele><time>2026-04-28T09:50:47.999Z</time></trkpt><trkpt lat="44.910594434822954" lon="5.5513777896481145"><ele>1230.0</ele><time>2026-04-28T09:50:51.999Z</time></trkpt><trkpt lat="44.910542806900274" lon="5.551436816629263"><ele>1232.5</ele><time>2026-04-28T09:50:56.999Z</time></trkpt><trkpt lat="44.910470247980264" lon="5.551499329802503"><ele>1235.0</ele><time>2026-04-28T09:51:00.999Z</time></trkpt><trkpt lat="44.91021281626446" lon="5.551754120522258"><ele>1235.0</ele><time>2026-04-28T09:52:30.999Z</time></trkpt><trkpt lat="44.910145287155416" lon="5.5518314099949455"><ele>1235.0</ele><time>2026-04-28T09:52:32.999Z</time></trkpt><trkpt lat="44.91006774257566" lon="5.551913849821873"><ele>1235.0</ele><time>2026-04-28T09:52:34.999Z</time></trkpt><trkpt lat="44.909986329513764" lon="5.552013599591507"><ele>1235.0</ele><time>2026-04-28T09:52:36.999Z</time></trkpt><trkpt lat="44.909848696962726" lon="5.552179860626135"><ele>1234.5714285714284</ele><time>2026-04-28T09:52:39.999Z</time></trkpt><trkpt lat="44.90979508730952" lon="5.552238831167647"><ele>1234.142857142857</ele><time>2026-04-28T09:52:40.999Z</time></trkpt><trkpt lat="44.90974061090884" lon="5.552303081411557"><ele>1233.7142857142858</ele><time>2026-04-28T09:52:41.999Z</time></trkpt><trkpt lat="44.909689154165534" lon="5.5523695594591755"><ele>1233.2857142857142</ele><time>2026-04-28T09:52:42.999Z</time></trkpt><trkpt lat="44.909632061012466" lon="5.55243485634953"><ele>1232.857142857143</ele><time>2026-04-28T09:52:43.999Z</time></trkpt><trkpt lat="44.90957194143474" lon="5.5524953523981955"><ele>1232.4285714285713</ele><time>2026-04-28T09:52:44.999Z</time></trkpt><trkpt lat="44.909511166455665" lon="5.552568227638877"><ele>1232.0</ele><time>2026-04-28T09:52:45.999Z</time></trkpt><trkpt lat="44.90944367162069" lon="5.552637388553643"><ele>1232.0</ele><time>2026-04-28T09:52:46.999Z</time></trkpt><trkpt lat="44.909370083051364" lon="5.552714276315042"><ele>1232.0</ele><time>2026-04-28T09:52:47.999Z</time></trkpt><trkpt lat="44.909289858656244" lon="5.55278070010573"><ele>1232.0</ele><time>2026-04-28T09:52:48.999Z</time></trkpt><trkpt lat="44.909218813953714" lon="5.5528402612132854"><ele>1232.0</ele><time>2026-04-28T09:52:49.999Z</time></trkpt><trkpt lat="44.9091350737701" lon="5.552892402916196"><ele>1232.0</ele><time>2026-04-28T09:52:50.999Z</time></trkpt><trkpt lat="44.9090496609923" lon="5.552922853460924"><ele>1232.0</ele><time>2026-04-28T09:52:51.999Z</time></trkpt><trkpt lat="44.908961989143464" lon="5.552940314137593"><ele>1231.2</ele><time>2026-04-28T09:52:52.999Z</time></trkpt><trkpt lat="44.908861061430656" lon="5.552927420996271"><ele>1230.4</ele><time>2026-04-28T09:52:53.999Z</time></trkpt><trkpt lat="44.90876723325656" lon="5.552910180055674"><ele>1229.6</ele><time>2026-04-28T09:52:54.999Z</time></trkpt><trkpt lat="44.90867201593135" lon="5.55288553160653"><ele>1228.8</ele><time>2026-04-28T09:52:55.999Z</time></trkpt><trkpt lat="44.90857752530099" lon="5.5528621015583015"><ele>1228.0</ele><time>2026-04-28T09:52:56.999Z</time></trkpt><trkpt lat="44.90850085316728" lon="5.552853837852826"><ele>1226.25</ele><time>2026-04-28T09:52:57.999Z</time></trkpt><trkpt lat="44.90831979421905" lon="5.552856364342191"><ele>1224.5</ele><time>2026-04-28T09:53:00.999Z</time></trkpt><trkpt lat="44.90823452624695" lon="5.552993239905995"><ele>1222.75</ele><time>2026-04-28T09:53:02.999Z</time></trkpt><trkpt lat="44.90821859129558" lon="5.553099600609078"><ele>1221.0</ele><time>2026-04-28T09:53:03.999Z</time></trkpt><trkpt lat="44.908202998567255" lon="5.553206357254218"><ele>1220.1666666666667</ele><time>2026-04-28T09:53:04.999Z</time></trkpt><trkpt lat="44.90818796370979" lon="5.553324228410775"><ele>1219.3333333333333</ele><time>2026-04-28T09:53:05.999Z</time></trkpt><trkpt lat="44.908171549534345" lon="5.553438613886716"><ele>1218.5</ele><time>2026-04-28T09:53:06.999Z</time></trkpt><trkpt lat="44.90815934450892" lon="5.553552918864383"><ele>1217.6666666666665</ele><time>2026-04-28T09:53:07.999Z</time></trkpt><trkpt lat="44.90814666320461" lon="5.553673974742391"><ele>1216.8333333333333</ele><time>2026-04-28T09:53:08.999Z</time></trkpt><trkpt lat="44.908128521071724" lon="5.553805402515291"><ele>1216.0</ele><time>2026-04-28T09:53:09.999Z</time></trkpt><trkpt lat="44.90811122504122" lon="5.553926836048698"><ele>1216.0</ele><time>2026-04-28T09:53:10.999Z</time></trkpt><trkpt lat="44.90809160427834" lon="5.554048479989693"><ele>1216.0</ele><time>2026-04-28T09:53:11.999Z</time></trkpt><trkpt lat="44.908079759769365" lon="5.554177897683096"><ele>1216.0</ele><time>2026-04-28T09:53:12.999Z</time></trkpt><trkpt lat="44.9080654240303" lon="5.554307826825475"><ele>1216.0</ele><time>2026-04-28T09:53:13.999Z</time></trkpt><trkpt lat="44.90805436797499" lon="5.554427762135233"><ele>1216.0</ele><time>2026-04-28T09:53:14.999Z</time></trkpt><trkpt lat="44.90804356995379" lon="5.55452581492037"><ele>1216.0</ele><time>2026-04-28T09:53:15.999Z</time></trkpt><trkpt lat="44.908039883682235" lon="5.554616521816555"><ele>1216.5</ele><time>2026-04-28T09:53:16.999Z</time></trkpt><trkpt lat="44.90799235636841" lon="5.554703912285752"><ele>1217.0</ele><time>2026-04-28T09:53:18.999Z</time></trkpt><trkpt lat="44.90786089584089" lon="5.554750332556905"><ele>1217.5</ele><time>2026-04-28T09:53:22.999Z</time></trkpt><trkpt lat="44.90779947560913" lon="5.554817246561699"><ele>1218.0</ele><time>2026-04-28T09:53:24.999Z</time></trkpt><trkpt lat="44.907743923617225" lon="5.554864249211289"><ele>1218.5</ele><time>2026-04-28T09:53:26.999Z</time></trkpt><trkpt lat="44.907675292990426" lon="5.554904388797099"><ele>1219.0</ele><time>2026-04-28T09:53:28.999Z</time></trkpt><trkpt lat="44.90758887765461" lon="5.55493409301049"><ele>1217.8333333333333</ele><time>2026-04-28T09:53:30.999Z</time></trkpt><trkpt lat="44.90748785438181" lon="5.555003448390976"><ele>1216.6666666666665</ele><time>2026-04-28T09:53:32.999Z</time></trkpt><trkpt lat="44.9074239699301" lon="5.55502076091269"><ele>1215.5</ele><time>2026-04-28T09:53:33.999Z</time></trkpt><trkpt lat="44.9073468214526" lon="5.555052427440917"><ele>1214.3333333333333</ele><time>2026-04-28T09:53:35.998Z</time></trkpt><trkpt lat="44.90728140740719" lon="5.555000685390431"><ele>1213.1666666666667</ele><time>2026-04-28T09:53:37.998Z</time></trkpt><trkpt lat="44.90721019131519" lon="5.554914697617011"><ele>1212.0</ele><time>2026-04-28T09:53:39.998Z</time></trkpt><trkpt lat="44.907081272342054" lon="5.554750432586053"><ele>1212.0</ele><time>2026-04-28T09:53:43.998Z</time></trkpt><trkpt lat="44.906983529759955" lon="5.5547195810027725"><ele>1212.0</ele><time>2026-04-28T09:53:45.999Z</time></trkpt><trkpt lat="44.90690486280644" lon="5.554674066044823"><ele>1212.0</ele><time>2026-04-28T09:53:47.999Z</time></trkpt><trkpt lat="44.9068324456708" lon="5.554639379316603"><ele>1212.0</ele><time>2026-04-28T09:53:49.999Z</time></trkpt><trkpt lat="44.9067658490081" lon="5.554620019517395"><ele>1212.0</ele><time>2026-04-28T09:53:50.999Z</time></trkpt><trkpt lat="44.90670826097395" lon="5.554537584181284"><ele>1212.0</ele><time>2026-04-28T09:53:53.999Z</time></trkpt><trkpt lat="44.906649894321255" lon="5.554496491187369"><ele>1212.0</ele><time>2026-04-28T09:53:57.999Z</time></trkpt><trkpt lat="44.906728109888846" lon="5.554586219114589"><ele>1212.0</ele><time>2026-04-28T09:54:01.999Z</time></trkpt><trkpt lat="44.90691689700007" lon="5.554702295834878"><ele>1212.0</ele><time>2026-04-28T09:54:05.999Z</time></trkpt><trkpt lat="44.90704132151682" lon="5.55475341702092"><ele>1212.0</ele><time>2026-04-28T09:54:07.999Z</time></trkpt><trkpt lat="44.90710112358414" lon="5.554806896612813"><ele>1212.0</ele><time>2026-04-28T09:54:08.999Z</time></trkpt><trkpt lat="44.90715826167004" lon="5.554864441401108"><ele>1212.0</ele><time>2026-04-28T09:54:09.999Z</time></trkpt><trkpt lat="44.90720751366293" lon="5.554928144059097"><ele>1212.0</ele><time>2026-04-28T09:54:10.999Z</time></trkpt><trkpt lat="44.907305544625615" lon="5.5550160960363275"><ele>1212.0</ele><time>2026-04-28T09:54:12.999Z</time></trkpt><trkpt lat="44.90737739113743" lon="5.5550916628467215"><ele>1212.0</ele><time>2026-04-28T09:54:14.999Z</time></trkpt><trkpt lat="44.90744719981488" lon="5.55506727211514"><ele>1212.0</ele><time>2026-04-28T09:54:16.999Z</time></trkpt><trkpt lat="44.90754083477157" lon="5.55498005274094"><ele>1213.75</ele><time>2026-04-28T09:54:18.999Z</time></trkpt><trkpt lat="44.90761703666086" lon="5.554930799366233"><ele>1215.5</ele><time>2026-04-28T09:54:20.999Z</time></trkpt><trkpt lat="44.90767846562531" lon="5.554881493688912"><ele>1217.25</ele><time>2026-04-28T09:54:22.999Z</time></trkpt><trkpt lat="44.90785754531789" lon="5.554786116061666"><ele>1219.0</ele><time>2026-04-28T09:54:26.999Z</time></trkpt><trkpt lat="44.90795534253011" lon="5.554715827784605"><ele>1219.0</ele><time>2026-04-28T09:54:28.999Z</time></trkpt><trkpt lat="44.908025783275995" lon="5.554721412761713"><ele>1219.0</ele><time>2026-04-28T09:54:30.999Z</time></trkpt><trkpt lat="44.90806165790287" lon="5.554835462880275"><ele>1219.0</ele><time>2026-04-28T09:54:32.999Z</time></trkpt><trkpt lat="44.90806646179927" lon="5.555007691341509"><ele>1219.0</ele><time>2026-04-28T09:54:34.999Z</time></trkpt><trkpt lat="44.9081040823238" lon="5.555118452806377"><ele>1219.0</ele><time>2026-04-28T09:54:35.999Z</time></trkpt><trkpt lat="44.90810519442167" lon="5.555275158200312"><ele>1219.0</ele><time>2026-04-28T09:54:37.999Z</time></trkpt><trkpt lat="44.90811223954524" lon="5.555364851186847"><ele>1219.0</ele><time>2026-04-28T09:54:38.999Z</time></trkpt><trkpt lat="44.90811391938596" lon="5.555459964161659"><ele>1219.0</ele><time>2026-04-28T09:54:39.999Z</time></trkpt><trkpt lat="44.908118692449" lon="5.555554745819733"><ele>1219.0</ele><time>2026-04-28T09:54:40.999Z</time></trkpt><trkpt lat="44.908126458002734" lon="5.5556505847187525"><ele>1219.0</ele><time>2026-04-28T09:54:41.999Z</time></trkpt><trkpt lat="44.90813650480733" lon="5.555757239363516"><ele>1219.0</ele><time>2026-04-28T09:54:42.999Z</time></trkpt><trkpt lat="44.908144352467936" lon="5.555859598690621"><ele>1219.0</ele><time>2026-04-28T09:54:43.999Z</time></trkpt><trkpt lat="44.90815471896506" lon="5.556073982333285"><ele>1219.3333333333333</ele><time>2026-04-28T09:54:45.999Z</time></trkpt><trkpt lat="44.90816550243842" lon="5.556183281781714"><ele>1219.6666666666665</ele><time>2026-04-28T09:54:46.999Z</time></trkpt><trkpt lat="44.90817760121205" lon="5.5562974883842635"><ele>1220.0</ele><time>2026-04-28T09:54:47.999Z</time></trkpt><trkpt lat="44.90818256466689" lon="5.556417404632766"><ele>1220.3333333333333</ele><time>2026-04-28T09:54:48.999Z</time></trkpt><trkpt lat="44.908189033379976" lon="5.556538480027019"><ele>1220.6666666666667</ele><time>2026-04-28T09:54:49.999Z</time></trkpt><trkpt lat="44.90819061541906" lon="5.5566641698962735"><ele>1221.0</ele><time>2026-04-28T09:54:50.999Z</time></trkpt><trkpt lat="44.90820098291953" lon="5.556793404132536"><ele>1220.3999999999999</ele><time>2026-04-28T09:54:51.999Z</time></trkpt><trkpt lat="44.908203320788886" lon="5.556921435375733"><ele>1219.8</ele><time>2026-04-28T09:54:52.999Z</time></trkpt><trkpt lat="44.9082058095814" lon="5.557051855442169"><ele>1219.1999999999998</ele><time>2026-04-28T09:54:53.999Z</time></trkpt><trkpt lat="44.90821333850217" lon="5.557188539367802"><ele>1218.6</ele><time>2026-04-28T09:54:54.999Z</time></trkpt><trkpt lat="44.90822117949479" lon="5.557321333307447"><ele>1218.0</ele><time>2026-04-28T09:54:55.999Z</time></trkpt><trkpt lat="44.908223622679834" lon="5.557454820441111"><ele>1218.0</ele><time>2026-04-28T09:54:56.999Z</time></trkpt><trkpt lat="44.90823098954108" lon="5.557590950791795"><ele>1218.0</ele><time>2026-04-28T09:54:57.999Z</time></trkpt><trkpt lat="44.90824813602844" lon="5.55772506915122"><ele>1218.0</ele><time>2026-04-28T09:54:58.999Z</time></trkpt><trkpt lat="44.90826670863241" lon="5.5578640134708746"><ele>1218.0</ele><time>2026-04-28T09:54:59.999Z</time></trkpt><trkpt lat="44.90829040395622" lon="5.558006682945181"><ele>1218.0</ele><time>2026-04-28T09:55:00.999Z</time></trkpt><trkpt lat="44.90832963751422" lon="5.558144037532333"><ele>1217.0</ele><time>2026-04-28T09:55:01.999Z</time></trkpt><trkpt lat="44.908372697190465" lon="5.558284029039762"><ele>1216.0</ele><time>2026-04-28T09:55:02.999Z</time></trkpt><trkpt lat="44.908414623027724" lon="5.558430757058086"><ele>1215.0</ele><time>2026-04-28T09:55:03.999Z</time></trkpt><trkpt lat="44.90845147218529" lon="5.558585338963902"><ele>1214.0</ele><time>2026-04-28T09:55:04.999Z</time></trkpt><trkpt lat="44.908513185618716" lon="5.558906931769686"><ele>1217.5</ele><time>2026-04-28T09:55:06.999Z</time></trkpt><trkpt lat="44.90853006043063" lon="5.559071206260504"><ele>1221.0</ele><time>2026-04-28T09:55:07.999Z</time></trkpt><trkpt lat="44.90853809399711" lon="5.559242420236522"><ele>1224.5</ele><time>2026-04-28T09:55:08.999Z</time></trkpt><trkpt lat="44.9085314761615" lon="5.559413141676961"><ele>1228.0</ele><time>2026-04-28T09:55:09.999Z</time></trkpt><trkpt lat="44.908507858362746" lon="5.55958650813201"><ele>1228.0</ele><time>2026-04-28T09:55:10.999Z</time></trkpt><trkpt lat="44.90846131279206" lon="5.559756185025126"><ele>1228.0</ele><time>2026-04-28T09:55:11.999Z</time></trkpt><trkpt lat="44.90839479659968" lon="5.559922578437611"><ele>1228.0</ele><time>2026-04-28T09:55:12.999Z</time></trkpt><trkpt lat="44.90836060547661" lon="5.5600744491540635"><ele>1228.0</ele><time>2026-04-28T09:55:13.999Z</time></trkpt><trkpt lat="44.908339584190436" lon="5.560232277334648"><ele>1223.5</ele><time>2026-04-28T09:55:14.999Z</time></trkpt><trkpt lat="44.90834010162885" lon="5.560401159374578"><ele>1219.0</ele><time>2026-04-28T09:55:15.999Z</time></trkpt><trkpt lat="44.90835937460469" lon="5.5605797896367495"><ele>1214.5</ele><time>2026-04-28T09:55:16.999Z</time></trkpt><trkpt lat="44.90839528275203" lon="5.56075681193272"><ele>1210.0</ele><time>2026-04-28T09:55:17.999Z</time></trkpt><trkpt lat="44.90843580440983" lon="5.560931393991856"><ele>1210.0</ele><time>2026-04-28T09:55:18.999Z</time></trkpt><trkpt lat="44.90848488502108" lon="5.561095462676188"><ele>1210.0</ele><time>2026-04-28T09:55:19.999Z</time></trkpt><trkpt lat="44.908542401931186" lon="5.5612563154400885"><ele>1210.0</ele><time>2026-04-28T09:55:20.999Z</time></trkpt><trkpt lat="44.9086121963895" lon="5.561412334177025"><ele>1210.0</ele><time>2026-04-28T09:55:21.999Z</time></trkpt><trkpt lat="44.908688253046975" lon="5.561558592704546"><ele>1204.75</ele><time>2026-04-28T09:55:22.999Z</time></trkpt><trkpt lat="44.908758294845086" lon="5.561713652125952"><ele>1199.5</ele><time>2026-04-28T09:55:23.999Z</time></trkpt><trkpt lat="44.90883454692941" lon="5.561860303811459"><ele>1194.25</ele><time>2026-04-28T09:55:24.999Z</time></trkpt><trkpt lat="44.9089137019096" lon="5.561995899723871"><ele>1189.0</ele><time>2026-04-28T09:55:25.999Z</time></trkpt><trkpt lat="44.90910163857263" lon="5.562240013342956"><ele>1188.0</ele><time>2026-04-28T09:55:27.999Z</time></trkpt><trkpt lat="44.90920402952631" lon="5.562348433495615"><ele>1187.0</ele><time>2026-04-28T09:55:28.999Z</time></trkpt><trkpt lat="44.90929903495222" lon="5.562464670361819"><ele>1186.0</ele><time>2026-04-28T09:55:29.999Z</time></trkpt><trkpt lat="44.909390536065715" lon="5.562590556499964"><ele>1185.0</ele><time>2026-04-28T09:55:30.999Z</time></trkpt><trkpt lat="44.90948300769524" lon="5.562711649722499"><ele>1185.0</ele><time>2026-04-28T09:55:31.999Z</time></trkpt><trkpt lat="44.909575046909865" lon="5.562837945014748"><ele>1185.0</ele><time>2026-04-28T09:55:32.999Z</time></trkpt><trkpt lat="44.90964915277234" lon="5.562986465730777"><ele>1185.0</ele><time>2026-04-28T09:55:33.999Z</time></trkpt><trkpt lat="44.90972129763149" lon="5.563131462330746"><ele>1185.0</ele><time>2026-04-28T09:55:34.999Z</time></trkpt><trkpt lat="44.90978831600529" lon="5.563282145160775"><ele>1181.25</ele><time>2026-04-28T09:55:35.999Z</time></trkpt><trkpt lat="44.90985818852782" lon="5.5634281172892175"><ele>1177.5</ele><time>2026-04-28T09:55:36.999Z</time></trkpt><trkpt lat="44.90992603026639" lon="5.563572199273575"><ele>1173.75</ele><time>2026-04-28T09:55:37.999Z</time></trkpt><trkpt lat="44.91000111660494" lon="5.563714061820057"><ele>1170.0</ele><time>2026-04-28T09:55:38.999Z</time></trkpt><trkpt lat="44.910079790133175" lon="5.563854932336115"><ele>1169.2</ele><time>2026-04-28T09:55:39.999Z</time></trkpt><trkpt lat="44.91014591536703" lon="5.5639807801013506"><ele>1168.4</ele><time>2026-04-28T09:55:40.999Z</time></trkpt><trkpt lat="44.91019899635434" lon="5.564116191496516"><ele>1167.6</ele><time>2026-04-28T09:55:42Z</time></trkpt><trkpt lat="44.910248215982556" lon="5.564254863189977"><ele>1166.8</ele><time>2026-04-28T09:55:43Z</time></trkpt><trkpt lat="44.91030980710424" lon="5.564381770569676"><ele>1166.0</ele><time>2026-04-28T09:55:44Z</time></trkpt><trkpt lat="44.91038376201876" lon="5.564502365106388"><ele>1167.3333333333335</ele><time>2026-04-28T09:55:45Z</time></trkpt><trkpt lat="44.910464290992124" lon="5.564614510426327"><ele>1168.6666666666667</ele><time>2026-04-28T09:55:46Z</time></trkpt><trkpt lat="44.910545138480224" lon="5.564722973315098"><ele>1170.0</ele><time>2026-04-28T09:55:47Z</time></trkpt><trkpt lat="44.910714685368916" lon="5.564949375542228"><ele>1170.0</ele><time>2026-04-28T09:55:49Z</time></trkpt><trkpt lat="44.910799598072074" lon="5.56505507013107"><ele>1170.0</ele><time>2026-04-28T09:55:50Z</time></trkpt><trkpt lat="44.91088713815135" lon="5.565168368565272"><ele>1170.0</ele><time>2026-04-28T09:55:51Z</time></trkpt><trkpt lat="44.91097721646476" lon="5.56527438291837"><ele>1170.0</ele><time>2026-04-28T09:55:52Z</time></trkpt><trkpt lat="44.911072495692196" lon="5.565374057899065"><ele>1167.75</ele><time>2026-04-28T09:55:53Z</time></trkpt><trkpt lat="44.91117072756468" lon="5.565471136075137"><ele>1165.5</ele><time>2026-04-28T09:55:54Z</time></trkpt><trkpt lat="44.91127014851258" lon="5.565568398270688"><ele>1163.25</ele><time>2026-04-28T09:55:55Z</time></trkpt><trkpt lat="44.91136959520136" lon="5.565676835463795"><ele>1161.0</ele><time>2026-04-28T09:55:56Z</time></trkpt><trkpt lat="44.91146789772775" lon="5.565784622231673"><ele>1161.0</ele><time>2026-04-28T09:55:57Z</time></trkpt><trkpt lat="44.91156834995204" lon="5.565889853093239"><ele>1161.0</ele><time>2026-04-28T09:55:58Z</time></trkpt><trkpt lat="44.91166175391638" lon="5.566006062863815"><ele>1161.0</ele><time>2026-04-28T09:55:59Z</time></trkpt><trkpt lat="44.911754584214556" lon="5.566133853042215"><ele>1161.0</ele><time>2026-04-28T09:56:00Z</time></trkpt><trkpt lat="44.91184300621615" lon="5.566265398569634"><ele>1161.0</ele><time>2026-04-28T09:56:01Z</time></trkpt><trkpt lat="44.911926019650544" lon="5.56640351013208"><ele>1161.0</ele><time>2026-04-28T09:56:02Z</time></trkpt><trkpt lat="44.91200884213335" lon="5.5665384731221605"><ele>1161.0</ele><time>2026-04-28T09:56:03Z</time></trkpt><trkpt lat="44.91209128262472" lon="5.566670824629483"><ele>1161.0</ele><time>2026-04-28T09:56:04Z</time></trkpt><trkpt lat="44.91217103848157" lon="5.566809260742034"><ele>1161.0</ele><time>2026-04-28T09:56:05Z</time></trkpt><trkpt lat="44.912253489100195" lon="5.566938372582378"><ele>1161.0</ele><time>2026-04-28T09:56:06Z</time></trkpt><trkpt lat="44.91232104426489" lon="5.567070820894423"><ele>1161.0</ele><time>2026-04-28T09:56:07Z</time></trkpt><trkpt lat="44.912397063448275" lon="5.567197294640122"><ele>1161.0</ele><time>2026-04-28T09:56:08Z</time></trkpt><trkpt lat="44.91252201645664" lon="5.5674722811703266"><ele>1160.8</ele><time>2026-04-28T09:56:10Z</time></trkpt><trkpt lat="44.91256858158847" lon="5.5676116089760175"><ele>1160.6</ele><time>2026-04-28T09:56:11Z</time></trkpt><trkpt lat="44.91260284336541" lon="5.567762051459343"><ele>1160.4</ele><time>2026-04-28T09:56:12Z</time></trkpt><trkpt lat="44.91263161420294" lon="5.5679143783816025"><ele>1160.2</ele><time>2026-04-28T09:56:13Z</time></trkpt><trkpt lat="44.91266421959521" lon="5.568058382027514"><ele>1160.0</ele><time>2026-04-28T09:56:14Z</time></trkpt><trkpt lat="44.91270068438367" lon="5.568201393749881"><ele>1159.6666666666667</ele><time>2026-04-28T09:56:15Z</time></trkpt><trkpt lat="44.91272994166366" lon="5.56833581732561"><ele>1159.3333333333335</ele><time>2026-04-28T09:56:16Z</time></trkpt><trkpt lat="44.91274996002657" lon="5.5684424151967296"><ele>1159.0</ele><time>2026-04-28T09:56:17Z</time></trkpt><trkpt lat="44.91274491570508" lon="5.568569091292489"><ele>1158.6666666666667</ele><time>2026-04-28T09:56:19Z</time></trkpt><trkpt lat="44.912673279740204" lon="5.568622194347038"><ele>1158.3333333333333</ele><time>2026-04-28T09:56:21Z</time></trkpt><trkpt lat="44.91258912542724" lon="5.568654833322727"><ele>1158.0</ele><time>2026-04-28T09:56:23Z</time></trkpt><trkpt lat="44.91251467886864" lon="5.568674584677764"><ele>1158.5</ele><time>2026-04-28T09:56:25Z</time></trkpt><trkpt lat="44.9124432431217" lon="5.568704352264207"><ele>1159.0</ele><time>2026-04-28T09:56:27Z</time></trkpt><trkpt lat="44.91234957825377" lon="5.568739687174409"><ele>1159.5</ele><time>2026-04-28T09:56:29Z</time></trkpt><trkpt lat="44.91214953317054" lon="5.568825177808059"><ele>1160.0</ele><time>2026-04-28T09:56:33Z</time></trkpt><trkpt lat="44.912049047646335" lon="5.568858938239373"><ele>1160.0</ele><time>2026-04-28T09:56:35Z</time></trkpt><trkpt lat="44.91195228660134" lon="5.568898521637993"><ele>1160.0</ele><time>2026-04-28T09:56:37Z</time></trkpt><trkpt lat="44.911848740839496" lon="5.568935111637602"><ele>1160.0</ele><time>2026-04-28T09:56:39Z</time></trkpt><trkpt lat="44.91174840270071" lon="5.56897276527669"><ele>1160.0</ele><time>2026-04-28T09:56:41Z</time></trkpt><trkpt lat="44.91164323645006" lon="5.569011503538858"><ele>1160.0</ele><time>2026-04-28T09:56:43Z</time></trkpt><trkpt lat="44.911541023595" lon="5.569045407754156"><ele>1160.0</ele><time>2026-04-28T09:56:45Z</time></trkpt><trkpt lat="44.91143923132671" lon="5.569078014568812"><ele>1160.0</ele><time>2026-04-28T09:56:47Z</time></trkpt><trkpt lat="44.91133700052478" lon="5.569112962808975"><ele>1160.0</ele><time>2026-04-28T09:56:49Z</time></trkpt><trkpt lat="44.91124140142192" lon="5.56915721410174"><ele>1160.0</ele><time>2026-04-28T09:56:51Z</time></trkpt><trkpt lat="44.91104678830722" lon="5.56921934957453"><ele>1160.0</ele><time>2026-04-28T09:56:55Z</time></trkpt><trkpt lat="44.91094756016246" lon="5.5692463325665065"><ele>1160.0</ele><time>2026-04-28T09:56:57Z</time></trkpt><trkpt lat="44.910850698089014" lon="5.569282803918053"><ele>1160.0</ele><time>2026-04-28T09:56:59Z</time></trkpt><trkpt lat="44.91075341339891" lon="5.569325314327071"><ele>1160.0</ele><time>2026-04-28T09:57:01Z</time></trkpt><trkpt lat="44.91065733527145" lon="5.5693609661744174"><ele>1160.0</ele><time>2026-04-28T09:57:03Z</time></trkpt><trkpt lat="44.91055873620961" lon="5.569390802579338"><ele>1160.0</ele><time>2026-04-28T09:57:05Z</time></trkpt><trkpt lat="44.91046342107293" lon="5.569429046531828"><ele>1160.0</ele><time>2026-04-28T09:57:07Z</time></trkpt><trkpt lat="44.910365769317586" lon="5.56946190840274"><ele>1160.0</ele><time>2026-04-28T09:57:09Z</time></trkpt><trkpt lat="44.910269350592294" lon="5.56949597078975"><ele>1160.0</ele><time>2026-04-28T09:57:11Z</time></trkpt><trkpt lat="44.91017122938505" lon="5.569517426396109"><ele>1160.0</ele><time>2026-04-28T09:57:13Z</time></trkpt><trkpt lat="44.909977704623046" lon="5.569541320086452"><ele>1160.8</ele><time>2026-04-28T09:57:17Z</time></trkpt><trkpt lat="44.90988458753552" lon="5.569550733814245"><ele>1161.6</ele><time>2026-04-28T09:57:19Z</time></trkpt><trkpt lat="44.909790193116194" lon="5.569549829326461"><ele>1162.4</ele><time>2026-04-28T09:57:21Z</time></trkpt><trkpt lat="44.90968789803597" lon="5.569543807664194"><ele>1163.2</ele><time>2026-04-28T09:57:23Z</time></trkpt><trkpt lat="44.909584228499" lon="5.56954337329683"><ele>1164.0</ele><time>2026-04-28T09:57:25Z</time></trkpt><trkpt lat="44.90947869554687" lon="5.569535824333969"><ele>1164.0</ele><time>2026-04-28T09:57:27Z</time></trkpt><trkpt lat="44.90936855373476" lon="5.569531114238384"><ele>1164.0</ele><time>2026-04-28T09:57:29Z</time></trkpt><trkpt lat="44.90925093368909" lon="5.569518112814792"><ele>1164.0</ele><time>2026-04-28T09:57:31Z</time></trkpt><trkpt lat="44.909135371122915" lon="5.569508000941491"><ele>1164.0</ele><time>2026-04-28T09:57:32.999Z</time></trkpt><trkpt lat="44.9090185472371" lon="5.569507144034007"><ele>1163.0</ele><time>2026-04-28T09:57:34.999Z</time></trkpt><trkpt lat="44.90877970254257" lon="5.569487614757989"><ele>1162.0</ele><time>2026-04-28T09:57:38.999Z</time></trkpt><trkpt lat="44.908662344298115" lon="5.569477310858835"><ele>1161.0</ele><time>2026-04-28T09:57:40.999Z</time></trkpt><trkpt lat="44.90854352827781" lon="5.56947107107959"><ele>1161.0</ele><time>2026-04-28T09:57:42.999Z</time></trkpt><trkpt lat="44.908427166657475" lon="5.569463526508802"><ele>1161.0</ele><time>2026-04-28T09:57:44.999Z</time></trkpt><trkpt lat="44.90831213388435" lon="5.569458364950157"><ele>1161.0</ele><time>2026-04-28T09:57:46.999Z</time></trkpt><trkpt lat="44.90820062301513" lon="5.5694612119906735"><ele>1161.0</ele><time>2026-04-28T09:57:49.001Z</time></trkpt><trkpt lat="44.908092617823705" lon="5.569471312264716"><ele>1162.0</ele><time>2026-04-28T09:57:51.001Z</time></trkpt><trkpt lat="44.907985485116214" lon="5.56949208982667"><ele>1163.0</ele><time>2026-04-28T09:57:53.001Z</time></trkpt><trkpt lat="44.90788443001877" lon="5.569529861642699"><ele>1164.0</ele><time>2026-04-28T09:57:55.001Z</time></trkpt><trkpt lat="44.907794444001716" lon="5.569557232065758"><ele>1165.0</ele><time>2026-04-28T09:57:57Z</time></trkpt><trkpt lat="44.907622944774786" lon="5.569620992383955"><ele>1165.8333333333333</ele><time>2026-04-28T09:58:01Z</time></trkpt><trkpt lat="44.90753466380772" lon="5.569656571528009"><ele>1166.6666666666665</ele><time>2026-04-28T09:58:03Z</time></trkpt><trkpt lat="44.90744791773129" lon="5.569687451446715"><ele>1167.5</ele><time>2026-04-28T09:58:05Z</time></trkpt><trkpt lat="44.907367319767324" lon="5.56971556598615"><ele>1168.3333333333333</ele><time>2026-04-28T09:58:07Z</time></trkpt><trkpt lat="44.90728985594535" lon="5.569745565114744"><ele>1169.1666666666667</ele><time>2026-04-28T09:58:09Z</time></trkpt><trkpt lat="44.90720893478128" lon="5.569778992352302"><ele>1170.0</ele><time>2026-04-28T09:58:11Z</time></trkpt><trkpt lat="44.90712598393561" lon="5.569811566712121"><ele>1170.0</ele><time>2026-04-28T09:58:13Z</time></trkpt><trkpt lat="44.907040558266736" lon="5.569850072509315"><ele>1170.0</ele><time>2026-04-28T09:58:15Z</time></trkpt><trkpt lat="44.906948911605724" lon="5.569877228545758"><ele>1170.0</ele><time>2026-04-28T09:58:17Z</time></trkpt><trkpt lat="44.906862219044406" lon="5.569912700821675"><ele>1170.0</ele><time>2026-04-28T09:58:19Z</time></trkpt><trkpt lat="44.906691345751014" lon="5.569981379446605"><ele>1170.3333333333333</ele><time>2026-04-28T09:58:23Z</time></trkpt><trkpt lat="44.90660933797582" lon="5.570012385859531"><ele>1170.6666666666667</ele><time>2026-04-28T09:58:25Z</time></trkpt><trkpt lat="44.906530462891666" lon="5.570036922591568"><ele>1171.0</ele><time>2026-04-28T09:58:27Z</time></trkpt><trkpt lat="44.90645352649336" lon="5.570060934583895"><ele>1171.3333333333335</ele><time>2026-04-28T09:58:29Z</time></trkpt><trkpt lat="44.90637358339139" lon="5.570074020857319"><ele>1171.6666666666667</ele><time>2026-04-28T09:58:31Z</time></trkpt><trkpt lat="44.9062959125013" lon="5.570076387607334"><ele>1172.0</ele><time>2026-04-28T09:58:33Z</time></trkpt><trkpt lat="44.90621767426058" lon="5.5700824932958355"><ele>1172.0</ele><time>2026-04-28T09:58:35Z</time></trkpt><trkpt lat="44.90613738663154" lon="5.570084075746286"><ele>1172.0</ele><time>2026-04-28T09:58:37Z</time></trkpt><trkpt lat="44.90605744310351" lon="5.570082928796415"><ele>1172.0</ele><time>2026-04-28T09:58:39Z</time></trkpt><trkpt lat="44.90597905515728" lon="5.570084875414008"><ele>1172.0</ele><time>2026-04-28T09:58:41Z</time></trkpt><trkpt lat="44.90581864160037" lon="5.57006269255628"><ele>1172.0</ele><time>2026-04-28T09:58:45Z</time></trkpt><trkpt lat="44.90573978729175" lon="5.570037711042643"><ele>1172.3333333333335</ele><time>2026-04-28T09:58:47Z</time></trkpt><trkpt lat="44.90566053785009" lon="5.570004982712035"><ele>1172.6666666666667</ele><time>2026-04-28T09:58:49Z</time></trkpt><trkpt lat="44.905586085367496" lon="5.569972698283465"><ele>1173.0</ele><time>2026-04-28T09:58:51Z</time></trkpt><trkpt lat="44.90551829117366" lon="5.569920607766242"><ele>1173.3333333333333</ele><time>2026-04-28T09:58:53Z</time></trkpt><trkpt lat="44.90545445140233" lon="5.569860904153534"><ele>1173.6666666666665</ele><time>2026-04-28T09:58:55Z</time></trkpt><trkpt lat="44.905387642064525" lon="5.5698137730029975"><ele>1174.0</ele><time>2026-04-28T09:58:57Z</time></trkpt><trkpt lat="44.905324226317475" lon="5.569761683451647"><ele>1174.0</ele><time>2026-04-28T09:58:59Z</time></trkpt><trkpt lat="44.905263281917534" lon="5.5697131108029545"><ele>1174.0</ele><time>2026-04-28T09:59:01Z</time></trkpt><trkpt lat="44.9051724008495" lon="5.5696756285575075"><ele>1174.0</ele><time>2026-04-28T09:59:04Z</time></trkpt><trkpt lat="44.90504151187989" lon="5.569639923600422"><ele>1174.0</ele><time>2026-04-28T09:59:08Z</time></trkpt><trkpt lat="44.904971705470395" lon="5.569626926971903"><ele>1174.0</ele><time>2026-04-28T09:59:10Z</time></trkpt><trkpt lat="44.90490406670276" lon="5.569613958039447"><ele>1174.0</ele><time>2026-04-28T09:59:12Z</time></trkpt><trkpt lat="44.904836804379094" lon="5.569608583572874"><ele>1175.2857142857142</ele><time>2026-04-28T09:59:14Z</time></trkpt><trkpt lat="44.904766239981306" lon="5.569613140768803"><ele>1176.5714285714287</ele><time>2026-04-28T09:59:16Z</time></trkpt><trkpt lat="44.904693071309225" lon="5.569614516859896"><ele>1177.857142857143</ele><time>2026-04-28T09:59:18Z</time></trkpt><trkpt lat="44.90461161656394" lon="5.569617124986723"><ele>1179.142857142857</ele><time>2026-04-28T09:59:20Z</time></trkpt><trkpt lat="44.90454285306807" lon="5.569607959470066"><ele>1180.4285714285716</ele><time>2026-04-28T09:59:22Z</time></trkpt><trkpt lat="44.9044754664307" lon="5.569596395311898"><ele>1181.7142857142858</ele><time>2026-04-28T09:59:24Z</time></trkpt><trkpt lat="44.90440380261396" lon="5.569585614224268"><ele>1183.0</ele><time>2026-04-28T09:59:26Z</time></trkpt><trkpt lat="44.90426786808567" lon="5.56955290022409"><ele>1183.5714285714287</ele><time>2026-04-28T09:59:30Z</time></trkpt><trkpt lat="44.90420147882987" lon="5.569545447594341"><ele>1184.142857142857</ele><time>2026-04-28T09:59:32Z</time></trkpt><trkpt lat="44.90413261128683" lon="5.569534970587519"><ele>1184.7142857142858</ele><time>2026-04-28T09:59:34Z</time></trkpt><trkpt lat="44.90406579487919" lon="5.56952174063973"><ele>1185.2857142857142</ele><time>2026-04-28T09:59:36Z</time></trkpt><trkpt lat="44.90399677584639" lon="5.569514047454535"><ele>1185.857142857143</ele><time>2026-04-28T09:59:38Z</time></trkpt><trkpt lat="44.903926643352456" lon="5.569505992164288"><ele>1186.4285714285716</ele><time>2026-04-28T09:59:40Z</time></trkpt><trkpt lat="44.903853638415285" lon="5.569481561054799"><ele>1187.0</ele><time>2026-04-28T09:59:42Z</time></trkpt><trkpt lat="44.903784664174665" lon="5.569462739162141"><ele>1187.0</ele><time>2026-04-28T09:59:44Z</time></trkpt><trkpt lat="44.90371123321675" lon="5.569448201621324"><ele>1187.0</ele><time>2026-04-28T09:59:46Z</time></trkpt><trkpt lat="44.9036422553131" lon="5.569438386041294"><ele>1187.0</ele><time>2026-04-28T09:59:48Z</time></trkpt><trkpt lat="44.903509014643475" lon="5.569376154469642"><ele>1187.0</ele><time>2026-04-28T09:59:52Z</time></trkpt><trkpt lat="44.90344598774206" lon="5.569343032453166"><ele>1187.0</ele><time>2026-04-28T09:59:54.001Z</time></trkpt><trkpt lat="44.903395172481595" lon="5.569285611611542"><ele>1187.0</ele><time>2026-04-28T09:59:56.001Z</time></trkpt><trkpt lat="44.90333796748762" lon="5.569223697770016"><ele>1187.5714285714287</ele><time>2026-04-28T09:59:58.001Z</time></trkpt><trkpt lat="44.903280631513276" lon="5.569166518583433"><ele>1188.142857142857</ele><time>2026-04-28T10:00:00.001Z</time></trkpt><trkpt lat="44.90322080625819" lon="5.569122141171521"><ele>1188.7142857142858</ele><time>2026-04-28T10:00:02.001Z</time></trkpt><trkpt lat="44.903160842433" lon="5.56906827220553"><ele>1189.2857142857142</ele><time>2026-04-28T10:00:04.001Z</time></trkpt><trkpt lat="44.903099021611936" lon="5.569008448853477"><ele>1189.857142857143</ele><time>2026-04-28T10:00:06.001Z</time></trkpt><trkpt lat="44.90304995289662" lon="5.5689469112944305"><ele>1190.4285714285716</ele><time>2026-04-28T10:00:08.001Z</time></trkpt><trkpt lat="44.90299481594716" lon="5.568885478278375"><ele>1191.0</ele><time>2026-04-28T10:00:10Z</time></trkpt><trkpt lat="44.902887247410625" lon="5.568764574235455"><ele>1190.857142857143</ele><time>2026-04-28T10:00:14Z</time></trkpt><trkpt lat="44.902835899210416" lon="5.568692524802946"><ele>1190.7142857142858</ele><time>2026-04-28T10:00:16Z</time></trkpt><trkpt lat="44.90279139617576" lon="5.568627973939959"><ele>1190.5714285714284</ele><time>2026-04-28T10:00:18Z</time></trkpt><trkpt lat="44.90274414816424" lon="5.568566209986403"><ele>1190.4285714285716</ele><time>2026-04-28T10:00:20Z</time></trkpt><trkpt lat="44.90269558821266" lon="5.568501914544484"><ele>1190.2857142857142</ele><time>2026-04-28T10:00:22Z</time></trkpt><trkpt lat="44.902641871029935" lon="5.568437730576815"><ele>1190.142857142857</ele><time>2026-04-28T10:00:24Z</time></trkpt><trkpt lat="44.90258662655534" lon="5.5683681914292125"><ele>1190.0</ele><time>2026-04-28T10:00:26Z</time></trkpt><trkpt lat="44.90253224259698" lon="5.568298801852807"><ele>1190.8</ele><time>2026-04-28T10:00:28Z</time></trkpt><trkpt lat="44.90247766562721" lon="5.56822818155248"><ele>1191.6</ele><time>2026-04-28T10:00:30Z</time></trkpt><trkpt lat="44.90243252716585" lon="5.568154054949248"><ele>1192.4</ele><time>2026-04-28T10:00:32Z</time></trkpt><trkpt lat="44.90238238850692" lon="5.567968082784243"><ele>1193.2</ele><time>2026-04-28T10:00:36Z</time></trkpt><trkpt lat="44.902375325784526" lon="5.567870454396885"><ele>1194.0</ele><time>2026-04-28T10:00:38Z</time></trkpt><trkpt lat="44.902369895305505" lon="5.567734202103439"><ele>1193.857142857143</ele><time>2026-04-28T10:00:41Z</time></trkpt><trkpt lat="44.902335440871404" lon="5.567622470178179"><ele>1193.7142857142858</ele><time>2026-04-28T10:00:44Z</time></trkpt><trkpt lat="44.90229976002777" lon="5.5675458671883185"><ele>1193.5714285714284</ele><time>2026-04-28T10:00:46Z</time></trkpt><trkpt lat="44.902278847228644" lon="5.567457255257452"><ele>1193.4285714285716</ele><time>2026-04-28T10:00:48Z</time></trkpt><trkpt lat="44.90226938924314" lon="5.567367701469297"><ele>1193.2857142857142</ele><time>2026-04-28T10:00:50Z</time></trkpt><trkpt lat="44.902296266861065" lon="5.567268786024713"><ele>1193.142857142857</ele><time>2026-04-28T10:00:52Z</time></trkpt><trkpt lat="44.90234005468432" lon="5.567173707630771"><ele>1193.0</ele><time>2026-04-28T10:00:54Z</time></trkpt><trkpt lat="44.902406968470984" lon="5.5669123208646845"><ele>1193.0</ele><time>2026-04-28T10:00:58Z</time></trkpt><trkpt lat="44.90242036588856" lon="5.566739758743753"><ele>1193.0</ele><time>2026-04-28T10:01:00Z</time></trkpt><trkpt lat="44.90239784618005" lon="5.566574695562838"><ele>1193.0</ele><time>2026-04-28T10:01:02Z</time></trkpt><trkpt lat="44.90237088118812" lon="5.56640058824008"><ele>1193.0</ele><time>2026-04-28T10:01:04Z</time></trkpt><trkpt lat="44.90233086559669" lon="5.566325559748039"><ele>1193.0</ele><time>2026-04-28T10:01:05Z</time></trkpt><trkpt lat="44.90228296533677" lon="5.566250558128865"><ele>1192.6666666666667</ele><time>2026-04-28T10:01:06Z</time></trkpt><trkpt lat="44.90222653127585" lon="5.566185575642079"><ele>1192.3333333333335</ele><time>2026-04-28T10:01:07Z</time></trkpt><trkpt lat="44.902161519713246" lon="5.566119885948777"><ele>1192.0</ele><time>2026-04-28T10:01:08Z</time></trkpt><trkpt lat="44.90209273320527" lon="5.566058902875869"><ele>1191.6666666666667</ele><time>2026-04-28T10:01:09Z</time></trkpt><trkpt lat="44.902013699336194" lon="5.5659999705718475"><ele>1191.3333333333333</ele><time>2026-04-28T10:01:10Z</time></trkpt><trkpt lat="44.90193143196732" lon="5.565943516295507"><ele>1191.0</ele><time>2026-04-28T10:01:11Z</time></trkpt><trkpt lat="44.90184555684565" lon="5.565882283520922"><ele>1191.0</ele><time>2026-04-28T10:01:12Z</time></trkpt><trkpt lat="44.901765289856904" lon="5.565806681155278"><ele>1191.0</ele><time>2026-04-28T10:01:13Z</time></trkpt><trkpt lat="44.901693870954965" lon="5.565709942883522"><ele>1191.0</ele><time>2026-04-28T10:01:14Z</time></trkpt><trkpt lat="44.90164746660468" lon="5.565590912416593"><ele>1191.0</ele><time>2026-04-28T10:01:15Z</time></trkpt><trkpt lat="44.90163109592717" lon="5.565322964291176"><ele>1190.8333333333333</ele><time>2026-04-28T10:01:17Z</time></trkpt><trkpt lat="44.90165303057632" lon="5.565199796344198"><ele>1190.6666666666667</ele><time>2026-04-28T10:01:18Z</time></trkpt><trkpt lat="44.90167510060292" lon="5.5650852656561645"><ele>1190.5</ele><time>2026-04-28T10:01:19Z</time></trkpt><trkpt lat="44.90170270123773" lon="5.564976074708842"><ele>1190.3333333333335</ele><time>2026-04-28T10:01:20Z</time></trkpt><trkpt lat="44.901717149038944" lon="5.564868254465314"><ele>1190.1666666666667</ele><time>2026-04-28T10:01:21Z</time></trkpt><trkpt lat="44.90172610166969" lon="5.564757561397187"><ele>1190.0</ele><time>2026-04-28T10:01:22Z</time></trkpt><trkpt lat="44.901720320710005" lon="5.564657135023791"><ele>1190.0</ele><time>2026-04-28T10:01:23Z</time></trkpt><trkpt lat="44.90170484901797" lon="5.5645608687974235"><ele>1190.0</ele><time>2026-04-28T10:01:24Z</time></trkpt><trkpt lat="44.901696222043284" lon="5.564460828842495"><ele>1190.0</ele><time>2026-04-28T10:01:25Z</time></trkpt><trkpt lat="44.90168510318344" lon="5.564366551926706"><ele>1190.0</ele><time>2026-04-28T10:01:26Z</time></trkpt><trkpt lat="44.90167064687515" lon="5.564269710180107"><ele>1190.0</ele><time>2026-04-28T10:01:27Z</time></trkpt><trkpt lat="44.90165430937479" lon="5.564179949956484"><ele>1190.0</ele><time>2026-04-28T10:01:28Z</time></trkpt><trkpt lat="44.90163872123943" lon="5.564011641119967"><ele>1191.0</ele><time>2026-04-28T10:01:30Z</time></trkpt><trkpt lat="44.90162913046026" lon="5.563845459927531"><ele>1192.0</ele><time>2026-04-28T10:01:32Z</time></trkpt><trkpt lat="44.9016167732918" lon="5.5636905133784005"><ele>1193.0</ele><time>2026-04-28T10:01:34Z</time></trkpt><trkpt lat="44.90159183243051" lon="5.5635500724395515"><ele>1194.0</ele><time>2026-04-28T10:01:36Z</time></trkpt><trkpt lat="44.901561832865035" lon="5.563270952973548"><ele>1195.2</ele><time>2026-04-28T10:01:40Z</time></trkpt><trkpt lat="44.901561202203894" lon="5.563132803976462"><ele>1196.4</ele><time>2026-04-28T10:01:42Z</time></trkpt><trkpt lat="44.90156487763102" lon="5.562987491995267"><ele>1197.6</ele><time>2026-04-28T10:01:43.999Z</time></trkpt><trkpt lat="44.90156988152677" lon="5.562844842158302"><ele>1198.8</ele><time>2026-04-28T10:01:45.999Z</time></trkpt><trkpt lat="44.90158141732857" lon="5.562695251242977"><ele>1200.0</ele><time>2026-04-28T10:01:47.999Z</time></trkpt><trkpt lat="44.901591477166434" lon="5.5625447492660856"><ele>1201.0</ele><time>2026-04-28T10:01:49.999Z</time></trkpt><trkpt lat="44.901596027121045" lon="5.5623911239015555"><ele>1202.0</ele><time>2026-04-28T10:01:51.999Z</time></trkpt><trkpt lat="44.90160363219599" lon="5.562248556343018"><ele>1203.0</ele><time>2026-04-28T10:01:53.999Z</time></trkpt><trkpt lat="44.90159348496971" lon="5.562106926962835"><ele>1204.0</ele><time>2026-04-28T10:01:55.999Z</time></trkpt><trkpt lat="44.9015793652489" lon="5.561970341082117"><ele>1205.0</ele><time>2026-04-28T10:01:57.999Z</time></trkpt><trkpt lat="44.90154497395637" lon="5.561686808211197"><ele>1205.2</ele><time>2026-04-28T10:02:02.001Z</time></trkpt><trkpt lat="44.90151504011587" lon="5.561545207718869"><ele>1205.4</ele><time>2026-04-28T10:02:04.001Z</time></trkpt><trkpt lat="44.901486533388756" lon="5.561409136119118"><ele>1205.6</ele><time>2026-04-28T10:02:06Z</time></trkpt><trkpt lat="44.90144944631092" lon="5.56127610527873"><ele>1205.8</ele><time>2026-04-28T10:02:08Z</time></trkpt><trkpt lat="44.90141991195667" lon="5.5611367271469945"><ele>1206.0</ele><time>2026-04-28T10:02:10Z</time></trkpt><trkpt lat="44.90137958089297" lon="5.561010893862881"><ele>1207.0</ele><time>2026-04-28T10:02:12Z</time></trkpt><trkpt lat="44.90133068040062" lon="5.56088162377315"><ele>1208.0</ele><time>2026-04-28T10:02:14Z</time></trkpt><trkpt lat="44.90129422090279" lon="5.56075414777738"><ele>1209.0</ele><time>2026-04-28T10:02:16Z</time></trkpt><trkpt lat="44.90125831008445" lon="5.560638953071593"><ele>1210.0</ele><time>2026-04-28T10:02:18Z</time></trkpt><trkpt lat="44.901227418244176" lon="5.560525289177903"><ele>1211.0</ele><time>2026-04-28T10:02:20Z</time></trkpt><trkpt lat="44.90116448157312" lon="5.56030661931263"><ele>1211.3333333333335</ele><time>2026-04-28T10:02:24Z</time></trkpt><trkpt lat="44.901125919915415" lon="5.56019367857831"><ele>1211.6666666666667</ele><time>2026-04-28T10:02:26Z</time></trkpt><trkpt lat="44.90109220295064" lon="5.560087551700579"><ele>1212.0</ele><time>2026-04-28T10:02:28Z</time></trkpt><trkpt lat="44.90106631311532" lon="5.559978833509335"><ele>1212.3333333333333</ele><time>2026-04-28T10:02:30Z</time></trkpt><trkpt lat="44.901023306265955" lon="5.559876744283015"><ele>1212.6666666666665</ele><time>2026-04-28T10:02:32Z</time></trkpt><trkpt lat="44.900988209731345" lon="5.559761516575419"><ele>1213.0</ele><time>2026-04-28T10:02:34Z</time></trkpt><trkpt lat="44.900954294953195" lon="5.55964296964122"><ele>1211.2</ele><time>2026-04-28T10:02:36Z</time></trkpt><trkpt lat="44.90091488281531" lon="5.559532180536275"><ele>1209.4</ele><time>2026-04-28T10:02:38Z</time></trkpt><trkpt lat="44.900878481281275" lon="5.5594118433895705"><ele>1207.6000000000001</ele><time>2026-04-28T10:02:40Z</time></trkpt><trkpt lat="44.90084018596287" lon="5.559293345078114"><ele>1205.8</ele><time>2026-04-28T10:02:42Z</time></trkpt><trkpt lat="44.90076263307221" lon="5.559069633578515"><ele>1204.0</ele><time>2026-04-28T10:02:46Z</time></trkpt><trkpt lat="44.90072812590027" lon="5.558962216202496"><ele>1204.0</ele><time>2026-04-28T10:02:48Z</time></trkpt><trkpt lat="44.900703445571516" lon="5.558865795929039"><ele>1204.0</ele><time>2026-04-28T10:02:50Z</time></trkpt><trkpt lat="44.900681276021565" lon="5.558754720429821"><ele>1204.0</ele><time>2026-04-28T10:02:53Z</time></trkpt><trkpt lat="44.90065523508016" lon="5.558634034609029"><ele>1204.0</ele><time>2026-04-28T10:02:56Z</time></trkpt><trkpt lat="44.90063042969239" lon="5.558548984738343"><ele>1204.0</ele><time>2026-04-28T10:02:58Z</time></trkpt><trkpt lat="44.90059831914017" lon="5.558464150200031"><ele>1204.0</ele><time>2026-04-28T10:03:00Z</time></trkpt><trkpt lat="44.90056816431589" lon="5.558367297891912"><ele>1205.2</ele><time>2026-04-28T10:03:02Z</time></trkpt><trkpt lat="44.90053470899251" lon="5.558275745643356"><ele>1206.4</ele><time>2026-04-28T10:03:04Z</time></trkpt><trkpt lat="44.9004775913795" lon="5.558070252411482"><ele>1207.6</ele><time>2026-04-28T10:03:08Z</time></trkpt><trkpt lat="44.90044825704275" lon="5.557970980679494"><ele>1208.8</ele><time>2026-04-28T10:03:10Z</time></trkpt><trkpt lat="44.90042444432489" lon="5.557864338510755"><ele>1210.0</ele><time>2026-04-28T10:03:12Z</time></trkpt><trkpt lat="44.90039658977504" lon="5.557757378505676"><ele>1210.4</ele><time>2026-04-28T10:03:14Z</time></trkpt><trkpt lat="44.90032557270926" lon="5.5576881419290585"><ele>1210.8</ele><time>2026-04-28T10:03:16Z</time></trkpt><trkpt lat="44.90024578439464" lon="5.557624197744576"><ele>1211.2</ele><time>2026-04-28T10:03:18Z</time></trkpt><trkpt lat="44.90016913007652" lon="5.557535503891941"><ele>1211.6</ele><time>2026-04-28T10:03:20Z</time></trkpt><trkpt lat="44.90010095609426" lon="5.557427262615128"><ele>1212.0</ele><time>2026-04-28T10:03:22Z</time></trkpt><trkpt lat="44.90002862512643" lon="5.557315485385029"><ele>1212.0</ele><time>2026-04-28T10:03:24Z</time></trkpt><trkpt lat="44.89997367214581" lon="5.557188108218414"><ele>1212.0</ele><time>2026-04-28T10:03:26Z</time></trkpt><trkpt lat="44.89985823187845" lon="5.556941817583038"><ele>1212.0</ele><time>2026-04-28T10:03:30Z</time></trkpt><trkpt lat="44.89978273146985" lon="5.5568442857868305"><ele>1212.0</ele><time>2026-04-28T10:03:31.999Z</time></trkpt><trkpt lat="44.89971558788161" lon="5.556731921979759"><ele>1213.0</ele><time>2026-04-28T10:03:33.999Z</time></trkpt><trkpt lat="44.89963940886025" lon="5.556626645806144"><ele>1214.0</ele><time>2026-04-28T10:03:35.999Z</time></trkpt><trkpt lat="44.89955113250162" lon="5.556538840842946"><ele>1215.0</ele><time>2026-04-28T10:03:37.999Z</time></trkpt><trkpt lat="44.89946626654459" lon="5.556444625248443"><ele>1216.0</ele><time>2026-04-28T10:03:39.999Z</time></trkpt><trkpt lat="44.89938769720759" lon="5.556352535807351"><ele>1217.0</ele><time>2026-04-28T10:03:41.999Z</time></trkpt><trkpt lat="44.899306998438306" lon="5.556258247103484"><ele>1217.5</ele><time>2026-04-28T10:03:43.999Z</time></trkpt><trkpt lat="44.89922816235299" lon="5.556155881435263"><ele>1218.0</ele><time>2026-04-28T10:03:45.999Z</time></trkpt><trkpt lat="44.899148410829" lon="5.556057773537057"><ele>1218.5</ele><time>2026-04-28T10:03:47.999Z</time></trkpt><trkpt lat="44.89901480108637" lon="5.555847651042904"><ele>1219.0</ele><time>2026-04-28T10:03:51.999Z</time></trkpt><trkpt lat="44.89894728403455" lon="5.555754866521354"><ele>1219.0</ele><time>2026-04-28T10:03:53.999Z</time></trkpt><trkpt lat="44.89889358877852" lon="5.555646387595226"><ele>1219.0</ele><time>2026-04-28T10:03:55.999Z</time></trkpt><trkpt lat="44.89884663235717" lon="5.55554511989914"><ele>1219.0</ele><time>2026-04-28T10:03:57.999Z</time></trkpt><trkpt lat="44.89879998606535" lon="5.555445616175049"><ele>1219.0</ele><time>2026-04-28T10:03:59.999Z</time></trkpt><trkpt lat="44.89874097470305" lon="5.555346156019092"><ele>1219.0</ele><time>2026-04-28T10:04:01.999Z</time></trkpt><trkpt lat="44.89869394003299" lon="5.555255042290182"><ele>1219.0</ele><time>2026-04-28T10:04:03.999Z</time></trkpt><trkpt lat="44.8986487032317" lon="5.555170137303765"><ele>1219.2</ele><time>2026-04-28T10:04:06Z</time></trkpt><trkpt lat="44.89859244785523" lon="5.555111004749299"><ele>1219.4</ele><time>2026-04-28T10:04:08Z</time></trkpt><trkpt lat="44.89854352220344" lon="5.555040007393718"><ele>1219.6</ele><time>2026-04-28T10:04:10Z</time></trkpt><trkpt lat="44.89843921539197" lon="5.554897609815182"><ele>1219.8</ele><time>2026-04-28T10:04:14Z</time></trkpt><trkpt lat="44.898364745271444" lon="5.554836060928308"><ele>1220.0</ele><time>2026-04-28T10:04:16Z</time></trkpt><trkpt lat="44.898287841650586" lon="5.55475404248296"><ele>1220.0</ele><time>2026-04-28T10:04:18Z</time></trkpt><trkpt lat="44.89820357026139" lon="5.5546628017559145"><ele>1220.0</ele><time>2026-04-28T10:04:20Z</time></trkpt><trkpt lat="44.89812595342439" lon="5.554594145038988"><ele>1220.0</ele><time>2026-04-28T10:04:22Z</time></trkpt><trkpt lat="44.89804615606832" lon="5.554513214732715"><ele>1220.0</ele><time>2026-04-28T10:04:24Z</time></trkpt><trkpt lat="44.89796546509967" lon="5.554445374966013"><ele>1220.0</ele><time>2026-04-28T10:04:26Z</time></trkpt><trkpt lat="44.89788839836775" lon="5.554362939523439"><ele>1221.5</ele><time>2026-04-28T10:04:28Z</time></trkpt><trkpt lat="44.89782335551238" lon="5.554255495549649"><ele>1223.0</ele><time>2026-04-28T10:04:30Z</time></trkpt><trkpt lat="44.8977646537087" lon="5.5541518759141155"><ele>1224.5</ele><time>2026-04-28T10:04:32Z</time></trkpt><trkpt lat="44.897673478957906" lon="5.55391090723928"><ele>1226.0</ele><time>2026-04-28T10:04:36Z</time></trkpt><trkpt lat="44.89763760432591" lon="5.553774294474858"><ele>1226.0</ele><time>2026-04-28T10:04:38Z</time></trkpt><trkpt lat="44.89758907661563" lon="5.553664382934877"><ele>1226.0</ele><time>2026-04-28T10:04:40Z</time></trkpt><trkpt lat="44.89753564029531" lon="5.553548442983474"><ele>1226.0</ele><time>2026-04-28T10:04:42Z</time></trkpt><trkpt lat="44.89747088445438" lon="5.553448525960348"><ele>1226.0</ele><time>2026-04-28T10:04:44Z</time></trkpt><trkpt lat="44.89739734891525" lon="5.553370264944222"><ele>1226.0</ele><time>2026-04-28T10:04:46Z</time></trkpt><trkpt lat="44.89732485571044" lon="5.553296025559717"><ele>1226.0</ele><time>2026-04-28T10:04:48Z</time></trkpt><trkpt lat="44.89725248026649" lon="5.553216242322313"><ele>1226.0</ele><time>2026-04-28T10:04:50Z</time></trkpt><trkpt lat="44.89717815639259" lon="5.553151081530142"><ele>1226.0</ele><time>2026-04-28T10:04:52Z</time></trkpt><trkpt lat="44.89710136752669" lon="5.553092631533613"><ele>1226.0</ele><time>2026-04-28T10:04:54Z</time></trkpt><trkpt lat="44.89693669783739" lon="5.553005829851068"><ele>1226.0</ele><time>2026-04-28T10:04:58Z</time></trkpt><trkpt lat="44.89685724970707" lon="5.5529421796746234"><ele>1226.0</ele><time>2026-04-28T10:05:00Z</time></trkpt><trkpt lat="44.89676945527872" lon="5.552878936195666"><ele>1226.0</ele><time>2026-04-28T10:05:02Z</time></trkpt><trkpt lat="44.89668436556714" lon="5.552816121276055"><ele>1226.0</ele><time>2026-04-28T10:05:04Z</time></trkpt><trkpt lat="44.89660021666228" lon="5.552747161841453"><ele>1226.0</ele><time>2026-04-28T10:05:06Z</time></trkpt><trkpt lat="44.89652227460054" lon="5.552680187408854"><ele>1226.0</ele><time>2026-04-28T10:05:08Z</time></trkpt><trkpt lat="44.89645393920185" lon="5.552586090068187"><ele>1226.5</ele><time>2026-04-28T10:05:10Z</time></trkpt><trkpt lat="44.89639151582066" lon="5.552478949974403"><ele>1227.0</ele><time>2026-04-28T10:05:12Z</time></trkpt><trkpt lat="44.89632808190351" lon="5.552383992358331"><ele>1227.5</ele><time>2026-04-28T10:05:14Z</time></trkpt><trkpt lat="44.89625618102477" lon="5.552293212803518"><ele>1228.0</ele><time>2026-04-28T10:05:16Z</time></trkpt><trkpt lat="44.896096007022166" lon="5.552135757064204"><ele>1228.0</ele><time>2026-04-28T10:05:19.999Z</time></trkpt><trkpt lat="44.89600994757017" lon="5.552087206357182"><ele>1228.0</ele><time>2026-04-28T10:05:21.999Z</time></trkpt><trkpt lat="44.895928832519004" lon="5.552017014892496"><ele>1228.0</ele><time>2026-04-28T10:05:23.999Z</time></trkpt><trkpt lat="44.895843256084724" lon="5.551961202249923"><ele>1228.0</ele><time>2026-04-28T10:05:25.999Z</time></trkpt><trkpt lat="44.89576860046999" lon="5.551888533793176"><ele>1228.0</ele><time>2026-04-28T10:05:27.999Z</time></trkpt><trkpt lat="44.895691566934296" lon="5.551831147536615"><ele>1228.6</ele><time>2026-04-28T10:05:29.999Z</time></trkpt><trkpt lat="44.89562325240357" lon="5.551765434082512"><ele>1229.1999999999998</ele><time>2026-04-28T10:05:31.999Z</time></trkpt><trkpt lat="44.895560816803176" lon="5.55168974251963"><ele>1229.8</ele><time>2026-04-28T10:05:33.999Z</time></trkpt><trkpt lat="44.89549498504493" lon="5.551598823068106"><ele>1230.3999999999999</ele><time>2026-04-28T10:05:35.999Z</time></trkpt><trkpt lat="44.89543824085786" lon="5.551508185895941"><ele>1231.0</ele><time>2026-04-28T10:05:37.999Z</time></trkpt><trkpt lat="44.89530411658464" lon="5.551346555046566"><ele>1231.0</ele><time>2026-04-28T10:05:41.999Z</time></trkpt><trkpt lat="44.895239435839926" lon="5.551271929460733"><ele>1231.0</ele><time>2026-04-28T10:05:43.999Z</time></trkpt><trkpt lat="44.895167920997764" lon="5.551201095711993"><ele>1231.0</ele><time>2026-04-28T10:05:45.999Z</time></trkpt><trkpt lat="44.89510538113035" lon="5.551121591762213"><ele>1231.0</ele><time>2026-04-28T10:05:47.999Z</time></trkpt><trkpt lat="44.89503492044547" lon="5.551057119851548"><ele>1231.0</ele><time>2026-04-28T10:05:49.999Z</time></trkpt><trkpt lat="44.89496272835305" lon="5.550992973095056"><ele>1231.0</ele><time>2026-04-28T10:05:51.999Z</time></trkpt><trkpt lat="44.894884721785765" lon="5.550941259458489"><ele>1232.2</ele><time>2026-04-28T10:05:53.999Z</time></trkpt><trkpt lat="44.89480257415983" lon="5.550908572032857"><ele>1233.3999999999999</ele><time>2026-04-28T10:05:55.999Z</time></trkpt><trkpt lat="44.894712949636876" lon="5.550897353017153"><ele>1234.6</ele><time>2026-04-28T10:05:57.999Z</time></trkpt><trkpt lat="44.89462187197936" lon="5.550879796975767"><ele>1235.8</ele><time>2026-04-28T10:05:59.999Z</time></trkpt><trkpt lat="44.894450152028" lon="5.550809930025597"><ele>1237.0</ele><time>2026-04-28T10:06:03.999Z</time></trkpt><trkpt lat="44.89439002251668" lon="5.55071980760011"><ele>1237.0</ele><time>2026-04-28T10:06:05.999Z</time></trkpt><trkpt lat="44.894354961466924" lon="5.550603908021695"><ele>1237.0</ele><time>2026-04-28T10:06:07.999Z</time></trkpt><trkpt lat="44.894326870077784" lon="5.550479234625304"><ele>1237.0</ele><time>2026-04-28T10:06:09.999Z</time></trkpt><trkpt lat="44.894293996555234" lon="5.550364524762995"><ele>1237.0</ele><time>2026-04-28T10:06:12Z</time></trkpt><trkpt lat="44.89425865673869" lon="5.550245524772724"><ele>1237.0</ele><time>2026-04-28T10:06:14Z</time></trkpt><trkpt lat="44.894229873473506" lon="5.550118796470083"><ele>1238.0</ele><time>2026-04-28T10:06:16Z</time></trkpt><trkpt lat="44.894188678692345" lon="5.550001058383725"><ele>1239.0</ele><time>2026-04-28T10:06:18Z</time></trkpt><trkpt lat="44.89413577382634" lon="5.549897791248709"><ele>1240.0</ele><time>2026-04-28T10:06:20Z</time></trkpt><trkpt lat="44.89408501183278" lon="5.549786868822343"><ele>1241.0</ele><time>2026-04-28T10:06:22Z</time></trkpt><trkpt lat="44.89395927646439" lon="5.549600874145651"><ele>1241.0</ele><time>2026-04-28T10:06:26Z</time></trkpt><trkpt lat="44.893898504333606" lon="5.549506919662149"><ele>1241.0</ele><time>2026-04-28T10:06:28Z</time></trkpt><trkpt lat="44.89384148343869" lon="5.549404258457122"><ele>1241.0</ele><time>2026-04-28T10:06:30Z</time></trkpt><trkpt lat="44.89378310168219" lon="5.549309527905139"><ele>1241.0</ele><time>2026-04-28T10:06:32Z</time></trkpt><trkpt lat="44.89371928451077" lon="5.549223052964238"><ele>1241.0</ele><time>2026-04-28T10:06:34Z</time></trkpt><trkpt lat="44.89365692217322" lon="5.54913764107216"><ele>1241.0</ele><time>2026-04-28T10:06:36Z</time></trkpt><trkpt lat="44.893595043775775" lon="5.549059115362871"><ele>1241.0</ele><time>2026-04-28T10:06:38Z</time></trkpt><trkpt lat="44.89352511143572" lon="5.549006155043107"><ele>1241.0</ele><time>2026-04-28T10:06:40Z</time></trkpt><trkpt lat="44.89346028141895" lon="5.548945925443425"><ele>1241.0</ele><time>2026-04-28T10:06:42Z</time></trkpt><trkpt lat="44.89338835935355" lon="5.548893951847296"><ele>1241.0</ele><time>2026-04-28T10:06:44Z</time></trkpt><trkpt lat="44.89325098002918" lon="5.5487503099113145"><ele>1241.0</ele><time>2026-04-28T10:06:48Z</time></trkpt><trkpt lat="44.893176222937136" lon="5.548680292411598"><ele>1242.3999999999999</ele><time>2026-04-28T10:06:50Z</time></trkpt><trkpt lat="44.893106346851376" lon="5.548596175114855"><ele>1243.8</ele><time>2026-04-28T10:06:52Z</time></trkpt><trkpt lat="44.89303433588215" lon="5.548517880446942"><ele>1245.1999999999998</ele><time>2026-04-28T10:06:54Z</time></trkpt><trkpt lat="44.89296107144995" lon="5.548440431473161"><ele>1246.6</ele><time>2026-04-28T10:06:56Z</time></trkpt><trkpt lat="44.892886744281554" lon="5.548368370869147"><ele>1248.0</ele><time>2026-04-28T10:06:58Z</time></trkpt><trkpt lat="44.89281904368394" lon="5.548290646810868"><ele>1248.0</ele><time>2026-04-28T10:07:00Z</time></trkpt><trkpt lat="44.892753108620525" lon="5.548225137159664"><ele>1248.0</ele><time>2026-04-28T10:07:02Z</time></trkpt><trkpt lat="44.89268622610143" lon="5.548174391906694"><ele>1248.0</ele><time>2026-04-28T10:07:04Z</time></trkpt><trkpt lat="44.8926301789284" lon="5.5481090697207875"><ele>1248.0</ele><time>2026-04-28T10:07:06Z</time></trkpt><trkpt lat="44.89251089411324" lon="5.547947500841267"><ele>1248.0</ele><time>2026-04-28T10:07:10Z</time></trkpt><trkpt lat="44.89244985275646" lon="5.547860278024832"><ele>1248.6666666666667</ele><time>2026-04-28T10:07:12Z</time></trkpt><trkpt lat="44.89237344261662" lon="5.54779639470272"><ele>1249.3333333333333</ele><time>2026-04-28T10:07:14Z</time></trkpt><trkpt lat="44.892312676939206" lon="5.547717593415347"><ele>1250.0</ele><time>2026-04-28T10:07:16Z</time></trkpt><trkpt lat="44.89225601963298" lon="5.547645555104999"><ele>1250.6666666666665</ele><time>2026-04-28T10:07:18Z</time></trkpt><trkpt lat="44.89219355677982" lon="5.5475951182859315"><ele>1251.3333333333333</ele><time>2026-04-28T10:07:20Z</time></trkpt><trkpt lat="44.89212434301084" lon="5.547510210231368"><ele>1252.0</ele><time>2026-04-28T10:07:23Z</time></trkpt><trkpt lat="44.89205790378044" lon="5.547466216114296"><ele>1252.0</ele><time>2026-04-28T10:07:25.999Z</time></trkpt><trkpt lat="44.89198571630949" lon="5.547441345207432"><ele>1252.0</ele><time>2026-04-28T10:07:29.999Z</time></trkpt><trkpt lat="44.89186255869001" lon="5.547461495161221"><ele>1252.0</ele><time>2026-04-28T10:07:44.999Z</time></trkpt><trkpt lat="44.891797496334185" lon="5.5475011722371805"><ele>1252.0</ele><time>2026-04-28T10:07:47.999Z</time></trkpt><trkpt lat="44.891718610220586" lon="5.547555878457376"><ele>1252.0</ele><time>2026-04-28T10:07:50.999Z</time></trkpt><trkpt lat="44.89159961618427" lon="5.547660273880272"><ele>1252.0</ele><time>2026-04-28T10:07:56.999Z</time></trkpt><trkpt lat="44.89159998147872" lon="5.5475686340674075"><ele>1252.0</ele><time>2026-04-28T10:08:02.999Z</time></trkpt><trkpt lat="44.89163116268201" lon="5.547453912536593"><ele>1252.0</ele><time>2026-04-28T10:08:07.999Z</time></trkpt><trkpt lat="44.89167034641571" lon="5.547352531092473"><ele>1252.0</ele><time>2026-04-28T10:08:10.999Z</time></trkpt><trkpt lat="44.89169630813688" lon="5.547259157497347"><ele>1252.0</ele><time>2026-04-28T10:08:13.999Z</time></trkpt><trkpt lat="44.891779045831264" lon="5.5472138222822585"><ele>1252.0</ele><time>2026-04-28T10:09:30.999Z</time></trkpt><trkpt lat="44.891835638474014" lon="5.547283355093975"><ele>1252.0</ele><time>2026-04-28T10:09:33.999Z</time></trkpt><trkpt lat="44.89187436267763" lon="5.547451382950177"><ele>1252.0</ele><time>2026-04-28T10:09:40.999Z</time></trkpt><trkpt lat="44.891780950536216" lon="5.547499759170029"><ele>1252.0</ele><time>2026-04-28T10:09:43.999Z</time></trkpt><trkpt lat="44.89170295187292" lon="5.547557418924228"><ele>1252.0</ele><time>2026-04-28T10:09:45.999Z</time></trkpt><trkpt lat="44.891649755327464" lon="5.547648834583642"><ele>1252.0</ele><time>2026-04-28T10:09:47.999Z</time></trkpt><trkpt lat="44.89162891080328" lon="5.54776888603609"><ele>1252.0</ele><time>2026-04-28T10:09:49.999Z</time></trkpt><trkpt lat="44.89165880409119" lon="5.547906084873299"><ele>1252.0</ele><time>2026-04-28T10:09:51.999Z</time></trkpt><trkpt lat="44.89173756583074" lon="5.5480037454579225"><ele>1252.0</ele><time>2026-04-28T10:09:53.999Z</time></trkpt><trkpt lat="44.891844596374796" lon="5.548067226080143"><ele>1252.0</ele><time>2026-04-28T10:09:55.999Z</time></trkpt><trkpt lat="44.892077994479045" lon="5.5481542927414464"><ele>1251.5</ele><time>2026-04-28T10:09:59.999Z</time></trkpt><trkpt lat="44.89217946129123" lon="5.548261138412028"><ele>1251.0</ele><time>2026-04-28T10:10:01.999Z</time></trkpt><trkpt lat="44.89222265746864" lon="5.548334694642796"><ele>1250.5</ele><time>2026-04-28T10:10:02.999Z</time></trkpt><trkpt lat="44.89226704955594" lon="5.548410516589625"><ele>1250.0</ele><time>2026-04-28T10:10:03.999Z</time></trkpt><trkpt lat="44.892317593546615" lon="5.548479735711794"><ele>1249.5</ele><time>2026-04-28T10:10:04.999Z</time></trkpt><trkpt lat="44.89237229135323" lon="5.548544372157188"><ele>1249.0</ele><time>2026-04-28T10:10:05.999Z</time></trkpt><trkpt lat="44.89242721615817" lon="5.548607853318755"><ele>1249.0</ele><time>2026-04-28T10:10:06.999Z</time></trkpt><trkpt lat="44.89248200693963" lon="5.548676067301303"><ele>1249.0</ele><time>2026-04-28T10:10:07.999Z</time></trkpt><trkpt lat="44.89253767336537" lon="5.548746121615007"><ele>1249.0</ele><time>2026-04-28T10:10:08.999Z</time></trkpt><trkpt lat="44.892592519667254" lon="5.548823318016174"><ele>1249.0</ele><time>2026-04-28T10:10:09.999Z</time></trkpt><trkpt lat="44.89264389887884" lon="5.548903423202844"><ele>1249.0</ele><time>2026-04-28T10:10:10.999Z</time></trkpt><trkpt lat="44.892699322148424" lon="5.548981495620653"><ele>1249.0</ele><time>2026-04-28T10:10:11.999Z</time></trkpt><trkpt lat="44.89275332508849" lon="5.549058984829155"><ele>1247.8</ele><time>2026-04-28T10:10:12.999Z</time></trkpt><trkpt lat="44.89281426002329" lon="5.549132450738854"><ele>1246.6000000000001</ele><time>2026-04-28T10:10:13.999Z</time></trkpt><trkpt lat="44.89286712562499" lon="5.549215980339254"><ele>1245.4</ele><time>2026-04-28T10:10:14.999Z</time></trkpt><trkpt lat="44.892914683896194" lon="5.549311118833567"><ele>1244.2</ele><time>2026-04-28T10:10:15.999Z</time></trkpt><trkpt lat="44.892967586492794" lon="5.549395661973587"><ele>1243.0</ele><time>2026-04-28T10:10:16.999Z</time></trkpt><trkpt lat="44.8930999613813" lon="5.549522423356836"><ele>1242.8333333333333</ele><time>2026-04-28T10:10:18.999Z</time></trkpt><trkpt lat="44.89315490398344" lon="5.549604667548081"><ele>1242.6666666666665</ele><time>2026-04-28T10:10:19.999Z</time></trkpt><trkpt lat="44.89322248105406" lon="5.549668636922204"><ele>1242.5</ele><time>2026-04-28T10:10:20.999Z</time></trkpt><trkpt lat="44.89329861020164" lon="5.549718856021484"><ele>1242.3333333333333</ele><time>2026-04-28T10:10:21.999Z</time></trkpt><trkpt lat="44.89337861978232" lon="5.549766936205344"><ele>1242.1666666666667</ele><time>2026-04-28T10:10:22.999Z</time></trkpt><trkpt lat="44.893456341956316" lon="5.549830530761559"><ele>1242.0</ele><time>2026-04-28T10:10:24Z</time></trkpt><trkpt lat="44.8935275913765" lon="5.549910260786135"><ele>1241.8</ele><time>2026-04-28T10:10:25Z</time></trkpt><trkpt lat="44.89359677138796" lon="5.549999610482379"><ele>1241.6</ele><time>2026-04-28T10:10:26Z</time></trkpt><trkpt lat="44.893660712980825" lon="5.550096320231385"><ele>1241.3999999999999</ele><time>2026-04-28T10:10:27Z</time></trkpt><trkpt lat="44.89372607398943" lon="5.550200399473224"><ele>1241.2</ele><time>2026-04-28T10:10:28Z</time></trkpt><trkpt lat="44.89378875433699" lon="5.5503074548622875"><ele>1241.0</ele><time>2026-04-28T10:10:29Z</time></trkpt><trkpt lat="44.89385373004231" lon="5.550416019881777"><ele>1240.8</ele><time>2026-04-28T10:10:30Z</time></trkpt><trkpt lat="44.89391203728549" lon="5.550530527966148"><ele>1240.6</ele><time>2026-04-28T10:10:31Z</time></trkpt><trkpt lat="44.893975369738456" lon="5.550642072691832"><ele>1240.4</ele><time>2026-04-28T10:10:32Z</time></trkpt><trkpt lat="44.89405138101129" lon="5.550731995078713"><ele>1240.2</ele><time>2026-04-28T10:10:33Z</time></trkpt><trkpt lat="44.89413543468501" lon="5.550805065849637"><ele>1240.0</ele><time>2026-04-28T10:10:34Z</time></trkpt><trkpt lat="44.89422582170104" lon="5.55086088201027"><ele>1239.25</ele><time>2026-04-28T10:10:35Z</time></trkpt><trkpt lat="44.89432240388322" lon="5.550893665445288"><ele>1238.5</ele><time>2026-04-28T10:10:36Z</time></trkpt><trkpt lat="44.894419101183765" lon="5.550902866429022"><ele>1237.75</ele><time>2026-04-28T10:10:37Z</time></trkpt><trkpt lat="44.89451950687312" lon="5.550910055153527"><ele>1237.0</ele><time>2026-04-28T10:10:38Z</time></trkpt><trkpt lat="44.89472059646774" lon="5.550939330582212"><ele>1237.0</ele><time>2026-04-28T10:10:40Z</time></trkpt><trkpt lat="44.89481940535104" lon="5.55096591077197"><ele>1237.0</ele><time>2026-04-28T10:10:41Z</time></trkpt><trkpt lat="44.89491947190697" lon="5.551005727894353"><ele>1237.0</ele><time>2026-04-28T10:10:42Z</time></trkpt><trkpt lat="44.89501716653848" lon="5.551069253410698"><ele>1237.0</ele><time>2026-04-28T10:10:43Z</time></trkpt><trkpt lat="44.89511131546382" lon="5.551147911830315"><ele>1237.0</ele><time>2026-04-28T10:10:44Z</time></trkpt><trkpt lat="44.895197069230925" lon="5.55123673875395"><ele>1235.8</ele><time>2026-04-28T10:10:45Z</time></trkpt><trkpt lat="44.895278638480114" lon="5.551340248191388"><ele>1234.6</ele><time>2026-04-28T10:10:46Z</time></trkpt><trkpt lat="44.89535954965432" lon="5.551443617491916"><ele>1233.3999999999999</ele><time>2026-04-28T10:10:47Z</time></trkpt><trkpt lat="44.89544780941762" lon="5.551544902440834"><ele>1232.2</ele><time>2026-04-28T10:10:48Z</time></trkpt><trkpt lat="44.8955342558442" lon="5.551648130884681"><ele>1231.0</ele><time>2026-04-28T10:10:49Z</time></trkpt><trkpt lat="44.89561850966577" lon="5.551753383630622"><ele>1231.0</ele><time>2026-04-28T10:10:50Z</time></trkpt><trkpt lat="44.89570666550954" lon="5.551853282369254"><ele>1231.0</ele><time>2026-04-28T10:10:51Z</time></trkpt><trkpt lat="44.89579992470843" lon="5.551938168256875"><ele>1231.0</ele><time>2026-04-28T10:10:52Z</time></trkpt><trkpt lat="44.895894361870226" lon="5.552019384928655"><ele>1231.0</ele><time>2026-04-28T10:10:53Z</time></trkpt><trkpt lat="44.895991087163644" lon="5.552093064560937"><ele>1231.0</ele><time>2026-04-28T10:10:54Z</time></trkpt><trkpt lat="44.896080812877095" lon="5.552164653420718"><ele>1230.3999999999999</ele><time>2026-04-28T10:10:55Z</time></trkpt><trkpt lat="44.8961837843543" lon="5.552245916968142"><ele>1229.8</ele><time>2026-04-28T10:10:56Z</time></trkpt><trkpt lat="44.89627079198187" lon="5.552338583323707"><ele>1229.1999999999998</ele><time>2026-04-28T10:10:57Z</time></trkpt><trkpt lat="44.896348539007235" lon="5.552450177682943"><ele>1228.6</ele><time>2026-04-28T10:10:58Z</time></trkpt><trkpt lat="44.89642634164653" lon="5.552562565080121"><ele>1228.0</ele><time>2026-04-28T10:10:59Z</time></trkpt><trkpt lat="44.89658630770925" lon="5.552763973171995"><ele>1228.0</ele><time>2026-04-28T10:11:01Z</time></trkpt><trkpt lat="44.89667901732051" lon="5.552842867275562"><ele>1228.0</ele><time>2026-04-28T10:11:02Z</time></trkpt><trkpt lat="44.89677638355475" lon="5.552917838690281"><ele>1228.0</ele><time>2026-04-28T10:11:03Z</time></trkpt><trkpt lat="44.89687237106824" lon="5.552990262857273"><ele>1228.0</ele><time>2026-04-28T10:11:04Z</time></trkpt><trkpt lat="44.896969021826244" lon="5.553048920693329"><ele>1228.0</ele><time>2026-04-28T10:11:05Z</time></trkpt><trkpt lat="44.897068751297795" lon="5.553105654366462"><ele>1227.6</ele><time>2026-04-28T10:11:06Z</time></trkpt><trkpt lat="44.89716074167589" lon="5.553178427068292"><ele>1227.1999999999998</ele><time>2026-04-28T10:11:07Z</time></trkpt><trkpt lat="44.89725164269412" lon="5.5532544569012545"><ele>1226.8</ele><time>2026-04-28T10:11:08Z</time></trkpt><trkpt lat="44.897342392564234" lon="5.553330154590853"><ele>1226.3999999999999</ele><time>2026-04-28T10:11:09Z</time></trkpt><trkpt lat="44.89742444170292" lon="5.553421981037463"><ele>1226.0</ele><time>2026-04-28T10:11:10Z</time></trkpt><trkpt lat="44.89750041472421" lon="5.553532137321711"><ele>1226.0</ele><time>2026-04-28T10:11:11Z</time></trkpt><trkpt lat="44.897562805702485" lon="5.553652168130075"><ele>1226.0</ele><time>2026-04-28T10:11:12Z</time></trkpt><trkpt lat="44.897619283959905" lon="5.553786709711217"><ele>1226.0</ele><time>2026-04-28T10:11:13Z</time></trkpt><trkpt lat="44.89766582693237" lon="5.553928927490328"><ele>1226.0</ele><time>2026-04-28T10:11:14Z</time></trkpt><trkpt lat="44.8977109397205" lon="5.554067206503419"><ele>1226.0</ele><time>2026-04-28T10:11:15Z</time></trkpt><trkpt lat="44.897756389963256" lon="5.554201131779651"><ele>1226.0</ele><time>2026-04-28T10:11:16Z</time></trkpt><trkpt lat="44.897821712079484" lon="5.554330621152572"><ele>1226.0</ele><time>2026-04-28T10:11:17Z</time></trkpt><trkpt lat="44.89789865283833" lon="5.5544491544191406"><ele>1226.0</ele><time>2026-04-28T10:11:18Z</time></trkpt><trkpt lat="44.89798294490687" lon="5.55454969902432"><ele>1226.0</ele><time>2026-04-28T10:11:19Z</time></trkpt><trkpt lat="44.898074984645774" lon="5.5546309530392834"><ele>1226.0</ele><time>2026-04-28T10:11:20Z</time></trkpt><trkpt lat="44.898264481696344" lon="5.554768415055925"><ele>1225.6</ele><time>2026-04-28T10:11:21.999Z</time></trkpt><trkpt lat="44.89835011522754" lon="5.554842984510597"><ele>1225.1999999999998</ele><time>2026-04-28T10:11:22.999Z</time></trkpt><trkpt lat="44.89842958218651" lon="5.55491617696107"><ele>1224.8000000000002</ele><time>2026-04-28T10:11:23.999Z</time></trkpt><trkpt lat="44.89850533508562" lon="5.554995468316314"><ele>1224.4</ele><time>2026-04-28T10:11:24.999Z</time></trkpt><trkpt lat="44.89857776491403" lon="5.555083239922482"><ele>1224.0</ele><time>2026-04-28T10:11:25.999Z</time></trkpt><trkpt lat="44.898648619789306" lon="5.5551799578882655"><ele>1224.0</ele><time>2026-04-28T10:11:26.999Z</time></trkpt><trkpt lat="44.89871023451054" lon="5.555290064815351"><ele>1224.0</ele><time>2026-04-28T10:11:27.999Z</time></trkpt><trkpt lat="44.89876824437431" lon="5.555414739786785"><ele>1224.0</ele><time>2026-04-28T10:11:28.999Z</time></trkpt><trkpt lat="44.898824985841244" lon="5.5555344003749685"><ele>1224.0</ele><time>2026-04-28T10:11:29.999Z</time></trkpt><trkpt lat="44.89888976834557" lon="5.555648373523866"><ele>1224.0</ele><time>2026-04-28T10:11:30.999Z</time></trkpt><trkpt lat="44.8989537896634" lon="5.555763974175938"><ele>1223.0</ele><time>2026-04-28T10:11:31.999Z</time></trkpt><trkpt lat="44.89901837247388" lon="5.555882496898383"><ele>1222.0</ele><time>2026-04-28T10:11:32.999Z</time></trkpt><trkpt lat="44.899091600800155" lon="5.55599043255109"><ele>1221.0</ele><time>2026-04-28T10:11:33.999Z</time></trkpt><trkpt lat="44.89916278650476" lon="5.556095281671156"><ele>1220.0</ele><time>2026-04-28T10:11:34.999Z</time></trkpt><trkpt lat="44.89923458912644" lon="5.556200316352725"><ele>1219.0</ele><time>2026-04-28T10:11:35.999Z</time></trkpt><trkpt lat="44.89930684681235" lon="5.556307991999341"><ele>1218.6000000000001</ele><time>2026-04-28T10:11:36.999Z</time></trkpt><trkpt lat="44.89938808753186" lon="5.556397215943915"><ele>1218.2</ele><time>2026-04-28T10:11:37.999Z</time></trkpt><trkpt lat="44.89947226826912" lon="5.556483789574435"><ele>1217.8000000000002</ele><time>2026-04-28T10:11:38.999Z</time></trkpt><trkpt lat="44.89955214736282" lon="5.556575551527132"><ele>1217.4</ele><time>2026-04-28T10:11:39.999Z</time></trkpt><trkpt lat="44.899628682616374" lon="5.556683136255432"><ele>1217.0</ele><time>2026-04-28T10:11:40.999Z</time></trkpt><trkpt lat="44.89978880622158" lon="5.556881471833858"><ele>1217.0</ele><time>2026-04-28T10:11:42.999Z</time></trkpt><trkpt lat="44.89985838178092" lon="5.556996598161194"><ele>1217.0</ele><time>2026-04-28T10:11:43.999Z</time></trkpt><trkpt lat="44.899922151136394" lon="5.557119530900248"><ele>1217.0</ele><time>2026-04-28T10:11:44.999Z</time></trkpt><trkpt lat="44.89998237119207" lon="5.557242885737486"><ele>1217.0</ele><time>2026-04-28T10:11:45.999Z</time></trkpt><trkpt lat="44.900043999773395" lon="5.557360738330096"><ele>1217.0</ele><time>2026-04-28T10:11:46.999Z</time></trkpt><trkpt lat="44.900110362433416" lon="5.55747406105674"><ele>1216.8333333333335</ele><time>2026-04-28T10:11:47.999Z</time></trkpt><trkpt lat="44.90017914656754" lon="5.557583839006209"><ele>1216.6666666666667</ele><time>2026-04-28T10:11:48.999Z</time></trkpt><trkpt lat="44.90024385316932" lon="5.557683931366163"><ele>1216.5</ele><time>2026-04-28T10:11:49.999Z</time></trkpt><trkpt lat="44.90029752407427" lon="5.557774635044172"><ele>1216.3333333333333</ele><time>2026-04-28T10:11:50.999Z</time></trkpt><trkpt lat="44.900343194723625" lon="5.557852492231075"><ele>1216.1666666666665</ele><time>2026-04-28T10:11:51.999Z</time></trkpt><trkpt lat="44.900406496694266" lon="5.5578915857777185"><ele>1216.0</ele><time>2026-04-28T10:11:53.999Z</time></trkpt><trkpt lat="44.90045791841446" lon="5.55781701368361"><ele>1216.0</ele><time>2026-04-28T10:11:55.999Z</time></trkpt><trkpt lat="44.90045230510801" lon="5.557702577654554"><ele>1216.0</ele><time>2026-04-28T10:11:57.999Z</time></trkpt><trkpt lat="44.90041927240633" lon="5.557590522703284"><ele>1216.0</ele><time>2026-04-28T10:12:00.999Z</time></trkpt><trkpt lat="44.900399021524414" lon="5.557464181547271"><ele>1216.0</ele><time>2026-04-28T10:12:03.999Z</time></trkpt><trkpt lat="44.90033407992265" lon="5.557222566311729"><ele>1216.0</ele><time>2026-04-28T10:12:09.999Z</time></trkpt><trkpt lat="44.90029845863721" lon="5.5571062708655665"><ele>1218.3999999999999</ele><time>2026-04-28T10:12:13.999Z</time></trkpt><trkpt lat="44.900272208965774" lon="5.556994345235655"><ele>1220.8</ele><time>2026-04-28T10:12:16.999Z</time></trkpt><trkpt lat="44.90023899158119" lon="5.556892611488269"><ele>1223.1999999999998</ele><time>2026-04-28T10:12:19.999Z</time></trkpt><trkpt lat="44.90020079042134" lon="5.556817850176232"><ele>1225.6</ele><time>2026-04-28T10:12:21.999Z</time></trkpt><trkpt lat="44.90016781723059" lon="5.556707834637791"><ele>1228.0</ele><time>2026-04-28T10:12:24.999Z</time></trkpt><trkpt lat="44.9001065358169" lon="5.556534843842632"><ele>1227.8333333333333</ele><time>2026-04-28T10:12:31Z</time></trkpt><trkpt lat="44.900070755970305" lon="5.556455718536736"><ele>1227.6666666666665</ele><time>2026-04-28T10:12:34Z</time></trkpt><trkpt lat="44.900044646431134" lon="5.55637075054514"><ele>1227.5</ele><time>2026-04-28T10:12:37Z</time></trkpt><trkpt lat="44.900009609519294" lon="5.55628609888158"><ele>1227.3333333333333</ele><time>2026-04-28T10:12:40Z</time></trkpt><trkpt lat="44.89996867104716" lon="5.5561884508112716"><ele>1227.1666666666667</ele><time>2026-04-28T10:12:43Z</time></trkpt><trkpt lat="44.89993372839541" lon="5.556087847124236"><ele>1227.0</ele><time>2026-04-28T10:12:46Z</time></trkpt><trkpt lat="44.899863321745975" lon="5.555924014122563"><ele>1227.0</ele><time>2026-04-28T10:12:52Z</time></trkpt><trkpt lat="44.89982503852446" lon="5.5558311868517904"><ele>1227.0</ele><time>2026-04-28T10:12:55Z</time></trkpt><trkpt lat="44.899779209884855" lon="5.555735993929773"><ele>1227.0</ele><time>2026-04-28T10:12:58Z</time></trkpt><trkpt lat="44.89974220613908" lon="5.555642370716761"><ele>1227.0</ele><time>2026-04-28T10:13:01Z</time></trkpt><trkpt lat="44.899701978526636" lon="5.555548024383077"><ele>1227.0</ele><time>2026-04-28T10:13:04Z</time></trkpt><trkpt lat="44.89966344619836" lon="5.555463041186028"><ele>1227.0</ele><time>2026-04-28T10:13:07Z</time></trkpt><trkpt lat="44.899578133748804" lon="5.555306262435762"><ele>1226.5</ele><time>2026-04-28T10:13:13Z</time></trkpt><trkpt lat="44.89951696523758" lon="5.555214604901499"><ele>1226.0</ele><time>2026-04-28T10:13:16Z</time></trkpt><trkpt lat="44.89947285674161" lon="5.555132466560648"><ele>1225.5</ele><time>2026-04-28T10:13:19Z</time></trkpt><trkpt lat="44.899428248093045" lon="5.555035901136343"><ele>1225.0</ele><time>2026-04-28T10:13:22Z</time></trkpt><trkpt lat="44.89938718303077" lon="5.554949537930736"><ele>1224.5</ele><time>2026-04-28T10:13:25Z</time></trkpt><trkpt lat="44.89934112416489" lon="5.554868428915017"><ele>1224.0</ele><time>2026-04-28T10:13:28Z</time></trkpt><trkpt lat="44.89922064542304" lon="5.554751467348601"><ele>1224.0</ele><time>2026-04-28T10:13:33.999Z</time></trkpt><trkpt lat="44.8991748210436" lon="5.5546573867924165"><ele>1224.0</ele><time>2026-04-28T10:13:36.999Z</time></trkpt><trkpt lat="44.899119252751404" lon="5.554588342737876"><ele>1224.0</ele><time>2026-04-28T10:13:41.999Z</time></trkpt><trkpt lat="44.89915193964378" lon="5.554496273406297"><ele>1224.0</ele><time>2026-04-28T10:27:49Z</time></trkpt><trkpt lat="44.89907683305379" lon="5.554338921631049"><ele>1224.0</ele><time>2026-04-28T10:28:02Z</time></trkpt><trkpt lat="44.8990418203596" lon="5.554257072513509"><ele>1224.0</ele><time>2026-04-28T10:33:44Z</time></trkpt><trkpt lat="44.899071599197526" lon="5.5541537169393"><ele>1226.6666666666667</ele><time>2026-04-28T10:34:03Z</time></trkpt><trkpt lat="44.899040780437545" lon="5.554137664685192"><ele>1229.3333333333335</ele><time>2026-04-28T10:34:38.999Z</time></trkpt><trkpt lat="44.89887690179322" lon="5.554438188050984"><ele>1232.0</ele><time>2026-04-28T10:38:35Z</time></trkpt><trkpt lat="44.89903295825723" lon="5.554202269398234"><ele>1232.0</ele><time>2026-04-28T12:02:33.998Z</time></trkpt><trkpt lat="44.899135770299736" lon="5.554309782138193"><ele>1232.0</ele><time>2026-04-28T12:04:47Z</time></trkpt><trkpt lat="44.89914435502447" lon="5.554508075693366"><ele>1232.0</ele><time>2026-04-28T12:05:13.001Z</time></trkpt><trkpt lat="44.89917344864236" lon="5.554597925432109"><ele>1232.0</ele><time>2026-04-28T12:05:18.001Z</time></trkpt><trkpt lat="44.89924912947415" lon="5.554754067604494"><ele>1233.2</ele><time>2026-04-28T12:05:29.001Z</time></trkpt><trkpt lat="44.899312866024665" lon="5.554802388743433"><ele>1234.4</ele><time>2026-04-28T12:05:34.001Z</time></trkpt><trkpt lat="44.89938437039896" lon="5.554830849656221"><ele>1235.6</ele><time>2026-04-28T12:05:39.001Z</time></trkpt><trkpt lat="44.89948161828638" lon="5.554956879405532"><ele>1236.8</ele><time>2026-04-28T12:05:44.001Z</time></trkpt><trkpt lat="44.89953019528126" lon="5.5550525185351365"><ele>1238.0</ele><time>2026-04-28T12:05:46.001Z</time></trkpt><trkpt lat="44.89959994380862" lon="5.555144822325805"><ele>1238.0</ele><time>2026-04-28T12:05:48.001Z</time></trkpt><trkpt lat="44.899611390608236" lon="5.555249139692983"><ele>1238.0</ele><time>2026-04-28T12:05:49.001Z</time></trkpt><trkpt lat="44.899642205417244" lon="5.555328734120185"><ele>1238.0</ele><time>2026-04-28T12:05:50.001Z</time></trkpt><trkpt lat="44.89968714711409" lon="5.555400377134819"><ele>1238.0</ele><time>2026-04-28T12:05:51.001Z</time></trkpt><trkpt lat="44.89971275108427" lon="5.555489729341616"><ele>1238.0</ele><time>2026-04-28T12:05:52.001Z</time></trkpt><trkpt lat="44.89970677476002" lon="5.555630671491555"><ele>1238.0</ele><time>2026-04-28T12:05:53.001Z</time></trkpt><trkpt lat="44.899748701002515" lon="5.5557311179927575"><ele>1236.1666666666667</ele><time>2026-04-28T12:05:54.001Z</time></trkpt><trkpt lat="44.899791603830856" lon="5.555833904187158"><ele>1234.3333333333335</ele><time>2026-04-28T12:05:55.001Z</time></trkpt><trkpt lat="44.899835055884566" lon="5.555938006211985"><ele>1232.5</ele><time>2026-04-28T12:05:56.001Z</time></trkpt><trkpt lat="44.8998786345654" lon="5.55604293334339"><ele>1230.6666666666667</ele><time>2026-04-28T12:05:57.001Z</time></trkpt><trkpt lat="44.89992554656529" lon="5.55615669135023"><ele>1228.8333333333333</ele><time>2026-04-28T12:05:58.001Z</time></trkpt><trkpt lat="44.899970949207386" lon="5.556266789311404"><ele>1227.0</ele><time>2026-04-28T12:05:59.001Z</time></trkpt><trkpt lat="44.90003287538568" lon="5.55637056098424"><ele>1227.25</ele><time>2026-04-28T12:06:00.001Z</time></trkpt><trkpt lat="44.90011470527305" lon="5.556621657883848"><ele>1227.5</ele><time>2026-04-28T12:06:02.001Z</time></trkpt><trkpt lat="44.900176316954976" lon="5.556744265932086"><ele>1227.75</ele><time>2026-04-28T12:06:03.001Z</time></trkpt><trkpt lat="44.90020874832393" lon="5.5568947719809305"><ele>1228.0</ele><time>2026-04-28T12:06:04.001Z</time></trkpt><trkpt lat="44.900249241598075" lon="5.5570394536816705"><ele>1225.6</ele><time>2026-04-28T12:06:05.001Z</time></trkpt><trkpt lat="44.900291583316864" lon="5.557192727936294"><ele>1223.1999999999998</ele><time>2026-04-28T12:06:06.001Z</time></trkpt><trkpt lat="44.900337543086266" lon="5.557331939413289"><ele>1220.8</ele><time>2026-04-28T12:06:07.001Z</time></trkpt><trkpt lat="44.90035603120683" lon="5.557473054091317"><ele>1218.3999999999999</ele><time>2026-04-28T12:06:08.001Z</time></trkpt><trkpt lat="44.90038810485413" lon="5.557572014103302"><ele>1216.0</ele><time>2026-04-28T12:06:09.001Z</time></trkpt><trkpt lat="44.90038129913014" lon="5.557743063870325"><ele>1215.142857142857</ele><time>2026-04-28T12:06:11.001Z</time></trkpt><trkpt lat="44.900348528953714" lon="5.557894849052535"><ele>1214.2857142857144</ele><time>2026-04-28T12:06:13.001Z</time></trkpt><trkpt lat="44.90040095411891" lon="5.557961816699187"><ele>1213.4285714285716</ele><time>2026-04-28T12:06:14.001Z</time></trkpt><trkpt lat="44.900422803603306" lon="5.55804736275263"><ele>1212.5714285714284</ele><time>2026-04-28T12:06:15.001Z</time></trkpt><trkpt lat="44.90047209061484" lon="5.558111107921588"><ele>1211.7142857142858</ele><time>2026-04-28T12:06:16.001Z</time></trkpt><trkpt lat="44.90049214714799" lon="5.558198194901143"><ele>1210.857142857143</ele><time>2026-04-28T12:06:17.001Z</time></trkpt><trkpt lat="44.90051865451588" lon="5.558283975695616"><ele>1210.0</ele><time>2026-04-28T12:06:18.001Z</time></trkpt><trkpt lat="44.90055051916315" lon="5.55837351744318"><ele>1210.0</ele><time>2026-04-28T12:06:19.001Z</time></trkpt><trkpt lat="44.90057200672972" lon="5.558468222162286"><ele>1210.0</ele><time>2026-04-28T12:06:20.001Z</time></trkpt><trkpt lat="44.9006035137444" lon="5.558562052632701"><ele>1210.0</ele><time>2026-04-28T12:06:21.001Z</time></trkpt><trkpt lat="44.900668822729365" lon="5.558756182738991"><ele>1210.0</ele><time>2026-04-28T12:06:23.001Z</time></trkpt><trkpt lat="44.90068793072655" lon="5.558866989360919"><ele>1210.0</ele><time>2026-04-28T12:06:24.001Z</time></trkpt><trkpt lat="44.90071859541176" lon="5.558969816690624"><ele>1210.5</ele><time>2026-04-28T12:06:25.001Z</time></trkpt><trkpt lat="44.90074997571452" lon="5.559075043697506"><ele>1211.0</ele><time>2026-04-28T12:06:26.001Z</time></trkpt><trkpt lat="44.90079687606669" lon="5.5591717410240875"><ele>1211.5</ele><time>2026-04-28T12:06:27.001Z</time></trkpt><trkpt lat="44.900828605568506" lon="5.559279335705646"><ele>1212.0</ele><time>2026-04-28T12:06:28.001Z</time></trkpt><trkpt lat="44.90086238484111" lon="5.559384570588743"><ele>1212.5</ele><time>2026-04-28T12:06:29.001Z</time></trkpt><trkpt lat="44.900898522675334" lon="5.559498143947531"><ele>1213.0</ele><time>2026-04-28T12:06:30.001Z</time></trkpt><trkpt lat="44.90093479104756" lon="5.559609763057135"><ele>1213.0</ele><time>2026-04-28T12:06:31.001Z</time></trkpt><trkpt lat="44.90096658353817" lon="5.559733137155662"><ele>1213.0</ele><time>2026-04-28T12:06:32.001Z</time></trkpt><trkpt lat="44.90100353845506" lon="5.559850282922191"><ele>1213.0</ele><time>2026-04-28T12:06:33.001Z</time></trkpt><trkpt lat="44.901044122662796" lon="5.55996678398995"><ele>1213.0</ele><time>2026-04-28T12:06:34.001Z</time></trkpt><trkpt lat="44.901083147464426" lon="5.5600890759427335"><ele>1213.0</ele><time>2026-04-28T12:06:35.001Z</time></trkpt><trkpt lat="44.90112008584857" lon="5.560215907430266"><ele>1213.0</ele><time>2026-04-28T12:06:36.001Z</time></trkpt><trkpt lat="44.901159173387605" lon="5.560340929057245"><ele>1213.0</ele><time>2026-04-28T12:06:37.001Z</time></trkpt><trkpt lat="44.90120096485431" lon="5.560466999739161"><ele>1213.0</ele><time>2026-04-28T12:06:38.001Z</time></trkpt><trkpt lat="44.90124327145729" lon="5.560593894436671"><ele>1213.0</ele><time>2026-04-28T12:06:39.001Z</time></trkpt><trkpt lat="44.90128897728648" lon="5.560723513362494"><ele>1213.0</ele><time>2026-04-28T12:06:40.001Z</time></trkpt><trkpt lat="44.90131963276267" lon="5.5608645552557325"><ele>1212.5</ele><time>2026-04-28T12:06:41.001Z</time></trkpt><trkpt lat="44.90136075618019" lon="5.561001970112842"><ele>1212.0</ele><time>2026-04-28T12:06:42.001Z</time></trkpt><trkpt lat="44.90144558696258" lon="5.561276158084814"><ele>1211.5</ele><time>2026-04-28T12:06:44.001Z</time></trkpt><trkpt lat="44.90147120493979" lon="5.561424705711923"><ele>1211.0</ele><time>2026-04-28T12:06:45.001Z</time></trkpt><trkpt lat="44.90149469620944" lon="5.561575123002465"><ele>1210.0</ele><time>2026-04-28T12:06:46.001Z</time></trkpt><trkpt lat="44.90152479417442" lon="5.561725500841449"><ele>1209.0</ele><time>2026-04-28T12:06:47.001Z</time></trkpt><trkpt lat="44.90155230548602" lon="5.561875177936349"><ele>1208.0</ele><time>2026-04-28T12:06:48.001Z</time></trkpt><trkpt lat="44.90156888867631" lon="5.562025500966257"><ele>1207.0</ele><time>2026-04-28T12:06:49.001Z</time></trkpt><trkpt lat="44.901580890835696" lon="5.562175854212137"><ele>1206.0</ele><time>2026-04-28T12:06:50.001Z</time></trkpt><trkpt lat="44.90158485962818" lon="5.562329911163873"><ele>1205.8</ele><time>2026-04-28T12:06:51.001Z</time></trkpt><trkpt lat="44.90158428486994" lon="5.562481273244593"><ele>1205.6</ele><time>2026-04-28T12:06:52.001Z</time></trkpt><trkpt lat="44.901576547178976" lon="5.5626336326264525"><ele>1205.4</ele><time>2026-04-28T12:06:53.001Z</time></trkpt><trkpt lat="44.90157648793724" lon="5.562777854337004"><ele>1205.2</ele><time>2026-04-28T12:06:54.001Z</time></trkpt><trkpt lat="44.90156246918038" lon="5.562932778111369"><ele>1205.0</ele><time>2026-04-28T12:06:55.001Z</time></trkpt><trkpt lat="44.90156156774648" lon="5.563087990475243"><ele>1204.0</ele><time>2026-04-28T12:06:56.001Z</time></trkpt><trkpt lat="44.90156416788942" lon="5.5632378124465545"><ele>1203.0</ele><time>2026-04-28T12:06:57.001Z</time></trkpt><trkpt lat="44.901570183279794" lon="5.563378917036245"><ele>1202.0</ele><time>2026-04-28T12:06:58.001Z</time></trkpt><trkpt lat="44.90159058192276" lon="5.563523531888174"><ele>1201.0</ele><time>2026-04-28T12:06:59.001Z</time></trkpt><trkpt lat="44.90160812975974" lon="5.563666573306583"><ele>1200.0</ele><time>2026-04-28T12:07:00.001Z</time></trkpt><trkpt lat="44.90161645849968" lon="5.563813994736685"><ele>1198.5</ele><time>2026-04-28T12:07:01.001Z</time></trkpt><trkpt lat="44.901623592067246" lon="5.563961243126399"><ele>1197.0</ele><time>2026-04-28T12:07:02.001Z</time></trkpt><trkpt lat="44.901639078116084" lon="5.564111433083084"><ele>1195.5</ele><time>2026-04-28T12:07:03.001Z</time></trkpt><trkpt lat="44.90167439090441" lon="5.564409933094899"><ele>1194.0</ele><time>2026-04-28T12:07:05.001Z</time></trkpt><trkpt lat="44.90169243452486" lon="5.564558558821484"><ele>1193.2</ele><time>2026-04-28T12:07:06.001Z</time></trkpt><trkpt lat="44.901686957752446" lon="5.564706530319327"><ele>1192.4</ele><time>2026-04-28T12:07:07.001Z</time></trkpt><trkpt lat="44.90168471660322" lon="5.564848033892596"><ele>1191.6</ele><time>2026-04-28T12:07:08.001Z</time></trkpt><trkpt lat="44.90167425959045" lon="5.564993476007128"><ele>1190.8</ele><time>2026-04-28T12:07:09.001Z</time></trkpt><trkpt lat="44.9016618583251" lon="5.565131857237533"><ele>1190.0</ele><time>2026-04-28T12:07:10.001Z</time></trkpt><trkpt lat="44.90161877470655" lon="5.56526041592273"><ele>1190.2</ele><time>2026-04-28T12:07:11.001Z</time></trkpt><trkpt lat="44.901614495784266" lon="5.565402318257293"><ele>1190.4</ele><time>2026-04-28T12:07:12.001Z</time></trkpt><trkpt lat="44.90161408670159" lon="5.565541898947266"><ele>1190.6</ele><time>2026-04-28T12:07:13.001Z</time></trkpt><trkpt lat="44.90164168921879" lon="5.56567474088242"><ele>1190.8</ele><time>2026-04-28T12:07:14.001Z</time></trkpt><trkpt lat="44.901696461299224" lon="5.5657921240159896"><ele>1191.0</ele><time>2026-04-28T12:07:15.001Z</time></trkpt><trkpt lat="44.90177356121051" lon="5.565873080426155"><ele>1191.0</ele><time>2026-04-28T12:07:16.001Z</time></trkpt><trkpt lat="44.901855950132585" lon="5.565931733188094"><ele>1191.0</ele><time>2026-04-28T12:07:17.001Z</time></trkpt><trkpt lat="44.901932673833755" lon="5.5659831452767055"><ele>1191.0</ele><time>2026-04-28T12:07:18.001Z</time></trkpt><trkpt lat="44.90199893902668" lon="5.566039975465531"><ele>1191.0</ele><time>2026-04-28T12:07:19.001Z</time></trkpt><trkpt lat="44.90205836974857" lon="5.56609230183167"><ele>1191.0</ele><time>2026-04-28T12:07:20.001Z</time></trkpt><trkpt lat="44.902116617416574" lon="5.56614018701742"><ele>1191.0</ele><time>2026-04-28T12:07:21.001Z</time></trkpt><trkpt lat="44.902168274549034" lon="5.56619689745872"><ele>1191.3999999999999</ele><time>2026-04-28T12:07:22.001Z</time></trkpt><trkpt lat="44.90221768640116" lon="5.566252566019986"><ele>1191.8</ele><time>2026-04-28T12:07:23.001Z</time></trkpt><trkpt lat="44.90229330660399" lon="5.56636384710801"><ele>1192.1999999999998</ele><time>2026-04-28T12:07:25.001Z</time></trkpt><trkpt lat="44.90230662284151" lon="5.566586760709667"><ele>1192.6</ele><time>2026-04-28T12:07:29.001Z</time></trkpt><trkpt lat="44.90226232454007" lon="5.566655382004445"><ele>1193.0</ele><time>2026-04-28T12:07:32.001Z</time></trkpt><trkpt lat="44.90213698345479" lon="5.56653592839073"><ele>1193.0</ele><time>2026-04-28T12:07:35.001Z</time></trkpt><trkpt lat="44.902057255704264" lon="5.566528339552783"><ele>1193.0</ele><time>2026-04-28T12:07:38.001Z</time></trkpt><trkpt lat="44.90197422600471" lon="5.5665433861475515"><ele>1193.0</ele><time>2026-04-28T12:07:41.001Z</time></trkpt><trkpt lat="44.90190039370783" lon="5.566555733212526"><ele>1193.0</ele><time>2026-04-28T12:07:44.001Z</time></trkpt><trkpt lat="44.90181990751454" lon="5.566588062633538"><ele>1193.0</ele><time>2026-04-28T12:07:48.001Z</time></trkpt><trkpt lat="44.901672316153366" lon="5.566536697927077"><ele>1194.6666666666667</ele><time>2026-04-28T12:07:54.001Z</time></trkpt><trkpt lat="44.90158807024117" lon="5.566501981505332"><ele>1196.3333333333335</ele><time>2026-04-28T12:07:57.001Z</time></trkpt><trkpt lat="44.90150052073722" lon="5.566455272801639"><ele>1198.0</ele><time>2026-04-28T12:08:00.001Z</time></trkpt><trkpt lat="44.90143466416313" lon="5.566428490935231"><ele>1199.6666666666667</ele><time>2026-04-28T12:08:02.001Z</time></trkpt><trkpt lat="44.90134370836941" lon="5.566395467876876"><ele>1201.3333333333333</ele><time>2026-04-28T12:08:05.001Z</time></trkpt><trkpt lat="44.901279122888596" lon="5.566389475473101"><ele>1203.0</ele><time>2026-04-28T12:08:07.001Z</time></trkpt><trkpt lat="44.901193542724826" lon="5.566383189490653"><ele>1203.0</ele><time>2026-04-28T12:08:10.001Z</time></trkpt><trkpt lat="44.901047609256395" lon="5.566368418782023"><ele>1203.0</ele><time>2026-04-28T12:08:15.002Z</time></trkpt><trkpt lat="44.900978486928565" lon="5.5664131918438935"><ele>1203.0</ele><time>2026-04-28T12:08:17.002Z</time></trkpt><trkpt lat="44.90090740071911" lon="5.566457101898871"><ele>1203.0</ele><time>2026-04-28T12:08:19.002Z</time></trkpt><trkpt lat="44.90082327633941" lon="5.566467296136477"><ele>1203.0</ele><time>2026-04-28T12:08:22.001Z</time></trkpt><trkpt lat="44.90073890141207" lon="5.566449072138252"><ele>1204.2</ele><time>2026-04-28T12:08:25.001Z</time></trkpt><trkpt lat="44.900661358498176" lon="5.566426081399714"><ele>1205.4</ele><time>2026-04-28T12:08:28.001Z</time></trkpt><trkpt lat="44.90057300885672" lon="5.5664190354242695"><ele>1206.6000000000001</ele><time>2026-04-28T12:08:31.001Z</time></trkpt><trkpt lat="44.900418134880084" lon="5.566417426390676"><ele>1207.8</ele><time>2026-04-28T12:08:37.001Z</time></trkpt><trkpt lat="44.90033525494369" lon="5.5664270651146"><ele>1209.0</ele><time>2026-04-28T12:08:40.001Z</time></trkpt><trkpt lat="44.90026986106005" lon="5.566432061779788"><ele>1209.0</ele><time>2026-04-28T12:08:43.001Z</time></trkpt><trkpt lat="44.90020159703392" lon="5.566446855385175"><ele>1209.0</ele><time>2026-04-28T12:08:46.001Z</time></trkpt><trkpt lat="44.900161140177524" lon="5.566518971290258"><ele>1209.0</ele><time>2026-04-28T12:08:49.001Z</time></trkpt><trkpt lat="44.900081891527236" lon="5.566619050587377"><ele>1209.0</ele><time>2026-04-28T12:08:52.001Z</time></trkpt><trkpt lat="44.90002992587035" lon="5.566799697118398"><ele>1209.0</ele><time>2026-04-28T12:08:59.001Z</time></trkpt><trkpt lat="44.8999875732049" lon="5.566893512757721"><ele>1210.5</ele><time>2026-04-28T12:09:03.001Z</time></trkpt><trkpt lat="44.89993580221915" lon="5.566950525773099"><ele>1212.0</ele><time>2026-04-28T12:09:06.001Z</time></trkpt><trkpt lat="44.89985925396668" lon="5.567002821357486"><ele>1213.5</ele><time>2026-04-28T12:09:10.001Z</time></trkpt><trkpt lat="44.89979152868654" lon="5.566994582902349"><ele>1215.0</ele><time>2026-04-28T12:09:14.001Z</time></trkpt><trkpt lat="44.89965220169516" lon="5.5669711057165046"><ele>1216.5</ele><time>2026-04-28T12:09:20.001Z</time></trkpt><trkpt lat="44.89958829061228" lon="5.566948379619478"><ele>1218.0</ele><time>2026-04-28T12:09:23.001Z</time></trkpt><trkpt lat="44.89952286654028" lon="5.566938114565245"><ele>1218.0</ele><time>2026-04-28T12:09:26.001Z</time></trkpt><trkpt lat="44.89945927033528" lon="5.566929627555742"><ele>1218.0</ele><time>2026-04-28T12:09:29Z</time></trkpt><trkpt lat="44.8993894051813" lon="5.566913403705"><ele>1218.0</ele><time>2026-04-28T12:09:32Z</time></trkpt><trkpt lat="44.89932101259555" lon="5.5669056131509285"><ele>1218.0</ele><time>2026-04-28T12:09:35Z</time></trkpt><trkpt lat="44.89916026995466" lon="5.566887010659371"><ele>1218.0</ele><time>2026-04-28T12:09:42Z</time></trkpt><trkpt lat="44.8990888970117" lon="5.5668855821348995"><ele>1218.0</ele><time>2026-04-28T12:09:45Z</time></trkpt><trkpt lat="44.89901872316736" lon="5.566871310739403"><ele>1219.6666666666667</ele><time>2026-04-28T12:09:48Z</time></trkpt><trkpt lat="44.89895291299597" lon="5.566868146332056"><ele>1221.3333333333333</ele><time>2026-04-28T12:09:51Z</time></trkpt><trkpt lat="44.89888375542213" lon="5.566862975545451"><ele>1223.0</ele><time>2026-04-28T12:09:54Z</time></trkpt><trkpt lat="44.8988197593432" lon="5.566865745150299"><ele>1224.6666666666665</ele><time>2026-04-28T12:09:57Z</time></trkpt><trkpt lat="44.89866726808866" lon="5.56688623098271"><ele>1226.3333333333333</ele><time>2026-04-28T12:10:04Z</time></trkpt><trkpt lat="44.89860074895169" lon="5.566895681921221"><ele>1228.0</ele><time>2026-04-28T12:10:07Z</time></trkpt><trkpt lat="44.89853340199035" lon="5.566892984833332"><ele>1228.0</ele><time>2026-04-28T12:10:10Z</time></trkpt><trkpt lat="44.89845054294216" lon="5.566885022677785"><ele>1228.0</ele><time>2026-04-28T12:10:14Z</time></trkpt><trkpt lat="44.89836855151296" lon="5.566907336819251"><ele>1228.0</ele><time>2026-04-28T12:10:18.002Z</time></trkpt><trkpt lat="44.8982321071034" lon="5.566909948426724"><ele>1228.0</ele><time>2026-04-28T12:10:24.001Z</time></trkpt><trkpt lat="44.89816446203443" lon="5.566916325923312"><ele>1228.0</ele><time>2026-04-28T12:10:27.001Z</time></trkpt><trkpt lat="44.898097636678976" lon="5.5669189939985175"><ele>1228.0</ele><time>2026-04-28T12:10:30.001Z</time></trkpt><trkpt lat="44.89803387774728" lon="5.566922470080029"><ele>1229.0</ele><time>2026-04-28T12:10:33.001Z</time></trkpt><trkpt lat="44.89795845415864" lon="5.566916861083027"><ele>1230.0</ele><time>2026-04-28T12:10:37.001Z</time></trkpt><trkpt lat="44.89789063079538" lon="5.566923313741437"><ele>1231.0</ele><time>2026-04-28T12:10:40.001Z</time></trkpt><trkpt lat="44.8977621005243" lon="5.566936068513516"><ele>1232.0</ele><time>2026-04-28T12:10:46.001Z</time></trkpt><trkpt lat="44.89769614830044" lon="5.566928721776776"><ele>1233.0</ele><time>2026-04-28T12:10:49.001Z</time></trkpt><trkpt lat="44.89762649558321" lon="5.566934708149837"><ele>1234.0</ele><time>2026-04-28T12:10:52.001Z</time></trkpt><trkpt lat="44.89756294652877" lon="5.566964071830782"><ele>1235.8</ele><time>2026-04-28T12:10:55.001Z</time></trkpt><trkpt lat="44.89749792740566" lon="5.566969731039211"><ele>1237.6000000000001</ele><time>2026-04-28T12:10:58Z</time></trkpt><trkpt lat="44.89743261735514" lon="5.566968324850719"><ele>1239.4</ele><time>2026-04-28T12:11:01Z</time></trkpt><trkpt lat="44.89726964078037" lon="5.566973663700389"><ele>1241.2</ele><time>2026-04-28T12:11:09Z</time></trkpt><trkpt lat="44.8971859704758" lon="5.566976182861971"><ele>1243.0</ele><time>2026-04-28T12:11:13Z</time></trkpt><trkpt lat="44.8971130822538" lon="5.566970034139186"><ele>1243.0</ele><time>2026-04-28T12:11:16Z</time></trkpt><trkpt lat="44.897044957493875" lon="5.566963657294504"><ele>1243.0</ele><time>2026-04-28T12:11:19Z</time></trkpt><trkpt lat="44.89697806995621" lon="5.566944515124948"><ele>1243.0</ele><time>2026-04-28T12:11:22Z</time></trkpt><trkpt lat="44.89684170945742" lon="5.566922520092715"><ele>1243.0</ele><time>2026-04-28T12:11:28Z</time></trkpt><trkpt lat="44.89676613190045" lon="5.566892987123438"><ele>1243.0</ele><time>2026-04-28T12:11:31Z</time></trkpt><trkpt lat="44.896695172022206" lon="5.5668687199210805"><ele>1243.0</ele><time>2026-04-28T12:11:34Z</time></trkpt><trkpt lat="44.89662276400145" lon="5.566855472687409"><ele>1245.1666666666665</ele><time>2026-04-28T12:11:37Z</time></trkpt><trkpt lat="44.89655120266768" lon="5.566815729569539"><ele>1247.3333333333333</ele><time>2026-04-28T12:11:40Z</time></trkpt><trkpt lat="44.896492038812276" lon="5.5667716446762805"><ele>1249.5</ele><time>2026-04-28T12:11:43Z</time></trkpt><trkpt lat="44.89634932750418" lon="5.566673400841281"><ele>1251.6666666666667</ele><time>2026-04-28T12:11:49Z</time></trkpt><trkpt lat="44.896311490618196" lon="5.566597108664187"><ele>1253.8333333333335</ele><time>2026-04-28T12:11:52Z</time></trkpt><trkpt lat="44.896255179397265" lon="5.5665330346913375"><ele>1256.0</ele><time>2026-04-28T12:11:55Z</time></trkpt><trkpt lat="44.896188394722124" lon="5.566474925789797"><ele>1256.0</ele><time>2026-04-28T12:11:58Z</time></trkpt><trkpt lat="44.89611787503752" lon="5.566436221166761"><ele>1256.0</ele><time>2026-04-28T12:12:01Z</time></trkpt><trkpt lat="44.89603593802073" lon="5.566471941449372"><ele>1256.0</ele><time>2026-04-28T12:12:04Z</time></trkpt><trkpt lat="44.896012630765696" lon="5.5666723111482455"><ele>1256.0</ele><time>2026-04-28T12:12:09Z</time></trkpt><trkpt lat="44.89606956538961" lon="5.566732224121821"><ele>1256.0</ele><time>2026-04-28T12:12:12Z</time></trkpt><trkpt lat="44.89611740207372" lon="5.566805831763913"><ele>1256.0</ele><time>2026-04-28T12:12:14Z</time></trkpt><trkpt lat="44.896168602634056" lon="5.566867359909538"><ele>1256.0</ele><time>2026-04-28T12:12:16Z</time></trkpt><trkpt lat="44.89622406344338" lon="5.566940283212946"><ele>1256.0</ele><time>2026-04-28T12:12:19Z</time></trkpt><trkpt lat="44.896275409275674" lon="5.567017987921953"><ele>1256.0</ele><time>2026-04-28T12:12:22Z</time></trkpt><trkpt lat="44.89633402686304" lon="5.567062250225206"><ele>1256.0</ele><time>2026-04-28T12:12:24.001Z</time></trkpt><trkpt lat="44.89638145126978" lon="5.567177306262706"><ele>1256.0</ele><time>2026-04-28T12:12:27.001Z</time></trkpt><trkpt lat="44.896488006300274" lon="5.567319171247592"><ele>1257.0</ele><time>2026-04-28T12:12:33.001Z</time></trkpt><trkpt lat="44.896533239169344" lon="5.567394104867673"><ele>1258.0</ele><time>2026-04-28T12:12:36.001Z</time></trkpt><trkpt lat="44.896569050052655" lon="5.567481125390909"><ele>1259.0</ele><time>2026-04-28T12:12:39.001Z</time></trkpt><trkpt lat="44.896586878186085" lon="5.567579131179795"><ele>1260.0</ele><time>2026-04-28T12:12:42.001Z</time></trkpt><trkpt lat="44.89660842146742" lon="5.567678963426276"><ele>1261.0</ele><time>2026-04-28T12:12:45.001Z</time></trkpt><trkpt lat="44.89659827934928" lon="5.567775299467016"><ele>1262.0</ele><time>2026-04-28T12:12:48Z</time></trkpt><trkpt lat="44.89646465523974" lon="5.567904010200971"><ele>1262.1666666666667</ele><time>2026-04-28T12:12:54Z</time></trkpt><trkpt lat="44.896400789147954" lon="5.567962271511213"><ele>1262.3333333333335</ele><time>2026-04-28T12:12:57Z</time></trkpt><trkpt lat="44.8963398946106" lon="5.568020202926492"><ele>1262.5</ele><time>2026-04-28T12:13:00Z</time></trkpt><trkpt lat="44.89627485737867" lon="5.5680592178008546"><ele>1262.6666666666667</ele><time>2026-04-28T12:13:03Z</time></trkpt><trkpt lat="44.896215415869115" lon="5.5681355298656"><ele>1262.8333333333333</ele><time>2026-04-28T12:13:07Z</time></trkpt><trkpt lat="44.89615376448467" lon="5.5681982190272965"><ele>1263.0</ele><time>2026-04-28T12:13:10Z</time></trkpt><trkpt lat="44.89602059218881" lon="5.568340550154877"><ele>1263.0</ele><time>2026-04-28T12:13:16Z</time></trkpt><trkpt lat="44.89595118826241" lon="5.568416454254585"><ele>1263.0</ele><time>2026-04-28T12:13:19Z</time></trkpt><trkpt lat="44.89589833394155" lon="5.568517681282178"><ele>1263.0</ele><time>2026-04-28T12:13:22Z</time></trkpt><trkpt lat="44.895853960393865" lon="5.568617139951811"><ele>1263.0</ele><time>2026-04-28T12:13:25Z</time></trkpt><trkpt lat="44.89581319722699" lon="5.568710228286858"><ele>1263.0</ele><time>2026-04-28T12:13:28Z</time></trkpt><trkpt lat="44.89577688831244" lon="5.568805545843067"><ele>1263.0</ele><time>2026-04-28T12:13:31Z</time></trkpt><trkpt lat="44.895672479293694" lon="5.568959986699404"><ele>1264.0</ele><time>2026-04-28T12:13:37Z</time></trkpt><trkpt lat="44.89559907313666" lon="5.568988500018341"><ele>1265.0</ele><time>2026-04-28T12:13:40Z</time></trkpt><trkpt lat="44.89552889796695" lon="5.568992617833476"><ele>1266.0</ele><time>2026-04-28T12:13:43Z</time></trkpt><trkpt lat="44.89545757441704" lon="5.568962964180699"><ele>1267.0</ele><time>2026-04-28T12:13:46Z</time></trkpt><trkpt lat="44.895385699166354" lon="5.568949792746968"><ele>1268.0</ele><time>2026-04-28T12:13:49Z</time></trkpt><trkpt lat="44.895313654124614" lon="5.5689242665754755"><ele>1269.0</ele><time>2026-04-28T12:13:52Z</time></trkpt><trkpt lat="44.89517559207326" lon="5.568879742892933"><ele>1269.0</ele><time>2026-04-28T12:13:58Z</time></trkpt><trkpt lat="44.895107776194486" lon="5.568849720945367"><ele>1269.0</ele><time>2026-04-28T12:14:01Z</time></trkpt><trkpt lat="44.895032933014306" lon="5.56881742752969"><ele>1269.0</ele><time>2026-04-28T12:14:04Z</time></trkpt><trkpt lat="44.894965739314685" lon="5.5687929496524555"><ele>1269.0</ele><time>2026-04-28T12:14:07Z</time></trkpt><trkpt lat="44.894887118170296" lon="5.568768941763259"><ele>1269.0</ele><time>2026-04-28T12:14:11Z</time></trkpt><trkpt lat="44.89484066829847" lon="5.568694106320582"><ele>1269.0</ele><time>2026-04-28T12:14:14Z</time></trkpt><trkpt lat="44.894761558068446" lon="5.568493916589661"><ele>1271.3333333333333</ele><time>2026-04-28T12:14:20Z</time></trkpt><trkpt lat="44.8947363765945" lon="5.568379970464462"><ele>1273.6666666666667</ele><time>2026-04-28T12:14:23Z</time></trkpt><trkpt lat="44.894716478227004" lon="5.568256005868917"><ele>1276.0</ele><time>2026-04-28T12:14:25.999Z</time></trkpt><trkpt lat="44.894699917524996" lon="5.568122273449544"><ele>1278.3333333333335</ele><time>2026-04-28T12:14:28.999Z</time></trkpt><trkpt lat="44.894669748730266" lon="5.568035572412073"><ele>1280.6666666666667</ele><time>2026-04-28T12:14:31Z</time></trkpt><trkpt lat="44.89464066765716" lon="5.567948246674076"><ele>1283.0</ele><time>2026-04-28T12:14:33Z</time></trkpt><trkpt lat="44.89461153740826" lon="5.567861296745516"><ele>1282.6666666666667</ele><time>2026-04-28T12:14:35Z</time></trkpt><trkpt lat="44.894524253037524" lon="5.5677125077166325"><ele>1282.3333333333335</ele><time>2026-04-28T12:14:39Z</time></trkpt><trkpt lat="44.89449149815166" lon="5.567633167160393"><ele>1282.0</ele><time>2026-04-28T12:14:41Z</time></trkpt><trkpt lat="44.89445061694366" lon="5.567559090893679"><ele>1281.6666666666667</ele><time>2026-04-28T12:14:43Z</time></trkpt><trkpt lat="44.89440688659926" lon="5.567491001967603"><ele>1281.3333333333333</ele><time>2026-04-28T12:14:45Z</time></trkpt><trkpt lat="44.894362416061576" lon="5.567422812417216"><ele>1281.0</ele><time>2026-04-28T12:14:47Z</time></trkpt><trkpt lat="44.89430160417374" lon="5.567379138933681"><ele>1282.3333333333333</ele><time>2026-04-28T12:14:49Z</time></trkpt><trkpt lat="44.89422691755742" lon="5.56737056987481"><ele>1283.6666666666667</ele><time>2026-04-28T12:14:51Z</time></trkpt><trkpt lat="44.8941533297791" lon="5.56738894019539"><ele>1285.0</ele><time>2026-04-28T12:14:53Z</time></trkpt><trkpt lat="44.894083885412854" lon="5.567413482308373"><ele>1286.3333333333335</ele><time>2026-04-28T12:14:55Z</time></trkpt><trkpt lat="44.89401872797382" lon="5.567454320460125"><ele>1287.6666666666667</ele><time>2026-04-28T12:14:57Z</time></trkpt><trkpt lat="44.893871375700414" lon="5.56750677946856"><ele>1289.0</ele><time>2026-04-28T12:15:01Z</time></trkpt><trkpt lat="44.89379361298418" lon="5.567515158773438"><ele>1289.0</ele><time>2026-04-28T12:15:03Z</time></trkpt><trkpt lat="44.89371184676606" lon="5.567517345077611"><ele>1289.0</ele><time>2026-04-28T12:15:05Z</time></trkpt><trkpt lat="44.893628194818874" lon="5.567516994360168"><ele>1289.0</ele><time>2026-04-28T12:15:07Z</time></trkpt><trkpt lat="44.893540692332564" lon="5.567515454313907"><ele>1289.0</ele><time>2026-04-28T12:15:09Z</time></trkpt><trkpt lat="44.89345474306042" lon="5.567520946532539"><ele>1289.0</ele><time>2026-04-28T12:15:11Z</time></trkpt><trkpt lat="44.893371879055195" lon="5.567533854154552"><ele>1289.0</ele><time>2026-04-28T12:15:13Z</time></trkpt><trkpt lat="44.89329150326273" lon="5.567535340210992"><ele>1290.8000000000002</ele><time>2026-04-28T12:15:15Z</time></trkpt><trkpt lat="44.893205393555085" lon="5.567554298915816"><ele>1292.6000000000001</ele><time>2026-04-28T12:15:17Z</time></trkpt><trkpt lat="44.89312521974041" lon="5.567583547235587"><ele>1294.4</ele><time>2026-04-28T12:15:19Z</time></trkpt><trkpt lat="44.89298001154633" lon="5.567646291495082"><ele>1296.2</ele><time>2026-04-28T12:15:23Z</time></trkpt><trkpt lat="44.89289234647428" lon="5.5676522994967295"><ele>1298.0</ele><time>2026-04-28T12:15:25Z</time></trkpt><trkpt lat="44.892805926667805" lon="5.5676555358145485"><ele>1298.0</ele><time>2026-04-28T12:15:27Z</time></trkpt><trkpt lat="44.89272249977933" lon="5.5676625712449965"><ele>1298.0</ele><time>2026-04-28T12:15:29Z</time></trkpt><trkpt lat="44.89263805119319" lon="5.567660928527466"><ele>1298.0</ele><time>2026-04-28T12:15:31Z</time></trkpt><trkpt lat="44.89255683884162" lon="5.567640856618071"><ele>1298.0</ele><time>2026-04-28T12:15:33Z</time></trkpt><trkpt lat="44.892471479113176" lon="5.5676512855095925"><ele>1298.0</ele><time>2026-04-28T12:15:35Z</time></trkpt><trkpt lat="44.892386759555514" lon="5.567672345979852"><ele>1298.0</ele><time>2026-04-28T12:15:37Z</time></trkpt><trkpt lat="44.89230068130183" lon="5.567670320209543"><ele>1301.2</ele><time>2026-04-28T12:15:39Z</time></trkpt><trkpt lat="44.89221043539877" lon="5.567685740654222"><ele>1304.4</ele><time>2026-04-28T12:15:41Z</time></trkpt><trkpt lat="44.892048422170106" lon="5.567718541069556"><ele>1307.6000000000001</ele><time>2026-04-28T12:15:44.999Z</time></trkpt><trkpt lat="44.89197263511291" lon="5.567705365063828"><ele>1310.8000000000002</ele><time>2026-04-28T12:15:46.999Z</time></trkpt><trkpt lat="44.89189158483873" lon="5.5677332047419394"><ele>1314.0</ele><time>2026-04-28T12:15:48.999Z</time></trkpt><trkpt lat="44.89180888101523" lon="5.567754478710863"><ele>1315.6666666666667</ele><time>2026-04-28T12:15:50.999Z</time></trkpt><trkpt lat="44.89171257543411" lon="5.567768474915633"><ele>1317.3333333333333</ele><time>2026-04-28T12:15:52.999Z</time></trkpt><trkpt lat="44.891629092537876" lon="5.567781779274798"><ele>1319.0</ele><time>2026-04-28T12:15:54.999Z</time></trkpt><trkpt lat="44.89154853727796" lon="5.5678047985409655"><ele>1320.6666666666665</ele><time>2026-04-28T12:15:56.999Z</time></trkpt><trkpt lat="44.89147905616783" lon="5.567811270336389"><ele>1322.3333333333333</ele><time>2026-04-28T12:15:58.999Z</time></trkpt><trkpt lat="44.89139034069427" lon="5.567818460585105"><ele>1324.0</ele><time>2026-04-28T12:16:00.999Z</time></trkpt><trkpt lat="44.89130315201239" lon="5.567804101814654"><ele>1324.0</ele><time>2026-04-28T12:16:02.999Z</time></trkpt><trkpt lat="44.89112991331704" lon="5.567808983051309"><ele>1324.0</ele><time>2026-04-28T12:16:06.999Z</time></trkpt><trkpt lat="44.891058370231356" lon="5.5677924013381"><ele>1324.0</ele><time>2026-04-28T12:16:08.999Z</time></trkpt><trkpt lat="44.89096230208089" lon="5.567788230636742"><ele>1324.0</ele><time>2026-04-28T12:16:10.999Z</time></trkpt><trkpt lat="44.89087906999431" lon="5.567773122493687"><ele>1324.0</ele><time>2026-04-28T12:16:12.999Z</time></trkpt><trkpt lat="44.89079436724457" lon="5.567762897164033"><ele>1323.5</ele><time>2026-04-28T12:16:14.999Z</time></trkpt><trkpt lat="44.890711964209885" lon="5.567751014888648"><ele>1323.0</ele><time>2026-04-28T12:16:16.999Z</time></trkpt><trkpt lat="44.890631402360206" lon="5.567718063257967"><ele>1322.5</ele><time>2026-04-28T12:16:18.999Z</time></trkpt><trkpt lat="44.89055406127747" lon="5.567696207732271"><ele>1322.0</ele><time>2026-04-28T12:16:20.999Z</time></trkpt><trkpt lat="44.89049630276296" lon="5.567627476821877"><ele>1321.5</ele><time>2026-04-28T12:16:22.999Z</time></trkpt><trkpt lat="44.89045145968056" lon="5.567532675642473"><ele>1321.0</ele><time>2026-04-28T12:16:24.999Z</time></trkpt><trkpt lat="44.89038026132728" lon="5.567343411480357"><ele>1321.0</ele><time>2026-04-28T12:16:28.999Z</time></trkpt><trkpt lat="44.89035218126832" lon="5.567258346706858"><ele>1321.0</ele><time>2026-04-28T12:16:30.999Z</time></trkpt><trkpt lat="44.8903122865559" lon="5.567180068130932"><ele>1321.0</ele><time>2026-04-28T12:16:32.999Z</time></trkpt><trkpt lat="44.89025962764678" lon="5.567111545264369"><ele>1321.0</ele><time>2026-04-28T12:16:34.999Z</time></trkpt><trkpt lat="44.89018394098179" lon="5.567062026979351"><ele>1321.0</ele><time>2026-04-28T12:16:37Z</time></trkpt><trkpt lat="44.89010598634762" lon="5.567040811783418"><ele>1321.0</ele><time>2026-04-28T12:16:39Z</time></trkpt><trkpt lat="44.89004067709044" lon="5.567071154413739"><ele>1321.0</ele><time>2026-04-28T12:16:41Z</time></trkpt><trkpt lat="44.88997410573601" lon="5.567148032359729"><ele>1318.8</ele><time>2026-04-28T12:16:43Z</time></trkpt><trkpt lat="44.88993128547345" lon="5.567243842583661"><ele>1316.6</ele><time>2026-04-28T12:16:45Z</time></trkpt><trkpt lat="44.88987998183114" lon="5.5673332506842454"><ele>1314.4</ele><time>2026-04-28T12:16:47Z</time></trkpt><trkpt lat="44.88976521079712" lon="5.567452808941989"><ele>1312.2</ele><time>2026-04-28T12:16:51Z</time></trkpt><trkpt lat="44.88969050930209" lon="5.567489758816289"><ele>1310.0</ele><time>2026-04-28T12:16:53Z</time></trkpt><trkpt lat="44.889620624796464" lon="5.567466170581233"><ele>1310.0</ele><time>2026-04-28T12:16:55Z</time></trkpt><trkpt lat="44.88954292657469" lon="5.567451868736577"><ele>1310.0</ele><time>2026-04-28T12:16:57Z</time></trkpt><trkpt lat="44.88946529223891" lon="5.56744732651499"><ele>1310.0</ele><time>2026-04-28T12:16:59Z</time></trkpt><trkpt lat="44.88939254155729" lon="5.567444413777483"><ele>1310.0</ele><time>2026-04-28T12:17:01Z</time></trkpt><trkpt lat="44.88931796711846" lon="5.567445386169681"><ele>1310.0</ele><time>2026-04-28T12:17:03Z</time></trkpt><trkpt lat="44.88924636616043" lon="5.567440217859201"><ele>1310.0</ele><time>2026-04-28T12:17:05Z</time></trkpt><trkpt lat="44.88916946331076" lon="5.567406323646143"><ele>1309.8</ele><time>2026-04-28T12:17:07Z</time></trkpt><trkpt lat="44.88909322987939" lon="5.567366479515481"><ele>1309.6</ele><time>2026-04-28T12:17:09Z</time></trkpt><trkpt lat="44.88896582357369" lon="5.567216008377632"><ele>1309.4</ele><time>2026-04-28T12:17:13Z</time></trkpt><trkpt lat="44.88890817211072" lon="5.567137881726411"><ele>1309.2</ele><time>2026-04-28T12:17:15Z</time></trkpt><trkpt lat="44.88884474597344" lon="5.567083038105679"><ele>1309.0</ele><time>2026-04-28T12:17:17Z</time></trkpt><trkpt lat="44.88877055569104" lon="5.567070500035169"><ele>1309.0</ele><time>2026-04-28T12:17:19Z</time></trkpt><trkpt lat="44.888701080830955" lon="5.5670706607582146"><ele>1309.0</ele><time>2026-04-28T12:17:21Z</time></trkpt><trkpt lat="44.88863096500795" lon="5.567062821494289"><ele>1309.0</ele><time>2026-04-28T12:17:23Z</time></trkpt><trkpt lat="44.88856248776841" lon="5.567061501398738"><ele>1309.0</ele><time>2026-04-28T12:17:25Z</time></trkpt><trkpt lat="44.888493023741155" lon="5.5670333592302255"><ele>1309.0</ele><time>2026-04-28T12:17:27Z</time></trkpt><trkpt lat="44.888425508427986" lon="5.566981094860261"><ele>1309.0</ele><time>2026-04-28T12:17:29Z</time></trkpt><trkpt lat="44.88835341219207" lon="5.566928316829452"><ele>1309.0</ele><time>2026-04-28T12:17:31Z</time></trkpt><trkpt lat="44.88822407584364" lon="5.566821852814667"><ele>1311.3333333333333</ele><time>2026-04-28T12:17:35Z</time></trkpt><trkpt lat="44.888168398653" lon="5.566757514158789"><ele>1313.6666666666665</ele><time>2026-04-28T12:17:37Z</time></trkpt><trkpt lat="44.88812677333941" lon="5.566675919391662"><ele>1316.0</ele><time>2026-04-28T12:17:39Z</time></trkpt><trkpt lat="44.88809061604734" lon="5.566588958803049"><ele>1318.3333333333333</ele><time>2026-04-28T12:17:41Z</time></trkpt><trkpt lat="44.88802539147786" lon="5.566527507314428"><ele>1320.6666666666667</ele><time>2026-04-28T12:17:42.999Z</time></trkpt><trkpt lat="44.887929694107875" lon="5.566500109464443"><ele>1323.0</ele><time>2026-04-28T12:17:44.999Z</time></trkpt><trkpt lat="44.887847045492215" lon="5.566583331664829"><ele>1323.0</ele><time>2026-04-28T12:17:46.999Z</time></trkpt><trkpt lat="44.88781112967934" lon="5.566710735898184"><ele>1323.0</ele><time>2026-04-28T12:17:48.999Z</time></trkpt><trkpt lat="44.887802082733195" lon="5.566831810968801"><ele>1323.0</ele><time>2026-04-28T12:17:50.999Z</time></trkpt><trkpt lat="44.88776774165853" lon="5.566927634043703"><ele>1323.0</ele><time>2026-04-28T12:17:52.999Z</time></trkpt><trkpt lat="44.88766939130037" lon="5.567091946805738"><ele>1323.0</ele><time>2026-04-28T12:17:56.999Z</time></trkpt><trkpt lat="44.88760713268633" lon="5.56715112251895"><ele>1322.0</ele><time>2026-04-28T12:17:58.999Z</time></trkpt><trkpt lat="44.88753120900809" lon="5.567207294168203"><ele>1321.0</ele><time>2026-04-28T12:18:00.999Z</time></trkpt><trkpt lat="44.88746671539826" lon="5.567264614898374"><ele>1320.0</ele><time>2026-04-28T12:18:02.999Z</time></trkpt><trkpt lat="44.88738850280838" lon="5.56726561110577"><ele>1319.0</ele><time>2026-04-28T12:18:04.999Z</time></trkpt><trkpt lat="44.887317264253134" lon="5.567308889478675"><ele>1318.0</ele><time>2026-04-28T12:18:06.999Z</time></trkpt><trkpt lat="44.88724235756317" lon="5.567310945685496"><ele>1317.0</ele><time>2026-04-28T12:18:08.999Z</time></trkpt><trkpt lat="44.887160702006575" lon="5.5673189271586985"><ele>1317.0</ele><time>2026-04-28T12:18:10.999Z</time></trkpt><trkpt lat="44.88708187821688" lon="5.56729319625566"><ele>1317.0</ele><time>2026-04-28T12:18:12.999Z</time></trkpt><trkpt lat="44.88701030436634" lon="5.567250542811328"><ele>1317.0</ele><time>2026-04-28T12:18:14.999Z</time></trkpt><trkpt lat="44.88687924065384" lon="5.56717451084368"><ele>1317.0</ele><time>2026-04-28T12:18:19.999Z</time></trkpt><trkpt lat="44.88681312577084" lon="5.567127539074842"><ele>1317.0</ele><time>2026-04-28T12:18:20.999Z</time></trkpt><trkpt lat="44.88674695794642" lon="5.567072804582175"><ele>1318.0</ele><time>2026-04-28T12:18:22.999Z</time></trkpt><trkpt lat="44.88667615591843" lon="5.5670493800139225"><ele>1319.0</ele><time>2026-04-28T12:18:24.999Z</time></trkpt><trkpt lat="44.88660409558383" lon="5.567024848589491"><ele>1320.0</ele><time>2026-04-28T12:18:26.999Z</time></trkpt><trkpt lat="44.886524088531985" lon="5.567007610365521"><ele>1321.0</ele><time>2026-04-28T12:18:28.999Z</time></trkpt><trkpt lat="44.88644490789637" lon="5.567018743969538"><ele>1322.0</ele><time>2026-04-28T12:18:30.999Z</time></trkpt><trkpt lat="44.886363897335116" lon="5.567066567730288"><ele>1323.0</ele><time>2026-04-28T12:18:32.999Z</time></trkpt><trkpt lat="44.886286724918364" lon="5.567100298448243"><ele>1323.0</ele><time>2026-04-28T12:18:34.999Z</time></trkpt><trkpt lat="44.88620904095265" lon="5.567119801650254"><ele>1323.0</ele><time>2026-04-28T12:18:36.999Z</time></trkpt><trkpt lat="44.886062252131076" lon="5.567160420941721"><ele>1323.0</ele><time>2026-04-28T12:18:41Z</time></trkpt><trkpt lat="44.88599022471157" lon="5.567179898809046"><ele>1323.0</ele><time>2026-04-28T12:18:43Z</time></trkpt><trkpt lat="44.8859136564171" lon="5.567176097739422"><ele>1323.0</ele><time>2026-04-28T12:18:45Z</time></trkpt><trkpt lat="44.885840213532816" lon="5.567208439430822"><ele>1324.6666666666667</ele><time>2026-04-28T12:18:47Z</time></trkpt><trkpt lat="44.88576810438595" lon="5.567194368339534"><ele>1326.3333333333333</ele><time>2026-04-28T12:18:49Z</time></trkpt><trkpt lat="44.88567456946155" lon="5.567196179036698"><ele>1328.0</ele><time>2026-04-28T12:18:52Z</time></trkpt><trkpt lat="44.88559291795944" lon="5.56720910709675"><ele>1329.6666666666665</ele><time>2026-04-28T12:18:54Z</time></trkpt><trkpt lat="44.88551901338954" lon="5.567184992347436"><ele>1331.3333333333333</ele><time>2026-04-28T12:18:56Z</time></trkpt><trkpt lat="44.88544044446835" lon="5.567196230397672"><ele>1333.0</ele><time>2026-04-28T12:18:58Z</time></trkpt><trkpt lat="44.88528580510766" lon="5.567167758207525"><ele>1333.0</ele><time>2026-04-28T12:19:02Z</time></trkpt><trkpt lat="44.885211396525904" lon="5.567150577763097"><ele>1333.0</ele><time>2026-04-28T12:19:04Z</time></trkpt><trkpt lat="44.88513969487911" lon="5.567129305511682"><ele>1333.0</ele><time>2026-04-28T12:19:06Z</time></trkpt><trkpt lat="44.88506692069188" lon="5.567123386525166"><ele>1333.0</ele><time>2026-04-28T12:19:08Z</time></trkpt><trkpt lat="44.8849907213706" lon="5.567111902121672"><ele>1333.0</ele><time>2026-04-28T12:19:10Z</time></trkpt><trkpt lat="44.88491143952987" lon="5.5670985200669785"><ele>1333.0</ele><time>2026-04-28T12:19:12Z</time></trkpt><trkpt lat="44.884837126127785" lon="5.567076648310464"><ele>1334.8333333333333</ele><time>2026-04-28T12:19:14Z</time></trkpt><trkpt lat="44.88476634639829" lon="5.567064728409937"><ele>1336.6666666666665</ele><time>2026-04-28T12:19:16Z</time></trkpt><trkpt lat="44.88469464069399" lon="5.567042619823957"><ele>1338.5</ele><time>2026-04-28T12:19:18Z</time></trkpt><trkpt lat="44.88462254494876" lon="5.567030506436122"><ele>1340.3333333333333</ele><time>2026-04-28T12:19:20Z</time></trkpt><trkpt lat="44.88447654858164" lon="5.567001585242364"><ele>1342.1666666666667</ele><time>2026-04-28T12:19:24Z</time></trkpt><trkpt lat="44.884404815743025" lon="5.566988882286072"><ele>1344.0</ele><time>2026-04-28T12:19:26Z</time></trkpt><trkpt lat="44.884334333931065" lon="5.566991016548077"><ele>1344.8333333333333</ele><time>2026-04-28T12:19:28Z</time></trkpt><trkpt lat="44.88426749773544" lon="5.566988576524452"><ele>1345.6666666666667</ele><time>2026-04-28T12:19:30Z</time></trkpt><trkpt lat="44.88420300335691" lon="5.566996779555857"><ele>1346.5</ele><time>2026-04-28T12:19:32Z</time></trkpt><trkpt lat="44.88410939289646" lon="5.567014720846084"><ele>1347.3333333333335</ele><time>2026-04-28T12:19:35Z</time></trkpt><trkpt lat="44.884018722664145" lon="5.567050390258617"><ele>1348.1666666666667</ele><time>2026-04-28T12:19:38Z</time></trkpt><trkpt lat="44.88392965683062" lon="5.567073799924422"><ele>1349.0</ele><time>2026-04-28T12:19:41Z</time></trkpt><trkpt lat="44.88380272847169" lon="5.5671092582135175"><ele>1349.0</ele><time>2026-04-28T12:19:45Z</time></trkpt><trkpt lat="44.883717554966005" lon="5.567120724698905"><ele>1349.0</ele><time>2026-04-28T12:19:48Z</time></trkpt><trkpt lat="44.88363425214431" lon="5.5671258975154165"><ele>1349.0</ele><time>2026-04-28T12:19:51Z</time></trkpt><trkpt lat="44.88355734591973" lon="5.567117811422686"><ele>1349.0</ele><time>2026-04-28T12:19:54Z</time></trkpt><trkpt lat="44.8834859834621" lon="5.56710841077332"><ele>1349.0</ele><time>2026-04-28T12:19:57Z</time></trkpt><trkpt lat="44.883416897156586" lon="5.567092088218182"><ele>1349.0</ele><time>2026-04-28T12:20:00Z</time></trkpt><trkpt lat="44.88334576174291" lon="5.567078748069455"><ele>1350.0</ele><time>2026-04-28T12:20:03Z</time></trkpt><trkpt lat="44.88321450732777" lon="5.567058724910216"><ele>1351.0</ele><time>2026-04-28T12:20:08.999Z</time></trkpt><trkpt lat="44.88313349486833" lon="5.567047192907259"><ele>1352.0</ele><time>2026-04-28T12:20:12.999Z</time></trkpt><trkpt lat="44.88307003948786" lon="5.567032500013097"><ele>1353.0</ele><time>2026-04-28T12:20:15.999Z</time></trkpt><trkpt lat="44.88300281135683" lon="5.567016167938348"><ele>1354.0</ele><time>2026-04-28T12:20:18.999Z</time></trkpt><trkpt lat="44.88292202747483" lon="5.56701542909389"><ele>1355.0</ele><time>2026-04-28T12:20:22.999Z</time></trkpt><trkpt lat="44.882843121806076" lon="5.566997846921829"><ele>1355.5</ele><time>2026-04-28T12:20:26.999Z</time></trkpt><trkpt lat="44.88267693120619" lon="5.566974237868969"><ele>1356.0</ele><time>2026-04-28T12:20:34.999Z</time></trkpt><trkpt lat="44.882609537432344" lon="5.566948496648901"><ele>1356.5</ele><time>2026-04-28T12:20:38.999Z</time></trkpt><trkpt lat="44.88253882141302" lon="5.566935744751459"><ele>1357.0</ele><time>2026-04-28T12:21:15Z</time></trkpt><trkpt lat="44.882394808852915" lon="5.566903522693303"><ele>1357.0</ele><time>2026-04-28T12:21:23Z</time></trkpt><trkpt lat="44.88232518882662" lon="5.5668934639647425"><ele>1357.0</ele><time>2026-04-28T12:21:26Z</time></trkpt><trkpt lat="44.88225972968425" lon="5.5668855960894055"><ele>1357.0</ele><time>2026-04-28T12:21:29Z</time></trkpt><trkpt lat="44.88219010625293" lon="5.566871134678028"><ele>1357.0</ele><time>2026-04-28T12:21:32Z</time></trkpt><trkpt lat="44.882110319384765" lon="5.566867901910995"><ele>1357.0</ele><time>2026-04-28T12:21:35Z</time></trkpt><trkpt lat="44.8820258294457" lon="5.566856260939215"><ele>1357.0</ele><time>2026-04-28T12:21:38Z</time></trkpt><trkpt lat="44.88187909864149" lon="5.566880850407052"><ele>1357.0</ele><time>2026-04-28T12:21:42Z</time></trkpt><trkpt lat="44.881781043085866" lon="5.5669167745840635"><ele>1357.0</ele><time>2026-04-28T12:21:44Z</time></trkpt><trkpt lat="44.88172182858174" lon="5.566950931477836"><ele>1357.0</ele><time>2026-04-28T12:21:45Z</time></trkpt><trkpt lat="44.88165939868736" lon="5.566992022403784"><ele>1357.0</ele><time>2026-04-28T12:21:46Z</time></trkpt><trkpt lat="44.88158490284583" lon="5.567028007305172"><ele>1357.0</ele><time>2026-04-28T12:21:47Z</time></trkpt><trkpt lat="44.88150665531032" lon="5.567057215636715"><ele>1357.0</ele><time>2026-04-28T12:21:48Z</time></trkpt><trkpt lat="44.881420998908936" lon="5.56707661606583"><ele>1357.5</ele><time>2026-04-28T12:21:49Z</time></trkpt><trkpt lat="44.88133939500767" lon="5.567077265422599"><ele>1358.0</ele><time>2026-04-28T12:21:50Z</time></trkpt><trkpt lat="44.88125831770426" lon="5.5670606090978225"><ele>1358.5</ele><time>2026-04-28T12:21:51Z</time></trkpt><trkpt lat="44.88117382691469" lon="5.567025301864165"><ele>1359.0</ele><time>2026-04-28T12:21:52Z</time></trkpt><trkpt lat="44.88108846993297" lon="5.56698686433719"><ele>1359.5</ele><time>2026-04-28T12:21:53Z</time></trkpt><trkpt lat="44.881003886599956" lon="5.5669547309127445"><ele>1360.0</ele><time>2026-04-28T12:21:54Z</time></trkpt><trkpt lat="44.880910150112776" lon="5.5669402767240665"><ele>1355.4</ele><time>2026-04-28T12:21:55Z</time></trkpt><trkpt lat="44.880827683794514" lon="5.56696240622908"><ele>1350.8</ele><time>2026-04-28T12:21:56Z</time></trkpt><trkpt lat="44.880734121122465" lon="5.566990771174946"><ele>1346.1999999999998</ele><time>2026-04-28T12:21:57Z</time></trkpt><trkpt lat="44.88065230838323" lon="5.566996707696858"><ele>1341.6</ele><time>2026-04-28T12:21:58Z</time></trkpt><trkpt lat="44.880571538071536" lon="5.56694693160047"><ele>1337.0</ele><time>2026-04-28T12:21:59Z</time></trkpt><trkpt lat="44.88039603504932" lon="5.566916129441178"><ele>1337.0</ele><time>2026-04-28T12:22:01Z</time></trkpt><trkpt lat="44.880310705430006" lon="5.566892264227671"><ele>1337.0</ele><time>2026-04-28T12:22:02Z</time></trkpt><trkpt lat="44.88021943206954" lon="5.5668907999054715"><ele>1337.0</ele><time>2026-04-28T12:22:03Z</time></trkpt><trkpt lat="44.880125472816175" lon="5.566894798777907"><ele>1337.0</ele><time>2026-04-28T12:22:03.999Z</time></trkpt><trkpt lat="44.88003325851691" lon="5.566876163148547"><ele>1337.0</ele><time>2026-04-28T12:22:04.999Z</time></trkpt><trkpt lat="44.87993775859078" lon="5.56683363505208"><ele>1335.8</ele><time>2026-04-28T12:22:05.999Z</time></trkpt><trkpt lat="44.879844264758404" lon="5.566769797604566"><ele>1334.6</ele><time>2026-04-28T12:22:06.999Z</time></trkpt><trkpt lat="44.87976802460987" lon="5.5667317895492205"><ele>1333.3999999999999</ele><time>2026-04-28T12:22:07.999Z</time></trkpt><trkpt lat="44.879654736601935" lon="5.566689336363795"><ele>1332.1999999999998</ele><time>2026-04-28T12:22:09.999Z</time></trkpt><trkpt lat="44.87958313592619" lon="5.566652388945169"><ele>1331.0</ele><time>2026-04-28T12:22:10.999Z</time></trkpt><trkpt lat="44.87951359559622" lon="5.566624113762057"><ele>1331.0</ele><time>2026-04-28T12:22:11.999Z</time></trkpt><trkpt lat="44.879397838934494" lon="5.566663301538106"><ele>1331.0</ele><time>2026-04-28T12:22:13.999Z</time></trkpt><trkpt lat="44.87932049267367" lon="5.5666789630791005"><ele>1331.0</ele><time>2026-04-28T12:22:14.999Z</time></trkpt><trkpt lat="44.87924074021864" lon="5.566725232153418"><ele>1331.0</ele><time>2026-04-28T12:22:15.999Z</time></trkpt><trkpt lat="44.87916563178781" lon="5.566775325251984"><ele>1331.0</ele><time>2026-04-28T12:22:16.999Z</time></trkpt><trkpt lat="44.87909045575114" lon="5.566836560217305"><ele>1329.5</ele><time>2026-04-28T12:22:17.999Z</time></trkpt><trkpt lat="44.87901524254947" lon="5.566902324591797"><ele>1328.0</ele><time>2026-04-28T12:22:18.999Z</time></trkpt><trkpt lat="44.87891429472068" lon="5.566930003148167"><ele>1326.5</ele><time>2026-04-28T12:22:19.999Z</time></trkpt><trkpt lat="44.87869273267122" lon="5.566896992106871"><ele>1325.0</ele><time>2026-04-28T12:22:21.999Z</time></trkpt><trkpt lat="44.878590415213175" lon="5.566865651495954"><ele>1325.0</ele><time>2026-04-28T12:22:22.999Z</time></trkpt><trkpt lat="44.878473618135736" lon="5.566845258779624"><ele>1325.0</ele><time>2026-04-28T12:22:23.999Z</time></trkpt><trkpt lat="44.878354321714234" lon="5.566815649868687"><ele>1325.0</ele><time>2026-04-28T12:22:24.999Z</time></trkpt><trkpt lat="44.878228461928025" lon="5.5667494976005205"><ele>1325.0</ele><time>2026-04-28T12:22:25.999Z</time></trkpt><trkpt lat="44.87811216988936" lon="5.566675230775204"><ele>1323.0</ele><time>2026-04-28T12:22:26.999Z</time></trkpt><trkpt lat="44.8779918697853" lon="5.5666073794589215"><ele>1321.0</ele><time>2026-04-28T12:22:27.999Z</time></trkpt><trkpt lat="44.87786643734758" lon="5.566568390618734"><ele>1319.0</ele><time>2026-04-28T12:22:28.999Z</time></trkpt><trkpt lat="44.87772336267878" lon="5.5665630999381595"><ele>1317.0</ele><time>2026-04-28T12:22:29.999Z</time></trkpt><trkpt lat="44.87758981063314" lon="5.566524266344683"><ele>1315.5</ele><time>2026-04-28T12:22:30.999Z</time></trkpt><trkpt lat="44.8774454794995" lon="5.5665021235265675"><ele>1314.0</ele><time>2026-04-28T12:22:31.999Z</time></trkpt><trkpt lat="44.87730342178151" lon="5.566480984606442"><ele>1312.5</ele><time>2026-04-28T12:22:32.999Z</time></trkpt><trkpt lat="44.87715939285356" lon="5.566457848767788"><ele>1311.0</ele><time>2026-04-28T12:22:33.999Z</time></trkpt><trkpt lat="44.87703103877582" lon="5.566433733940594"><ele>1311.0</ele><time>2026-04-28T12:22:34.999Z</time></trkpt><trkpt lat="44.87689994839491" lon="5.566380040253049"><ele>1311.0</ele><time>2026-04-28T12:22:35.999Z</time></trkpt><trkpt lat="44.87677871134549" lon="5.566325443481558"><ele>1311.0</ele><time>2026-04-28T12:22:36.999Z</time></trkpt><trkpt lat="44.87666556048496" lon="5.566259630064897"><ele>1311.0</ele><time>2026-04-28T12:22:37.999Z</time></trkpt><trkpt lat="44.87656453958251" lon="5.566176635216125"><ele>1304.25</ele><time>2026-04-28T12:22:38.999Z</time></trkpt><trkpt lat="44.87646878127096" lon="5.566118522375366"><ele>1297.5</ele><time>2026-04-28T12:22:39.999Z</time></trkpt><trkpt lat="44.87636498982046" lon="5.566080432042042"><ele>1290.75</ele><time>2026-04-28T12:22:40.999Z</time></trkpt><trkpt lat="44.87616948540581" lon="5.566018725103143"><ele>1284.0</ele><time>2026-04-28T12:22:42.999Z</time></trkpt><trkpt lat="44.876094423274374" lon="5.56597994706816"><ele>1284.0</ele><time>2026-04-28T12:22:43.999Z</time></trkpt><trkpt lat="44.87601702507775" lon="5.565942420688666"><ele>1284.0</ele><time>2026-04-28T12:22:44.999Z</time></trkpt><trkpt lat="44.8759175662868" lon="5.565910460616937"><ele>1284.0</ele><time>2026-04-28T12:22:45.999Z</time></trkpt><trkpt lat="44.875817133527335" lon="5.565894755770757"><ele>1284.0</ele><time>2026-04-28T12:22:46.999Z</time></trkpt><trkpt lat="44.875720413170626" lon="5.5658512423715685"><ele>1284.0</ele><time>2026-04-28T12:22:47.999Z</time></trkpt><trkpt lat="44.87562918399444" lon="5.5658044306315055"><ele>1284.0</ele><time>2026-04-28T12:22:48.999Z</time></trkpt><trkpt lat="44.875532875179786" lon="5.565777838919787"><ele>1284.0</ele><time>2026-04-28T12:22:49.999Z</time></trkpt><trkpt lat="44.87543158744246" lon="5.565761861730948"><ele>1284.0</ele><time>2026-04-28T12:22:50.999Z</time></trkpt><trkpt lat="44.8753415307994" lon="5.5657597920538215"><ele>1284.0</ele><time>2026-04-28T12:22:51.999Z</time></trkpt><trkpt lat="44.87524936095494" lon="5.565797238187074"><ele>1284.0</ele><time>2026-04-28T12:22:52.999Z</time></trkpt><trkpt lat="44.87516737757434" lon="5.565867727410428"><ele>1284.0</ele><time>2026-04-28T12:22:53.999Z</time></trkpt><trkpt lat="44.87510028232544" lon="5.565920183434681"><ele>1284.0</ele><time>2026-04-28T12:22:54.999Z</time></trkpt><trkpt lat="44.87501019289866" lon="5.565870101174887"><ele>1284.0</ele><time>2026-04-28T12:22:56.999Z</time></trkpt><trkpt lat="44.875021397710675" lon="5.565772722890434"><ele>1284.0</ele><time>2026-04-28T12:22:57.999Z</time></trkpt><trkpt lat="44.87507340244127" lon="5.565699796411742"><ele>1284.0</ele><time>2026-04-28T12:22:58.999Z</time></trkpt><trkpt lat="44.87514081079171" lon="5.5656774465162435"><ele>1284.0</ele><time>2026-04-28T12:22:59.999Z</time></trkpt><trkpt lat="44.875221689864325" lon="5.565646115991082"><ele>1284.0</ele><time>2026-04-28T12:23:01.999Z</time></trkpt><trkpt lat="44.875435218998085" lon="5.565568673723408"><ele>1284.0</ele><time>2026-04-28T12:23:06Z</time></trkpt><trkpt lat="44.87550292336895" lon="5.565558532741147"><ele>1284.0</ele><time>2026-04-28T12:23:07Z</time></trkpt><trkpt lat="44.87557637467665" lon="5.5655403094263685"><ele>1284.0</ele><time>2026-04-28T12:23:08Z</time></trkpt><trkpt lat="44.87566775414949" lon="5.5655083562823755"><ele>1284.0</ele><time>2026-04-28T12:23:09Z</time></trkpt><trkpt lat="44.87576393282825" lon="5.565490942277799"><ele>1284.0</ele><time>2026-04-28T12:23:10Z</time></trkpt><trkpt lat="44.875865978204956" lon="5.565470487717401"><ele>1284.0</ele><time>2026-04-28T12:23:11Z</time></trkpt><trkpt lat="44.875969912860434" lon="5.565472314491898"><ele>1284.0</ele><time>2026-04-28T12:23:12Z</time></trkpt><trkpt lat="44.87608879133027" lon="5.565451151010826"><ele>1284.0</ele><time>2026-04-28T12:23:13Z</time></trkpt><trkpt lat="44.8762101996852" lon="5.565427634654453"><ele>1284.0</ele><time>2026-04-28T12:23:14Z</time></trkpt><trkpt lat="44.87633455801151" lon="5.565399735234126"><ele>1284.0</ele><time>2026-04-28T12:23:15Z</time></trkpt><trkpt lat="44.87644647640709" lon="5.565358868986834"><ele>1284.0</ele><time>2026-04-28T12:23:16Z</time></trkpt><trkpt lat="44.87658086978805" lon="5.565303643131984"><ele>1284.0</ele><time>2026-04-28T12:23:17Z</time></trkpt><trkpt lat="44.87670569454756" lon="5.5652793121092925"><ele>1281.2</ele><time>2026-04-28T12:23:18Z</time></trkpt><trkpt lat="44.87681636163039" lon="5.565211925338765"><ele>1278.4</ele><time>2026-04-28T12:23:19Z</time></trkpt><trkpt lat="44.8769182610677" lon="5.565165330157037"><ele>1275.6</ele><time>2026-04-28T12:23:20Z</time></trkpt><trkpt lat="44.87700505135717" lon="5.5651135561723235"><ele>1272.8</ele><time>2026-04-28T12:23:21Z</time></trkpt><trkpt lat="44.87708371655527" lon="5.565026462804102"><ele>1270.0</ele><time>2026-04-28T12:23:22Z</time></trkpt><trkpt lat="44.87714661403528" lon="5.564905341502531"><ele>1270.0</ele><time>2026-04-28T12:23:23Z</time></trkpt><trkpt lat="44.87716713519679" lon="5.564582157133067"><ele>1270.0</ele><time>2026-04-28T12:23:25Z</time></trkpt><trkpt lat="44.8771561674394" lon="5.56442459454418"><ele>1270.0</ele><time>2026-04-28T12:23:26Z</time></trkpt><trkpt lat="44.8771488195198" lon="5.564265680797277"><ele>1266.5</ele><time>2026-04-28T12:23:27Z</time></trkpt><trkpt lat="44.877156406328375" lon="5.564106709083794"><ele>1263.0</ele><time>2026-04-28T12:23:28Z</time></trkpt><trkpt lat="44.877176709852314" lon="5.563947572015517"><ele>1259.5</ele><time>2026-04-28T12:23:29Z</time></trkpt><trkpt lat="44.87719855112447" lon="5.5637880823526515"><ele>1256.0</ele><time>2026-04-28T12:23:30Z</time></trkpt><trkpt lat="44.87722288357952" lon="5.563620534365018"><ele>1253.25</ele><time>2026-04-28T12:23:31Z</time></trkpt><trkpt lat="44.877251364472954" lon="5.5634452366367055"><ele>1250.5</ele><time>2026-04-28T12:23:31.999Z</time></trkpt><trkpt lat="44.8772774192693" lon="5.563266828278959"><ele>1247.75</ele><time>2026-04-28T12:23:32.999Z</time></trkpt><trkpt lat="44.87730072027277" lon="5.563087617705481"><ele>1245.0</ele><time>2026-04-28T12:23:33.999Z</time></trkpt><trkpt lat="44.877318978425805" lon="5.562925257350788"><ele>1244.8</ele><time>2026-04-28T12:23:34.999Z</time></trkpt><trkpt lat="44.8773391094581" lon="5.56278014070497"><ele>1244.6</ele><time>2026-04-28T12:23:35.999Z</time></trkpt><trkpt lat="44.87734484050912" lon="5.5626444596038755"><ele>1244.4</ele><time>2026-04-28T12:23:36.999Z</time></trkpt><trkpt lat="44.877324371351236" lon="5.5625183905696325"><ele>1244.2</ele><time>2026-04-28T12:23:37.999Z</time></trkpt><trkpt lat="44.87727106135176" lon="5.56241268285791"><ele>1244.0</ele><time>2026-04-28T12:23:38.999Z</time></trkpt><trkpt lat="44.87718975335853" lon="5.56234779030491"><ele>1244.0</ele><time>2026-04-28T12:23:39.999Z</time></trkpt><trkpt lat="44.87708585190841" lon="5.562319036320579"><ele>1244.0</ele><time>2026-04-28T12:23:40.999Z</time></trkpt><trkpt lat="44.87698588132627" lon="5.562290418641378"><ele>1244.0</ele><time>2026-04-28T12:23:41.999Z</time></trkpt><trkpt lat="44.87688101350183" lon="5.562259351140984"><ele>1244.0</ele><time>2026-04-28T12:23:42.999Z</time></trkpt><trkpt lat="44.87677784316556" lon="5.562209908087601"><ele>1244.0</ele><time>2026-04-28T12:23:43.999Z</time></trkpt><trkpt lat="44.87656642402333" lon="5.562080099140347"><ele>1241.75</ele><time>2026-04-28T12:23:45.999Z</time></trkpt><trkpt lat="44.87645734035505" lon="5.5620031634891145"><ele>1239.5</ele><time>2026-04-28T12:23:46.999Z</time></trkpt><trkpt lat="44.87634612495177" lon="5.561920112443272"><ele>1237.25</ele><time>2026-04-28T12:23:47.999Z</time></trkpt><trkpt lat="44.87622779301475" lon="5.561845466106455"><ele>1235.0</ele><time>2026-04-28T12:23:48.999Z</time></trkpt><trkpt lat="44.87611495638408" lon="5.561762593703212"><ele>1235.0</ele><time>2026-04-28T12:23:49.999Z</time></trkpt><trkpt lat="44.876018545601376" lon="5.561662236015891"><ele>1235.0</ele><time>2026-04-28T12:23:50.999Z</time></trkpt><trkpt lat="44.87595139586616" lon="5.561524653684862"><ele>1235.0</ele><time>2026-04-28T12:23:51.999Z</time></trkpt><trkpt lat="44.87588566073862" lon="5.561401740558926"><ele>1235.0</ele><time>2026-04-28T12:23:52.999Z</time></trkpt><trkpt lat="44.8758281892585" lon="5.561269476940435"><ele>1232.5</ele><time>2026-04-28T12:23:53.999Z</time></trkpt><trkpt lat="44.875782513712686" lon="5.561116612325399"><ele>1230.0</ele><time>2026-04-28T12:23:54.999Z</time></trkpt><trkpt lat="44.87571954197534" lon="5.560967215398893"><ele>1227.5</ele><time>2026-04-28T12:23:55.999Z</time></trkpt><trkpt lat="44.875647560745854" lon="5.560819034001784"><ele>1225.0</ele><time>2026-04-28T12:23:56.999Z</time></trkpt><trkpt lat="44.8755698873555" lon="5.560673686530136"><ele>1225.0</ele><time>2026-04-28T12:23:57.999Z</time></trkpt><trkpt lat="44.87548301795923" lon="5.560526997156882"><ele>1225.0</ele><time>2026-04-28T12:23:58.999Z</time></trkpt><trkpt lat="44.87540123278646" lon="5.560372492815054"><ele>1225.0</ele><time>2026-04-28T12:23:59.999Z</time></trkpt><trkpt lat="44.87531431857646" lon="5.560221156578454"><ele>1225.0</ele><time>2026-04-28T12:24:00.999Z</time></trkpt><trkpt lat="44.87522038366652" lon="5.560069936498299"><ele>1226.5</ele><time>2026-04-28T12:24:01.999Z</time></trkpt><trkpt lat="44.875139374455266" lon="5.559926249646744"><ele>1228.0</ele><time>2026-04-28T12:24:02.999Z</time></trkpt><trkpt lat="44.875081760439656" lon="5.559789078357249"><ele>1229.5</ele><time>2026-04-28T12:24:03.999Z</time></trkpt><trkpt lat="44.87503929423674" lon="5.559642564204667"><ele>1231.0</ele><time>2026-04-28T12:24:04.999Z</time></trkpt><trkpt lat="44.875017340377156" lon="5.559342235849804"><ele>1226.6666666666665</ele><time>2026-04-28T12:24:06.999Z</time></trkpt><trkpt lat="44.87499530843844" lon="5.559242287688747"><ele>1222.3333333333333</ele><time>2026-04-28T12:24:07.999Z</time></trkpt><trkpt lat="44.87493183242881" lon="5.559182033139779"><ele>1218.0</ele><time>2026-04-28T12:24:08.999Z</time></trkpt><trkpt lat="44.87484975065423" lon="5.559141477618121"><ele>1213.6666666666667</ele><time>2026-04-28T12:24:09.999Z</time></trkpt><trkpt lat="44.87475355406764" lon="5.559114572469041"><ele>1209.3333333333335</ele><time>2026-04-28T12:24:10.999Z</time></trkpt><trkpt lat="44.87465460090555" lon="5.559090549872732"><ele>1205.0</ele><time>2026-04-28T12:24:11.999Z</time></trkpt><trkpt lat="44.874547719480425" lon="5.559081412378919"><ele>1205.0</ele><time>2026-04-28T12:24:12.999Z</time></trkpt><trkpt lat="44.87442963738281" lon="5.559103569740366"><ele>1205.0</ele><time>2026-04-28T12:24:13.999Z</time></trkpt><trkpt lat="44.874321797471445" lon="5.559150026958967"><ele>1205.0</ele><time>2026-04-28T12:24:14.999Z</time></trkpt><trkpt lat="44.87421332026759" lon="5.5592127370158515"><ele>1205.0</ele><time>2026-04-28T12:24:15.999Z</time></trkpt><trkpt lat="44.87410583113856" lon="5.5592756007228585"><ele>1203.25</ele><time>2026-04-28T12:24:16.999Z</time></trkpt><trkpt lat="44.87398783218225" lon="5.559353151978523"><ele>1201.5</ele><time>2026-04-28T12:24:17.999Z</time></trkpt><trkpt lat="44.87385820644441" lon="5.559381590391218"><ele>1199.75</ele><time>2026-04-28T12:24:18.999Z</time></trkpt><trkpt lat="44.87372988477238" lon="5.559411574684359"><ele>1198.0</ele><time>2026-04-28T12:24:19.999Z</time></trkpt><trkpt lat="44.87360399563669" lon="5.5594687405382475"><ele>1198.0</ele><time>2026-04-28T12:24:20.999Z</time></trkpt><trkpt lat="44.873474329901384" lon="5.559483899163148"><ele>1198.0</ele><time>2026-04-28T12:24:21.999Z</time></trkpt><trkpt lat="44.87333245623978" lon="5.559503672607602"><ele>1198.0</ele><time>2026-04-28T12:24:22.999Z</time></trkpt><trkpt lat="44.87318855349663" lon="5.559539888093919"><ele>1198.0</ele><time>2026-04-28T12:24:23.999Z</time></trkpt><trkpt lat="44.87305307233233" lon="5.559510780342079"><ele>1197.6666666666665</ele><time>2026-04-28T12:24:24.999Z</time></trkpt><trkpt lat="44.87293794362623" lon="5.559466446561835"><ele>1197.3333333333333</ele><time>2026-04-28T12:24:25.999Z</time></trkpt><trkpt lat="44.87271002029902" lon="5.55932977687754"><ele>1197.0</ele><time>2026-04-28T12:24:27.999Z</time></trkpt><trkpt lat="44.87262796284837" lon="5.559220852950264"><ele>1193.25</ele><time>2026-04-28T12:24:28.999Z</time></trkpt><trkpt lat="44.87258414131101" lon="5.55906613647328"><ele>1189.5</ele><time>2026-04-28T12:24:29.999Z</time></trkpt><trkpt lat="44.87253238609341" lon="5.558911846124173"><ele>1185.75</ele><time>2026-04-28T12:24:30.999Z</time></trkpt><trkpt lat="44.87247281975853" lon="5.558770165974458"><ele>1182.0</ele><time>2026-04-28T12:24:31.999Z</time></trkpt><trkpt lat="44.87243598648767" lon="5.558629106532175"><ele>1182.0</ele><time>2026-04-28T12:24:32.999Z</time></trkpt><trkpt lat="44.872387889106015" lon="5.558520961531067"><ele>1182.0</ele><time>2026-04-28T12:24:33.999Z</time></trkpt><trkpt lat="44.87232011922571" lon="5.558451361620303"><ele>1182.0</ele><time>2026-04-28T12:24:34.999Z</time></trkpt><trkpt lat="44.87222149277397" lon="5.5584207247712945"><ele>1182.0</ele><time>2026-04-28T12:24:35.999Z</time></trkpt><trkpt lat="44.872110764083644" lon="5.558435060135925"><ele>1182.0</ele><time>2026-04-28T12:24:36.999Z</time></trkpt><trkpt lat="44.87200039137404" lon="5.5584654080674545"><ele>1182.0</ele><time>2026-04-28T12:24:37.999Z</time></trkpt><trkpt lat="44.87188325313366" lon="5.55848021943393"><ele>1182.0</ele><time>2026-04-28T12:24:38.999Z</time></trkpt><trkpt lat="44.87178556012026" lon="5.558451770034417"><ele>1182.0</ele><time>2026-04-28T12:24:39.999Z</time></trkpt><trkpt lat="44.871708137217375" lon="5.558350848243926"><ele>1182.0</ele><time>2026-04-28T12:24:40.999Z</time></trkpt><trkpt lat="44.87161790698144" lon="5.558273176589192"><ele>1182.0</ele><time>2026-04-28T12:24:41.999Z</time></trkpt><trkpt lat="44.87154643466623" lon="5.558224521452677"><ele>1174.0</ele><time>2026-04-28T12:24:42.999Z</time></trkpt><trkpt lat="44.871455792120905" lon="5.558204388391096"><ele>1166.0</ele><time>2026-04-28T12:24:44.999Z</time></trkpt><trkpt lat="44.87136941430769" lon="5.558161186047532"><ele>1158.0</ele><time>2026-04-28T12:24:46.999Z</time></trkpt><trkpt lat="44.871106107612725" lon="5.558093046096511"><ele>1158.0</ele><time>2026-04-28T12:25:13Z</time></trkpt><trkpt lat="44.871040998618746" lon="5.5580748356722385"><ele>1158.0</ele><time>2026-04-28T12:25:14Z</time></trkpt><trkpt lat="44.870972845590636" lon="5.558032291479194"><ele>1158.0</ele><time>2026-04-28T12:25:15Z</time></trkpt><trkpt lat="44.87089029467261" lon="5.558039443257584"><ele>1158.0</ele><time>2026-04-28T12:25:16Z</time></trkpt><trkpt lat="44.87080448329273" lon="5.558056175932478"><ele>1158.0</ele><time>2026-04-28T12:25:17Z</time></trkpt><trkpt lat="44.87071675474584" lon="5.5580849895468285"><ele>1158.0</ele><time>2026-04-28T12:25:18Z</time></trkpt><trkpt lat="44.87061740320783" lon="5.558098284816448"><ele>1155.0</ele><time>2026-04-28T12:25:19Z</time></trkpt><trkpt lat="44.8705180541327" lon="5.558148374668922"><ele>1152.0</ele><time>2026-04-28T12:25:20Z</time></trkpt><trkpt lat="44.87042723523981" lon="5.55823283871139"><ele>1149.0</ele><time>2026-04-28T12:25:21Z</time></trkpt><trkpt lat="44.87033047776188" lon="5.558303686808019"><ele>1146.0</ele><time>2026-04-28T12:25:22Z</time></trkpt><trkpt lat="44.870222587404825" lon="5.558323553729032"><ele>1143.0</ele><time>2026-04-28T12:25:23Z</time></trkpt><trkpt lat="44.87012091138252" lon="5.558343523770119"><ele>1141.0</ele><time>2026-04-28T12:25:24Z</time></trkpt><trkpt lat="44.8700210228647" lon="5.558352826596661"><ele>1139.0</ele><time>2026-04-28T12:25:25Z</time></trkpt><trkpt lat="44.86991499546789" lon="5.558310327644221"><ele>1137.0</ele><time>2026-04-28T12:25:26Z</time></trkpt><trkpt lat="44.86981087807914" lon="5.55825712899213"><ele>1135.0</ele><time>2026-04-28T12:25:27Z</time></trkpt><trkpt lat="44.86971851438428" lon="5.558152147658996"><ele>1133.0</ele><time>2026-04-28T12:25:28Z</time></trkpt><trkpt lat="44.86961110628927" lon="5.558065908599801"><ele>1133.0</ele><time>2026-04-28T12:25:29Z</time></trkpt><trkpt lat="44.869514577127745" lon="5.5579505287085595"><ele>1133.0</ele><time>2026-04-28T12:25:30Z</time></trkpt><trkpt lat="44.869335169501845" lon="5.557679330703938"><ele>1133.0</ele><time>2026-04-28T12:25:32Z</time></trkpt><trkpt lat="44.86922073328571" lon="5.557562293083108"><ele>1133.25</ele><time>2026-04-28T12:25:33Z</time></trkpt><trkpt lat="44.869083252367986" lon="5.557485950222965"><ele>1133.5</ele><time>2026-04-28T12:25:34Z</time></trkpt><trkpt lat="44.86894439612582" lon="5.55741303272699"><ele>1133.75</ele><time>2026-04-28T12:25:35Z</time></trkpt><trkpt lat="44.86883801632884" lon="5.557299331952326"><ele>1134.0</ele><time>2026-04-28T12:25:36Z</time></trkpt><trkpt lat="44.86874337311258" lon="5.557194103357216"><ele>1134.0</ele><time>2026-04-28T12:25:37Z</time></trkpt><trkpt lat="44.868660880987036" lon="5.557079961804108"><ele>1134.0</ele><time>2026-04-28T12:25:38Z</time></trkpt><trkpt lat="44.86857196047954" lon="5.556979264927581"><ele>1134.0</ele><time>2026-04-28T12:25:39Z</time></trkpt><trkpt lat="44.86851519269746" lon="5.5568680217586"><ele>1134.0</ele><time>2026-04-28T12:25:40Z</time></trkpt><trkpt lat="44.868470371426156" lon="5.556753157439295"><ele>1134.0</ele><time>2026-04-28T12:25:41Z</time></trkpt><trkpt lat="44.86841795213917" lon="5.556651506564201"><ele>1132.8333333333333</ele><time>2026-04-28T12:25:42Z</time></trkpt><trkpt lat="44.868352387077316" lon="5.556585729749589"><ele>1131.6666666666667</ele><time>2026-04-28T12:25:43Z</time></trkpt><trkpt lat="44.86827333154248" lon="5.5565663061873005"><ele>1130.5</ele><time>2026-04-28T12:25:44Z</time></trkpt><trkpt lat="44.86819360495091" lon="5.556582915713128"><ele>1129.3333333333335</ele><time>2026-04-28T12:25:45Z</time></trkpt><trkpt lat="44.86813295092739" lon="5.556621206312637"><ele>1128.1666666666667</ele><time>2026-04-28T12:25:46Z</time></trkpt><trkpt lat="44.86808519885598" lon="5.556716990953159"><ele>1127.0</ele><time>2026-04-28T12:25:47Z</time></trkpt><trkpt lat="44.86808061619957" lon="5.556824748040646"><ele>1127.0</ele><time>2026-04-28T12:25:48Z</time></trkpt><trkpt lat="44.86805282368734" lon="5.556905914013761"><ele>1127.0</ele><time>2026-04-28T12:25:49Z</time></trkpt><trkpt lat="44.86803511347173" lon="5.557049817842568"><ele>1127.0</ele><time>2026-04-28T12:25:51Z</time></trkpt><trkpt lat="44.86800921345454" lon="5.557274073367399"><ele>1127.0</ele><time>2026-04-28T12:25:55Z</time></trkpt><trkpt lat="44.867995961162826" lon="5.557391740397575"><ele>1127.0</ele><time>2026-04-28T12:25:58Z</time></trkpt><trkpt lat="44.867984720665305" lon="5.557483932811889"><ele>1126.2</ele><time>2026-04-28T12:26:01Z</time></trkpt><trkpt lat="44.86796919731587" lon="5.557606886148421"><ele>1125.4</ele><time>2026-04-28T12:26:05Z</time></trkpt><trkpt lat="44.86795580266041" lon="5.557702127419029"><ele>1124.6</ele><time>2026-04-28T12:26:08Z</time></trkpt><trkpt lat="44.86793984915654" lon="5.557814565367492"><ele>1123.8</ele><time>2026-04-28T12:26:12Z</time></trkpt><trkpt lat="44.867941979788746" lon="5.558028260749929"><ele>1123.0</ele><time>2026-04-28T12:26:20.999Z</time></trkpt><trkpt lat="44.86797099420487" lon="5.558115354779714"><ele>1121.8333333333333</ele><time>2026-04-28T12:26:23.999Z</time></trkpt><trkpt lat="44.868004796630814" lon="5.558224329353398"><ele>1120.6666666666665</ele><time>2026-04-28T12:26:26.999Z</time></trkpt><trkpt lat="44.868013723350586" lon="5.558324130925583"><ele>1119.5</ele><time>2026-04-28T12:26:29.999Z</time></trkpt><trkpt lat="44.86802381391841" lon="5.558429000814695"><ele>1118.3333333333333</ele><time>2026-04-28T12:26:32.999Z</time></trkpt><trkpt lat="44.86798468823753" lon="5.5586187080212195"><ele>1117.1666666666667</ele><time>2026-04-28T12:26:38.999Z</time></trkpt><trkpt lat="44.86793009952859" lon="5.558685618839694"><ele>1116.0</ele><time>2026-04-28T12:26:41.999Z</time></trkpt><trkpt lat="44.867862793034796" lon="5.558711316010952"><ele>1115.3333333333333</ele><time>2026-04-28T12:26:44.999Z</time></trkpt><trkpt lat="44.86779720208325" lon="5.558714093166971"><ele>1114.6666666666667</ele><time>2026-04-28T12:26:47.999Z</time></trkpt><trkpt lat="44.86773421230619" lon="5.5587028867897725"><ele>1114.0</ele><time>2026-04-28T12:26:50.999Z</time></trkpt><trkpt lat="44.867659498318766" lon="5.558704317170467"><ele>1113.3333333333335</ele><time>2026-04-28T12:26:53.999Z</time></trkpt><trkpt lat="44.86751664357629" lon="5.558696278897381"><ele>1112.6666666666667</ele><time>2026-04-28T12:26:59.999Z</time></trkpt><trkpt lat="44.86744069987949" lon="5.558688475745821"><ele>1112.0</ele><time>2026-04-28T12:27:02.999Z</time></trkpt><trkpt lat="44.86736022465114" lon="5.558687723265716"><ele>1116.8333333333335</ele><time>2026-04-28T12:27:06Z</time></trkpt><trkpt lat="44.86728848620395" lon="5.5586860994393525"><ele>1121.6666666666667</ele><time>2026-04-28T12:27:09Z</time></trkpt><trkpt lat="44.86721316439185" lon="5.558676759158808"><ele>1126.5</ele><time>2026-04-28T12:27:12Z</time></trkpt><trkpt lat="44.867141760295986" lon="5.55868096247117"><ele>1131.3333333333333</ele><time>2026-04-28T12:27:15Z</time></trkpt><trkpt lat="44.866998450672284" lon="5.558681777088242"><ele>1136.1666666666665</ele><time>2026-04-28T12:27:21Z</time></trkpt><trkpt lat="44.866920004486296" lon="5.558662891207968"><ele>1141.0</ele><time>2026-04-28T12:27:24Z</time></trkpt><trkpt lat="44.866841639217355" lon="5.558665466486446"><ele>1140.6666666666665</ele><time>2026-04-28T12:27:27Z</time></trkpt><trkpt lat="44.86677485677552" lon="5.558677803126077"><ele>1140.3333333333333</ele><time>2026-04-28T12:27:30Z</time></trkpt><trkpt lat="44.866700765944806" lon="5.558676422386044"><ele>1140.0</ele><time>2026-04-28T12:27:33Z</time></trkpt><trkpt lat="44.86663159376146" lon="5.558701968441117"><ele>1139.6666666666667</ele><time>2026-04-28T12:27:36Z</time></trkpt><trkpt lat="44.866542247516406" lon="5.558846740255571"><ele>1139.3333333333335</ele><time>2026-04-28T12:27:42Z</time></trkpt><trkpt lat="44.866523740300764" lon="5.558958191075049"><ele>1139.0</ele><time>2026-04-28T12:27:45Z</time></trkpt><trkpt lat="44.8664947877581" lon="5.559066382277781"><ele>1139.0</ele><time>2026-04-28T12:27:48Z</time></trkpt><trkpt lat="44.86647488390441" lon="5.5591850013555355"><ele>1139.0</ele><time>2026-04-28T12:27:51Z</time></trkpt><trkpt lat="44.86643530173892" lon="5.559302999346924"><ele>1139.0</ele><time>2026-04-28T12:27:54Z</time></trkpt><trkpt lat="44.866394076753735" lon="5.559414790023609"><ele>1139.0</ele><time>2026-04-28T12:27:57Z</time></trkpt><trkpt lat="44.866317211644244" lon="5.559629867487174"><ele>1139.0</ele><time>2026-04-28T12:28:03Z</time></trkpt><trkpt lat="44.866274718236255" lon="5.559704435154496"><ele>1139.8333333333335</ele><time>2026-04-28T12:28:06Z</time></trkpt><trkpt lat="44.86622352482724" lon="5.559768796631194"><ele>1140.6666666666667</ele><time>2026-04-28T12:28:09Z</time></trkpt><trkpt lat="44.86616425025285" lon="5.559823735520543"><ele>1141.5</ele><time>2026-04-28T12:28:12Z</time></trkpt><trkpt lat="44.86609265072457" lon="5.559849597349833"><ele>1142.3333333333333</ele><time>2026-04-28T12:28:16Z</time></trkpt><trkpt lat="44.866039082990675" lon="5.5598967935213395"><ele>1143.1666666666665</ele><time>2026-04-28T12:28:19Z</time></trkpt><trkpt lat="44.865889936763296" lon="5.559909290500984"><ele>1144.0</ele><time>2026-04-28T12:28:26Z</time></trkpt><trkpt lat="44.86582708609565" lon="5.559892368234099"><ele>1145.3333333333333</ele><time>2026-04-28T12:28:29Z</time></trkpt><trkpt lat="44.86576381585876" lon="5.55984579489493"><ele>1146.6666666666665</ele><time>2026-04-28T12:28:31.999Z</time></trkpt><trkpt lat="44.865708156675026" lon="5.559781003564257"><ele>1148.0</ele><time>2026-04-28T12:28:34.999Z</time></trkpt><trkpt lat="44.86565482224307" lon="5.55970943066377"><ele>1149.3333333333333</ele><time>2026-04-28T12:28:37.999Z</time></trkpt><trkpt lat="44.865604422389666" lon="5.559625991289494"><ele>1150.6666666666667</ele><time>2026-04-28T12:28:40.999Z</time></trkpt><trkpt lat="44.86551019473244" lon="5.559459492144128"><ele>1152.0</ele><time>2026-04-28T12:28:46.999Z</time></trkpt><trkpt lat="44.86547538257982" lon="5.559368990048942"><ele>1152.0</ele><time>2026-04-28T12:28:49.999Z</time></trkpt><trkpt lat="44.8654626087733" lon="5.559264439404849"><ele>1152.0</ele><time>2026-04-28T12:28:52.999Z</time></trkpt><trkpt lat="44.86545449539476" lon="5.5591663552420965"><ele>1152.0</ele><time>2026-04-28T12:28:55.999Z</time></trkpt><trkpt lat="44.86546271347164" lon="5.559065365704766"><ele>1152.0</ele><time>2026-04-28T12:28:58.999Z</time></trkpt><trkpt lat="44.865468612039955" lon="5.558966749381021"><ele>1152.0</ele><time>2026-04-28T12:29:01.999Z</time></trkpt><trkpt lat="44.86552120121863" lon="5.558780658819837"><ele>1152.0</ele><time>2026-04-28T12:29:07.999Z</time></trkpt><trkpt lat="44.86556576534056" lon="5.55870695228865"><ele>1153.6</ele><time>2026-04-28T12:29:11Z</time></trkpt><trkpt lat="44.86563392327321" lon="5.558666428263766"><ele>1155.2</ele><time>2026-04-28T12:29:14Z</time></trkpt><trkpt lat="44.865691818401515" lon="5.558612086435922"><ele>1156.8</ele><time>2026-04-28T12:29:17Z</time></trkpt><trkpt lat="44.865738779507424" lon="5.558531867659705"><ele>1158.4</ele><time>2026-04-28T12:29:20Z</time></trkpt><trkpt lat="44.86570393276982" lon="5.5584253382008"><ele>1160.0</ele><time>2026-04-28T12:29:23Z</time></trkpt><trkpt lat="44.865549805932694" lon="5.558411792268151"><ele>1160.0</ele><time>2026-04-28T12:29:28Z</time></trkpt><trkpt lat="44.86548521525342" lon="5.558422884187508"><ele>1160.0</ele><time>2026-04-28T12:29:30Z</time></trkpt><trkpt lat="44.86539864903165" lon="5.558438790289207"><ele>1160.0</ele><time>2026-04-28T12:29:33Z</time></trkpt><trkpt lat="44.86532051921691" lon="5.558452634776814"><ele>1160.0</ele><time>2026-04-28T12:29:36Z</time></trkpt><trkpt lat="44.86524482877088" lon="5.558488004066832"><ele>1160.0</ele><time>2026-04-28T12:29:39Z</time></trkpt><trkpt lat="44.86516452098123" lon="5.5585294285283835"><ele>1160.0</ele><time>2026-04-28T12:29:42Z</time></trkpt><trkpt lat="44.86509244166139" lon="5.55860138941602"><ele>1161.4</ele><time>2026-04-28T12:29:45Z</time></trkpt><trkpt lat="44.864981247187316" lon="5.558764610200957"><ele>1162.8</ele><time>2026-04-28T12:29:51Z</time></trkpt><trkpt lat="44.86490630199914" lon="5.558843284475635"><ele>1164.2</ele><time>2026-04-28T12:29:54Z</time></trkpt><trkpt lat="44.86483708399354" lon="5.558870008170096"><ele>1165.6</ele><time>2026-04-28T12:29:56Z</time></trkpt><trkpt lat="44.86477254464896" lon="5.558880360219913"><ele>1167.0</ele><time>2026-04-28T12:29:58Z</time></trkpt><trkpt lat="44.86470067010457" lon="5.558907105093767"><ele>1167.0</ele><time>2026-04-28T12:30:00Z</time></trkpt><trkpt lat="44.86463063250418" lon="5.5589027605190475"><ele>1167.0</ele><time>2026-04-28T12:30:02Z</time></trkpt><trkpt lat="44.864555218149846" lon="5.558903337326662"><ele>1167.0</ele><time>2026-04-28T12:30:04Z</time></trkpt><trkpt lat="44.864480401001224" lon="5.558902726828709"><ele>1167.0</ele><time>2026-04-28T12:30:06Z</time></trkpt><trkpt lat="44.86434331828398" lon="5.55885108612268"><ele>1167.0</ele><time>2026-04-28T12:30:10Z</time></trkpt><trkpt lat="44.86426843060156" lon="5.558845703489877"><ele>1167.0</ele><time>2026-04-28T12:30:12Z</time></trkpt><trkpt lat="44.86419458002814" lon="5.5588322406776465"><ele>1167.0</ele><time>2026-04-28T12:30:14Z</time></trkpt><trkpt lat="44.86410844750242" lon="5.558796805353038"><ele>1167.0</ele><time>2026-04-28T12:30:16Z</time></trkpt><trkpt lat="44.863999066792594" lon="5.558784641178548"><ele>1167.0</ele><time>2026-04-28T12:30:18Z</time></trkpt><trkpt lat="44.863900781768166" lon="5.558742361428555"><ele>1167.0</ele><time>2026-04-28T12:30:20Z</time></trkpt><trkpt lat="44.863811368010474" lon="5.558668568940166"><ele>1167.0</ele><time>2026-04-28T12:30:22Z</time></trkpt><trkpt lat="44.863739862065444" lon="5.558571845994577"><ele>1168.4</ele><time>2026-04-28T12:30:24Z</time></trkpt><trkpt lat="44.86367162037529" lon="5.558464389062231"><ele>1169.8000000000002</ele><time>2026-04-28T12:30:26Z</time></trkpt><trkpt lat="44.86361147875436" lon="5.5583734373555655"><ele>1171.2</ele><time>2026-04-28T12:30:28Z</time></trkpt><trkpt lat="44.86350785539796" lon="5.5582067820376935"><ele>1172.6000000000001</ele><time>2026-04-28T12:30:31.999Z</time></trkpt><trkpt lat="44.86346627047835" lon="5.558139190502841"><ele>1174.0</ele><time>2026-04-28T12:30:33.999Z</time></trkpt><trkpt lat="44.86340433474407" lon="5.558070645383672"><ele>1173.0</ele><time>2026-04-28T12:31:04.999Z</time></trkpt><trkpt lat="44.863261083628736" lon="5.557886367831113"><ele>1172.0</ele><time>2026-04-28T12:31:08.999Z</time></trkpt><trkpt lat="44.86321581587498" lon="5.557817414679518"><ele>1171.0</ele><time>2026-04-28T12:31:09.999Z</time></trkpt><trkpt lat="44.863167367972686" lon="5.5577418623340735"><ele>1170.0</ele><time>2026-04-28T12:31:10.999Z</time></trkpt><trkpt lat="44.863112307219446" lon="5.5576671998382885"><ele>1169.0</ele><time>2026-04-28T12:31:11.999Z</time></trkpt><trkpt lat="44.8630510439575" lon="5.557584808699643"><ele>1169.0</ele><time>2026-04-28T12:31:12.999Z</time></trkpt><trkpt lat="44.86298937798108" lon="5.557500021412303"><ele>1169.0</ele><time>2026-04-28T12:31:13.999Z</time></trkpt><trkpt lat="44.8629165226136" lon="5.557422796436497"><ele>1169.0</ele><time>2026-04-28T12:31:14.999Z</time></trkpt><trkpt lat="44.86283485037992" lon="5.557348369476907"><ele>1169.0</ele><time>2026-04-28T12:31:15.999Z</time></trkpt><trkpt lat="44.86274517837698" lon="5.557275488198984"><ele>1169.0</ele><time>2026-04-28T12:31:17Z</time></trkpt><trkpt lat="44.862653121732855" lon="5.557192059721836"><ele>1166.75</ele><time>2026-04-28T12:31:18Z</time></trkpt><trkpt lat="44.86255793402979" lon="5.557103237154559"><ele>1164.5</ele><time>2026-04-28T12:31:19Z</time></trkpt><trkpt lat="44.86246165567216" lon="5.557013489378517"><ele>1162.25</ele><time>2026-04-28T12:31:20Z</time></trkpt><trkpt lat="44.86235953317401" lon="5.556927860902341"><ele>1160.0</ele><time>2026-04-28T12:31:21Z</time></trkpt><trkpt lat="44.86224954479123" lon="5.556839005035805"><ele>1160.0</ele><time>2026-04-28T12:31:22Z</time></trkpt><trkpt lat="44.862135252540476" lon="5.556764450730199"><ele>1160.0</ele><time>2026-04-28T12:31:23Z</time></trkpt><trkpt lat="44.86201900675057" lon="5.556719326018201"><ele>1160.0</ele><time>2026-04-28T12:31:24Z</time></trkpt><trkpt lat="44.86189686577991" lon="5.556686169895524"><ele>1160.0</ele><time>2026-04-28T12:31:25Z</time></trkpt><trkpt lat="44.86178586389858" lon="5.556667673182007"><ele>1157.25</ele><time>2026-04-28T12:31:26Z</time></trkpt><trkpt lat="44.861591908311766" lon="5.55669869246202"><ele>1154.5</ele><time>2026-04-28T12:31:28Z</time></trkpt><trkpt lat="44.861511778471616" lon="5.5567804456774805"><ele>1151.75</ele><time>2026-04-28T12:31:29Z</time></trkpt><trkpt lat="44.8614547924184" lon="5.556912050498835"><ele>1149.0</ele><time>2026-04-28T12:31:30Z</time></trkpt><trkpt lat="44.86144013570572" lon="5.557072605687129"><ele>1144.75</ele><time>2026-04-28T12:31:31Z</time></trkpt><trkpt lat="44.86144425592579" lon="5.557226368049449"><ele>1140.5</ele><time>2026-04-28T12:31:32Z</time></trkpt><trkpt lat="44.86143624635065" lon="5.557377467225045"><ele>1136.25</ele><time>2026-04-28T12:31:33Z</time></trkpt><trkpt lat="44.861419444824044" lon="5.5575441456816"><ele>1132.0</ele><time>2026-04-28T12:31:34Z</time></trkpt><trkpt lat="44.861387170836494" lon="5.557699848045506"><ele>1132.0</ele><time>2026-04-28T12:31:35Z</time></trkpt><trkpt lat="44.86134340739999" lon="5.557859238006956"><ele>1132.0</ele><time>2026-04-28T12:31:36Z</time></trkpt><trkpt lat="44.86128997422788" lon="5.558009977215627"><ele>1132.0</ele><time>2026-04-28T12:31:37Z</time></trkpt><trkpt lat="44.86121834266955" lon="5.558118526881237"><ele>1132.0</ele><time>2026-04-28T12:31:38Z</time></trkpt><trkpt lat="44.86112652690004" lon="5.558215622326324"><ele>1129.5</ele><time>2026-04-28T12:31:39Z</time></trkpt><trkpt lat="44.86101349089661" lon="5.558254534965041"><ele>1127.0</ele><time>2026-04-28T12:31:40Z</time></trkpt><trkpt lat="44.86089866569271" lon="5.558303959463658"><ele>1124.5</ele><time>2026-04-28T12:31:41Z</time></trkpt><trkpt lat="44.86078289884113" lon="5.5583240420933215"><ele>1122.0</ele><time>2026-04-28T12:31:42Z</time></trkpt><trkpt lat="44.860661728694744" lon="5.558299631773511"><ele>1122.0</ele><time>2026-04-28T12:31:43Z</time></trkpt><trkpt lat="44.86053171002302" lon="5.558270144198523"><ele>1122.0</ele><time>2026-04-28T12:31:44Z</time></trkpt><trkpt lat="44.86039637366526" lon="5.558255939811773"><ele>1122.0</ele><time>2026-04-28T12:31:45Z</time></trkpt><trkpt lat="44.86026510295928" lon="5.558218054630543"><ele>1122.0</ele><time>2026-04-28T12:31:46Z</time></trkpt><trkpt lat="44.86013242937522" lon="5.558186971326613"><ele>1120.0</ele><time>2026-04-28T12:31:47Z</time></trkpt><trkpt lat="44.859882713494954" lon="5.558240155930255"><ele>1118.0</ele><time>2026-04-28T12:31:49Z</time></trkpt><trkpt lat="44.859791572162386" lon="5.558315754432584"><ele>1116.0</ele><time>2026-04-28T12:31:50Z</time></trkpt><trkpt lat="44.85971636370825" lon="5.558378847122275"><ele>1114.0</ele><time>2026-04-28T12:31:51Z</time></trkpt><trkpt lat="44.85963143710331" lon="5.558467621101099"><ele>1114.0</ele><time>2026-04-28T12:31:53Z</time></trkpt><trkpt lat="44.85966952038158" lon="5.558593630659209"><ele>1114.0</ele><time>2026-04-28T12:31:55Z</time></trkpt><trkpt lat="44.859724136824845" lon="5.558654700337697"><ele>1114.0</ele><time>2026-04-28T12:31:56Z</time></trkpt><trkpt lat="44.859780668775116" lon="5.558708617507274"><ele>1114.0</ele><time>2026-04-28T12:31:57Z</time></trkpt><trkpt lat="44.8598357788024" lon="5.558774493153348"><ele>1114.0</ele><time>2026-04-28T12:31:58Z</time></trkpt><trkpt lat="44.85988717094782" lon="5.558848790225866"><ele>1114.0</ele><time>2026-04-28T12:31:59Z</time></trkpt><trkpt lat="44.85995575399245" lon="5.5589301284119035"><ele>1110.6000000000001</ele><time>2026-04-28T12:32:00Z</time></trkpt><trkpt lat="44.86003324697229" lon="5.559004017958621"><ele>1107.2</ele><time>2026-04-28T12:32:01Z</time></trkpt><trkpt lat="44.86011607940625" lon="5.559075124709598"><ele>1103.8000000000002</ele><time>2026-04-28T12:32:02Z</time></trkpt><trkpt lat="44.86020911635801" lon="5.559147467357274"><ele>1100.4</ele><time>2026-04-28T12:32:03Z</time></trkpt><trkpt lat="44.86031370298214" lon="5.559202190774228"><ele>1097.0</ele><time>2026-04-28T12:32:04Z</time></trkpt><trkpt lat="44.860427157509655" lon="5.559242972184469"><ele>1096.75</ele><time>2026-04-28T12:32:05Z</time></trkpt><trkpt lat="44.86054484826755" lon="5.559266944280782"><ele>1096.5</ele><time>2026-04-28T12:32:06Z</time></trkpt><trkpt lat="44.86066775225038" lon="5.559284549318787"><ele>1096.25</ele><time>2026-04-28T12:32:07Z</time></trkpt><trkpt lat="44.86079138232352" lon="5.559295740339776"><ele>1096.0</ele><time>2026-04-28T12:32:08Z</time></trkpt><trkpt lat="44.86105968056721" lon="5.559321939924924"><ele>1095.0</ele><time>2026-04-28T12:32:10Z</time></trkpt><trkpt lat="44.86119688628454" lon="5.559340242492506"><ele>1094.0</ele><time>2026-04-28T12:32:11Z</time></trkpt><trkpt lat="44.861332031303114" lon="5.5593632184916055"><ele>1093.0</ele><time>2026-04-28T12:32:12Z</time></trkpt><trkpt lat="44.8614652656971" lon="5.55939119618637"><ele>1092.0</ele><time>2026-04-28T12:32:13Z</time></trkpt><trkpt lat="44.86160359857494" lon="5.5594289897374205"><ele>1092.0</ele><time>2026-04-28T12:32:14Z</time></trkpt><trkpt lat="44.861731978367814" lon="5.559520144682619"><ele>1092.0</ele><time>2026-04-28T12:32:15Z</time></trkpt><trkpt lat="44.861857172408186" lon="5.559604337176811"><ele>1092.0</ele><time>2026-04-28T12:32:16Z</time></trkpt><trkpt lat="44.861982304297854" lon="5.559697077306138"><ele>1092.0</ele><time>2026-04-28T12:32:17Z</time></trkpt><trkpt lat="44.86211614463938" lon="5.5597723514482"><ele>1092.5</ele><time>2026-04-28T12:32:18Z</time></trkpt><trkpt lat="44.862242163795834" lon="5.559878368100414"><ele>1093.0</ele><time>2026-04-28T12:32:19Z</time></trkpt><trkpt lat="44.86236654496343" lon="5.559982946619594"><ele>1093.5</ele><time>2026-04-28T12:32:20Z</time></trkpt><trkpt lat="44.86249041535472" lon="5.560091805972352"><ele>1094.0</ele><time>2026-04-28T12:32:21Z</time></trkpt><trkpt lat="44.86261483364465" lon="5.560203992692667"><ele>1091.75</ele><time>2026-04-28T12:32:22Z</time></trkpt><trkpt lat="44.862724596580115" lon="5.560332479702016"><ele>1089.5</ele><time>2026-04-28T12:32:23Z</time></trkpt><trkpt lat="44.86283363209836" lon="5.5604677755874095"><ele>1087.25</ele><time>2026-04-28T12:32:24Z</time></trkpt><trkpt lat="44.86294376090867" lon="5.560600890570573"><ele>1085.0</ele><time>2026-04-28T12:32:25Z</time></trkpt><trkpt lat="44.86305251396278" lon="5.5607287621251125"><ele>1085.0</ele><time>2026-04-28T12:32:25.999Z</time></trkpt><trkpt lat="44.863161553287355" lon="5.560860888202806"><ele>1085.0</ele><time>2026-04-28T12:32:26.999Z</time></trkpt><trkpt lat="44.86327059549907" lon="5.560989116770284"><ele>1085.0</ele><time>2026-04-28T12:32:27.999Z</time></trkpt><trkpt lat="44.86338478603394" lon="5.561124905978396"><ele>1085.0</ele><time>2026-04-28T12:32:28.999Z</time></trkpt><trkpt lat="44.86359006621961" lon="5.561377847780976"><ele>1082.6</ele><time>2026-04-28T12:32:30.999Z</time></trkpt><trkpt lat="44.86368987246987" lon="5.5614695344122405"><ele>1080.2</ele><time>2026-04-28T12:32:31.999Z</time></trkpt><trkpt lat="44.863792896343874" lon="5.561513211800496"><ele>1077.8</ele><time>2026-04-28T12:32:32.999Z</time></trkpt><trkpt lat="44.86387822576424" lon="5.561583400491313"><ele>1075.4</ele><time>2026-04-28T12:32:33.999Z</time></trkpt><trkpt lat="44.863949231849325" lon="5.56166820430527"><ele>1073.0</ele><time>2026-04-28T12:32:34.999Z</time></trkpt><trkpt lat="44.86397551245632" lon="5.561806155094133"><ele>1073.0</ele><time>2026-04-28T12:32:35.999Z</time></trkpt><trkpt lat="44.86402075681325" lon="5.561946372538665"><ele>1073.0</ele><time>2026-04-28T12:32:36.999Z</time></trkpt><trkpt lat="44.86407074245612" lon="5.5620777041235465"><ele>1073.0</ele><time>2026-04-28T12:32:37.999Z</time></trkpt><trkpt lat="44.86413995717247" lon="5.562194562415667"><ele>1073.0</ele><time>2026-04-28T12:32:38.999Z</time></trkpt><trkpt lat="44.86424293724652" lon="5.562273765623121"><ele>1073.0</ele><time>2026-04-28T12:32:39.999Z</time></trkpt><trkpt lat="44.86434903366267" lon="5.562330672157217"><ele>1071.8</ele><time>2026-04-28T12:32:40.999Z</time></trkpt><trkpt lat="44.86445761677911" lon="5.562363118734635"><ele>1070.6</ele><time>2026-04-28T12:32:41.999Z</time></trkpt><trkpt lat="44.86456031973996" lon="5.562389119422895"><ele>1069.4</ele><time>2026-04-28T12:32:42.999Z</time></trkpt><trkpt lat="44.864664746865586" lon="5.562437960610972"><ele>1068.2</ele><time>2026-04-28T12:32:43.999Z</time></trkpt><trkpt lat="44.86475541982024" lon="5.562537672811621"><ele>1067.0</ele><time>2026-04-28T12:32:44.999Z</time></trkpt><trkpt lat="44.8648388327422" lon="5.562638804691208"><ele>1067.0</ele><time>2026-04-28T12:32:45.999Z</time></trkpt><trkpt lat="44.86490063362737" lon="5.562765334895389"><ele>1067.0</ele><time>2026-04-28T12:32:46.999Z</time></trkpt><trkpt lat="44.86495816576853" lon="5.562898501283892"><ele>1067.0</ele><time>2026-04-28T12:32:47.999Z</time></trkpt><trkpt lat="44.86500858466169" lon="5.5630288072794665"><ele>1067.0</ele><time>2026-04-28T12:32:48.999Z</time></trkpt><trkpt lat="44.86506626522598" lon="5.56316656350991"><ele>1067.0</ele><time>2026-04-28T12:32:49.999Z</time></trkpt><trkpt lat="44.865150629561754" lon="5.563474525860152"><ele>1066.6</ele><time>2026-04-28T12:32:51.999Z</time></trkpt><trkpt lat="44.8652009337176" lon="5.563611822294719"><ele>1066.2</ele><time>2026-04-28T12:32:52.999Z</time></trkpt><trkpt lat="44.86525100549967" lon="5.563718434640391"><ele>1065.8</ele><time>2026-04-28T12:32:53.999Z</time></trkpt><trkpt lat="44.86530667523027" lon="5.563834353558377"><ele>1065.4</ele><time>2026-04-28T12:32:54.999Z</time></trkpt><trkpt lat="44.86538858149195" lon="5.563872529696633"><ele>1065.0</ele><time>2026-04-28T12:32:55.999Z</time></trkpt><trkpt lat="44.865491043039796" lon="5.563914559867713"><ele>1065.0</ele><time>2026-04-28T12:32:56.999Z</time></trkpt><trkpt lat="44.86556941474389" lon="5.563970192680467"><ele>1065.0</ele><time>2026-04-28T12:32:57.999Z</time></trkpt><trkpt lat="44.86566282398406" lon="5.564066970173123"><ele>1065.0</ele><time>2026-04-28T12:32:58.999Z</time></trkpt><trkpt lat="44.86575279648742" lon="5.564133256301439"><ele>1065.0</ele><time>2026-04-28T12:32:59.999Z</time></trkpt><trkpt lat="44.86585498525872" lon="5.564188442091151"><ele>1065.0</ele><time>2026-04-28T12:33:00.999Z</time></trkpt><trkpt lat="44.86599425470517" lon="5.564140133361705"><ele>1061.0</ele><time>2026-04-28T12:33:01.999Z</time></trkpt><trkpt lat="44.866106597338586" lon="5.564068564369245"><ele>1057.0</ele><time>2026-04-28T12:33:02.999Z</time></trkpt><trkpt lat="44.8661912967958" lon="5.564023736718641"><ele>1053.0</ele><time>2026-04-28T12:33:03.999Z</time></trkpt><trkpt lat="44.86629470119617" lon="5.564018717960715"><ele>1049.0</ele><time>2026-04-28T12:33:04.999Z</time></trkpt><trkpt lat="44.86639164431799" lon="5.564086057536795"><ele>1045.0</ele><time>2026-04-28T12:33:05.999Z</time></trkpt><trkpt lat="44.86648171022345" lon="5.56415891879339"><ele>1045.0</ele><time>2026-04-28T12:33:06.999Z</time></trkpt><trkpt lat="44.86659522516323" lon="5.564257400448254"><ele>1045.0</ele><time>2026-04-28T12:33:07.999Z</time></trkpt><trkpt lat="44.86669782684937" lon="5.564346638776663"><ele>1045.0</ele><time>2026-04-28T12:33:08.999Z</time></trkpt><trkpt lat="44.86678645780199" lon="5.5644448688445145"><ele>1045.0</ele><time>2026-04-28T12:33:09.999Z</time></trkpt><trkpt lat="44.86683594035885" lon="5.564575287750587"><ele>1040.3333333333333</ele><time>2026-04-28T12:33:10.999Z</time></trkpt><trkpt lat="44.86695177850551" lon="5.5648854882619485"><ele>1035.6666666666667</ele><time>2026-04-28T12:33:12.999Z</time></trkpt><trkpt lat="44.86700901274869" lon="5.565039292625781"><ele>1031.0</ele><time>2026-04-28T12:33:13.999Z</time></trkpt><trkpt lat="44.86705643127547" lon="5.565190818999229"><ele>1031.0</ele><time>2026-04-28T12:33:14.999Z</time></trkpt><trkpt lat="44.867131168923244" lon="5.565335060419829"><ele>1031.0</ele><time>2026-04-28T12:33:15.999Z</time></trkpt><trkpt lat="44.867218862733544" lon="5.565470342639014"><ele>1031.0</ele><time>2026-04-28T12:33:16.999Z</time></trkpt><trkpt lat="44.86733433437089" lon="5.565567979785196"><ele>1031.0</ele><time>2026-04-28T12:33:17.999Z</time></trkpt><trkpt lat="44.86749725548932" lon="5.5656361159876"><ele>1034.75</ele><time>2026-04-28T12:33:18.999Z</time></trkpt><trkpt lat="44.86757599461841" lon="5.565725098373748"><ele>1038.5</ele><time>2026-04-28T12:33:19.999Z</time></trkpt><trkpt lat="44.86769171056359" lon="5.565798597242986"><ele>1042.25</ele><time>2026-04-28T12:33:20.999Z</time></trkpt><trkpt lat="44.86781482238271" lon="5.5658636462790545"><ele>1046.0</ele><time>2026-04-28T12:33:21.999Z</time></trkpt><trkpt lat="44.867934575728235" lon="5.565947424534414"><ele>1039.3999999999999</ele><time>2026-04-28T12:33:23Z</time></trkpt><trkpt lat="44.868055865817674" lon="5.566005534579251"><ele>1032.8</ele><time>2026-04-28T12:33:24Z</time></trkpt><trkpt lat="44.86814206600371" lon="5.5660685861452"><ele>1026.1999999999998</ele><time>2026-04-28T12:33:25Z</time></trkpt><trkpt lat="44.8682247241319" lon="5.56608339633016"><ele>1019.5999999999999</ele><time>2026-04-28T12:33:26Z</time></trkpt><trkpt lat="44.8683311693319" lon="5.566061969972475"><ele>1013.0</ele><time>2026-04-28T12:33:27Z</time></trkpt><trkpt lat="44.86842636098588" lon="5.566066558696394"><ele>1010.8</ele><time>2026-04-28T12:33:28Z</time></trkpt><trkpt lat="44.868521554297566" lon="5.566111433075462"><ele>1008.5999999999999</ele><time>2026-04-28T12:33:29Z</time></trkpt><trkpt lat="44.86859429288893" lon="5.566226147961607"><ele>1006.4000000000001</ele><time>2026-04-28T12:33:30Z</time></trkpt><trkpt lat="44.868639122063655" lon="5.566382847142168"><ele>1004.2</ele><time>2026-04-28T12:33:31Z</time></trkpt><trkpt lat="44.86871189759787" lon="5.566511325264388"><ele>1002.0</ele><time>2026-04-28T12:33:32Z</time></trkpt><trkpt lat="44.868898832459905" lon="5.566650736538628"><ele>1002.0</ele><time>2026-04-28T12:33:34Z</time></trkpt><trkpt lat="44.86897241766775" lon="5.5667338826060035"><ele>1002.0</ele><time>2026-04-28T12:33:35Z</time></trkpt><trkpt lat="44.86905622311494" lon="5.566846558844177"><ele>1002.0</ele><time>2026-04-28T12:33:36Z</time></trkpt><trkpt lat="44.869121491651306" lon="5.566989560776305"><ele>1002.0</ele><time>2026-04-28T12:33:37Z</time></trkpt><trkpt lat="44.86914828162903" lon="5.56714923507157"><ele>1002.0</ele><time>2026-04-28T12:33:38Z</time></trkpt><trkpt lat="44.869158776689574" lon="5.567321554784415"><ele>1005.5</ele><time>2026-04-28T12:33:39Z</time></trkpt><trkpt lat="44.869173056002595" lon="5.567494355984218"><ele>1009.0</ele><time>2026-04-28T12:33:40Z</time></trkpt><trkpt lat="44.869198424757265" lon="5.56767356059852"><ele>1012.5</ele><time>2026-04-28T12:33:41Z</time></trkpt><trkpt lat="44.86919748294768" lon="5.567852413342239"><ele>1016.0</ele><time>2026-04-28T12:33:42Z</time></trkpt><trkpt lat="44.86920177796809" lon="5.568032108120612"><ele>1015.5</ele><time>2026-04-28T12:33:43Z</time></trkpt><trkpt lat="44.869188817249174" lon="5.568206541597672"><ele>1015.0</ele><time>2026-04-28T12:33:44Z</time></trkpt><trkpt lat="44.869154250583684" lon="5.568375027654828"><ele>1014.5</ele><time>2026-04-28T12:33:45Z</time></trkpt><trkpt lat="44.86915050056328" lon="5.568536914255727"><ele>1014.0</ele><time>2026-04-28T12:33:46Z</time></trkpt><trkpt lat="44.86917128322595" lon="5.568709517623081"><ele>1014.0</ele><time>2026-04-28T12:33:47Z</time></trkpt><trkpt lat="44.8691785944021" lon="5.568872277260226"><ele>1014.0000000000001</ele><time>2026-04-28T12:33:48Z</time></trkpt><trkpt lat="44.869179490310245" lon="5.5690199497540585"><ele>1014.0000000000001</ele><time>2026-04-28T12:33:49Z</time></trkpt><trkpt lat="44.869162756455346" lon="5.569151072605293"><ele>1014.0</ele><time>2026-04-28T12:33:50Z</time></trkpt><trkpt lat="44.869123661337916" lon="5.569295608823533"><ele>1014.0</ele><time>2026-04-28T12:33:51Z</time></trkpt><trkpt lat="44.86907970929099" lon="5.56945641981015"><ele>1008.6666666666667</ele><time>2026-04-28T12:33:52Z</time></trkpt><trkpt lat="44.86903062402426" lon="5.569620545231768"><ele>1003.3333333333334</ele><time>2026-04-28T12:33:53Z</time></trkpt><trkpt lat="44.86890229075194" lon="5.569920812277556"><ele>998.0</ele><time>2026-04-28T12:33:55Z</time></trkpt><trkpt lat="44.86883823628021" lon="5.570062517432277"><ele>998.0</ele><time>2026-04-28T12:33:56Z</time></trkpt><trkpt lat="44.86879749091848" lon="5.57020760001895"><ele>998.0</ele><time>2026-04-28T12:33:57Z</time></trkpt><trkpt lat="44.86876452780061" lon="5.570345955236248"><ele>998.0</ele><time>2026-04-28T12:33:58Z</time></trkpt><trkpt lat="44.868721809437616" lon="5.5704656831448585"><ele>998.0</ele><time>2026-04-28T12:33:59Z</time></trkpt><trkpt lat="44.86869517430719" lon="5.570571184374711"><ele>998.0</ele><time>2026-04-28T12:34:00Z</time></trkpt><trkpt lat="44.86864947262287" lon="5.570680236766487"><ele>995.0000000000001</ele><time>2026-04-28T12:34:01Z</time></trkpt><trkpt lat="44.86859743247854" lon="5.570768954758299"><ele>992.0</ele><time>2026-04-28T12:34:02Z</time></trkpt><trkpt lat="44.8685472918991" lon="5.570831447196645"><ele>989.0</ele><time>2026-04-28T12:34:03Z</time></trkpt><trkpt lat="44.868545170186074" lon="5.570969665644747"><ele>986.0</ele><time>2026-04-28T12:34:05Z</time></trkpt><trkpt lat="44.86860022710539" lon="5.571042936900909"><ele>983.0000000000001</ele><time>2026-04-28T12:34:06Z</time></trkpt><trkpt lat="44.86869711506182" lon="5.571034544215962"><ele>980.0</ele><time>2026-04-28T12:34:08Z</time></trkpt><trkpt lat="44.86874861836026" lon="5.570947338272821"><ele>980.0</ele><time>2026-04-28T12:34:10Z</time></trkpt><trkpt lat="44.8686999610307" lon="5.571016659224847"><ele>980.0</ele><time>2026-04-28T12:34:13Z</time></trkpt><trkpt lat="44.86857107014291" lon="5.570861294568999"><ele>980.0</ele><time>2026-04-28T12:36:29.999Z</time></trkpt><trkpt lat="44.86865380773852" lon="5.5706945454462415"><ele>980.0</ele><time>2026-04-28T12:36:50.999Z</time></trkpt><trkpt lat="44.868734824776666" lon="5.5704882829388795"><ele>980.0</ele><time>2026-04-28T12:36:59.999Z</time></trkpt><trkpt lat="44.868784529988204" lon="5.570381302943735"><ele>980.0</ele><time>2026-04-28T12:37:02.999Z</time></trkpt><trkpt lat="44.86879522786887" lon="5.570277960567711"><ele>980.0</ele><time>2026-04-28T12:37:05.999Z</time></trkpt><trkpt lat="44.86879313190273" lon="5.570182931683675"><ele>980.0</ele><time>2026-04-28T12:37:09.999Z</time></trkpt><trkpt lat="44.86877938568299" lon="5.570284267898674"><ele>980.0</ele><time>2026-04-28T12:37:12.999Z</time></trkpt><trkpt lat="44.8687001556868" lon="5.570501707729236"><ele>980.0</ele><time>2026-04-28T12:37:15.999Z</time></trkpt><trkpt lat="44.86866660696201" lon="5.570593739827298"><ele>980.0</ele><time>2026-04-28T12:37:16.999Z</time></trkpt><trkpt lat="44.86862442824434" lon="5.570687347774713"><ele>980.0</ele><time>2026-04-28T12:37:17.999Z</time></trkpt><trkpt lat="44.86857812487908" lon="5.570777029035535"><ele>980.0</ele><time>2026-04-28T12:37:18.999Z</time></trkpt><trkpt lat="44.86855761989489" lon="5.5708617574183386"><ele>980.0</ele><time>2026-04-28T12:37:19.999Z</time></trkpt><trkpt lat="44.86857949067585" lon="5.57094531707786"><ele>980.0</ele><time>2026-04-28T12:37:20.999Z</time></trkpt><trkpt lat="44.86863528001072" lon="5.571004165571545"><ele>980.0</ele><time>2026-04-28T12:37:21.999Z</time></trkpt><trkpt lat="44.86872300806669" lon="5.5710280689511125"><ele>980.0000000000001</ele><time>2026-04-28T12:37:22.999Z</time></trkpt><trkpt lat="44.86877032867381" lon="5.570955936180049"><ele>980.0</ele><time>2026-04-28T12:37:24.999Z</time></trkpt><trkpt lat="44.8687748833849" lon="5.570850192814665"><ele>980.0</ele><time>2026-04-28T12:37:26.999Z</time></trkpt><trkpt lat="44.86879498775852" lon="5.570726838363815"><ele>980.0</ele><time>2026-04-28T12:37:28.999Z</time></trkpt><trkpt lat="44.86883993568162" lon="5.570611299196657"><ele>980.0000000000001</ele><time>2026-04-28T12:37:31.999Z</time></trkpt><trkpt lat="44.86885564448011" lon="5.570503019942123"><ele>980.0</ele><time>2026-04-28T12:37:33.999Z</time></trkpt><trkpt lat="44.86888583174834" lon="5.570404908197611"><ele>980.0</ele><time>2026-04-28T12:37:37Z</time></trkpt><trkpt lat="44.86884118207085" lon="5.570579741640799"><ele>980.0</ele><time>2026-04-28T12:37:49Z</time></trkpt><trkpt lat="44.86877425998361" lon="5.570607562589452"><ele>980.0</ele><time>2026-04-28T12:37:52Z</time></trkpt><trkpt lat="44.86874769665842" lon="5.570728825375027"><ele>980.0</ele><time>2026-04-28T12:37:56Z</time></trkpt><trkpt lat="44.868715137970064" lon="5.570837107046888"><ele>980.0</ele><time>2026-04-28T12:37:59Z</time></trkpt><trkpt lat="44.8686035144396" lon="5.570935867538299"><ele>980.0</ele><time>2026-04-28T12:38:05Z</time></trkpt><trkpt lat="44.8686870086631" lon="5.570991899987991"><ele>980.0</ele><time>2026-04-28T12:38:35Z</time></trkpt><trkpt lat="44.86878433047882" lon="5.570735919632741"><ele>980.0</ele><time>2026-04-28T12:38:40.999Z</time></trkpt><trkpt lat="44.86880784536236" lon="5.570588612739701"><ele>980.0</ele><time>2026-04-28T12:38:42.999Z</time></trkpt><trkpt lat="44.86886529826108" lon="5.570422299484559"><ele>983.0000000000001</ele><time>2026-04-28T12:38:44.999Z</time></trkpt><trkpt lat="44.86889759528811" lon="5.570333517907937"><ele>986.0</ele><time>2026-04-28T12:38:45.999Z</time></trkpt><trkpt lat="44.86892687284988" lon="5.570230068228963"><ele>989.0</ele><time>2026-04-28T12:38:46.999Z</time></trkpt><trkpt lat="44.86895085786214" lon="5.570122028328994"><ele>992.0</ele><time>2026-04-28T12:38:47.999Z</time></trkpt><trkpt lat="44.86900582048555" lon="5.570027270815994"><ele>995.0000000000001</ele><time>2026-04-28T12:38:48.999Z</time></trkpt><trkpt lat="44.86908913071375" lon="5.569937308459636"><ele>998.0</ele><time>2026-04-28T12:38:49.999Z</time></trkpt><trkpt lat="44.86916713317255" lon="5.569834659432442"><ele>998.0</ele><time>2026-04-28T12:38:50.999Z</time></trkpt><trkpt lat="44.86925396368263" lon="5.569744218639191"><ele>998.0</ele><time>2026-04-28T12:38:51.999Z</time></trkpt><trkpt lat="44.86931661715219" lon="5.569616159335034"><ele>998.0</ele><time>2026-04-28T12:38:52.999Z</time></trkpt><trkpt lat="44.86937861219425" lon="5.569484053201634"><ele>998.0</ele><time>2026-04-28T12:38:53.999Z</time></trkpt><trkpt lat="44.86943894513517" lon="5.569342608349239"><ele>998.0</ele><time>2026-04-28T12:38:54.999Z</time></trkpt><trkpt lat="44.869494263984336" lon="5.569200682726027"><ele>989.3333333333334</ele><time>2026-04-28T12:38:55.999Z</time></trkpt><trkpt lat="44.86953866507025" lon="5.568869767866398"><ele>980.6666666666667</ele><time>2026-04-28T12:38:57.999Z</time></trkpt><trkpt lat="44.86954669024377" lon="5.568698181711553"><ele>972.0</ele><time>2026-04-28T12:38:58.999Z</time></trkpt><trkpt lat="44.869577436896456" lon="5.568538827446713"><ele>972.25</ele><time>2026-04-28T12:38:59.999Z</time></trkpt><trkpt lat="44.869599513224834" lon="5.568355458061157"><ele>972.5</ele><time>2026-04-28T12:39:00.999Z</time></trkpt><trkpt lat="44.869615915499324" lon="5.568179910713194"><ele>972.75</ele><time>2026-04-28T12:39:01.999Z</time></trkpt><trkpt lat="44.869642465641654" lon="5.567998473423725"><ele>973.0</ele><time>2026-04-28T12:39:02.999Z</time></trkpt><trkpt lat="44.86967697796584" lon="5.567823397422647"><ele>973.0</ele><time>2026-04-28T12:39:03.999Z</time></trkpt><trkpt lat="44.86971131641077" lon="5.567644308733058"><ele>973.0</ele><time>2026-04-28T12:39:04.999Z</time></trkpt><trkpt lat="44.86973825756609" lon="5.567488979383052"><ele>973.0</ele><time>2026-04-28T12:39:05.999Z</time></trkpt><trkpt lat="44.86976971872345" lon="5.567361501210382"><ele>973.0</ele><time>2026-04-28T12:39:06.999Z</time></trkpt><trkpt lat="44.86977711348153" lon="5.567250742467292"><ele>973.0</ele><time>2026-04-28T12:39:07.999Z</time></trkpt><trkpt lat="44.86978993925715" lon="5.567160722090387"><ele>973.0</ele><time>2026-04-28T12:39:08.999Z</time></trkpt><trkpt lat="44.869861710768824" lon="5.567031306046743"><ele>973.0</ele><time>2026-04-28T12:39:10.999Z</time></trkpt><trkpt lat="44.86990800200421" lon="5.56697033386751"><ele>973.0</ele><time>2026-04-28T12:39:11.999Z</time></trkpt><trkpt lat="44.869962865324815" lon="5.566912999576017"><ele>973.0</ele><time>2026-04-28T12:39:12.999Z</time></trkpt><trkpt lat="44.870055070430276" lon="5.566829267873928"><ele>973.0</ele><time>2026-04-28T12:39:14.999Z</time></trkpt><trkpt lat="44.87015562257664" lon="5.566927274907799"><ele>978.25</ele><time>2026-04-28T12:39:16.999Z</time></trkpt><trkpt lat="44.87031058387029" lon="5.567201219207033"><ele>983.5</ele><time>2026-04-28T12:39:20.999Z</time></trkpt><trkpt lat="44.870357976061086" lon="5.567276992921491"><ele>988.75</ele><time>2026-04-28T12:39:21.999Z</time></trkpt><trkpt lat="44.87040107659981" lon="5.567349097011724"><ele>994.0</ele><time>2026-04-28T12:39:22.999Z</time></trkpt><trkpt lat="44.870455112708406" lon="5.567414515704579"><ele>993.9999999999999</ele><time>2026-04-28T12:39:23.999Z</time></trkpt><trkpt lat="44.87049999113548" lon="5.56749841913515"><ele>994.0</ele><time>2026-04-28T12:39:24.999Z</time></trkpt><trkpt lat="44.870535089600075" lon="5.567600471381691"><ele>994.0</ele><time>2026-04-28T12:39:25.999Z</time></trkpt><trkpt lat="44.87055985514851" lon="5.567694921553767"><ele>994.0</ele><time>2026-04-28T12:39:26.999Z</time></trkpt><trkpt lat="44.87054732469713" lon="5.567801739020367"><ele>993.9999999999999</ele><time>2026-04-28T12:39:27.999Z</time></trkpt><trkpt lat="44.87048511157441" lon="5.5678629865977145"><ele>994.0</ele><time>2026-04-28T12:39:28.999Z</time></trkpt><trkpt lat="44.870425157989025" lon="5.56794752520937"><ele>994.9999999999999</ele><time>2026-04-28T12:39:29.999Z</time></trkpt><trkpt lat="44.87039187126352" lon="5.5680557801762385"><ele>996.0</ele><time>2026-04-28T12:39:30.999Z</time></trkpt><trkpt lat="44.87039635295078" lon="5.568184924830881"><ele>997.0</ele><time>2026-04-28T12:39:31.999Z</time></trkpt><trkpt lat="44.87038968690243" lon="5.568311819733549"><ele>998.0</ele><time>2026-04-28T12:39:32.999Z</time></trkpt><trkpt lat="44.87036133675812" lon="5.568428453530778"><ele>998.9999999999999</ele><time>2026-04-28T12:39:33.999Z</time></trkpt><trkpt lat="44.87031871814803" lon="5.568531833680311"><ele>1000.0</ele><time>2026-04-28T12:39:34.999Z</time></trkpt><trkpt lat="44.870290600653185" lon="5.568635544183599"><ele>1004.5</ele><time>2026-04-28T12:39:35.999Z</time></trkpt><trkpt lat="44.87025901841961" lon="5.568763422449384"><ele>1009.0</ele><time>2026-04-28T12:39:36.999Z</time></trkpt><trkpt lat="44.870258315940184" lon="5.568899536335427"><ele>1013.5</ele><time>2026-04-28T12:39:37.999Z</time></trkpt><trkpt lat="44.87027689308767" lon="5.569183435451915"><ele>1018.0</ele><time>2026-04-28T12:39:39.999Z</time></trkpt><trkpt lat="44.87030159265442" lon="5.569322067760082"><ele>1018.0</ele><time>2026-04-28T12:39:41Z</time></trkpt><trkpt lat="44.87028571797077" lon="5.569468465616662"><ele>1018.0</ele><time>2026-04-28T12:39:42Z</time></trkpt><trkpt lat="44.87021472548694" lon="5.569597435677116"><ele>1018.0</ele><time>2026-04-28T12:39:43Z</time></trkpt><trkpt lat="44.87013979975281" lon="5.5697278416810265"><ele>1018.0</ele><time>2026-04-28T12:39:44Z</time></trkpt><trkpt lat="44.87009293647588" lon="5.569858887418998"><ele>1018.0</ele><time>2026-04-28T12:39:45Z</time></trkpt><trkpt lat="44.870072681962334" lon="5.569994975807976"><ele>1008.8</ele><time>2026-04-28T12:39:46Z</time></trkpt><trkpt lat="44.8700807612955" lon="5.5701357077448925"><ele>999.5999999999999</ele><time>2026-04-28T12:39:47Z</time></trkpt><trkpt lat="44.87008537949069" lon="5.570275744370067"><ele>990.4000000000001</ele><time>2026-04-28T12:39:48Z</time></trkpt><trkpt lat="44.870096238050685" lon="5.570421477623792"><ele>981.2</ele><time>2026-04-28T12:39:49Z</time></trkpt><trkpt lat="44.87007087888096" lon="5.570570893686988"><ele>972.0</ele><time>2026-04-28T12:39:50Z</time></trkpt><trkpt lat="44.87002466539968" lon="5.570705175241673"><ele>971.8</ele><time>2026-04-28T12:39:51Z</time></trkpt><trkpt lat="44.86997060393118" lon="5.570837980052867"><ele>971.6</ele><time>2026-04-28T12:39:52Z</time></trkpt><trkpt lat="44.86993613795442" lon="5.570961145486077"><ele>971.3999999999999</ele><time>2026-04-28T12:39:53Z</time></trkpt><trkpt lat="44.86993368423538" lon="5.5711120615826335"><ele>971.1999999999999</ele><time>2026-04-28T12:39:54Z</time></trkpt><trkpt lat="44.86994832925266" lon="5.571260996670846"><ele>971.0</ele><time>2026-04-28T12:39:55Z</time></trkpt><trkpt lat="44.869989448630335" lon="5.571414529888901"><ele>969.25</ele><time>2026-04-28T12:39:56Z</time></trkpt><trkpt lat="44.87004836484421" lon="5.571563404202352"><ele>967.5</ele><time>2026-04-28T12:39:57Z</time></trkpt><trkpt lat="44.870097659548435" lon="5.571715485107596"><ele>965.75</ele><time>2026-04-28T12:39:58Z</time></trkpt><trkpt lat="44.87013619322476" lon="5.5718802965079"><ele>964.0</ele><time>2026-04-28T12:39:59Z</time></trkpt><trkpt lat="44.87016674920882" lon="5.57225532395484"><ele>976.0</ele><time>2026-04-28T12:40:01Z</time></trkpt><trkpt lat="44.870171208738796" lon="5.572436048261862"><ele>988.0</ele><time>2026-04-28T12:40:02Z</time></trkpt><trkpt lat="44.87013189008398" lon="5.57261669929339"><ele>1000.0</ele><time>2026-04-28T12:40:03Z</time></trkpt><trkpt lat="44.87012201090905" lon="5.5727850546307955"><ele>1012.0</ele><time>2026-04-28T12:40:04Z</time></trkpt><trkpt lat="44.87011137553053" lon="5.572953540457932"><ele>994.75</ele><time>2026-04-28T12:40:05Z</time></trkpt><trkpt lat="44.870098844537516" lon="5.573126890862614"><ele>977.5</ele><time>2026-04-28T12:40:06Z</time></trkpt><trkpt lat="44.87009022967582" lon="5.573292491679036"><ele>960.25</ele><time>2026-04-28T12:40:07Z</time></trkpt><trkpt lat="44.870060946239875" lon="5.573452056329884"><ele>943.0</ele><time>2026-04-28T12:40:08Z</time></trkpt><trkpt lat="44.86999489268087" lon="5.57359747673955"><ele>944.2</ele><time>2026-04-28T12:40:09Z</time></trkpt><trkpt lat="44.869915909489016" lon="5.57371318580198"><ele>945.4</ele><time>2026-04-28T12:40:10Z</time></trkpt><trkpt lat="44.86985436028111" lon="5.573805358626477"><ele>946.6000000000001</ele><time>2026-04-28T12:40:11Z</time></trkpt><trkpt lat="44.869846016340844" lon="5.573919462154641"><ele>947.8000000000001</ele><time>2026-04-28T12:40:12Z</time></trkpt><trkpt lat="44.869864272035464" lon="5.574052654288923"><ele>949.0</ele><time>2026-04-28T12:40:13Z</time></trkpt><trkpt lat="44.869852700917484" lon="5.574191198047107"><ele>949.0</ele><time>2026-04-28T12:40:14Z</time></trkpt><trkpt lat="44.869767636789675" lon="5.5742729611063435"><ele>949.0000000000001</ele><time>2026-04-28T12:40:15Z</time></trkpt><trkpt lat="44.86970099031575" lon="5.574380798583295"><ele>949.0000000000001</ele><time>2026-04-28T12:40:16Z</time></trkpt><trkpt lat="44.869635028352484" lon="5.574477315561219"><ele>949.0</ele><time>2026-04-28T12:40:17Z</time></trkpt><trkpt lat="44.869564857601276" lon="5.5745835274151"><ele>949.0</ele><time>2026-04-28T12:40:18Z</time></trkpt><trkpt lat="44.869526999238616" lon="5.574737466250965"><ele>951.6666666666666</ele><time>2026-04-28T12:40:19Z</time></trkpt><trkpt lat="44.8695032063693" lon="5.574891766214199"><ele>954.3333333333333</ele><time>2026-04-28T12:40:20Z</time></trkpt><trkpt lat="44.869451079727845" lon="5.5752102721835355"><ele>957.0</ele><time>2026-04-28T12:40:22Z</time></trkpt><trkpt lat="44.86942214858933" lon="5.575358885389611"><ele>959.2</ele><time>2026-04-28T12:40:23Z</time></trkpt><trkpt lat="44.86940829957448" lon="5.575509051782989"><ele>961.4000000000001</ele><time>2026-04-28T12:40:24Z</time></trkpt><trkpt lat="44.869425674655076" lon="5.575672975539401"><ele>963.5999999999999</ele><time>2026-04-28T12:40:25Z</time></trkpt><trkpt lat="44.86946615341002" lon="5.575824387256405"><ele>965.8</ele><time>2026-04-28T12:40:26Z</time></trkpt><trkpt lat="44.86948427311223" lon="5.575948656202819"><ele>968.0</ele><time>2026-04-28T12:40:27Z</time></trkpt><trkpt lat="44.86946224784062" lon="5.576059363020764"><ele>968.0</ele><time>2026-04-28T12:40:28Z</time></trkpt><trkpt lat="44.86939217528835" lon="5.576157083080402"><ele>968.0</ele><time>2026-04-28T12:40:29Z</time></trkpt><trkpt lat="44.86929732239581" lon="5.576216491493245"><ele>968.0</ele><time>2026-04-28T12:40:30Z</time></trkpt><trkpt lat="44.86920062114093" lon="5.576284927568043"><ele>968.0</ele><time>2026-04-28T12:40:31Z</time></trkpt><trkpt lat="44.869125814363244" lon="5.576373027335103"><ele>968.0</ele><time>2026-04-28T12:40:32Z</time></trkpt><trkpt lat="44.86907185434269" lon="5.57648834538457"><ele>960.8</ele><time>2026-04-28T12:40:33Z</time></trkpt><trkpt lat="44.86904200300225" lon="5.576630991268091"><ele>953.5999999999999</ele><time>2026-04-28T12:40:34Z</time></trkpt><trkpt lat="44.869041542154925" lon="5.576780730825049"><ele>946.4000000000001</ele><time>2026-04-28T12:40:35Z</time></trkpt><trkpt lat="44.869061494154806" lon="5.576934280553484"><ele>939.2</ele><time>2026-04-28T12:40:36Z</time></trkpt><trkpt lat="44.86906239015207" lon="5.577094417641928"><ele>932.0</ele><time>2026-04-28T12:40:37Z</time></trkpt><trkpt lat="44.86899771118157" lon="5.577236759714108"><ele>932.0</ele><time>2026-04-28T12:40:38Z</time></trkpt><trkpt lat="44.86896786548612" lon="5.577400750779634"><ele>932.0</ele><time>2026-04-28T12:40:39Z</time></trkpt><trkpt lat="44.86894161348705" lon="5.577558707789713"><ele>932.0</ele><time>2026-04-28T12:40:40Z</time></trkpt><trkpt lat="44.86887469811919" lon="5.577708968462847"><ele>932.0</ele><time>2026-04-28T12:40:41Z</time></trkpt><trkpt lat="44.868689575913294" lon="5.577970403871928"><ele>935.5</ele><time>2026-04-28T12:40:42.999Z</time></trkpt><trkpt lat="44.86863114583983" lon="5.578134777320301"><ele>939.0</ele><time>2026-04-28T12:40:43.999Z</time></trkpt><trkpt lat="44.86858243189837" lon="5.578314042213523"><ele>942.5</ele><time>2026-04-28T12:40:44.999Z</time></trkpt><trkpt lat="44.868519410157795" lon="5.578488799442444"><ele>946.0</ele><time>2026-04-28T12:40:45.999Z</time></trkpt><trkpt lat="44.86844808443079" lon="5.578660309570044"><ele>937.5</ele><time>2026-04-28T12:40:46.999Z</time></trkpt><trkpt lat="44.86836999330824" lon="5.57882353884825"><ele>929.0</ele><time>2026-04-28T12:40:47.999Z</time></trkpt><trkpt lat="44.86829135196167" lon="5.578983820473173"><ele>920.5</ele><time>2026-04-28T12:40:48.999Z</time></trkpt><trkpt lat="44.868202587974" lon="5.57913236321649"><ele>912.0</ele><time>2026-04-28T12:40:49.999Z</time></trkpt><trkpt lat="44.86810671386277" lon="5.579267784216028"><ele>912.0</ele><time>2026-04-28T12:40:50.999Z</time></trkpt><trkpt lat="44.868003999976246" lon="5.579393229890082"><ele>912.0</ele><time>2026-04-28T12:40:51.999Z</time></trkpt><trkpt lat="44.867902481989496" lon="5.579523538716734"><ele>912.0</ele><time>2026-04-28T12:40:52.999Z</time></trkpt><trkpt lat="44.86779730517655" lon="5.579643705030662"><ele>912.0</ele><time>2026-04-28T12:40:53.999Z</time></trkpt><trkpt lat="44.86768146123573" lon="5.579746155518685"><ele>909.5</ele><time>2026-04-28T12:40:54.999Z</time></trkpt><trkpt lat="44.867555289849726" lon="5.579837471421162"><ele>907.0</ele><time>2026-04-28T12:40:55.999Z</time></trkpt><trkpt lat="44.86742986822924" lon="5.579915743986789"><ele>904.5</ele><time>2026-04-28T12:40:56.999Z</time></trkpt><trkpt lat="44.86728877841818" lon="5.579957385258225"><ele>902.0</ele><time>2026-04-28T12:40:57.999Z</time></trkpt><trkpt lat="44.86714717515677" lon="5.580014346098474"><ele>902.0</ele><time>2026-04-28T12:40:58.999Z</time></trkpt><trkpt lat="44.867023677576796" lon="5.58007983213782"><ele>902.0</ele><time>2026-04-28T12:40:59.999Z</time></trkpt><trkpt lat="44.86689440355423" lon="5.580157873628836"><ele>902.0</ele><time>2026-04-28T12:41:00.999Z</time></trkpt><trkpt lat="44.86676558373718" lon="5.580211584816598"><ele>902.0</ele><time>2026-04-28T12:41:01.999Z</time></trkpt><trkpt lat="44.86653069805607" lon="5.580274791379173"><ele>901.0</ele><time>2026-04-28T12:41:03.999Z</time></trkpt><trkpt lat="44.86643941230054" lon="5.580349233749497"><ele>900.0</ele><time>2026-04-28T12:41:04.999Z</time></trkpt><trkpt lat="44.86635540227358" lon="5.580468850810988"><ele>899.0</ele><time>2026-04-28T12:41:05.999Z</time></trkpt><trkpt lat="44.866295072739085" lon="5.580614673417196"><ele>898.0</ele><time>2026-04-28T12:41:06.999Z</time></trkpt><trkpt lat="44.86624119898868" lon="5.580766555330157"><ele>898.0</ele><time>2026-04-28T12:41:07.999Z</time></trkpt><trkpt lat="44.86619393114524" lon="5.580921603129203"><ele>898.0</ele><time>2026-04-28T12:41:08.999Z</time></trkpt><trkpt lat="44.866138585367366" lon="5.58107264088195"><ele>898.0</ele><time>2026-04-28T12:41:09.999Z</time></trkpt><trkpt lat="44.86607768363991" lon="5.5812213313601635"><ele>898.0</ele><time>2026-04-28T12:41:10.999Z</time></trkpt><trkpt lat="44.86603258154789" lon="5.581372241716373"><ele>902.0</ele><time>2026-04-28T12:41:11.999Z</time></trkpt><trkpt lat="44.86599331592169" lon="5.581529303860197"><ele>906.0</ele><time>2026-04-28T12:41:12.999Z</time></trkpt><trkpt lat="44.86596010821636" lon="5.5816879873792065"><ele>910.0</ele><time>2026-04-28T12:41:13.999Z</time></trkpt><trkpt lat="44.86592860222755" lon="5.581853076946903"><ele>914.0</ele><time>2026-04-28T12:41:14.999Z</time></trkpt><trkpt lat="44.8658916521846" lon="5.582017927811909"><ele>906.0</ele><time>2026-04-28T12:41:15.999Z</time></trkpt><trkpt lat="44.865855564966225" lon="5.5821814171217365"><ele>898.0</ele><time>2026-04-28T12:41:16.999Z</time></trkpt><trkpt lat="44.86582414276142" lon="5.582339232006419"><ele>890.0</ele><time>2026-04-28T12:41:17.999Z</time></trkpt><trkpt lat="44.865796701695594" lon="5.582491494159451"><ele>882.0</ele><time>2026-04-28T12:41:18.999Z</time></trkpt><trkpt lat="44.865775549567154" lon="5.582644285344632"><ele>882.0</ele><time>2026-04-28T12:41:19.999Z</time></trkpt><trkpt lat="44.865775531109136" lon="5.5828025792972875"><ele>882.0</ele><time>2026-04-28T12:41:20.999Z</time></trkpt><trkpt lat="44.86579601598963" lon="5.582957977495777"><ele>882.0</ele><time>2026-04-28T12:41:21.999Z</time></trkpt><trkpt lat="44.86581142410199" lon="5.583113925389056"><ele>882.0</ele><time>2026-04-28T12:41:22.999Z</time></trkpt><trkpt lat="44.86582422895025" lon="5.583427406417901"><ele>881.8</ele><time>2026-04-28T12:41:24.999Z</time></trkpt><trkpt lat="44.865831850938314" lon="5.583584142642027"><ele>881.6</ele><time>2026-04-28T12:41:25.999Z</time></trkpt><trkpt lat="44.86586241949884" lon="5.583731492866604"><ele>881.3999999999999</ele><time>2026-04-28T12:41:26.999Z</time></trkpt><trkpt lat="44.86591771057909" lon="5.583867171974286"><ele>881.1999999999999</ele><time>2026-04-28T12:41:27.999Z</time></trkpt><trkpt lat="44.86598747008652" lon="5.5839905510153"><ele>881.0</ele><time>2026-04-28T12:41:28.999Z</time></trkpt><trkpt lat="44.86606190313243" lon="5.584112017092263"><ele>881.25</ele><time>2026-04-28T12:41:29.999Z</time></trkpt><trkpt lat="44.866139309926126" lon="5.584233199331652"><ele>881.5</ele><time>2026-04-28T12:41:30.999Z</time></trkpt><trkpt lat="44.86621694178017" lon="5.584354002154844"><ele>881.75</ele><time>2026-04-28T12:41:31.999Z</time></trkpt><trkpt lat="44.86629469892218" lon="5.584471135272422"><ele>882.0</ele><time>2026-04-28T12:41:32.999Z</time></trkpt><trkpt lat="44.866374602127465" lon="5.584586114046403"><ele>882.0</ele><time>2026-04-28T12:41:33.999Z</time></trkpt><trkpt lat="44.86645067925143" lon="5.5847102138073845"><ele>882.0</ele><time>2026-04-28T12:41:34.999Z</time></trkpt><trkpt lat="44.86651272871324" lon="5.584846449135844"><ele>882.0</ele><time>2026-04-28T12:41:35.999Z</time></trkpt><trkpt lat="44.86655956295114" lon="5.584997889173988"><ele>882.0</ele><time>2026-04-28T12:41:36.999Z</time></trkpt><trkpt lat="44.86657224200275" lon="5.585157481596434"><ele>882.0</ele><time>2026-04-28T12:41:37.999Z</time></trkpt><trkpt lat="44.86658804992723" lon="5.585309267533939"><ele>882.0</ele><time>2026-04-28T12:41:38.999Z</time></trkpt><trkpt lat="44.866592426861025" lon="5.585459020875564"><ele>882.0</ele><time>2026-04-28T12:41:39.999Z</time></trkpt><trkpt lat="44.86659712982631" lon="5.585607353352801"><ele>882.0</ele><time>2026-04-28T12:41:40.999Z</time></trkpt><trkpt lat="44.866596627054946" lon="5.585758843393815"><ele>882.0</ele><time>2026-04-28T12:41:41.999Z</time></trkpt><trkpt lat="44.86659617172038" lon="5.585908584426034"><ele>880.3333333333333</ele><time>2026-04-28T12:41:42.999Z</time></trkpt><trkpt lat="44.86660282893845" lon="5.5860537327534106"><ele>878.6666666666666</ele><time>2026-04-28T12:41:43.999Z</time></trkpt><trkpt lat="44.86662338214367" lon="5.586334676568421"><ele>877.0</ele><time>2026-04-28T12:41:46Z</time></trkpt><trkpt lat="44.86671358165838" lon="5.58657038406292"><ele>881.6</ele><time>2026-04-28T12:41:48Z</time></trkpt><trkpt lat="44.866786587276664" lon="5.586657109545706"><ele>886.2</ele><time>2026-04-28T12:41:49Z</time></trkpt><trkpt lat="44.866863545457754" lon="5.586731194731983"><ele>890.8</ele><time>2026-04-28T12:41:50Z</time></trkpt><trkpt lat="44.866933515989544" lon="5.586810322244516"><ele>895.4</ele><time>2026-04-28T12:41:51Z</time></trkpt><trkpt lat="44.86700439119981" lon="5.586891988437575"><ele>900.0</ele><time>2026-04-28T12:41:52Z</time></trkpt><trkpt lat="44.86706573167633" lon="5.586984851367431"><ele>897.0</ele><time>2026-04-28T12:41:53Z</time></trkpt><trkpt lat="44.86711846607507" lon="5.587090136116688"><ele>894.0</ele><time>2026-04-28T12:41:54Z</time></trkpt><trkpt lat="44.86715980577046" lon="5.587197619716929"><ele>891.0</ele><time>2026-04-28T12:41:55Z</time></trkpt><trkpt lat="44.86720096536252" lon="5.587313332989203"><ele>888.0</ele><time>2026-04-28T12:41:56Z</time></trkpt><trkpt lat="44.86724274502475" lon="5.5874333561601714"><ele>885.0</ele><time>2026-04-28T12:41:57Z</time></trkpt><trkpt lat="44.86727687434432" lon="5.587557697092565"><ele>885.0</ele><time>2026-04-28T12:41:58Z</time></trkpt><trkpt lat="44.8672928973987" lon="5.58769330240742"><ele>885.0</ele><time>2026-04-28T12:41:59Z</time></trkpt><trkpt lat="44.8672955166211" lon="5.587822238900777"><ele>885.0</ele><time>2026-04-28T12:42:00Z</time></trkpt><trkpt lat="44.86728800363558" lon="5.587950181803672"><ele>885.0</ele><time>2026-04-28T12:42:01Z</time></trkpt><trkpt lat="44.86726570699028" lon="5.588061857776726"><ele>885.0</ele><time>2026-04-28T12:42:02Z</time></trkpt><trkpt lat="44.86723967997709" lon="5.588181843932745"><ele>884.2</ele><time>2026-04-28T12:42:03Z</time></trkpt><trkpt lat="44.867210319210464" lon="5.588283639207205"><ele>883.4</ele><time>2026-04-28T12:42:04Z</time></trkpt><trkpt lat="44.867199562741106" lon="5.588398532782382"><ele>882.5999999999999</ele><time>2026-04-28T12:42:05Z</time></trkpt><trkpt lat="44.867140978772625" lon="5.588629523683939"><ele>881.8</ele><time>2026-04-28T12:42:07Z</time></trkpt><trkpt lat="44.867104222264345" lon="5.5887477007969615"><ele>881.0</ele><time>2026-04-28T12:42:08Z</time></trkpt><trkpt lat="44.86708425849041" lon="5.588860157573645"><ele>881.0000000000001</ele><time>2026-04-28T12:42:09Z</time></trkpt><trkpt lat="44.86703863348571" lon="5.588965407766378"><ele>881.0</ele><time>2026-04-28T12:42:10Z</time></trkpt><trkpt lat="44.867006424895784" lon="5.589052094098455"><ele>881.0</ele><time>2026-04-28T12:42:11Z</time></trkpt><trkpt lat="44.86694916588102" lon="5.589151242571992"><ele>881.0</ele><time>2026-04-28T12:42:12Z</time></trkpt><trkpt lat="44.866876690851825" lon="5.589218300385283"><ele>881.0000000000001</ele><time>2026-04-28T12:42:13Z</time></trkpt><trkpt lat="44.86680930640724" lon="5.589268919248324"><ele>881.0</ele><time>2026-04-28T12:42:14Z</time></trkpt><trkpt lat="44.86674427337174" lon="5.589320433419387"><ele>879.3333333333334</ele><time>2026-04-28T12:42:15Z</time></trkpt><trkpt lat="44.86668619536517" lon="5.589388165805816"><ele>877.6666666666667</ele><time>2026-04-28T12:42:16Z</time></trkpt><trkpt lat="44.86663005782808" lon="5.589482598849298"><ele>876.0</ele><time>2026-04-28T12:42:17Z</time></trkpt><trkpt lat="44.86660721518424" lon="5.589581041063413"><ele>874.3333333333333</ele><time>2026-04-28T12:42:18Z</time></trkpt><trkpt lat="44.86658622846747" lon="5.589687203441356"><ele>872.6666666666666</ele><time>2026-04-28T12:42:19Z</time></trkpt><trkpt lat="44.866583498101576" lon="5.58979702104333"><ele>871.0</ele><time>2026-04-28T12:42:20Z</time></trkpt><trkpt lat="44.86659056760175" lon="5.589907056657649"><ele>870.9999999999999</ele><time>2026-04-28T12:42:21Z</time></trkpt><trkpt lat="44.866585137432054" lon="5.590010212989504"><ele>871.0</ele><time>2026-04-28T12:42:22Z</time></trkpt><trkpt lat="44.86658614150165" lon="5.590112274740818"><ele>871.0</ele><time>2026-04-28T12:42:23Z</time></trkpt><trkpt lat="44.866588620971164" lon="5.590209423827654"><ele>871.0</ele><time>2026-04-28T12:42:24Z</time></trkpt><trkpt lat="44.86657895196904" lon="5.590301667927653"><ele>870.9999999999999</ele><time>2026-04-28T12:42:25Z</time></trkpt><trkpt lat="44.866577350728015" lon="5.590397006563167"><ele>871.0</ele><time>2026-04-28T12:42:26Z</time></trkpt><trkpt lat="44.866594011329866" lon="5.590583147940454"><ele>871.2857142857142</ele><time>2026-04-28T12:42:28Z</time></trkpt><trkpt lat="44.866610709475815" lon="5.590679536444173"><ele>871.5714285714286</ele><time>2026-04-28T12:42:29Z</time></trkpt><trkpt lat="44.86663174321706" lon="5.590769879178677"><ele>871.8571428571429</ele><time>2026-04-28T12:42:30Z</time></trkpt><trkpt lat="44.86665614965061" lon="5.590858030366782"><ele>872.1428571428571</ele><time>2026-04-28T12:42:31Z</time></trkpt><trkpt lat="44.866677923749556" lon="5.590948847564072"><ele>872.4285714285714</ele><time>2026-04-28T12:42:32Z</time></trkpt><trkpt lat="44.866697328500024" lon="5.591037372416556"><ele>872.7142857142857</ele><time>2026-04-28T12:42:33Z</time></trkpt><trkpt lat="44.866720856956896" lon="5.591120350479138"><ele>873.0</ele><time>2026-04-28T12:42:34Z</time></trkpt><trkpt lat="44.866767627048205" lon="5.591272474047164"><ele>875.0</ele><time>2026-04-28T12:42:36Z</time></trkpt><trkpt lat="44.8667933896325" lon="5.591426737338344"><ele>877.0</ele><time>2026-04-28T12:42:38Z</time></trkpt><trkpt lat="44.86682373156317" lon="5.591574176387375"><ele>879.0</ele><time>2026-04-28T12:42:40Z</time></trkpt><trkpt lat="44.86684706327297" lon="5.59171656248963"><ele>881.0</ele><time>2026-04-28T12:42:42Z</time></trkpt><trkpt lat="44.86688005202223" lon="5.591859177477046"><ele>883.0</ele><time>2026-04-28T12:42:44Z</time></trkpt><trkpt lat="44.86688491742051" lon="5.592008855746589"><ele>883.0</ele><time>2026-04-28T12:42:45.999Z</time></trkpt><trkpt lat="44.86691223339678" lon="5.592145002954709"><ele>883.0</ele><time>2026-04-28T12:42:47.999Z</time></trkpt><trkpt lat="44.866969971930736" lon="5.592314238725041"><ele>883.0</ele><time>2026-04-28T12:43:10.999Z</time></trkpt><trkpt lat="44.8670785056531" lon="5.5924386522012774"><ele>883.0</ele><time>2026-04-28T12:43:18.999Z</time></trkpt><trkpt lat="44.86714500114689" lon="5.592469634825375"><ele>883.0</ele><time>2026-04-28T12:43:20.999Z</time></trkpt><trkpt lat="44.8672158068707" lon="5.592492489832921"><ele>882.9999999999999</ele><time>2026-04-28T12:43:22.999Z</time></trkpt><trkpt lat="44.867287161419966" lon="5.592526441722955"><ele>883.0</ele><time>2026-04-28T12:43:24.999Z</time></trkpt><trkpt lat="44.86736064185014" lon="5.5925574757483805"><ele>883.0</ele><time>2026-04-28T12:43:26.999Z</time></trkpt><trkpt lat="44.867436134787184" lon="5.592590256793388"><ele>883.0</ele><time>2026-04-28T12:43:28.999Z</time></trkpt><trkpt lat="44.86750706471428" lon="5.5926232017093485"><ele>882.9999999999999</ele><time>2026-04-28T12:43:30.999Z</time></trkpt><trkpt lat="44.86757769639935" lon="5.592655849452141"><ele>883.0</ele><time>2026-04-28T12:43:32.999Z</time></trkpt><trkpt lat="44.86773470984435" lon="5.592715769893988"><ele>884.1666666666666</ele><time>2026-04-28T12:43:36.999Z</time></trkpt><trkpt lat="44.867813286570716" lon="5.592749532517528"><ele>885.3333333333333</ele><time>2026-04-28T12:43:38.999Z</time></trkpt><trkpt lat="44.86788433802018" lon="5.59277816546614"><ele>886.5</ele><time>2026-04-28T12:43:40.999Z</time></trkpt><trkpt lat="44.86794902599074" lon="5.592825544169374"><ele>887.6666666666667</ele><time>2026-04-28T12:43:42.999Z</time></trkpt><trkpt lat="44.868014147603" lon="5.5928878080454085"><ele>888.8333333333334</ele><time>2026-04-28T12:43:44.999Z</time></trkpt><trkpt lat="44.86806078507035" lon="5.592958934246552"><ele>890.0</ele><time>2026-04-28T12:43:46.999Z</time></trkpt><trkpt lat="44.86809950714725" lon="5.593064003529826"><ele>890.0000000000001</ele><time>2026-04-28T12:43:48.999Z</time></trkpt><trkpt lat="44.8681387807892" lon="5.593161224862068"><ele>890.0</ele><time>2026-04-28T12:43:50.999Z</time></trkpt><trkpt lat="44.868176019474824" lon="5.593257315547629"><ele>890.0</ele><time>2026-04-28T12:43:53Z</time></trkpt><trkpt lat="44.86821268199509" lon="5.593350962263214"><ele>890.0</ele><time>2026-04-28T12:43:55Z</time></trkpt><trkpt lat="44.86827630357137" lon="5.593517981098427"><ele>890.0000000000001</ele><time>2026-04-28T12:43:59Z</time></trkpt><trkpt lat="44.868311192641706" lon="5.593610879224083"><ele>890.0</ele><time>2026-04-28T12:44:01Z</time></trkpt><trkpt lat="44.86833447423309" lon="5.593729318735602"><ele>890.0</ele><time>2026-04-28T12:44:04Z</time></trkpt><trkpt lat="44.86834643986613" lon="5.593842375457746"><ele>890.0</ele><time>2026-04-28T12:44:07Z</time></trkpt><trkpt lat="44.868322975614056" lon="5.593931807039803"><ele>890.0</ele><time>2026-04-28T12:44:10Z</time></trkpt><trkpt lat="44.86827664098906" lon="5.593997329126522"><ele>890.0</ele><time>2026-04-28T12:44:13Z</time></trkpt><trkpt lat="44.86824043260295" lon="5.594100208461756"><ele>890.0</ele><time>2026-04-28T12:44:16Z</time></trkpt><trkpt lat="44.86811522650175" lon="5.594272839960742"><ele>890.0000000000001</ele><time>2026-04-28T12:44:22Z</time></trkpt><trkpt lat="44.86808183704751" lon="5.594365022179793"><ele>890.0</ele><time>2026-04-28T12:44:25Z</time></trkpt><trkpt lat="44.86811639292194" lon="5.594446725381161"><ele>890.0</ele><time>2026-04-28T12:44:27Z</time></trkpt><trkpt lat="44.86814408697218" lon="5.594536663419091"><ele>890.0</ele><time>2026-04-28T12:44:30Z</time></trkpt><trkpt lat="44.868213323131044" lon="5.594631777708796"><ele>890.0000000000001</ele><time>2026-04-28T12:44:33Z</time></trkpt><trkpt lat="44.86827218508941" lon="5.594674241504882"><ele>890.0</ele><time>2026-04-28T12:44:35Z</time></trkpt><trkpt lat="44.86835487591804" lon="5.5946932186208045"><ele>890.6</ele><time>2026-04-28T12:44:38Z</time></trkpt><trkpt lat="44.86847225966435" lon="5.594582982901009"><ele>891.2</ele><time>2026-04-28T12:44:43Z</time></trkpt><trkpt lat="44.868526891613" lon="5.594531272604109"><ele>891.8</ele><time>2026-04-28T12:44:45Z</time></trkpt><trkpt lat="44.868646402648466" lon="5.5945619600154926"><ele>892.4</ele><time>2026-04-28T12:44:47Z</time></trkpt><trkpt lat="44.86875321620714" lon="5.594592540938886"><ele>893.0</ele><time>2026-04-28T12:44:49Z</time></trkpt><trkpt lat="44.868855025832374" lon="5.594657876147672"><ele>893.0</ele><time>2026-04-28T12:44:51Z</time></trkpt><trkpt lat="44.86896938031581" lon="5.594681497290063"><ele>893.0</ele><time>2026-04-28T12:44:53Z</time></trkpt><trkpt lat="44.86905068435838" lon="5.594732166285419"><ele>893.0</ele><time>2026-04-28T12:44:54.999Z</time></trkpt><trkpt lat="44.869114018066156" lon="5.594830766127849"><ele>893.0</ele><time>2026-04-28T12:44:56.999Z</time></trkpt><trkpt lat="44.86916728264792" lon="5.594980705303912"><ele>893.0</ele><time>2026-04-28T12:44:58.999Z</time></trkpt><trkpt lat="44.86925160638274" lon="5.595235682453896"><ele>892.6666666666667</ele><time>2026-04-28T12:45:01.999Z</time></trkpt><trkpt lat="44.86928755690981" lon="5.595330535743608"><ele>892.3333333333334</ele><time>2026-04-28T12:45:02.999Z</time></trkpt><trkpt lat="44.869313401248455" lon="5.595437704600143"><ele>892.0</ele><time>2026-04-28T12:45:03.999Z</time></trkpt><trkpt lat="44.869362866692704" lon="5.595550523501411"><ele>891.6666666666667</ele><time>2026-04-28T12:45:04.999Z</time></trkpt><trkpt lat="44.86941086127866" lon="5.595663192826623"><ele>891.3333333333334</ele><time>2026-04-28T12:45:05.999Z</time></trkpt><trkpt lat="44.86947675049059" lon="5.595757632519663"><ele>891.0</ele><time>2026-04-28T12:45:06.999Z</time></trkpt><trkpt lat="44.869548340718616" lon="5.595850936637808"><ele>891.0</ele><time>2026-04-28T12:45:07.999Z</time></trkpt><trkpt lat="44.86961145309301" lon="5.595959673333688"><ele>890.9999999999999</ele><time>2026-04-28T12:45:08.999Z</time></trkpt><trkpt lat="44.869699518881895" lon="5.59602800837405"><ele>890.9999999999999</ele><time>2026-04-28T12:45:09.999Z</time></trkpt><trkpt lat="44.869771154384715" lon="5.596127435997247"><ele>891.0</ele><time>2026-04-28T12:45:10.999Z</time></trkpt><trkpt lat="44.869840783315965" lon="5.59622441463738"><ele>891.0</ele><time>2026-04-28T12:45:11.999Z</time></trkpt><trkpt lat="44.86990516617491" lon="5.596322384244261"><ele>889.6666666666666</ele><time>2026-04-28T12:45:12.999Z</time></trkpt><trkpt lat="44.86997004628208" lon="5.596412895419434"><ele>888.3333333333333</ele><time>2026-04-28T12:45:13.999Z</time></trkpt><trkpt lat="44.87001218835836" lon="5.596502904278087"><ele>887.0</ele><time>2026-04-28T12:45:14.999Z</time></trkpt><trkpt lat="44.87003479761712" lon="5.596589461986596"><ele>885.6666666666666</ele><time>2026-04-28T12:45:15.999Z</time></trkpt><trkpt lat="44.87006038932457" lon="5.5966957550764835"><ele>884.3333333333333</ele><time>2026-04-28T12:45:17.999Z</time></trkpt><trkpt lat="44.87007367333731" lon="5.596804491131857"><ele>883.0</ele><time>2026-04-28T12:45:22.999Z</time></trkpt><trkpt lat="44.869819076881186" lon="5.596968017749647"><ele>882.4</ele><time>2026-04-28T12:45:28.999Z</time></trkpt><trkpt lat="44.86975375537226" lon="5.597019854793329"><ele>881.8</ele><time>2026-04-28T12:45:29.999Z</time></trkpt><trkpt lat="44.869678517936116" lon="5.597083855627935"><ele>881.2</ele><time>2026-04-28T12:45:30.999Z</time></trkpt><trkpt lat="44.86959817861508" lon="5.597163613333469"><ele>880.6</ele><time>2026-04-28T12:45:31.999Z</time></trkpt><trkpt lat="44.86951966556247" lon="5.597264370529114"><ele>880.0</ele><time>2026-04-28T12:45:32.999Z</time></trkpt><trkpt lat="44.8694535991269" lon="5.59739261438606"><ele>880.0</ele><time>2026-04-28T12:45:33.999Z</time></trkpt><trkpt lat="44.869410277651845" lon="5.597541642049722"><ele>880.0</ele><time>2026-04-28T12:45:34.999Z</time></trkpt><trkpt lat="44.869391655540724" lon="5.597731071819958"><ele>880.0</ele><time>2026-04-28T12:45:35.999Z</time></trkpt><trkpt lat="44.86939107404544" lon="5.597899234605169"><ele>880.0</ele><time>2026-04-28T12:45:36.999Z</time></trkpt><trkpt lat="44.8694145689369" lon="5.598085154296626"><ele>878.5</ele><time>2026-04-28T12:45:37.999Z</time></trkpt><trkpt lat="44.86940916274272" lon="5.598279225522866"><ele>877.0</ele><time>2026-04-28T12:45:38.999Z</time></trkpt><trkpt lat="44.869410348962944" lon="5.59847520220273"><ele>875.5</ele><time>2026-04-28T12:45:39.999Z</time></trkpt><trkpt lat="44.86940640114057" lon="5.598670185093297"><ele>874.0</ele><time>2026-04-28T12:45:40.999Z</time></trkpt><trkpt lat="44.869391971957675" lon="5.598857027738448"><ele>871.6666666666666</ele><time>2026-04-28T12:45:41.999Z</time></trkpt><trkpt lat="44.86933860819423" lon="5.5990452611839885"><ele>869.3333333333333</ele><time>2026-04-28T12:45:42.999Z</time></trkpt><trkpt lat="44.86929006100094" lon="5.599231975341046"><ele>867.0</ele><time>2026-04-28T12:45:43.999Z</time></trkpt><trkpt lat="44.869156984829914" lon="5.599607525412654"><ele>859.6666666666667</ele><time>2026-04-28T12:45:45.999Z</time></trkpt><trkpt lat="44.869092279293966" lon="5.599805720720676"><ele>852.3333333333334</ele><time>2026-04-28T12:45:46.999Z</time></trkpt><trkpt lat="44.86901154903874" lon="5.600001481818735"><ele>845.0</ele><time>2026-04-28T12:45:47.999Z</time></trkpt><trkpt lat="44.86891264382896" lon="5.600189903189874"><ele>844.0</ele><time>2026-04-28T12:45:48.999Z</time></trkpt><trkpt lat="44.86882487640273" lon="5.600383135493711"><ele>843.0</ele><time>2026-04-28T12:45:49.999Z</time></trkpt><trkpt lat="44.86875185929846" lon="5.600573234077991"><ele>842.0</ele><time>2026-04-28T12:45:50.999Z</time></trkpt><trkpt lat="44.86867590159087" lon="5.60073506659901"><ele>842.0</ele><time>2026-04-28T12:45:51.999Z</time></trkpt><trkpt lat="44.868605561304506" lon="5.600883111054592"><ele>842.0</ele><time>2026-04-28T12:45:52.999Z</time></trkpt><trkpt lat="44.86854587685415" lon="5.601036107338944"><ele>842.0</ele><time>2026-04-28T12:45:53.999Z</time></trkpt><trkpt lat="44.86849591435464" lon="5.6012077115837515"><ele>842.0</ele><time>2026-04-28T12:45:54.999Z</time></trkpt><trkpt lat="44.86847551434106" lon="5.601399866609313"><ele>842.5</ele><time>2026-04-28T12:45:55.999Z</time></trkpt><trkpt lat="44.86845640227892" lon="5.601596465611884"><ele>843.0</ele><time>2026-04-28T12:45:56.999Z</time></trkpt><trkpt lat="44.86841863672995" lon="5.601759450001037"><ele>843.5</ele><time>2026-04-28T12:45:58Z</time></trkpt><trkpt lat="44.868382821946405" lon="5.601896586479463"><ele>844.0</ele><time>2026-04-28T12:45:59Z</time></trkpt><trkpt lat="44.86830932096989" lon="5.601993357692433"><ele>841.5</ele><time>2026-04-28T12:46:00Z</time></trkpt><trkpt lat="44.86820769892055" lon="5.602051597433058"><ele>839.0</ele><time>2026-04-28T12:46:01Z</time></trkpt><trkpt lat="44.86808817161171" lon="5.602124936870023"><ele>836.5</ele><time>2026-04-28T12:46:02Z</time></trkpt><trkpt lat="44.86799001686608" lon="5.602223224947508"><ele>834.0</ele><time>2026-04-28T12:46:03Z</time></trkpt><trkpt lat="44.86787827516468" lon="5.602296781388929"><ele>834.0</ele><time>2026-04-28T12:46:04Z</time></trkpt><trkpt lat="44.867773464175045" lon="5.602384614313897"><ele>834.0</ele><time>2026-04-28T12:46:05Z</time></trkpt><trkpt lat="44.867575807791184" lon="5.602605417139774"><ele>834.0</ele><time>2026-04-28T12:46:07Z</time></trkpt><trkpt lat="44.86750976575773" lon="5.602749082594795"><ele>828.5</ele><time>2026-04-28T12:46:08Z</time></trkpt><trkpt lat="44.867444380213406" lon="5.6028978129426665"><ele>823.0</ele><time>2026-04-28T12:46:09Z</time></trkpt><trkpt lat="44.86738948209621" lon="5.603063160132769"><ele>817.5</ele><time>2026-04-28T12:46:10Z</time></trkpt><trkpt lat="44.8673554884078" lon="5.603243459699027"><ele>812.0</ele><time>2026-04-28T12:46:11Z</time></trkpt><trkpt lat="44.867344162606905" lon="5.603430782599934"><ele>812.0</ele><time>2026-04-28T12:46:12Z</time></trkpt><trkpt lat="44.86735008639043" lon="5.603620267267688"><ele>812.0</ele><time>2026-04-28T12:46:13Z</time></trkpt><trkpt lat="44.86736859029646" lon="5.603808363419978"><ele>812.0</ele><time>2026-04-28T12:46:14Z</time></trkpt><trkpt lat="44.86737860558967" lon="5.6039969343656955"><ele>812.0</ele><time>2026-04-28T12:46:15Z</time></trkpt><trkpt lat="44.86741704021901" lon="5.604184292695385"><ele>811.5</ele><time>2026-04-28T12:46:16Z</time></trkpt><trkpt lat="44.86744952124709" lon="5.604370104529649"><ele>811.0</ele><time>2026-04-28T12:46:17Z</time></trkpt><trkpt lat="44.86747558236615" lon="5.604560798504729"><ele>810.5</ele><time>2026-04-28T12:46:18Z</time></trkpt><trkpt lat="44.86750734662699" lon="5.604751053705826"><ele>810.0</ele><time>2026-04-28T12:46:19Z</time></trkpt><trkpt lat="44.86753380171693" lon="5.604943271693786"><ele>809.6</ele><time>2026-04-28T12:46:20Z</time></trkpt><trkpt lat="44.867558351455905" lon="5.605121601165538"><ele>809.2</ele><time>2026-04-28T12:46:21Z</time></trkpt><trkpt lat="44.86759535934003" lon="5.605287172222572"><ele>808.8</ele><time>2026-04-28T12:46:22Z</time></trkpt><trkpt lat="44.867611463154375" lon="5.6054298419350275"><ele>808.4</ele><time>2026-04-28T12:46:23Z</time></trkpt><trkpt lat="44.86761673689819" lon="5.605545944327441"><ele>808.0</ele><time>2026-04-28T12:46:24Z</time></trkpt><trkpt lat="44.86757453625566" lon="5.605694517047181"><ele>808.0</ele><time>2026-04-28T12:46:26Z</time></trkpt><trkpt lat="44.867412684048915" lon="5.605413308914104"><ele>808.0</ele><time>2026-04-28T12:46:29Z</time></trkpt><trkpt lat="44.86738008992752" lon="5.605326517870203"><ele>808.0</ele><time>2026-04-28T12:46:30Z</time></trkpt><trkpt lat="44.867341612285465" lon="5.605235722091931"><ele>808.0</ele><time>2026-04-28T12:46:31Z</time></trkpt><trkpt lat="44.867293910646445" lon="5.605136242494634"><ele>808.0</ele><time>2026-04-28T12:46:32Z</time></trkpt><trkpt lat="44.867247506723274" lon="5.605030250802518"><ele>808.0</ele><time>2026-04-28T12:46:33Z</time></trkpt><trkpt lat="44.867206235568055" lon="5.604907614440136"><ele>808.0</ele><time>2026-04-28T12:46:34Z</time></trkpt><trkpt lat="44.86716379036376" lon="5.604779096901307"><ele>808.0</ele><time>2026-04-28T12:46:35Z</time></trkpt><trkpt lat="44.867123026531644" lon="5.604643973604822"><ele>808.0</ele><time>2026-04-28T12:46:36Z</time></trkpt><trkpt lat="44.867077544818876" lon="5.6045004427998375"><ele>808.5</ele><time>2026-04-28T12:46:37Z</time></trkpt><trkpt lat="44.86703898753467" lon="5.604355219518316"><ele>809.0</ele><time>2026-04-28T12:46:38Z</time></trkpt><trkpt lat="44.86700962032487" lon="5.604202220922171"><ele>809.5</ele><time>2026-04-28T12:46:39Z</time></trkpt><trkpt lat="44.86698343255865" lon="5.604035352631042"><ele>810.0</ele><time>2026-04-28T12:46:40Z</time></trkpt><trkpt lat="44.86695744902423" lon="5.603872478094792"><ele>810.0</ele><time>2026-04-28T12:46:41Z</time></trkpt><trkpt lat="44.86694782306128" lon="5.603703063068288"><ele>810.0</ele><time>2026-04-28T12:46:42Z</time></trkpt><trkpt lat="44.86693118443792" lon="5.603518525651477"><ele>810.0</ele><time>2026-04-28T12:46:43Z</time></trkpt><trkpt lat="44.866925203024394" lon="5.603337791718754"><ele>810.0</ele><time>2026-04-28T12:46:44Z</time></trkpt><trkpt lat="44.86693539487482" lon="5.603152416036359"><ele>810.3333333333333</ele><time>2026-04-28T12:46:45Z</time></trkpt><trkpt lat="44.866942786708584" lon="5.602964807993025"><ele>810.6666666666666</ele><time>2026-04-28T12:46:46Z</time></trkpt><trkpt lat="44.86695172861099" lon="5.6027778842541975"><ele>811.0</ele><time>2026-04-28T12:46:47Z</time></trkpt><trkpt lat="44.86697118378611" lon="5.6024112360798"><ele>811.0</ele><time>2026-04-28T12:46:49Z</time></trkpt><trkpt lat="44.86697935719839" lon="5.602224594496494"><ele>811.0</ele><time>2026-04-28T12:46:50Z</time></trkpt><trkpt lat="44.86698877308191" lon="5.602034790149929"><ele>811.0</ele><time>2026-04-28T12:46:51Z</time></trkpt><trkpt lat="44.866997006452465" lon="5.601843719334297"><ele>811.0</ele><time>2026-04-28T12:46:52Z</time></trkpt><trkpt lat="44.86699734735302" lon="5.60164768210782"><ele>810.0</ele><time>2026-04-28T12:46:53Z</time></trkpt><trkpt lat="44.866988835661964" lon="5.601451706756002"><ele>809.0</ele><time>2026-04-28T12:46:54Z</time></trkpt><trkpt lat="44.86696449763922" lon="5.601257482715273"><ele>808.0</ele><time>2026-04-28T12:46:55Z</time></trkpt><trkpt lat="44.86693479690316" lon="5.601061207161766"><ele>807.0</ele><time>2026-04-28T12:46:56Z</time></trkpt><trkpt lat="44.86689719533189" lon="5.600866271065504"><ele>809.25</ele><time>2026-04-28T12:46:57Z</time></trkpt><trkpt lat="44.8668526069706" lon="5.600682387308836"><ele>811.5</ele><time>2026-04-28T12:46:58Z</time></trkpt><trkpt lat="44.8668019557429" lon="5.600494720890875"><ele>813.75</ele><time>2026-04-28T12:46:59Z</time></trkpt><trkpt lat="44.866744023910236" lon="5.600311832958296"><ele>816.0</ele><time>2026-04-28T12:46:59.999Z</time></trkpt><trkpt lat="44.86667892661412" lon="5.600130725793812"><ele>810.25</ele><time>2026-04-28T12:47:00.999Z</time></trkpt><trkpt lat="44.866601931063535" lon="5.599960003231584"><ele>804.5</ele><time>2026-04-28T12:47:01.999Z</time></trkpt><trkpt lat="44.86651131205897" lon="5.599795325411342"><ele>798.75</ele><time>2026-04-28T12:47:02.999Z</time></trkpt><trkpt lat="44.866418657168786" lon="5.599641692226013"><ele>793.0</ele><time>2026-04-28T12:47:03.999Z</time></trkpt><trkpt lat="44.8663217385839" lon="5.599486451407234"><ele>792.3333333333333</ele><time>2026-04-28T12:47:04.999Z</time></trkpt><trkpt lat="44.86621156305166" lon="5.599335079946288"><ele>791.6666666666667</ele><time>2026-04-28T12:47:05.999Z</time></trkpt><trkpt lat="44.86609600790271" lon="5.5992027800032975"><ele>791.0</ele><time>2026-04-28T12:47:06.999Z</time></trkpt><trkpt lat="44.8659731892106" lon="5.599075397220189"><ele>780.0</ele><time>2026-04-28T12:47:07.999Z</time></trkpt><trkpt lat="44.86571219853878" lon="5.598857805478421"><ele>769.0</ele><time>2026-04-28T12:47:09.999Z</time></trkpt><trkpt lat="44.86557660757479" lon="5.598763860246211"><ele>769.0</ele><time>2026-04-28T12:47:10.999Z</time></trkpt><trkpt lat="44.86543308319852" lon="5.5986846314900465"><ele>769.0</ele><time>2026-04-28T12:47:11.999Z</time></trkpt><trkpt lat="44.8652883958453" lon="5.598625865999502"><ele>769.0</ele><time>2026-04-28T12:47:12.999Z</time></trkpt><trkpt lat="44.86514103273069" lon="5.598576501503312"><ele>769.5</ele><time>2026-04-28T12:47:13.999Z</time></trkpt><trkpt lat="44.8649934810859" lon="5.598529775805369"><ele>770.0</ele><time>2026-04-28T12:47:14.999Z</time></trkpt><trkpt lat="44.864849276255335" lon="5.598501534690508"><ele>770.5</ele><time>2026-04-28T12:47:15.999Z</time></trkpt><trkpt lat="44.864702452323364" lon="5.598489022628525"><ele>771.0</ele><time>2026-04-28T12:47:16.999Z</time></trkpt><trkpt lat="44.86455914189734" lon="5.598486544176359"><ele>771.0</ele><time>2026-04-28T12:47:17.999Z</time></trkpt><trkpt lat="44.86442295198549" lon="5.598500653450418"><ele>771.0</ele><time>2026-04-28T12:47:18.999Z</time></trkpt><trkpt lat="44.86428679806781" lon="5.59853694871948"><ele>771.0</ele><time>2026-04-28T12:47:19.999Z</time></trkpt><trkpt lat="44.86416778160106" lon="5.598561168357399"><ele>771.0</ele><time>2026-04-28T12:47:20.999Z</time></trkpt><trkpt lat="44.86405198804233" lon="5.598594478444861"><ele>770.8</ele><time>2026-04-28T12:47:21.999Z</time></trkpt><trkpt lat="44.8639477190446" lon="5.598638160051315"><ele>770.5999999999999</ele><time>2026-04-28T12:47:22.999Z</time></trkpt><trkpt lat="44.863847112134486" lon="5.598683281926923"><ele>770.4</ele><time>2026-04-28T12:47:23.999Z</time></trkpt><trkpt lat="44.863748463619814" lon="5.598731324727309"><ele>770.2</ele><time>2026-04-28T12:47:24.999Z</time></trkpt><trkpt lat="44.86365938394794" lon="5.598795895254748"><ele>770.0</ele><time>2026-04-28T12:47:25.999Z</time></trkpt><trkpt lat="44.863578078751694" lon="5.598840604324748"><ele>770.0000000000001</ele><time>2026-04-28T12:47:26.999Z</time></trkpt><trkpt lat="44.86350357121383" lon="5.598884820560626"><ele>770.0</ele><time>2026-04-28T12:47:27.999Z</time></trkpt><trkpt lat="44.86343195644123" lon="5.598932848805941"><ele>770.0</ele><time>2026-04-28T12:47:28.999Z</time></trkpt><trkpt lat="44.863305418197875" lon="5.599027991057127"><ele>770.0</ele><time>2026-04-28T12:47:30.999Z</time></trkpt><trkpt lat="44.86324658868039" lon="5.599060241672857"><ele>770.0000000000001</ele><time>2026-04-28T12:47:31.999Z</time></trkpt><trkpt lat="44.86319157569278" lon="5.599104581480819"><ele>770.0</ele><time>2026-04-28T12:47:32.999Z</time></trkpt><trkpt lat="44.86309913881488" lon="5.599190668730735"><ele>770.4</ele><time>2026-04-28T12:47:34.999Z</time></trkpt><trkpt lat="44.86301897656507" lon="5.599268692940984"><ele>770.8</ele><time>2026-04-28T12:47:36.999Z</time></trkpt><trkpt lat="44.86294624806756" lon="5.599350874221812"><ele>771.2</ele><time>2026-04-28T12:47:38.999Z</time></trkpt><trkpt lat="44.86287293623893" lon="5.599418262426719"><ele>771.6</ele><time>2026-04-28T12:47:40.999Z</time></trkpt><trkpt lat="44.86279767591112" lon="5.599502831642821"><ele>772.0</ele><time>2026-04-28T12:47:42.999Z</time></trkpt><trkpt lat="44.86273607169262" lon="5.599565374605929"><ele>772.0</ele><time>2026-04-28T12:47:44.999Z</time></trkpt><trkpt lat="44.86268249639578" lon="5.599645196622023"><ele>772.0</ele><time>2026-04-28T12:47:46.999Z</time></trkpt><trkpt lat="44.86261629466573" lon="5.5997166795041124"><ele>772.0</ele><time>2026-04-28T12:47:48.999Z</time></trkpt><trkpt lat="44.862543827371056" lon="5.59978161012312"><ele>772.0</ele><time>2026-04-28T12:47:50.999Z</time></trkpt><trkpt lat="44.86246598739774" lon="5.599941835392438"><ele>772.0</ele><time>2026-04-28T12:47:54.999Z</time></trkpt><trkpt lat="44.862407086223264" lon="5.599982676264184"><ele>774.7142857142858</ele><time>2026-04-28T12:47:56.999Z</time></trkpt><trkpt lat="44.86236638613891" lon="5.600088309986108"><ele>777.4285714285714</ele><time>2026-04-28T12:47:58.999Z</time></trkpt><trkpt lat="44.86232369328886" lon="5.600171530688013"><ele>780.1428571428571</ele><time>2026-04-28T12:48:00.999Z</time></trkpt><trkpt lat="44.86227544365604" lon="5.600249205882806"><ele>782.8571428571429</ele><time>2026-04-28T12:48:02.999Z</time></trkpt><trkpt lat="44.8622445050168" lon="5.600336997604473"><ele>785.5714285714286</ele><time>2026-04-28T12:48:05Z</time></trkpt><trkpt lat="44.862201653392006" lon="5.6004103133881395"><ele>788.2857142857143</ele><time>2026-04-28T12:48:07Z</time></trkpt><trkpt lat="44.862164938211336" lon="5.600491674946598"><ele>791.0</ele><time>2026-04-28T12:48:09Z</time></trkpt><trkpt lat="44.862140673800404" lon="5.600588178695328"><ele>791.8333333333334</ele><time>2026-04-28T12:48:11Z</time></trkpt><trkpt lat="44.86209529442084" lon="5.600654109227745"><ele>792.6666666666667</ele><time>2026-04-28T12:48:13Z</time></trkpt><trkpt lat="44.86203195034034" lon="5.600817318854973"><ele>793.5</ele><time>2026-04-28T12:48:17Z</time></trkpt><trkpt lat="44.862000922898766" lon="5.6008982187748035"><ele>794.3333333333333</ele><time>2026-04-28T12:48:19Z</time></trkpt><trkpt lat="44.86195725111732" lon="5.600969547209431"><ele>795.1666666666666</ele><time>2026-04-28T12:48:21Z</time></trkpt><trkpt lat="44.86192883118772" lon="5.601056425128783"><ele>796.0</ele><time>2026-04-28T12:48:23Z</time></trkpt><trkpt lat="44.861906379047404" lon="5.601184985838129"><ele>795.9999999999999</ele><time>2026-04-28T12:48:26Z</time></trkpt><trkpt lat="44.86186904646709" lon="5.601265317709049"><ele>796.0</ele><time>2026-04-28T12:48:28Z</time></trkpt><trkpt lat="44.86183460820407" lon="5.601343298708531"><ele>796.0</ele><time>2026-04-28T12:48:30Z</time></trkpt><trkpt lat="44.86182897519415" lon="5.601436507158406"><ele>796.0</ele><time>2026-04-28T12:48:32Z</time></trkpt><trkpt lat="44.861781538906115" lon="5.60150459103936"><ele>795.9999999999999</ele><time>2026-04-28T12:48:34Z</time></trkpt><trkpt lat="44.861724204313745" lon="5.601664428463072"><ele>796.0</ele><time>2026-04-28T12:48:38Z</time></trkpt><trkpt lat="44.861699411714284" lon="5.601746073976381"><ele>796.5714285714286</ele><time>2026-04-28T12:48:40Z</time></trkpt><trkpt lat="44.86166752173738" lon="5.601824578491914"><ele>797.1428571428571</ele><time>2026-04-28T12:48:42Z</time></trkpt><trkpt lat="44.86163517550361" lon="5.601910320127551"><ele>797.7142857142858</ele><time>2026-04-28T12:48:44Z</time></trkpt><trkpt lat="44.86159952570072" lon="5.601996232400619"><ele>798.2857142857142</ele><time>2026-04-28T12:48:46Z</time></trkpt><trkpt lat="44.8615587877785" lon="5.602088381014787"><ele>798.8571428571429</ele><time>2026-04-28T12:48:48Z</time></trkpt><trkpt lat="44.86151415525569" lon="5.602187135168767"><ele>799.4285714285714</ele><time>2026-04-28T12:48:50Z</time></trkpt><trkpt lat="44.86148076276594" lon="5.602288504356374"><ele>800.0</ele><time>2026-04-28T12:48:52Z</time></trkpt><trkpt lat="44.86142898322396" lon="5.6023832782000085"><ele>800.25</ele><time>2026-04-28T12:48:54Z</time></trkpt><trkpt lat="44.86139090960158" lon="5.602492310759627"><ele>800.5</ele><time>2026-04-28T12:48:56Z</time></trkpt><trkpt lat="44.86130537378054" lon="5.602715424406747"><ele>800.75</ele><time>2026-04-28T12:49:00Z</time></trkpt><trkpt lat="44.86126865590233" lon="5.602831505230243"><ele>801.0</ele><time>2026-04-28T12:49:02Z</time></trkpt><trkpt lat="44.86121389980289" lon="5.6029463979393785"><ele>801.0</ele><time>2026-04-28T12:49:04Z</time></trkpt><trkpt lat="44.86115894227881" lon="5.603071813652145"><ele>801.0</ele><time>2026-04-28T12:49:06Z</time></trkpt><trkpt lat="44.86110304884518" lon="5.6032048768744485"><ele>801.0</ele><time>2026-04-28T12:49:07.999Z</time></trkpt><trkpt lat="44.86105254855555" lon="5.603344060262846"><ele>801.0</ele><time>2026-04-28T12:49:09.999Z</time></trkpt><trkpt lat="44.860996914873155" lon="5.6034855233039895"><ele>801.0</ele><time>2026-04-28T12:49:11.999Z</time></trkpt><trkpt lat="44.86094002972075" lon="5.603631543772352"><ele>800.4</ele><time>2026-04-28T12:49:13.999Z</time></trkpt><trkpt lat="44.860877227557864" lon="5.603778852831666"><ele>799.8</ele><time>2026-04-28T12:49:15.999Z</time></trkpt><trkpt lat="44.86084505512684" lon="5.603856545340641"><ele>799.1999999999999</ele><time>2026-04-28T12:49:16.999Z</time></trkpt><trkpt lat="44.860782994352455" lon="5.6040157538082"><ele>798.5999999999999</ele><time>2026-04-28T12:49:18.999Z</time></trkpt><trkpt lat="44.860750438030394" lon="5.6040995361610015"><ele>798.0</ele><time>2026-04-28T12:49:19.999Z</time></trkpt><trkpt lat="44.86071867658357" lon="5.60418373001285"><ele>798.0</ele><time>2026-04-28T12:49:20.999Z</time></trkpt><trkpt lat="44.86068522618086" lon="5.604269810158854"><ele>798.0</ele><time>2026-04-28T12:49:21.999Z</time></trkpt><trkpt lat="44.86065251182496" lon="5.60435823689389"><ele>798.0</ele><time>2026-04-28T12:49:22.999Z</time></trkpt><trkpt lat="44.860621755716785" lon="5.60445264607198"><ele>798.0</ele><time>2026-04-28T12:49:23.999Z</time></trkpt><trkpt lat="44.86058512117605" lon="5.604542537035237"><ele>798.0</ele><time>2026-04-28T12:49:24.999Z</time></trkpt><trkpt lat="44.860548970147825" lon="5.604632871049774"><ele>798.0</ele><time>2026-04-28T12:49:25.999Z</time></trkpt><trkpt lat="44.860514516927246" lon="5.604723340693679"><ele>798.0</ele><time>2026-04-28T12:49:26.999Z</time></trkpt><trkpt lat="44.86047929162269" lon="5.6048152064449255"><ele>797.6666666666666</ele><time>2026-04-28T12:49:27.999Z</time></trkpt><trkpt lat="44.86044603086719" lon="5.604909357178152"><ele>797.3333333333333</ele><time>2026-04-28T12:49:28.999Z</time></trkpt><trkpt lat="44.86040966472918" lon="5.6050038806260964"><ele>797.0</ele><time>2026-04-28T12:49:29.999Z</time></trkpt><trkpt lat="44.86037712133356" lon="5.605101395142948"><ele>796.6666666666666</ele><time>2026-04-28T12:49:30.999Z</time></trkpt><trkpt lat="44.86033872387069" lon="5.6051987148588704"><ele>796.3333333333333</ele><time>2026-04-28T12:49:31.999Z</time></trkpt><trkpt lat="44.86029980531378" lon="5.605293885036383"><ele>796.0</ele><time>2026-04-28T12:49:32.999Z</time></trkpt><trkpt lat="44.860262213989934" lon="5.605393396241086"><ele>796.4</ele><time>2026-04-28T12:49:33.999Z</time></trkpt><trkpt lat="44.86022621981765" lon="5.605494563226655"><ele>796.8</ele><time>2026-04-28T12:49:34.999Z</time></trkpt><trkpt lat="44.860188109177926" lon="5.605591873312041"><ele>797.1999999999999</ele><time>2026-04-28T12:49:35.999Z</time></trkpt><trkpt lat="44.86014929321141" lon="5.605691064728857"><ele>797.5999999999999</ele><time>2026-04-28T12:49:36.999Z</time></trkpt><trkpt lat="44.860110090702214" lon="5.6057919506557035"><ele>798.0</ele><time>2026-04-28T12:49:37.999Z</time></trkpt><trkpt lat="44.860036119211955" lon="5.606000686474146"><ele>798.0</ele><time>2026-04-28T12:49:39.999Z</time></trkpt><trkpt lat="44.85999621721445" lon="5.606102359610709"><ele>798.0</ele><time>2026-04-28T12:49:40.999Z</time></trkpt><trkpt lat="44.859953456811695" lon="5.606209151754318"><ele>798.0</ele><time>2026-04-28T12:49:41.999Z</time></trkpt><trkpt lat="44.859911608125564" lon="5.606315116047244"><ele>798.0</ele><time>2026-04-28T12:49:42.999Z</time></trkpt><trkpt lat="44.859870045647945" lon="5.606424147484645"><ele>798.0</ele><time>2026-04-28T12:49:43.999Z</time></trkpt><trkpt lat="44.85982614025537" lon="5.606529084932524"><ele>798.0</ele><time>2026-04-28T12:49:44.999Z</time></trkpt><trkpt lat="44.859784171270874" lon="5.606638105268891"><ele>797.0</ele><time>2026-04-28T12:49:45.999Z</time></trkpt><trkpt lat="44.85973748787246" lon="5.606744130447663"><ele>796.0</ele><time>2026-04-28T12:49:46.999Z</time></trkpt><trkpt lat="44.85968641642862" lon="5.606849690076239"><ele>795.0</ele><time>2026-04-28T12:49:47.999Z</time></trkpt><trkpt lat="44.85963561356523" lon="5.606956221179154"><ele>794.0</ele><time>2026-04-28T12:49:48.999Z</time></trkpt><trkpt lat="44.85958452939373" lon="5.607063142533378"><ele>793.0</ele><time>2026-04-28T12:49:49.999Z</time></trkpt><trkpt lat="44.85953237493298" lon="5.607170100802687"><ele>792.4</ele><time>2026-04-28T12:49:50.999Z</time></trkpt><trkpt lat="44.8594791349459" lon="5.607278074526735"><ele>791.8</ele><time>2026-04-28T12:49:51.999Z</time></trkpt><trkpt lat="44.85942402261252" lon="5.607386682967148"><ele>791.2</ele><time>2026-04-28T12:49:52.999Z</time></trkpt><trkpt lat="44.85937011863069" lon="5.607498150232098"><ele>790.6</ele><time>2026-04-28T12:49:53.999Z</time></trkpt><trkpt lat="44.85931278095755" lon="5.607606489038433"><ele>790.0</ele><time>2026-04-28T12:49:54.999Z</time></trkpt><trkpt lat="44.8592579257645" lon="5.607712790663281"><ele>790.5</ele><time>2026-04-28T12:49:55.999Z</time></trkpt><trkpt lat="44.85920518278524" lon="5.6078214021879935"><ele>791.0</ele><time>2026-04-28T12:49:56.999Z</time></trkpt><trkpt lat="44.85914466404118" lon="5.607927383309541"><ele>791.5</ele><time>2026-04-28T12:49:57.999Z</time></trkpt><trkpt lat="44.859080988748545" lon="5.608033929386105"><ele>792.0</ele><time>2026-04-28T12:49:58.999Z</time></trkpt><trkpt lat="44.85895514013019" lon="5.608242405903798"><ele>792.0</ele><time>2026-04-28T12:50:00.999Z</time></trkpt><trkpt lat="44.85888914410394" lon="5.608345490604275"><ele>792.0</ele><time>2026-04-28T12:50:01.999Z</time></trkpt><trkpt lat="44.858821667873364" lon="5.6084469558888115"><ele>792.0</ele><time>2026-04-28T12:50:02.999Z</time></trkpt><trkpt lat="44.85875589734295" lon="5.608548746336723"><ele>792.0</ele><time>2026-04-28T12:50:03.999Z</time></trkpt><trkpt lat="44.858690259843385" lon="5.608652400272837"><ele>792.0</ele><time>2026-04-28T12:50:04.999Z</time></trkpt><trkpt lat="44.85862640310087" lon="5.608757222303364"><ele>791.4000000000001</ele><time>2026-04-28T12:50:05.999Z</time></trkpt><trkpt lat="44.8585547107826" lon="5.608858265641371"><ele>790.8000000000001</ele><time>2026-04-28T12:50:06.999Z</time></trkpt><trkpt lat="44.85847731755486" lon="5.608953505502456"><ele>790.2</ele><time>2026-04-28T12:50:07.999Z</time></trkpt><trkpt lat="44.85839970352272" lon="5.609049975439768"><ele>789.6</ele><time>2026-04-28T12:50:08.999Z</time></trkpt><trkpt lat="44.858323138334164" lon="5.609152359227722"><ele>789.0</ele><time>2026-04-28T12:50:09.999Z</time></trkpt><trkpt lat="44.85824903246184" lon="5.609247967812655"><ele>789.0</ele><time>2026-04-28T12:50:10.999Z</time></trkpt><trkpt lat="44.85816778797483" lon="5.609342819781824"><ele>789.0</ele><time>2026-04-28T12:50:11.999Z</time></trkpt><trkpt lat="44.858087042728116" lon="5.609436821660962"><ele>789.0</ele><time>2026-04-28T12:50:12.999Z</time></trkpt><trkpt lat="44.858005069703545" lon="5.60953253295571"><ele>789.0</ele><time>2026-04-28T12:50:13.999Z</time></trkpt><trkpt lat="44.85792784279515" lon="5.609632844923287"><ele>789.0</ele><time>2026-04-28T12:50:14.999Z</time></trkpt><trkpt lat="44.85784109288706" lon="5.60972388300459"><ele>788.6</ele><time>2026-04-28T12:50:15.999Z</time></trkpt><trkpt lat="44.857754585456846" lon="5.609811056194688"><ele>788.2</ele><time>2026-04-28T12:50:16.999Z</time></trkpt><trkpt lat="44.857672438767665" lon="5.609907754885891"><ele>787.8000000000001</ele><time>2026-04-28T12:50:17.999Z</time></trkpt><trkpt lat="44.85758657917645" lon="5.6100205367545195"><ele>787.4000000000001</ele><time>2026-04-28T12:50:18.999Z</time></trkpt><trkpt lat="44.85750359854768" lon="5.610101883010784"><ele>787.0</ele><time>2026-04-28T12:50:19.999Z</time></trkpt><trkpt lat="44.8573268026637" lon="5.610288799031062"><ele>784.75</ele><time>2026-04-28T12:50:22Z</time></trkpt><trkpt lat="44.857239088425665" lon="5.610389458299793"><ele>782.5</ele><time>2026-04-28T12:50:23Z</time></trkpt><trkpt lat="44.857150039817625" lon="5.610492154277454"><ele>780.25</ele><time>2026-04-28T12:50:24Z</time></trkpt><trkpt lat="44.85706120328347" lon="5.610583630152674"><ele>778.0</ele><time>2026-04-28T12:50:25Z</time></trkpt><trkpt lat="44.85697645226363" lon="5.61068974893845"><ele>778.0</ele><time>2026-04-28T12:50:26Z</time></trkpt><trkpt lat="44.856881170035805" lon="5.610785447243417"><ele>778.0</ele><time>2026-04-28T12:50:27Z</time></trkpt><trkpt lat="44.85678937337939" lon="5.610895167998016"><ele>778.0</ele><time>2026-04-28T12:50:28Z</time></trkpt><trkpt lat="44.85670429009328" lon="5.61100042049339"><ele>778.0</ele><time>2026-04-28T12:50:29Z</time></trkpt><trkpt lat="44.85662401183063" lon="5.611112026825396"><ele>777.25</ele><time>2026-04-28T12:50:30Z</time></trkpt><trkpt lat="44.85654344600436" lon="5.6112300637921235"><ele>776.5</ele><time>2026-04-28T12:50:31Z</time></trkpt><trkpt lat="44.856465019892255" lon="5.611354044189932"><ele>775.75</ele><time>2026-04-28T12:50:32Z</time></trkpt><trkpt lat="44.85638604421365" lon="5.611488808322464"><ele>775.0</ele><time>2026-04-28T12:50:33Z</time></trkpt><trkpt lat="44.856312515800674" lon="5.6116273914047765"><ele>775.0</ele><time>2026-04-28T12:50:34Z</time></trkpt><trkpt lat="44.85624102549743" lon="5.611773597646072"><ele>775.0</ele><time>2026-04-28T12:50:35Z</time></trkpt><trkpt lat="44.85616512899213" lon="5.611925969385471"><ele>775.0</ele><time>2026-04-28T12:50:36Z</time></trkpt><trkpt lat="44.85609149956068" lon="5.612075817940591"><ele>775.0</ele><time>2026-04-28T12:50:37Z</time></trkpt><trkpt lat="44.8560159589943" lon="5.612230703064613"><ele>774.75</ele><time>2026-04-28T12:50:38Z</time></trkpt><trkpt lat="44.85594538351132" lon="5.612381435031503"><ele>774.5</ele><time>2026-04-28T12:50:39Z</time></trkpt><trkpt lat="44.85587695702883" lon="5.612540817676635"><ele>774.25</ele><time>2026-04-28T12:50:40Z</time></trkpt><trkpt lat="44.85580530919532" lon="5.612698289678718"><ele>774.0</ele><time>2026-04-28T12:50:41Z</time></trkpt><trkpt lat="44.85565691634854" lon="5.613019036726055"><ele>774.0</ele><time>2026-04-28T12:50:42.999Z</time></trkpt><trkpt lat="44.85558417823446" lon="5.613183203812315"><ele>774.0</ele><time>2026-04-28T12:50:43.999Z</time></trkpt><trkpt lat="44.855512919804845" lon="5.6133400260664414"><ele>774.0</ele><time>2026-04-28T12:50:44.999Z</time></trkpt><trkpt lat="44.8554297317873" lon="5.613499897637409"><ele>774.0</ele><time>2026-04-28T12:50:45.999Z</time></trkpt><trkpt lat="44.85536182842343" lon="5.61366922269415"><ele>773.25</ele><time>2026-04-28T12:50:46.999Z</time></trkpt><trkpt lat="44.85528888912253" lon="5.613834470184925"><ele>772.5</ele><time>2026-04-28T12:50:47.999Z</time></trkpt><trkpt lat="44.855219395633924" lon="5.613994721884712"><ele>771.75</ele><time>2026-04-28T12:50:48.999Z</time></trkpt><trkpt lat="44.855140624853334" lon="5.614142092087184"><ele>771.0</ele><time>2026-04-28T12:50:49.999Z</time></trkpt><trkpt lat="44.85507285916623" lon="5.614290276849176"><ele>771.0</ele><time>2026-04-28T12:50:50.999Z</time></trkpt><trkpt lat="44.855004476939186" lon="5.6144358427996846"><ele>771.0</ele><time>2026-04-28T12:50:51.999Z</time></trkpt><trkpt lat="44.854931362681626" lon="5.614599781075238"><ele>771.0</ele><time>2026-04-28T12:50:52.999Z</time></trkpt><trkpt lat="44.854860286045984" lon="5.614749667825098"><ele>771.0</ele><time>2026-04-28T12:50:53.999Z</time></trkpt><trkpt lat="44.85479213164327" lon="5.614901662800927"><ele>768.0</ele><time>2026-04-28T12:50:54.999Z</time></trkpt><trkpt lat="44.85472048600138" lon="5.615054586987432"><ele>765.0</ele><time>2026-04-28T12:50:55.999Z</time></trkpt><trkpt lat="44.854643654609404" lon="5.615208062399292"><ele>762.0</ele><time>2026-04-28T12:50:56.999Z</time></trkpt><trkpt lat="44.85457671437273" lon="5.615363364131419"><ele>759.0</ele><time>2026-04-28T12:50:57.999Z</time></trkpt><trkpt lat="44.85450843381899" lon="5.615518587408363"><ele>758.25</ele><time>2026-04-28T12:50:58.999Z</time></trkpt><trkpt lat="44.85443674137121" lon="5.615669217570944"><ele>757.5</ele><time>2026-04-28T12:50:59.999Z</time></trkpt><trkpt lat="44.854366990186804" lon="5.615817646814727"><ele>756.75</ele><time>2026-04-28T12:51:00.999Z</time></trkpt><trkpt lat="44.85429480969331" lon="5.615963342202915"><ele>756.0</ele><time>2026-04-28T12:51:01.999Z</time></trkpt><trkpt lat="44.85416647067605" lon="5.616257548329868"><ele>756.0</ele><time>2026-04-28T12:51:03.999Z</time></trkpt><trkpt lat="44.85411396758994" lon="5.616409568051836"><ele>756.0</ele><time>2026-04-28T12:51:04.999Z</time></trkpt><trkpt lat="44.85405155991058" lon="5.616557436241175"><ele>756.0</ele><time>2026-04-28T12:51:05.999Z</time></trkpt><trkpt lat="44.85399381787795" lon="5.616704433298756"><ele>756.0</ele><time>2026-04-28T12:51:06.999Z</time></trkpt><trkpt lat="44.8539427836689" lon="5.61685883451415"><ele>753.0</ele><time>2026-04-28T12:51:07.999Z</time></trkpt><trkpt lat="44.853804628871174" lon="5.61732745294148"><ele>750.0</ele><time>2026-04-28T12:51:10.999Z</time></trkpt><trkpt lat="44.85375791481487" lon="5.617488509884303"><ele>750.0</ele><time>2026-04-28T12:51:11.999Z</time></trkpt><trkpt lat="44.853708977730385" lon="5.617646509349565"><ele>750.0</ele><time>2026-04-28T12:51:12.999Z</time></trkpt><trkpt lat="44.85366571950115" lon="5.6178053291750105"><ele>750.0</ele><time>2026-04-28T12:51:13.999Z</time></trkpt><trkpt lat="44.853623302491826" lon="5.617960304998815"><ele>750.0</ele><time>2026-04-28T12:51:14.999Z</time></trkpt><trkpt lat="44.85357508120024" lon="5.618111715453685"><ele>750.5</ele><time>2026-04-28T12:51:15.999Z</time></trkpt><trkpt lat="44.85353198626572" lon="5.618265520139022"><ele>751.0</ele><time>2026-04-28T12:51:16.999Z</time></trkpt><trkpt lat="44.85348538361822" lon="5.618413438639206"><ele>751.5</ele><time>2026-04-28T12:51:17.999Z</time></trkpt><trkpt lat="44.8534397390345" lon="5.618568063770371"><ele>752.0</ele><time>2026-04-28T12:51:18.999Z</time></trkpt><trkpt lat="44.85338447548253" lon="5.61871230859131"><ele>752.0</ele><time>2026-04-28T12:51:19.999Z</time></trkpt><trkpt lat="44.853331362339574" lon="5.618860768622706"><ele>752.0</ele><time>2026-04-28T12:51:20.999Z</time></trkpt><trkpt lat="44.85327127537581" lon="5.6190058959207025"><ele>752.0</ele><time>2026-04-28T12:51:21.999Z</time></trkpt><trkpt lat="44.853211196565894" lon="5.619143472156992"><ele>752.0</ele><time>2026-04-28T12:51:22.999Z</time></trkpt><trkpt lat="44.853082302941985" lon="5.619402188122418"><ele>751.2</ele><time>2026-04-28T12:51:24.999Z</time></trkpt><trkpt lat="44.85301178160826" lon="5.619524448003418"><ele>750.4000000000001</ele><time>2026-04-28T12:51:25.999Z</time></trkpt><trkpt lat="44.85293476435412" lon="5.619638681355952"><ele>749.5999999999999</ele><time>2026-04-28T12:51:26.999Z</time></trkpt><trkpt lat="44.85286200662208" lon="5.619755600448579"><ele>748.8</ele><time>2026-04-28T12:51:27.999Z</time></trkpt><trkpt lat="44.8527841677072" lon="5.619864515324196"><ele>748.0</ele><time>2026-04-28T12:51:28.999Z</time></trkpt><trkpt lat="44.852700280910774" lon="5.619964401681106"><ele>748.0</ele><time>2026-04-28T12:51:29.999Z</time></trkpt><trkpt lat="44.852607569445134" lon="5.620053996298334"><ele>748.0</ele><time>2026-04-28T12:51:30.999Z</time></trkpt><trkpt lat="44.85251491617067" lon="5.62013410149249"><ele>748.0</ele><time>2026-04-28T12:51:31.999Z</time></trkpt><trkpt lat="44.85242106606302" lon="5.620210036791294"><ele>748.0</ele><time>2026-04-28T12:51:32.999Z</time></trkpt><trkpt lat="44.852324405269314" lon="5.62028752189361"><ele>748.0</ele><time>2026-04-28T12:51:33.999Z</time></trkpt><trkpt lat="44.85222648159979" lon="5.6203592450094035"><ele>747.4</ele><time>2026-04-28T12:51:34.999Z</time></trkpt><trkpt lat="44.852131695344845" lon="5.620422455512565"><ele>746.8</ele><time>2026-04-28T12:51:35.999Z</time></trkpt><trkpt lat="44.85203402637686" lon="5.620480216127074"><ele>746.2</ele><time>2026-04-28T12:51:36.999Z</time></trkpt><trkpt lat="44.851937132583856" lon="5.620530066553219"><ele>745.6</ele><time>2026-04-28T12:51:37.999Z</time></trkpt><trkpt lat="44.85184619977512" lon="5.620573982793323"><ele>745.0</ele><time>2026-04-28T12:51:38.999Z</time></trkpt><trkpt lat="44.851756148203904" lon="5.620625746229484"><ele>745.0</ele><time>2026-04-28T12:51:39.999Z</time></trkpt><trkpt lat="44.851671464365744" lon="5.620660028438271"><ele>745.0</ele><time>2026-04-28T12:51:40.999Z</time></trkpt><trkpt lat="44.851592440028796" lon="5.6206810486509955"><ele>745.0</ele><time>2026-04-28T12:51:41.999Z</time></trkpt><trkpt lat="44.8515160617457" lon="5.620702903951663"><ele>745.0</ele><time>2026-04-28T12:51:42.999Z</time></trkpt><trkpt lat="44.851443516350635" lon="5.620727348007626"><ele>745.0</ele><time>2026-04-28T12:51:43.999Z</time></trkpt><trkpt lat="44.85130062016988" lon="5.620754936807417"><ele>745.0</ele><time>2026-04-28T12:51:45.999Z</time></trkpt><trkpt lat="44.8512314378621" lon="5.620768837851576"><ele>745.0</ele><time>2026-04-28T12:51:46.999Z</time></trkpt><trkpt lat="44.851164407627124" lon="5.6207811054666825"><ele>745.0</ele><time>2026-04-28T12:51:47.999Z</time></trkpt><trkpt lat="44.85110074445783" lon="5.620789842150908"><ele>745.0</ele><time>2026-04-28T12:51:48.999Z</time></trkpt><trkpt lat="44.85103554244434" lon="5.620801893420858"><ele>745.0</ele><time>2026-04-28T12:51:49.999Z</time></trkpt><trkpt lat="44.8509708278971" lon="5.620811335206278"><ele>745.0</ele><time>2026-04-28T12:51:50.999Z</time></trkpt><trkpt lat="44.85090754772737" lon="5.620818158736818"><ele>745.0</ele><time>2026-04-28T12:51:51.999Z</time></trkpt><trkpt lat="44.85084371169709" lon="5.6208148932571085"><ele>746.5</ele><time>2026-04-28T12:51:52.999Z</time></trkpt><trkpt lat="44.85072238116755" lon="5.620812723591809"><ele>748.0</ele><time>2026-04-28T12:51:54.999Z</time></trkpt><trkpt lat="44.850604892655284" lon="5.620802330504729"><ele>749.5</ele><time>2026-04-28T12:51:56.999Z</time></trkpt><trkpt lat="44.85049221406997" lon="5.620778524542735"><ele>751.0</ele><time>2026-04-28T12:51:58.999Z</time></trkpt><trkpt lat="44.85037498632637" lon="5.620740666610461"><ele>751.0</ele><time>2026-04-28T12:52:00.999Z</time></trkpt><trkpt lat="44.850257780209105" lon="5.620686214953638"><ele>751.0</ele><time>2026-04-28T12:52:02.999Z</time></trkpt><trkpt lat="44.85019459436756" lon="5.620662379729271"><ele>751.0</ele><time>2026-04-28T12:52:03.999Z</time></trkpt><trkpt lat="44.85013398779138" lon="5.620637267682946"><ele>751.0</ele><time>2026-04-28T12:52:04.999Z</time></trkpt><trkpt lat="44.84905360164506" lon="5.619642640711004"><ele>750.6666666666667</ele><time>2026-04-28T12:52:21.999Z</time></trkpt><trkpt lat="44.84899719780061" lon="5.619563006082013"><ele>750.3333333333334</ele><time>2026-04-28T12:52:22.999Z</time></trkpt><trkpt lat="44.84893993201401" lon="5.619482234422856"><ele>750.0</ele><time>2026-04-28T12:52:23.999Z</time></trkpt><trkpt lat="44.848885388485186" lon="5.619394616085242"><ele>749.6666666666666</ele><time>2026-04-28T12:52:24.999Z</time></trkpt><trkpt lat="44.848832321030635" lon="5.619307958954246"><ele>749.3333333333333</ele><time>2026-04-28T12:52:25.999Z</time></trkpt><trkpt lat="44.84877356902231" lon="5.61922112819574"><ele>749.0</ele><time>2026-04-28T12:52:26.999Z</time></trkpt><trkpt lat="44.848714722842445" lon="5.61914396975486"><ele>747.8333333333333</ele><time>2026-04-28T12:52:27.999Z</time></trkpt><trkpt lat="44.848653880883354" lon="5.61906455342714"><ele>746.6666666666666</ele><time>2026-04-28T12:52:28.999Z</time></trkpt><trkpt lat="44.848592258698524" lon="5.618989250501389"><ele>745.5</ele><time>2026-04-28T12:52:29.999Z</time></trkpt><trkpt lat="44.848529457951955" lon="5.6189160271169465"><ele>744.3333333333334</ele><time>2026-04-28T12:52:30.999Z</time></trkpt><trkpt lat="44.84846350747095" lon="5.618844561161702"><ele>743.1666666666667</ele><time>2026-04-28T12:52:31.999Z</time></trkpt><trkpt lat="44.84839603994499" lon="5.6187770841017475"><ele>742.0</ele><time>2026-04-28T12:52:32.999Z</time></trkpt><trkpt lat="44.84832489184073" lon="5.618718787147819"><ele>742.0</ele><time>2026-04-28T12:52:33.999Z</time></trkpt><trkpt lat="44.84825289577046" lon="5.618668197990583"><ele>742.0</ele><time>2026-04-28T12:52:34.999Z</time></trkpt><trkpt lat="44.848181258693145" lon="5.618621532784962"><ele>742.0</ele><time>2026-04-28T12:52:35.999Z</time></trkpt><trkpt lat="44.84810642562559" lon="5.618576601368937"><ele>742.0</ele><time>2026-04-28T12:52:36.999Z</time></trkpt><trkpt lat="44.84803452014117" lon="5.618533496392878"><ele>742.0</ele><time>2026-04-28T12:52:37.999Z</time></trkpt><trkpt lat="44.84796141384806" lon="5.618497932552494"><ele>742.0</ele><time>2026-04-28T12:52:38.999Z</time></trkpt><trkpt lat="44.84788563377114" lon="5.618468933190612"><ele>742.8333333333334</ele><time>2026-04-28T12:52:39.999Z</time></trkpt><trkpt lat="44.84781033733267" lon="5.61844459713378"><ele>743.6666666666667</ele><time>2026-04-28T12:52:40.999Z</time></trkpt><trkpt lat="44.84773575106303" lon="5.618426175182782"><ele>744.5</ele><time>2026-04-28T12:52:41.999Z</time></trkpt><trkpt lat="44.84766173955867" lon="5.618409072175975"><ele>745.3333333333334</ele><time>2026-04-28T12:52:42.999Z</time></trkpt><trkpt lat="44.84758694034337" lon="5.618390207558323"><ele>746.1666666666666</ele><time>2026-04-28T12:52:43.999Z</time></trkpt><trkpt lat="44.8475137738346" lon="5.618375819951726"><ele>747.0</ele><time>2026-04-28T12:52:44.999Z</time></trkpt><trkpt lat="44.847441197093254" lon="5.618366730689425"><ele>746.9999999999999</ele><time>2026-04-28T12:52:45.999Z</time></trkpt><trkpt lat="44.84736738870211" lon="5.618363193799402"><ele>747.0</ele><time>2026-04-28T12:52:46.999Z</time></trkpt><trkpt lat="44.84729387244151" lon="5.6183712319247086"><ele>747.0</ele><time>2026-04-28T12:52:47.999Z</time></trkpt><trkpt lat="44.84722355872677" lon="5.618378754186286"><ele>747.0</ele><time>2026-04-28T12:52:48.999Z</time></trkpt><trkpt lat="44.84715402554668" lon="5.618388048084572"><ele>747.0</ele><time>2026-04-28T12:52:49.999Z</time></trkpt><trkpt lat="44.84708729769072" lon="5.6184062916874575"><ele>746.9999999999999</ele><time>2026-04-28T12:52:50.999Z</time></trkpt><trkpt lat="44.84702141134394" lon="5.618422915904915"><ele>747.0</ele><time>2026-04-28T12:52:51.999Z</time></trkpt><trkpt lat="44.84695367108565" lon="5.618434251452859"><ele>747.0</ele><time>2026-04-28T12:52:52.999Z</time></trkpt><trkpt lat="44.84688796241438" lon="5.618448507034012"><ele>747.0</ele><time>2026-04-28T12:52:53.999Z</time></trkpt><trkpt lat="44.846823520325735" lon="5.61846235059459"><ele>747.0</ele><time>2026-04-28T12:52:54.999Z</time></trkpt><trkpt lat="44.846760386878834" lon="5.6184783815461"><ele>747.0</ele><time>2026-04-28T12:52:55.999Z</time></trkpt><trkpt lat="44.8466416297223" lon="5.618504606636044"><ele>747.0</ele><time>2026-04-28T12:52:57.999Z</time></trkpt><trkpt lat="44.84652966826327" lon="5.618519838842901"><ele>747.0</ele><time>2026-04-28T12:52:59.999Z</time></trkpt><trkpt lat="44.84641508113497" lon="5.618531687243646"><ele>750.2</ele><time>2026-04-28T12:53:01.999Z</time></trkpt><trkpt lat="44.84629751761663" lon="5.618520742718074"><ele>753.4000000000001</ele><time>2026-04-28T12:53:03.999Z</time></trkpt><trkpt lat="44.8461854871005" lon="5.618519039075235"><ele>756.5999999999999</ele><time>2026-04-28T12:53:05.999Z</time></trkpt><trkpt lat="44.84607804615736" lon="5.618495128649491"><ele>759.8</ele><time>2026-04-28T12:53:07.999Z</time></trkpt><trkpt lat="44.845968587384036" lon="5.618473758828123"><ele>763.0</ele><time>2026-04-28T12:53:09.999Z</time></trkpt><trkpt lat="44.84586431196699" lon="5.618432132292181"><ele>763.2</ele><time>2026-04-28T12:53:11.999Z</time></trkpt><trkpt lat="44.845760723095495" lon="5.6183915038605035"><ele>763.4</ele><time>2026-04-28T12:53:13.999Z</time></trkpt><trkpt lat="44.845662823656866" lon="5.618337446213985"><ele>763.6</ele><time>2026-04-28T12:53:15.999Z</time></trkpt><trkpt lat="44.84556810098305" lon="5.61828319568398"><ele>763.8000000000001</ele><time>2026-04-28T12:53:17.999Z</time></trkpt><trkpt lat="44.84547407115491" lon="5.6182215882530615"><ele>764.0</ele><time>2026-04-28T12:53:19.999Z</time></trkpt><trkpt lat="44.845380010736754" lon="5.618141741099752"><ele>764.0</ele><time>2026-04-28T12:53:21.999Z</time></trkpt><trkpt lat="44.84528332803108" lon="5.618072494259833"><ele>764.0</ele><time>2026-04-28T12:53:23.999Z</time></trkpt><trkpt lat="44.84518748403507" lon="5.617989199193238"><ele>764.0</ele><time>2026-04-28T12:53:25.999Z</time></trkpt><trkpt lat="44.84508925323178" lon="5.6178917549310485"><ele>764.0</ele><time>2026-04-28T12:53:27.999Z</time></trkpt><trkpt lat="44.84498593834968" lon="5.617802312378377"><ele>765.0</ele><time>2026-04-28T12:53:29.999Z</time></trkpt><trkpt lat="44.84492826581171" lon="5.617761156021039"><ele>766.0</ele><time>2026-04-28T12:53:30.999Z</time></trkpt><trkpt lat="44.84487226976445" lon="5.617709253750303"><ele>767.0</ele><time>2026-04-28T12:53:31.999Z</time></trkpt><trkpt lat="44.84481247717319" lon="5.617660962835575"><ele>768.0</ele><time>2026-04-28T12:53:32.999Z</time></trkpt><trkpt lat="44.844748904311295" lon="5.617622398475922"><ele>769.0</ele><time>2026-04-28T12:53:33.999Z</time></trkpt><trkpt lat="44.84468208516207" lon="5.6175833311887"><ele>770.0</ele><time>2026-04-28T12:53:34.999Z</time></trkpt><trkpt lat="44.844614844203626" lon="5.6175491323290725"><ele>771.0</ele><time>2026-04-28T12:53:35.999Z</time></trkpt><trkpt lat="44.84454730405715" lon="5.6175067826380864"><ele>771.0</ele><time>2026-04-28T12:53:36.999Z</time></trkpt><trkpt lat="44.84447808386313" lon="5.617470215987738"><ele>771.0</ele><time>2026-04-28T12:53:37.999Z</time></trkpt><trkpt lat="44.84440576518615" lon="5.617441942856993"><ele>771.0</ele><time>2026-04-28T12:53:38.999Z</time></trkpt><trkpt lat="44.84433112663952" lon="5.6174158436415125"><ele>771.0</ele><time>2026-04-28T12:53:39.999Z</time></trkpt><trkpt lat="44.844258626411154" lon="5.617393132874337"><ele>771.0</ele><time>2026-04-28T12:53:40.999Z</time></trkpt><trkpt lat="44.84418412164611" lon="5.617377425986096"><ele>771.0</ele><time>2026-04-28T12:53:41.999Z</time></trkpt><trkpt lat="44.84411076913327" lon="5.617372346032741"><ele>771.0</ele><time>2026-04-28T12:53:42.999Z</time></trkpt><trkpt lat="44.8440392724838" lon="5.617372455296879"><ele>768.8571428571429</ele><time>2026-04-28T12:53:43.999Z</time></trkpt><trkpt lat="44.84396855692451" lon="5.617375986939334"><ele>766.7142857142857</ele><time>2026-04-28T12:53:44.999Z</time></trkpt><trkpt lat="44.843899343947676" lon="5.617386522028232"><ele>764.5714285714286</ele><time>2026-04-28T12:53:45.999Z</time></trkpt><trkpt lat="44.8438297587807" lon="5.617407278959025"><ele>762.4285714285714</ele><time>2026-04-28T12:53:46.999Z</time></trkpt><trkpt lat="44.84376278138197" lon="5.617438131933243"><ele>760.2857142857142</ele><time>2026-04-28T12:53:47.999Z</time></trkpt><trkpt lat="44.8436977124885" lon="5.617477389734997"><ele>758.1428571428571</ele><time>2026-04-28T12:53:48.999Z</time></trkpt><trkpt lat="44.84363303649345" lon="5.617516136394933"><ele>756.0</ele><time>2026-04-28T12:53:49.999Z</time></trkpt><trkpt lat="44.84357205787093" lon="5.617561331918216"><ele>756.0</ele><time>2026-04-28T12:53:50.999Z</time></trkpt><trkpt lat="44.84351243584878" lon="5.617606737236949"><ele>756.0</ele><time>2026-04-28T12:53:51.999Z</time></trkpt><trkpt lat="44.843449015198814" lon="5.61763921622314"><ele>756.0</ele><time>2026-04-28T12:53:52.999Z</time></trkpt><trkpt lat="44.84338904590777" lon="5.617676440521249"><ele>756.0</ele><time>2026-04-28T12:53:53.999Z</time></trkpt><trkpt lat="44.843327804459484" lon="5.617721419898262"><ele>756.0</ele><time>2026-04-28T12:53:54.999Z</time></trkpt><trkpt lat="44.84326537514517" lon="5.617769501473298"><ele>756.0</ele><time>2026-04-28T12:53:55.999Z</time></trkpt><trkpt lat="44.8432043138072" lon="5.617824347115772"><ele>756.0</ele><time>2026-04-28T12:53:56.999Z</time></trkpt><trkpt lat="44.84314242899549" lon="5.617870248044803"><ele>753.8333333333334</ele><time>2026-04-28T12:53:57.999Z</time></trkpt><trkpt lat="44.84308117174875" lon="5.617918413303892"><ele>751.6666666666666</ele><time>2026-04-28T12:53:58.999Z</time></trkpt><trkpt lat="44.84301870963637" lon="5.6179585926581765"><ele>749.5</ele><time>2026-04-28T12:53:59.999Z</time></trkpt><trkpt lat="44.8429591468343" lon="5.617998565172384"><ele>747.3333333333333</ele><time>2026-04-28T12:54:00.999Z</time></trkpt><trkpt lat="44.842900043261736" lon="5.618038806801456"><ele>745.1666666666666</ele><time>2026-04-28T12:54:01.999Z</time></trkpt><trkpt lat="44.84283951222272" lon="5.618069626654677"><ele>743.0</ele><time>2026-04-28T12:54:02.999Z</time></trkpt><trkpt lat="44.84271856571498" lon="5.618101283153911"><ele>743.0</ele><time>2026-04-28T12:54:04.999Z</time></trkpt><trkpt lat="44.84265665167632" lon="5.618119151044575"><ele>743.0</ele><time>2026-04-28T12:54:05.999Z</time></trkpt><trkpt lat="44.842534419715044" lon="5.618145078263346"><ele>743.0</ele><time>2026-04-28T12:54:07.999Z</time></trkpt><trkpt lat="44.84241494290328" lon="5.61815208324131"><ele>743.0</ele><time>2026-04-28T12:54:09.999Z</time></trkpt><trkpt lat="44.84229615859874" lon="5.618136172616506"><ele>743.0</ele><time>2026-04-28T12:54:11.999Z</time></trkpt><trkpt lat="44.84223113489574" lon="5.61813170674457"><ele>743.7142857142858</ele><time>2026-04-28T12:54:12.999Z</time></trkpt><trkpt lat="44.842167540725704" lon="5.6181117190142125"><ele>744.4285714285713</ele><time>2026-04-28T12:54:13.999Z</time></trkpt><trkpt lat="44.84210481006876" lon="5.618090066676481"><ele>745.1428571428571</ele><time>2026-04-28T12:54:14.999Z</time></trkpt><trkpt lat="44.842042781127375" lon="5.618064236894938"><ele>745.8571428571429</ele><time>2026-04-28T12:54:15.999Z</time></trkpt><trkpt lat="44.841980808013254" lon="5.618034111246787"><ele>746.5714285714287</ele><time>2026-04-28T12:54:16.999Z</time></trkpt><trkpt lat="44.84191988541871" lon="5.618000144624557"><ele>747.2857142857142</ele><time>2026-04-28T12:54:17.999Z</time></trkpt><trkpt lat="44.84185824705845" lon="5.617959731717001"><ele>748.0</ele><time>2026-04-28T12:54:18.999Z</time></trkpt><trkpt lat="44.84179509648164" lon="5.617919692827697"><ele>748.0</ele><time>2026-04-28T12:54:19.999Z</time></trkpt><trkpt lat="44.84173387073256" lon="5.617864915344153"><ele>748.0</ele><time>2026-04-28T12:54:20.999Z</time></trkpt><trkpt lat="44.84167079772268" lon="5.617805101558567"><ele>748.0</ele><time>2026-04-28T12:54:21.999Z</time></trkpt><trkpt lat="44.841608356705876" lon="5.617738857877884"><ele>748.0</ele><time>2026-04-28T12:54:22.999Z</time></trkpt><trkpt lat="44.8415485742289" lon="5.617663111480696"><ele>748.0</ele><time>2026-04-28T12:54:23.999Z</time></trkpt><trkpt lat="44.841489586024856" lon="5.617579895655775"><ele>748.0</ele><time>2026-04-28T12:54:24.999Z</time></trkpt><trkpt lat="44.84143169457736" lon="5.617485167732313"><ele>751.0</ele><time>2026-04-28T12:54:25.999Z</time></trkpt><trkpt lat="44.84138336636753" lon="5.617390270209486"><ele>754.0</ele><time>2026-04-28T12:54:26.999Z</time></trkpt><trkpt lat="44.84133088690567" lon="5.617291238857723"><ele>757.0</ele><time>2026-04-28T12:54:27.999Z</time></trkpt><trkpt lat="44.84127900064973" lon="5.6171927545185785"><ele>760.0</ele><time>2026-04-28T12:54:28.999Z</time></trkpt><trkpt lat="44.84122580110185" lon="5.61709244169695"><ele>763.0</ele><time>2026-04-28T12:54:29.999Z</time></trkpt><trkpt lat="44.841175234079365" lon="5.617004810158395"><ele>766.0</ele><time>2026-04-28T12:54:30.999Z</time></trkpt><trkpt lat="44.84112918067102" lon="5.616904342635014"><ele>764.0</ele><time>2026-04-28T12:54:31.999Z</time></trkpt><trkpt lat="44.84107898706159" lon="5.616810281288658"><ele>762.0</ele><time>2026-04-28T12:54:32.999Z</time></trkpt><trkpt lat="44.84103100938888" lon="5.616717584111553"><ele>760.0</ele><time>2026-04-28T12:54:33.999Z</time></trkpt><trkpt lat="44.840988995936705" lon="5.616618133713074"><ele>758.0</ele><time>2026-04-28T12:54:35Z</time></trkpt><trkpt lat="44.84094233924579" lon="5.616526507552667"><ele>756.0</ele><time>2026-04-28T12:54:36Z</time></trkpt><trkpt lat="44.84089344629231" lon="5.616438694856545"><ele>754.0</ele><time>2026-04-28T12:54:37Z</time></trkpt><trkpt lat="44.84084829414664" lon="5.616351839668674"><ele>753.9999999999999</ele><time>2026-04-28T12:54:38Z</time></trkpt><trkpt lat="44.84080630767471" lon="5.616269579550683"><ele>754.0</ele><time>2026-04-28T12:54:39Z</time></trkpt><trkpt lat="44.84076156051569" lon="5.6161852984359495"><ele>754.0</ele><time>2026-04-28T12:54:40Z</time></trkpt><trkpt lat="44.84071789026607" lon="5.61610182957359"><ele>754.0</ele><time>2026-04-28T12:54:41Z</time></trkpt><trkpt lat="44.840678836986804" lon="5.616016776560798"><ele>754.0</ele><time>2026-04-28T12:54:42Z</time></trkpt><trkpt lat="44.840640209670596" lon="5.615929477736693"><ele>753.9999999999999</ele><time>2026-04-28T12:54:43Z</time></trkpt><trkpt lat="44.84060525687231" lon="5.615844028246973"><ele>754.0</ele><time>2026-04-28T12:54:44Z</time></trkpt><trkpt lat="44.84056979311732" lon="5.615760527782189"><ele>756.9999999999999</ele><time>2026-04-28T12:54:45Z</time></trkpt><trkpt lat="44.84053896405058" lon="5.6156757263629515"><ele>760.0</ele><time>2026-04-28T12:54:46Z</time></trkpt><trkpt lat="44.84050781350403" lon="5.61558681319404"><ele>763.0</ele><time>2026-04-28T12:54:47Z</time></trkpt><trkpt lat="44.84048164309137" lon="5.615498373028287"><ele>766.0</ele><time>2026-04-28T12:54:48Z</time></trkpt><trkpt lat="44.84045710253818" lon="5.615409712817302"><ele>769.0</ele><time>2026-04-28T12:54:49Z</time></trkpt><trkpt lat="44.8404326891102" lon="5.615317441890913"><ele>771.9999999999999</ele><time>2026-04-28T12:54:50Z</time></trkpt><trkpt lat="44.840413547439745" lon="5.615225777962172"><ele>775.0</ele><time>2026-04-28T12:54:51Z</time></trkpt><trkpt lat="44.84040012336017" lon="5.615134918839309"><ele>776.1428571428571</ele><time>2026-04-28T12:54:52Z</time></trkpt><trkpt lat="44.84038755771164" lon="5.615036680950249"><ele>777.2857142857142</ele><time>2026-04-28T12:54:53Z</time></trkpt><trkpt lat="44.840381319614345" lon="5.614939178131063"><ele>778.4285714285713</ele><time>2026-04-28T12:54:54Z</time></trkpt><trkpt lat="44.84036852129689" lon="5.6148400107052225"><ele>779.5714285714286</ele><time>2026-04-28T12:54:55Z</time></trkpt><trkpt lat="44.84035394069198" lon="5.6147405565528095"><ele>780.7142857142858</ele><time>2026-04-28T12:54:56Z</time></trkpt><trkpt lat="44.84034079798314" lon="5.614637786038493"><ele>781.8571428571428</ele><time>2026-04-28T12:54:57Z</time></trkpt><trkpt lat="44.84033064290146" lon="5.614533274920487"><ele>783.0</ele><time>2026-04-28T12:54:58Z</time></trkpt><trkpt lat="44.84031966003716" lon="5.614427872261269"><ele>783.2857142857142</ele><time>2026-04-28T12:54:59Z</time></trkpt><trkpt lat="44.84030921006723" lon="5.614325801419457"><ele>783.5714285714287</ele><time>2026-04-28T12:55:00Z</time></trkpt><trkpt lat="44.840297465595505" lon="5.614220226463506"><ele>783.8571428571429</ele><time>2026-04-28T12:55:01Z</time></trkpt><trkpt lat="44.84028777310687" lon="5.614116753887808"><ele>784.1428571428571</ele><time>2026-04-28T12:55:02Z</time></trkpt><trkpt lat="44.84027941781654" lon="5.614014098652406"><ele>784.4285714285713</ele><time>2026-04-28T12:55:03Z</time></trkpt><trkpt lat="44.84026681558609" lon="5.613909259651793"><ele>784.7142857142858</ele><time>2026-04-28T12:55:04Z</time></trkpt><trkpt lat="44.8402540634644" lon="5.613807118472753"><ele>785.0</ele><time>2026-04-28T12:55:05Z</time></trkpt><trkpt lat="44.84023914471931" lon="5.613705798114452"><ele>785.0</ele><time>2026-04-28T12:55:06Z</time></trkpt><trkpt lat="44.84022162344363" lon="5.613606782925144"><ele>785.0</ele><time>2026-04-28T12:55:07Z</time></trkpt><trkpt lat="44.840205050851125" lon="5.613508176985647"><ele>785.0</ele><time>2026-04-28T12:55:08Z</time></trkpt><trkpt lat="44.84017981739" lon="5.613414026854257"><ele>785.0</ele><time>2026-04-28T12:55:09Z</time></trkpt><trkpt lat="44.84015413843195" lon="5.613318120796098"><ele>785.0</ele><time>2026-04-28T12:55:10Z</time></trkpt><trkpt lat="44.84012858655456" lon="5.613223303532175"><ele>785.0</ele><time>2026-04-28T12:55:11Z</time></trkpt><trkpt lat="44.84010222339234" lon="5.61313436102226"><ele>785.0</ele><time>2026-04-28T12:55:12Z</time></trkpt><trkpt lat="44.84007515320174" lon="5.6130460173548835"><ele>782.1428571428572</ele><time>2026-04-28T12:55:13Z</time></trkpt><trkpt lat="44.84004505639735" lon="5.612955092303364"><ele>779.2857142857142</ele><time>2026-04-28T12:55:14Z</time></trkpt><trkpt lat="44.84001792388678" lon="5.6128599154273555"><ele>776.4285714285714</ele><time>2026-04-28T12:55:15Z</time></trkpt><trkpt lat="44.83999026909948" lon="5.612769478498494"><ele>773.5714285714287</ele><time>2026-04-28T12:55:16Z</time></trkpt><trkpt lat="44.83996209297368" lon="5.612676842417161"><ele>770.7142857142858</ele><time>2026-04-28T12:55:17Z</time></trkpt><trkpt lat="44.83992742011895" lon="5.612585288307828"><ele>767.8571428571429</ele><time>2026-04-28T12:55:18Z</time></trkpt><trkpt lat="44.839891070332435" lon="5.612493441822663"><ele>765.0</ele><time>2026-04-28T12:55:19Z</time></trkpt><trkpt lat="44.839854971515614" lon="5.612410442859177"><ele>765.0000000000001</ele><time>2026-04-28T12:55:19.999Z</time></trkpt><trkpt lat="44.83981392313722" lon="5.61232545738014"><ele>765.0</ele><time>2026-04-28T12:55:20.999Z</time></trkpt><trkpt lat="44.83977470901298" lon="5.612235467729531"><ele>765.0</ele><time>2026-04-28T12:55:21.999Z</time></trkpt><trkpt lat="44.83973278670031" lon="5.612151510987319"><ele>765.0</ele><time>2026-04-28T12:55:22.999Z</time></trkpt><trkpt lat="44.83968888105074" lon="5.612066747379918"><ele>765.0</ele><time>2026-04-28T12:55:23.999Z</time></trkpt><trkpt lat="44.83964850947792" lon="5.611980598814706"><ele>765.0000000000001</ele><time>2026-04-28T12:55:24.999Z</time></trkpt><trkpt lat="44.83960814890227" lon="5.611897548045375"><ele>765.0</ele><time>2026-04-28T12:55:25.999Z</time></trkpt><trkpt lat="44.8395625073875" lon="5.611820344805028"><ele>764.2857142857143</ele><time>2026-04-28T12:55:26.999Z</time></trkpt><trkpt lat="44.83951366980405" lon="5.61174488610333"><ele>763.5714285714286</ele><time>2026-04-28T12:55:27.999Z</time></trkpt><trkpt lat="44.83946587378051" lon="5.611670001169925"><ele>762.8571428571429</ele><time>2026-04-28T12:55:28.999Z</time></trkpt><trkpt lat="44.839417200756095" lon="5.611592437319027"><ele>762.1428571428571</ele><time>2026-04-28T12:55:29.999Z</time></trkpt><trkpt lat="44.8393687199602" lon="5.611518103146104"><ele>761.4285714285714</ele><time>2026-04-28T12:55:30.999Z</time></trkpt><trkpt lat="44.839317034438885" lon="5.611449449056337"><ele>760.7142857142858</ele><time>2026-04-28T12:55:31.999Z</time></trkpt><trkpt lat="44.839259902235824" lon="5.611382540167144"><ele>760.0</ele><time>2026-04-28T12:55:32.999Z</time></trkpt><trkpt lat="44.83920583550819" lon="5.611315438842624"><ele>760.0</ele><time>2026-04-28T12:55:33.999Z</time></trkpt><trkpt lat="44.83914994179269" lon="5.611242945243449"><ele>760.0</ele><time>2026-04-28T12:55:34.999Z</time></trkpt><trkpt lat="44.839094583770816" lon="5.611173497744359"><ele>760.0</ele><time>2026-04-28T12:55:35.999Z</time></trkpt><trkpt lat="44.83903684834816" lon="5.611109449585031"><ele>760.0</ele><time>2026-04-28T12:55:36.999Z</time></trkpt><trkpt lat="44.83897979854203" lon="5.611040605109165"><ele>760.0</ele><time>2026-04-28T12:55:37.999Z</time></trkpt><trkpt lat="44.83892529886403" lon="5.610977403847956"><ele>760.0</ele><time>2026-04-28T12:55:38.999Z</time></trkpt><trkpt lat="44.838866572619935" lon="5.610917988038849"><ele>760.0</ele><time>2026-04-28T12:55:39.999Z</time></trkpt><trkpt lat="44.83881034027654" lon="5.610854982063903"><ele>760.2857142857143</ele><time>2026-04-28T12:55:40.999Z</time></trkpt><trkpt lat="44.83875542932981" lon="5.610784397570038"><ele>760.5714285714287</ele><time>2026-04-28T12:55:41.999Z</time></trkpt><trkpt lat="44.83869985613808" lon="5.610717640161707"><ele>760.8571428571429</ele><time>2026-04-28T12:55:42.999Z</time></trkpt><trkpt lat="44.838647032150895" lon="5.610656993788444"><ele>761.1428571428571</ele><time>2026-04-28T12:55:43.999Z</time></trkpt><trkpt lat="44.838588911166255" lon="5.6105930103476345"><ele>761.4285714285714</ele><time>2026-04-28T12:55:44.999Z</time></trkpt><trkpt lat="44.83853297440226" lon="5.610532458485055"><ele>761.7142857142857</ele><time>2026-04-28T12:55:45.999Z</time></trkpt><trkpt lat="44.83847745235963" lon="5.610466905804256"><ele>762.0</ele><time>2026-04-28T12:55:46.999Z</time></trkpt><trkpt lat="44.83842236620709" lon="5.6104031310390425"><ele>762.0</ele><time>2026-04-28T12:55:47.999Z</time></trkpt><trkpt lat="44.83836823673971" lon="5.610336079968953"><ele>762.0</ele><time>2026-04-28T12:55:48.999Z</time></trkpt><trkpt lat="44.83831776578106" lon="5.610269507157824"><ele>762.0</ele><time>2026-04-28T12:55:49.999Z</time></trkpt><trkpt lat="44.83826844799238" lon="5.610202269445181"><ele>762.0</ele><time>2026-04-28T12:55:50.999Z</time></trkpt><trkpt lat="44.83821866036065" lon="5.6101338221788035"><ele>762.0</ele><time>2026-04-28T12:55:51.999Z</time></trkpt><trkpt lat="44.83816922053644" lon="5.610064074300075"><ele>762.0</ele><time>2026-04-28T12:55:52.999Z</time></trkpt><trkpt lat="44.838121157996085" lon="5.609992557258994"><ele>762.0</ele><time>2026-04-28T12:55:53.999Z</time></trkpt><trkpt lat="44.838073925611475" lon="5.6099183500240715"><ele>764.0</ele><time>2026-04-28T12:55:54.999Z</time></trkpt><trkpt lat="44.83802806016792" lon="5.609846820621524"><ele>766.0</ele><time>2026-04-28T12:55:55.999Z</time></trkpt><trkpt lat="44.837986344865676" lon="5.6097752850785705"><ele>768.0</ele><time>2026-04-28T12:55:56.999Z</time></trkpt><trkpt lat="44.837944593079094" lon="5.609698290265262"><ele>770.0</ele><time>2026-04-28T12:55:57.999Z</time></trkpt><trkpt lat="44.83790430032528" lon="5.609624249510324"><ele>772.0</ele><time>2026-04-28T12:55:58.999Z</time></trkpt><trkpt lat="44.83786848497709" lon="5.60954881267574"><ele>774.0</ele><time>2026-04-28T12:55:59.999Z</time></trkpt><trkpt lat="44.83783480928485" lon="5.609467940158951"><ele>776.0</ele><time>2026-04-28T12:56:00.999Z</time></trkpt><trkpt lat="44.83780093392583" lon="5.609383094384543"><ele>779.4</ele><time>2026-04-28T12:56:01.999Z</time></trkpt><trkpt lat="44.837747972711654" lon="5.60923137259508"><ele>782.8</ele><time>2026-04-28T12:56:03.999Z</time></trkpt><trkpt lat="44.83770717072537" lon="5.609063674461572"><ele>786.1999999999999</ele><time>2026-04-28T12:56:05.999Z</time></trkpt><trkpt lat="44.83766849559855" lon="5.608898685299151"><ele>789.5999999999999</ele><time>2026-04-28T12:56:07.999Z</time></trkpt><trkpt lat="44.837654476933885" lon="5.60880938630855"><ele>793.0</ele><time>2026-04-28T12:56:08.999Z</time></trkpt><trkpt lat="44.837640151612014" lon="5.608720309193251"><ele>789.6666666666666</ele><time>2026-04-28T12:56:09.999Z</time></trkpt><trkpt lat="44.83763027287765" lon="5.608630584353617"><ele>786.3333333333333</ele><time>2026-04-28T12:56:10.999Z</time></trkpt><trkpt lat="44.83761962693265" lon="5.6085359169343585"><ele>783.0</ele><time>2026-04-28T12:56:11.999Z</time></trkpt><trkpt lat="44.83760980783163" lon="5.608448219748861"><ele>779.6666666666667</ele><time>2026-04-28T12:56:12.999Z</time></trkpt><trkpt lat="44.837602069422424" lon="5.608355358630385"><ele>776.3333333333334</ele><time>2026-04-28T12:56:13.999Z</time></trkpt><trkpt lat="44.837593098028044" lon="5.608260464332025"><ele>773.0</ele><time>2026-04-28T12:56:14.999Z</time></trkpt><trkpt lat="44.83757679561201" lon="5.608086408348398"><ele>773.0</ele><time>2026-04-28T12:56:16.999Z</time></trkpt><trkpt lat="44.83756854131646" lon="5.607997466434736"><ele>773.0</ele><time>2026-04-28T12:56:17.999Z</time></trkpt><trkpt lat="44.83755960738258" lon="5.607907199793423"><ele>773.0</ele><time>2026-04-28T12:56:18.999Z</time></trkpt><trkpt lat="44.83754810880823" lon="5.607817010469079"><ele>773.0</ele><time>2026-04-28T12:56:19.999Z</time></trkpt><trkpt lat="44.83753364688255" lon="5.607727060760145"><ele>773.0</ele><time>2026-04-28T12:56:20.999Z</time></trkpt><trkpt lat="44.83751464004306" lon="5.607639657018377"><ele>773.0</ele><time>2026-04-28T12:56:21.999Z</time></trkpt><trkpt lat="44.83749695952482" lon="5.607550242993917"><ele>773.0</ele><time>2026-04-28T12:56:22.999Z</time></trkpt><trkpt lat="44.83747307192365" lon="5.6074570855983445"><ele>774.0</ele><time>2026-04-28T12:56:23.999Z</time></trkpt><trkpt lat="44.83744709964558" lon="5.607373256520078"><ele>775.0</ele><time>2026-04-28T12:56:24.999Z</time></trkpt><trkpt lat="44.837416371668056" lon="5.607286323746296"><ele>776.0</ele><time>2026-04-28T12:56:25.999Z</time></trkpt><trkpt lat="44.83739022607779" lon="5.607204782814389"><ele>777.0</ele><time>2026-04-28T12:56:26.999Z</time></trkpt><trkpt lat="44.83736060125973" lon="5.607120293950955"><ele>778.0</ele><time>2026-04-28T12:56:28Z</time></trkpt><trkpt lat="44.83732607625594" lon="5.607036290372182"><ele>779.0</ele><time>2026-04-28T12:56:29Z</time></trkpt><trkpt lat="44.8372837968063" lon="5.606957023175175"><ele>780.0</ele><time>2026-04-28T12:56:30Z</time></trkpt><trkpt lat="44.83724538750603" lon="5.606876612661197"><ele>782.5714285714286</ele><time>2026-04-28T12:56:31Z</time></trkpt><trkpt lat="44.837198576377816" lon="5.60679439105532"><ele>785.1428571428571</ele><time>2026-04-28T12:56:32Z</time></trkpt><trkpt lat="44.83715053514566" lon="5.6067212263208965"><ele>787.7142857142858</ele><time>2026-04-28T12:56:33Z</time></trkpt><trkpt lat="44.83709920561068" lon="5.606650225541974"><ele>790.2857142857142</ele><time>2026-04-28T12:56:34Z</time></trkpt><trkpt lat="44.837049927836276" lon="5.606577299959286"><ele>792.8571428571429</ele><time>2026-04-28T12:56:35Z</time></trkpt><trkpt lat="44.83699444410274" lon="5.6065136588010835"><ele>795.4285714285714</ele><time>2026-04-28T12:56:36Z</time></trkpt><trkpt lat="44.83694265762797" lon="5.606445647551882"><ele>798.0</ele><time>2026-04-28T12:56:37Z</time></trkpt><trkpt lat="44.83688606622688" lon="5.606390096196619"><ele>798.0</ele><time>2026-04-28T12:56:38Z</time></trkpt><trkpt lat="44.836835636621835" lon="5.606313651386114"><ele>798.0</ele><time>2026-04-28T12:56:39Z</time></trkpt><trkpt lat="44.83678484195156" lon="5.6062535807983656"><ele>798.0</ele><time>2026-04-28T12:56:40Z</time></trkpt><trkpt lat="44.83673386771617" lon="5.6061877102956075"><ele>798.0</ele><time>2026-04-28T12:56:41Z</time></trkpt><trkpt lat="44.836679782215924" lon="5.606117027912315"><ele>798.0</ele><time>2026-04-28T12:56:42Z</time></trkpt><trkpt lat="44.83662869781536" lon="5.606048484937699"><ele>798.0</ele><time>2026-04-28T12:56:43Z</time></trkpt><trkpt lat="44.83658062890657" lon="5.605970692946256"><ele>798.0</ele><time>2026-04-28T12:56:44Z</time></trkpt><trkpt lat="44.8365301986508" lon="5.605894452311465"><ele>795.8571428571429</ele><time>2026-04-28T12:56:45Z</time></trkpt><trkpt lat="44.83647938422943" lon="5.605811821583454"><ele>793.7142857142858</ele><time>2026-04-28T12:56:46Z</time></trkpt><trkpt lat="44.83642804692916" lon="5.605734666116627"><ele>791.5714285714286</ele><time>2026-04-28T12:56:47Z</time></trkpt><trkpt lat="44.836381772241296" lon="5.605658834272938"><ele>789.4285714285714</ele><time>2026-04-28T12:56:48Z</time></trkpt><trkpt lat="44.83634143219946" lon="5.605581827231911"><ele>787.2857142857143</ele><time>2026-04-28T12:56:49Z</time></trkpt><trkpt lat="44.83630365177495" lon="5.605494921195704"><ele>785.1428571428571</ele><time>2026-04-28T12:56:50Z</time></trkpt><trkpt lat="44.836262220096195" lon="5.605414389404107"><ele>783.0</ele><time>2026-04-28T12:56:51Z</time></trkpt><trkpt lat="44.83622498050854" lon="5.605333151200271"><ele>783.4285714285714</ele><time>2026-04-28T12:56:52Z</time></trkpt><trkpt lat="44.83619020503286" lon="5.605249893046917"><ele>783.8571428571429</ele><time>2026-04-28T12:56:53Z</time></trkpt><trkpt lat="44.836159373653494" lon="5.605168558898545"><ele>784.2857142857143</ele><time>2026-04-28T12:56:54Z</time></trkpt><trkpt lat="44.836124280857334" lon="5.605085161702264"><ele>784.7142857142858</ele><time>2026-04-28T12:56:55Z</time></trkpt><trkpt lat="44.83609363539232" lon="5.605003297977643"><ele>785.1428571428571</ele><time>2026-04-28T12:56:56Z</time></trkpt><trkpt lat="44.83606724995116" lon="5.604922281417194"><ele>785.5714285714287</ele><time>2026-04-28T12:56:57Z</time></trkpt><trkpt lat="44.83604063812311" lon="5.604833734716639"><ele>786.0</ele><time>2026-04-28T12:56:58Z</time></trkpt><trkpt lat="44.83601433996071" lon="5.604744102449145"><ele>786.0</ele><time>2026-04-28T12:56:59Z</time></trkpt><trkpt lat="44.835991575610656" lon="5.604661030751385"><ele>786.0</ele><time>2026-04-28T12:57:00Z</time></trkpt><trkpt lat="44.83595334992987" lon="5.604505486382669"><ele>786.0</ele><time>2026-04-28T12:57:02Z</time></trkpt><trkpt lat="44.83592587501248" lon="5.604347834437032"><ele>786.0</ele><time>2026-04-28T12:57:04Z</time></trkpt><trkpt lat="44.83590057892138" lon="5.604183851807596"><ele>786.0</ele><time>2026-04-28T12:57:06Z</time></trkpt><trkpt lat="44.83587435209533" lon="5.604024895264489"><ele>785.8</ele><time>2026-04-28T12:57:08Z</time></trkpt><trkpt lat="44.83584955740844" lon="5.603868978016883"><ele>785.5999999999999</ele><time>2026-04-28T12:57:10Z</time></trkpt><trkpt lat="44.83583397563024" lon="5.603712993914867"><ele>785.4</ele><time>2026-04-28T12:57:12Z</time></trkpt><trkpt lat="44.83582802560748" lon="5.603545915908997"><ele>785.2</ele><time>2026-04-28T12:57:14Z</time></trkpt><trkpt lat="44.835816067356554" lon="5.6034585651537"><ele>785.0</ele><time>2026-04-28T12:57:15Z</time></trkpt><trkpt lat="44.8358042182755" lon="5.603288606355163"><ele>785.0000000000001</ele><time>2026-04-28T12:57:17Z</time></trkpt><trkpt lat="44.8358009693946" lon="5.603111943451826"><ele>785.0</ele><time>2026-04-28T12:57:19Z</time></trkpt><trkpt lat="44.83579646400814" lon="5.603017840378113"><ele>785.0</ele><time>2026-04-28T12:57:20Z</time></trkpt><trkpt lat="44.835794083914124" lon="5.6029244546375425"><ele>785.0</ele><time>2026-04-28T12:57:21Z</time></trkpt><trkpt lat="44.83579228011769" lon="5.602828726357084"><ele>785.0000000000001</ele><time>2026-04-28T12:57:22Z</time></trkpt><trkpt lat="44.8357893666045" lon="5.602724114540948"><ele>785.0</ele><time>2026-04-28T12:57:23Z</time></trkpt><trkpt lat="44.83578750378863" lon="5.602622058578872"><ele>784.5000000000001</ele><time>2026-04-28T12:57:24Z</time></trkpt><trkpt lat="44.835785394672556" lon="5.602516290671213"><ele>784.0</ele><time>2026-04-28T12:57:25Z</time></trkpt><trkpt lat="44.83578192507448" lon="5.602415058733977"><ele>783.5</ele><time>2026-04-28T12:57:26Z</time></trkpt><trkpt lat="44.8357783073902" lon="5.6023088137561645"><ele>783.0</ele><time>2026-04-28T12:57:27Z</time></trkpt><trkpt lat="44.83577423944818" lon="5.6022011876198325"><ele>782.5000000000001</ele><time>2026-04-28T12:57:28Z</time></trkpt><trkpt lat="44.83576217810951" lon="5.6020900264875015"><ele>782.0</ele><time>2026-04-28T12:57:29Z</time></trkpt><trkpt lat="44.835745112727516" lon="5.60198099251908"><ele>782.0000000000001</ele><time>2026-04-28T12:57:30Z</time></trkpt><trkpt lat="44.83572585784923" lon="5.601872316362829"><ele>782.0</ele><time>2026-04-28T12:57:31Z</time></trkpt><trkpt lat="44.835685504910536" lon="5.601773992399569"><ele>782.0</ele><time>2026-04-28T12:57:32Z</time></trkpt><trkpt lat="44.835669113655456" lon="5.601661929398926"><ele>782.0</ele><time>2026-04-28T12:57:33Z</time></trkpt><trkpt lat="44.83562214809445" lon="5.601575813630275"><ele>782.0000000000001</ele><time>2026-04-28T12:57:34Z</time></trkpt><trkpt lat="44.83558716983617" lon="5.601475251295801"><ele>782.0</ele><time>2026-04-28T12:57:35Z</time></trkpt><trkpt lat="44.835560588641684" lon="5.601373308977087"><ele>781.9999999999999</ele><time>2026-04-28T12:57:36Z</time></trkpt><trkpt lat="44.835518749444745" lon="5.60128365004497"><ele>782.0</ele><time>2026-04-28T12:57:37Z</time></trkpt><trkpt lat="44.835474685210734" lon="5.601209816974168"><ele>782.0</ele><time>2026-04-28T12:57:38Z</time></trkpt><trkpt lat="44.835420084646465" lon="5.601129965919756"><ele>782.0</ele><time>2026-04-28T12:57:39Z</time></trkpt><trkpt lat="44.835369277407274" lon="5.601055945107009"><ele>782.0</ele><time>2026-04-28T12:57:40Z</time></trkpt><trkpt lat="44.83531617211787" lon="5.600983522272254"><ele>781.9999999999999</ele><time>2026-04-28T12:57:41Z</time></trkpt><trkpt lat="44.83526557178148" lon="5.6009159009505565"><ele>782.0</ele><time>2026-04-28T12:57:42Z</time></trkpt><trkpt lat="44.83521268429624" lon="5.60084786076151"><ele>781.4285714285713</ele><time>2026-04-28T12:57:43Z</time></trkpt><trkpt lat="44.83515738689365" lon="5.600781224309582"><ele>780.8571428571429</ele><time>2026-04-28T12:57:44Z</time></trkpt><trkpt lat="44.835108010949604" lon="5.600714648609859"><ele>780.2857142857142</ele><time>2026-04-28T12:57:45Z</time></trkpt><trkpt lat="44.83505626758662" lon="5.6006439740862355"><ele>779.7142857142857</ele><time>2026-04-28T12:57:46Z</time></trkpt><trkpt lat="44.83500287849414" lon="5.600576627545036"><ele>779.1428571428571</ele><time>2026-04-28T12:57:47Z</time></trkpt><trkpt lat="44.83494853263203" lon="5.6005097080147985"><ele>778.5714285714286</ele><time>2026-04-28T12:57:48Z</time></trkpt><trkpt lat="44.834894177359935" lon="5.600440683012901"><ele>778.0</ele><time>2026-04-28T12:57:49Z</time></trkpt><trkpt lat="44.834839580869" lon="5.6003694535741015"><ele>781.5714285714286</ele><time>2026-04-28T12:57:50Z</time></trkpt><trkpt lat="44.834784128228094" lon="5.600300103231772"><ele>785.1428571428571</ele><time>2026-04-28T12:57:51Z</time></trkpt><trkpt lat="44.83473378845793" lon="5.600224000258141"><ele>788.7142857142857</ele><time>2026-04-28T12:57:52Z</time></trkpt><trkpt lat="44.83468003559745" lon="5.6001536740840985"><ele>792.2857142857142</ele><time>2026-04-28T12:57:53Z</time></trkpt><trkpt lat="44.834622816321996" lon="5.600083882550274"><ele>795.8571428571429</ele><time>2026-04-28T12:57:54Z</time></trkpt><trkpt lat="44.83456905692334" lon="5.600009723492294"><ele>799.4285714285713</ele><time>2026-04-28T12:57:55Z</time></trkpt><trkpt lat="44.83451394926623" lon="5.599941398763036"><ele>803.0</ele><time>2026-04-28T12:57:56Z</time></trkpt><trkpt lat="44.83446257380688" lon="5.599864146021714"><ele>802.9999999999999</ele><time>2026-04-28T12:57:57Z</time></trkpt><trkpt lat="44.83440912345135" lon="5.599794595558696"><ele>803.0</ele><time>2026-04-28T12:57:58Z</time></trkpt><trkpt lat="44.834357704055016" lon="5.599725535696905"><ele>803.0</ele><time>2026-04-28T12:57:59Z</time></trkpt><trkpt lat="44.83430389470077" lon="5.599653193794378"><ele>803.0</ele><time>2026-04-28T12:58:00Z</time></trkpt><trkpt lat="44.83425143585492" lon="5.599578207898352"><ele>803.0</ele><time>2026-04-28T12:58:01Z</time></trkpt><trkpt lat="44.83420046615507" lon="5.599501300155731"><ele>802.9999999999999</ele><time>2026-04-28T12:58:02Z</time></trkpt><trkpt lat="44.834152797536674" lon="5.599425797219512"><ele>803.0</ele><time>2026-04-28T12:58:03Z</time></trkpt><trkpt lat="44.834108603135626" lon="5.599350036298681"><ele>801.8571428571428</ele><time>2026-04-28T12:58:04Z</time></trkpt><trkpt lat="44.83406007492952" lon="5.5992716433437195"><ele>800.7142857142857</ele><time>2026-04-28T12:58:05Z</time></trkpt><trkpt lat="44.834011504377" lon="5.599192571353912"><ele>799.5714285714286</ele><time>2026-04-28T12:58:06Z</time></trkpt><trkpt lat="44.833955285449015" lon="5.599115763321194"><ele>798.4285714285713</ele><time>2026-04-28T12:58:07Z</time></trkpt><trkpt lat="44.83390175525071" lon="5.599042623781382"><ele>797.2857142857143</ele><time>2026-04-28T12:58:08Z</time></trkpt><trkpt lat="44.83385494344863" lon="5.598960334235432"><ele>796.1428571428571</ele><time>2026-04-28T12:58:09Z</time></trkpt><trkpt lat="44.83381309201468" lon="5.598881523076208"><ele>795.0</ele><time>2026-04-28T12:58:10Z</time></trkpt><trkpt lat="44.83375853921797" lon="5.598813682828259"><ele>795.0</ele><time>2026-04-28T12:58:11Z</time></trkpt><trkpt lat="44.83370728376582" lon="5.598743378831574"><ele>795.0</ele><time>2026-04-28T12:58:12Z</time></trkpt><trkpt lat="44.83365415326499" lon="5.598683771643717"><ele>795.0</ele><time>2026-04-28T12:58:13Z</time></trkpt><trkpt lat="44.83359510558872" lon="5.598630630816993"><ele>795.0</ele><time>2026-04-28T12:58:14Z</time></trkpt><trkpt lat="44.83353992868792" lon="5.598581315641375"><ele>795.0</ele><time>2026-04-28T12:58:15Z</time></trkpt><trkpt lat="44.83349029659926" lon="5.598524710023679"><ele>795.0</ele><time>2026-04-28T12:58:16Z</time></trkpt><trkpt lat="44.83338610333788" lon="5.598433527341609"><ele>794.5</ele><time>2026-04-28T12:58:18Z</time></trkpt><trkpt lat="44.83328463692192" lon="5.59835092301968"><ele>794.0</ele><time>2026-04-28T12:58:20Z</time></trkpt><trkpt lat="44.8331772366935" lon="5.598275092931975"><ele>793.5</ele><time>2026-04-28T12:58:22Z</time></trkpt><trkpt lat="44.83308519616592" lon="5.5981905858072345"><ele>793.0</ele><time>2026-04-28T12:58:24Z</time></trkpt><trkpt lat="44.83300618312795" lon="5.598096780857961"><ele>793.0</ele><time>2026-04-28T12:58:25.999Z</time></trkpt><trkpt lat="44.83292400275188" lon="5.5980001361581655"><ele>793.0</ele><time>2026-04-28T12:58:27.999Z</time></trkpt><trkpt lat="44.83284330993962" lon="5.597911826006718"><ele>793.0</ele><time>2026-04-28T12:58:29.999Z</time></trkpt><trkpt lat="44.83276345877192" lon="5.597823208046848"><ele>793.0</ele><time>2026-04-28T12:58:31.999Z</time></trkpt><trkpt lat="44.83267826211248" lon="5.597743024217389"><ele>793.0</ele><time>2026-04-28T12:58:34.001Z</time></trkpt><trkpt lat="44.83258900789213" lon="5.597688926936597"><ele>793.0</ele><time>2026-04-28T12:58:36Z</time></trkpt><trkpt lat="44.83249129099306" lon="5.597644784295633"><ele>793.0</ele><time>2026-04-28T12:58:38Z</time></trkpt><trkpt lat="44.832388654551444" lon="5.597621797166766"><ele>793.0</ele><time>2026-04-28T12:58:40Z</time></trkpt><trkpt lat="44.83228872057613" lon="5.597630735641572"><ele>793.0</ele><time>2026-04-28T12:58:42Z</time></trkpt><trkpt lat="44.83219152243031" lon="5.597673118079063"><ele>793.0</ele><time>2026-04-28T12:58:44Z</time></trkpt><trkpt lat="44.8320992332452" lon="5.597715336208801"><ele>793.0</ele><time>2026-04-28T12:58:46Z</time></trkpt><trkpt lat="44.83201539413513" lon="5.597778726142376"><ele>793.0</ele><time>2026-04-28T12:58:48Z</time></trkpt><trkpt lat="44.83193871505333" lon="5.597853514873686"><ele>793.0</ele><time>2026-04-28T12:58:50Z</time></trkpt><trkpt lat="44.83187524860398" lon="5.597946800811063"><ele>793.0</ele><time>2026-04-28T12:58:52Z</time></trkpt><trkpt lat="44.831821530838184" lon="5.5980439855150825"><ele>793.0</ele><time>2026-04-28T12:58:54Z</time></trkpt><trkpt lat="44.83177666985157" lon="5.59814773764604"><ele>794.6666666666666</ele><time>2026-04-28T12:58:56Z</time></trkpt><trkpt lat="44.83174130324275" lon="5.598255938476718"><ele>796.3333333333333</ele><time>2026-04-28T12:58:58Z</time></trkpt><trkpt lat="44.83172141480623" lon="5.598365937754879"><ele>798.0</ele><time>2026-04-28T12:59:00Z</time></trkpt><trkpt lat="44.831710084925085" lon="5.598488173031742"><ele>799.6666666666667</ele><time>2026-04-28T12:59:02Z</time></trkpt><trkpt lat="44.831710347057474" lon="5.598607827010465"><ele>801.3333333333334</ele><time>2026-04-28T12:59:04Z</time></trkpt><trkpt lat="44.83172778441835" lon="5.598722876388824"><ele>803.0</ele><time>2026-04-28T12:59:06Z</time></trkpt><trkpt lat="44.83174341198855" lon="5.598845627528221"><ele>804.5000000000001</ele><time>2026-04-28T12:59:08Z</time></trkpt><trkpt lat="44.83178170571102" lon="5.59894915002358"><ele>806.0</ele><time>2026-04-28T12:59:10Z</time></trkpt><trkpt lat="44.83182477165507" lon="5.599045559021566"><ele>807.5</ele><time>2026-04-28T12:59:12Z</time></trkpt><trkpt lat="44.83186699140498" lon="5.599143319968643"><ele>809.0</ele><time>2026-04-28T12:59:14Z</time></trkpt><trkpt lat="44.831916680116485" lon="5.599236202402623"><ele>810.5000000000001</ele><time>2026-04-28T12:59:16Z</time></trkpt><trkpt lat="44.83196146511808" lon="5.5993263233391914"><ele>812.0</ele><time>2026-04-28T12:59:18Z</time></trkpt><trkpt lat="44.83200488989683" lon="5.599411859462471"><ele>810.6666666666667</ele><time>2026-04-28T12:59:20Z</time></trkpt><trkpt lat="44.832065535713085" lon="5.599491089568355"><ele>809.3333333333334</ele><time>2026-04-28T12:59:22Z</time></trkpt><trkpt lat="44.83212894579112" lon="5.599565576792062"><ele>808.0</ele><time>2026-04-28T12:59:24Z</time></trkpt><trkpt lat="44.83219013799547" lon="5.599643352765837"><ele>806.6666666666667</ele><time>2026-04-28T12:59:26Z</time></trkpt><trkpt lat="44.83225639421466" lon="5.5997113102230065"><ele>805.3333333333334</ele><time>2026-04-28T12:59:28Z</time></trkpt><trkpt lat="44.83232641404145" lon="5.599767050831847"><ele>804.0</ele><time>2026-04-28T12:59:30Z</time></trkpt><trkpt lat="44.8324034456951" lon="5.599817867193671"><ele>804.0</ele><time>2026-04-28T12:59:32Z</time></trkpt><trkpt lat="44.832473128597215" lon="5.599870298529072"><ele>804.0</ele><time>2026-04-28T12:59:34Z</time></trkpt><trkpt lat="44.83252921143726" lon="5.599930331373738"><ele>804.0</ele><time>2026-04-28T12:59:36Z</time></trkpt><trkpt lat="44.832596367087895" lon="5.5999836715001985"><ele>804.0</ele><time>2026-04-28T12:59:38Z</time></trkpt><trkpt lat="44.83266574162575" lon="5.600060232132927"><ele>804.0</ele><time>2026-04-28T12:59:40Z</time></trkpt><trkpt lat="44.832729516986824" lon="5.600141148679988"><ele>804.0</ele><time>2026-04-28T12:59:42Z</time></trkpt><trkpt lat="44.83277789666142" lon="5.600230611372988"><ele>801.0</ele><time>2026-04-28T12:59:44Z</time></trkpt><trkpt lat="44.83280217761166" lon="5.600341234912833"><ele>798.0</ele><time>2026-04-28T12:59:46Z</time></trkpt><trkpt lat="44.832844249305005" lon="5.600427566195098"><ele>795.0</ele><time>2026-04-28T12:59:48Z</time></trkpt><trkpt lat="44.83286782551818" lon="5.6005309791939055"><ele>792.0</ele><time>2026-04-28T12:59:50Z</time></trkpt><trkpt lat="44.83288986056807" lon="5.600636275548404"><ele>789.0</ele><time>2026-04-28T12:59:52Z</time></trkpt><trkpt lat="44.832917636864806" lon="5.600746936472327"><ele>786.0</ele><time>2026-04-28T12:59:54Z</time></trkpt><trkpt lat="44.83294480951501" lon="5.600845497880143"><ele>786.0000000000001</ele><time>2026-04-28T12:59:56Z</time></trkpt><trkpt lat="44.83296848130074" lon="5.6009485057883355"><ele>786.0</ele><time>2026-04-28T12:59:58Z</time></trkpt><trkpt lat="44.832978900893586" lon="5.6010580903563225"><ele>786.0</ele><time>2026-04-28T13:00:00Z</time></trkpt><trkpt lat="44.83299025525934" lon="5.6011616782608975"><ele>786.0</ele><time>2026-04-28T13:00:02Z</time></trkpt><trkpt lat="44.83301050633105" lon="5.601269831825587"><ele>786.0</ele><time>2026-04-28T13:00:04Z</time></trkpt><trkpt lat="44.83301897224953" lon="5.60136870619307"><ele>786.0000000000001</ele><time>2026-04-28T13:00:06Z</time></trkpt><trkpt lat="44.833022687847745" lon="5.601464008911292"><ele>786.0</ele><time>2026-04-28T13:00:08Z</time></trkpt><trkpt lat="44.83301752287759" lon="5.601569701919407"><ele>787.0</ele><time>2026-04-28T13:00:10Z</time></trkpt><trkpt lat="44.83300614504709" lon="5.6016703154233625"><ele>788.0</ele><time>2026-04-28T13:00:12Z</time></trkpt><trkpt lat="44.83299538029874" lon="5.601769215276561"><ele>789.0</ele><time>2026-04-28T13:00:14Z</time></trkpt><trkpt lat="44.83298426019045" lon="5.6018818419808865"><ele>790.0</ele><time>2026-04-28T13:00:16Z</time></trkpt><trkpt lat="44.83296639348675" lon="5.601992705420806"><ele>791.0</ele><time>2026-04-28T13:00:18Z</time></trkpt><trkpt lat="44.83295747244413" lon="5.602106441367479"><ele>792.0</ele><time>2026-04-28T13:00:20Z</time></trkpt><trkpt lat="44.83293869878706" lon="5.602214408422295"><ele>792.0</ele><time>2026-04-28T13:00:22Z</time></trkpt><trkpt lat="44.83292432175582" lon="5.602322434599677"><ele>792.0</ele><time>2026-04-28T13:00:24Z</time></trkpt><trkpt lat="44.83289551552778" lon="5.602428876680587"><ele>792.0</ele><time>2026-04-28T13:00:25.999Z</time></trkpt><trkpt lat="44.832878496123065" lon="5.602527169462388"><ele>792.0</ele><time>2026-04-28T13:00:27.999Z</time></trkpt><trkpt lat="44.832842340680806" lon="5.602623854575935"><ele>792.0</ele><time>2026-04-28T13:00:29.999Z</time></trkpt><trkpt lat="44.8328062662431" lon="5.602716922486358"><ele>792.0</ele><time>2026-04-28T13:00:31.999Z</time></trkpt><trkpt lat="44.832773018222525" lon="5.602804920416314"><ele>791.0</ele><time>2026-04-28T13:00:33.999Z</time></trkpt><trkpt lat="44.83274517171949" lon="5.602897105540338"><ele>790.0</ele><time>2026-04-28T13:00:35.999Z</time></trkpt><trkpt lat="44.83270847416641" lon="5.602986300865344"><ele>789.0</ele><time>2026-04-28T13:00:37.999Z</time></trkpt><trkpt lat="44.83268904843331" lon="5.60307644315331"><ele>788.0</ele><time>2026-04-28T13:00:40Z</time></trkpt><trkpt lat="44.83265177153524" lon="5.603163729996636"><ele>787.0</ele><time>2026-04-28T13:00:42Z</time></trkpt><trkpt lat="44.83261385008698" lon="5.603247843293259"><ele>786.0</ele><time>2026-04-28T13:00:44Z</time></trkpt><trkpt lat="44.83258442367765" lon="5.6033345588812145"><ele>785.0</ele><time>2026-04-28T13:00:46Z</time></trkpt><trkpt lat="44.83254814302057" lon="5.6034199904940225"><ele>789.8571428571429</ele><time>2026-04-28T13:00:48Z</time></trkpt><trkpt lat="44.83251950474372" lon="5.603505771621246"><ele>794.7142857142857</ele><time>2026-04-28T13:00:50Z</time></trkpt><trkpt lat="44.8324889271023" lon="5.6035880216606175"><ele>799.5714285714286</ele><time>2026-04-28T13:00:52Z</time></trkpt><trkpt lat="44.83246297055205" lon="5.603683598865926"><ele>804.4285714285714</ele><time>2026-04-28T13:00:54Z</time></trkpt><trkpt lat="44.83243631802311" lon="5.60377412422745"><ele>809.2857142857142</ele><time>2026-04-28T13:00:56Z</time></trkpt><trkpt lat="44.83241321403648" lon="5.6038638280908115"><ele>814.1428571428571</ele><time>2026-04-28T13:00:58Z</time></trkpt><trkpt lat="44.83239383766977" lon="5.603954926729189"><ele>819.0</ele><time>2026-04-28T13:01:00Z</time></trkpt><trkpt lat="44.83237742056119" lon="5.6040530737104035"><ele>819.0</ele><time>2026-04-28T13:01:02Z</time></trkpt><trkpt lat="44.83235638178043" lon="5.604151947330693"><ele>819.0</ele><time>2026-04-28T13:01:04Z</time></trkpt><trkpt lat="44.8323457920368" lon="5.604247105870349"><ele>819.0</ele><time>2026-04-28T13:01:06Z</time></trkpt><trkpt lat="44.83232847390648" lon="5.604338570798366"><ele>819.0</ele><time>2026-04-28T13:01:08Z</time></trkpt><trkpt lat="44.83231967173406" lon="5.604430530952333"><ele>819.0</ele><time>2026-04-28T13:01:10Z</time></trkpt><trkpt lat="44.83231463312829" lon="5.604568326335653"><ele>819.0</ele><time>2026-04-28T13:01:13Z</time></trkpt><trkpt lat="44.83230201930606" lon="5.604658912517563"><ele>819.0</ele><time>2026-04-28T13:01:15Z</time></trkpt><trkpt lat="44.832304972355494" lon="5.604785244348722"><ele>819.1666666666666</ele><time>2026-04-28T13:01:18Z</time></trkpt><trkpt lat="44.832303190624074" lon="5.604878202727627"><ele>819.3333333333333</ele><time>2026-04-28T13:01:20Z</time></trkpt><trkpt lat="44.83231616366481" lon="5.605013937203832"><ele>819.5</ele><time>2026-04-28T13:01:23Z</time></trkpt><trkpt lat="44.832317768924995" lon="5.605113007253779"><ele>819.6666666666666</ele><time>2026-04-28T13:01:25Z</time></trkpt><trkpt lat="44.832326312272336" lon="5.605217929335677"><ele>819.8333333333333</ele><time>2026-04-28T13:01:27Z</time></trkpt><trkpt lat="44.83232301551649" lon="5.605324293739862"><ele>820.0</ele><time>2026-04-28T13:01:29Z</time></trkpt><trkpt lat="44.832330330613985" lon="5.605433570296117"><ele>819.9999999999999</ele><time>2026-04-28T13:01:31Z</time></trkpt><trkpt lat="44.832340748233825" lon="5.605530543058296"><ele>820.0</ele><time>2026-04-28T13:01:33Z</time></trkpt><trkpt lat="44.8323480891273" lon="5.605640519408866"><ele>820.0</ele><time>2026-04-28T13:01:35Z</time></trkpt><trkpt lat="44.83234131929978" lon="5.605751541596451"><ele>820.0</ele><time>2026-04-28T13:01:37Z</time></trkpt><trkpt lat="44.83235796190395" lon="5.6058587286059955"><ele>819.9999999999999</ele><time>2026-04-28T13:01:39Z</time></trkpt><trkpt lat="44.83235458229368" lon="5.605977986298468"><ele>820.0</ele><time>2026-04-28T13:01:41Z</time></trkpt><trkpt lat="44.83234234051049" lon="5.606086347197614"><ele>820.1666666666666</ele><time>2026-04-28T13:01:43Z</time></trkpt><trkpt lat="44.8323340191442" lon="5.606206379456946"><ele>820.3333333333333</ele><time>2026-04-28T13:01:45Z</time></trkpt><trkpt lat="44.83232594557509" lon="5.606324693229917"><ele>820.5</ele><time>2026-04-28T13:01:47Z</time></trkpt><trkpt lat="44.83232404500693" lon="5.606451496381377"><ele>820.6666666666667</ele><time>2026-04-28T13:01:49Z</time></trkpt><trkpt lat="44.8323154616443" lon="5.6065620864054795"><ele>820.8333333333334</ele><time>2026-04-28T13:01:51Z</time></trkpt><trkpt lat="44.83230339205536" lon="5.606673280376947"><ele>821.0</ele><time>2026-04-28T13:01:53Z</time></trkpt><trkpt lat="44.83228331922473" lon="5.606787285575885"><ele>821.0</ele><time>2026-04-28T13:01:55Z</time></trkpt><trkpt lat="44.83224514769341" lon="5.606904524612128"><ele>821.0</ele><time>2026-04-28T13:01:57Z</time></trkpt><trkpt lat="44.83218316896596" lon="5.607012805523445"><ele>821.0</ele><time>2026-04-28T13:01:59Z</time></trkpt><trkpt lat="44.83210922351392" lon="5.607111410909454"><ele>821.0</ele><time>2026-04-28T13:02:01Z</time></trkpt><trkpt lat="44.83201894821225" lon="5.607191063274778"><ele>821.0</ele><time>2026-04-28T13:02:03Z</time></trkpt><trkpt lat="44.831914026636206" lon="5.6072341497666045"><ele>823.0</ele><time>2026-04-28T13:02:05Z</time></trkpt><trkpt lat="44.831806552524604" lon="5.607263903536065"><ele>825.0</ele><time>2026-04-28T13:02:07Z</time></trkpt><trkpt lat="44.83169298159622" lon="5.607279054008762"><ele>827.0</ele><time>2026-04-28T13:02:09Z</time></trkpt><trkpt lat="44.831578691327564" lon="5.607274082057155"><ele>829.0</ele><time>2026-04-28T13:02:11Z</time></trkpt><trkpt lat="44.831467469590066" lon="5.607260340303094"><ele>829.0</ele><time>2026-04-28T13:02:13Z</time></trkpt><trkpt lat="44.8313549051934" lon="5.6072430494614665"><ele>829.0</ele><time>2026-04-28T13:02:15Z</time></trkpt><trkpt lat="44.83123804799804" lon="5.6072264660007916"><ele>829.0</ele><time>2026-04-28T13:02:17Z</time></trkpt><trkpt lat="44.831123760321816" lon="5.607215923361768"><ele>829.0</ele><time>2026-04-28T13:02:19Z</time></trkpt><trkpt lat="44.831005764307996" lon="5.607194768344957"><ele>829.25</ele><time>2026-04-28T13:02:21Z</time></trkpt><trkpt lat="44.83088561687336" lon="5.607180199334074"><ele>829.5</ele><time>2026-04-28T13:02:22.999Z</time></trkpt><trkpt lat="44.830769715208014" lon="5.607171005634075"><ele>829.75</ele><time>2026-04-28T13:02:24.999Z</time></trkpt><trkpt lat="44.830649080488385" lon="5.6071624205019095"><ele>830.0</ele><time>2026-04-28T13:02:26.999Z</time></trkpt><trkpt lat="44.83052904794557" lon="5.607153257378441"><ele>830.0</ele><time>2026-04-28T13:02:28.999Z</time></trkpt><trkpt lat="44.830409926650205" lon="5.607149466192467"><ele>830.0</ele><time>2026-04-28T13:02:30.999Z</time></trkpt><trkpt lat="44.83028914509497" lon="5.607152722370457"><ele>830.0</ele><time>2026-04-28T13:02:32.999Z</time></trkpt><trkpt lat="44.83016722491518" lon="5.607169542705203"><ele>830.0</ele><time>2026-04-28T13:02:34.999Z</time></trkpt><trkpt lat="44.83004050444724" lon="5.607187067835253"><ele>829.8571428571429</ele><time>2026-04-28T13:02:36.999Z</time></trkpt><trkpt lat="44.82997442322556" lon="5.607203661509067"><ele>829.7142857142858</ele><time>2026-04-28T13:02:37.999Z</time></trkpt><trkpt lat="44.82990403416474" lon="5.607216908492005"><ele>829.5714285714286</ele><time>2026-04-28T13:02:38.999Z</time></trkpt><trkpt lat="44.82983879308171" lon="5.607238091361936"><ele>829.4285714285714</ele><time>2026-04-28T13:02:39.999Z</time></trkpt><trkpt lat="44.82976983612678" lon="5.607257579428442"><ele>829.2857142857142</ele><time>2026-04-28T13:02:40.999Z</time></trkpt><trkpt lat="44.829700603368394" lon="5.607276299376338"><ele>829.1428571428571</ele><time>2026-04-28T13:02:41.999Z</time></trkpt><trkpt lat="44.829630934989645" lon="5.607299755408675"><ele>829.0</ele><time>2026-04-28T13:02:42.999Z</time></trkpt><trkpt lat="44.82955936475424" lon="5.607324423120194"><ele>828.9999999999999</ele><time>2026-04-28T13:02:43.999Z</time></trkpt><trkpt lat="44.82948757256651" lon="5.607350935815498"><ele>829.0</ele><time>2026-04-28T13:02:44.999Z</time></trkpt><trkpt lat="44.82941707430466" lon="5.607381301490108"><ele>829.0</ele><time>2026-04-28T13:02:46Z</time></trkpt><trkpt lat="44.829343742519114" lon="5.607416948683937"><ele>829.0</ele><time>2026-04-28T13:02:47Z</time></trkpt><trkpt lat="44.829269855253536" lon="5.607453791358212"><ele>828.9999999999999</ele><time>2026-04-28T13:02:48Z</time></trkpt><trkpt lat="44.829193879749894" lon="5.607498066639897"><ele>829.0</ele><time>2026-04-28T13:02:49Z</time></trkpt><trkpt lat="44.82911316073391" lon="5.60754474984402"><ele>828.6</ele><time>2026-04-28T13:02:50Z</time></trkpt><trkpt lat="44.829034280392534" lon="5.607594166805818"><ele>828.2</ele><time>2026-04-28T13:02:51Z</time></trkpt><trkpt lat="44.82895464531683" lon="5.60764909005962"><ele>827.8000000000001</ele><time>2026-04-28T13:02:52Z</time></trkpt><trkpt lat="44.828873933196405" lon="5.607706951016313"><ele>827.4000000000001</ele><time>2026-04-28T13:02:53Z</time></trkpt><trkpt lat="44.828794616487016" lon="5.607771399786503"><ele>827.0</ele><time>2026-04-28T13:02:54Z</time></trkpt><trkpt lat="44.828712929936344" lon="5.60783906371209"><ele>826.6</ele><time>2026-04-28T13:02:55Z</time></trkpt><trkpt lat="44.828629046407066" lon="5.607906239535422"><ele>826.2</ele><time>2026-04-28T13:02:56Z</time></trkpt><trkpt lat="44.828546434461096" lon="5.607973018554247"><ele>825.8</ele><time>2026-04-28T13:02:57Z</time></trkpt><trkpt lat="44.82846704201077" lon="5.608046755787247"><ele>825.4</ele><time>2026-04-28T13:02:58Z</time></trkpt><trkpt lat="44.82838814581648" lon="5.608127763593707"><ele>825.0</ele><time>2026-04-28T13:02:59Z</time></trkpt><trkpt lat="44.82831268850283" lon="5.608217347713245"><ele>824.2</ele><time>2026-04-28T13:03:00Z</time></trkpt><trkpt lat="44.82823741583393" lon="5.608307448377081"><ele>823.4</ele><time>2026-04-28T13:03:01Z</time></trkpt><trkpt lat="44.82816463022216" lon="5.608399036147361"><ele>822.5999999999999</ele><time>2026-04-28T13:03:02Z</time></trkpt><trkpt lat="44.82809061830094" lon="5.608488338927085"><ele>821.8</ele><time>2026-04-28T13:03:03Z</time></trkpt><trkpt lat="44.82801997875871" lon="5.608577432461336"><ele>821.0</ele><time>2026-04-28T13:03:04Z</time></trkpt><trkpt lat="44.827950943227535" lon="5.608671516308678"><ele>819.5999999999999</ele><time>2026-04-28T13:03:05Z</time></trkpt><trkpt lat="44.827885531427" lon="5.60876945447581"><ele>818.2</ele><time>2026-04-28T13:03:06Z</time></trkpt><trkpt lat="44.82782564361225" lon="5.608870190786756"><ele>816.8</ele><time>2026-04-28T13:03:07Z</time></trkpt><trkpt lat="44.82776824696748" lon="5.608973144717998"><ele>815.4000000000001</ele><time>2026-04-28T13:03:08Z</time></trkpt><trkpt lat="44.827715456098375" lon="5.609081175144119"><ele>814.0</ele><time>2026-04-28T13:03:09Z</time></trkpt><trkpt lat="44.82766235727252" lon="5.609179598327066"><ele>814.9999999999999</ele><time>2026-04-28T13:03:10Z</time></trkpt><trkpt lat="44.82762287464235" lon="5.609288001984351"><ele>816.0</ele><time>2026-04-28T13:03:11Z</time></trkpt><trkpt lat="44.82757265437839" lon="5.609386618424432"><ele>817.0</ele><time>2026-04-28T13:03:12Z</time></trkpt><trkpt lat="44.82752410550959" lon="5.609484208257629"><ele>818.0</ele><time>2026-04-28T13:03:13Z</time></trkpt><trkpt lat="44.827480943582934" lon="5.6095784935021715"><ele>818.9999999999999</ele><time>2026-04-28T13:03:14Z</time></trkpt><trkpt lat="44.827442359354464" lon="5.609672257683154"><ele>820.0</ele><time>2026-04-28T13:03:15Z</time></trkpt><trkpt lat="44.82741089629963" lon="5.609768063342751"><ele>820.0</ele><time>2026-04-28T13:03:16Z</time></trkpt><trkpt lat="44.827381187735625" lon="5.60986062630098"><ele>820.0</ele><time>2026-04-28T13:03:17Z</time></trkpt><trkpt lat="44.82734673660169" lon="5.6099468112410165"><ele>820.0</ele><time>2026-04-28T13:03:18Z</time></trkpt><trkpt lat="44.82731755738127" lon="5.610033952776217"><ele>820.0</ele><time>2026-04-28T13:03:19Z</time></trkpt><trkpt lat="44.82729420999188" lon="5.6101205103456175"><ele>820.0</ele><time>2026-04-28T13:03:20Z</time></trkpt><trkpt lat="44.82725996942074" lon="5.610246030064617"><ele>820.0</ele><time>2026-04-28T13:03:22Z</time></trkpt><trkpt lat="44.827226070565544" lon="5.61033337781712"><ele>820.0</ele><time>2026-04-28T13:03:24Z</time></trkpt><trkpt lat="44.827213283619706" lon="5.610436167624734"><ele>819.8</ele><time>2026-04-28T13:03:26Z</time></trkpt><trkpt lat="44.8272020586765" lon="5.610538225289604"><ele>819.6</ele><time>2026-04-28T13:03:28Z</time></trkpt><trkpt lat="44.82730386936018" lon="5.610539604850678"><ele>819.4000000000001</ele><time>2026-04-28T13:03:31Z</time></trkpt><trkpt lat="44.827416168628375" lon="5.610552062484786"><ele>819.2</ele><time>2026-04-28T13:03:33Z</time></trkpt><trkpt lat="44.82753839805684" lon="5.610547897186141"><ele>819.0</ele><time>2026-04-28T13:03:35Z</time></trkpt><trkpt lat="44.82767284367225" lon="5.61056619541822"><ele>819.0</ele><time>2026-04-28T13:03:37Z</time></trkpt><trkpt lat="44.82774082988666" lon="5.61060268138683"><ele>819.0</ele><time>2026-04-28T13:03:38Z</time></trkpt><trkpt lat="44.827805302604595" lon="5.610653070799794"><ele>819.0</ele><time>2026-04-28T13:03:39Z</time></trkpt><trkpt lat="44.82786686711281" lon="5.61072009620374"><ele>819.0</ele><time>2026-04-28T13:03:40Z</time></trkpt><trkpt lat="44.82793329373047" lon="5.6108022997691585"><ele>819.0</ele><time>2026-04-28T13:03:41Z</time></trkpt><trkpt lat="44.82799182698716" lon="5.610895795966407"><ele>819.0</ele><time>2026-04-28T13:03:42Z</time></trkpt><trkpt lat="44.82804694305846" lon="5.611004914615723"><ele>819.0</ele><time>2026-04-28T13:03:43Z</time></trkpt><trkpt lat="44.82809300386542" lon="5.611131420026687"><ele>819.0</ele><time>2026-04-28T13:03:44Z</time></trkpt><trkpt lat="44.828135250352624" lon="5.611266128322962"><ele>819.0</ele><time>2026-04-28T13:03:45Z</time></trkpt><trkpt lat="44.82817682958101" lon="5.611402557047733"><ele>819.0</ele><time>2026-04-28T13:03:46Z</time></trkpt><trkpt lat="44.82821617882991" lon="5.6115422330966735"><ele>819.0</ele><time>2026-04-28T13:03:47Z</time></trkpt><trkpt lat="44.82826004939055" lon="5.611684430219635"><ele>819.2</ele><time>2026-04-28T13:03:48Z</time></trkpt><trkpt lat="44.82830304870976" lon="5.611828224312992"><ele>819.4000000000001</ele><time>2026-04-28T13:03:49Z</time></trkpt><trkpt lat="44.82833827391248" lon="5.611973197096564"><ele>819.6</ele><time>2026-04-28T13:03:50Z</time></trkpt><trkpt lat="44.828374054434455" lon="5.612118892079156"><ele>819.8</ele><time>2026-04-28T13:03:51Z</time></trkpt><trkpt lat="44.82841696222789" lon="5.612261020305732"><ele>820.0</ele><time>2026-04-28T13:03:52Z</time></trkpt><trkpt lat="44.828454567140675" lon="5.6124063920360046"><ele>816.75</ele><time>2026-04-28T13:03:53Z</time></trkpt><trkpt lat="44.82850520671961" lon="5.612553775505655"><ele>813.5</ele><time>2026-04-28T13:03:54Z</time></trkpt><trkpt lat="44.828547131565365" lon="5.612698699017799"><ele>810.25</ele><time>2026-04-28T13:03:55Z</time></trkpt><trkpt lat="44.8285950109676" lon="5.612843147081098"><ele>807.0</ele><time>2026-04-28T13:03:56Z</time></trkpt><trkpt lat="44.8286311433765" lon="5.612992805831323"><ele>807.0</ele><time>2026-04-28T13:03:57Z</time></trkpt><trkpt lat="44.828662671147924" lon="5.61314525119428"><ele>807.0</ele><time>2026-04-28T13:03:58Z</time></trkpt><trkpt lat="44.82870303454417" lon="5.6133013523667"><ele>807.0</ele><time>2026-04-28T13:03:59Z</time></trkpt><trkpt lat="44.828747549466726" lon="5.613460051578224"><ele>807.0</ele><time>2026-04-28T13:04:00Z</time></trkpt><trkpt lat="44.82878417657235" lon="5.613621581047965"><ele>806.75</ele><time>2026-04-28T13:04:01Z</time></trkpt><trkpt lat="44.82881031772838" lon="5.613787136813534"><ele>806.5</ele><time>2026-04-28T13:04:02Z</time></trkpt><trkpt lat="44.828813840592915" lon="5.613964047808992"><ele>806.25</ele><time>2026-04-28T13:04:03Z</time></trkpt><trkpt lat="44.82880871493013" lon="5.61413760629636"><ele>806.0</ele><time>2026-04-28T13:04:04Z</time></trkpt><trkpt lat="44.828787784664904" lon="5.614309146454973"><ele>806.0</ele><time>2026-04-28T13:04:05Z</time></trkpt><trkpt lat="44.8287565528252" lon="5.614480235997583"><ele>806.0</ele><time>2026-04-28T13:04:06Z</time></trkpt><trkpt lat="44.828709397377295" lon="5.6146476785127835"><ele>806.0</ele><time>2026-04-28T13:04:07Z</time></trkpt><trkpt lat="44.82864090819273" lon="5.614800403871579"><ele>806.0</ele><time>2026-04-28T13:04:07.999Z</time></trkpt><trkpt lat="44.82855959049585" lon="5.614944617429658"><ele>805.25</ele><time>2026-04-28T13:04:08.999Z</time></trkpt><trkpt lat="44.82847576200757" lon="5.615081916413634"><ele>804.5</ele><time>2026-04-28T13:04:09.999Z</time></trkpt><trkpt lat="44.8283863979239" lon="5.615208730758272"><ele>803.75</ele><time>2026-04-28T13:04:10.999Z</time></trkpt><trkpt lat="44.828291505502335" lon="5.615328248709454"><ele>803.0</ele><time>2026-04-28T13:04:11.999Z</time></trkpt><trkpt lat="44.8281995967104" lon="5.615446682095572"><ele>800.75</ele><time>2026-04-28T13:04:12.999Z</time></trkpt><trkpt lat="44.82810343520723" lon="5.6155657466679205"><ele>798.5</ele><time>2026-04-28T13:04:13.999Z</time></trkpt><trkpt lat="44.82800860743318" lon="5.615679978909819"><ele>796.25</ele><time>2026-04-28T13:04:14.999Z</time></trkpt><trkpt lat="44.827917165763395" lon="5.615797752466437"><ele>794.0</ele><time>2026-04-28T13:04:15.999Z</time></trkpt><trkpt lat="44.82782387067088" lon="5.615914252768525"><ele>794.0</ele><time>2026-04-28T13:04:16.999Z</time></trkpt><trkpt lat="44.82772269756267" lon="5.616026013065161"><ele>794.0</ele><time>2026-04-28T13:04:17.999Z</time></trkpt><trkpt lat="44.827621605477084" lon="5.616147456082046"><ele>794.0</ele><time>2026-04-28T13:04:18.999Z</time></trkpt><trkpt lat="44.827533663330826" lon="5.616284611572811"><ele>794.0</ele><time>2026-04-28T13:04:19.999Z</time></trkpt><trkpt lat="44.82745301882283" lon="5.61643444560781"><ele>793.25</ele><time>2026-04-28T13:04:20.999Z</time></trkpt><trkpt lat="44.8273797721937" lon="5.61659148958334"><ele>792.5</ele><time>2026-04-28T13:04:21.999Z</time></trkpt><trkpt lat="44.82732438895759" lon="5.616762476683972"><ele>791.75</ele><time>2026-04-28T13:04:22.999Z</time></trkpt><trkpt lat="44.82727051804667" lon="5.616939140498908"><ele>791.0</ele><time>2026-04-28T13:04:23.999Z</time></trkpt><trkpt lat="44.8272140125822" lon="5.617114887117329"><ele>789.0</ele><time>2026-04-28T13:04:24.999Z</time></trkpt><trkpt lat="44.827166854040804" lon="5.617293366394398"><ele>787.0</ele><time>2026-04-28T13:04:25.999Z</time></trkpt><trkpt lat="44.827129415788804" lon="5.617477627811751"><ele>785.0</ele><time>2026-04-28T13:04:26.999Z</time></trkpt><trkpt lat="44.82711200727979" lon="5.617668458067636"><ele>783.0</ele><time>2026-04-28T13:04:27.999Z</time></trkpt><trkpt lat="44.827129249730106" lon="5.617868540845469"><ele>781.75</ele><time>2026-04-28T13:04:28.999Z</time></trkpt><trkpt lat="44.82717127468223" lon="5.618061619348565"><ele>780.5</ele><time>2026-04-28T13:04:29.999Z</time></trkpt><trkpt lat="44.827233227250446" lon="5.618253820394037"><ele>779.25</ele><time>2026-04-28T13:04:30.999Z</time></trkpt><trkpt lat="44.82727469469874" lon="5.618442153729426"><ele>778.0</ele><time>2026-04-28T13:04:31.999Z</time></trkpt><trkpt lat="44.82731117410527" lon="5.618632775784546"><ele>778.0</ele><time>2026-04-28T13:04:32.999Z</time></trkpt><trkpt lat="44.82734757761061" lon="5.6187987602068254"><ele>778.0</ele><time>2026-04-28T13:04:33.999Z</time></trkpt><trkpt lat="44.827363551243195" lon="5.618960965579199"><ele>778.0</ele><time>2026-04-28T13:04:34.999Z</time></trkpt><trkpt lat="44.82741271941364" lon="5.6191241610904115"><ele>778.0</ele><time>2026-04-28T13:04:35.999Z</time></trkpt><trkpt lat="44.827438225501666" lon="5.619309824486069"><ele>778.0</ele><time>2026-04-28T13:04:36.999Z</time></trkpt><trkpt lat="44.827493076077026" lon="5.619473675133563"><ele>778.0</ele><time>2026-04-28T13:04:37.999Z</time></trkpt><trkpt lat="44.827529040337495" lon="5.619637132146083"><ele>778.0</ele><time>2026-04-28T13:04:38.999Z</time></trkpt><trkpt lat="44.827571656101284" lon="5.619808131085182"><ele>778.0</ele><time>2026-04-28T13:04:39.999Z</time></trkpt><trkpt lat="44.82760065286226" lon="5.619980638852739"><ele>778.0</ele><time>2026-04-28T13:04:40.999Z</time></trkpt><trkpt lat="44.827632360266136" lon="5.620153454059707"><ele>778.0</ele><time>2026-04-28T13:04:41.999Z</time></trkpt><trkpt lat="44.827667939878445" lon="5.620329947902888"><ele>778.0</ele><time>2026-04-28T13:04:42.999Z</time></trkpt><trkpt lat="44.82769605553602" lon="5.620509584455337"><ele>778.0</ele><time>2026-04-28T13:04:43.999Z</time></trkpt><trkpt lat="44.82772554926366" lon="5.620689527266636"><ele>774.25</ele><time>2026-04-28T13:04:44.999Z</time></trkpt><trkpt lat="44.82774514176857" lon="5.6208716051263306"><ele>770.5</ele><time>2026-04-28T13:04:45.999Z</time></trkpt><trkpt lat="44.82773084733806" lon="5.621061302801842"><ele>766.75</ele><time>2026-04-28T13:04:46.999Z</time></trkpt><trkpt lat="44.82770891675642" lon="5.621233703222446"><ele>763.0</ele><time>2026-04-28T13:04:47.999Z</time></trkpt><trkpt lat="44.827677087069006" lon="5.6214072687567525"><ele>764.25</ele><time>2026-04-28T13:04:48.999Z</time></trkpt><trkpt lat="44.8276374609922" lon="5.621573345507724"><ele>765.5</ele><time>2026-04-28T13:04:49.999Z</time></trkpt><trkpt lat="44.82759196274598" lon="5.621741671055017"><ele>766.75</ele><time>2026-04-28T13:04:50.999Z</time></trkpt><trkpt lat="44.827547136809756" lon="5.621902350432943"><ele>768.0</ele><time>2026-04-28T13:04:52Z</time></trkpt><trkpt lat="44.82747009947069" lon="5.6220529496932565"><ele>768.0</ele><time>2026-04-28T13:04:53Z</time></trkpt><trkpt lat="44.82741504229854" lon="5.622194395061221"><ele>768.0</ele><time>2026-04-28T13:04:54Z</time></trkpt><trkpt lat="44.82740416353611" lon="5.622344253848242"><ele>768.0</ele><time>2026-04-28T13:04:55Z</time></trkpt><trkpt lat="44.827388884408016" lon="5.622459523373819"><ele>768.0</ele><time>2026-04-28T13:04:56Z</time></trkpt><trkpt lat="44.82740390664898" lon="5.622644788978959"><ele>768.0</ele><time>2026-04-28T13:04:58Z</time></trkpt><trkpt lat="44.82743883416562" lon="5.62275111004475"><ele>767.1666666666666</ele><time>2026-04-28T13:04:59Z</time></trkpt><trkpt lat="44.82747964929773" lon="5.622844492543717"><ele>766.3333333333334</ele><time>2026-04-28T13:05:00Z</time></trkpt><trkpt lat="44.82750108484449" lon="5.622962852494962"><ele>765.5</ele><time>2026-04-28T13:05:01Z</time></trkpt><trkpt lat="44.82752941833006" lon="5.62308212920913"><ele>764.6666666666667</ele><time>2026-04-28T13:05:02Z</time></trkpt><trkpt lat="44.82752445366374" lon="5.623211288703859"><ele>763.8333333333334</ele><time>2026-04-28T13:05:03Z</time></trkpt><trkpt lat="44.82751451364771" lon="5.623338995530723"><ele>763.0</ele><time>2026-04-28T13:05:04Z</time></trkpt><trkpt lat="44.82749587753121" lon="5.623477315909391"><ele>763.0</ele><time>2026-04-28T13:05:05Z</time></trkpt><trkpt lat="44.827498324388685" lon="5.623614085278013"><ele>763.0</ele><time>2026-04-28T13:05:06Z</time></trkpt><trkpt lat="44.827498175872215" lon="5.6237537499599"><ele>763.0</ele><time>2026-04-28T13:05:07Z</time></trkpt><trkpt lat="44.827519514234375" lon="5.62387369727402"><ele>763.0</ele><time>2026-04-28T13:05:08Z</time></trkpt><trkpt lat="44.82754093530211" lon="5.623978180891999"><ele>763.0</ele><time>2026-04-28T13:05:09Z</time></trkpt><trkpt lat="44.827545054320325" lon="5.624083520453989"><ele>763.0</ele><time>2026-04-28T13:05:10Z</time></trkpt><trkpt lat="44.82754822065449" lon="5.62417668884941"><ele>762.4</ele><time>2026-04-28T13:05:11Z</time></trkpt><trkpt lat="44.82756639994649" lon="5.6243267590789445"><ele>761.8</ele><time>2026-04-28T13:05:13Z</time></trkpt><trkpt lat="44.82758449037991" lon="5.624489776649175"><ele>761.2</ele><time>2026-04-28T13:05:15Z</time></trkpt><trkpt lat="44.827577006528635" lon="5.624580704975009"><ele>760.6</ele><time>2026-04-28T13:05:16Z</time></trkpt><trkpt lat="44.827568598821514" lon="5.624748618317076"><ele>760.0</ele><time>2026-04-28T13:05:18Z</time></trkpt><trkpt lat="44.82757105236653" lon="5.624837775739288"><ele>759.8571428571429</ele><time>2026-04-28T13:05:19Z</time></trkpt><trkpt lat="44.827521600224316" lon="5.624907875539793"><ele>759.7142857142858</ele><time>2026-04-28T13:05:20Z</time></trkpt><trkpt lat="44.827464662946795" lon="5.62496285769939"><ele>759.5714285714286</ele><time>2026-04-28T13:05:21Z</time></trkpt><trkpt lat="44.827401000750704" lon="5.625035141466641"><ele>759.4285714285714</ele><time>2026-04-28T13:05:22Z</time></trkpt><trkpt lat="44.827348335642434" lon="5.6250995949763185"><ele>759.2857142857142</ele><time>2026-04-28T13:05:23Z</time></trkpt><trkpt lat="44.8272936674937" lon="5.6251751122575"><ele>759.1428571428571</ele><time>2026-04-28T13:05:24Z</time></trkpt><trkpt lat="44.82724966796924" lon="5.625250137546118"><ele>759.0</ele><time>2026-04-28T13:05:25Z</time></trkpt><trkpt lat="44.82721435436259" lon="5.625342304157391"><ele>758.6666666666666</ele><time>2026-04-28T13:05:26Z</time></trkpt><trkpt lat="44.827178665706676" lon="5.625438703829828"><ele>758.3333333333334</ele><time>2026-04-28T13:05:27Z</time></trkpt><trkpt lat="44.82711661362845" lon="5.62552574880911"><ele>758.0</ele><time>2026-04-28T13:05:28Z</time></trkpt><trkpt lat="44.82708381199854" lon="5.6256295219559265"><ele>757.6666666666667</ele><time>2026-04-28T13:05:29Z</time></trkpt><trkpt lat="44.82704236581703" lon="5.62572955071167"><ele>757.3333333333334</ele><time>2026-04-28T13:05:30Z</time></trkpt><trkpt lat="44.82700908600743" lon="5.625835836804805"><ele>757.0</ele><time>2026-04-28T13:05:31Z</time></trkpt><trkpt lat="44.82700600381784" lon="5.62596328921727"><ele>757.0</ele><time>2026-04-28T13:05:32Z</time></trkpt><trkpt lat="44.826999433159884" lon="5.626094166170444"><ele>757.0</ele><time>2026-04-28T13:05:33Z</time></trkpt><trkpt lat="44.82702044018996" lon="5.626220081677267"><ele>757.0</ele><time>2026-04-28T13:05:34Z</time></trkpt><trkpt lat="44.827035663237496" lon="5.626362241262743"><ele>757.0</ele><time>2026-04-28T13:05:35Z</time></trkpt><trkpt lat="44.8270421876793" lon="5.626504157293999"><ele>757.0</ele><time>2026-04-28T13:05:36Z</time></trkpt><trkpt lat="44.82704459351987" lon="5.626658094152835"><ele>755.75</ele><time>2026-04-28T13:05:37Z</time></trkpt><trkpt lat="44.827054894966196" lon="5.6268202439967565"><ele>754.5</ele><time>2026-04-28T13:05:38Z</time></trkpt><trkpt lat="44.82706391995391" lon="5.6269827561231285"><ele>753.25</ele><time>2026-04-28T13:05:39Z</time></trkpt><trkpt lat="44.827075016112644" lon="5.627151169071528"><ele>752.0</ele><time>2026-04-28T13:05:40Z</time></trkpt><trkpt lat="44.82709053092763" lon="5.627317157018522"><ele>750.0</ele><time>2026-04-28T13:05:41Z</time></trkpt><trkpt lat="44.827102586743834" lon="5.6274882938061985"><ele>748.0</ele><time>2026-04-28T13:05:42Z</time></trkpt><trkpt lat="44.827110847407205" lon="5.627657159728726"><ele>746.0</ele><time>2026-04-28T13:05:43Z</time></trkpt><trkpt lat="44.82712318845761" lon="5.6278218959347255"><ele>744.0</ele><time>2026-04-28T13:05:44Z</time></trkpt><trkpt lat="44.82712082086576" lon="5.627992251644915"><ele>742.25</ele><time>2026-04-28T13:05:45Z</time></trkpt><trkpt lat="44.82709583428495" lon="5.628158673686612"><ele>740.5</ele><time>2026-04-28T13:05:46Z</time></trkpt><trkpt lat="44.8270493020602" lon="5.628320620695702"><ele>738.75</ele><time>2026-04-28T13:05:47Z</time></trkpt><trkpt lat="44.82698289269637" lon="5.628468036051079"><ele>737.0</ele><time>2026-04-28T13:05:48Z</time></trkpt><trkpt lat="44.826927915556965" lon="5.6286233798370935"><ele>738.0</ele><time>2026-04-28T13:05:49Z</time></trkpt><trkpt lat="44.82688163682966" lon="5.628789733276605"><ele>739.0</ele><time>2026-04-28T13:05:50Z</time></trkpt><trkpt lat="44.82683557708172" lon="5.628953659915234"><ele>740.0</ele><time>2026-04-28T13:05:51Z</time></trkpt><trkpt lat="44.826794978651144" lon="5.629122981989138"><ele>741.0</ele><time>2026-04-28T13:05:52Z</time></trkpt><trkpt lat="44.82675478395544" lon="5.629291587791213"><ele>742.25</ele><time>2026-04-28T13:05:53Z</time></trkpt><trkpt lat="44.826711458397824" lon="5.629463440335828"><ele>743.5</ele><time>2026-04-28T13:05:54Z</time></trkpt><trkpt lat="44.826664092671166" lon="5.6296355594686895"><ele>744.75</ele><time>2026-04-28T13:05:55Z</time></trkpt><trkpt lat="44.82662487886396" lon="5.629812441156364"><ele>746.0</ele><time>2026-04-28T13:05:56Z</time></trkpt><trkpt lat="44.82659693398324" lon="5.629993559644477"><ele>746.0</ele><time>2026-04-28T13:05:57Z</time></trkpt><trkpt lat="44.82658283491397" lon="5.630176039696579"><ele>746.0</ele><time>2026-04-28T13:05:58Z</time></trkpt><trkpt lat="44.826583704721074" lon="5.630357939156364"><ele>746.0</ele><time>2026-04-28T13:05:59Z</time></trkpt><trkpt lat="44.8265985520333" lon="5.630536239752111"><ele>746.0</ele><time>2026-04-28T13:06:00Z</time></trkpt><trkpt lat="44.82661357699414" lon="5.630712520480739"><ele>746.0</ele><time>2026-04-28T13:06:01Z</time></trkpt><trkpt lat="44.82663066123736" lon="5.63089684686475"><ele>746.0</ele><time>2026-04-28T13:06:02Z</time></trkpt><trkpt lat="44.82661738772425" lon="5.631068027723634"><ele>746.0</ele><time>2026-04-28T13:06:03Z</time></trkpt><trkpt lat="44.826605413920284" lon="5.631232975509076"><ele>746.0</ele><time>2026-04-28T13:06:04Z</time></trkpt><trkpt lat="44.82658283363371" lon="5.631393876195593"><ele>744.0</ele><time>2026-04-28T13:06:05Z</time></trkpt><trkpt lat="44.82653960853927" lon="5.6315563858228534"><ele>742.0</ele><time>2026-04-28T13:06:06Z</time></trkpt><trkpt lat="44.826480757524585" lon="5.631719117253437"><ele>740.0</ele><time>2026-04-28T13:06:07Z</time></trkpt><trkpt lat="44.82642605341068" lon="5.631868787743234"><ele>738.0</ele><time>2026-04-28T13:06:07.999Z</time></trkpt><trkpt lat="44.826368170581695" lon="5.63200996166386"><ele>735.5</ele><time>2026-04-28T13:06:08.999Z</time></trkpt><trkpt lat="44.82631108662229" lon="5.632151914519328"><ele>733.0</ele><time>2026-04-28T13:06:09.999Z</time></trkpt><trkpt lat="44.82626437163358" lon="5.632310847327087"><ele>730.5</ele><time>2026-04-28T13:06:10.999Z</time></trkpt><trkpt lat="44.826201809067676" lon="5.632456056590074"><ele>728.0</ele><time>2026-04-28T13:06:11.999Z</time></trkpt><trkpt lat="44.826154608336026" lon="5.632603635596875"><ele>728.0</ele><time>2026-04-28T13:06:12.999Z</time></trkpt><trkpt lat="44.826119359040405" lon="5.632765462699584"><ele>728.0</ele><time>2026-04-28T13:06:13.999Z</time></trkpt><trkpt lat="44.826092756456866" lon="5.632932302352394"><ele>728.0</ele><time>2026-04-28T13:06:14.999Z</time></trkpt><trkpt lat="44.82607046368986" lon="5.633103477160229"><ele>728.0</ele><time>2026-04-28T13:06:15.999Z</time></trkpt><trkpt lat="44.82604064172833" lon="5.633269521014143"><ele>727.5</ele><time>2026-04-28T13:06:16.999Z</time></trkpt><trkpt lat="44.82600769492537" lon="5.633441355389156"><ele>727.0</ele><time>2026-04-28T13:06:17.999Z</time></trkpt><trkpt lat="44.82597367991097" lon="5.633605126420579"><ele>726.5</ele><time>2026-04-28T13:06:18.999Z</time></trkpt><trkpt lat="44.82594019274251" lon="5.633771121759245"><ele>726.0</ele><time>2026-04-28T13:06:19.999Z</time></trkpt><trkpt lat="44.82590735194929" lon="5.633941176520796"><ele>726.5</ele><time>2026-04-28T13:06:20.999Z</time></trkpt><trkpt lat="44.82586645610233" lon="5.634108764724854"><ele>727.0</ele><time>2026-04-28T13:06:21.999Z</time></trkpt><trkpt lat="44.82582865568948" lon="5.634277350889443"><ele>727.5</ele><time>2026-04-28T13:06:22.999Z</time></trkpt><trkpt lat="44.82578775611284" lon="5.6344421115579735"><ele>728.0</ele><time>2026-04-28T13:06:23.999Z</time></trkpt><trkpt lat="44.82574594670696" lon="5.634609924258986"><ele>728.0</ele><time>2026-04-28T13:06:24.999Z</time></trkpt><trkpt lat="44.82570619426227" lon="5.634783250359893"><ele>728.0</ele><time>2026-04-28T13:06:25.999Z</time></trkpt><trkpt lat="44.82567336152735" lon="5.634959191381956"><ele>728.0</ele><time>2026-04-28T13:06:26.999Z</time></trkpt><trkpt lat="44.825642863884454" lon="5.635146371779118"><ele>728.0</ele><time>2026-04-28T13:06:27.999Z</time></trkpt><trkpt lat="44.82563201096513" lon="5.635335023075198"><ele>726.5</ele><time>2026-04-28T13:06:28.999Z</time></trkpt><trkpt lat="44.82563939913222" lon="5.635520416482895"><ele>725.0</ele><time>2026-04-28T13:06:29.999Z</time></trkpt><trkpt lat="44.82565906136762" lon="5.635701802427965"><ele>723.5</ele><time>2026-04-28T13:06:30.999Z</time></trkpt><trkpt lat="44.825679099921054" lon="5.635884956832196"><ele>722.0</ele><time>2026-04-28T13:06:31.999Z</time></trkpt><trkpt lat="44.82569820453551" lon="5.636062531670016"><ele>722.0</ele><time>2026-04-28T13:06:32.999Z</time></trkpt><trkpt lat="44.825718946292774" lon="5.636245012077427"><ele>722.0</ele><time>2026-04-28T13:06:33.999Z</time></trkpt><trkpt lat="44.825739390991245" lon="5.636427138994209"><ele>722.0</ele><time>2026-04-28T13:06:34.999Z</time></trkpt><trkpt lat="44.825753717076076" lon="5.636607474625279"><ele>722.0</ele><time>2026-04-28T13:06:35.999Z</time></trkpt><trkpt lat="44.82577032299175" lon="5.636787408700041"><ele>723.0</ele><time>2026-04-28T13:06:36.999Z</time></trkpt><trkpt lat="44.825782564023925" lon="5.636970895898076"><ele>724.0</ele><time>2026-04-28T13:06:37.999Z</time></trkpt><trkpt lat="44.825783642769316" lon="5.637151212635267"><ele>725.0</ele><time>2026-04-28T13:06:38.999Z</time></trkpt><trkpt lat="44.82578477284685" lon="5.637326037527523"><ele>726.0</ele><time>2026-04-28T13:06:39.999Z</time></trkpt><trkpt lat="44.82580043480243" lon="5.63750517828854"><ele>726.0</ele><time>2026-04-28T13:06:40.999Z</time></trkpt><trkpt lat="44.82582437903616" lon="5.637683283108226"><ele>726.0</ele><time>2026-04-28T13:06:41.999Z</time></trkpt><trkpt lat="44.82586122780487" lon="5.6378551421229925"><ele>726.0</ele><time>2026-04-28T13:06:42.999Z</time></trkpt><trkpt lat="44.82591285397495" lon="5.638014974867157"><ele>726.0</ele><time>2026-04-28T13:06:43.999Z</time></trkpt><trkpt lat="44.82598120624799" lon="5.638157574479643"><ele>725.75</ele><time>2026-04-28T13:06:44.999Z</time></trkpt><trkpt lat="44.826066168611035" lon="5.638281281842371"><ele>725.5</ele><time>2026-04-28T13:06:45.999Z</time></trkpt><trkpt lat="44.82616551863586" lon="5.638374060196615"><ele>725.25</ele><time>2026-04-28T13:06:46.999Z</time></trkpt><trkpt lat="44.82627735662955" lon="5.638449468015722"><ele>725.0</ele><time>2026-04-28T13:06:47.999Z</time></trkpt><trkpt lat="44.82639611493578" lon="5.638495434489839"><ele>725.0</ele><time>2026-04-28T13:06:48.999Z</time></trkpt><trkpt lat="44.82651758766148" lon="5.638539628755464"><ele>725.0</ele><time>2026-04-28T13:06:49.999Z</time></trkpt><trkpt lat="44.826635267761574" lon="5.638566701025701"><ele>725.0</ele><time>2026-04-28T13:06:50.999Z</time></trkpt><trkpt lat="44.82674225457674" lon="5.638582544932298"><ele>725.0</ele><time>2026-04-28T13:06:51.999Z</time></trkpt><trkpt lat="44.82681346854832" lon="5.63863085660448"><ele>725.0</ele><time>2026-04-28T13:06:52.999Z</time></trkpt><trkpt lat="44.82688806252953" lon="5.638656383859852"><ele>726.1666666666666</ele><time>2026-04-28T13:06:53.999Z</time></trkpt><trkpt lat="44.82697717005009" lon="5.638690801404427"><ele>727.3333333333333</ele><time>2026-04-28T13:06:54.999Z</time></trkpt><trkpt lat="44.8270473312152" lon="5.638697808823585"><ele>728.5</ele><time>2026-04-28T13:06:55.999Z</time></trkpt><trkpt lat="44.827130014928784" lon="5.638719527430549"><ele>729.6666666666666</ele><time>2026-04-28T13:06:56.999Z</time></trkpt><trkpt lat="44.82723129225546" lon="5.638758780141909"><ele>730.8333333333334</ele><time>2026-04-28T13:06:58Z</time></trkpt><trkpt lat="44.82732776522201" lon="5.638778815131031"><ele>732.0</ele><time>2026-04-28T13:06:59Z</time></trkpt><trkpt lat="44.827391906271075" lon="5.638789218707491"><ele>732.0</ele><time>2026-04-28T13:07:00Z</time></trkpt><trkpt lat="44.827468695872696" lon="5.638809221592478"><ele>732.0</ele><time>2026-04-28T13:07:01Z</time></trkpt><trkpt lat="44.82756783484027" lon="5.638823951407316"><ele>732.0</ele><time>2026-04-28T13:07:02Z</time></trkpt><trkpt lat="44.82766635767479" lon="5.6388824986948665"><ele>732.0</ele><time>2026-04-28T13:07:03Z</time></trkpt><trkpt lat="44.827759577013225" lon="5.638904845931911"><ele>732.0</ele><time>2026-04-28T13:07:04Z</time></trkpt><trkpt lat="44.82784382870932" lon="5.63890893972759"><ele>729.0</ele><time>2026-04-28T13:07:05Z</time></trkpt><trkpt lat="44.82794152301645" lon="5.638962852171219"><ele>726.0</ele><time>2026-04-28T13:07:06Z</time></trkpt><trkpt lat="44.828031446746394" lon="5.639013128705884"><ele>723.0</ele><time>2026-04-28T13:07:07Z</time></trkpt><trkpt lat="44.828124789660514" lon="5.639044456377645"><ele>720.0</ele><time>2026-04-28T13:07:08Z</time></trkpt><trkpt lat="44.82821101514284" lon="5.639085274457676"><ele>717.0</ele><time>2026-04-28T13:07:09Z</time></trkpt><trkpt lat="44.82828319836914" lon="5.6391534102190555"><ele>717.0</ele><time>2026-04-28T13:07:10Z</time></trkpt><trkpt lat="44.82834312198915" lon="5.639232519247924"><ele>717.0</ele><time>2026-04-28T13:07:11Z</time></trkpt><trkpt lat="44.82839122711295" lon="5.6393584228446185"><ele>717.0</ele><time>2026-04-28T13:07:12Z</time></trkpt><trkpt lat="44.828384543905756" lon="5.639509412982854"><ele>717.0</ele><time>2026-04-28T13:07:13Z</time></trkpt><trkpt lat="44.82834740097351" lon="5.639637121055954"><ele>717.0</ele><time>2026-04-28T13:07:14Z</time></trkpt><trkpt lat="44.82829880585187" lon="5.639764566009211"><ele>716.4000000000001</ele><time>2026-04-28T13:07:15Z</time></trkpt><trkpt lat="44.82825020959322" lon="5.639899239464537"><ele>715.8000000000001</ele><time>2026-04-28T13:07:16Z</time></trkpt><trkpt lat="44.828196896042485" lon="5.640034302762259"><ele>715.2</ele><time>2026-04-28T13:07:17Z</time></trkpt><trkpt lat="44.82818385444917" lon="5.6401949012205845"><ele>714.6</ele><time>2026-04-28T13:07:18Z</time></trkpt><trkpt lat="44.82821287901591" lon="5.640353134331023"><ele>714.0</ele><time>2026-04-28T13:07:19Z</time></trkpt><trkpt lat="44.828258477750815" lon="5.640485805915204"><ele>712.8000000000001</ele><time>2026-04-28T13:07:20Z</time></trkpt><trkpt lat="44.82831803169664" lon="5.6406069073803975"><ele>711.6</ele><time>2026-04-28T13:07:21Z</time></trkpt><trkpt lat="44.828344855563216" lon="5.640757143483873"><ele>710.4</ele><time>2026-04-28T13:07:22Z</time></trkpt><trkpt lat="44.82834042969621" lon="5.640913006385289"><ele>709.2</ele><time>2026-04-28T13:07:23Z</time></trkpt><trkpt lat="44.828303784881285" lon="5.641067987481984"><ele>708.0</ele><time>2026-04-28T13:07:24Z</time></trkpt><trkpt lat="44.828242762814924" lon="5.6411972122409"><ele>707.2</ele><time>2026-04-28T13:07:25Z</time></trkpt><trkpt lat="44.82816236476288" lon="5.641309089500476"><ele>706.4</ele><time>2026-04-28T13:07:26Z</time></trkpt><trkpt lat="44.82806915572557" lon="5.641395169604207"><ele>705.6</ele><time>2026-04-28T13:07:27Z</time></trkpt><trkpt lat="44.82796330115543" lon="5.641461752707429"><ele>704.8000000000001</ele><time>2026-04-28T13:07:28Z</time></trkpt><trkpt lat="44.82787639921653" lon="5.641549928800399"><ele>704.0</ele><time>2026-04-28T13:07:29Z</time></trkpt><trkpt lat="44.82779655064349" lon="5.64165580810121"><ele>704.0</ele><time>2026-04-28T13:07:30Z</time></trkpt><trkpt lat="44.82774556839237" lon="5.641790253794148"><ele>704.0</ele><time>2026-04-28T13:07:31Z</time></trkpt><trkpt lat="44.82771545587542" lon="5.641944292405845"><ele>704.0</ele><time>2026-04-28T13:07:32Z</time></trkpt><trkpt lat="44.82770855401306" lon="5.64210797295577"><ele>704.0</ele><time>2026-04-28T13:07:33Z</time></trkpt><trkpt lat="44.82771218039648" lon="5.642272476580694"><ele>703.0</ele><time>2026-04-28T13:07:34Z</time></trkpt><trkpt lat="44.82771312006435" lon="5.642435678175601"><ele>702.0</ele><time>2026-04-28T13:07:35Z</time></trkpt><trkpt lat="44.82768783774948" lon="5.642595104036114"><ele>701.0</ele><time>2026-04-28T13:07:36Z</time></trkpt><trkpt lat="44.82762159616197" lon="5.642733526329525"><ele>700.0</ele><time>2026-04-28T13:07:37Z</time></trkpt><trkpt lat="44.8275089636861" lon="5.642806540302805"><ele>700.0</ele><time>2026-04-28T13:07:38Z</time></trkpt><trkpt lat="44.82739626908458" lon="5.642877142793434"><ele>700.0</ele><time>2026-04-28T13:07:39Z</time></trkpt><trkpt lat="44.82728304004459" lon="5.642960605729963"><ele>700.0</ele><time>2026-04-28T13:07:40Z</time></trkpt><trkpt lat="44.82717903629689" lon="5.643022815404439"><ele>700.0</ele><time>2026-04-28T13:07:41Z</time></trkpt><trkpt lat="44.82708321335822" lon="5.643135058906511"><ele>700.0</ele><time>2026-04-28T13:07:42Z</time></trkpt><trkpt lat="44.82700431662753" lon="5.64327835761976"><ele>700.0</ele><time>2026-04-28T13:07:43Z</time></trkpt><trkpt lat="44.826938480182754" lon="5.64343873014754"><ele>700.0</ele><time>2026-04-28T13:07:44Z</time></trkpt><trkpt lat="44.82690982283566" lon="5.643616414192917"><ele>700.0</ele><time>2026-04-28T13:07:45Z</time></trkpt><trkpt lat="44.82687494762303" lon="5.6438130651889"><ele>699.75</ele><time>2026-04-28T13:07:46Z</time></trkpt><trkpt lat="44.82684986937972" lon="5.643978792314506"><ele>699.5</ele><time>2026-04-28T13:07:47Z</time></trkpt><trkpt lat="44.826809282451464" lon="5.644144031707545"><ele>699.25</ele><time>2026-04-28T13:07:48Z</time></trkpt><trkpt lat="44.82676452729326" lon="5.644319247291164"><ele>699.0</ele><time>2026-04-28T13:07:49Z</time></trkpt><trkpt lat="44.82673549383044" lon="5.644502870004984"><ele>699.0</ele><time>2026-04-28T13:07:50Z</time></trkpt><trkpt lat="44.82673192660522" lon="5.644692486993546"><ele>699.0</ele><time>2026-04-28T13:07:51Z</time></trkpt><trkpt lat="44.82675775052399" lon="5.644876356005235"><ele>699.0</ele><time>2026-04-28T13:07:52Z</time></trkpt><trkpt lat="44.826816372263494" lon="5.6450553104886"><ele>699.0</ele><time>2026-04-28T13:07:53Z</time></trkpt><trkpt lat="44.826898000609404" lon="5.645215170441114"><ele>695.25</ele><time>2026-04-28T13:07:54Z</time></trkpt><trkpt lat="44.82697973216542" lon="5.6453557320152585"><ele>691.5</ele><time>2026-04-28T13:07:55Z</time></trkpt><trkpt lat="44.827060449757084" lon="5.645501700154054"><ele>687.75</ele><time>2026-04-28T13:07:56Z</time></trkpt><trkpt lat="44.82713399140407" lon="5.645648979623184"><ele>684.0</ele><time>2026-04-28T13:07:57Z</time></trkpt><trkpt lat="44.82718540657436" lon="5.645819010151981"><ele>684.0</ele><time>2026-04-28T13:07:58Z</time></trkpt><trkpt lat="44.827202988688924" lon="5.646004572071604"><ele>684.0</ele><time>2026-04-28T13:07:58.999Z</time></trkpt><trkpt lat="44.82720495439516" lon="5.646185311318459"><ele>684.0</ele><time>2026-04-28T13:07:59.999Z</time></trkpt><trkpt lat="44.82718346805387" lon="5.646366837343262"><ele>684.0</ele><time>2026-04-28T13:08:00.999Z</time></trkpt><trkpt lat="44.82715251078059" lon="5.646547885555319"><ele>683.75</ele><time>2026-04-28T13:08:01.999Z</time></trkpt><trkpt lat="44.827118460934656" lon="5.646725728147805"><ele>683.5</ele><time>2026-04-28T13:08:02.999Z</time></trkpt><trkpt lat="44.8270839691384" lon="5.646905827982004"><ele>683.25</ele><time>2026-04-28T13:08:03.999Z</time></trkpt><trkpt lat="44.827049279073705" lon="5.647084035928107"><ele>683.0</ele><time>2026-04-28T13:08:04.999Z</time></trkpt><trkpt lat="44.82701687183939" lon="5.6472505131610715"><ele>682.0</ele><time>2026-04-28T13:08:05.999Z</time></trkpt><trkpt lat="44.82698642823875" lon="5.6474379354800455"><ele>681.0</ele><time>2026-04-28T13:08:06.999Z</time></trkpt><trkpt lat="44.82693035021172" lon="5.647594613541714"><ele>680.0</ele><time>2026-04-28T13:08:07.999Z</time></trkpt><trkpt lat="44.82683787375544" lon="5.647720987166758"><ele>679.0</ele><time>2026-04-28T13:08:08.999Z</time></trkpt><trkpt lat="44.826729335922955" lon="5.647804357334218"><ele>681.25</ele><time>2026-04-28T13:08:09.999Z</time></trkpt><trkpt lat="44.826604175096065" lon="5.647881296806671"><ele>683.5</ele><time>2026-04-28T13:08:10.999Z</time></trkpt><trkpt lat="44.82650672949601" lon="5.6479694181212174"><ele>685.75</ele><time>2026-04-28T13:08:11.999Z</time></trkpt><trkpt lat="44.82642940905182" lon="5.648072769361283"><ele>688.0</ele><time>2026-04-28T13:08:12.999Z</time></trkpt><trkpt lat="44.826368853177996" lon="5.648216393003687"><ele>688.0</ele><time>2026-04-28T13:08:13.999Z</time></trkpt><trkpt lat="44.82633210976409" lon="5.648360595520168"><ele>688.0</ele><time>2026-04-28T13:08:14.999Z</time></trkpt><trkpt lat="44.826328239404745" lon="5.648490212492974"><ele>688.0</ele><time>2026-04-28T13:08:15.999Z</time></trkpt><trkpt lat="44.826350559036264" lon="5.648600332101523"><ele>688.0</ele><time>2026-04-28T13:08:16.999Z</time></trkpt><trkpt lat="44.826352615397305" lon="5.6486925405533395"><ele>688.0</ele><time>2026-04-28T13:08:17.999Z</time></trkpt><trkpt lat="44.82637466910915" lon="5.648777682915349"><ele>688.0</ele><time>2026-04-28T13:08:19.999Z</time></trkpt><trkpt lat="44.82640277456634" lon="5.648873404876724"><ele>688.0</ele><time>2026-04-28T13:09:09Z</time></trkpt><trkpt lat="44.82643871656929" lon="5.648988397658262"><ele>688.0</ele><time>2026-04-28T13:09:12Z</time></trkpt><trkpt lat="44.826479604446774" lon="5.649132139347433"><ele>688.0</ele><time>2026-04-28T13:09:14Z</time></trkpt><trkpt lat="44.82653422064573" lon="5.649304807897682"><ele>688.0</ele><time>2026-04-28T13:09:16Z</time></trkpt><trkpt lat="44.82656976065919" lon="5.64939275472423"><ele>688.0</ele><time>2026-04-28T13:09:17Z</time></trkpt><trkpt lat="44.826589852475585" lon="5.649483611231056"><ele>688.5</ele><time>2026-04-28T13:09:18Z</time></trkpt><trkpt lat="44.82663287854737" lon="5.649577042668053"><ele>689.0</ele><time>2026-04-28T13:09:19Z</time></trkpt><trkpt lat="44.82666276430733" lon="5.64968648402856"><ele>689.5</ele><time>2026-04-28T13:09:20Z</time></trkpt><trkpt lat="44.826703048586594" lon="5.649790035746172"><ele>690.0</ele><time>2026-04-28T13:09:21Z</time></trkpt><trkpt lat="44.826741955681726" lon="5.649897584440707"><ele>690.5</ele><time>2026-04-28T13:09:22Z</time></trkpt><trkpt lat="44.82678447854233" lon="5.650009131508722"><ele>691.0</ele><time>2026-04-28T13:09:23Z</time></trkpt><trkpt lat="44.82682190027514" lon="5.650128339758261"><ele>686.5999999999999</ele><time>2026-04-28T13:09:24Z</time></trkpt><trkpt lat="44.826853167574725" lon="5.650251010281329"><ele>682.2</ele><time>2026-04-28T13:09:25Z</time></trkpt><trkpt lat="44.82687502743327" lon="5.650374916120918"><ele>677.8</ele><time>2026-04-28T13:09:26Z</time></trkpt><trkpt lat="44.826896925549434" lon="5.650501058357429"><ele>673.4000000000001</ele><time>2026-04-28T13:09:27Z</time></trkpt><trkpt lat="44.82689846931781" lon="5.650634027946726"><ele>669.0</ele><time>2026-04-28T13:09:28Z</time></trkpt><trkpt lat="44.82690882107813" lon="5.650760613200775"><ele>669.0</ele><time>2026-04-28T13:09:29Z</time></trkpt><trkpt lat="44.82691609765646" lon="5.650895894554826"><ele>669.0</ele><time>2026-04-28T13:09:30Z</time></trkpt><trkpt lat="44.82692012656895" lon="5.651025349227808"><ele>669.0</ele><time>2026-04-28T13:09:31Z</time></trkpt><trkpt lat="44.82692403665072" lon="5.65115783935398"><ele>669.0</ele><time>2026-04-28T13:09:32Z</time></trkpt><trkpt lat="44.826925558726735" lon="5.651293712701739"><ele>669.0</ele><time>2026-04-28T13:09:33Z</time></trkpt><trkpt lat="44.826923846023" lon="5.651436763826605"><ele>668.4000000000001</ele><time>2026-04-28T13:09:34Z</time></trkpt><trkpt lat="44.82692189129629" lon="5.651578237104837"><ele>667.8</ele><time>2026-04-28T13:09:35Z</time></trkpt><trkpt lat="44.826930668789004" lon="5.651723922495842"><ele>667.2</ele><time>2026-04-28T13:09:36Z</time></trkpt><trkpt lat="44.826924334192945" lon="5.651866919946555"><ele>666.5999999999999</ele><time>2026-04-28T13:09:37Z</time></trkpt><trkpt lat="44.82692278810129" lon="5.652011984204865"><ele>666.0</ele><time>2026-04-28T13:09:38Z</time></trkpt><trkpt lat="44.826920750286696" lon="5.6521599673680125"><ele>665.4</ele><time>2026-04-28T13:09:39Z</time></trkpt><trkpt lat="44.82690826170027" lon="5.6523060624989245"><ele>664.8</ele><time>2026-04-28T13:09:40Z</time></trkpt><trkpt lat="44.82690125646569" lon="5.652455886922249"><ele>664.1999999999999</ele><time>2026-04-28T13:09:41Z</time></trkpt><trkpt lat="44.826896424288904" lon="5.652604600687634"><ele>663.5999999999999</ele><time>2026-04-28T13:09:42Z</time></trkpt><trkpt lat="44.82690534838845" lon="5.652760033006876"><ele>663.0</ele><time>2026-04-28T13:09:43Z</time></trkpt><trkpt lat="44.82692189558959" lon="5.652911508788796"><ele>661.25</ele><time>2026-04-28T13:09:44Z</time></trkpt><trkpt lat="44.826954864367295" lon="5.653063166880755"><ele>659.5</ele><time>2026-04-28T13:09:45Z</time></trkpt><trkpt lat="44.82698787721956" lon="5.653214225415654"><ele>657.75</ele><time>2026-04-28T13:09:46Z</time></trkpt><trkpt lat="44.827021212634186" lon="5.653365285377585"><ele>656.0</ele><time>2026-04-28T13:09:47Z</time></trkpt><trkpt lat="44.82704607826193" lon="5.653525318629151"><ele>656.75</ele><time>2026-04-28T13:09:48Z</time></trkpt><trkpt lat="44.82704264848334" lon="5.653687035284654"><ele>657.5</ele><time>2026-04-28T13:09:49Z</time></trkpt><trkpt lat="44.82704927556238" lon="5.653849003321418"><ele>658.25</ele><time>2026-04-28T13:09:50Z</time></trkpt><trkpt lat="44.8270209849942" lon="5.654009847743197"><ele>659.0</ele><time>2026-04-28T13:09:51Z</time></trkpt><trkpt lat="44.8269999029881" lon="5.654176944678487"><ele>659.0</ele><time>2026-04-28T13:09:52Z</time></trkpt><trkpt lat="44.82696436286779" lon="5.654334000210504"><ele>659.0</ele><time>2026-04-28T13:09:53Z</time></trkpt><trkpt lat="44.826943109004645" lon="5.65450088012353"><ele>659.0</ele><time>2026-04-28T13:09:54Z</time></trkpt><trkpt lat="44.82692045684886" lon="5.654663034709901"><ele>659.0</ele><time>2026-04-28T13:09:55Z</time></trkpt><trkpt lat="44.82690537123389" lon="5.654828832870374"><ele>660.5</ele><time>2026-04-28T13:09:56Z</time></trkpt><trkpt lat="44.82690828700792" lon="5.654988139128934"><ele>662.0</ele><time>2026-04-28T13:09:57Z</time></trkpt><trkpt lat="44.826942982681786" lon="5.655148157280419"><ele>663.5</ele><time>2026-04-28T13:09:58Z</time></trkpt><trkpt lat="44.827000891818" lon="5.655293705351169"><ele>665.0</ele><time>2026-04-28T13:09:59Z</time></trkpt><trkpt lat="44.8270825284919" lon="5.655409379626403"><ele>665.75</ele><time>2026-04-28T13:10:00Z</time></trkpt><trkpt lat="44.827184379793614" lon="5.655498521194903"><ele>666.5</ele><time>2026-04-28T13:10:01Z</time></trkpt><trkpt lat="44.82727969785614" lon="5.6555755716633875"><ele>667.25</ele><time>2026-04-28T13:10:02Z</time></trkpt><trkpt lat="44.82737974535291" lon="5.655659180620793"><ele>668.0</ele><time>2026-04-28T13:10:03Z</time></trkpt><trkpt lat="44.82748565091963" lon="5.655736893706493"><ele>668.0</ele><time>2026-04-28T13:10:04Z</time></trkpt><trkpt lat="44.82760512191305" lon="5.655821171315478"><ele>668.0</ele><time>2026-04-28T13:10:05Z</time></trkpt><trkpt lat="44.82771943406299" lon="5.655889193941478"><ele>668.0</ele><time>2026-04-28T13:10:06Z</time></trkpt><trkpt lat="44.82782796942653" lon="5.6559579250579946"><ele>668.0</ele><time>2026-04-28T13:10:07Z</time></trkpt><trkpt lat="44.82794851421368" lon="5.6560275560340685"><ele>666.75</ele><time>2026-04-28T13:10:08Z</time></trkpt><trkpt lat="44.82806507067693" lon="5.656090355977032"><ele>665.5</ele><time>2026-04-28T13:10:09Z</time></trkpt><trkpt lat="44.828180784498066" lon="5.656159944059261"><ele>664.25</ele><time>2026-04-28T13:10:09.999Z</time></trkpt><trkpt lat="44.828297470647236" lon="5.656233633194319"><ele>663.0</ele><time>2026-04-28T13:10:10.999Z</time></trkpt><trkpt lat="44.82841177494649" lon="5.656314704383413"><ele>660.25</ele><time>2026-04-28T13:10:11.999Z</time></trkpt><trkpt lat="44.82852046585682" lon="5.656423331648234"><ele>657.5</ele><time>2026-04-28T13:10:12.999Z</time></trkpt><trkpt lat="44.828613377086874" lon="5.656555405917742"><ele>654.75</ele><time>2026-04-28T13:10:13.999Z</time></trkpt><trkpt lat="44.82868838305863" lon="5.656696633672989"><ele>652.0</ele><time>2026-04-28T13:10:14.999Z</time></trkpt><trkpt lat="44.82875894553451" lon="5.656838302462294"><ele>654.0</ele><time>2026-04-28T13:10:15.999Z</time></trkpt><trkpt lat="44.82884223156368" lon="5.656983399440687"><ele>656.0</ele><time>2026-04-28T13:10:16.999Z</time></trkpt><trkpt lat="44.828927892206465" lon="5.657109935077039"><ele>658.0</ele><time>2026-04-28T13:10:17.999Z</time></trkpt><trkpt lat="44.82902453726792" lon="5.6572366093121795"><ele>660.0</ele><time>2026-04-28T13:10:18.999Z</time></trkpt><trkpt lat="44.82913061370902" lon="5.657340175178814"><ele>660.0</ele><time>2026-04-28T13:10:19.999Z</time></trkpt><trkpt lat="44.82924583670802" lon="5.657414327958226"><ele>660.0</ele><time>2026-04-28T13:10:20.999Z</time></trkpt><trkpt lat="44.829367660034535" lon="5.657478710060596"><ele>660.0</ele><time>2026-04-28T13:10:21.999Z</time></trkpt><trkpt lat="44.82949064796035" lon="5.657546193733738"><ele>660.0</ele><time>2026-04-28T13:10:22.999Z</time></trkpt><trkpt lat="44.82961502301948" lon="5.657615434689009"><ele>657.75</ele><time>2026-04-28T13:10:23.999Z</time></trkpt><trkpt lat="44.829734831440994" lon="5.657693332041133"><ele>655.5</ele><time>2026-04-28T13:10:24.999Z</time></trkpt><trkpt lat="44.82985442686932" lon="5.657777413666833"><ele>653.25</ele><time>2026-04-28T13:10:25.999Z</time></trkpt><trkpt lat="44.829969702209326" lon="5.657868061650072"><ele>651.0</ele><time>2026-04-28T13:10:26.999Z</time></trkpt><trkpt lat="44.83007519441978" lon="5.657972092995581"><ele>648.0</ele><time>2026-04-28T13:10:27.999Z</time></trkpt><trkpt lat="44.83018383173106" lon="5.6580760213673855"><ele>645.0</ele><time>2026-04-28T13:10:28.999Z</time></trkpt><trkpt lat="44.830286022974654" lon="5.658190183813817"><ele>642.0</ele><time>2026-04-28T13:10:29.999Z</time></trkpt><trkpt lat="44.83037062259492" lon="5.658329123162196"><ele>639.0</ele><time>2026-04-28T13:10:30.999Z</time></trkpt><trkpt lat="44.83043550927124" lon="5.658492105636885"><ele>638.5</ele><time>2026-04-28T13:10:31.999Z</time></trkpt><trkpt lat="44.83047897497742" lon="5.658675966537981"><ele>638.0</ele><time>2026-04-28T13:10:32.999Z</time></trkpt><trkpt lat="44.830505576704006" lon="5.658861954511523"><ele>637.5</ele><time>2026-04-28T13:10:33.999Z</time></trkpt><trkpt lat="44.83051147693879" lon="5.659052911904656"><ele>637.0</ele><time>2026-04-28T13:10:34.999Z</time></trkpt><trkpt lat="44.83050684114184" lon="5.659244826760541"><ele>637.0</ele><time>2026-04-28T13:10:35.999Z</time></trkpt><trkpt lat="44.830496970098054" lon="5.659431878213577"><ele>637.0</ele><time>2026-04-28T13:10:36.999Z</time></trkpt><trkpt lat="44.83046567141645" lon="5.6596078547106465"><ele>637.0</ele><time>2026-04-28T13:10:37.999Z</time></trkpt><trkpt lat="44.8304158245366" lon="5.6597845851198985"><ele>637.0</ele><time>2026-04-28T13:10:38.999Z</time></trkpt><trkpt lat="44.830350656604296" lon="5.65994161091235"><ele>636.75</ele><time>2026-04-28T13:10:39.999Z</time></trkpt><trkpt lat="44.83024311220085" lon="5.6600494426491625"><ele>636.5</ele><time>2026-04-28T13:10:40.999Z</time></trkpt><trkpt lat="44.830133638842405" lon="5.660154802790929"><ele>636.25</ele><time>2026-04-28T13:10:41.999Z</time></trkpt><trkpt lat="44.83002452856652" lon="5.660249054119247"><ele>636.0</ele><time>2026-04-28T13:10:42.999Z</time></trkpt><trkpt lat="44.82991494141972" lon="5.660340107927582"><ele>636.0</ele><time>2026-04-28T13:10:43.999Z</time></trkpt><trkpt lat="44.829824760228156" lon="5.660466418839059"><ele>636.0</ele><time>2026-04-28T13:10:44.999Z</time></trkpt><trkpt lat="44.829752370101545" lon="5.660624988968235"><ele>636.0</ele><time>2026-04-28T13:10:45.999Z</time></trkpt><trkpt lat="44.82970938890659" lon="5.660798970258858"><ele>636.0</ele><time>2026-04-28T13:10:46.999Z</time></trkpt><trkpt lat="44.82965933065309" lon="5.660963405144654"><ele>636.0</ele><time>2026-04-28T13:10:47.999Z</time></trkpt><trkpt lat="44.829592127518346" lon="5.661116029194145"><ele>636.0</ele><time>2026-04-28T13:10:48.999Z</time></trkpt><trkpt lat="44.82949505337056" lon="5.661234730950152"><ele>636.0</ele><time>2026-04-28T13:10:49.999Z</time></trkpt><trkpt lat="44.82938631496741" lon="5.661336405545273"><ele>636.0</ele><time>2026-04-28T13:10:50.999Z</time></trkpt><trkpt lat="44.82928194466632" lon="5.66144795052949"><ele>636.0</ele><time>2026-04-28T13:10:51.999Z</time></trkpt><trkpt lat="44.82917340887141" lon="5.661562325239584"><ele>636.0</ele><time>2026-04-28T13:10:52.999Z</time></trkpt><trkpt lat="44.829083145668655" lon="5.66169930756242"><ele>636.0</ele><time>2026-04-28T13:10:53.999Z</time></trkpt><trkpt lat="44.82901618744354" lon="5.66186006496632"><ele>636.0</ele><time>2026-04-28T13:10:54.999Z</time></trkpt><trkpt lat="44.82898001810387" lon="5.662042881773617"><ele>633.5</ele><time>2026-04-28T13:10:55.999Z</time></trkpt><trkpt lat="44.82897120390861" lon="5.6622253125781254"><ele>631.0</ele><time>2026-04-28T13:10:56.999Z</time></trkpt><trkpt lat="44.82898252268539" lon="5.662405598373265"><ele>628.5</ele><time>2026-04-28T13:10:57.999Z</time></trkpt><trkpt lat="44.82899904635758" lon="5.662582667487909"><ele>626.0</ele><time>2026-04-28T13:10:58.999Z</time></trkpt><trkpt lat="44.82899625599581" lon="5.66274998596031"><ele>624.25</ele><time>2026-04-28T13:10:59.999Z</time></trkpt><trkpt lat="44.828969176977886" lon="5.662922432910783"><ele>622.5</ele><time>2026-04-28T13:11:00.999Z</time></trkpt><trkpt lat="44.82889811548353" lon="5.66306861854542"><ele>620.75</ele><time>2026-04-28T13:11:01.999Z</time></trkpt><trkpt lat="44.82884382555987" lon="5.663227625874268"><ele>619.0</ele><time>2026-04-28T13:11:02.999Z</time></trkpt><trkpt lat="44.82877430782366" lon="5.66336901875685"><ele>619.0</ele><time>2026-04-28T13:11:03.999Z</time></trkpt><trkpt lat="44.82870247074905" lon="5.663508825226924"><ele>619.0</ele><time>2026-04-28T13:11:04.999Z</time></trkpt><trkpt lat="44.82862179615237" lon="5.66363865311567"><ele>619.0</ele><time>2026-04-28T13:11:05.999Z</time></trkpt><trkpt lat="44.82854015372159" lon="5.663761902357286"><ele>619.0</ele><time>2026-04-28T13:11:06.999Z</time></trkpt><trkpt lat="44.82842885657147" lon="5.663822903051349"><ele>618.5</ele><time>2026-04-28T13:11:07.999Z</time></trkpt><trkpt lat="44.82830653593447" lon="5.663859898342902"><ele>618.0</ele><time>2026-04-28T13:11:08.999Z</time></trkpt><trkpt lat="44.82818758229837" lon="5.6638974948876495"><ele>617.5</ele><time>2026-04-28T13:11:10Z</time></trkpt><trkpt lat="44.82807435012947" lon="5.663923265831332"><ele>617.0</ele><time>2026-04-28T13:11:11Z</time></trkpt><trkpt lat="44.82795702269586" lon="5.663951811286544"><ele>617.0</ele><time>2026-04-28T13:11:12Z</time></trkpt><trkpt lat="44.82784366371566" lon="5.663969471665983"><ele>617.0</ele><time>2026-04-28T13:11:13Z</time></trkpt><trkpt lat="44.82772276933006" lon="5.664002396393915"><ele>617.0</ele><time>2026-04-28T13:11:14Z</time></trkpt><trkpt lat="44.82760567705889" lon="5.664032083310665"><ele>617.0</ele><time>2026-04-28T13:11:15Z</time></trkpt><trkpt lat="44.82749545128834" lon="5.664086476684388"><ele>618.0</ele><time>2026-04-28T13:11:16Z</time></trkpt><trkpt lat="44.82739086475687" lon="5.664170461886289"><ele>619.0</ele><time>2026-04-28T13:11:17Z</time></trkpt><trkpt lat="44.82729584241678" lon="5.6642559736124"><ele>620.0</ele><time>2026-04-28T13:11:18Z</time></trkpt><trkpt lat="44.82720601047749" lon="5.6643658458153565"><ele>621.0</ele><time>2026-04-28T13:11:19Z</time></trkpt><trkpt lat="44.82711162532489" lon="5.664460314326696"><ele>620.75</ele><time>2026-04-28T13:11:20Z</time></trkpt><trkpt lat="44.82702130879941" lon="5.664554384180226"><ele>620.5</ele><time>2026-04-28T13:11:21Z</time></trkpt><trkpt lat="44.82694740367443" lon="5.664672173518394"><ele>620.25</ele><time>2026-04-28T13:11:22Z</time></trkpt><trkpt lat="44.826864076724235" lon="5.66479669989488"><ele>620.0</ele><time>2026-04-28T13:11:23Z</time></trkpt><trkpt lat="44.8267776149636" lon="5.664916701771466"><ele>620.0</ele><time>2026-04-28T13:11:24Z</time></trkpt><trkpt lat="44.826700294389475" lon="5.665032681793294"><ele>620.0</ele><time>2026-04-28T13:11:25Z</time></trkpt><trkpt lat="44.82662255436402" lon="5.66515888952823"><ele>620.0</ele><time>2026-04-28T13:11:26Z</time></trkpt><trkpt lat="44.82654210580338" lon="5.665270861254882"><ele>620.0</ele><time>2026-04-28T13:11:27Z</time></trkpt><trkpt lat="44.826457334547285" lon="5.665383456090816"><ele>616.5</ele><time>2026-04-28T13:11:28Z</time></trkpt><trkpt lat="44.826381877063255" lon="5.665507296798384"><ele>613.0</ele><time>2026-04-28T13:11:29Z</time></trkpt><trkpt lat="44.82629710154938" lon="5.665630431797721"><ele>609.5</ele><time>2026-04-28T13:11:30Z</time></trkpt><trkpt lat="44.82622868003504" lon="5.66574083496719"><ele>606.0</ele><time>2026-04-28T13:11:31Z</time></trkpt><trkpt lat="44.826197749112424" lon="5.665891760000503"><ele>606.0</ele><time>2026-04-28T13:11:32Z</time></trkpt><trkpt lat="44.826194748829444" lon="5.666058000187358"><ele>606.0</ele><time>2026-04-28T13:11:33Z</time></trkpt><trkpt lat="44.826241334331094" lon="5.666199612473665"><ele>606.0</ele><time>2026-04-28T13:11:34Z</time></trkpt><trkpt lat="44.82631700202114" lon="5.66632193593999"><ele>606.0</ele><time>2026-04-28T13:11:35Z</time></trkpt><trkpt lat="44.82639329876217" lon="5.666443635979431"><ele>604.25</ele><time>2026-04-28T13:11:36Z</time></trkpt><trkpt lat="44.82645367119966" lon="5.666571182481373"><ele>602.5</ele><time>2026-04-28T13:11:37Z</time></trkpt><trkpt lat="44.826496596357195" lon="5.6667173091975025"><ele>600.75</ele><time>2026-04-28T13:11:38Z</time></trkpt><trkpt lat="44.8264826503875" lon="5.666886364004102"><ele>599.0</ele><time>2026-04-28T13:11:39Z</time></trkpt><trkpt lat="44.82646310526335" lon="5.667053269962919"><ele>598.0</ele><time>2026-04-28T13:11:40Z</time></trkpt><trkpt lat="44.82644683631946" lon="5.667220021673783"><ele>597.0</ele><time>2026-04-28T13:11:41Z</time></trkpt><trkpt lat="44.826422706683" lon="5.667390301800096"><ele>596.0</ele><time>2026-04-28T13:11:42Z</time></trkpt><trkpt lat="44.82640095036279" lon="5.667567830092266"><ele>595.0</ele><time>2026-04-28T13:11:43Z</time></trkpt><trkpt lat="44.82638235994547" lon="5.6677454434242485"><ele>594.0</ele><time>2026-04-28T13:11:44Z</time></trkpt><trkpt lat="44.82635982185297" lon="5.667926518310172"><ele>593.0</ele><time>2026-04-28T13:11:45Z</time></trkpt><trkpt lat="44.82633745205312" lon="5.668107205039723"><ele>592.0</ele><time>2026-04-28T13:11:46Z</time></trkpt><trkpt lat="44.82632327366584" lon="5.668292338242001"><ele>591.0</ele><time>2026-04-28T13:11:47Z</time></trkpt><trkpt lat="44.82629835869402" lon="5.668474834709516"><ele>589.0</ele><time>2026-04-28T13:11:48Z</time></trkpt><trkpt lat="44.826258683082806" lon="5.668636879736527"><ele>587.0</ele><time>2026-04-28T13:11:49Z</time></trkpt><trkpt lat="44.82618697693459" lon="5.668778039020658"><ele>585.0</ele><time>2026-04-28T13:11:50Z</time></trkpt><trkpt lat="44.826087961488035" lon="5.668856374709806"><ele>583.0</ele><time>2026-04-28T13:11:51Z</time></trkpt><trkpt lat="44.8259914485639" lon="5.668943662746642"><ele>583.0</ele><time>2026-04-28T13:11:52Z</time></trkpt><trkpt lat="44.82590447083791" lon="5.66902816799398"><ele>583.0</ele><time>2026-04-28T13:11:53Z</time></trkpt><trkpt lat="44.82582284895112" lon="5.669102052578445"><ele>583.0</ele><time>2026-04-28T13:11:54Z</time></trkpt><trkpt lat="44.825739400236046" lon="5.669180307713269"><ele>583.0</ele><time>2026-04-28T13:11:55Z</time></trkpt><trkpt lat="44.82566077543102" lon="5.669256757896074"><ele>583.0</ele><time>2026-04-28T13:11:56Z</time></trkpt><trkpt lat="44.82557870090363" lon="5.669334048306764"><ele>583.0</ele><time>2026-04-28T13:11:57Z</time></trkpt><trkpt lat="44.82549878016688" lon="5.6694012822272315"><ele>583.0</ele><time>2026-04-28T13:11:58Z</time></trkpt><trkpt lat="44.82540606608278" lon="5.669431577835072"><ele>583.0</ele><time>2026-04-28T13:11:59Z</time></trkpt><trkpt lat="44.82531301501655" lon="5.669389837223744"><ele>583.0</ele><time>2026-04-28T13:12:00Z</time></trkpt><trkpt lat="44.82521382148601" lon="5.6693972446283105"><ele>583.0</ele><time>2026-04-28T13:12:01Z</time></trkpt><trkpt lat="44.825119462690246" lon="5.66937346610591"><ele>583.6</ele><time>2026-04-28T13:12:02Z</time></trkpt><trkpt lat="44.825026996112115" lon="5.669373811114396"><ele>584.1999999999999</ele><time>2026-04-28T13:12:03Z</time></trkpt><trkpt lat="44.824936888106784" lon="5.669387115792123"><ele>584.8</ele><time>2026-04-28T13:12:04Z</time></trkpt><trkpt lat="44.824843321991864" lon="5.669416747617263"><ele>585.4</ele><time>2026-04-28T13:12:05Z</time></trkpt><trkpt lat="44.824749016437885" lon="5.669458970603143"><ele>586.0</ele><time>2026-04-28T13:12:06Z</time></trkpt><trkpt lat="44.824662851414104" lon="5.669525289332033"><ele>587.6</ele><time>2026-04-28T13:12:07Z</time></trkpt><trkpt lat="44.824578928822014" lon="5.6695909316202835"><ele>589.2</ele><time>2026-04-28T13:12:08Z</time></trkpt><trkpt lat="44.824501967995246" lon="5.66966282851899"><ele>590.8</ele><time>2026-04-28T13:12:08.999Z</time></trkpt><trkpt lat="44.82441955120384" lon="5.66973829951179"><ele>592.4</ele><time>2026-04-28T13:12:09.999Z</time></trkpt><trkpt lat="44.824345525652085" lon="5.6698284088298445"><ele>594.0</ele><time>2026-04-28T13:12:10.999Z</time></trkpt><trkpt lat="44.82426684983708" lon="5.66991723701931"><ele>594.0</ele><time>2026-04-28T13:12:11.999Z</time></trkpt><trkpt lat="44.824196754924564" lon="5.6700164564770965"><ele>594.0</ele><time>2026-04-28T13:12:12.999Z</time></trkpt><trkpt lat="44.82413363803926" lon="5.670121126645035"><ele>594.0</ele><time>2026-04-28T13:12:13.999Z</time></trkpt><trkpt lat="44.824071934539816" lon="5.67022178702748"><ele>594.0</ele><time>2026-04-28T13:12:14.999Z</time></trkpt><trkpt lat="44.82400735474837" lon="5.670316848870584"><ele>594.0</ele><time>2026-04-28T13:12:15.999Z</time></trkpt><trkpt lat="44.82394168878037" lon="5.670415273363839"><ele>597.2</ele><time>2026-04-28T13:12:16.999Z</time></trkpt><trkpt lat="44.82387409323688" lon="5.6705091443433"><ele>600.4</ele><time>2026-04-28T13:12:17.999Z</time></trkpt><trkpt lat="44.82381076453081" lon="5.670607013218068"><ele>603.6</ele><time>2026-04-28T13:12:18.999Z</time></trkpt><trkpt lat="44.82373826359655" lon="5.670701898927405"><ele>606.8</ele><time>2026-04-28T13:12:19.999Z</time></trkpt><trkpt lat="44.82367369919226" lon="5.670795144964735"><ele>610.0</ele><time>2026-04-28T13:12:20.999Z</time></trkpt><trkpt lat="44.82360352623906" lon="5.670893111301106"><ele>610.0</ele><time>2026-04-28T13:12:21.999Z</time></trkpt><trkpt lat="44.82353821057228" lon="5.670988766198466"><ele>610.0</ele><time>2026-04-28T13:12:22.999Z</time></trkpt><trkpt lat="44.82346600170576" lon="5.671085274898271"><ele>610.0</ele><time>2026-04-28T13:12:23.999Z</time></trkpt><trkpt lat="44.82339517367136" lon="5.671177791035019"><ele>610.0</ele><time>2026-04-28T13:12:24.999Z</time></trkpt><trkpt lat="44.82332573168942" lon="5.671268826448714"><ele>610.0</ele><time>2026-04-28T13:12:25.999Z</time></trkpt><trkpt lat="44.82325517639881" lon="5.671357878585958"><ele>608.2</ele><time>2026-04-28T13:12:26.999Z</time></trkpt><trkpt lat="44.82318792651835" lon="5.671445723323122"><ele>606.4</ele><time>2026-04-28T13:12:27.999Z</time></trkpt><trkpt lat="44.82312587153895" lon="5.671532938885916"><ele>604.6</ele><time>2026-04-28T13:12:28.999Z</time></trkpt><trkpt lat="44.82305752505889" lon="5.671621501088654"><ele>602.8</ele><time>2026-04-28T13:12:29.999Z</time></trkpt><trkpt lat="44.82299196049828" lon="5.671712855082578"><ele>601.0</ele><time>2026-04-28T13:12:30.999Z</time></trkpt><trkpt lat="44.82292175810338" lon="5.671793695189278"><ele>601.0</ele><time>2026-04-28T13:12:31.999Z</time></trkpt><trkpt lat="44.82285035829581" lon="5.671885912913488"><ele>601.0</ele><time>2026-04-28T13:12:32.999Z</time></trkpt><trkpt lat="44.822780477239974" lon="5.671977062575795"><ele>601.0</ele><time>2026-04-28T13:12:33.999Z</time></trkpt><trkpt lat="44.822711014657855" lon="5.672068924317137"><ele>601.0</ele><time>2026-04-28T13:12:34.999Z</time></trkpt><trkpt lat="44.8226425215817" lon="5.672161111524233"><ele>601.0</ele><time>2026-04-28T13:12:35.999Z</time></trkpt><trkpt lat="44.8225757740295" lon="5.672257591775381"><ele>599.6</ele><time>2026-04-28T13:12:36.999Z</time></trkpt><trkpt lat="44.822514732790125" lon="5.672364469388771"><ele>598.2</ele><time>2026-04-28T13:12:37.999Z</time></trkpt><trkpt lat="44.82246987923283" lon="5.672486709892845"><ele>596.8</ele><time>2026-04-28T13:12:38.999Z</time></trkpt><trkpt lat="44.82245872555324" lon="5.672622981564028"><ele>595.4</ele><time>2026-04-28T13:12:39.999Z</time></trkpt><trkpt lat="44.82247427814996" lon="5.672762730189612"><ele>594.0</ele><time>2026-04-28T13:12:40.999Z</time></trkpt><trkpt lat="44.82249965159234" lon="5.672895471500936"><ele>594.0</ele><time>2026-04-28T13:12:41.999Z</time></trkpt><trkpt lat="44.822505715756286" lon="5.673027851224327"><ele>594.0</ele><time>2026-04-28T13:12:42.999Z</time></trkpt><trkpt lat="44.82249080260994" lon="5.673160490829488"><ele>594.0</ele><time>2026-04-28T13:12:43.999Z</time></trkpt><trkpt lat="44.822455600796374" lon="5.673291303210424"><ele>594.0</ele><time>2026-04-28T13:12:44.999Z</time></trkpt><trkpt lat="44.82238999066441" lon="5.673404378695015"><ele>594.0</ele><time>2026-04-28T13:12:45.999Z</time></trkpt><trkpt lat="44.822290855648475" lon="5.67345351993087"><ele>594.0</ele><time>2026-04-28T13:12:46.999Z</time></trkpt><trkpt lat="44.82220589984801" lon="5.673541863883534"><ele>594.0</ele><time>2026-04-28T13:12:47.999Z</time></trkpt><trkpt lat="44.822111626526116" lon="5.6735942872895215"><ele>594.0</ele><time>2026-04-28T13:12:48.999Z</time></trkpt><trkpt lat="44.82202251428747" lon="5.673656830940933"><ele>594.0</ele><time>2026-04-28T13:12:49.999Z</time></trkpt><trkpt lat="44.821934876666276" lon="5.673720173568699"><ele>594.0</ele><time>2026-04-28T13:12:50.999Z</time></trkpt><trkpt lat="44.821847233661686" lon="5.673775614483243"><ele>594.2</ele><time>2026-04-28T13:12:51.999Z</time></trkpt><trkpt lat="44.821761763917365" lon="5.673831921240764"><ele>594.4</ele><time>2026-04-28T13:12:52.999Z</time></trkpt><trkpt lat="44.82167794470476" lon="5.673894099824468"><ele>594.6</ele><time>2026-04-28T13:12:53.999Z</time></trkpt><trkpt lat="44.82159215596937" lon="5.6739462823949065"><ele>594.8</ele><time>2026-04-28T13:12:54.999Z</time></trkpt><trkpt lat="44.82150470418279" lon="5.673988548144579"><ele>595.0</ele><time>2026-04-28T13:12:55.999Z</time></trkpt><trkpt lat="44.82141880717361" lon="5.674025745191057"><ele>595.0</ele><time>2026-04-28T13:12:56.999Z</time></trkpt><trkpt lat="44.82133372552805" lon="5.674053887163166"><ele>595.0</ele><time>2026-04-28T13:12:57.999Z</time></trkpt><trkpt lat="44.82124866828862" lon="5.674062411314765"><ele>595.0</ele><time>2026-04-28T13:12:58.999Z</time></trkpt><trkpt lat="44.82116476113719" lon="5.674080170115217"><ele>595.0</ele><time>2026-04-28T13:12:59.999Z</time></trkpt><trkpt lat="44.82108111894567" lon="5.674102532235192"><ele>595.0</ele><time>2026-04-28T13:13:00.999Z</time></trkpt><trkpt lat="44.82099945213581" lon="5.674119843453851"><ele>595.0</ele><time>2026-04-28T13:13:01.999Z</time></trkpt><trkpt lat="44.82092303784477" lon="5.674150076034935"><ele>594.6666666666667</ele><time>2026-04-28T13:13:02.999Z</time></trkpt><trkpt lat="44.82084961585786" lon="5.674201316041254"><ele>594.3333333333334</ele><time>2026-04-28T13:13:03.999Z</time></trkpt><trkpt lat="44.820777204441484" lon="5.674246627036993"><ele>594.0</ele><time>2026-04-28T13:13:04.999Z</time></trkpt><trkpt lat="44.820713002088546" lon="5.674311662810313"><ele>593.6666666666666</ele><time>2026-04-28T13:13:05.999Z</time></trkpt><trkpt lat="44.82065267587742" lon="5.674377534387926"><ele>593.3333333333333</ele><time>2026-04-28T13:13:06.999Z</time></trkpt><trkpt lat="44.82059358425887" lon="5.674447375142984"><ele>593.0</ele><time>2026-04-28T13:13:07.999Z</time></trkpt><trkpt lat="44.820539615343165" lon="5.674527004598081"><ele>594.5</ele><time>2026-04-28T13:13:08.999Z</time></trkpt><trkpt lat="44.820487237670925" lon="5.6746069287383225"><ele>596.0</ele><time>2026-04-28T13:13:09.999Z</time></trkpt><trkpt lat="44.820432792178764" lon="5.67468283967438"><ele>597.5</ele><time>2026-04-28T13:13:10.999Z</time></trkpt><trkpt lat="44.82037976162895" lon="5.6747581583682845"><ele>599.0</ele><time>2026-04-28T13:13:11.999Z</time></trkpt><trkpt lat="44.820323172255115" lon="5.674831371320798"><ele>600.5</ele><time>2026-04-28T13:13:12.999Z</time></trkpt><trkpt lat="44.8202756007755" lon="5.674909883681575"><ele>602.0</ele><time>2026-04-28T13:13:13.999Z</time></trkpt><trkpt lat="44.82023029485613" lon="5.674988343353488"><ele>602.0</ele><time>2026-04-28T13:13:14.999Z</time></trkpt><trkpt lat="44.8201815160344" lon="5.675065679756728"><ele>602.0</ele><time>2026-04-28T13:13:16Z</time></trkpt><trkpt lat="44.82012483588868" lon="5.675130094250991"><ele>602.0</ele><time>2026-04-28T13:13:17Z</time></trkpt><trkpt lat="44.82007664622444" lon="5.675202502971805"><ele>602.0</ele><time>2026-04-28T13:13:18Z</time></trkpt><trkpt lat="44.82003023044836" lon="5.67527432673857"><ele>602.0</ele><time>2026-04-28T13:13:19Z</time></trkpt><trkpt lat="44.81998221313891" lon="5.675348368544735"><ele>602.0</ele><time>2026-04-28T13:13:20Z</time></trkpt><trkpt lat="44.81993337256813" lon="5.675415817590204"><ele>602.0</ele><time>2026-04-28T13:13:21Z</time></trkpt><trkpt lat="44.81988663263746" lon="5.675485882862892"><ele>601.8571428571429</ele><time>2026-04-28T13:13:22Z</time></trkpt><trkpt lat="44.81983909777902" lon="5.675555944866504"><ele>601.7142857142858</ele><time>2026-04-28T13:13:23Z</time></trkpt><trkpt lat="44.819792031202574" lon="5.675624577537351"><ele>601.5714285714286</ele><time>2026-04-28T13:13:24Z</time></trkpt><trkpt lat="44.81974302031955" lon="5.67569127532395"><ele>601.4285714285714</ele><time>2026-04-28T13:13:25Z</time></trkpt><trkpt lat="44.81970017044566" lon="5.675765226425171"><ele>601.2857142857143</ele><time>2026-04-28T13:13:26Z</time></trkpt><trkpt lat="44.819649559922766" lon="5.675834570967642"><ele>601.1428571428571</ele><time>2026-04-28T13:13:27Z</time></trkpt><trkpt lat="44.81959924164673" lon="5.675901489773758"><ele>601.0</ele><time>2026-04-28T13:13:28Z</time></trkpt><trkpt lat="44.819553476906414" lon="5.675971583639365"><ele>601.0</ele><time>2026-04-28T13:13:29Z</time></trkpt><trkpt lat="44.81950768260848" lon="5.676041655370498"><ele>601.0</ele><time>2026-04-28T13:13:30Z</time></trkpt><trkpt lat="44.8194599317111" lon="5.676107779083252"><ele>601.0</ele><time>2026-04-28T13:13:31Z</time></trkpt><trkpt lat="44.81941623329775" lon="5.676176355810388"><ele>601.0</ele><time>2026-04-28T13:13:32Z</time></trkpt><trkpt lat="44.819379697199246" lon="5.6762534677896195"><ele>601.0</ele><time>2026-04-28T13:13:33Z</time></trkpt><trkpt lat="44.81934718192006" lon="5.676335105580261"><ele>601.0</ele><time>2026-04-28T13:13:34Z</time></trkpt><trkpt lat="44.819315645279104" lon="5.6764184102546205"><ele>601.0</ele><time>2026-04-28T13:13:35Z</time></trkpt><trkpt lat="44.819285238289595" lon="5.676504702315108"><ele>600.4285714285714</ele><time>2026-04-28T13:13:36Z</time></trkpt><trkpt lat="44.81926500600621" lon="5.676597720582557"><ele>599.8571428571429</ele><time>2026-04-28T13:13:37Z</time></trkpt><trkpt lat="44.81924560644271" lon="5.676690745485211"><ele>599.2857142857143</ele><time>2026-04-28T13:13:38Z</time></trkpt><trkpt lat="44.81922845480858" lon="5.676786703089386"><ele>598.7142857142858</ele><time>2026-04-28T13:13:39Z</time></trkpt><trkpt lat="44.81921384672968" lon="5.676882037863628"><ele>598.1428571428571</ele><time>2026-04-28T13:13:40Z</time></trkpt><trkpt lat="44.81920357421141" lon="5.676982107980955"><ele>597.5714285714287</ele><time>2026-04-28T13:13:41Z</time></trkpt><trkpt lat="44.81919373238647" lon="5.677080430842861"><ele>597.0</ele><time>2026-04-28T13:13:42Z</time></trkpt><trkpt lat="44.81918979295322" lon="5.67718014277728"><ele>597.0000000000001</ele><time>2026-04-28T13:13:43Z</time></trkpt><trkpt lat="44.81918493430407" lon="5.6772823311459"><ele>597.0</ele><time>2026-04-28T13:13:44Z</time></trkpt><trkpt lat="44.81916881152021" lon="5.677379995798756"><ele>597.0</ele><time>2026-04-28T13:13:45Z</time></trkpt><trkpt lat="44.819150921428964" lon="5.677477679647573"><ele>597.0</ele><time>2026-04-28T13:13:46Z</time></trkpt><trkpt lat="44.81912600905114" lon="5.677575200758302"><ele>597.0</ele><time>2026-04-28T13:13:47Z</time></trkpt><trkpt lat="44.81909309743475" lon="5.677668878501954"><ele>597.0000000000001</ele><time>2026-04-28T13:13:48Z</time></trkpt><trkpt lat="44.819057077371845" lon="5.677756909627286"><ele>597.0</ele><time>2026-04-28T13:13:49Z</time></trkpt><trkpt lat="44.81902042619222" lon="5.6778429057956625"><ele>597.2857142857143</ele><time>2026-04-28T13:13:50Z</time></trkpt><trkpt lat="44.81898282190774" lon="5.677928374110259"><ele>597.5714285714286</ele><time>2026-04-28T13:13:51Z</time></trkpt><trkpt lat="44.81894623079564" lon="5.678013662494191"><ele>597.8571428571429</ele><time>2026-04-28T13:13:52Z</time></trkpt><trkpt lat="44.81890687632182" lon="5.678097362592314"><ele>598.1428571428571</ele><time>2026-04-28T13:13:53Z</time></trkpt><trkpt lat="44.818868706949935" lon="5.678183474231438"><ele>598.4285714285714</ele><time>2026-04-28T13:13:54Z</time></trkpt><trkpt lat="44.81882525478068" lon="5.678271207266911"><ele>598.7142857142858</ele><time>2026-04-28T13:13:55Z</time></trkpt><trkpt lat="44.81878717870209" lon="5.678368815178035"><ele>599.0</ele><time>2026-04-28T13:13:56Z</time></trkpt><trkpt lat="44.8187533079207" lon="5.6784580944148"><ele>599.0</ele><time>2026-04-28T13:13:57Z</time></trkpt><trkpt lat="44.81871586597818" lon="5.678550134197008"><ele>599.0</ele><time>2026-04-28T13:13:58Z</time></trkpt><trkpt lat="44.81868021597695" lon="5.678641583904079"><ele>599.0</ele><time>2026-04-28T13:13:59Z</time></trkpt><trkpt lat="44.818641528358654" lon="5.678730167654415"><ele>599.0</ele><time>2026-04-28T13:14:00Z</time></trkpt><trkpt lat="44.81860308034952" lon="5.67881795054673"><ele>599.0</ele><time>2026-04-28T13:14:01Z</time></trkpt><trkpt lat="44.81856698254554" lon="5.6789092018478415"><ele>599.0</ele><time>2026-04-28T13:14:02Z</time></trkpt><trkpt lat="44.818527950798604" lon="5.678996964107318"><ele>599.0</ele><time>2026-04-28T13:14:03Z</time></trkpt><trkpt lat="44.8184911470096" lon="5.679088755695391"><ele>598.7142857142858</ele><time>2026-04-28T13:14:04Z</time></trkpt><trkpt lat="44.818456871829014" lon="5.679180194632295"><ele>598.4285714285714</ele><time>2026-04-28T13:14:05Z</time></trkpt><trkpt lat="44.81841544834082" lon="5.6792650863909655"><ele>598.1428571428571</ele><time>2026-04-28T13:14:06Z</time></trkpt><trkpt lat="44.81837752501497" lon="5.67934887515051"><ele>597.8571428571429</ele><time>2026-04-28T13:14:07Z</time></trkpt><trkpt lat="44.81834331980458" lon="5.6794375541934965"><ele>597.5714285714286</ele><time>2026-04-28T13:14:08Z</time></trkpt><trkpt lat="44.8183072515913" lon="5.679524953264744"><ele>597.2857142857143</ele><time>2026-04-28T13:14:09Z</time></trkpt><trkpt lat="44.818268351199144" lon="5.679610980700163"><ele>597.0</ele><time>2026-04-28T13:14:10Z</time></trkpt><trkpt lat="44.81823175544763" lon="5.679695962458837"><ele>598.4285714285714</ele><time>2026-04-28T13:14:11Z</time></trkpt><trkpt lat="44.818187586588635" lon="5.679776582594591"><ele>599.8571428571429</ele><time>2026-04-28T13:14:12Z</time></trkpt><trkpt lat="44.818144728076426" lon="5.6798546775756735"><ele>601.2857142857142</ele><time>2026-04-28T13:14:13Z</time></trkpt><trkpt lat="44.818094108549175" lon="5.679923811560674"><ele>602.7142857142858</ele><time>2026-04-28T13:14:14Z</time></trkpt><trkpt lat="44.81803828524599" lon="5.679990592855763"><ele>604.1428571428571</ele><time>2026-04-28T13:14:15Z</time></trkpt><trkpt lat="44.817980478124475" lon="5.680050497283191"><ele>605.5714285714286</ele><time>2026-04-28T13:14:16Z</time></trkpt><trkpt lat="44.817923354258916" lon="5.680107082246539"><ele>607.0</ele><time>2026-04-28T13:14:17Z</time></trkpt><trkpt lat="44.817867895629135" lon="5.680166196014566"><ele>606.9999999999999</ele><time>2026-04-28T13:14:18Z</time></trkpt><trkpt lat="44.817812226600246" lon="5.6802235773826135"><ele>607.0</ele><time>2026-04-28T13:14:19Z</time></trkpt><trkpt lat="44.817755657093194" lon="5.680277410882673"><ele>607.0</ele><time>2026-04-28T13:14:20Z</time></trkpt><trkpt lat="44.817700586761205" lon="5.680330438473374"><ele>607.0</ele><time>2026-04-28T13:14:20.999Z</time></trkpt><trkpt lat="44.81764580319495" lon="5.6803824976914"><ele>607.0</ele><time>2026-04-28T13:14:21.999Z</time></trkpt><trkpt lat="44.81758893146784" lon="5.68043130474495"><ele>606.9999999999999</ele><time>2026-04-28T13:14:22.999Z</time></trkpt><trkpt lat="44.817531575141615" lon="5.6804821786143025"><ele>607.0</ele><time>2026-04-28T13:14:23.999Z</time></trkpt><trkpt lat="44.81747584635183" lon="5.680534879816865"><ele>606.4285714285713</ele><time>2026-04-28T13:14:24.999Z</time></trkpt><trkpt lat="44.817421592981816" lon="5.680589771074902"><ele>605.8571428571429</ele><time>2026-04-28T13:14:25.999Z</time></trkpt><trkpt lat="44.81736616078445" lon="5.680638952004955"><ele>605.2857142857142</ele><time>2026-04-28T13:14:26.999Z</time></trkpt><trkpt lat="44.81730953708399" lon="5.680688266721891"><ele>604.7142857142857</ele><time>2026-04-28T13:14:27.999Z</time></trkpt><trkpt lat="44.81725673966311" lon="5.680740001495589"><ele>604.1428571428571</ele><time>2026-04-28T13:14:28.999Z</time></trkpt><trkpt lat="44.817202642685416" lon="5.680789930502877"><ele>603.5714285714286</ele><time>2026-04-28T13:14:29.999Z</time></trkpt><trkpt lat="44.81714801185764" lon="5.680840747037682"><ele>603.0</ele><time>2026-04-28T13:14:30.999Z</time></trkpt><trkpt lat="44.81708922169223" lon="5.68088689404505"><ele>603.0</ele><time>2026-04-28T13:14:31.999Z</time></trkpt><trkpt lat="44.81703088566538" lon="5.680935146181457"><ele>603.0</ele><time>2026-04-28T13:14:32.999Z</time></trkpt><trkpt lat="44.81697431308508" lon="5.680984957640635"><ele>603.0</ele><time>2026-04-28T13:14:33.999Z</time></trkpt><trkpt lat="44.81692028016972" lon="5.681038901767811"><ele>603.0</ele><time>2026-04-28T13:14:34.999Z</time></trkpt><trkpt lat="44.81686529492765" lon="5.681093621994506"><ele>603.0</ele><time>2026-04-28T13:14:35.999Z</time></trkpt><trkpt lat="44.81680875695873" lon="5.681148085299462"><ele>603.0</ele><time>2026-04-28T13:14:36.999Z</time></trkpt><trkpt lat="44.816751661463044" lon="5.681199928779128"><ele>603.0</ele><time>2026-04-28T13:14:37.999Z</time></trkpt><trkpt lat="44.81669554168448" lon="5.681251996592253"><ele>602.0</ele><time>2026-04-28T13:14:38.999Z</time></trkpt><trkpt lat="44.81663763834072" lon="5.681303413116157"><ele>601.0</ele><time>2026-04-28T13:14:39.999Z</time></trkpt><trkpt lat="44.8165787907659" lon="5.681350184443072"><ele>600.0</ele><time>2026-04-28T13:14:40.999Z</time></trkpt><trkpt lat="44.81652172099919" lon="5.681398046564438"><ele>599.0</ele><time>2026-04-28T13:14:41.999Z</time></trkpt><trkpt lat="44.81646636247869" lon="5.681450127318946"><ele>598.0</ele><time>2026-04-28T13:14:42.999Z</time></trkpt><trkpt lat="44.816410783187116" lon="5.681506654604042"><ele>597.0</ele><time>2026-04-28T13:14:43.999Z</time></trkpt><trkpt lat="44.81635598922655" lon="5.68156478270781"><ele>596.0</ele><time>2026-04-28T13:14:44.999Z</time></trkpt><trkpt lat="44.81630534194493" lon="5.681626768894677"><ele>596.0</ele><time>2026-04-28T13:14:45.999Z</time></trkpt><trkpt lat="44.81625515473951" lon="5.6816885155593555"><ele>596.0</ele><time>2026-04-28T13:14:46.999Z</time></trkpt><trkpt lat="44.816209183667056" lon="5.681754688714777"><ele>596.0</ele><time>2026-04-28T13:14:47.999Z</time></trkpt><trkpt lat="44.81616725683056" lon="5.681822434981363"><ele>596.0</ele><time>2026-04-28T13:14:48.999Z</time></trkpt><trkpt lat="44.81612611987133" lon="5.681890883656084"><ele>596.0</ele><time>2026-04-28T13:14:49.999Z</time></trkpt><trkpt lat="44.816087481195794" lon="5.6819640617327005"><ele>596.0</ele><time>2026-04-28T13:14:50.999Z</time></trkpt><trkpt lat="44.81605512603523" lon="5.682040472061559"><ele>596.0</ele><time>2026-04-28T13:14:51.999Z</time></trkpt><trkpt lat="44.81600004143442" lon="5.682196061791661"><ele>596.5</ele><time>2026-04-28T13:14:53.999Z</time></trkpt><trkpt lat="44.81594053916568" lon="5.6823374466539915"><ele>597.0</ele><time>2026-04-28T13:14:55.999Z</time></trkpt><trkpt lat="44.81589055118895" lon="5.682483886595912"><ele>597.5</ele><time>2026-04-28T13:14:57.999Z</time></trkpt><trkpt lat="44.815855743594305" lon="5.6826389036778995"><ele>598.0</ele><time>2026-04-28T13:14:59.999Z</time></trkpt><trkpt lat="44.81583393212997" lon="5.682794667784774"><ele>598.5</ele><time>2026-04-28T13:15:01.999Z</time></trkpt><trkpt lat="44.8158062031607" lon="5.6829476758769255"><ele>599.0</ele><time>2026-04-28T13:15:03.999Z</time></trkpt><trkpt lat="44.81578479709157" lon="5.683095562793543"><ele>599.5</ele><time>2026-04-28T13:15:05.999Z</time></trkpt><trkpt lat="44.81575582598292" lon="5.683255953068665"><ele>600.0</ele><time>2026-04-28T13:15:07.999Z</time></trkpt><trkpt lat="44.81573990577944" lon="5.683417814032539"><ele>600.0</ele><time>2026-04-28T13:15:09.999Z</time></trkpt><trkpt lat="44.815715649429286" lon="5.68357245563261"><ele>600.0</ele><time>2026-04-28T13:15:11.999Z</time></trkpt><trkpt lat="44.81570088482726" lon="5.683725358254389"><ele>600.0</ele><time>2026-04-28T13:15:13.999Z</time></trkpt><trkpt lat="44.81567699529738" lon="5.683879649236193"><ele>600.0</ele><time>2026-04-28T13:15:15.999Z</time></trkpt><trkpt lat="44.81565740067893" lon="5.68403354221898"><ele>600.0</ele><time>2026-04-28T13:15:17.999Z</time></trkpt><trkpt lat="44.815632335373685" lon="5.684191798297904"><ele>600.75</ele><time>2026-04-28T13:15:19.999Z</time></trkpt><trkpt lat="44.81561247133288" lon="5.684354189005171"><ele>601.5</ele><time>2026-04-28T13:15:22Z</time></trkpt><trkpt lat="44.815589222629235" lon="5.684514482536755"><ele>602.25</ele><time>2026-04-28T13:15:24Z</time></trkpt><trkpt lat="44.81556788991776" lon="5.6846759667917315"><ele>603.0</ele><time>2026-04-28T13:15:26Z</time></trkpt><trkpt lat="44.81554860220334" lon="5.684833480994077"><ele>603.0</ele><time>2026-04-28T13:15:28Z</time></trkpt><trkpt lat="44.815529932026074" lon="5.68498839625955"><ele>603.0</ele><time>2026-04-28T13:15:30Z</time></trkpt><trkpt lat="44.81550252873892" lon="5.6851403379769385"><ele>603.0</ele><time>2026-04-28T13:15:32Z</time></trkpt><trkpt lat="44.815485706104994" lon="5.685295780399878"><ele>603.0</ele><time>2026-04-28T13:15:34Z</time></trkpt><trkpt lat="44.815468012668596" lon="5.685445620526288"><ele>603.0</ele><time>2026-04-28T13:15:36Z</time></trkpt><trkpt lat="44.81545587234547" lon="5.685592438880927"><ele>603.4</ele><time>2026-04-28T13:15:38Z</time></trkpt><trkpt lat="44.815437527785285" lon="5.6857394987566705"><ele>603.8</ele><time>2026-04-28T13:15:40Z</time></trkpt><trkpt lat="44.81541317929478" lon="5.685888331503136"><ele>604.2</ele><time>2026-04-28T13:15:42Z</time></trkpt><trkpt lat="44.81539483721159" lon="5.686038577520378"><ele>604.6</ele><time>2026-04-28T13:15:44Z</time></trkpt><trkpt lat="44.81537045349414" lon="5.686188985122197"><ele>605.0</ele><time>2026-04-28T13:15:46Z</time></trkpt><trkpt lat="44.8153423972806" lon="5.686339594287726"><ele>606.25</ele><time>2026-04-28T13:15:48Z</time></trkpt><trkpt lat="44.81529810382578" lon="5.6864924762916065"><ele>607.5</ele><time>2026-04-28T13:15:50Z</time></trkpt><trkpt lat="44.81523957846834" lon="5.686636687093499"><ele>608.75</ele><time>2026-04-28T13:15:52Z</time></trkpt><trkpt lat="44.81517431953211" lon="5.686774959331536"><ele>610.0</ele><time>2026-04-28T13:15:54Z</time></trkpt><trkpt lat="44.81510301209383" lon="5.6869172604359655"><ele>609.7142857142858</ele><time>2026-04-28T13:15:56Z</time></trkpt><trkpt lat="44.8150617691716" lon="5.686992151738441"><ele>609.4285714285713</ele><time>2026-04-28T13:15:57Z</time></trkpt><trkpt lat="44.81502355196991" lon="5.687065549970162"><ele>609.1428571428571</ele><time>2026-04-28T13:15:58Z</time></trkpt><trkpt lat="44.81497637827538" lon="5.6871414453590985"><ele>608.8571428571429</ele><time>2026-04-28T13:15:59Z</time></trkpt><trkpt lat="44.81492952708717" lon="5.687215778234753"><ele>608.5714285714287</ele><time>2026-04-28T13:16:00Z</time></trkpt><trkpt lat="44.81488595781331" lon="5.687288122722511"><ele>608.2857142857142</ele><time>2026-04-28T13:16:01Z</time></trkpt><trkpt lat="44.81484426555077" lon="5.687368559996225"><ele>608.0</ele><time>2026-04-28T13:16:02Z</time></trkpt><trkpt lat="44.81479388288907" lon="5.687443440215354"><ele>608.0</ele><time>2026-04-28T13:16:03Z</time></trkpt><trkpt lat="44.81474110447424" lon="5.6875366006099135"><ele>608.0</ele><time>2026-04-28T13:16:04Z</time></trkpt><trkpt lat="44.814698431103224" lon="5.687618417960389"><ele>608.0</ele><time>2026-04-28T13:16:05Z</time></trkpt><trkpt lat="44.81465197463933" lon="5.687702904502094"><ele>608.0</ele><time>2026-04-28T13:16:06Z</time></trkpt><trkpt lat="44.81461275795623" lon="5.687775816972947"><ele>608.0</ele><time>2026-04-28T13:16:07Z</time></trkpt><trkpt lat="44.81457226873331" lon="5.687859334301622"><ele>608.0</ele><time>2026-04-28T13:16:08Z</time></trkpt><trkpt lat="44.81452579705101" lon="5.687941017285156"><ele>608.0</ele><time>2026-04-28T13:16:09Z</time></trkpt><trkpt lat="44.8144806103214" lon="5.688020377247207"><ele>608.1428571428571</ele><time>2026-04-28T13:16:10Z</time></trkpt><trkpt lat="44.81443733434308" lon="5.688100347571455"><ele>608.2857142857143</ele><time>2026-04-28T13:16:11Z</time></trkpt><trkpt lat="44.81439166030398" lon="5.6881839185995045"><ele>608.4285714285714</ele><time>2026-04-28T13:16:12Z</time></trkpt><trkpt lat="44.814345824810026" lon="5.688267087467534"><ele>608.5714285714286</ele><time>2026-04-28T13:16:13Z</time></trkpt><trkpt lat="44.81429712304809" lon="5.688346238345513"><ele>608.7142857142858</ele><time>2026-04-28T13:16:14Z</time></trkpt><trkpt lat="44.81424147884026" lon="5.688418749503757"><ele>608.8571428571429</ele><time>2026-04-28T13:16:15Z</time></trkpt><trkpt lat="44.81418701708691" lon="5.688489277363834"><ele>609.0</ele><time>2026-04-28T13:16:16Z</time></trkpt><trkpt lat="44.81412662473528" lon="5.6885486330221475"><ele>609.0</ele><time>2026-04-28T13:16:17Z</time></trkpt><trkpt lat="44.814064461352906" lon="5.6886050762061915"><ele>609.0</ele><time>2026-04-28T13:16:18Z</time></trkpt><trkpt lat="44.813997418664535" lon="5.688655311980277"><ele>609.0</ele><time>2026-04-28T13:16:19Z</time></trkpt><trkpt lat="44.81393222534994" lon="5.688703013807966"><ele>609.0</ele><time>2026-04-28T13:16:20Z</time></trkpt><trkpt lat="44.81387345454129" lon="5.688760559474033"><ele>609.0</ele><time>2026-04-28T13:16:20.999Z</time></trkpt><trkpt lat="44.81381081398413" lon="5.688817685811759"><ele>609.0</ele><time>2026-04-28T13:16:21.999Z</time></trkpt><trkpt lat="44.81375260702501" lon="5.688867600278509"><ele>609.0</ele><time>2026-04-28T13:16:22.999Z</time></trkpt><trkpt lat="44.81369246473139" lon="5.688921541259058"><ele>609.0</ele><time>2026-04-28T13:16:23.999Z</time></trkpt><trkpt lat="44.81363632280211" lon="5.688985324569889"><ele>609.0</ele><time>2026-04-28T13:16:24.999Z</time></trkpt><trkpt lat="44.81358791719229" lon="5.689060235254814"><ele>609.0</ele><time>2026-04-28T13:16:25.999Z</time></trkpt><trkpt lat="44.81354483740084" lon="5.689144806271039"><ele>609.0</ele><time>2026-04-28T13:16:26.999Z</time></trkpt><trkpt lat="44.8135072830236" lon="5.689236613596717"><ele>609.0</ele><time>2026-04-28T13:16:27.999Z</time></trkpt><trkpt lat="44.813480914862765" lon="5.6893301204901645"><ele>609.0</ele><time>2026-04-28T13:16:28.999Z</time></trkpt><trkpt lat="44.81345364617356" lon="5.689438113536159"><ele>609.0</ele><time>2026-04-28T13:16:29.999Z</time></trkpt><trkpt lat="44.813432513402255" lon="5.689543857910816"><ele>610.4285714285714</ele><time>2026-04-28T13:16:30.999Z</time></trkpt><trkpt lat="44.81341308231009" lon="5.689644824423999"><ele>611.8571428571429</ele><time>2026-04-28T13:16:31.999Z</time></trkpt><trkpt lat="44.81339374826414" lon="5.689746285016038"><ele>613.2857142857142</ele><time>2026-04-28T13:16:32.999Z</time></trkpt><trkpt lat="44.813376627421036" lon="5.68984473394907"><ele>614.7142857142858</ele><time>2026-04-28T13:16:33.999Z</time></trkpt><trkpt lat="44.81335643209666" lon="5.68994509342634"><ele>616.1428571428571</ele><time>2026-04-28T13:16:34.999Z</time></trkpt><trkpt lat="44.81333462981527" lon="5.690042095738581"><ele>617.5714285714286</ele><time>2026-04-28T13:16:35.999Z</time></trkpt><trkpt lat="44.81330530584085" lon="5.690132967655963"><ele>619.0</ele><time>2026-04-28T13:16:36.999Z</time></trkpt><trkpt lat="44.81327136345856" lon="5.690221532198391"><ele>618.2857142857142</ele><time>2026-04-28T13:16:37.999Z</time></trkpt><trkpt lat="44.81322961468896" lon="5.690301746724589"><ele>617.5714285714286</ele><time>2026-04-28T13:16:38.999Z</time></trkpt><trkpt lat="44.813182890320384" lon="5.690374513292466"><ele>616.8571428571429</ele><time>2026-04-28T13:16:39.999Z</time></trkpt><trkpt lat="44.81313143120634" lon="5.690445201891615"><ele>616.1428571428571</ele><time>2026-04-28T13:16:40.999Z</time></trkpt><trkpt lat="44.8130818502344" lon="5.69051583323354"><ele>615.4285714285714</ele><time>2026-04-28T13:16:41.999Z</time></trkpt><trkpt lat="44.813035598957214" lon="5.6905899390675305"><ele>614.7142857142857</ele><time>2026-04-28T13:16:42.999Z</time></trkpt><trkpt lat="44.812988914846414" lon="5.690667462617292"><ele>614.0</ele><time>2026-04-28T13:16:43.999Z</time></trkpt><trkpt lat="44.81294391310091" lon="5.690742764270374"><ele>613.9999999999999</ele><time>2026-04-28T13:16:44.999Z</time></trkpt><trkpt lat="44.81290418303319" lon="5.690824667434615"><ele>614.0</ele><time>2026-04-28T13:16:45.999Z</time></trkpt><trkpt lat="44.812865214807694" lon="5.690906221083639"><ele>614.0</ele><time>2026-04-28T13:16:46.999Z</time></trkpt><trkpt lat="44.812830314836354" lon="5.6909915052456945"><ele>614.0</ele><time>2026-04-28T13:16:47.999Z</time></trkpt><trkpt lat="44.81279886375674" lon="5.691081034469505"><ele>614.0</ele><time>2026-04-28T13:16:48.999Z</time></trkpt><trkpt lat="44.81276798715559" lon="5.691173423395438"><ele>613.9999999999999</ele><time>2026-04-28T13:16:49.999Z</time></trkpt><trkpt lat="44.81274433481336" lon="5.691265798802327"><ele>614.0</ele><time>2026-04-28T13:16:50.999Z</time></trkpt><trkpt lat="44.81271311672701" lon="5.691360730020194"><ele>614.4285714285713</ele><time>2026-04-28T13:16:51.999Z</time></trkpt><trkpt lat="44.81267914981867" lon="5.691448284900114"><ele>614.8571428571429</ele><time>2026-04-28T13:16:52.999Z</time></trkpt><trkpt lat="44.81264218875781" lon="5.6915312518357135"><ele>615.2857142857142</ele><time>2026-04-28T13:16:53.999Z</time></trkpt><trkpt lat="44.81260641281009" lon="5.691610660145629"><ele>615.7142857142857</ele><time>2026-04-28T13:16:54.999Z</time></trkpt><trkpt lat="44.812562560672866" lon="5.691688165157089"><ele>616.1428571428571</ele><time>2026-04-28T13:16:55.999Z</time></trkpt><trkpt lat="44.81251610683005" lon="5.691758862103835"><ele>616.5714285714286</ele><time>2026-04-28T13:16:56.999Z</time></trkpt><trkpt lat="44.81246269409441" lon="5.691827471301047"><ele>617.0</ele><time>2026-04-28T13:16:57.999Z</time></trkpt><trkpt lat="44.81241871596033" lon="5.691908362718555"><ele>618.1666666666666</ele><time>2026-04-28T13:16:58.999Z</time></trkpt><trkpt lat="44.812370497201385" lon="5.691991705700728"><ele>619.3333333333333</ele><time>2026-04-28T13:16:59.999Z</time></trkpt><trkpt lat="44.812319402802416" lon="5.692078280879315"><ele>620.5</ele><time>2026-04-28T13:17:00.999Z</time></trkpt><trkpt lat="44.81227053244875" lon="5.692154447175099"><ele>621.6666666666666</ele><time>2026-04-28T13:17:01.999Z</time></trkpt><trkpt lat="44.812214674045094" lon="5.692231202949821"><ele>622.8333333333334</ele><time>2026-04-28T13:17:02.999Z</time></trkpt><trkpt lat="44.81215425637042" lon="5.692289149178522"><ele>624.0</ele><time>2026-04-28T13:17:03.999Z</time></trkpt><trkpt lat="44.81208969287372" lon="5.6923273268299965"><ele>624.0</ele><time>2026-04-28T13:17:04.999Z</time></trkpt><trkpt lat="44.81202419386854" lon="5.692355982949519"><ele>624.0</ele><time>2026-04-28T13:17:05.999Z</time></trkpt><trkpt lat="44.811953779496086" lon="5.692367275068612"><ele>624.0</ele><time>2026-04-28T13:17:06.999Z</time></trkpt><trkpt lat="44.81188776707669" lon="5.692382802177352"><ele>624.0</ele><time>2026-04-28T13:17:07.999Z</time></trkpt><trkpt lat="44.8118191328018" lon="5.692395634892668"><ele>624.0</ele><time>2026-04-28T13:17:08.999Z</time></trkpt><trkpt lat="44.81175480701848" lon="5.6924117854361045"><ele>624.0</ele><time>2026-04-28T13:17:09.999Z</time></trkpt><trkpt lat="44.811643847219145" lon="5.692486147817214"><ele>623.5714285714286</ele><time>2026-04-28T13:17:11.999Z</time></trkpt><trkpt lat="44.811594967762375" lon="5.692543063011907"><ele>623.1428571428571</ele><time>2026-04-28T13:17:12.999Z</time></trkpt><trkpt lat="44.811555903040606" lon="5.6926136652297545"><ele>622.7142857142857</ele><time>2026-04-28T13:17:13.999Z</time></trkpt><trkpt lat="44.81152810305255" lon="5.692699069072077"><ele>622.2857142857142</ele><time>2026-04-28T13:17:14.999Z</time></trkpt><trkpt lat="44.81150411903111" lon="5.692787461664779"><ele>621.8571428571429</ele><time>2026-04-28T13:17:15.999Z</time></trkpt><trkpt lat="44.81148118593732" lon="5.692873719233111"><ele>621.4285714285713</ele><time>2026-04-28T13:17:16.999Z</time></trkpt><trkpt lat="44.811455065469126" lon="5.692963219647784"><ele>621.0</ele><time>2026-04-28T13:17:17.999Z</time></trkpt><trkpt lat="44.811425546026015" lon="5.69305053189831"><ele>621.9999999999999</ele><time>2026-04-28T13:17:18.999Z</time></trkpt><trkpt lat="44.81139152086" lon="5.693137051816276"><ele>623.0</ele><time>2026-04-28T13:17:19.999Z</time></trkpt><trkpt lat="44.81135551208038" lon="5.693221105838824"><ele>624.0</ele><time>2026-04-28T13:17:20.999Z</time></trkpt><trkpt lat="44.81131861045481" lon="5.693303696887966"><ele>625.0</ele><time>2026-04-28T13:17:21.999Z</time></trkpt><trkpt lat="44.81127799711746" lon="5.693382583465594"><ele>626.0</ele><time>2026-04-28T13:17:22.999Z</time></trkpt><trkpt lat="44.811234031104824" lon="5.693455566491289"><ele>626.9999999999999</ele><time>2026-04-28T13:17:23.999Z</time></trkpt><trkpt lat="44.811187404729175" lon="5.693525915520664"><ele>628.0</ele><time>2026-04-28T13:17:24.999Z</time></trkpt><trkpt lat="44.811140429188576" lon="5.693594820788874"><ele>627.7142857142857</ele><time>2026-04-28T13:17:25.999Z</time></trkpt><trkpt lat="44.81108866661865" lon="5.693662925838563"><ele>627.4285714285714</ele><time>2026-04-28T13:17:26.999Z</time></trkpt><trkpt lat="44.81103625643591" lon="5.693727715619476"><ele>627.1428571428571</ele><time>2026-04-28T13:17:28Z</time></trkpt><trkpt lat="44.8109868903325" lon="5.693794303401857"><ele>626.8571428571429</ele><time>2026-04-28T13:17:29Z</time></trkpt><trkpt lat="44.81094092029838" lon="5.693863988433372"><ele>626.5714285714286</ele><time>2026-04-28T13:17:30Z</time></trkpt><trkpt lat="44.810892627735036" lon="5.693932452567424"><ele>626.2857142857142</ele><time>2026-04-28T13:17:31Z</time></trkpt><trkpt lat="44.81084509948052" lon="5.694001582604423"><ele>626.0</ele><time>2026-04-28T13:17:32Z</time></trkpt><trkpt lat="44.81080033131135" lon="5.694072642450157"><ele>626.0</ele><time>2026-04-28T13:17:33Z</time></trkpt><trkpt lat="44.810756555454496" lon="5.694143854017657"><ele>626.0</ele><time>2026-04-28T13:17:34Z</time></trkpt><trkpt lat="44.81071246517811" lon="5.6942154206548405"><ele>626.0</ele><time>2026-04-28T13:17:35Z</time></trkpt><trkpt lat="44.81066764144072" lon="5.694284887554875"><ele>626.0</ele><time>2026-04-28T13:17:36Z</time></trkpt><trkpt lat="44.81061481810193" lon="5.694349682671118"><ele>626.0</ele><time>2026-04-28T13:17:37Z</time></trkpt><trkpt lat="44.81056471483652" lon="5.694414260045954"><ele>626.0</ele><time>2026-04-28T13:17:38Z</time></trkpt><trkpt lat="44.810520172167855" lon="5.694484582801449"><ele>626.0</ele><time>2026-04-28T13:17:39Z</time></trkpt><trkpt lat="44.8104687976992" lon="5.694549683018289"><ele>625.7142857142857</ele><time>2026-04-28T13:17:40Z</time></trkpt><trkpt lat="44.810423185787485" lon="5.694619568067225"><ele>625.4285714285714</ele><time>2026-04-28T13:17:41Z</time></trkpt><trkpt lat="44.81037657128278" lon="5.694687759260943"><ele>625.1428571428571</ele><time>2026-04-28T13:17:42Z</time></trkpt><trkpt lat="44.810331315763996" lon="5.694755697953027"><ele>624.8571428571429</ele><time>2026-04-28T13:17:43Z</time></trkpt><trkpt lat="44.81028812888715" lon="5.694826524933372"><ele>624.5714285714286</ele><time>2026-04-28T13:17:44Z</time></trkpt><trkpt lat="44.81024672387451" lon="5.694894852814831"><ele>624.2857142857143</ele><time>2026-04-28T13:17:45Z</time></trkpt><trkpt lat="44.81020288395866" lon="5.694960891684502"><ele>624.0</ele><time>2026-04-28T13:17:46Z</time></trkpt><trkpt lat="44.81015777998429" lon="5.695026758858161"><ele>624.0</ele><time>2026-04-28T13:17:47Z</time></trkpt><trkpt lat="44.810115301855966" lon="5.69509365998091"><ele>624.0</ele><time>2026-04-28T13:17:48Z</time></trkpt><trkpt lat="44.810070857863444" lon="5.695160810366254"><ele>624.0</ele><time>2026-04-28T13:17:49Z</time></trkpt><trkpt lat="44.809982461073936" lon="5.695290236393293"><ele>624.0</ele><time>2026-04-28T13:17:51Z</time></trkpt><trkpt lat="44.809938508647804" lon="5.695356454956519"><ele>624.0</ele><time>2026-04-28T13:17:52Z</time></trkpt><trkpt lat="44.80989404571448" lon="5.695427128488798"><ele>624.0</ele><time>2026-04-28T13:17:53Z</time></trkpt><trkpt lat="44.80985114669532" lon="5.695504927194402"><ele>625.4285714285714</ele><time>2026-04-28T13:17:54Z</time></trkpt><trkpt lat="44.809811973229934" lon="5.695582957510366"><ele>626.8571428571428</ele><time>2026-04-28T13:17:55Z</time></trkpt><trkpt lat="44.809772819115146" lon="5.695664737097265"><ele>628.2857142857142</ele><time>2026-04-28T13:17:56Z</time></trkpt><trkpt lat="44.809735823833" lon="5.695747089361309"><ele>629.7142857142858</ele><time>2026-04-28T13:17:57Z</time></trkpt><trkpt lat="44.809696509650976" lon="5.695829772484843"><ele>631.1428571428571</ele><time>2026-04-28T13:17:58Z</time></trkpt><trkpt lat="44.809657772974944" lon="5.695916363799534"><ele>632.5714285714286</ele><time>2026-04-28T13:17:59Z</time></trkpt><trkpt lat="44.80961514708615" lon="5.696003316540049"><ele>634.0</ele><time>2026-04-28T13:18:00Z</time></trkpt><trkpt lat="44.809574591621036" lon="5.696088545582236"><ele>632.8571428571429</ele><time>2026-04-28T13:18:01Z</time></trkpt><trkpt lat="44.809536811649785" lon="5.696175562672391"><ele>631.7142857142857</ele><time>2026-04-28T13:18:02Z</time></trkpt><trkpt lat="44.809499890649505" lon="5.6962632515755915"><ele>630.5714285714286</ele><time>2026-04-28T13:18:03Z</time></trkpt><trkpt lat="44.809464404613664" lon="5.696337765936884"><ele>629.4285714285714</ele><time>2026-04-28T13:18:04Z</time></trkpt><trkpt lat="44.809423909386936" lon="5.696414575700537"><ele>628.2857142857143</ele><time>2026-04-28T13:18:05Z</time></trkpt><trkpt lat="44.809386909912" lon="5.696492202396744"><ele>627.1428571428571</ele><time>2026-04-28T13:18:06Z</time></trkpt><trkpt lat="44.809341491612955" lon="5.69657491163435"><ele>626.0</ele><time>2026-04-28T13:18:07Z</time></trkpt><trkpt lat="44.80929801725357" lon="5.696652268167883"><ele>626.0</ele><time>2026-04-28T13:18:08Z</time></trkpt><trkpt lat="44.809235136911326" lon="5.696728402761106"><ele>626.0</ele><time>2026-04-28T13:18:09Z</time></trkpt><trkpt lat="44.8091875300301" lon="5.696799737667226"><ele>626.0</ele><time>2026-04-28T13:18:10Z</time></trkpt><trkpt lat="44.80915626261036" lon="5.696880220833759"><ele>626.0</ele><time>2026-04-28T13:18:11Z</time></trkpt><trkpt lat="44.809125808909386" lon="5.696972257459532"><ele>626.0</ele><time>2026-04-28T13:18:12Z</time></trkpt><trkpt lat="44.80909026767558" lon="5.69705227441435"><ele>626.0</ele><time>2026-04-28T13:18:13Z</time></trkpt><trkpt lat="44.80905791727131" lon="5.697134946355244"><ele>626.0</ele><time>2026-04-28T13:18:14Z</time></trkpt><trkpt lat="44.8090230454411" lon="5.6972132581166"><ele>626.7142857142857</ele><time>2026-04-28T13:18:15Z</time></trkpt><trkpt lat="44.808988881592974" lon="5.697294724276951"><ele>627.4285714285714</ele><time>2026-04-28T13:18:16Z</time></trkpt><trkpt lat="44.80895620380637" lon="5.697374808695137"><ele>628.1428571428571</ele><time>2026-04-28T13:18:17Z</time></trkpt><trkpt lat="44.808919529214506" lon="5.697458006771745"><ele>628.8571428571429</ele><time>2026-04-28T13:18:18Z</time></trkpt><trkpt lat="44.80888966134021" lon="5.697540306120178"><ele>629.5714285714286</ele><time>2026-04-28T13:18:19Z</time></trkpt><trkpt lat="44.80886377046498" lon="5.6976271451549945"><ele>630.2857142857143</ele><time>2026-04-28T13:18:20Z</time></trkpt><trkpt lat="44.808837418200355" lon="5.697712051877782"><ele>631.0</ele><time>2026-04-28T13:18:21Z</time></trkpt><trkpt lat="44.80880519257946" lon="5.697795665639377"><ele>632.0</ele><time>2026-04-28T13:18:22Z</time></trkpt><trkpt lat="44.80877270471966" lon="5.697876374169972"><ele>633.0</ele><time>2026-04-28T13:18:22.999Z</time></trkpt><trkpt lat="44.808744990379914" lon="5.697958020275175"><ele>634.0</ele><time>2026-04-28T13:18:23.999Z</time></trkpt><trkpt lat="44.80871894675285" lon="5.698042707564397"><ele>635.0</ele><time>2026-04-28T13:18:24.999Z</time></trkpt><trkpt lat="44.80869639394409" lon="5.698128181389881"><ele>636.0</ele><time>2026-04-28T13:18:25.999Z</time></trkpt><trkpt lat="44.808665595557194" lon="5.698205850698298"><ele>637.0</ele><time>2026-04-28T13:18:26.999Z</time></trkpt><trkpt lat="44.808620472732436" lon="5.6983559885179345"><ele>638.0</ele><time>2026-04-28T13:18:28.999Z</time></trkpt><trkpt lat="44.808581617659286" lon="5.698507829355191"><ele>638.8</ele><time>2026-04-28T13:18:30.999Z</time></trkpt><trkpt lat="44.808538111300756" lon="5.698652266855887"><ele>639.5999999999999</ele><time>2026-04-28T13:18:32.999Z</time></trkpt><trkpt lat="44.808483857661194" lon="5.698792606262251"><ele>640.4000000000001</ele><time>2026-04-28T13:18:34.999Z</time></trkpt><trkpt lat="44.808430620321396" lon="5.698935034761064"><ele>641.2</ele><time>2026-04-28T13:18:36.999Z</time></trkpt><trkpt lat="44.80839129133594" lon="5.699075532026184"><ele>642.0</ele><time>2026-04-28T13:18:38.999Z</time></trkpt><trkpt lat="44.8083594114883" lon="5.699217277300065"><ele>639.6</ele><time>2026-04-28T13:18:40.999Z</time></trkpt><trkpt lat="44.80835390738411" lon="5.6993706888576074"><ele>637.2</ele><time>2026-04-28T13:18:42.999Z</time></trkpt><trkpt lat="44.8083657600576" lon="5.699528289705827"><ele>634.8</ele><time>2026-04-28T13:18:44.999Z</time></trkpt><trkpt lat="44.80839726203759" lon="5.699684772032344"><ele>632.4</ele><time>2026-04-28T13:18:46.999Z</time></trkpt><trkpt lat="44.808440724629996" lon="5.699829791570979"><ele>630.0</ele><time>2026-04-28T13:18:48.999Z</time></trkpt><trkpt lat="44.80848561053651" lon="5.699980420930511"><ele>633.25</ele><time>2026-04-28T13:18:50.999Z</time></trkpt><trkpt lat="44.808517443707146" lon="5.700135931208702"><ele>636.5</ele><time>2026-04-28T13:18:52.999Z</time></trkpt><trkpt lat="44.80854248051016" lon="5.700296243266531"><ele>639.75</ele><time>2026-04-28T13:18:54.999Z</time></trkpt><trkpt lat="44.8085540845921" lon="5.700457600755915"><ele>643.0</ele><time>2026-04-28T13:18:56.999Z</time></trkpt><trkpt lat="44.808556350960664" lon="5.700621745389738"><ele>643.5999999999999</ele><time>2026-04-28T13:18:58.999Z</time></trkpt><trkpt lat="44.808547582746726" lon="5.700789889506547"><ele>644.1999999999999</ele><time>2026-04-28T13:19:00.999Z</time></trkpt><trkpt lat="44.808531069243955" lon="5.70096554870629"><ele>644.8</ele><time>2026-04-28T13:19:02.999Z</time></trkpt><trkpt lat="44.80850619584084" lon="5.701138307918682"><ele>645.4</ele><time>2026-04-28T13:19:04.999Z</time></trkpt><trkpt lat="44.808498003724985" lon="5.701228013122032"><ele>646.0</ele><time>2026-04-28T13:19:05.999Z</time></trkpt><trkpt lat="44.80849107872019" lon="5.701321943410497"><ele>642.5</ele><time>2026-04-28T13:19:06.999Z</time></trkpt><trkpt lat="44.808480519591164" lon="5.701494360815313"><ele>639.0</ele><time>2026-04-28T13:19:08.999Z</time></trkpt><trkpt lat="44.808467001467335" lon="5.701663607967792"><ele>635.5</ele><time>2026-04-28T13:19:10.999Z</time></trkpt><trkpt lat="44.8084595619401" lon="5.701838197056701"><ele>632.0</ele><time>2026-04-28T13:19:12.999Z</time></trkpt><trkpt lat="44.808452762520915" lon="5.702012722095219"><ele>632.0</ele><time>2026-04-28T13:19:14.999Z</time></trkpt><trkpt lat="44.80846207223905" lon="5.702189449560537"><ele>632.0</ele><time>2026-04-28T13:19:16.999Z</time></trkpt><trkpt lat="44.80847094338213" lon="5.702277844147432"><ele>632.0</ele><time>2026-04-28T13:19:17.999Z</time></trkpt><trkpt lat="44.80850756712894" lon="5.702444791456445"><ele>632.0</ele><time>2026-04-28T13:19:19.999Z</time></trkpt><trkpt lat="44.80856668293037" lon="5.702598784429459"><ele>632.0</ele><time>2026-04-28T13:19:21.999Z</time></trkpt><trkpt lat="44.80860573098264" lon="5.7026684643299586"><ele>632.8333333333333</ele><time>2026-04-28T13:19:22.999Z</time></trkpt><trkpt lat="44.80865473833413" lon="5.7027312915747"><ele>633.6666666666666</ele><time>2026-04-28T13:19:23.999Z</time></trkpt><trkpt lat="44.808707828325325" lon="5.70278756878646"><ele>634.5</ele><time>2026-04-28T13:19:24.999Z</time></trkpt><trkpt lat="44.80876377160151" lon="5.702834143903033"><ele>635.3333333333334</ele><time>2026-04-28T13:19:25.999Z</time></trkpt><trkpt lat="44.8088285720806" lon="5.702864988219989"><ele>636.1666666666667</ele><time>2026-04-28T13:19:26.999Z</time></trkpt><trkpt lat="44.8088939092159" lon="5.702891180007836"><ele>637.0</ele><time>2026-04-28T13:19:27.999Z</time></trkpt><trkpt lat="44.80901985271695" lon="5.7029224513474"><ele>637.0</ele><time>2026-04-28T13:19:29.999Z</time></trkpt><trkpt lat="44.8090831562559" lon="5.702941678573534"><ele>637.0</ele><time>2026-04-28T13:19:30.999Z</time></trkpt><trkpt lat="44.80914902998924" lon="5.7029618783725775"><ele>637.0</ele><time>2026-04-28T13:19:31.999Z</time></trkpt><trkpt lat="44.809216157388164" lon="5.702985387685127"><ele>637.0</ele><time>2026-04-28T13:19:32.999Z</time></trkpt><trkpt lat="44.80928250350198" lon="5.703020011650309"><ele>637.0</ele><time>2026-04-28T13:19:34Z</time></trkpt><trkpt lat="44.80934021266208" lon="5.703077057724978"><ele>637.0</ele><time>2026-04-28T13:19:35Z</time></trkpt><trkpt lat="44.80939355533332" lon="5.703144753165415"><ele>637.0</ele><time>2026-04-28T13:19:36Z</time></trkpt><trkpt lat="44.80944020793751" lon="5.70321797895799"><ele>637.1428571428571</ele><time>2026-04-28T13:19:37Z</time></trkpt><trkpt lat="44.809481687278506" lon="5.703288821314208"><ele>637.2857142857142</ele><time>2026-04-28T13:19:38Z</time></trkpt><trkpt lat="44.80952618106404" lon="5.703368763326041"><ele>637.4285714285714</ele><time>2026-04-28T13:19:39Z</time></trkpt><trkpt lat="44.809568773937464" lon="5.703451258693158"><ele>637.5714285714286</ele><time>2026-04-28T13:19:40Z</time></trkpt><trkpt lat="44.80960858053911" lon="5.703534967486647"><ele>637.7142857142857</ele><time>2026-04-28T13:19:41Z</time></trkpt><trkpt lat="44.80964798584285" lon="5.703617582415083"><ele>637.8571428571429</ele><time>2026-04-28T13:19:42Z</time></trkpt><trkpt lat="44.80969053957062" lon="5.703698217943073"><ele>638.0</ele><time>2026-04-28T13:19:43Z</time></trkpt><trkpt lat="44.80973252633817" lon="5.703777492485673"><ele>638.0</ele><time>2026-04-28T13:19:44Z</time></trkpt><trkpt lat="44.80977458968541" lon="5.703859560745698"><ele>638.0</ele><time>2026-04-28T13:19:45Z</time></trkpt><trkpt lat="44.809817053043005" lon="5.7039421881652865"><ele>638.0</ele><time>2026-04-28T13:19:46Z</time></trkpt><trkpt lat="44.80985962954764" lon="5.70402185408573"><ele>638.0</ele><time>2026-04-28T13:19:47Z</time></trkpt><trkpt lat="44.80989946240715" lon="5.7041000276107345"><ele>638.0</ele><time>2026-04-28T13:19:48Z</time></trkpt><trkpt lat="44.80994196370945" lon="5.7041790830272365"><ele>638.0</ele><time>2026-04-28T13:19:49Z</time></trkpt><trkpt lat="44.8099835588481" lon="5.704258618593685"><ele>638.0</ele><time>2026-04-28T13:19:50Z</time></trkpt><trkpt lat="44.81002643130701" lon="5.704338246576925"><ele>638.0</ele><time>2026-04-28T13:19:51Z</time></trkpt><trkpt lat="44.810066946669004" lon="5.7044173878025095"><ele>638.0</ele><time>2026-04-28T13:19:52Z</time></trkpt><trkpt lat="44.81011010301121" lon="5.704494376877149"><ele>638.0</ele><time>2026-04-28T13:19:53Z</time></trkpt><trkpt lat="44.810151175927324" lon="5.704570741281672"><ele>638.0</ele><time>2026-04-28T13:19:54Z</time></trkpt><trkpt lat="44.81018928015877" lon="5.704647693227679"><ele>638.0</ele><time>2026-04-28T13:19:55Z</time></trkpt><trkpt lat="44.810227725693814" lon="5.704735627867823"><ele>638.0</ele><time>2026-04-28T13:19:56Z</time></trkpt><trkpt lat="44.81026616760037" lon="5.7048107767063145"><ele>638.0</ele><time>2026-04-28T13:19:57Z</time></trkpt><trkpt lat="44.81030424155492" lon="5.704887709835407"><ele>638.8</ele><time>2026-04-28T13:19:58Z</time></trkpt><trkpt lat="44.81034528913835" lon="5.704958715543044"><ele>639.5999999999999</ele><time>2026-04-28T13:19:59Z</time></trkpt><trkpt lat="44.8103846897765" lon="5.705028738112778"><ele>640.4000000000001</ele><time>2026-04-28T13:20:00Z</time></trkpt><trkpt lat="44.81044798860918" lon="5.7051699535058376"><ele>641.2</ele><time>2026-04-28T13:20:02Z</time></trkpt><trkpt lat="44.810522488896545" lon="5.705299407045153"><ele>642.0</ele><time>2026-04-28T13:20:04Z</time></trkpt><trkpt lat="44.81059554228935" lon="5.705421806081132"><ele>642.0</ele><time>2026-04-28T13:20:06Z</time></trkpt><trkpt lat="44.81065934116745" lon="5.705543750939024"><ele>642.0</ele><time>2026-04-28T13:20:08Z</time></trkpt><trkpt lat="44.81072193515527" lon="5.705662850995562"><ele>642.0</ele><time>2026-04-28T13:20:10Z</time></trkpt><trkpt lat="44.8107821655103" lon="5.705787394511407"><ele>642.0</ele><time>2026-04-28T13:20:12Z</time></trkpt><trkpt lat="44.810848678384275" lon="5.705914084175122"><ele>642.0</ele><time>2026-04-28T13:20:14Z</time></trkpt><trkpt lat="44.81091353393841" lon="5.706043610408812"><ele>643.0</ele><time>2026-04-28T13:20:16Z</time></trkpt><trkpt lat="44.810984222972905" lon="5.706175964377167"><ele>644.0</ele><time>2026-04-28T13:20:18Z</time></trkpt><trkpt lat="44.811047026840605" lon="5.706304489396763"><ele>645.0</ele><time>2026-04-28T13:20:20Z</time></trkpt><trkpt lat="44.81111450028821" lon="5.706428175379364"><ele>646.0</ele><time>2026-04-28T13:20:22Z</time></trkpt><trkpt lat="44.81119189565463" lon="5.706556028195706"><ele>648.5</ele><time>2026-04-28T13:20:24Z</time></trkpt><trkpt lat="44.81125440783906" lon="5.7066902670993"><ele>651.0</ele><time>2026-04-28T13:20:26Z</time></trkpt><trkpt lat="44.81132235185997" lon="5.706830096630895"><ele>653.5</ele><time>2026-04-28T13:20:28Z</time></trkpt><trkpt lat="44.811387773592884" lon="5.706955070318349"><ele>656.0</ele><time>2026-04-28T13:20:30Z</time></trkpt><trkpt lat="44.81144144237353" lon="5.707092817097908"><ele>656.0</ele><time>2026-04-28T13:20:32Z</time></trkpt><trkpt lat="44.81148584228519" lon="5.707228388611094"><ele>656.0</ele><time>2026-04-28T13:20:34Z</time></trkpt><trkpt lat="44.81152015902623" lon="5.707380188610443"><ele>656.0</ele><time>2026-04-28T13:20:35.999Z</time></trkpt><trkpt lat="44.81153575126948" lon="5.707542186807792"><ele>656.0</ele><time>2026-04-28T13:20:37.999Z</time></trkpt><trkpt lat="44.81150757807527" lon="5.707704464127353"><ele>656.1999999999999</ele><time>2026-04-28T13:20:39.999Z</time></trkpt><trkpt lat="44.81148109821089" lon="5.7078738310129875"><ele>656.4</ele><time>2026-04-28T13:20:41.999Z</time></trkpt><trkpt lat="44.81145212576804" lon="5.708040153251727"><ele>656.6</ele><time>2026-04-28T13:20:43.999Z</time></trkpt><trkpt lat="44.81143082091599" lon="5.708198480685966"><ele>656.8</ele><time>2026-04-28T13:20:45.999Z</time></trkpt><trkpt lat="44.811417640792705" lon="5.708285257259598"><ele>657.0</ele><time>2026-04-28T13:20:46.999Z</time></trkpt><trkpt lat="44.81142142013659" lon="5.708376257233561"><ele>657.0</ele><time>2026-04-28T13:20:47.999Z</time></trkpt><trkpt lat="44.811458572959346" lon="5.708537943971324"><ele>657.0</ele><time>2026-04-28T13:20:49.999Z</time></trkpt><trkpt lat="44.81152964118379" lon="5.7086756020137726"><ele>657.0</ele><time>2026-04-28T13:20:51.999Z</time></trkpt><trkpt lat="44.811616276072506" lon="5.708767308511127"><ele>657.0</ele><time>2026-04-28T13:20:53.999Z</time></trkpt><trkpt lat="44.811681034305295" lon="5.708801692379817"><ele>657.0</ele><time>2026-04-28T13:20:54.999Z</time></trkpt><trkpt lat="44.81179628126799" lon="5.708839347088053"><ele>661.6666666666666</ele><time>2026-04-28T13:20:56.999Z</time></trkpt><trkpt lat="44.81191052366829" lon="5.708896567452314"><ele>666.3333333333334</ele><time>2026-04-28T13:20:58.999Z</time></trkpt><trkpt lat="44.81196700216876" lon="5.708957616419333"><ele>671.0</ele><time>2026-04-28T13:20:59.999Z</time></trkpt><trkpt lat="44.81203166351355" lon="5.7090087374952665"><ele>675.6666666666667</ele><time>2026-04-28T13:21:00.999Z</time></trkpt><trkpt lat="44.81207506415101" lon="5.7090732146250325"><ele>680.3333333333334</ele><time>2026-04-28T13:21:01.999Z</time></trkpt><trkpt lat="44.812141186331736" lon="5.709177699806534"><ele>685.0</ele><time>2026-04-28T13:21:03.999Z</time></trkpt><trkpt lat="44.81216306203327" lon="5.7092935806893115"><ele>685.0</ele><time>2026-04-28T13:21:05.999Z</time></trkpt><trkpt lat="44.812179482239486" lon="5.709407223096574"><ele>685.0</ele><time>2026-04-28T13:21:07.999Z</time></trkpt><trkpt lat="44.81218631537149" lon="5.709500611972795"><ele>685.0</ele><time>2026-04-28T13:21:09.999Z</time></trkpt><trkpt lat="44.81219164705015" lon="5.709591454869106"><ele>685.0</ele><time>2026-04-28T13:21:11.999Z</time></trkpt><trkpt lat="44.81219856741451" lon="5.7097089894022375"><ele>685.0</ele><time>2026-04-28T13:21:14.999Z</time></trkpt><trkpt lat="44.8122086391973" lon="5.7098013953215085"><ele>685.0</ele><time>2026-04-28T13:21:16.999Z</time></trkpt><trkpt lat="44.812232140362966" lon="5.709885421418684"><ele>685.0</ele><time>2026-04-28T13:21:18.999Z</time></trkpt><trkpt lat="44.81223536340222" lon="5.710007330571623"><ele>684.6666666666667</ele><time>2026-04-28T13:21:21.999Z</time></trkpt><trkpt lat="44.81225745263304" lon="5.710125965446853"><ele>684.3333333333334</ele><time>2026-04-28T13:21:24.999Z</time></trkpt><trkpt lat="44.81227656621055" lon="5.710216752134518"><ele>684.0</ele><time>2026-04-28T13:21:26.999Z</time></trkpt><trkpt lat="44.812300777378034" lon="5.710327431731689"><ele>683.6666666666666</ele><time>2026-04-28T13:21:29.999Z</time></trkpt><trkpt lat="44.812324807611205" lon="5.710442899439085"><ele>683.3333333333333</ele><time>2026-04-28T13:21:32.999Z</time></trkpt><trkpt lat="44.812357584978116" lon="5.710561598642995"><ele>683.0</ele><time>2026-04-28T13:21:35.999Z</time></trkpt><trkpt lat="44.81236324860816" lon="5.710652510146792"><ele>682.4</ele><time>2026-04-28T13:21:37.999Z</time></trkpt><trkpt lat="44.8123767176414" lon="5.7107392004601545"><ele>681.8</ele><time>2026-04-28T13:21:40Z</time></trkpt><trkpt lat="44.81236332424565" lon="5.710845472610531"><ele>681.2</ele><time>2026-04-28T13:21:42Z</time></trkpt><trkpt lat="44.81231523079165" lon="5.710965411192493"><ele>680.6</ele><time>2026-04-28T13:21:44Z</time></trkpt><trkpt lat="44.81228517362111" lon="5.71110961725932"><ele>680.0</ele><time>2026-04-28T13:21:48Z</time></trkpt><trkpt lat="44.81224448722217" lon="5.711308331402357"><ele>680.0</ele><time>2026-04-28T13:21:51Z</time></trkpt><trkpt lat="44.81219018479567" lon="5.711405466432432"><ele>680.0</ele><time>2026-04-28T13:21:52Z</time></trkpt><trkpt lat="44.81217535278032" lon="5.711562294343409"><ele>680.0</ele><time>2026-04-28T13:21:54Z</time></trkpt><trkpt lat="44.812158293983835" lon="5.711738329472969"><ele>680.0</ele><time>2026-04-28T13:21:56Z</time></trkpt><trkpt lat="44.812154047792916" lon="5.711833309526084"><ele>680.0</ele><time>2026-04-28T13:21:57Z</time></trkpt><trkpt lat="44.81215426290103" lon="5.711927984335444"><ele>679.8</ele><time>2026-04-28T13:21:58Z</time></trkpt><trkpt lat="44.81217028296629" lon="5.712020340926563"><ele>679.6</ele><time>2026-04-28T13:21:59Z</time></trkpt><trkpt lat="44.81218742028502" lon="5.712111741839665"><ele>679.4000000000001</ele><time>2026-04-28T13:22:00Z</time></trkpt><trkpt lat="44.81222085169183" lon="5.7122949172433355"><ele>679.2</ele><time>2026-04-28T13:22:02Z</time></trkpt><trkpt lat="44.81222936868533" lon="5.712393267588275"><ele>679.0</ele><time>2026-04-28T13:22:03Z</time></trkpt><trkpt lat="44.8122434076354" lon="5.712572632512127"><ele>678.0</ele><time>2026-04-28T13:22:05Z</time></trkpt><trkpt lat="44.81226671245905" lon="5.7127420384919905"><ele>677.0</ele><time>2026-04-28T13:22:07Z</time></trkpt><trkpt lat="44.81229421833184" lon="5.712903948968734"><ele>676.0</ele><time>2026-04-28T13:22:09Z</time></trkpt><trkpt lat="44.81229038875148" lon="5.712992555498025"><ele>675.0</ele><time>2026-04-28T13:22:10Z</time></trkpt><trkpt lat="44.812266251701516" lon="5.713076690230954"><ele>674.0</ele><time>2026-04-28T13:22:11Z</time></trkpt><trkpt lat="44.81227081385212" lon="5.713170990033669"><ele>673.0</ele><time>2026-04-28T13:22:12Z</time></trkpt><trkpt lat="44.81222459811425" lon="5.713313493896798"><ele>673.0</ele><time>2026-04-28T13:22:14Z</time></trkpt><trkpt lat="44.81219200452105" lon="5.7134823587373536"><ele>673.0</ele><time>2026-04-28T13:22:16Z</time></trkpt><trkpt lat="44.81220685976833" lon="5.713651825111593"><ele>673.0</ele><time>2026-04-28T13:22:18Z</time></trkpt><trkpt lat="44.8122381930531" lon="5.713815192152083"><ele>673.0</ele><time>2026-04-28T13:22:20Z</time></trkpt><trkpt lat="44.81225965486735" lon="5.713982668863887"><ele>672.75</ele><time>2026-04-28T13:22:22Z</time></trkpt><trkpt lat="44.81228886710827" lon="5.714152362448962"><ele>672.5</ele><time>2026-04-28T13:22:24Z</time></trkpt><trkpt lat="44.81231905688081" lon="5.714314857250409"><ele>672.25</ele><time>2026-04-28T13:22:26Z</time></trkpt><trkpt lat="44.81235764649342" lon="5.714465136000337"><ele>672.0</ele><time>2026-04-28T13:22:28Z</time></trkpt><trkpt lat="44.812387168757056" lon="5.714626708726484"><ele>672.2</ele><time>2026-04-28T13:22:30Z</time></trkpt><trkpt lat="44.812428093176585" lon="5.714788477212049"><ele>672.4000000000001</ele><time>2026-04-28T13:22:32Z</time></trkpt><trkpt lat="44.81245535588889" lon="5.714873884416649"><ele>672.5999999999999</ele><time>2026-04-28T13:22:33Z</time></trkpt><trkpt lat="44.81250594378577" lon="5.715036627027555"><ele>672.8</ele><time>2026-04-28T13:22:35Z</time></trkpt><trkpt lat="44.81256310258366" lon="5.715195639389459"><ele>673.0</ele><time>2026-04-28T13:22:37Z</time></trkpt><trkpt lat="44.81262775537848" lon="5.71534419517025"><ele>676.5</ele><time>2026-04-28T13:22:39Z</time></trkpt><trkpt lat="44.81265684594308" lon="5.715425986974516"><ele>680.0</ele><time>2026-04-28T13:22:40Z</time></trkpt><trkpt lat="44.8126861367614" lon="5.715514933242434"><ele>683.5</ele><time>2026-04-28T13:22:41Z</time></trkpt><trkpt lat="44.81271832292944" lon="5.715602687598357"><ele>687.0</ele><time>2026-04-28T13:22:42Z</time></trkpt><trkpt lat="44.81278269624064" lon="5.715753385714467"><ele>690.5</ele><time>2026-04-28T13:22:43.999Z</time></trkpt><trkpt lat="44.81281075648426" lon="5.7158337228716185"><ele>694.0</ele><time>2026-04-28T13:22:44.999Z</time></trkpt><trkpt lat="44.812837671714014" lon="5.715917773713827"><ele>692.0</ele><time>2026-04-28T13:22:45.999Z</time></trkpt><trkpt lat="44.812900081794474" lon="5.716076091632265"><ele>690.0</ele><time>2026-04-28T13:22:47.999Z</time></trkpt><trkpt lat="44.812931835730105" lon="5.7161561005121975"><ele>688.0</ele><time>2026-04-28T13:22:48.999Z</time></trkpt><trkpt lat="44.812987219768445" lon="5.7163152691726875"><ele>686.0</ele><time>2026-04-28T13:22:50.999Z</time></trkpt><trkpt lat="44.81304583811568" lon="5.716475597826294"><ele>684.0</ele><time>2026-04-28T13:22:52.999Z</time></trkpt><trkpt lat="44.81310554127408" lon="5.716631253579624"><ele>684.0</ele><time>2026-04-28T13:22:54.999Z</time></trkpt><trkpt lat="44.8131406022995" lon="5.71670663297429"><ele>684.0</ele><time>2026-04-28T13:22:55.999Z</time></trkpt><trkpt lat="44.81320060977193" lon="5.716864321945186"><ele>684.0</ele><time>2026-04-28T13:22:57.999Z</time></trkpt><trkpt lat="44.81323174537306" lon="5.716945456931482"><ele>684.0</ele><time>2026-04-28T13:22:58.999Z</time></trkpt><trkpt lat="44.81326763978801" lon="5.717031003957186"><ele>684.0</ele><time>2026-04-28T13:22:59.999Z</time></trkpt><trkpt lat="44.81330309551145" lon="5.717108259689772"><ele>684.0</ele><time>2026-04-28T13:23:00.999Z</time></trkpt><trkpt lat="44.81334105001068" lon="5.717186867864502"><ele>682.4285714285713</ele><time>2026-04-28T13:23:01.999Z</time></trkpt><trkpt lat="44.8133820469403" lon="5.717263165424524"><ele>680.8571428571429</ele><time>2026-04-28T13:23:02.999Z</time></trkpt><trkpt lat="44.8134236295982" lon="5.717336797595451"><ele>679.2857142857142</ele><time>2026-04-28T13:23:03.999Z</time></trkpt><trkpt lat="44.81346435295043" lon="5.717413470692202"><ele>677.7142857142857</ele><time>2026-04-28T13:23:04.999Z</time></trkpt><trkpt lat="44.81350985224239" lon="5.717485638161865"><ele>676.1428571428571</ele><time>2026-04-28T13:23:05.999Z</time></trkpt><trkpt lat="44.81355402867504" lon="5.717560462737449"><ele>674.5714285714286</ele><time>2026-04-28T13:23:06.999Z</time></trkpt><trkpt lat="44.813602628556545" lon="5.717630927190953"><ele>673.0</ele><time>2026-04-28T13:23:07.999Z</time></trkpt><trkpt lat="44.813653277454975" lon="5.717697392102126"><ele>674.7142857142858</ele><time>2026-04-28T13:23:08.999Z</time></trkpt><trkpt lat="44.813707722324494" lon="5.71775910698374"><ele>676.4285714285713</ele><time>2026-04-28T13:23:09.999Z</time></trkpt><trkpt lat="44.813763965863075" lon="5.7178197788833565"><ele>678.1428571428571</ele><time>2026-04-28T13:23:10.999Z</time></trkpt><trkpt lat="44.813824177732904" lon="5.717875708622164"><ele>679.8571428571429</ele><time>2026-04-28T13:23:11.999Z</time></trkpt><trkpt lat="44.81387528774338" lon="5.717937319310588"><ele>681.5714285714287</ele><time>2026-04-28T13:23:12.999Z</time></trkpt><trkpt lat="44.81392185723101" lon="5.718003681941226"><ele>683.2857142857142</ele><time>2026-04-28T13:23:13.999Z</time></trkpt><trkpt lat="44.81397035066451" lon="5.718075244128147"><ele>685.0</ele><time>2026-04-28T13:23:14.999Z</time></trkpt><trkpt lat="44.81401356839302" lon="5.718150340558586"><ele>685.0</ele><time>2026-04-28T13:23:15.999Z</time></trkpt><trkpt lat="44.814055101651036" lon="5.718229107618095"><ele>685.0</ele><time>2026-04-28T13:23:16.999Z</time></trkpt><trkpt lat="44.814095450832184" lon="5.718307981228349"><ele>685.0</ele><time>2026-04-28T13:23:17.999Z</time></trkpt><trkpt lat="44.814135139293185" lon="5.718387274176582"><ele>685.0</ele><time>2026-04-28T13:23:18.999Z</time></trkpt><trkpt lat="44.814171389563555" lon="5.718466368584744"><ele>685.0</ele><time>2026-04-28T13:23:19.999Z</time></trkpt><trkpt lat="44.81420036163593" lon="5.718550401073291"><ele>685.0</ele><time>2026-04-28T13:23:20.999Z</time></trkpt><trkpt lat="44.814229359714275" lon="5.718631696877306"><ele>685.0</ele><time>2026-04-28T13:23:21.999Z</time></trkpt><trkpt lat="44.81425889047397" lon="5.718716686565854"><ele>683.5714285714286</ele><time>2026-04-28T13:23:22.999Z</time></trkpt><trkpt lat="44.81428441573666" lon="5.718802095952388"><ele>682.1428571428572</ele><time>2026-04-28T13:23:23.999Z</time></trkpt><trkpt lat="44.81430379587744" lon="5.718899288715076"><ele>680.7142857142858</ele><time>2026-04-28T13:23:24.999Z</time></trkpt><trkpt lat="44.8143251620462" lon="5.718990395638167"><ele>679.2857142857142</ele><time>2026-04-28T13:23:25.999Z</time></trkpt><trkpt lat="44.81435295914584" lon="5.719074799041373"><ele>677.8571428571429</ele><time>2026-04-28T13:23:26.999Z</time></trkpt><trkpt lat="44.81437646644778" lon="5.719162719019614"><ele>676.4285714285714</ele><time>2026-04-28T13:23:27.999Z</time></trkpt><trkpt lat="44.8144016142635" lon="5.719256770965001"><ele>675.0</ele><time>2026-04-28T13:23:28.999Z</time></trkpt><trkpt lat="44.814428929197426" lon="5.719348224299633"><ele>677.5714285714286</ele><time>2026-04-28T13:23:29.999Z</time></trkpt><trkpt lat="44.81445821559228" lon="5.719434178202468"><ele>680.1428571428571</ele><time>2026-04-28T13:23:30.999Z</time></trkpt><trkpt lat="44.81448505409085" lon="5.719526281534844"><ele>682.7142857142858</ele><time>2026-04-28T13:23:31.999Z</time></trkpt><trkpt lat="44.81450784038682" lon="5.7196163343308974"><ele>685.2857142857142</ele><time>2026-04-28T13:23:32.999Z</time></trkpt><trkpt lat="44.81453280370767" lon="5.719712313985057"><ele>687.8571428571429</ele><time>2026-04-28T13:23:33.999Z</time></trkpt><trkpt lat="44.8145521353119" lon="5.719804992342506"><ele>690.4285714285714</ele><time>2026-04-28T13:23:34.999Z</time></trkpt><trkpt lat="44.81457442177163" lon="5.719900869298682"><ele>693.0</ele><time>2026-04-28T13:23:35.999Z</time></trkpt><trkpt lat="44.81459083562154" lon="5.719991500501147"><ele>693.0</ele><time>2026-04-28T13:23:36.999Z</time></trkpt><trkpt lat="44.814604862929016" lon="5.7200854406020785"><ele>693.0</ele><time>2026-04-28T13:23:37.999Z</time></trkpt><trkpt lat="44.81461914666999" lon="5.720180739490674"><ele>693.0</ele><time>2026-04-28T13:23:38.999Z</time></trkpt><trkpt lat="44.814627802354195" lon="5.720275613671492"><ele>693.0</ele><time>2026-04-28T13:23:39.999Z</time></trkpt><trkpt lat="44.81463033212875" lon="5.720370414274204"><ele>693.0</ele><time>2026-04-28T13:23:40.999Z</time></trkpt><trkpt lat="44.814632551312975" lon="5.720471755354919"><ele>693.0</ele><time>2026-04-28T13:23:41.999Z</time></trkpt><trkpt lat="44.814634748417745" lon="5.720563357356448"><ele>693.0</ele><time>2026-04-28T13:23:42.999Z</time></trkpt><trkpt lat="44.814634365162675" lon="5.720656662234506"><ele>691.1666666666666</ele><time>2026-04-28T13:23:43.999Z</time></trkpt><trkpt lat="44.81462700599462" lon="5.720754301136765"><ele>689.3333333333334</ele><time>2026-04-28T13:23:44.999Z</time></trkpt><trkpt lat="44.81462923773542" lon="5.720843553760996"><ele>687.5</ele><time>2026-04-28T13:23:46Z</time></trkpt><trkpt lat="44.81461673906158" lon="5.720935166352658"><ele>685.6666666666667</ele><time>2026-04-28T13:23:47Z</time></trkpt><trkpt lat="44.81459963848702" lon="5.721024052147363"><ele>683.8333333333334</ele><time>2026-04-28T13:23:48Z</time></trkpt><trkpt lat="44.81457409075967" lon="5.721192958144046"><ele>682.0</ele><time>2026-04-28T13:23:50Z</time></trkpt><trkpt lat="44.814553955265175" lon="5.721281384335742"><ele>681.8</ele><time>2026-04-28T13:23:51Z</time></trkpt><trkpt lat="44.81451733424485" lon="5.721453786820446"><ele>681.6</ele><time>2026-04-28T13:23:53Z</time></trkpt><trkpt lat="44.81449609854842" lon="5.721606362599336"><ele>681.4</ele><time>2026-04-28T13:23:55Z</time></trkpt><trkpt lat="44.81448435138203" lon="5.721695610077053"><ele>681.1999999999999</ele><time>2026-04-28T13:23:56Z</time></trkpt><trkpt lat="44.81448072666363" lon="5.721874224554297"><ele>681.0</ele><time>2026-04-28T13:23:58Z</time></trkpt><trkpt lat="44.814476823456204" lon="5.721969103843085"><ele>681.3333333333334</ele><time>2026-04-28T13:23:59Z</time></trkpt><trkpt lat="44.81448993591446" lon="5.722057955963442"><ele>681.6666666666666</ele><time>2026-04-28T13:24:00Z</time></trkpt><trkpt lat="44.81449551137094" lon="5.722148004212976"><ele>682.0</ele><time>2026-04-28T13:24:01Z</time></trkpt><trkpt lat="44.814503593145815" lon="5.722240781747066"><ele>682.3333333333333</ele><time>2026-04-28T13:24:02Z</time></trkpt><trkpt lat="44.814517144366896" lon="5.722405033775756"><ele>682.6666666666666</ele><time>2026-04-28T13:24:04Z</time></trkpt><trkpt lat="44.81456166856707" lon="5.722562011044918"><ele>683.0</ele><time>2026-04-28T13:24:06Z</time></trkpt><trkpt lat="44.81460201862024" lon="5.722723085602439"><ele>683.4</ele><time>2026-04-28T13:24:08Z</time></trkpt><trkpt lat="44.81464053916476" lon="5.7228862788381605"><ele>683.8</ele><time>2026-04-28T13:24:10Z</time></trkpt><trkpt lat="44.81467106372371" lon="5.722964123410747"><ele>684.2</ele><time>2026-04-28T13:24:11Z</time></trkpt><trkpt lat="44.81471057471312" lon="5.723125560060266"><ele>684.6</ele><time>2026-04-28T13:24:13Z</time></trkpt><trkpt lat="44.81474636503933" lon="5.723281574817848"><ele>685.0</ele><time>2026-04-28T13:24:15Z</time></trkpt><trkpt lat="44.81478332086095" lon="5.723436562354687"><ele>685.0</ele><time>2026-04-28T13:24:17Z</time></trkpt><trkpt lat="44.814819151651974" lon="5.723516859039989"><ele>685.0</ele><time>2026-04-28T13:24:18Z</time></trkpt><trkpt lat="44.814815365691565" lon="5.72361010369963"><ele>685.0</ele><time>2026-04-28T13:24:19Z</time></trkpt><trkpt lat="44.81487142521765" lon="5.72376252690334"><ele>685.0</ele><time>2026-04-28T13:24:21Z</time></trkpt><trkpt lat="44.81490004908195" lon="5.723917996696726"><ele>685.0</ele><time>2026-04-28T13:24:23Z</time></trkpt><trkpt lat="44.814923948410375" lon="5.724000652762007"><ele>685.0</ele><time>2026-04-28T13:24:24Z</time></trkpt><trkpt lat="44.81495956170621" lon="5.72415963122659"><ele>684.8</ele><time>2026-04-28T13:24:26Z</time></trkpt><trkpt lat="44.815011248184966" lon="5.7243174780485875"><ele>684.6</ele><time>2026-04-28T13:24:28Z</time></trkpt><trkpt lat="44.81503612221297" lon="5.724467930493558"><ele>684.4000000000001</ele><time>2026-04-28T13:24:30Z</time></trkpt><trkpt lat="44.8150662410867" lon="5.72462421812211"><ele>684.2</ele><time>2026-04-28T13:24:32Z</time></trkpt><trkpt lat="44.8150963712158" lon="5.7247098798572"><ele>684.0</ele><time>2026-04-28T13:24:33Z</time></trkpt><trkpt lat="44.81513450121282" lon="5.724863538317909"><ele>686.25</ele><time>2026-04-28T13:24:35Z</time></trkpt><trkpt lat="44.81517318106617" lon="5.725019313985863"><ele>688.5</ele><time>2026-04-28T13:24:37Z</time></trkpt><trkpt lat="44.81520878846565" lon="5.725173761866774"><ele>690.75</ele><time>2026-04-28T13:24:39Z</time></trkpt><trkpt lat="44.81523420379125" lon="5.725330820366054"><ele>693.0</ele><time>2026-04-28T13:24:41Z</time></trkpt><trkpt lat="44.815246395294075" lon="5.72548851844399"><ele>693.0</ele><time>2026-04-28T13:24:43Z</time></trkpt><trkpt lat="44.81524683103383" lon="5.725646989895713"><ele>693.0</ele><time>2026-04-28T13:24:45Z</time></trkpt><trkpt lat="44.8152367854359" lon="5.725808375906124"><ele>693.0</ele><time>2026-04-28T13:24:47Z</time></trkpt><trkpt lat="44.81520124998906" lon="5.725966383861362"><ele>693.0</ele><time>2026-04-28T13:24:49Z</time></trkpt><trkpt lat="44.8151673410904" lon="5.7261223105988535"><ele>691.75</ele><time>2026-04-28T13:24:50.999Z</time></trkpt><trkpt lat="44.8151304278024" lon="5.726268225462567"><ele>690.5</ele><time>2026-04-28T13:24:52.999Z</time></trkpt><trkpt lat="44.815096593110596" lon="5.726418840008235"><ele>689.25</ele><time>2026-04-28T13:24:54.999Z</time></trkpt><trkpt lat="44.81505464486222" lon="5.726573138343821"><ele>688.0</ele><time>2026-04-28T13:24:56.999Z</time></trkpt><trkpt lat="44.81502568330191" lon="5.726732503138881"><ele>688.0</ele><time>2026-04-28T13:24:58.999Z</time></trkpt><trkpt lat="44.814992215818584" lon="5.726891866385121"><ele>688.0</ele><time>2026-04-28T13:25:00.999Z</time></trkpt><trkpt lat="44.81495682206293" lon="5.72704638726791"><ele>688.0</ele><time>2026-04-28T13:25:02.999Z</time></trkpt><trkpt lat="44.81491678448966" lon="5.727203486282492"><ele>688.0</ele><time>2026-04-28T13:25:04.999Z</time></trkpt><trkpt lat="44.814888650278625" lon="5.727362747458678"><ele>689.0</ele><time>2026-04-28T13:25:06.999Z</time></trkpt><trkpt lat="44.81485033433444" lon="5.727522859596741"><ele>690.0</ele><time>2026-04-28T13:25:08.999Z</time></trkpt><trkpt lat="44.8148124863038" lon="5.727678760852293"><ele>691.0</ele><time>2026-04-28T13:25:10.999Z</time></trkpt><trkpt lat="44.81477760511083" lon="5.727833297710033"><ele>692.0</ele><time>2026-04-28T13:25:12.999Z</time></trkpt><trkpt lat="44.814743993680686" lon="5.727981361671258"><ele>693.0</ele><time>2026-04-28T13:25:14.999Z</time></trkpt><trkpt lat="44.814708594014604" lon="5.728133354578599"><ele>694.0</ele><time>2026-04-28T13:25:16.999Z</time></trkpt><trkpt lat="44.8146673667119" lon="5.728276394617419"><ele>695.0</ele><time>2026-04-28T13:25:18.999Z</time></trkpt><trkpt lat="44.81464256674019" lon="5.728421589519431"><ele>696.0</ele><time>2026-04-28T13:25:20.999Z</time></trkpt><trkpt lat="44.81462373612051" lon="5.72857097469325"><ele>697.0</ele><time>2026-04-28T13:25:22.999Z</time></trkpt><trkpt lat="44.814600504980774" lon="5.728724484331851"><ele>697.8</ele><time>2026-04-28T13:25:24.999Z</time></trkpt><trkpt lat="44.81458036215163" lon="5.728876268661557"><ele>698.6</ele><time>2026-04-28T13:25:26.999Z</time></trkpt><trkpt lat="44.81456473343257" lon="5.729030853391656"><ele>699.4</ele><time>2026-04-28T13:25:28.999Z</time></trkpt><trkpt lat="44.81454073095743" lon="5.729176011930833"><ele>700.1999999999999</ele><time>2026-04-28T13:25:30.999Z</time></trkpt><trkpt lat="44.814510554361526" lon="5.729320595504493"><ele>701.0</ele><time>2026-04-28T13:25:32.999Z</time></trkpt><trkpt lat="44.81449048603407" lon="5.729454583855698"><ele>701.8</ele><time>2026-04-28T13:25:34.999Z</time></trkpt><trkpt lat="44.81446301792264" lon="5.729587819163878"><ele>702.5999999999999</ele><time>2026-04-28T13:25:36.999Z</time></trkpt><trkpt lat="44.81443905835542" lon="5.7297230096060225"><ele>703.4</ele><time>2026-04-28T13:25:38.999Z</time></trkpt><trkpt lat="44.81442395834266" lon="5.72985641086789"><ele>704.2</ele><time>2026-04-28T13:25:40.999Z</time></trkpt><trkpt lat="44.81441644302772" lon="5.7299971982152345"><ele>705.0</ele><time>2026-04-28T13:25:42.999Z</time></trkpt><trkpt lat="44.81441308793196" lon="5.730138595681322"><ele>705.2</ele><time>2026-04-28T13:25:44.999Z</time></trkpt><trkpt lat="44.814414160141546" lon="5.7302806755297375"><ele>705.4</ele><time>2026-04-28T13:25:46.999Z</time></trkpt><trkpt lat="44.8144332523935" lon="5.730416747102821"><ele>705.5999999999999</ele><time>2026-04-28T13:25:48.999Z</time></trkpt><trkpt lat="44.81446584470829" lon="5.730559085298312"><ele>705.8</ele><time>2026-04-28T13:25:50.999Z</time></trkpt><trkpt lat="44.81450249630324" lon="5.730700589779575"><ele>706.0</ele><time>2026-04-28T13:25:53Z</time></trkpt><trkpt lat="44.8145388765187" lon="5.730844207523892"><ele>706.0</ele><time>2026-04-28T13:25:55Z</time></trkpt><trkpt lat="44.81456552035159" lon="5.730995578321932"><ele>706.0</ele><time>2026-04-28T13:25:57Z</time></trkpt><trkpt lat="44.814574178520864" lon="5.7311420161614715"><ele>706.0</ele><time>2026-04-28T13:25:59Z</time></trkpt><trkpt lat="44.81457547101374" lon="5.73129367823561"><ele>706.0</ele><time>2026-04-28T13:26:01Z</time></trkpt><trkpt lat="44.81455471508218" lon="5.731432033471635"><ele>706.0</ele><time>2026-04-28T13:26:03Z</time></trkpt><trkpt lat="44.81452503423467" lon="5.731556007539049"><ele>706.4</ele><time>2026-04-28T13:26:05Z</time></trkpt><trkpt lat="44.814498058733776" lon="5.731681739762353"><ele>706.8</ele><time>2026-04-28T13:26:07Z</time></trkpt><trkpt lat="44.81447142543533" lon="5.731813057664366"><ele>707.1999999999999</ele><time>2026-04-28T13:26:09Z</time></trkpt><trkpt lat="44.81445383514104" lon="5.731940916552798"><ele>707.5999999999999</ele><time>2026-04-28T13:26:11Z</time></trkpt><trkpt lat="44.81444482014916" lon="5.732066811484644"><ele>708.0</ele><time>2026-04-28T13:26:13Z</time></trkpt><trkpt lat="44.81444688563171" lon="5.732194770771423"><ele>708.5999999999999</ele><time>2026-04-28T13:26:15Z</time></trkpt><trkpt lat="44.81445317104243" lon="5.732322059961036"><ele>709.1999999999999</ele><time>2026-04-28T13:26:17Z</time></trkpt><trkpt lat="44.814468093092735" lon="5.732442343382552"><ele>709.8</ele><time>2026-04-28T13:26:19Z</time></trkpt><trkpt lat="44.8144897130258" lon="5.732564349221215"><ele>710.4</ele><time>2026-04-28T13:26:21Z</time></trkpt><trkpt lat="44.81451232883961" lon="5.732693673361365"><ele>711.0</ele><time>2026-04-28T13:26:23Z</time></trkpt><trkpt lat="44.814536939991726" lon="5.732818781777214"><ele>711.0</ele><time>2026-04-28T13:26:25Z</time></trkpt><trkpt lat="44.814546043349424" lon="5.7329507714226535"><ele>711.0</ele><time>2026-04-28T13:26:27Z</time></trkpt><trkpt lat="44.81456196414748" lon="5.733070001513761"><ele>711.0</ele><time>2026-04-28T13:26:29Z</time></trkpt><trkpt lat="44.8145712636077" lon="5.733197799516249"><ele>711.0</ele><time>2026-04-28T13:26:31Z</time></trkpt><trkpt lat="44.814571476232416" lon="5.7333233413326825"><ele>711.0</ele><time>2026-04-28T13:26:33Z</time></trkpt><trkpt lat="44.81457324026328" lon="5.733458005589492"><ele>711.4</ele><time>2026-04-28T13:26:35Z</time></trkpt><trkpt lat="44.81455386601893" lon="5.733592075178535"><ele>711.8</ele><time>2026-04-28T13:26:37Z</time></trkpt><trkpt lat="44.814526871310555" lon="5.733722825957914"><ele>712.1999999999999</ele><time>2026-04-28T13:26:39Z</time></trkpt><trkpt lat="44.81450199504215" lon="5.733852201906231"><ele>712.5999999999999</ele><time>2026-04-28T13:26:41Z</time></trkpt><trkpt lat="44.81448165542444" lon="5.733980901985556"><ele>713.0</ele><time>2026-04-28T13:26:43Z</time></trkpt><trkpt lat="44.81445972978111" lon="5.734102458622665"><ele>713.0</ele><time>2026-04-28T13:26:45Z</time></trkpt><trkpt lat="44.81444304003923" lon="5.734222458759462"><ele>713.0</ele><time>2026-04-28T13:26:47Z</time></trkpt><trkpt lat="44.814431956868845" lon="5.734343471296024"><ele>713.0</ele><time>2026-04-28T13:26:49Z</time></trkpt><trkpt lat="44.814422124276845" lon="5.7344668150939935"><ele>713.0</ele><time>2026-04-28T13:26:51Z</time></trkpt><trkpt lat="44.81441867109624" lon="5.734594399464729"><ele>713.0</ele><time>2026-04-28T13:26:53Z</time></trkpt><trkpt lat="44.814413514146416" lon="5.734719107887876"><ele>713.0</ele><time>2026-04-28T13:26:55Z</time></trkpt><trkpt lat="44.81441955890352" lon="5.7348479676956785"><ele>713.4</ele><time>2026-04-28T13:26:57Z</time></trkpt><trkpt lat="44.81441830494575" lon="5.734970503251178"><ele>713.8</ele><time>2026-04-28T13:26:59Z</time></trkpt><trkpt lat="44.814416728683604" lon="5.735101121670158"><ele>714.2</ele><time>2026-04-28T13:27:00.999Z</time></trkpt><trkpt lat="44.814420701210345" lon="5.735232905644534"><ele>714.6</ele><time>2026-04-28T13:27:02.999Z</time></trkpt><trkpt lat="44.81442093801195" lon="5.735363737683036"><ele>715.0</ele><time>2026-04-28T13:27:04.999Z</time></trkpt><trkpt lat="44.81442442231534" lon="5.735493620990058"><ele>715.0</ele><time>2026-04-28T13:27:06.999Z</time></trkpt><trkpt lat="44.81443273011276" lon="5.735610484748593"><ele>715.0</ele><time>2026-04-28T13:27:08.999Z</time></trkpt><trkpt lat="44.814445657426695" lon="5.735728911640832"><ele>715.0</ele><time>2026-04-28T13:27:10.999Z</time></trkpt><trkpt lat="44.81445825616271" lon="5.735855099889037"><ele>715.0</ele><time>2026-04-28T13:27:12.999Z</time></trkpt><trkpt lat="44.81448929045326" lon="5.735982939320578"><ele>715.0</ele><time>2026-04-28T13:27:14.999Z</time></trkpt><trkpt lat="44.81451514342443" lon="5.7361109710589755"><ele>715.0</ele><time>2026-04-28T13:27:16.999Z</time></trkpt><trkpt lat="44.81455465238474" lon="5.736235101162591"><ele>715.0</ele><time>2026-04-28T13:27:18.999Z</time></trkpt><trkpt lat="44.81460262063404" lon="5.736354675275751"><ele>715.0</ele><time>2026-04-28T13:27:20.999Z</time></trkpt><trkpt lat="44.81465506281397" lon="5.736469789552042"><ele>715.0</ele><time>2026-04-28T13:27:22.999Z</time></trkpt><trkpt lat="44.814713335535515" lon="5.736580223914872"><ele>715.0</ele><time>2026-04-28T13:27:24.999Z</time></trkpt><trkpt lat="44.81477005033649" lon="5.736689585539014"><ele>715.0</ele><time>2026-04-28T13:27:26.999Z</time></trkpt><trkpt lat="44.814827637767394" lon="5.736796631958489"><ele>714.8333333333334</ele><time>2026-04-28T13:27:28.999Z</time></trkpt><trkpt lat="44.81488560189862" lon="5.736895669534086"><ele>714.6666666666667</ele><time>2026-04-28T13:27:30.999Z</time></trkpt><trkpt lat="44.814941210527685" lon="5.7369918740862476"><ele>714.5</ele><time>2026-04-28T13:27:32.999Z</time></trkpt><trkpt lat="44.81500084741674" lon="5.737077919101193"><ele>714.3333333333334</ele><time>2026-04-28T13:27:34.999Z</time></trkpt><trkpt lat="44.81506702455539" lon="5.737156505697702"><ele>714.1666666666666</ele><time>2026-04-28T13:27:36.999Z</time></trkpt><trkpt lat="44.81513833443363" lon="5.7372305643934025"><ele>714.0</ele><time>2026-04-28T13:27:38.999Z</time></trkpt><trkpt lat="44.81521289002776" lon="5.737292312527553"><ele>715.4000000000001</ele><time>2026-04-28T13:27:40.999Z</time></trkpt><trkpt lat="44.815291851338486" lon="5.7373474899446535"><ele>716.8</ele><time>2026-04-28T13:27:42.999Z</time></trkpt><trkpt lat="44.81537441052649" lon="5.737389441231393"><ele>718.2</ele><time>2026-04-28T13:27:44.999Z</time></trkpt><trkpt lat="44.81546323444392" lon="5.737425339724191"><ele>719.5999999999999</ele><time>2026-04-28T13:27:46.999Z</time></trkpt><trkpt lat="44.815564040639636" lon="5.73746155149863"><ele>721.0</ele><time>2026-04-28T13:27:48.999Z</time></trkpt><trkpt lat="44.81566393203945" lon="5.737512388212885"><ele>721.0</ele><time>2026-04-28T13:27:50.999Z</time></trkpt><trkpt lat="44.815760297742955" lon="5.7375764478157345"><ele>721.0</ele><time>2026-04-28T13:27:52.999Z</time></trkpt><trkpt lat="44.81584270370744" lon="5.7376647103444665"><ele>721.0</ele><time>2026-04-28T13:27:54.999Z</time></trkpt><trkpt lat="44.81590261473186" lon="5.737763929809643"><ele>721.0</ele><time>2026-04-28T13:27:56.999Z</time></trkpt><trkpt lat="44.81594942380663" lon="5.737864949658709"><ele>721.0</ele><time>2026-04-28T13:27:59Z</time></trkpt><trkpt lat="44.81597114173559" lon="5.73797971288484"><ele>721.0</ele><time>2026-04-28T13:28:01Z</time></trkpt><trkpt lat="44.81598712460617" lon="5.738091495310587"><ele>721.0</ele><time>2026-04-28T13:28:03Z</time></trkpt><trkpt lat="44.816000826459806" lon="5.7381916733338425"><ele>721.0</ele><time>2026-04-28T13:28:05Z</time></trkpt><trkpt lat="44.81599070665663" lon="5.738289925057066"><ele>721.0</ele><time>2026-04-28T13:28:07Z</time></trkpt><trkpt lat="44.81597297623574" lon="5.738413887273809"><ele>721.0</ele><time>2026-04-28T13:28:10Z</time></trkpt><trkpt lat="44.81592688158464" lon="5.738532169624331"><ele>721.0</ele><time>2026-04-28T13:28:13Z</time></trkpt><trkpt lat="44.81588607921107" lon="5.738622397633639"><ele>721.0</ele><time>2026-04-28T13:28:15Z</time></trkpt><trkpt lat="44.81583137682734" lon="5.738717806694718"><ele>721.0</ele><time>2026-04-28T13:28:17Z</time></trkpt><trkpt lat="44.815775920887546" lon="5.738823809210443"><ele>721.0</ele><time>2026-04-28T13:28:19Z</time></trkpt><trkpt lat="44.815726269411954" lon="5.738928545048573"><ele>721.0</ele><time>2026-04-28T13:28:21Z</time></trkpt><trkpt lat="44.815684475257505" lon="5.739029257589372"><ele>721.0</ele><time>2026-04-28T13:28:23Z</time></trkpt><trkpt lat="44.815643471270604" lon="5.739114745054576"><ele>721.0</ele><time>2026-04-28T13:28:25Z</time></trkpt><trkpt lat="44.815598641037354" lon="5.739195384867491"><ele>721.0</ele><time>2026-04-28T13:28:27Z</time></trkpt><trkpt lat="44.81555212525787" lon="5.739282952133901"><ele>721.0</ele><time>2026-04-28T13:28:29Z</time></trkpt><trkpt lat="44.81550628851953" lon="5.739367802016534"><ele>721.0</ele><time>2026-04-28T13:28:31Z</time></trkpt><trkpt lat="44.815457027629854" lon="5.73944787697962"><ele>721.0</ele><time>2026-04-28T13:28:33Z</time></trkpt><trkpt lat="44.81540545425515" lon="5.739527975937304"><ele>721.0</ele><time>2026-04-28T13:28:35Z</time></trkpt><trkpt lat="44.81534857045971" lon="5.739591877097217"><ele>721.0</ele><time>2026-04-28T13:28:37Z</time></trkpt><trkpt lat="44.81528484960209" lon="5.739654781180764"><ele>721.6666666666667</ele><time>2026-04-28T13:28:39Z</time></trkpt><trkpt lat="44.81522072983115" lon="5.739718611260623"><ele>722.3333333333334</ele><time>2026-04-28T13:28:41Z</time></trkpt><trkpt lat="44.81515425279516" lon="5.7397757485002785"><ele>723.0</ele><time>2026-04-28T13:28:43Z</time></trkpt><trkpt lat="44.815087317040124" lon="5.739826266979688"><ele>723.6666666666666</ele><time>2026-04-28T13:28:45Z</time></trkpt><trkpt lat="44.81501946020884" lon="5.739874002614356"><ele>724.3333333333333</ele><time>2026-04-28T13:28:47Z</time></trkpt><trkpt lat="44.814948512787645" lon="5.739915907263254"><ele>725.0</ele><time>2026-04-28T13:28:49Z</time></trkpt><trkpt lat="44.814882343229584" lon="5.739957503663404"><ele>725.5</ele><time>2026-04-28T13:28:51Z</time></trkpt><trkpt lat="44.8148124998426" lon="5.74000210191797"><ele>726.0</ele><time>2026-04-28T13:28:53Z</time></trkpt><trkpt lat="44.814753331177776" lon="5.740042372032048"><ele>726.5</ele><time>2026-04-28T13:28:55Z</time></trkpt><trkpt lat="44.814693610581195" lon="5.7400783827089725"><ele>727.0</ele><time>2026-04-28T13:28:57Z</time></trkpt><trkpt lat="44.814585230320546" lon="5.740163324500542"><ele>727.5</ele><time>2026-04-28T13:29:01Z</time></trkpt><trkpt lat="44.81451382258302" lon="5.740203636599986"><ele>728.0</ele><time>2026-04-28T13:29:02.999Z</time></trkpt><trkpt lat="44.81444695009864" lon="5.740242846868701"><ele>728.6666666666666</ele><time>2026-04-28T13:29:04.999Z</time></trkpt><trkpt lat="44.81437201406484" lon="5.74029140423803"><ele>729.3333333333333</ele><time>2026-04-28T13:29:06.999Z</time></trkpt><trkpt lat="44.81429749531573" lon="5.7403395956724195"><ele>730.0</ele><time>2026-04-28T13:29:08.999Z</time></trkpt><trkpt lat="44.81422194700007" lon="5.740386556071041"><ele>730.6666666666666</ele><time>2026-04-28T13:29:10.999Z</time></trkpt><trkpt lat="44.814140665812786" lon="5.740439094044679"><ele>731.3333333333334</ele><time>2026-04-28T13:29:12.999Z</time></trkpt><trkpt lat="44.81407554697786" lon="5.740488758321842"><ele>732.0</ele><time>2026-04-28T13:29:14.999Z</time></trkpt><trkpt lat="44.81399820461656" lon="5.740533108462557"><ele>732.5</ele><time>2026-04-28T13:29:16.999Z</time></trkpt><trkpt lat="44.81392375601563" lon="5.740582893260582"><ele>733.0</ele><time>2026-04-28T13:29:18.999Z</time></trkpt><trkpt lat="44.8138650982812" lon="5.740634007112482"><ele>733.5</ele><time>2026-04-28T13:29:20.999Z</time></trkpt><trkpt lat="44.813787112409706" lon="5.74068221878616"><ele>734.0</ele><time>2026-04-28T13:29:22.999Z</time></trkpt><trkpt lat="44.813713261239336" lon="5.740729621576941"><ele>734.5</ele><time>2026-04-28T13:29:24.999Z</time></trkpt><trkpt lat="44.813632093526664" lon="5.740781142164334"><ele>735.0</ele><time>2026-04-28T13:29:26.999Z</time></trkpt><trkpt lat="44.81354378028043" lon="5.740835108955532"><ele>735.1666666666666</ele><time>2026-04-28T13:29:28.999Z</time></trkpt><trkpt lat="44.81344698011279" lon="5.740902890081915"><ele>735.3333333333334</ele><time>2026-04-28T13:29:31.999Z</time></trkpt><trkpt lat="44.8133565199323" lon="5.7409529431814965"><ele>735.5</ele><time>2026-04-28T13:29:33.999Z</time></trkpt><trkpt lat="44.813287085022864" lon="5.740987718202804"><ele>735.6666666666667</ele><time>2026-04-28T13:29:35.999Z</time></trkpt><trkpt lat="44.813232712209306" lon="5.74103811365175"><ele>735.8333333333334</ele><time>2026-04-28T13:29:37.999Z</time></trkpt><trkpt lat="44.81317373114517" lon="5.741086087277552"><ele>736.0</ele><time>2026-04-28T13:29:39.999Z</time></trkpt><trkpt lat="44.81310529142101" lon="5.7411334853727"><ele>736.8571428571429</ele><time>2026-04-28T13:29:41.999Z</time></trkpt><trkpt lat="44.8130517402026" lon="5.741194914042805"><ele>737.7142857142857</ele><time>2026-04-28T13:29:43.999Z</time></trkpt><trkpt lat="44.81299787169811" lon="5.741266863121575"><ele>738.5714285714286</ele><time>2026-04-28T13:29:45.999Z</time></trkpt><trkpt lat="44.812951249925476" lon="5.7413405136797895"><ele>739.4285714285714</ele><time>2026-04-28T13:29:47.999Z</time></trkpt><trkpt lat="44.812910238226344" lon="5.74142175184415"><ele>740.2857142857142</ele><time>2026-04-28T13:29:49.999Z</time></trkpt><trkpt lat="44.81288301978124" lon="5.741517446533149"><ele>741.1428571428571</ele><time>2026-04-28T13:29:51.999Z</time></trkpt><trkpt lat="44.812845624283284" lon="5.741606591396922"><ele>742.0</ele><time>2026-04-28T13:29:53.999Z</time></trkpt><trkpt lat="44.81280820837036" lon="5.741684038335518"><ele>742.0</ele><time>2026-04-28T13:29:55.999Z</time></trkpt><trkpt lat="44.8128003131912" lon="5.741798292991226"><ele>742.0</ele><time>2026-04-28T13:29:57.999Z</time></trkpt><trkpt lat="44.81280362493253" lon="5.741893816983956"><ele>742.0</ele><time>2026-04-28T13:29:59.999Z</time></trkpt><trkpt lat="44.812804556996994" lon="5.742012837823779"><ele>742.0</ele><time>2026-04-28T13:30:01.999Z</time></trkpt><trkpt lat="44.81281564249126" lon="5.742118823943267"><ele>742.0</ele><time>2026-04-28T13:30:04Z</time></trkpt><trkpt lat="44.81282927015769" lon="5.742217935392199"><ele>742.0</ele><time>2026-04-28T13:30:06Z</time></trkpt><trkpt lat="44.8128547151095" lon="5.742321761397446"><ele>742.5</ele><time>2026-04-28T13:30:08Z</time></trkpt><trkpt lat="44.812884140716534" lon="5.742415135372799"><ele>743.0</ele><time>2026-04-28T13:30:10Z</time></trkpt><trkpt lat="44.81292482666207" lon="5.7425191814205"><ele>743.5</ele><time>2026-04-28T13:30:12Z</time></trkpt><trkpt lat="44.812981759918706" lon="5.742610922262702"><ele>744.0</ele><time>2026-04-28T13:30:14Z</time></trkpt><trkpt lat="44.813048086770536" lon="5.742670946737123"><ele>744.5</ele><time>2026-04-28T13:30:16Z</time></trkpt><trkpt lat="44.813100661577614" lon="5.742727901093257"><ele>745.0</ele><time>2026-04-28T13:30:18Z</time></trkpt><trkpt lat="44.813178064272016" lon="5.742795215498524"><ele>746.0</ele><time>2026-04-28T13:30:20Z</time></trkpt><trkpt lat="44.81325177410435" lon="5.742855830485127"><ele>747.0</ele><time>2026-04-28T13:30:22Z</time></trkpt><trkpt lat="44.813309920645764" lon="5.742917481537491"><ele>748.0</ele><time>2026-04-28T13:30:24Z</time></trkpt><trkpt lat="44.81339230631884" lon="5.742966969666192"><ele>749.0</ele><time>2026-04-28T13:30:26Z</time></trkpt><trkpt lat="44.81346531658357" lon="5.7430245789790355"><ele>750.0</ele><time>2026-04-28T13:30:28Z</time></trkpt><trkpt lat="44.813527466341206" lon="5.743070934845529"><ele>751.0</ele><time>2026-04-28T13:30:30Z</time></trkpt><trkpt lat="44.81360617121126" lon="5.74312552204336"><ele>751.0</ele><time>2026-04-28T13:30:32Z</time></trkpt><trkpt lat="44.81367093673484" lon="5.7431726430993795"><ele>751.0</ele><time>2026-04-28T13:30:34Z</time></trkpt><trkpt lat="44.81374134230005" lon="5.74322691663325"><ele>751.0</ele><time>2026-04-28T13:30:36Z</time></trkpt><trkpt lat="44.81381909996536" lon="5.743236744568876"><ele>751.0</ele><time>2026-04-28T13:30:39Z</time></trkpt><trkpt lat="44.81391082899125" lon="5.743302272603831"><ele>751.0</ele><time>2026-04-28T13:30:41Z</time></trkpt><trkpt lat="44.813984753181145" lon="5.743346811233773"><ele>751.0</ele><time>2026-04-28T13:30:43Z</time></trkpt><trkpt lat="44.8140586948203" lon="5.743396774331034"><ele>751.0</ele><time>2026-04-28T13:30:45Z</time></trkpt><trkpt lat="44.81412464395017" lon="5.743418653607085"><ele>751.0</ele><time>2026-04-28T13:30:47Z</time></trkpt><trkpt lat="44.81419601052042" lon="5.743460894725378"><ele>751.0</ele><time>2026-04-28T13:30:49Z</time></trkpt><trkpt lat="44.814266655321056" lon="5.74350843548343"><ele>751.0</ele><time>2026-04-28T13:30:51Z</time></trkpt><trkpt lat="44.8143384387394" lon="5.7435546571579446"><ele>751.0</ele><time>2026-04-28T13:30:53Z</time></trkpt><trkpt lat="44.81441064633586" lon="5.74359583377343"><ele>751.0</ele><time>2026-04-28T13:30:55Z</time></trkpt><trkpt lat="44.81447582562395" lon="5.743635321927467"><ele>751.8333333333334</ele><time>2026-04-28T13:30:57Z</time></trkpt><trkpt lat="44.81453237927556" lon="5.743688460595951"><ele>752.6666666666667</ele><time>2026-04-28T13:30:59Z</time></trkpt><trkpt lat="44.81460563815677" lon="5.743726568085392"><ele>753.5</ele><time>2026-04-28T13:31:01Z</time></trkpt><trkpt lat="44.81468437336344" lon="5.743776104993735"><ele>754.3333333333334</ele><time>2026-04-28T13:31:03Z</time></trkpt><trkpt lat="44.81474877928439" lon="5.743809635583228"><ele>755.1666666666666</ele><time>2026-04-28T13:31:05Z</time></trkpt><trkpt lat="44.814825745446626" lon="5.743867476855196"><ele>756.0</ele><time>2026-04-28T13:31:07Z</time></trkpt><trkpt lat="44.814910956720276" lon="5.743927398194626"><ele>756.0</ele><time>2026-04-28T13:31:09Z</time></trkpt><trkpt lat="44.81499156412283" lon="5.7439843289708845"><ele>756.0</ele><time>2026-04-28T13:31:10.999Z</time></trkpt><trkpt lat="44.81507734305767" lon="5.7440339864650225"><ele>756.0</ele><time>2026-04-28T13:31:12.999Z</time></trkpt><trkpt lat="44.815155213897796" lon="5.744074463654022"><ele>756.0</ele><time>2026-04-28T13:31:14.999Z</time></trkpt><trkpt lat="44.815238037814225" lon="5.7441171584213615"><ele>756.0</ele><time>2026-04-28T13:31:16.999Z</time></trkpt><trkpt lat="44.815316714834516" lon="5.744170391635346"><ele>756.0</ele><time>2026-04-28T13:31:18.999Z</time></trkpt><trkpt lat="44.815398356385565" lon="5.74420523432605"><ele>755.6666666666666</ele><time>2026-04-28T13:31:20.999Z</time></trkpt><trkpt lat="44.81547941867281" lon="5.744247437565305"><ele>755.3333333333334</ele><time>2026-04-28T13:31:22.999Z</time></trkpt><trkpt lat="44.81556750078305" lon="5.744288272233897"><ele>755.0</ele><time>2026-04-28T13:31:24.999Z</time></trkpt><trkpt lat="44.81565846406756" lon="5.7443333096850955"><ele>754.6666666666667</ele><time>2026-04-28T13:31:26.999Z</time></trkpt><trkpt lat="44.81575175141486" lon="5.744370925700005"><ele>754.3333333333334</ele><time>2026-04-28T13:31:28.999Z</time></trkpt><trkpt lat="44.81581920918636" lon="5.74441968376749"><ele>754.0</ele><time>2026-04-28T13:31:30.999Z</time></trkpt><trkpt lat="44.81588678289716" lon="5.744456305644648"><ele>754.8333333333334</ele><time>2026-04-28T13:31:32.999Z</time></trkpt><trkpt lat="44.815960502385956" lon="5.744500411427939"><ele>755.6666666666667</ele><time>2026-04-28T13:31:34.999Z</time></trkpt><trkpt lat="44.81603412975838" lon="5.744541199072728"><ele>756.5</ele><time>2026-04-28T13:31:36.999Z</time></trkpt><trkpt lat="44.816102056161895" lon="5.744590710022627"><ele>757.3333333333334</ele><time>2026-04-28T13:31:38.999Z</time></trkpt><trkpt lat="44.8161610603221" lon="5.744642876894188"><ele>758.1666666666666</ele><time>2026-04-28T13:31:40.999Z</time></trkpt><trkpt lat="44.81622384331536" lon="5.744746595781338"><ele>759.0</ele><time>2026-04-28T13:31:43.999Z</time></trkpt><trkpt lat="44.81626643955599" lon="5.7448209527092775"><ele>759.0</ele><time>2026-04-28T13:31:45.999Z</time></trkpt><trkpt lat="44.81630160264763" lon="5.744903096988283"><ele>759.0</ele><time>2026-04-28T13:31:47.999Z</time></trkpt><trkpt lat="44.81633163554534" lon="5.744998519976756"><ele>759.0</ele><time>2026-04-28T13:31:49.999Z</time></trkpt><trkpt lat="44.81635378161287" lon="5.745103924921085"><ele>759.0</ele><time>2026-04-28T13:31:51.999Z</time></trkpt><trkpt lat="44.81637272464852" lon="5.745211038180757"><ele>759.0</ele><time>2026-04-28T13:31:53.999Z</time></trkpt><trkpt lat="44.81638789558063" lon="5.745326489923467"><ele>759.0</ele><time>2026-04-28T13:31:55.999Z</time></trkpt><trkpt lat="44.816399842968714" lon="5.745454203667835"><ele>759.5</ele><time>2026-04-28T13:31:57.999Z</time></trkpt><trkpt lat="44.816406647438235" lon="5.745577250398606"><ele>760.0</ele><time>2026-04-28T13:31:59.999Z</time></trkpt><trkpt lat="44.81640092916608" lon="5.745699365718066"><ele>760.5</ele><time>2026-04-28T13:32:01.999Z</time></trkpt><trkpt lat="44.81641156010085" lon="5.7458227409491"><ele>761.0</ele><time>2026-04-28T13:32:03.999Z</time></trkpt><trkpt lat="44.81642647452048" lon="5.745950049548404"><ele>761.5</ele><time>2026-04-28T13:32:05.999Z</time></trkpt><trkpt lat="44.816449596798606" lon="5.746069071687511"><ele>762.0</ele><time>2026-04-28T13:32:07.999Z</time></trkpt><trkpt lat="44.816466419685014" lon="5.746196522142248"><ele>762.3333333333334</ele><time>2026-04-28T13:32:10Z</time></trkpt><trkpt lat="44.81648093884175" lon="5.7463182008070515"><ele>762.6666666666666</ele><time>2026-04-28T13:32:12Z</time></trkpt><trkpt lat="44.81649446247403" lon="5.746438987935876"><ele>763.0</ele><time>2026-04-28T13:32:14Z</time></trkpt><trkpt lat="44.81649848619217" lon="5.746562749065962"><ele>763.3333333333333</ele><time>2026-04-28T13:32:16Z</time></trkpt><trkpt lat="44.81650420309059" lon="5.746685727227122"><ele>763.6666666666666</ele><time>2026-04-28T13:32:18Z</time></trkpt><trkpt lat="44.81651751042328" lon="5.746809010135051"><ele>764.0</ele><time>2026-04-28T13:32:20Z</time></trkpt><trkpt lat="44.816530632409524" lon="5.746922924055076"><ele>764.6666666666666</ele><time>2026-04-28T13:32:22Z</time></trkpt><trkpt lat="44.816541343752235" lon="5.747031429466736"><ele>765.3333333333333</ele><time>2026-04-28T13:32:24Z</time></trkpt><trkpt lat="44.816548048909404" lon="5.747138736732995"><ele>766.0</ele><time>2026-04-28T13:32:26Z</time></trkpt><trkpt lat="44.816557845291236" lon="5.747251005176659"><ele>766.6666666666666</ele><time>2026-04-28T13:32:28Z</time></trkpt><trkpt lat="44.816560955883084" lon="5.7473543729987115"><ele>767.3333333333334</ele><time>2026-04-28T13:32:30Z</time></trkpt><trkpt lat="44.816585507802415" lon="5.74744781579162"><ele>768.0</ele><time>2026-04-28T13:32:32Z</time></trkpt><trkpt lat="44.816635025543185" lon="5.747569147274214"><ele>767.9999999999999</ele><time>2026-04-28T13:32:35Z</time></trkpt><trkpt lat="44.816672739012105" lon="5.747663731940384"><ele>768.0</ele><time>2026-04-28T13:32:37Z</time></trkpt><trkpt lat="44.816697522187795" lon="5.747754705133191"><ele>768.0</ele><time>2026-04-28T13:32:39Z</time></trkpt><trkpt lat="44.81670908668892" lon="5.747876032733001"><ele>768.0</ele><time>2026-04-28T13:32:42Z</time></trkpt><trkpt lat="44.81669367642039" lon="5.747988217666017"><ele>768.0</ele><time>2026-04-28T13:32:46Z</time></trkpt><trkpt lat="44.8166940200061" lon="5.74808739128699"><ele>767.9999999999999</ele><time>2026-04-28T13:32:49Z</time></trkpt><trkpt lat="44.81670357267802" lon="5.748177235392736"><ele>768.0</ele><time>2026-04-28T13:32:52Z</time></trkpt><trkpt lat="44.816693821538436" lon="5.7482920971444615"><ele>768.1666666666666</ele><time>2026-04-28T13:32:56Z</time></trkpt><trkpt lat="44.81670017009595" lon="5.748381063694066"><ele>768.3333333333333</ele><time>2026-04-28T13:32:59Z</time></trkpt><trkpt lat="44.81669756809103" lon="5.74847490050813"><ele>768.5</ele><time>2026-04-28T13:33:01.999Z</time></trkpt><trkpt lat="44.81670873650268" lon="5.7485929230677275"><ele>768.6666666666666</ele><time>2026-04-28T13:33:04.999Z</time></trkpt><trkpt lat="44.81670143195768" lon="5.748723847883151"><ele>768.8333333333333</ele><time>2026-04-28T13:33:07.999Z</time></trkpt><trkpt lat="44.81670851405588" lon="5.748854157524134"><ele>769.0</ele><time>2026-04-28T13:33:10.999Z</time></trkpt><trkpt lat="44.81670563250335" lon="5.748952789156892"><ele>769.6666666666666</ele><time>2026-04-28T13:33:12.999Z</time></trkpt><trkpt lat="44.81669960147453" lon="5.7490478192736525"><ele>770.3333333333333</ele><time>2026-04-28T13:33:14.999Z</time></trkpt><trkpt lat="44.81671720780772" lon="5.749145445120435"><ele>771.0</ele><time>2026-04-28T13:33:16.999Z</time></trkpt><trkpt lat="44.81672453680948" lon="5.7492544080578005"><ele>771.6666666666667</ele><time>2026-04-28T13:33:18.999Z</time></trkpt><trkpt lat="44.816733482787924" lon="5.749363484886312"><ele>772.3333333333334</ele><time>2026-04-28T13:33:20.999Z</time></trkpt><trkpt lat="44.81675368096621" lon="5.749471551879314"><ele>773.0</ele><time>2026-04-28T13:33:22.999Z</time></trkpt><trkpt lat="44.81676668865905" lon="5.749578023745137"><ele>773.3333333333334</ele><time>2026-04-28T13:33:24.999Z</time></trkpt><trkpt lat="44.81678680126625" lon="5.7496767313001"><ele>773.6666666666667</ele><time>2026-04-28T13:33:26.999Z</time></trkpt><trkpt lat="44.816794627270816" lon="5.749783256406343"><ele>774.0</ele><time>2026-04-28T13:33:28.999Z</time></trkpt><trkpt lat="44.81680718411503" lon="5.749885994752962"><ele>774.3333333333333</ele><time>2026-04-28T13:33:30.999Z</time></trkpt><trkpt lat="44.81681847655398" lon="5.749997731322622"><ele>774.6666666666666</ele><time>2026-04-28T13:33:32.999Z</time></trkpt><trkpt lat="44.816826127857915" lon="5.750109845598044"><ele>775.0</ele><time>2026-04-28T13:33:34.999Z</time></trkpt><trkpt lat="44.81683767521256" lon="5.750217072311962"><ele>775.8333333333333</ele><time>2026-04-28T13:33:36.999Z</time></trkpt><trkpt lat="44.81683799912569" lon="5.7503541270192855"><ele>776.6666666666666</ele><time>2026-04-28T13:33:39.999Z</time></trkpt><trkpt lat="44.816878331224686" lon="5.750448775531154"><ele>777.5</ele><time>2026-04-28T13:33:41.999Z</time></trkpt><trkpt lat="44.81690642629041" lon="5.750536624113408"><ele>778.3333333333333</ele><time>2026-04-28T13:33:43.999Z</time></trkpt><trkpt lat="44.81695486291939" lon="5.750616973223162"><ele>779.1666666666666</ele><time>2026-04-28T13:33:45.999Z</time></trkpt><trkpt lat="44.81699436497869" lon="5.750693695166496"><ele>780.0</ele><time>2026-04-28T13:33:47.999Z</time></trkpt><trkpt lat="44.81701994472938" lon="5.750819339764135"><ele>780.0</ele><time>2026-04-28T13:33:50.999Z</time></trkpt><trkpt lat="44.81702510341609" lon="5.7509174126608"><ele>780.0</ele><time>2026-04-28T13:33:52.999Z</time></trkpt><trkpt lat="44.817055827254414" lon="5.75100326557344"><ele>780.0</ele><time>2026-04-28T13:33:54.999Z</time></trkpt><trkpt lat="44.817059995692084" lon="5.75109758660554"><ele>780.0</ele><time>2026-04-28T13:33:56.999Z</time></trkpt><trkpt lat="44.8170728787422" lon="5.751190722030384"><ele>780.0</ele><time>2026-04-28T13:33:58.999Z</time></trkpt><trkpt lat="44.81707510584742" lon="5.75129113038346"><ele>780.0</ele><time>2026-04-28T13:34:00.999Z</time></trkpt><trkpt lat="44.81709799961963" lon="5.751382612255653"><ele>780.0</ele><time>2026-04-28T13:34:02.999Z</time></trkpt><trkpt lat="44.817119382102504" lon="5.751471582484581"><ele>780.2857142857142</ele><time>2026-04-28T13:34:04.999Z</time></trkpt><trkpt lat="44.81713565219531" lon="5.751566215619466"><ele>780.5714285714286</ele><time>2026-04-28T13:34:06.999Z</time></trkpt><trkpt lat="44.81715112934638" lon="5.751654173716256"><ele>780.8571428571429</ele><time>2026-04-28T13:34:08.999Z</time></trkpt><trkpt lat="44.81717963295397" lon="5.75173677735498"><ele>781.1428571428571</ele><time>2026-04-28T13:34:10.999Z</time></trkpt><trkpt lat="44.81725356489773" lon="5.751776398178039"><ele>781.4285714285714</ele><time>2026-04-28T13:34:12.999Z</time></trkpt><trkpt lat="44.817324051688374" lon="5.751825056025545"><ele>781.7142857142857</ele><time>2026-04-28T13:34:14.999Z</time></trkpt><trkpt lat="44.81739125786076" lon="5.751883311453657"><ele>782.0</ele><time>2026-04-28T13:34:17Z</time></trkpt><trkpt lat="44.81745472271595" lon="5.751936707438775"><ele>783.0</ele><time>2026-04-28T13:34:19Z</time></trkpt><trkpt lat="44.81752030475932" lon="5.751986833807227"><ele>783.0</ele><time>2026-04-28T13:34:21Z</time></trkpt><trkpt lat="44.817588764210555" lon="5.752053943748979"><ele>783.0</ele><time>2026-04-28T13:34:24Z</time></trkpt><trkpt lat="44.8176548892872" lon="5.752053640525095"><ele>784.0</ele><time>2026-04-28T13:34:30Z</time></trkpt></trkseg></trk></gpx>